<?xml version='1.0' encoding='UTF-8'?><gpx version="1.1" creator="JPX - https://github.com/jenetics/jpx" xmlns="http://www.topografix.com/GPX/1/1"><trk><trkseg><trkpt lat="42.15005877291262" lon="13.681024098728992"><ele>746.0</ele><time>2026-04-19T13:36:27Z</time></trkpt><trkpt lat="42.15013408585819" lon="13.681045672497406"><ele>746.0</ele><time>2026-04-19T13:36:28Z</time></trkpt><trkpt lat="42.15023132231555" lon="13.681079795717265"><ele>746.0</ele><time>2026-04-19T13:36:29Z</time></trkpt><trkpt lat="42.15033495671925" lon="13.681123263535492"><ele>746.0</ele><time>2026-04-19T13:36:30Z</time></trkpt><trkpt lat="42.150446347847925" lon="13.681190836100425"><ele>746.0</ele><time>2026-04-19T13:36:31Z</time></trkpt><trkpt lat="42.15056402872285" lon="13.681266017393831"><ele>743.25</ele><time>2026-04-19T13:36:32Z</time></trkpt><trkpt lat="42.15068245793605" lon="13.681354286521325"><ele>740.5</ele><time>2026-04-19T13:36:33Z</time></trkpt><trkpt lat="42.15080592735553" lon="13.681449403459135"><ele>737.75</ele><time>2026-04-19T13:36:34Z</time></trkpt><trkpt lat="42.15093214677077" lon="13.681546740453141"><ele>735.0</ele><time>2026-04-19T13:36:35Z</time></trkpt><trkpt lat="42.15105132522712" lon="13.681648756171697"><ele>735.0</ele><time>2026-04-19T13:36:36Z</time></trkpt><trkpt lat="42.1511545674748" lon="13.681773107850676"><ele>735.0</ele><time>2026-04-19T13:36:37Z</time></trkpt><trkpt lat="42.151246965857695" lon="13.681940472158018"><ele>735.0</ele><time>2026-04-19T13:36:38Z</time></trkpt><trkpt lat="42.151325896083854" lon="13.68213078881311"><ele>732.25</ele><time>2026-04-19T13:36:39Z</time></trkpt><trkpt lat="42.15139109109881" lon="13.682325960386892"><ele>729.5</ele><time>2026-04-19T13:36:40Z</time></trkpt><trkpt lat="42.151446143628476" lon="13.682508527980508"><ele>726.75</ele><time>2026-04-19T13:36:41Z</time></trkpt><trkpt lat="42.15149990576792" lon="13.682683413354173"><ele>724.0</ele><time>2026-04-19T13:36:42Z</time></trkpt><trkpt lat="42.15154931728947" lon="13.682851011921562"><ele>724.0</ele><time>2026-04-19T13:36:43Z</time></trkpt><trkpt lat="42.15159436396829" lon="13.683008739266583"><ele>724.0</ele><time>2026-04-19T13:36:44Z</time></trkpt><trkpt lat="42.151628824349025" lon="13.683158619483164"><ele>724.0</ele><time>2026-04-19T13:36:45Z</time></trkpt><trkpt lat="42.15166541427754" lon="13.683316565394174"><ele>724.0</ele><time>2026-04-19T13:36:46Z</time></trkpt><trkpt lat="42.15168856051784" lon="13.68349205694913"><ele>722.3333333333334</ele><time>2026-04-19T13:36:47Z</time></trkpt><trkpt lat="42.15169983740132" lon="13.68369437819424"><ele>720.6666666666666</ele><time>2026-04-19T13:36:48Z</time></trkpt><trkpt lat="42.1516993063733" lon="13.683914108303554"><ele>719.0</ele><time>2026-04-19T13:36:49Z</time></trkpt><trkpt lat="42.151693654942" lon="13.684140878342157"><ele>719.0</ele><time>2026-04-19T13:36:50Z</time></trkpt><trkpt lat="42.151687134957065" lon="13.684352337401192"><ele>719.0</ele><time>2026-04-19T13:36:51Z</time></trkpt><trkpt lat="42.15167580731681" lon="13.68455651788278"><ele>719.0</ele><time>2026-04-19T13:36:52Z</time></trkpt><trkpt lat="42.151665718766786" lon="13.68475682923084"><ele>717.25</ele><time>2026-04-19T13:36:53Z</time></trkpt><trkpt lat="42.151654413518536" lon="13.6849488332442"><ele>715.5</ele><time>2026-04-19T13:36:54Z</time></trkpt><trkpt lat="42.15164259711085" lon="13.685127900613928"><ele>713.75</ele><time>2026-04-19T13:36:55Z</time></trkpt><trkpt lat="42.15163254707117" lon="13.685300041052221"><ele>712.0</ele><time>2026-04-19T13:36:56Z</time></trkpt><trkpt lat="42.151627080248474" lon="13.68545546121515"><ele>710.6</ele><time>2026-04-19T13:36:57Z</time></trkpt><trkpt lat="42.151634590009586" lon="13.685602518809684"><ele>709.2</ele><time>2026-04-19T13:36:58Z</time></trkpt><trkpt lat="42.151659959251" lon="13.685726361100818"><ele>707.8</ele><time>2026-04-19T13:36:59Z</time></trkpt><trkpt lat="42.15171946728353" lon="13.685826241621305"><ele>706.4</ele><time>2026-04-19T13:37:00Z</time></trkpt><trkpt lat="42.151805648563126" lon="13.685889670775431"><ele>705.0</ele><time>2026-04-19T13:37:01Z</time></trkpt><trkpt lat="42.1519103517875" lon="13.685903195221371"><ele>705.0</ele><time>2026-04-19T13:37:02Z</time></trkpt><trkpt lat="42.15203075583709" lon="13.685886544104447"><ele>705.0</ele><time>2026-04-19T13:37:03Z</time></trkpt><trkpt lat="42.15216822940601" lon="13.68585143750787"><ele>705.0</ele><time>2026-04-19T13:37:04Z</time></trkpt><trkpt lat="42.15230208321158" lon="13.685836899203116"><ele>705.0</ele><time>2026-04-19T13:37:05Z</time></trkpt><trkpt lat="42.152442560807955" lon="13.685826738545103"><ele>705.25</ele><time>2026-04-19T13:37:05.999Z</time></trkpt><trkpt lat="42.15259056694364" lon="13.685829432440126"><ele>705.5</ele><time>2026-04-19T13:37:06.999Z</time></trkpt><trkpt lat="42.15272095972653" lon="13.685832944266279"><ele>705.75</ele><time>2026-04-19T13:37:07.999Z</time></trkpt><trkpt lat="42.15283421044653" lon="13.68582542439335"><ele>706.0</ele><time>2026-04-19T13:37:08.999Z</time></trkpt><trkpt lat="42.152941274559645" lon="13.685779153707184"><ele>706.0</ele><time>2026-04-19T13:37:10Z</time></trkpt><trkpt lat="42.153049482913" lon="13.68571604245546"><ele>706.0</ele><time>2026-04-19T13:37:11Z</time></trkpt><trkpt lat="42.15313736042207" lon="13.685579084082148"><ele>706.0</ele><time>2026-04-19T13:37:12Z</time></trkpt><trkpt lat="42.15321567938705" lon="13.685406197303282"><ele>706.0</ele><time>2026-04-19T13:37:13Z</time></trkpt><trkpt lat="42.153296529372064" lon="13.685212701665344"><ele>706.5</ele><time>2026-04-19T13:37:14Z</time></trkpt><trkpt lat="42.1533601860184" lon="13.685033970660331"><ele>707.0</ele><time>2026-04-19T13:37:15Z</time></trkpt><trkpt lat="42.153423603034966" lon="13.68487046432561"><ele>707.5</ele><time>2026-04-19T13:37:16Z</time></trkpt><trkpt lat="42.15347912691101" lon="13.684710621280411"><ele>708.0</ele><time>2026-04-19T13:37:17Z</time></trkpt><trkpt lat="42.1535387421435" lon="13.68456182812638"><ele>708.0</ele><time>2026-04-19T13:37:18Z</time></trkpt><trkpt lat="42.15361626794655" lon="13.68443675449445"><ele>708.0</ele><time>2026-04-19T13:37:19Z</time></trkpt><trkpt lat="42.15368698386595" lon="13.684317692041725"><ele>708.0</ele><time>2026-04-19T13:37:20Z</time></trkpt><trkpt lat="42.153753494906354" lon="13.684207865479632"><ele>708.0</ele><time>2026-04-19T13:37:21Z</time></trkpt><trkpt lat="42.153817622627145" lon="13.684102853328964"><ele>708.0</ele><time>2026-04-19T13:37:22Z</time></trkpt><trkpt lat="42.15389812746239" lon="13.684015790285494"><ele>709.0</ele><time>2026-04-19T13:37:23Z</time></trkpt><trkpt lat="42.15399677183695" lon="13.683955128170773"><ele>710.0</ele><time>2026-04-19T13:37:24Z</time></trkpt><trkpt lat="42.15404526294258" lon="13.683784592884011"><ele>711.0</ele><time>2026-04-19T13:37:25Z</time></trkpt><trkpt lat="42.154109769672054" lon="13.683703797250097"><ele>712.0</ele><time>2026-04-19T13:37:26Z</time></trkpt><trkpt lat="42.15417449451416" lon="13.683652477443172"><ele>713.0</ele><time>2026-04-19T13:37:27Z</time></trkpt><trkpt lat="42.154247583764274" lon="13.683634231447193"><ele>710.0</ele><time>2026-04-19T13:37:28Z</time></trkpt><trkpt lat="42.15432627469035" lon="13.683672970794992"><ele>707.0</ele><time>2026-04-19T13:37:28.999Z</time></trkpt><trkpt lat="42.15437111519888" lon="13.683786538302195"><ele>704.0</ele><time>2026-04-19T13:37:29.999Z</time></trkpt><trkpt lat="42.154416090755255" lon="13.683888443351554"><ele>701.0</ele><time>2026-04-19T13:37:30.999Z</time></trkpt><trkpt lat="42.154368940662" lon="13.684037754311206"><ele>698.0</ele><time>2026-04-19T13:37:31.999Z</time></trkpt><trkpt lat="42.15436959222166" lon="13.68420327509648"><ele>698.0</ele><time>2026-04-19T13:37:32.999Z</time></trkpt><trkpt lat="42.15437451801903" lon="13.684426754079778"><ele>698.0</ele><time>2026-04-19T13:37:33.999Z</time></trkpt><trkpt lat="42.15433862128064" lon="13.684663505533207"><ele>698.0</ele><time>2026-04-19T13:37:34.999Z</time></trkpt><trkpt lat="42.154327667105655" lon="13.68492924548949"><ele>698.3333333333333</ele><time>2026-04-19T13:37:35.999Z</time></trkpt><trkpt lat="42.15429924391999" lon="13.685170331253337"><ele>698.6666666666666</ele><time>2026-04-19T13:37:36.999Z</time></trkpt><trkpt lat="42.15427552657485" lon="13.68538335160714"><ele>699.0</ele><time>2026-04-19T13:37:37.999Z</time></trkpt><trkpt lat="42.15424745602271" lon="13.68558062343655"><ele>699.0</ele><time>2026-04-19T13:37:38.999Z</time></trkpt><trkpt lat="42.15423539741943" lon="13.685766967356473"><ele>699.0</ele><time>2026-04-19T13:37:39.999Z</time></trkpt><trkpt lat="42.15421605938486" lon="13.685955798288003"><ele>699.0</ele><time>2026-04-19T13:37:40.999Z</time></trkpt><trkpt lat="42.154203496908046" lon="13.686133555141616"><ele>699.0</ele><time>2026-04-19T13:37:41.998Z</time></trkpt><trkpt lat="42.15419073957618" lon="13.686296273710628"><ele>699.25</ele><time>2026-04-19T13:37:42.998Z</time></trkpt><trkpt lat="42.15417638420971" lon="13.686459552713949"><ele>699.5</ele><time>2026-04-19T13:37:43.998Z</time></trkpt><trkpt lat="42.154158184525166" lon="13.686626451246735"><ele>699.75</ele><time>2026-04-19T13:37:44.998Z</time></trkpt><trkpt lat="42.15413537505008" lon="13.686794144718956"><ele>700.0</ele><time>2026-04-19T13:37:45.998Z</time></trkpt><trkpt lat="42.154106902999736" lon="13.686946521983923"><ele>700.0</ele><time>2026-04-19T13:37:46.998Z</time></trkpt><trkpt lat="42.15405169529165" lon="13.687070520816068"><ele>700.0</ele><time>2026-04-19T13:37:47.998Z</time></trkpt><trkpt lat="42.15402306561982" lon="13.68719199829207"><ele>700.0</ele><time>2026-04-19T13:37:48.998Z</time></trkpt><trkpt lat="42.15399113885239" lon="13.687299807047854"><ele>700.0</ele><time>2026-04-19T13:37:49.998Z</time></trkpt><trkpt lat="42.15399511271827" lon="13.687429811540664"><ele>700.0</ele><time>2026-04-19T13:37:50.998Z</time></trkpt><trkpt lat="42.15404145278648" lon="13.687569157962583"><ele>700.0</ele><time>2026-04-19T13:37:51.998Z</time></trkpt><trkpt lat="42.15410777468148" lon="13.68771389333158"><ele>700.0</ele><time>2026-04-19T13:37:52.998Z</time></trkpt><trkpt lat="42.15417400736197" lon="13.687867298140006"><ele>700.0</ele><time>2026-04-19T13:37:53.998Z</time></trkpt><trkpt lat="42.1542364645421" lon="13.688035341830954"><ele>700.0</ele><time>2026-04-19T13:37:54.998Z</time></trkpt><trkpt lat="42.15430239350959" lon="13.688208640266987"><ele>698.0</ele><time>2026-04-19T13:37:55.998Z</time></trkpt><trkpt lat="42.154366598700285" lon="13.68838883909975"><ele>696.0</ele><time>2026-04-19T13:37:56.998Z</time></trkpt><trkpt lat="42.154427962166345" lon="13.68856513577655"><ele>694.0</ele><time>2026-04-19T13:37:57.998Z</time></trkpt><trkpt lat="42.154479122735545" lon="13.688718946554495"><ele>692.0</ele><time>2026-04-19T13:37:58.998Z</time></trkpt><trkpt lat="42.154511998523795" lon="13.688878924449504"><ele>691.0</ele><time>2026-04-19T13:37:59.998Z</time></trkpt><trkpt lat="42.154526867262234" lon="13.6890517856778"><ele>690.0</ele><time>2026-04-19T13:38:00.998Z</time></trkpt><trkpt lat="42.15453479606599" lon="13.68923247058318"><ele>689.0</ele><time>2026-04-19T13:38:01.998Z</time></trkpt><trkpt lat="42.15454518831255" lon="13.689402366055633"><ele>688.0</ele><time>2026-04-19T13:38:02.998Z</time></trkpt><trkpt lat="42.15457007577071" lon="13.689554947699248"><ele>687.5</ele><time>2026-04-19T13:38:03.998Z</time></trkpt><trkpt lat="42.15461410450895" lon="13.689694614274392"><ele>687.0</ele><time>2026-04-19T13:38:04.998Z</time></trkpt><trkpt lat="42.15467714278898" lon="13.689817538682762"><ele>686.5</ele><time>2026-04-19T13:38:05.998Z</time></trkpt><trkpt lat="42.15476335345461" lon="13.68990875483544"><ele>686.0</ele><time>2026-04-19T13:38:06.998Z</time></trkpt><trkpt lat="42.154872585429416" lon="13.689975745840279"><ele>691.25</ele><time>2026-04-19T13:38:07.998Z</time></trkpt><trkpt lat="42.15500891207051" lon="13.69000880568546"><ele>696.5</ele><time>2026-04-19T13:38:08.998Z</time></trkpt><trkpt lat="42.15515655749822" lon="13.690051608933398"><ele>701.75</ele><time>2026-04-19T13:38:09.998Z</time></trkpt><trkpt lat="42.15530892096895" lon="13.69009755243534"><ele>707.0</ele><time>2026-04-19T13:38:10.998Z</time></trkpt><trkpt lat="42.15544791448788" lon="13.69014960321961"><ele>707.0</ele><time>2026-04-19T13:38:11.998Z</time></trkpt><trkpt lat="42.155569222316316" lon="13.69018414025712"><ele>707.0</ele><time>2026-04-19T13:38:12.998Z</time></trkpt><trkpt lat="42.15568651221417" lon="13.690197668559879"><ele>707.0</ele><time>2026-04-19T13:38:13.998Z</time></trkpt><trkpt lat="42.155800066356285" lon="13.690205727175933"><ele>707.0</ele><time>2026-04-19T13:38:14.998Z</time></trkpt><trkpt lat="42.15589448870168" lon="13.690230412400343"><ele>707.4000000000001</ele><time>2026-04-19T13:38:15.998Z</time></trkpt><trkpt lat="42.155972417444" lon="13.69028104145408"><ele>707.8000000000001</ele><time>2026-04-19T13:38:16.998Z</time></trkpt><trkpt lat="42.15602971807507" lon="13.690372312289272"><ele>708.2</ele><time>2026-04-19T13:38:17.998Z</time></trkpt><trkpt lat="42.15606194316499" lon="13.690508461216652"><ele>708.6</ele><time>2026-04-19T13:38:18.998Z</time></trkpt><trkpt lat="42.15608339154475" lon="13.690664315847595"><ele>709.0</ele><time>2026-04-19T13:38:19.998Z</time></trkpt><trkpt lat="42.15611644815621" lon="13.690831952871886"><ele>709.0</ele><time>2026-04-19T13:38:20.998Z</time></trkpt><trkpt lat="42.15617507964908" lon="13.691010405808854"><ele>709.0</ele><time>2026-04-19T13:38:21.998Z</time></trkpt><trkpt lat="42.15625051323408" lon="13.691191511007702"><ele>709.0</ele><time>2026-04-19T13:38:22.998Z</time></trkpt><trkpt lat="42.15633926521338" lon="13.6913895864156"><ele>706.3333333333334</ele><time>2026-04-19T13:38:23.998Z</time></trkpt><trkpt lat="42.15643237553323" lon="13.691588091329265"><ele>703.6666666666666</ele><time>2026-04-19T13:38:24.998Z</time></trkpt><trkpt lat="42.15653037598991" lon="13.691801184762756"><ele>701.0</ele><time>2026-04-19T13:38:25.998Z</time></trkpt><trkpt lat="42.15664060746569" lon="13.692010926111147"><ele>707.6666666666666</ele><time>2026-04-19T13:38:26.998Z</time></trkpt><trkpt lat="42.15675319640671" lon="13.69222609730835"><ele>714.3333333333334</ele><time>2026-04-19T13:38:27.998Z</time></trkpt><trkpt lat="42.15685750536913" lon="13.692448118803485"><ele>721.0</ele><time>2026-04-19T13:38:28.998Z</time></trkpt><trkpt lat="42.156962852700566" lon="13.692667411725624"><ele>718.3333333333334</ele><time>2026-04-19T13:38:29.998Z</time></trkpt><trkpt lat="42.15706688179081" lon="13.692874181786499"><ele>715.6666666666666</ele><time>2026-04-19T13:38:30.998Z</time></trkpt><trkpt lat="42.15715733560111" lon="13.693060330718009"><ele>713.0</ele><time>2026-04-19T13:38:31.998Z</time></trkpt><trkpt lat="42.15724026682422" lon="13.693225178552222"><ele>713.0</ele><time>2026-04-19T13:38:32.998Z</time></trkpt><trkpt lat="42.15731945902221" lon="13.693378018080903"><ele>713.0</ele><time>2026-04-19T13:38:33.997Z</time></trkpt><trkpt lat="42.1573986256254" lon="13.693521836242349"><ele>713.0</ele><time>2026-04-19T13:38:34.997Z</time></trkpt><trkpt lat="42.15748161984771" lon="13.693653817212924"><ele>713.0</ele><time>2026-04-19T13:38:35.997Z</time></trkpt><trkpt lat="42.157569861337095" lon="13.693766111540468"><ele>716.75</ele><time>2026-04-19T13:38:36.997Z</time></trkpt><trkpt lat="42.15766776932886" lon="13.693844531585881"><ele>720.5</ele><time>2026-04-19T13:38:37.997Z</time></trkpt><trkpt lat="42.157785266787876" lon="13.693886282163371"><ele>724.25</ele><time>2026-04-19T13:38:38.997Z</time></trkpt><trkpt lat="42.157919001602146" lon="13.693885355897072"><ele>728.0</ele><time>2026-04-19T13:38:39.997Z</time></trkpt><trkpt lat="42.15806180466501" lon="13.693859112331843"><ele>729.3333333333333</ele><time>2026-04-19T13:38:40.997Z</time></trkpt><trkpt lat="42.15821205210363" lon="13.693825390765149"><ele>730.6666666666666</ele><time>2026-04-19T13:38:41.997Z</time></trkpt><trkpt lat="42.15836714307492" lon="13.693792809038355"><ele>732.0</ele><time>2026-04-19T13:38:42.997Z</time></trkpt><trkpt lat="42.158526549664145" lon="13.693754738648215"><ele>732.0</ele><time>2026-04-19T13:38:43.997Z</time></trkpt><trkpt lat="42.15868279861232" lon="13.693734017378391"><ele>732.0</ele><time>2026-04-19T13:38:44.997Z</time></trkpt><trkpt lat="42.15886056685265" lon="13.693693933709183"><ele>732.0</ele><time>2026-04-19T13:38:45.997Z</time></trkpt><trkpt lat="42.15903581430251" lon="13.69365287161627"><ele>732.0</ele><time>2026-04-19T13:38:46.997Z</time></trkpt><trkpt lat="42.15921574619186" lon="13.693603263633639"><ele>732.0</ele><time>2026-04-19T13:38:47.997Z</time></trkpt><trkpt lat="42.15938884169045" lon="13.69355866796424"><ele>732.0</ele><time>2026-04-19T13:38:48.997Z</time></trkpt><trkpt lat="42.159577881151584" lon="13.693513126594599"><ele>739.6666666666666</ele><time>2026-04-19T13:38:49.997Z</time></trkpt><trkpt lat="42.159762826658955" lon="13.693468337785399"><ele>747.3333333333333</ele><time>2026-04-19T13:38:50.997Z</time></trkpt><trkpt lat="42.15994805054869" lon="13.693422046532644"><ele>755.0</ele><time>2026-04-19T13:38:51.997Z</time></trkpt><trkpt lat="42.160135424377614" lon="13.693376813243258"><ele>755.0</ele><time>2026-04-19T13:38:52.997Z</time></trkpt><trkpt lat="42.16032468662897" lon="13.693329498319747"><ele>755.0</ele><time>2026-04-19T13:38:53.997Z</time></trkpt><trkpt lat="42.160512126349985" lon="13.693280099571533"><ele>755.0</ele><time>2026-04-19T13:38:54.997Z</time></trkpt><trkpt lat="42.160702859739445" lon="13.693236850981513"><ele>755.6666666666666</ele><time>2026-04-19T13:38:55.997Z</time></trkpt><trkpt lat="42.16089128800371" lon="13.693204489904195"><ele>756.3333333333334</ele><time>2026-04-19T13:38:56.997Z</time></trkpt><trkpt lat="42.16108257874563" lon="13.693185696228651"><ele>757.0</ele><time>2026-04-19T13:38:57.997Z</time></trkpt><trkpt lat="42.16127239228652" lon="13.693175714368765"><ele>757.0</ele><time>2026-04-19T13:38:58.997Z</time></trkpt><trkpt lat="42.16146118970568" lon="13.693165336404592"><ele>757.0</ele><time>2026-04-19T13:38:59.997Z</time></trkpt><trkpt lat="42.1616507847776" lon="13.693156232448379"><ele>757.0</ele><time>2026-04-19T13:39:00.997Z</time></trkpt><trkpt lat="42.161836545933866" lon="13.693144915741494"><ele>757.3333333333334</ele><time>2026-04-19T13:39:01.997Z</time></trkpt><trkpt lat="42.16202155556167" lon="13.693133944692509"><ele>757.6666666666666</ele><time>2026-04-19T13:39:02.997Z</time></trkpt><trkpt lat="42.162189769221854" lon="13.693123381086478"><ele>758.0</ele><time>2026-04-19T13:39:03.997Z</time></trkpt><trkpt lat="42.16233927365038" lon="13.693112109666039"><ele>759.3333333333333</ele><time>2026-04-19T13:39:04.997Z</time></trkpt><trkpt lat="42.16249150110425" lon="13.693095942339756"><ele>760.6666666666666</ele><time>2026-04-19T13:39:05.997Z</time></trkpt><trkpt lat="42.162642105716124" lon="13.693066028347348"><ele>762.0</ele><time>2026-04-19T13:39:06.997Z</time></trkpt><trkpt lat="42.16278697845927" lon="13.693009859008026"><ele>762.0</ele><time>2026-04-19T13:39:07.997Z</time></trkpt><trkpt lat="42.16292135766327" lon="13.69292143259949"><ele>762.0</ele><time>2026-04-19T13:39:08.997Z</time></trkpt><trkpt lat="42.16304584879197" lon="13.692797087206007"><ele>762.0</ele><time>2026-04-19T13:39:09.997Z</time></trkpt><trkpt lat="42.16316240166327" lon="13.69265319224261"><ele>767.6666666666667</ele><time>2026-04-19T13:39:10.997Z</time></trkpt><trkpt lat="42.16327751132194" lon="13.692500566546604"><ele>773.3333333333334</ele><time>2026-04-19T13:39:11.997Z</time></trkpt><trkpt lat="42.163389310598525" lon="13.69234172816214"><ele>779.0</ele><time>2026-04-19T13:39:12.997Z</time></trkpt><trkpt lat="42.163491880506456" lon="13.692179919862967"><ele>779.0</ele><time>2026-04-19T13:39:13.997Z</time></trkpt><trkpt lat="42.16358272051363" lon="13.69203591537457"><ele>779.0</ele><time>2026-04-19T13:39:14.997Z</time></trkpt><trkpt lat="42.163659795650105" lon="13.691898387433408"><ele>779.0</ele><time>2026-04-19T13:39:15.997Z</time></trkpt><trkpt lat="42.16371096169591" lon="13.691751501377562"><ele>779.0</ele><time>2026-04-19T13:39:16.997Z</time></trkpt><trkpt lat="42.163740382358306" lon="13.691591633979021"><ele>780.6</ele><time>2026-04-19T13:39:17.998Z</time></trkpt><trkpt lat="42.163769707486615" lon="13.69143833786212"><ele>782.2</ele><time>2026-04-19T13:39:18.998Z</time></trkpt><trkpt lat="42.163808766964806" lon="13.691314663552237"><ele>783.8000000000001</ele><time>2026-04-19T13:39:19.998Z</time></trkpt><trkpt lat="42.16387123791609" lon="13.691231534577124"><ele>785.4000000000001</ele><time>2026-04-19T13:39:20.998Z</time></trkpt><trkpt lat="42.163951034209674" lon="13.691174996962449"><ele>787.0</ele><time>2026-04-19T13:39:21.998Z</time></trkpt><trkpt lat="42.164039344797125" lon="13.691141649645306"><ele>787.0</ele><time>2026-04-19T13:39:22.998Z</time></trkpt><trkpt lat="42.164124359899766" lon="13.691163821951545"><ele>787.0</ele><time>2026-04-19T13:39:23.998Z</time></trkpt><trkpt lat="42.16418783046697" lon="13.691247187741181"><ele>787.0</ele><time>2026-04-19T13:39:24.998Z</time></trkpt><trkpt lat="42.16423460688753" lon="13.691348341495857"><ele>787.0</ele><time>2026-04-19T13:39:25.998Z</time></trkpt><trkpt lat="42.16430443969328" lon="13.691467017832563"><ele>787.0</ele><time>2026-04-19T13:39:26.999Z</time></trkpt><trkpt lat="42.16436020818518" lon="13.691626093444372"><ele>787.0</ele><time>2026-04-19T13:39:27.999Z</time></trkpt><trkpt lat="42.1644251348878" lon="13.691794585664274"><ele>787.0</ele><time>2026-04-19T13:39:28.999Z</time></trkpt><trkpt lat="42.16449165201977" lon="13.691957760678427"><ele>787.0</ele><time>2026-04-19T13:39:29.999Z</time></trkpt><trkpt lat="42.164553300110676" lon="13.692120438350939"><ele>787.0</ele><time>2026-04-19T13:39:30.999Z</time></trkpt><trkpt lat="42.16463455622208" lon="13.692254461653944"><ele>786.8333333333333</ele><time>2026-04-19T13:39:31.999Z</time></trkpt><trkpt lat="42.16471241609508" lon="13.692358927138526"><ele>786.6666666666666</ele><time>2026-04-19T13:39:32.999Z</time></trkpt><trkpt lat="42.164785555305116" lon="13.692445824425956"><ele>786.5</ele><time>2026-04-19T13:39:33.999Z</time></trkpt><trkpt lat="42.16484062863799" lon="13.692531257326669"><ele>786.3333333333333</ele><time>2026-04-19T13:39:34.999Z</time></trkpt><trkpt lat="42.164863861019015" lon="13.692625920693812"><ele>786.1666666666666</ele><time>2026-04-19T13:39:35.999Z</time></trkpt><trkpt lat="42.16482448099086" lon="13.692722744785604"><ele>786.0</ele><time>2026-04-19T13:39:36.999Z</time></trkpt><trkpt lat="42.16476366453544" lon="13.692787864690906"><ele>786.0</ele><time>2026-04-19T13:39:37.999Z</time></trkpt><trkpt lat="42.16469412890382" lon="13.692889238651789"><ele>786.0</ele><time>2026-04-19T13:39:38.999Z</time></trkpt><trkpt lat="42.16463130932462" lon="13.693006373044435"><ele>786.0</ele><time>2026-04-19T13:39:39.999Z</time></trkpt><trkpt lat="42.164552853252204" lon="13.693127537625271"><ele>786.0</ele><time>2026-04-19T13:39:40.999Z</time></trkpt><trkpt lat="42.16449323722473" lon="13.693282348951216"><ele>786.0</ele><time>2026-04-19T13:39:41.999Z</time></trkpt><trkpt lat="42.164448547448764" lon="13.693462774689316"><ele>786.0</ele><time>2026-04-19T13:39:42.999Z</time></trkpt><trkpt lat="42.164426771093574" lon="13.693670769186147"><ele>786.0</ele><time>2026-04-19T13:39:43.999Z</time></trkpt><trkpt lat="42.16438975534531" lon="13.693883951802349"><ele>788.5</ele><time>2026-04-19T13:39:44.999Z</time></trkpt><trkpt lat="42.16437545789728" lon="13.694093479754626"><ele>791.0</ele><time>2026-04-19T13:39:45.999Z</time></trkpt><trkpt lat="42.16434629560926" lon="13.694273856912066"><ele>793.5</ele><time>2026-04-19T13:39:47Z</time></trkpt><trkpt lat="42.16431138680197" lon="13.694440786154667"><ele>796.0</ele><time>2026-04-19T13:39:48Z</time></trkpt><trkpt lat="42.16431027634745" lon="13.694625103453408"><ele>796.0</ele><time>2026-04-19T13:39:49Z</time></trkpt><trkpt lat="42.16432148362871" lon="13.694799862886837"><ele>796.0</ele><time>2026-04-19T13:39:50Z</time></trkpt><trkpt lat="42.16436024220175" lon="13.69497871658182"><ele>796.0</ele><time>2026-04-19T13:39:51Z</time></trkpt><trkpt lat="42.16443013799134" lon="13.695156372548318"><ele>796.0</ele><time>2026-04-19T13:39:52Z</time></trkpt><trkpt lat="42.16452534655144" lon="13.695340530248235"><ele>796.0</ele><time>2026-04-19T13:39:53Z</time></trkpt><trkpt lat="42.16462528222572" lon="13.695536234298347"><ele>796.0</ele><time>2026-04-19T13:39:54Z</time></trkpt><trkpt lat="42.1647378570423" lon="13.695753630777846"><ele>796.0</ele><time>2026-04-19T13:39:55Z</time></trkpt><trkpt lat="42.16485826464907" lon="13.696002769950535"><ele>803.6666666666666</ele><time>2026-04-19T13:39:56Z</time></trkpt><trkpt lat="42.16497216803913" lon="13.696261911879395"><ele>811.3333333333333</ele><time>2026-04-19T13:39:57Z</time></trkpt><trkpt lat="42.16504628511339" lon="13.69649928582272"><ele>819.0</ele><time>2026-04-19T13:39:58Z</time></trkpt><trkpt lat="42.16513488522503" lon="13.696694328492722"><ele>819.0</ele><time>2026-04-19T13:39:59Z</time></trkpt><trkpt lat="42.165219133786756" lon="13.696879985854864"><ele>819.0</ele><time>2026-04-19T13:40:00Z</time></trkpt><trkpt lat="42.165333323068566" lon="13.697054587153328"><ele>819.0</ele><time>2026-04-19T13:40:01Z</time></trkpt><trkpt lat="42.165463090410036" lon="13.697220665901364"><ele>821.75</ele><time>2026-04-19T13:40:02Z</time></trkpt><trkpt lat="42.16557405472385" lon="13.697368267917334"><ele>824.5</ele><time>2026-04-19T13:40:03Z</time></trkpt><trkpt lat="42.16566951230386" lon="13.697504251490981"><ele>827.25</ele><time>2026-04-19T13:40:04Z</time></trkpt><trkpt lat="42.16575312700505" lon="13.697625575403222"><ele>830.0</ele><time>2026-04-19T13:40:05Z</time></trkpt><trkpt lat="42.16581948133453" lon="13.697736789182947"><ele>829.8</ele><time>2026-04-19T13:40:06Z</time></trkpt><trkpt lat="42.16585751485562" lon="13.697864632276254"><ele>829.6</ele><time>2026-04-19T13:40:07Z</time></trkpt><trkpt lat="42.16585320673455" lon="13.697994890309081"><ele>829.4000000000001</ele><time>2026-04-19T13:40:08Z</time></trkpt><trkpt lat="42.165825786648696" lon="13.698125215824618"><ele>829.2</ele><time>2026-04-19T13:40:09Z</time></trkpt><trkpt lat="42.16578259244857" lon="13.698287083026798"><ele>829.0</ele><time>2026-04-19T13:40:10Z</time></trkpt><trkpt lat="42.165736192906536" lon="13.698478863355696"><ele>831.6666666666666</ele><time>2026-04-19T13:40:11Z</time></trkpt><trkpt lat="42.1657020629594" lon="13.698691875712639"><ele>834.3333333333333</ele><time>2026-04-19T13:40:12Z</time></trkpt><trkpt lat="42.165634509499405" lon="13.698898806316528"><ele>837.0</ele><time>2026-04-19T13:40:13Z</time></trkpt><trkpt lat="42.16559215517567" lon="13.699119644827666"><ele>831.3333333333333</ele><time>2026-04-19T13:40:14Z</time></trkpt><trkpt lat="42.16553734688381" lon="13.699341007892178"><ele>825.6666666666666</ele><time>2026-04-19T13:40:15Z</time></trkpt><trkpt lat="42.16548044693655" lon="13.699567284916954"><ele>820.0</ele><time>2026-04-19T13:40:16Z</time></trkpt><trkpt lat="42.165408074818686" lon="13.699783643956218"><ele>820.0</ele><time>2026-04-19T13:40:17Z</time></trkpt><trkpt lat="42.16537208021405" lon="13.69999304902221"><ele>820.0</ele><time>2026-04-19T13:40:18Z</time></trkpt><trkpt lat="42.165328449147104" lon="13.700178654883919"><ele>820.0</ele><time>2026-04-19T13:40:19Z</time></trkpt><trkpt lat="42.16529696286987" lon="13.70035980878721"><ele>820.0</ele><time>2026-04-19T13:40:20Z</time></trkpt><trkpt lat="42.1652772761431" lon="13.700531403844574"><ele>820.4</ele><time>2026-04-19T13:40:21Z</time></trkpt><trkpt lat="42.16525911593546" lon="13.700686000339461"><ele>820.8</ele><time>2026-04-19T13:40:22Z</time></trkpt><trkpt lat="42.165255522334164" lon="13.70081478719832"><ele>821.2</ele><time>2026-04-19T13:40:23Z</time></trkpt><trkpt lat="42.165279075905474" lon="13.700939373802854"><ele>821.6</ele><time>2026-04-19T13:40:24Z</time></trkpt><trkpt lat="42.16533747580757" lon="13.701058723575912"><ele>822.0</ele><time>2026-04-19T13:40:25Z</time></trkpt><trkpt lat="42.16542420536128" lon="13.701141507394185"><ele>822.0</ele><time>2026-04-19T13:40:26Z</time></trkpt><trkpt lat="42.16554065336779" lon="13.701164534127388"><ele>822.0</ele><time>2026-04-19T13:40:27Z</time></trkpt><trkpt lat="42.165660110976816" lon="13.701126686748594"><ele>822.0</ele><time>2026-04-19T13:40:28Z</time></trkpt><trkpt lat="42.16576573718852" lon="13.701045821145582"><ele>822.0</ele><time>2026-04-19T13:40:29Z</time></trkpt><trkpt lat="42.16589590106634" lon="13.700954064417152"><ele>825.75</ele><time>2026-04-19T13:40:30Z</time></trkpt><trkpt lat="42.16603140866853" lon="13.700866580408734"><ele>829.5</ele><time>2026-04-19T13:40:31Z</time></trkpt><trkpt lat="42.166171306782516" lon="13.700801921957426"><ele>833.25</ele><time>2026-04-19T13:40:32Z</time></trkpt><trkpt lat="42.16630031293859" lon="13.700761772438828"><ele>837.0</ele><time>2026-04-19T13:40:33Z</time></trkpt><trkpt lat="42.16642307371621" lon="13.700747616188385"><ele>838.5</ele><time>2026-04-19T13:40:34Z</time></trkpt><trkpt lat="42.16654243584772" lon="13.700758621715387"><ele>840.0</ele><time>2026-04-19T13:40:35Z</time></trkpt><trkpt lat="42.16665677224128" lon="13.700827339622052"><ele>841.5</ele><time>2026-04-19T13:40:36Z</time></trkpt><trkpt lat="42.16677686387422" lon="13.700885546045148"><ele>843.0</ele><time>2026-04-19T13:40:37Z</time></trkpt><trkpt lat="42.16689268005405" lon="13.700980533213606"><ele>840.5</ele><time>2026-04-19T13:40:38Z</time></trkpt><trkpt lat="42.16701226903914" lon="13.7010829702312"><ele>838.0</ele><time>2026-04-19T13:40:39Z</time></trkpt><trkpt lat="42.16712713277249" lon="13.70120372053821"><ele>835.5</ele><time>2026-04-19T13:40:40Z</time></trkpt><trkpt lat="42.1672241640249" lon="13.70132552482787"><ele>833.0</ele><time>2026-04-19T13:40:41Z</time></trkpt><trkpt lat="42.167300905656724" lon="13.701417010159618"><ele>834.5000000000001</ele><time>2026-04-19T13:40:42Z</time></trkpt><trkpt lat="42.167361318890904" lon="13.701466232168524"><ele>836.0</ele><time>2026-04-19T13:40:43Z</time></trkpt><trkpt lat="42.16743074168847" lon="13.701484553082832"><ele>837.5</ele><time>2026-04-19T13:40:44Z</time></trkpt><trkpt lat="42.16750666639322" lon="13.701471428478754"><ele>839.0</ele><time>2026-04-19T13:40:45Z</time></trkpt><trkpt lat="42.16757546279086" lon="13.701418317791187"><ele>840.5000000000001</ele><time>2026-04-19T13:40:46Z</time></trkpt><trkpt lat="42.167637787973206" lon="13.701321586432202"><ele>842.0</ele><time>2026-04-19T13:40:47Z</time></trkpt><trkpt lat="42.16768505140273" lon="13.701186408487978"><ele>843.25</ele><time>2026-04-19T13:40:48Z</time></trkpt><trkpt lat="42.16772362179525" lon="13.701024492935925"><ele>844.5</ele><time>2026-04-19T13:40:49Z</time></trkpt><trkpt lat="42.16776717455104" lon="13.700845772851931"><ele>845.75</ele><time>2026-04-19T13:40:50Z</time></trkpt><trkpt lat="42.1678187114054" lon="13.70065964695186"><ele>847.0</ele><time>2026-04-19T13:40:51Z</time></trkpt><trkpt lat="42.16787174402279" lon="13.70046711620597"><ele>847.0</ele><time>2026-04-19T13:40:52Z</time></trkpt><trkpt lat="42.167922856971174" lon="13.700275539848628"><ele>847.0</ele><time>2026-04-19T13:40:53Z</time></trkpt><trkpt lat="42.16796590366693" lon="13.70009166806914"><ele>847.0</ele><time>2026-04-19T13:40:54Z</time></trkpt><trkpt lat="42.168004086270685" lon="13.699911811920634"><ele>847.0</ele><time>2026-04-19T13:40:55Z</time></trkpt><trkpt lat="42.16804186921301" lon="13.699735332983972"><ele>848.25</ele><time>2026-04-19T13:40:56Z</time></trkpt><trkpt lat="42.16807345639981" lon="13.699563843654156"><ele>849.5</ele><time>2026-04-19T13:40:56.999Z</time></trkpt><trkpt lat="42.16810163794203" lon="13.699396535400851"><ele>850.75</ele><time>2026-04-19T13:40:57.999Z</time></trkpt><trkpt lat="42.168128770960536" lon="13.699235300483679"><ele>852.0</ele><time>2026-04-19T13:40:58.999Z</time></trkpt><trkpt lat="42.16816415166474" lon="13.69908220140487"><ele>848.5</ele><time>2026-04-19T13:40:59.999Z</time></trkpt><trkpt lat="42.16821990476682" lon="13.698933165458829"><ele>845.0</ele><time>2026-04-19T13:41:00.999Z</time></trkpt><trkpt lat="42.168300810182366" lon="13.698785892594291"><ele>841.5</ele><time>2026-04-19T13:41:01.999Z</time></trkpt><trkpt lat="42.1683936796885" lon="13.698632331331916"><ele>838.0</ele><time>2026-04-19T13:41:02.999Z</time></trkpt><trkpt lat="42.16848551851511" lon="13.698475809707686"><ele>838.0</ele><time>2026-04-19T13:41:03.999Z</time></trkpt><trkpt lat="42.1685734208686" lon="13.698328102869986"><ele>838.0</ele><time>2026-04-19T13:41:04.999Z</time></trkpt><trkpt lat="42.16866240257908" lon="13.698189218761579"><ele>838.0</ele><time>2026-04-19T13:41:05.999Z</time></trkpt><trkpt lat="42.16876315797182" lon="13.698070201654755"><ele>838.0</ele><time>2026-04-19T13:41:06.999Z</time></trkpt><trkpt lat="42.16887156649108" lon="13.697970102024412"><ele>838.0</ele><time>2026-04-19T13:41:07.999Z</time></trkpt><trkpt lat="42.16897038516166" lon="13.697864651098405"><ele>838.0</ele><time>2026-04-19T13:41:08.999Z</time></trkpt><trkpt lat="42.1690523196753" lon="13.697742616023472"><ele>838.0</ele><time>2026-04-19T13:41:09.999Z</time></trkpt><trkpt lat="42.16911891051184" lon="13.697606962530585"><ele>838.0</ele><time>2026-04-19T13:41:10.999Z</time></trkpt><trkpt lat="42.16917821261144" lon="13.697468913709411"><ele>833.25</ele><time>2026-04-19T13:41:11.999Z</time></trkpt><trkpt lat="42.169245824185566" lon="13.697339702908426"><ele>828.5</ele><time>2026-04-19T13:41:12.999Z</time></trkpt><trkpt lat="42.169332290106134" lon="13.69723354427218"><ele>823.75</ele><time>2026-04-19T13:41:13.999Z</time></trkpt><trkpt lat="42.169452928961086" lon="13.69719052901539"><ele>819.0</ele><time>2026-04-19T13:41:14.999Z</time></trkpt><trkpt lat="42.169577321295975" lon="13.697151329472087"><ele>819.0</ele><time>2026-04-19T13:41:15.999Z</time></trkpt><trkpt lat="42.16969680264531" lon="13.697137095586346"><ele>819.0</ele><time>2026-04-19T13:41:16.999Z</time></trkpt><trkpt lat="42.16980458714154" lon="13.697129679055731"><ele>819.0</ele><time>2026-04-19T13:41:17.999Z</time></trkpt><trkpt lat="42.16990311513089" lon="13.697201198730694"><ele>819.0</ele><time>2026-04-19T13:41:18.999Z</time></trkpt><trkpt lat="42.17000702453964" lon="13.697289263120828"><ele>815.0</ele><time>2026-04-19T13:41:19.999Z</time></trkpt><trkpt lat="42.170118995493425" lon="13.697344102337576"><ele>811.0</ele><time>2026-04-19T13:41:20.999Z</time></trkpt><trkpt lat="42.17020382070518" lon="13.697384662202955"><ele>807.0</ele><time>2026-04-19T13:41:21.999Z</time></trkpt><trkpt lat="42.17030913958373" lon="13.697367945458955"><ele>803.0</ele><time>2026-04-19T13:41:22.999Z</time></trkpt><trkpt lat="42.17042140014113" lon="13.69728892323078"><ele>799.0</ele><time>2026-04-19T13:41:23.999Z</time></trkpt><trkpt lat="42.17053735867617" lon="13.697172568008954"><ele>799.0</ele><time>2026-04-19T13:41:24.999Z</time></trkpt><trkpt lat="42.17063468468132" lon="13.69706290537802"><ele>799.0</ele><time>2026-04-19T13:41:25.999Z</time></trkpt><trkpt lat="42.17073135699418" lon="13.696993327811944"><ele>799.0</ele><time>2026-04-19T13:41:26.999Z</time></trkpt><trkpt lat="42.170841142117126" lon="13.696960449936661"><ele>799.0</ele><time>2026-04-19T13:41:27.999Z</time></trkpt><trkpt lat="42.170960962161416" lon="13.696968595898806"><ele>800.0</ele><time>2026-04-19T13:41:28.999Z</time></trkpt><trkpt lat="42.17107962121136" lon="13.696988921588037"><ele>801.0</ele><time>2026-04-19T13:41:29.999Z</time></trkpt><trkpt lat="42.17119719116016" lon="13.696969969970436"><ele>802.0</ele><time>2026-04-19T13:41:30.999Z</time></trkpt><trkpt lat="42.171309608187954" lon="13.69689671519309"><ele>803.0</ele><time>2026-04-19T13:41:31.999Z</time></trkpt><trkpt lat="42.171411283081945" lon="13.696782058655568"><ele>803.0</ele><time>2026-04-19T13:41:32.999Z</time></trkpt><trkpt lat="42.171485283051915" lon="13.696640269751873"><ele>803.0</ele><time>2026-04-19T13:41:33.999Z</time></trkpt><trkpt lat="42.17153836381729" lon="13.696482882604066"><ele>803.0</ele><time>2026-04-19T13:41:34.999Z</time></trkpt><trkpt lat="42.171565657048085" lon="13.696306009458338"><ele>803.0</ele><time>2026-04-19T13:41:35.999Z</time></trkpt><trkpt lat="42.17156027100626" lon="13.696126331567084"><ele>804.75</ele><time>2026-04-19T13:41:36.999Z</time></trkpt><trkpt lat="42.17152624840134" lon="13.69595678144598"><ele>806.5</ele><time>2026-04-19T13:41:37.999Z</time></trkpt><trkpt lat="42.17149127963405" lon="13.695806418422592"><ele>808.25</ele><time>2026-04-19T13:41:39Z</time></trkpt><trkpt lat="42.17148005928879" lon="13.695667793260203"><ele>810.0</ele><time>2026-04-19T13:41:40Z</time></trkpt><trkpt lat="42.171496519302806" lon="13.695528441468205"><ele>804.25</ele><time>2026-04-19T13:41:41Z</time></trkpt><trkpt lat="42.17153879239984" lon="13.695387467632415"><ele>798.5</ele><time>2026-04-19T13:41:42Z</time></trkpt><trkpt lat="42.17160876625514" lon="13.69525136328879"><ele>792.75</ele><time>2026-04-19T13:41:43Z</time></trkpt><trkpt lat="42.1717070283263" lon="13.695129239720071"><ele>787.0</ele><time>2026-04-19T13:41:44Z</time></trkpt><trkpt lat="42.17182554923379" lon="13.69501676173686"><ele>787.0</ele><time>2026-04-19T13:41:45Z</time></trkpt><trkpt lat="42.17194714941297" lon="13.694905724885448"><ele>787.0</ele><time>2026-04-19T13:41:46Z</time></trkpt><trkpt lat="42.17205850059695" lon="13.694772726998583"><ele>787.0</ele><time>2026-04-19T13:41:47Z</time></trkpt><trkpt lat="42.17216011153736" lon="13.69461882154502"><ele>787.0</ele><time>2026-04-19T13:41:48Z</time></trkpt><trkpt lat="42.17225505101886" lon="13.6944515879902"><ele>792.3333333333333</ele><time>2026-04-19T13:41:49Z</time></trkpt><trkpt lat="42.17234517905948" lon="13.694277255149267"><ele>797.6666666666667</ele><time>2026-04-19T13:41:50Z</time></trkpt><trkpt lat="42.17242549098517" lon="13.694103980408494"><ele>803.0</ele><time>2026-04-19T13:41:51Z</time></trkpt><trkpt lat="42.17249433582827" lon="13.69393511683659"><ele>796.75</ele><time>2026-04-19T13:41:52Z</time></trkpt><trkpt lat="42.172551133267575" lon="13.693766104310297"><ele>790.5</ele><time>2026-04-19T13:41:53Z</time></trkpt><trkpt lat="42.1726003876887" lon="13.69359636655181"><ele>784.25</ele><time>2026-04-19T13:41:54Z</time></trkpt><trkpt lat="42.17264039908576" lon="13.693419592828233"><ele>778.0</ele><time>2026-04-19T13:41:55Z</time></trkpt><trkpt lat="42.172669223091745" lon="13.69324564774618"><ele>778.0</ele><time>2026-04-19T13:41:56Z</time></trkpt><trkpt lat="42.17268477156198" lon="13.693081923653892"><ele>778.0</ele><time>2026-04-19T13:41:57Z</time></trkpt><trkpt lat="42.17267670852745" lon="13.69292210039125"><ele>778.0</ele><time>2026-04-19T13:41:58Z</time></trkpt><trkpt lat="42.17264324532952" lon="13.692761617605296"><ele>778.0</ele><time>2026-04-19T13:41:59Z</time></trkpt><trkpt lat="42.172583795281504" lon="13.69261220276059"><ele>776.5999999999999</ele><time>2026-04-19T13:42:00Z</time></trkpt><trkpt lat="42.17251047182717" lon="13.692488555682315"><ele>775.1999999999999</ele><time>2026-04-19T13:42:01Z</time></trkpt><trkpt lat="42.172451179816136" lon="13.692376933783343"><ele>773.8</ele><time>2026-04-19T13:42:02Z</time></trkpt><trkpt lat="42.17241904096916" lon="13.69225903869235"><ele>772.4</ele><time>2026-04-19T13:42:03Z</time></trkpt><trkpt lat="42.17241955608332" lon="13.692122960923532"><ele>771.0</ele><time>2026-04-19T13:42:04Z</time></trkpt><trkpt lat="42.17244316906082" lon="13.691975570241834"><ele>771.0</ele><time>2026-04-19T13:42:05Z</time></trkpt><trkpt lat="42.17249074637239" lon="13.69182300314258"><ele>771.0</ele><time>2026-04-19T13:42:06Z</time></trkpt><trkpt lat="42.172542277245974" lon="13.691668095551371"><ele>771.0</ele><time>2026-04-19T13:42:07Z</time></trkpt><trkpt lat="42.17256616551554" lon="13.691506635630457"><ele>771.0</ele><time>2026-04-19T13:42:08Z</time></trkpt><trkpt lat="42.172566101487" lon="13.69134250941742"><ele>771.0</ele><time>2026-04-19T13:42:09Z</time></trkpt><trkpt lat="42.17255735610261" lon="13.691182390852525"><ele>771.0</ele><time>2026-04-19T13:42:10Z</time></trkpt><trkpt lat="42.17253605536027" lon="13.691027342021309"><ele>771.0</ele><time>2026-04-19T13:42:11Z</time></trkpt><trkpt lat="42.172493689110325" lon="13.69088156333276"><ele>771.0</ele><time>2026-04-19T13:42:12Z</time></trkpt><trkpt lat="42.17242811129651" lon="13.690751043654767"><ele>775.75</ele><time>2026-04-19T13:42:13Z</time></trkpt><trkpt lat="42.17233309450898" lon="13.690643319654482"><ele>780.5</ele><time>2026-04-19T13:42:14Z</time></trkpt><trkpt lat="42.17221101325963" lon="13.69056638751374"><ele>785.25</ele><time>2026-04-19T13:42:15Z</time></trkpt><trkpt lat="42.172078162338565" lon="13.690514746695335"><ele>790.0</ele><time>2026-04-19T13:42:16Z</time></trkpt><trkpt lat="42.171968611072586" lon="13.690459733667984"><ele>790.0</ele><time>2026-04-19T13:42:17Z</time></trkpt><trkpt lat="42.17188192929236" lon="13.690388313778788"><ele>790.0</ele><time>2026-04-19T13:42:18Z</time></trkpt><trkpt lat="42.17181840105029" lon="13.690293204546057"><ele>790.0</ele><time>2026-04-19T13:42:19Z</time></trkpt><trkpt lat="42.17177423931365" lon="13.690172596262752"><ele>790.0</ele><time>2026-04-19T13:42:20Z</time></trkpt><trkpt lat="42.1717558310887" lon="13.690025125683796"><ele>790.0</ele><time>2026-04-19T13:42:21Z</time></trkpt><trkpt lat="42.17177070790284" lon="13.689844808281352"><ele>785.0</ele><time>2026-04-19T13:42:22Z</time></trkpt><trkpt lat="42.17179697771267" lon="13.689654048982382"><ele>780.0</ele><time>2026-04-19T13:42:23Z</time></trkpt><trkpt lat="42.171809039557324" lon="13.689449526092213"><ele>775.0</ele><time>2026-04-19T13:42:24Z</time></trkpt><trkpt lat="42.17182238366393" lon="13.689236869202746"><ele>775.0</ele><time>2026-04-19T13:42:25Z</time></trkpt><trkpt lat="42.17183493434341" lon="13.689029078807872"><ele>775.0</ele><time>2026-04-19T13:42:26Z</time></trkpt><trkpt lat="42.171851285934686" lon="13.688840726829566"><ele>775.0</ele><time>2026-04-19T13:42:27Z</time></trkpt><trkpt lat="42.17188109087129" lon="13.688647181172406"><ele>775.0</ele><time>2026-04-19T13:42:28Z</time></trkpt><trkpt lat="42.17191838947582" lon="13.688451882552549"><ele>776.6666666666666</ele><time>2026-04-19T13:42:29Z</time></trkpt><trkpt lat="42.171957454148355" lon="13.68824996282518"><ele>778.3333333333333</ele><time>2026-04-19T13:42:30Z</time></trkpt><trkpt lat="42.17199551441914" lon="13.688042854978368"><ele>780.0</ele><time>2026-04-19T13:42:31Z</time></trkpt><trkpt lat="42.17203558868456" lon="13.687839112131623"><ele>781.6666666666667</ele><time>2026-04-19T13:42:32Z</time></trkpt><trkpt lat="42.1720728676182" lon="13.687639919923704"><ele>783.3333333333334</ele><time>2026-04-19T13:42:33Z</time></trkpt><trkpt lat="42.172112291648" lon="13.687437723608427"><ele>785.0</ele><time>2026-04-19T13:42:34Z</time></trkpt><trkpt lat="42.17215068099413" lon="13.687220874302401"><ele>785.0</ele><time>2026-04-19T13:42:35Z</time></trkpt><trkpt lat="42.17218975978297" lon="13.686997861393252"><ele>785.0</ele><time>2026-04-19T13:42:36Z</time></trkpt><trkpt lat="42.17223052492792" lon="13.686790525840884"><ele>785.0</ele><time>2026-04-19T13:42:37Z</time></trkpt><trkpt lat="42.17227582025278" lon="13.686575506037341"><ele>787.0</ele><time>2026-04-19T13:42:38Z</time></trkpt><trkpt lat="42.17232524761791" lon="13.686350344514103"><ele>789.0</ele><time>2026-04-19T13:42:39Z</time></trkpt><trkpt lat="42.17237867171689" lon="13.68611567368215"><ele>791.0</ele><time>2026-04-19T13:42:40Z</time></trkpt><trkpt lat="42.17244811270697" lon="13.685849438256334"><ele>781.6666666666667</ele><time>2026-04-19T13:42:41Z</time></trkpt><trkpt lat="42.172536124119254" lon="13.685552944403229"><ele>772.3333333333334</ele><time>2026-04-19T13:42:42Z</time></trkpt><trkpt lat="42.17262320102196" lon="13.685294179767341"><ele>763.0</ele><time>2026-04-19T13:42:42.999Z</time></trkpt><trkpt lat="42.17269742453566" lon="13.685048328252474"><ele>763.0</ele><time>2026-04-19T13:42:43.999Z</time></trkpt><trkpt lat="42.172768278717285" lon="13.684815590672073"><ele>763.0</ele><time>2026-04-19T13:42:44.999Z</time></trkpt><trkpt lat="42.17284213845582" lon="13.684494834842317"><ele>763.0</ele><time>2026-04-19T13:42:45.999Z</time></trkpt><trkpt lat="42.172915694792906" lon="13.684266382549387"><ele>763.6666666666667</ele><time>2026-04-19T13:42:46.999Z</time></trkpt><trkpt lat="42.172983430451914" lon="13.684042054595333"><ele>764.3333333333334</ele><time>2026-04-19T13:42:47.999Z</time></trkpt><trkpt lat="42.173050167935386" lon="13.683825518098752"><ele>765.0</ele><time>2026-04-19T13:42:48.999Z</time></trkpt><trkpt lat="42.173113859416276" lon="13.683614947858834"><ele>766.6666666666667</ele><time>2026-04-19T13:42:49.999Z</time></trkpt><trkpt lat="42.17317824637822" lon="13.683396212273555"><ele>768.3333333333334</ele><time>2026-04-19T13:42:50.999Z</time></trkpt><trkpt lat="42.173243777086924" lon="13.6831716287647"><ele>770.0</ele><time>2026-04-19T13:42:51.999Z</time></trkpt><trkpt lat="42.17331301042348" lon="13.682943988338023"><ele>761.0</ele><time>2026-04-19T13:42:52.999Z</time></trkpt><trkpt lat="42.17337662411516" lon="13.682718230757931"><ele>752.0</ele><time>2026-04-19T13:42:53.999Z</time></trkpt><trkpt lat="42.173445529051705" lon="13.682485375983136"><ele>743.0</ele><time>2026-04-19T13:42:54.999Z</time></trkpt><trkpt lat="42.173512569217614" lon="13.68226094864498"><ele>743.0</ele><time>2026-04-19T13:42:55.999Z</time></trkpt><trkpt lat="42.173582084277626" lon="13.682035883944215"><ele>743.0</ele><time>2026-04-19T13:42:56.999Z</time></trkpt><trkpt lat="42.17364929709097" lon="13.681812336759599"><ele>743.0</ele><time>2026-04-19T13:42:57.999Z</time></trkpt><trkpt lat="42.173708717926" lon="13.681589482796712"><ele>744.0</ele><time>2026-04-19T13:42:58.999Z</time></trkpt><trkpt lat="42.17376615044818" lon="13.681374745042264"><ele>745.0</ele><time>2026-04-19T13:42:59.999Z</time></trkpt><trkpt lat="42.17382038773248" lon="13.68116775130826"><ele>746.0</ele><time>2026-04-19T13:43:00.999Z</time></trkpt><trkpt lat="42.17386657986639" lon="13.68096696803953"><ele>746.0</ele><time>2026-04-19T13:43:01.999Z</time></trkpt><trkpt lat="42.17389615846626" lon="13.680762005759142"><ele>746.0</ele><time>2026-04-19T13:43:02.999Z</time></trkpt><trkpt lat="42.1739155458587" lon="13.680554977021878"><ele>746.0</ele><time>2026-04-19T13:43:03.999Z</time></trkpt><trkpt lat="42.17392175320168" lon="13.680339059336712"><ele>745.3333333333333</ele><time>2026-04-19T13:43:04.999Z</time></trkpt><trkpt lat="42.17392439367073" lon="13.68011148153958"><ele>744.6666666666666</ele><time>2026-04-19T13:43:05.999Z</time></trkpt><trkpt lat="42.17392805855177" lon="13.679876309563662"><ele>744.0</ele><time>2026-04-19T13:43:06.999Z</time></trkpt><trkpt lat="42.17392978805136" lon="13.679623414855818"><ele>742.3333333333334</ele><time>2026-04-19T13:43:07.999Z</time></trkpt><trkpt lat="42.173935405764304" lon="13.679373665299154"><ele>740.6666666666667</ele><time>2026-04-19T13:43:08.999Z</time></trkpt><trkpt lat="42.173942411266694" lon="13.679119984499305"><ele>739.0</ele><time>2026-04-19T13:43:09.999Z</time></trkpt><trkpt lat="42.17394735612834" lon="13.678865715929247"><ele>739.0</ele><time>2026-04-19T13:43:10.999Z</time></trkpt><trkpt lat="42.17394943119082" lon="13.678609024101462"><ele>739.0</ele><time>2026-04-19T13:43:11.999Z</time></trkpt><trkpt lat="42.17395148894231" lon="13.678368953277937"><ele>739.0</ele><time>2026-04-19T13:43:12.999Z</time></trkpt><trkpt lat="42.17395258403183" lon="13.67814269873332"><ele>737.6666666666667</ele><time>2026-04-19T13:43:13.999Z</time></trkpt><trkpt lat="42.173960996022224" lon="13.677918988013953"><ele>736.3333333333334</ele><time>2026-04-19T13:43:14.999Z</time></trkpt><trkpt lat="42.17397329753643" lon="13.677692495462706"><ele>735.0</ele><time>2026-04-19T13:43:15.999Z</time></trkpt><trkpt lat="42.17397714285222" lon="13.677469564401376"><ele>734.75</ele><time>2026-04-19T13:43:16.999Z</time></trkpt><trkpt lat="42.17398006540532" lon="13.677259543889704"><ele>734.5</ele><time>2026-04-19T13:43:17.999Z</time></trkpt><trkpt lat="42.17397333673593" lon="13.677028387447852"><ele>734.25</ele><time>2026-04-19T13:43:18.999Z</time></trkpt><trkpt lat="42.17398568663474" lon="13.676874824844225"><ele>734.0</ele><time>2026-04-19T13:43:19.999Z</time></trkpt><trkpt lat="42.17398566499197" lon="13.676694711353107"><ele>734.6</ele><time>2026-04-19T13:43:20.999Z</time></trkpt><trkpt lat="42.173993759473554" lon="13.676536056405165"><ele>735.2</ele><time>2026-04-19T13:43:21.999Z</time></trkpt><trkpt lat="42.17399470783267" lon="13.676390400947714"><ele>735.8000000000001</ele><time>2026-04-19T13:43:22.999Z</time></trkpt><trkpt lat="42.173992590801525" lon="13.67626373106599"><ele>736.4000000000001</ele><time>2026-04-19T13:43:23.999Z</time></trkpt><trkpt lat="42.1739903153592" lon="13.676151384205804"><ele>737.0</ele><time>2026-04-19T13:43:24.999Z</time></trkpt><trkpt lat="42.17399452927452" lon="13.676064418616932"><ele>738.0</ele><time>2026-04-19T13:43:25.999Z</time></trkpt><trkpt lat="42.17399401206523" lon="13.675921629975203"><ele>739.0</ele><time>2026-04-19T13:43:27.999Z</time></trkpt><trkpt lat="42.17399070691147" lon="13.67581981486965"><ele>740.0</ele><time>2026-04-19T13:46:13Z</time></trkpt><trkpt lat="42.17398245310357" lon="13.675644268391178"><ele>741.0</ele><time>2026-04-19T13:46:15Z</time></trkpt><trkpt lat="42.17397916149506" lon="13.675473582010621"><ele>742.0</ele><time>2026-04-19T13:46:16Z</time></trkpt><trkpt lat="42.17398145682104" lon="13.675272210656798"><ele>741.6666666666667</ele><time>2026-04-19T13:46:17Z</time></trkpt><trkpt lat="42.17398414583059" lon="13.675069847261678"><ele>741.3333333333334</ele><time>2026-04-19T13:46:18Z</time></trkpt><trkpt lat="42.17399445740869" lon="13.674861466413681"><ele>741.0</ele><time>2026-04-19T13:46:19Z</time></trkpt><trkpt lat="42.17399019317138" lon="13.674648511127018"><ele>741.3333333333334</ele><time>2026-04-19T13:46:20Z</time></trkpt><trkpt lat="42.17399073134938" lon="13.674394785721509"><ele>741.6666666666667</ele><time>2026-04-19T13:46:21Z</time></trkpt><trkpt lat="42.17399129838652" lon="13.674162394960742"><ele>742.0</ele><time>2026-04-19T13:46:22Z</time></trkpt><trkpt lat="42.17399416119266" lon="13.673944433161001"><ele>742.0</ele><time>2026-04-19T13:46:23Z</time></trkpt><trkpt lat="42.17398440852664" lon="13.673729818867473"><ele>742.0</ele><time>2026-04-19T13:46:24Z</time></trkpt><trkpt lat="42.1739950448103" lon="13.673555673753675"><ele>742.0</ele><time>2026-04-19T13:46:25Z</time></trkpt><trkpt lat="42.1740093009621" lon="13.673382112747982"><ele>742.0</ele><time>2026-04-19T13:46:26Z</time></trkpt><trkpt lat="42.17403132010309" lon="13.673197664946198"><ele>735.75</ele><time>2026-04-19T13:46:27Z</time></trkpt><trkpt lat="42.17406197561062" lon="13.673011473209788"><ele>729.5</ele><time>2026-04-19T13:46:28Z</time></trkpt><trkpt lat="42.174096499508074" lon="13.672820153403702"><ele>723.25</ele><time>2026-04-19T13:46:29Z</time></trkpt><trkpt lat="42.17413673111791" lon="13.672614458882206"><ele>717.0</ele><time>2026-04-19T13:46:30Z</time></trkpt><trkpt lat="42.174174535369005" lon="13.672399846252253"><ele>716.3333333333334</ele><time>2026-04-19T13:46:31Z</time></trkpt><trkpt lat="42.17421886555872" lon="13.672190620083363"><ele>715.6666666666667</ele><time>2026-04-19T13:46:32Z</time></trkpt><trkpt lat="42.174260252494406" lon="13.671982105342842"><ele>715.0</ele><time>2026-04-19T13:46:33Z</time></trkpt><trkpt lat="42.17430283032899" lon="13.671771065327563"><ele>716.3333333333334</ele><time>2026-04-19T13:46:34Z</time></trkpt><trkpt lat="42.17434519014098" lon="13.671564690206964"><ele>717.6666666666666</ele><time>2026-04-19T13:46:35Z</time></trkpt><trkpt lat="42.1743859068738" lon="13.671356269063962"><ele>719.0</ele><time>2026-04-19T13:46:36Z</time></trkpt><trkpt lat="42.17442475318999" lon="13.67115714236382"><ele>719.75</ele><time>2026-04-19T13:46:37Z</time></trkpt><trkpt lat="42.17445898422212" lon="13.670958355480757"><ele>720.5</ele><time>2026-04-19T13:46:38Z</time></trkpt><trkpt lat="42.174491798949916" lon="13.670768938792786"><ele>721.25</ele><time>2026-04-19T13:46:39Z</time></trkpt><trkpt lat="42.17452960636865" lon="13.670590106221054"><ele>722.0</ele><time>2026-04-19T13:46:40Z</time></trkpt><trkpt lat="42.17455821101394" lon="13.670415005357714"><ele>722.25</ele><time>2026-04-19T13:46:41Z</time></trkpt><trkpt lat="42.17458933472033" lon="13.670247221573861"><ele>722.5</ele><time>2026-04-19T13:46:42Z</time></trkpt><trkpt lat="42.174627871368095" lon="13.670087075439453"><ele>722.75</ele><time>2026-04-19T13:46:43Z</time></trkpt><trkpt lat="42.17466622294731" lon="13.669938654870142"><ele>723.0</ele><time>2026-04-19T13:46:44Z</time></trkpt><trkpt lat="42.17470966905279" lon="13.669795346630602"><ele>723.0</ele><time>2026-04-19T13:46:45Z</time></trkpt><trkpt lat="42.17476088625736" lon="13.669664866859389"><ele>723.0</ele><time>2026-04-19T13:46:46Z</time></trkpt><trkpt lat="42.17481218664787" lon="13.669532488847707"><ele>723.0</ele><time>2026-04-19T13:46:47Z</time></trkpt><trkpt lat="42.174864706149094" lon="13.669401391653286"><ele>723.0</ele><time>2026-04-19T13:46:48Z</time></trkpt><trkpt lat="42.174921566212184" lon="13.669271920977353"><ele>723.0</ele><time>2026-04-19T13:46:49Z</time></trkpt><trkpt lat="42.17498648492525" lon="13.669138579672465"><ele>723.5</ele><time>2026-04-19T13:46:50Z</time></trkpt><trkpt lat="42.17504728860169" lon="13.66898563548749"><ele>724.0</ele><time>2026-04-19T13:46:51Z</time></trkpt><trkpt lat="42.17511681668693" lon="13.668835601375218"><ele>724.5</ele><time>2026-04-19T13:46:52Z</time></trkpt><trkpt lat="42.17518977166811" lon="13.668679420105885"><ele>725.0</ele><time>2026-04-19T13:46:53Z</time></trkpt><trkpt lat="42.17526051401894" lon="13.668521011636864"><ele>725.0</ele><time>2026-04-19T13:46:54Z</time></trkpt><trkpt lat="42.175334090123464" lon="13.668358230169732"><ele>725.0</ele><time>2026-04-19T13:46:55Z</time></trkpt><trkpt lat="42.17540816357572" lon="13.668200063058439"><ele>725.0</ele><time>2026-04-19T13:46:56Z</time></trkpt><trkpt lat="42.17548466791409" lon="13.668039057445075"><ele>725.0</ele><time>2026-04-19T13:46:57Z</time></trkpt><trkpt lat="42.17556113958191" lon="13.667874629802178"><ele>725.75</ele><time>2026-04-19T13:46:58Z</time></trkpt><trkpt lat="42.175635853878816" lon="13.667715945822778"><ele>726.5</ele><time>2026-04-19T13:46:59Z</time></trkpt><trkpt lat="42.175698940205905" lon="13.667570176355966"><ele>727.25</ele><time>2026-04-19T13:47:00Z</time></trkpt><trkpt lat="42.1757648723961" lon="13.66742620660493"><ele>728.0</ele><time>2026-04-19T13:47:01Z</time></trkpt><trkpt lat="42.17582404998073" lon="13.667281829107159"><ele>727.25</ele><time>2026-04-19T13:47:02Z</time></trkpt><trkpt lat="42.17588729743157" lon="13.667150066107087"><ele>726.5</ele><time>2026-04-19T13:47:03Z</time></trkpt><trkpt lat="42.175946636107604" lon="13.667004184524801"><ele>725.75</ele><time>2026-04-19T13:47:04Z</time></trkpt><trkpt lat="42.176011027570105" lon="13.666853378977958"><ele>725.0</ele><time>2026-04-19T13:47:05Z</time></trkpt><trkpt lat="42.17607350581997" lon="13.666700708171607"><ele>725.0</ele><time>2026-04-19T13:47:06Z</time></trkpt><trkpt lat="42.1761354629613" lon="13.666554072380473"><ele>725.0</ele><time>2026-04-19T13:47:07Z</time></trkpt><trkpt lat="42.17619607121779" lon="13.666412431770562"><ele>725.0</ele><time>2026-04-19T13:47:08Z</time></trkpt><trkpt lat="42.17625074891285" lon="13.66628036958293"><ele>725.0</ele><time>2026-04-19T13:47:09Z</time></trkpt><trkpt lat="42.176307688182995" lon="13.666160959355562"><ele>725.5</ele><time>2026-04-19T13:47:10Z</time></trkpt><trkpt lat="42.17637695259573" lon="13.666051219109102"><ele>726.0</ele><time>2026-04-19T13:47:11Z</time></trkpt><trkpt lat="42.1764677990029" lon="13.665942395153351"><ele>726.5</ele><time>2026-04-19T13:47:12Z</time></trkpt><trkpt lat="42.17657940116779" lon="13.665823849786038"><ele>727.0</ele><time>2026-04-19T13:47:13Z</time></trkpt><trkpt lat="42.17670448123833" lon="13.665703349604284"><ele>722.6666666666667</ele><time>2026-04-19T13:47:14Z</time></trkpt><trkpt lat="42.17683146704544" lon="13.665574834140715"><ele>718.3333333333334</ele><time>2026-04-19T13:47:15Z</time></trkpt><trkpt lat="42.17694915073043" lon="13.665445793494158"><ele>714.0</ele><time>2026-04-19T13:47:16Z</time></trkpt><trkpt lat="42.177051536237805" lon="13.665309219570089"><ele>713.25</ele><time>2026-04-19T13:47:17Z</time></trkpt><trkpt lat="42.17714938052195" lon="13.665163073297991"><ele>712.5</ele><time>2026-04-19T13:47:18Z</time></trkpt><trkpt lat="42.17724904370455" lon="13.665011617494592"><ele>711.75</ele><time>2026-04-19T13:47:19Z</time></trkpt><trkpt lat="42.17735731839317" lon="13.664867301329714"><ele>711.0</ele><time>2026-04-19T13:47:20Z</time></trkpt><trkpt lat="42.17748190498755" lon="13.664740021879416"><ele>708.0</ele><time>2026-04-19T13:47:21Z</time></trkpt><trkpt lat="42.17762051931414" lon="13.664619816197442"><ele>705.0</ele><time>2026-04-19T13:47:22Z</time></trkpt><trkpt lat="42.177765962143035" lon="13.664512278511005"><ele>702.0</ele><time>2026-04-19T13:47:23Z</time></trkpt><trkpt lat="42.17790854992556" lon="13.664412068065495"><ele>700.6666666666666</ele><time>2026-04-19T13:47:24Z</time></trkpt><trkpt lat="42.17804864343296" lon="13.6643125034393"><ele>699.3333333333333</ele><time>2026-04-19T13:47:25Z</time></trkpt><trkpt lat="42.178182847154275" lon="13.664217963849982"><ele>698.0</ele><time>2026-04-19T13:47:26Z</time></trkpt><trkpt lat="42.1783125566057" lon="13.66412683355246"><ele>697.0</ele><time>2026-04-19T13:47:27Z</time></trkpt><trkpt lat="42.17843843556939" lon="13.664033148307704"><ele>696.0</ele><time>2026-04-19T13:47:28Z</time></trkpt><trkpt lat="42.1785571217777" lon="13.663931242839977"><ele>695.0</ele><time>2026-04-19T13:47:29Z</time></trkpt><trkpt lat="42.17866640210523" lon="13.663822056146955"><ele>694.0</ele><time>2026-04-19T13:47:30Z</time></trkpt><trkpt lat="42.17876737508226" lon="13.663711874074567"><ele>693.5</ele><time>2026-04-19T13:47:31Z</time></trkpt><trkpt lat="42.17886326246935" lon="13.663596492984068"><ele>693.0</ele><time>2026-04-19T13:47:32Z</time></trkpt><trkpt lat="42.17895302704119" lon="13.663484672667309"><ele>692.5</ele><time>2026-04-19T13:47:33Z</time></trkpt><trkpt lat="42.17904433471367" lon="13.663380500801065"><ele>692.0</ele><time>2026-04-19T13:47:34Z</time></trkpt><trkpt lat="42.179135412121745" lon="13.663259156927143"><ele>690.75</ele><time>2026-04-19T13:47:35Z</time></trkpt><trkpt lat="42.17922451226245" lon="13.663118878379368"><ele>689.5</ele><time>2026-04-19T13:47:36Z</time></trkpt><trkpt lat="42.17931902089393" lon="13.662974969952636"><ele>688.25</ele><time>2026-04-19T13:47:37Z</time></trkpt><trkpt lat="42.17942067435637" lon="13.662830044252734"><ele>687.0</ele><time>2026-04-19T13:47:38Z</time></trkpt><trkpt lat="42.17952804279095" lon="13.662678932749538"><ele>686.6666666666666</ele><time>2026-04-19T13:47:39Z</time></trkpt><trkpt lat="42.179637195558755" lon="13.662529122233265"><ele>686.3333333333333</ele><time>2026-04-19T13:47:40Z</time></trkpt><trkpt lat="42.179754667917344" lon="13.662377429924284"><ele>686.0</ele><time>2026-04-19T13:47:41Z</time></trkpt><trkpt lat="42.179880808812065" lon="13.662222920124092"><ele>685.0</ele><time>2026-04-19T13:47:42Z</time></trkpt><trkpt lat="42.18001470109724" lon="13.662078147703037"><ele>684.0</ele><time>2026-04-19T13:47:43Z</time></trkpt><trkpt lat="42.18015467651469" lon="13.661936750079823"><ele>683.0</ele><time>2026-04-19T13:47:44Z</time></trkpt><trkpt lat="42.18029267830728" lon="13.661808430082077"><ele>681.6666666666666</ele><time>2026-04-19T13:47:45Z</time></trkpt><trkpt lat="42.18042752935898" lon="13.661696354352081"><ele>680.3333333333334</ele><time>2026-04-19T13:47:46Z</time></trkpt><trkpt lat="42.18056140573161" lon="13.661578468014282"><ele>679.0</ele><time>2026-04-19T13:47:47Z</time></trkpt><trkpt lat="42.1806857563793" lon="13.661426738490155"><ele>679.0</ele><time>2026-04-19T13:47:48Z</time></trkpt><trkpt lat="42.180805636174625" lon="13.66125951650983"><ele>679.0</ele><time>2026-04-19T13:47:49Z</time></trkpt><trkpt lat="42.18092254660237" lon="13.661077672914073"><ele>679.0</ele><time>2026-04-19T13:47:50Z</time></trkpt><trkpt lat="42.181040904844885" lon="13.660893636135249"><ele>682.3333333333334</ele><time>2026-04-19T13:47:51Z</time></trkpt><trkpt lat="42.181164880581505" lon="13.66071432614015"><ele>685.6666666666666</ele><time>2026-04-19T13:47:52Z</time></trkpt><trkpt lat="42.181297009126155" lon="13.660545405006467"><ele>689.0</ele><time>2026-04-19T13:47:53Z</time></trkpt><trkpt lat="42.18142572479912" lon="13.66039748273985"><ele>687.6666666666666</ele><time>2026-04-19T13:47:54Z</time></trkpt><trkpt lat="42.181559081888516" lon="13.660239447727408"><ele>686.3333333333334</ele><time>2026-04-19T13:47:55Z</time></trkpt><trkpt lat="42.181683987929915" lon="13.660097854489296"><ele>685.0</ele><time>2026-04-19T13:47:56Z</time></trkpt><trkpt lat="42.181803685971374" lon="13.659960275984917"><ele>685.0</ele><time>2026-04-19T13:47:57Z</time></trkpt><trkpt lat="42.181918093711204" lon="13.659839979773416"><ele>685.0</ele><time>2026-04-19T13:47:58Z</time></trkpt><trkpt lat="42.18202920789519" lon="13.659728460819695"><ele>685.0</ele><time>2026-04-19T13:47:59Z</time></trkpt><trkpt lat="42.1821370288531" lon="13.659635315639893"><ele>685.0</ele><time>2026-04-19T13:48:00Z</time></trkpt><trkpt lat="42.182249816575435" lon="13.659555940343333"><ele>685.75</ele><time>2026-04-19T13:48:01Z</time></trkpt><trkpt lat="42.1823753162708" lon="13.659470998827013"><ele>686.5</ele><time>2026-04-19T13:48:02Z</time></trkpt><trkpt lat="42.18251027028281" lon="13.659390320433156"><ele>687.25</ele><time>2026-04-19T13:48:03Z</time></trkpt><trkpt lat="42.18265648218884" lon="13.659311729594124"><ele>688.0</ele><time>2026-04-19T13:48:04Z</time></trkpt><trkpt lat="42.182808170074395" lon="13.659232482891676"><ele>688.0</ele><time>2026-04-19T13:48:05Z</time></trkpt><trkpt lat="42.18296602791425" lon="13.65915028964341"><ele>688.0</ele><time>2026-04-19T13:48:06Z</time></trkpt><trkpt lat="42.18312560020849" lon="13.65906582102264"><ele>688.0</ele><time>2026-04-19T13:48:07Z</time></trkpt><trkpt lat="42.183284947194124" lon="13.658976928086936"><ele>685.6666666666667</ele><time>2026-04-19T13:48:08Z</time></trkpt><trkpt lat="42.18344038401378" lon="13.658904404735035"><ele>683.3333333333334</ele><time>2026-04-19T13:48:09Z</time></trkpt><trkpt lat="42.18359958738" lon="13.658815415737928"><ele>681.0</ele><time>2026-04-19T13:48:10Z</time></trkpt><trkpt lat="42.18375737377253" lon="13.658724669326137"><ele>681.0</ele><time>2026-04-19T13:48:11Z</time></trkpt><trkpt lat="42.1839089248805" lon="13.658632270122451"><ele>681.0</ele><time>2026-04-19T13:48:12Z</time></trkpt><trkpt lat="42.18405126458254" lon="13.658538012074853"><ele>681.0</ele><time>2026-04-19T13:48:13Z</time></trkpt><trkpt lat="42.184183225176255" lon="13.658434052915435"><ele>682.6666666666666</ele><time>2026-04-19T13:48:14Z</time></trkpt><trkpt lat="42.18431823636457" lon="13.658315598081563"><ele>684.3333333333333</ele><time>2026-04-19T13:48:15Z</time></trkpt><trkpt lat="42.184451357370264" lon="13.658177016356767"><ele>686.0</ele><time>2026-04-19T13:48:16Z</time></trkpt><trkpt lat="42.18458077864548" lon="13.65802948849305"><ele>686.0</ele><time>2026-04-19T13:48:17Z</time></trkpt><trkpt lat="42.184705486233995" lon="13.657888563561453"><ele>686.0</ele><time>2026-04-19T13:48:18Z</time></trkpt><trkpt lat="42.18482292752525" lon="13.65775445040855"><ele>686.0</ele><time>2026-04-19T13:48:19Z</time></trkpt><trkpt lat="42.18494382563137" lon="13.657630705470266"><ele>687.0</ele><time>2026-04-19T13:48:20Z</time></trkpt><trkpt lat="42.18506062765844" lon="13.657507982586266"><ele>688.0</ele><time>2026-04-19T13:48:21Z</time></trkpt><trkpt lat="42.18517731502773" lon="13.657394882306399"><ele>689.0</ele><time>2026-04-19T13:48:22Z</time></trkpt><trkpt lat="42.18530271800026" lon="13.657298552845942"><ele>690.0</ele><time>2026-04-19T13:48:23Z</time></trkpt><trkpt lat="42.18544719096773" lon="13.657255096022524"><ele>690.0</ele><time>2026-04-19T13:48:24Z</time></trkpt><trkpt lat="42.18560281056619" lon="13.6572097338378"><ele>690.0</ele><time>2026-04-19T13:48:25Z</time></trkpt><trkpt lat="42.185764803342494" lon="13.657153979754959"><ele>690.0</ele><time>2026-04-19T13:48:26Z</time></trkpt><trkpt lat="42.185935932997246" lon="13.657119059848352"><ele>692.0</ele><time>2026-04-19T13:48:27Z</time></trkpt><trkpt lat="42.18610955297732" lon="13.6570775290775"><ele>694.0</ele><time>2026-04-19T13:48:28Z</time></trkpt><trkpt lat="42.186284158987775" lon="13.657035740711706"><ele>696.0</ele><time>2026-04-19T13:48:29Z</time></trkpt><trkpt lat="42.18645894245756" lon="13.65699075576062"><ele>689.3333333333334</ele><time>2026-04-19T13:48:30Z</time></trkpt><trkpt lat="42.18663421871846" lon="13.656944993165826"><ele>682.6666666666667</ele><time>2026-04-19T13:48:31Z</time></trkpt><trkpt lat="42.18680881232354" lon="13.656899833181052"><ele>676.0</ele><time>2026-04-19T13:48:32Z</time></trkpt><trkpt lat="42.186986325184215" lon="13.656859079444423"><ele>676.0</ele><time>2026-04-19T13:48:33Z</time></trkpt><trkpt lat="42.18716378105247" lon="13.65681435300947"><ele>676.0</ele><time>2026-04-19T13:48:34Z</time></trkpt><trkpt lat="42.18733891411617" lon="13.656768251001605"><ele>676.0</ele><time>2026-04-19T13:48:35Z</time></trkpt><trkpt lat="42.187509552897026" lon="13.656729420166155"><ele>673.6666666666667</ele><time>2026-04-19T13:48:36Z</time></trkpt><trkpt lat="42.18767815455692" lon="13.656688132849345"><ele>671.3333333333334</ele><time>2026-04-19T13:48:37Z</time></trkpt><trkpt lat="42.18785031031408" lon="13.656656437448222"><ele>669.0</ele><time>2026-04-19T13:48:38Z</time></trkpt><trkpt lat="42.18802662605171" lon="13.656624201178056"><ele>667.6666666666666</ele><time>2026-04-19T13:48:39Z</time></trkpt><trkpt lat="42.18820503046255" lon="13.65659697277262"><ele>666.3333333333333</ele><time>2026-04-19T13:48:40Z</time></trkpt><trkpt lat="42.1883784265074" lon="13.656580228677882"><ele>665.0</ele><time>2026-04-19T13:48:41Z</time></trkpt><trkpt lat="42.18854274102951" lon="13.65657257652281"><ele>665.0</ele><time>2026-04-19T13:48:42Z</time></trkpt><trkpt lat="42.18869848914389" lon="13.656568406301401"><ele>665.0</ele><time>2026-04-19T13:48:43Z</time></trkpt><trkpt lat="42.188846505441965" lon="13.656565305874382"><ele>665.0</ele><time>2026-04-19T13:48:44Z</time></trkpt><trkpt lat="42.18898847435273" lon="13.656563825571073"><ele>665.0</ele><time>2026-04-19T13:48:45Z</time></trkpt><trkpt lat="42.18912558125718" lon="13.656566131169123"><ele>664.0</ele><time>2026-04-19T13:48:46Z</time></trkpt><trkpt lat="42.18924925753014" lon="13.65657076740556"><ele>663.0</ele><time>2026-04-19T13:48:47Z</time></trkpt><trkpt lat="42.18934794053976" lon="13.656576674470159"><ele>662.0</ele><time>2026-04-19T13:48:48Z</time></trkpt><trkpt lat="42.189426594603624" lon="13.656579543907302"><ele>661.0</ele><time>2026-04-19T13:48:49Z</time></trkpt><trkpt lat="42.189491555438764" lon="13.656564748292535"><ele>660.0</ele><time>2026-04-19T13:48:50Z</time></trkpt><trkpt lat="42.18955692179223" lon="13.65641653459099"><ele>660.0</ele><time>2026-04-19T13:48:52Z</time></trkpt><trkpt lat="42.1895291919491" lon="13.656308543000845"><ele>660.0</ele><time>2026-04-19T13:48:53Z</time></trkpt><trkpt lat="42.18947086816652" lon="13.656226099439706"><ele>660.0</ele><time>2026-04-19T13:48:54Z</time></trkpt><trkpt lat="42.18938387658129" lon="13.656196546654234"><ele>660.0</ele><time>2026-04-19T13:48:55Z</time></trkpt><trkpt lat="42.18927882049271" lon="13.656238621922599"><ele>660.0</ele><time>2026-04-19T13:48:56Z</time></trkpt><trkpt lat="42.189183502305255" lon="13.65624031933191"><ele>660.0</ele><time>2026-04-19T13:48:57Z</time></trkpt><trkpt lat="42.189076299865036" lon="13.656268984143864"><ele>660.0</ele><time>2026-04-19T13:48:58Z</time></trkpt><trkpt lat="42.18895552735435" lon="13.656272547042605"><ele>660.0</ele><time>2026-04-19T13:48:59Z</time></trkpt><trkpt lat="42.18882937883547" lon="13.656283408360506"><ele>660.0</ele><time>2026-04-19T13:49:00Z</time></trkpt><trkpt lat="42.188701881647" lon="13.65629764620527"><ele>661.0</ele><time>2026-04-19T13:49:01Z</time></trkpt><trkpt lat="42.18858652953631" lon="13.656316570896815"><ele>662.0</ele><time>2026-04-19T13:49:02Z</time></trkpt><trkpt lat="42.18848157248067" lon="13.656329160525019"><ele>663.0</ele><time>2026-04-19T13:49:03Z</time></trkpt><trkpt lat="42.18839427193622" lon="13.65633681531918"><ele>664.0</ele><time>2026-04-19T13:49:04Z</time></trkpt><trkpt lat="42.18832159010223" lon="13.656335034310224"><ele>665.0</ele><time>2026-04-19T13:49:05Z</time></trkpt><trkpt lat="42.188206011707294" lon="13.656259424272365"><ele>665.0</ele><time>2026-04-19T13:49:07Z</time></trkpt><trkpt lat="42.18817946822323" lon="13.65616661615511"><ele>665.0</ele><time>2026-04-19T13:49:08Z</time></trkpt><trkpt lat="42.18821094218458" lon="13.656080711522083"><ele>665.0</ele><time>2026-04-19T13:49:09Z</time></trkpt><trkpt lat="42.18826790714431" lon="13.656013636904868"><ele>665.0</ele><time>2026-04-19T13:49:10Z</time></trkpt><trkpt lat="42.18833954918001" lon="13.656015183763914"><ele>665.0</ele><time>2026-04-19T13:49:11Z</time></trkpt><trkpt lat="42.18844769912498" lon="13.655973618941259"><ele>665.0</ele><time>2026-04-19T13:49:12Z</time></trkpt><trkpt lat="42.18856247557577" lon="13.655933864686691"><ele>663.5</ele><time>2026-04-19T13:49:13Z</time></trkpt><trkpt lat="42.18868790047918" lon="13.65588521675088"><ele>662.0</ele><time>2026-04-19T13:49:14Z</time></trkpt><trkpt lat="42.18882217935422" lon="13.655824966938818"><ele>660.5</ele><time>2026-04-19T13:49:15Z</time></trkpt><trkpt lat="42.18896349427273" lon="13.655755475286526"><ele>659.0</ele><time>2026-04-19T13:49:16Z</time></trkpt><trkpt lat="42.18910479278325" lon="13.655679390695113"><ele>656.6666666666666</ele><time>2026-04-19T13:49:17Z</time></trkpt><trkpt lat="42.1892389280817" lon="13.655625420569633"><ele>654.3333333333334</ele><time>2026-04-19T13:49:18Z</time></trkpt><trkpt lat="42.189392051098814" lon="13.655545890580918"><ele>652.0</ele><time>2026-04-19T13:49:19Z</time></trkpt><trkpt lat="42.18953282241195" lon="13.655475924315677"><ele>652.0</ele><time>2026-04-19T13:49:20Z</time></trkpt><trkpt lat="42.1896609717607" lon="13.655403238526509"><ele>652.0</ele><time>2026-04-19T13:49:21Z</time></trkpt><trkpt lat="42.18977642003365" lon="13.655339908958164"><ele>652.0</ele><time>2026-04-19T13:49:22Z</time></trkpt><trkpt lat="42.18986705451424" lon="13.65529532884605"><ele>652.0</ele><time>2026-04-19T13:49:23Z</time></trkpt><trkpt lat="42.189941611772156" lon="13.655248130199167"><ele>652.0</ele><time>2026-04-19T13:49:24Z</time></trkpt><trkpt lat="42.1900042659407" lon="13.65519419738286"><ele>650.2</ele><time>2026-04-19T13:49:25Z</time></trkpt><trkpt lat="42.19002199467118" lon="13.65509350813821"><ele>648.4000000000001</ele><time>2026-04-19T13:49:26Z</time></trkpt><trkpt lat="42.19001967066998" lon="13.654987440443717"><ele>646.5999999999999</ele><time>2026-04-19T13:49:27Z</time></trkpt><trkpt lat="42.18998277638663" lon="13.654842127039249"><ele>644.8</ele><time>2026-04-19T13:49:28Z</time></trkpt><trkpt lat="42.189940607037975" lon="13.654680653393635"><ele>643.0</ele><time>2026-04-19T13:49:29Z</time></trkpt><trkpt lat="42.18986196733178" lon="13.654515411991772"><ele>644.8</ele><time>2026-04-19T13:49:30Z</time></trkpt><trkpt lat="42.18979299796299" lon="13.654353297107376"><ele>646.5999999999999</ele><time>2026-04-19T13:49:31Z</time></trkpt><trkpt lat="42.18973974740603" lon="13.654223983021579"><ele>648.4000000000001</ele><time>2026-04-19T13:49:32Z</time></trkpt><trkpt lat="42.189706272562695" lon="13.654115066056686"><ele>650.2</ele><time>2026-04-19T13:49:33Z</time></trkpt><trkpt lat="42.18969280329598" lon="13.654018079060657"><ele>652.0</ele><time>2026-04-19T13:49:34Z</time></trkpt><trkpt lat="42.18970131990696" lon="13.65392215940077"><ele>652.0</ele><time>2026-04-19T13:49:35Z</time></trkpt><trkpt lat="42.18973834752643" lon="13.653832784703294"><ele>652.0</ele><time>2026-04-19T13:49:36Z</time></trkpt><trkpt lat="42.189806641658194" lon="13.65377238799323"><ele>652.0</ele><time>2026-04-19T13:49:37Z</time></trkpt><trkpt lat="42.189916042935124" lon="13.653764863577743"><ele>652.0</ele><time>2026-04-19T13:49:38Z</time></trkpt><trkpt lat="42.19003195663535" lon="13.653715474664665"><ele>652.0</ele><time>2026-04-19T13:49:39Z</time></trkpt><trkpt lat="42.190193132673954" lon="13.65366510603013"><ele>650.6666666666667</ele><time>2026-04-19T13:49:40Z</time></trkpt><trkpt lat="42.19033716259156" lon="13.653602720302898"><ele>649.3333333333334</ele><time>2026-04-19T13:49:41Z</time></trkpt><trkpt lat="42.19048852110496" lon="13.653531387942653"><ele>648.0</ele><time>2026-04-19T13:49:42Z</time></trkpt><trkpt lat="42.190627420785084" lon="13.653457313019835"><ele>643.5</ele><time>2026-04-19T13:49:43Z</time></trkpt><trkpt lat="42.1907589265071" lon="13.653386450806119"><ele>639.0</ele><time>2026-04-19T13:49:44Z</time></trkpt><trkpt lat="42.19087881783693" lon="13.653310661923374"><ele>634.5</ele><time>2026-04-19T13:49:45Z</time></trkpt><trkpt lat="42.19099005548424" lon="13.65320536682096"><ele>630.0</ele><time>2026-04-19T13:49:46Z</time></trkpt><trkpt lat="42.191094016328236" lon="13.653078640403757"><ele>630.0</ele><time>2026-04-19T13:49:47Z</time></trkpt><trkpt lat="42.191197836228724" lon="13.6529656081017"><ele>630.0</ele><time>2026-04-19T13:49:48Z</time></trkpt><trkpt lat="42.191309992850776" lon="13.652879857358906"><ele>630.0</ele><time>2026-04-19T13:49:49Z</time></trkpt><trkpt lat="42.191434436834086" lon="13.652821968023355"><ele>630.0</ele><time>2026-04-19T13:49:50Z</time></trkpt><trkpt lat="42.19157213943585" lon="13.65278921393495"><ele>629.25</ele><time>2026-04-19T13:49:51Z</time></trkpt><trkpt lat="42.19170319550664" lon="13.652777172289081"><ele>628.5</ele><time>2026-04-19T13:49:52Z</time></trkpt><trkpt lat="42.19181331061368" lon="13.652773444797372"><ele>627.75</ele><time>2026-04-19T13:49:53Z</time></trkpt><trkpt lat="42.19191923800525" lon="13.652756268484259"><ele>627.0</ele><time>2026-04-19T13:49:54Z</time></trkpt><trkpt lat="42.192020540212745" lon="13.652708859214398"><ele>627.0</ele><time>2026-04-19T13:49:55Z</time></trkpt><trkpt lat="42.19212218422319" lon="13.652624012591986"><ele>627.0</ele><time>2026-04-19T13:49:56Z</time></trkpt><trkpt lat="42.19221898489831" lon="13.65252962601382"><ele>627.0</ele><time>2026-04-19T13:49:57Z</time></trkpt><trkpt lat="42.19231306927236" lon="13.65242758041408"><ele>627.0</ele><time>2026-04-19T13:49:58Z</time></trkpt><trkpt lat="42.1923899624577" lon="13.652343308345257"><ele>624.6666666666666</ele><time>2026-04-19T13:49:59Z</time></trkpt><trkpt lat="42.192444988786406" lon="13.652272179224"><ele>622.3333333333334</ele><time>2026-04-19T13:50:00Z</time></trkpt><trkpt lat="42.19249916203705" lon="13.652223578479044"><ele>620.0</ele><time>2026-04-19T13:50:01Z</time></trkpt><trkpt lat="42.19261185340737" lon="13.652243322979393"><ele>617.6666666666667</ele><time>2026-04-19T13:50:03Z</time></trkpt><trkpt lat="42.19265370408667" lon="13.652316245846372"><ele>615.3333333333334</ele><time>2026-04-19T13:50:04Z</time></trkpt><trkpt lat="42.19263085723755" lon="13.65242026222416"><ele>613.0</ele><time>2026-04-19T13:50:05Z</time></trkpt><trkpt lat="42.192586543444015" lon="13.652496441448784"><ele>613.0</ele><time>2026-04-19T13:50:06Z</time></trkpt><trkpt lat="42.19251967904365" lon="13.652538229617493"><ele>613.0</ele><time>2026-04-19T13:50:07Z</time></trkpt><trkpt lat="42.192447138874165" lon="13.652590639315028"><ele>613.0</ele><time>2026-04-19T13:50:08Z</time></trkpt><trkpt lat="42.19238149623644" lon="13.652650752612926"><ele>613.0</ele><time>2026-04-19T13:50:09Z</time></trkpt><trkpt lat="42.192337683410784" lon="13.65271944705809"><ele>613.0</ele><time>2026-04-19T13:50:10Z</time></trkpt><trkpt lat="42.19229558795855" lon="13.652787834167887"><ele>613.0</ele><time>2026-04-19T13:50:11Z</time></trkpt><trkpt lat="42.19232876658897" lon="13.652894371891964"><ele>613.0</ele><time>2026-04-19T13:50:12Z</time></trkpt><trkpt lat="42.19237926135836" lon="13.652969115408188"><ele>613.0</ele><time>2026-04-19T13:50:13Z</time></trkpt><trkpt lat="42.19245274172743" lon="13.652982926148496"><ele>613.0</ele><time>2026-04-19T13:50:14Z</time></trkpt><trkpt lat="42.19253592447539" lon="13.652955103049765"><ele>613.0</ele><time>2026-04-19T13:50:15Z</time></trkpt><trkpt lat="42.19262350153246" lon="13.652888330658433"><ele>613.0</ele><time>2026-04-19T13:50:16Z</time></trkpt><trkpt lat="42.192707960162046" lon="13.652802962063417"><ele>613.0</ele><time>2026-04-19T13:50:17Z</time></trkpt><trkpt lat="42.19278383675666" lon="13.65269532591291"><ele>613.0</ele><time>2026-04-19T13:50:18Z</time></trkpt><trkpt lat="42.19283810740358" lon="13.652568691639354"><ele>613.0</ele><time>2026-04-19T13:50:19Z</time></trkpt><trkpt lat="42.192865615941585" lon="13.652434964773008"><ele>613.0</ele><time>2026-04-19T13:50:20Z</time></trkpt><trkpt lat="42.192867277581634" lon="13.652316038784623"><ele>613.0</ele><time>2026-04-19T13:50:21Z</time></trkpt><trkpt lat="42.19287175682681" lon="13.652227349839276"><ele>613.0</ele><time>2026-04-19T13:50:22Z</time></trkpt><trkpt lat="42.1929478930514" lon="13.652140815191556"><ele>613.0</ele><time>2026-04-19T13:50:24Z</time></trkpt><trkpt lat="42.193057319005376" lon="13.652225079753917"><ele>613.0</ele><time>2026-04-19T13:50:26Z</time></trkpt><trkpt lat="42.19305057594802" lon="13.652351825309271"><ele>613.0</ele><time>2026-04-19T13:50:27Z</time></trkpt><trkpt lat="42.1930239638902" lon="13.652479434200163"><ele>613.0</ele><time>2026-04-19T13:50:28Z</time></trkpt><trkpt lat="42.192995654565465" lon="13.652619711493069"><ele>613.0</ele><time>2026-04-19T13:50:29Z</time></trkpt><trkpt lat="42.19296586237895" lon="13.65276347486054"><ele>609.6666666666667</ele><time>2026-04-19T13:50:30Z</time></trkpt><trkpt lat="42.19294061904432" lon="13.65288945797038"><ele>606.3333333333334</ele><time>2026-04-19T13:50:31Z</time></trkpt><trkpt lat="42.19292754065616" lon="13.652998262440153"><ele>603.0</ele><time>2026-04-19T13:50:32Z</time></trkpt><trkpt lat="42.19292009663617" lon="13.653093880860878"><ele>599.6666666666666</ele><time>2026-04-19T13:50:33Z</time></trkpt><trkpt lat="42.192955196188436" lon="13.653193922637302"><ele>596.3333333333333</ele><time>2026-04-19T13:50:34Z</time></trkpt><trkpt lat="42.19303797448821" lon="13.653246576845802"><ele>593.0</ele><time>2026-04-19T13:50:35Z</time></trkpt><trkpt lat="42.19311632070326" lon="13.65326108571866"><ele>591.8</ele><time>2026-04-19T13:50:36Z</time></trkpt><trkpt lat="42.19318661823244" lon="13.653217160966864"><ele>590.5999999999999</ele><time>2026-04-19T13:50:37Z</time></trkpt><trkpt lat="42.19324856688979" lon="13.653127127466089"><ele>589.4000000000001</ele><time>2026-04-19T13:50:38Z</time></trkpt><trkpt lat="42.19328509119249" lon="13.65299427663242"><ele>588.2</ele><time>2026-04-19T13:50:39Z</time></trkpt><trkpt lat="42.19330772626859" lon="13.652840458070381"><ele>587.0</ele><time>2026-04-19T13:50:40Z</time></trkpt><trkpt lat="42.19332745246119" lon="13.652675985251843"><ele>587.0</ele><time>2026-04-19T13:50:41Z</time></trkpt><trkpt lat="42.19334461623621" lon="13.652507280262991"><ele>587.0</ele><time>2026-04-19T13:50:42Z</time></trkpt><trkpt lat="42.1933615026485" lon="13.65233655522582"><ele>587.0</ele><time>2026-04-19T13:50:43Z</time></trkpt><trkpt lat="42.19335300973394" lon="13.652158302319483"><ele>587.0</ele><time>2026-04-19T13:50:44Z</time></trkpt><trkpt lat="42.19332041426911" lon="13.651996128076918"><ele>585.8000000000001</ele><time>2026-04-19T13:50:45Z</time></trkpt><trkpt lat="42.193289931058224" lon="13.651856379200192"><ele>584.6</ele><time>2026-04-19T13:50:46Z</time></trkpt><trkpt lat="42.19326447736554" lon="13.651729927706013"><ele>583.4000000000001</ele><time>2026-04-19T13:50:47Z</time></trkpt><trkpt lat="42.19325137823724" lon="13.651605446336752"><ele>582.2</ele><time>2026-04-19T13:50:48Z</time></trkpt><trkpt lat="42.193283247320785" lon="13.651470747987323"><ele>581.0</ele><time>2026-04-19T13:50:49Z</time></trkpt><trkpt lat="42.193339687086606" lon="13.651315825748785"><ele>581.0</ele><time>2026-04-19T13:50:50Z</time></trkpt><trkpt lat="42.193419427883576" lon="13.651153687899912"><ele>581.0</ele><time>2026-04-19T13:50:51Z</time></trkpt><trkpt lat="42.19351348938251" lon="13.650995693838718"><ele>581.0</ele><time>2026-04-19T13:50:52Z</time></trkpt><trkpt lat="42.1936248025073" lon="13.650859644714943"><ele>581.0</ele><time>2026-04-19T13:50:53Z</time></trkpt><trkpt lat="42.19375418623674" lon="13.650738776203577"><ele>584.6666666666666</ele><time>2026-04-19T13:50:54Z</time></trkpt><trkpt lat="42.19388917290915" lon="13.650627798016087"><ele>588.3333333333334</ele><time>2026-04-19T13:50:55Z</time></trkpt><trkpt lat="42.19402032848104" lon="13.650529478257527"><ele>592.0</ele><time>2026-04-19T13:50:56Z</time></trkpt><trkpt lat="42.19414775259289" lon="13.650445610719375"><ele>590.25</ele><time>2026-04-19T13:50:57Z</time></trkpt><trkpt lat="42.19427228083141" lon="13.650363090214759"><ele>588.5</ele><time>2026-04-19T13:50:58Z</time></trkpt><trkpt lat="42.19438861358348" lon="13.650276822607285"><ele>586.75</ele><time>2026-04-19T13:50:59Z</time></trkpt><trkpt lat="42.19449903403615" lon="13.650190151450527"><ele>585.0</ele><time>2026-04-19T13:51:00Z</time></trkpt><trkpt lat="42.19460025717584" lon="13.650098419504307"><ele>585.0</ele><time>2026-04-19T13:51:01Z</time></trkpt><trkpt lat="42.19470204316065" lon="13.650002632996783"><ele>585.0</ele><time>2026-04-19T13:51:02Z</time></trkpt><trkpt lat="42.19479289993245" lon="13.649886506156351"><ele>585.0</ele><time>2026-04-19T13:51:03Z</time></trkpt><trkpt lat="42.19487790207556" lon="13.64974316175465"><ele>585.0</ele><time>2026-04-19T13:51:04Z</time></trkpt><trkpt lat="42.194949558661555" lon="13.649573194250909"><ele>581.0</ele><time>2026-04-19T13:51:05Z</time></trkpt><trkpt lat="42.195019062406686" lon="13.649396474265595"><ele>577.0</ele><time>2026-04-19T13:51:06Z</time></trkpt><trkpt lat="42.195092222204686" lon="13.649229157819958"><ele>573.0</ele><time>2026-04-19T13:51:07Z</time></trkpt><trkpt lat="42.19516389131951" lon="13.649077281484242"><ele>569.0</ele><time>2026-04-19T13:51:08Z</time></trkpt><trkpt lat="42.19524539138826" lon="13.648944956587926"><ele>569.0</ele><time>2026-04-19T13:51:09Z</time></trkpt><trkpt lat="42.19533839716588" lon="13.648829248321562"><ele>569.0</ele><time>2026-04-19T13:51:10Z</time></trkpt><trkpt lat="42.19544653789923" lon="13.64873361938635"><ele>569.0</ele><time>2026-04-19T13:51:11Z</time></trkpt><trkpt lat="42.19557040131194" lon="13.648657620834612"><ele>569.0</ele><time>2026-04-19T13:51:12Z</time></trkpt><trkpt lat="42.19570690824822" lon="13.648586980110784"><ele>566.25</ele><time>2026-04-19T13:51:13Z</time></trkpt><trkpt lat="42.19583450795469" lon="13.648514121742696"><ele>563.5</ele><time>2026-04-19T13:51:14Z</time></trkpt><trkpt lat="42.19594867004003" lon="13.648425880874345"><ele>560.75</ele><time>2026-04-19T13:51:15Z</time></trkpt><trkpt lat="42.196051150976004" lon="13.64832956808468"><ele>558.0</ele><time>2026-04-19T13:51:16Z</time></trkpt><trkpt lat="42.19614371346515" lon="13.648225062225965"><ele>558.0</ele><time>2026-04-19T13:51:17Z</time></trkpt><trkpt lat="42.196220422748404" lon="13.648119799614232"><ele>558.0</ele><time>2026-04-19T13:51:18Z</time></trkpt><trkpt lat="42.19629375856331" lon="13.648034379252069"><ele>558.0</ele><time>2026-04-19T13:51:19Z</time></trkpt><trkpt lat="42.19636199456665" lon="13.647979189026096"><ele>558.0</ele><time>2026-04-19T13:51:20Z</time></trkpt><trkpt lat="42.19641548355279" lon="13.647926889066962"><ele>558.0</ele><time>2026-04-19T13:51:21Z</time></trkpt><trkpt lat="42.19650919006102" lon="13.647983283661878"><ele>555.8</ele><time>2026-04-19T13:51:22Z</time></trkpt><trkpt lat="42.19656784211755" lon="13.64804894518212"><ele>553.5999999999999</ele><time>2026-04-19T13:51:23Z</time></trkpt><trkpt lat="42.19659823416004" lon="13.648150951786441"><ele>551.4000000000001</ele><time>2026-04-19T13:51:24Z</time></trkpt><trkpt lat="42.196624220525045" lon="13.648236441523359"><ele>549.2</ele><time>2026-04-19T13:51:25Z</time></trkpt><trkpt lat="42.196532788931144" lon="13.64839501344155"><ele>547.0</ele><time>2026-04-19T13:51:26Z</time></trkpt><trkpt lat="42.19652024535652" lon="13.64854654482775"><ele>547.0</ele><time>2026-04-19T13:51:27Z</time></trkpt><trkpt lat="42.19648152241461" lon="13.648711737770926"><ele>547.0</ele><time>2026-04-19T13:51:28Z</time></trkpt><trkpt lat="42.196447950281694" lon="13.64890722638416"><ele>547.0</ele><time>2026-04-19T13:51:29Z</time></trkpt><trkpt lat="42.19639358717897" lon="13.649118688356046"><ele>547.0</ele><time>2026-04-19T13:51:30Z</time></trkpt><trkpt lat="42.19635370108261" lon="13.649345157570597"><ele>545.3333333333334</ele><time>2026-04-19T13:51:31Z</time></trkpt><trkpt lat="42.196314474717774" lon="13.649585741353173"><ele>543.6666666666666</ele><time>2026-04-19T13:51:32Z</time></trkpt><trkpt lat="42.196289474139355" lon="13.64984275546343"><ele>542.0</ele><time>2026-04-19T13:51:33Z</time></trkpt><trkpt lat="42.196231020743085" lon="13.650097582709416"><ele>539.6666666666666</ele><time>2026-04-19T13:51:34Z</time></trkpt><trkpt lat="42.19618790941629" lon="13.650361993777258"><ele>537.3333333333334</ele><time>2026-04-19T13:51:35Z</time></trkpt><trkpt lat="42.19614408621615" lon="13.650624142467166"><ele>535.0</ele><time>2026-04-19T13:51:36Z</time></trkpt><trkpt lat="42.19609980958528" lon="13.650888167113132"><ele>533.6666666666667</ele><time>2026-04-19T13:51:37Z</time></trkpt><trkpt lat="42.19605602656534" lon="13.651149248350455"><ele>532.3333333333334</ele><time>2026-04-19T13:51:38Z</time></trkpt><trkpt lat="42.19601519748696" lon="13.651401440857063"><ele>531.0</ele><time>2026-04-19T13:51:39Z</time></trkpt><trkpt lat="42.19599110066307" lon="13.651655257485363"><ele>531.0</ele><time>2026-04-19T13:51:40Z</time></trkpt><trkpt lat="42.195948618875974" lon="13.651908289272185"><ele>531.0</ele><time>2026-04-19T13:51:41Z</time></trkpt><trkpt lat="42.19590633693376" lon="13.652162593039389"><ele>531.0</ele><time>2026-04-19T13:51:42Z</time></trkpt><trkpt lat="42.195862572670585" lon="13.652417636593567"><ele>529.3333333333334</ele><time>2026-04-19T13:51:43Z</time></trkpt><trkpt lat="42.19580550879738" lon="13.652673106345205"><ele>527.6666666666667</ele><time>2026-04-19T13:51:44Z</time></trkpt><trkpt lat="42.195762560792026" lon="13.652929750512007"><ele>526.0</ele><time>2026-04-19T13:51:45Z</time></trkpt><trkpt lat="42.195722119853016" lon="13.65317160719003"><ele>527.0</ele><time>2026-04-19T13:51:46Z</time></trkpt><trkpt lat="42.19568291337924" lon="13.653407006991715"><ele>528.0</ele><time>2026-04-19T13:51:47Z</time></trkpt><trkpt lat="42.19564320778361" lon="13.653636337046914"><ele>529.0</ele><time>2026-04-19T13:51:48Z</time></trkpt><trkpt lat="42.19560634105588" lon="13.653849171559953"><ele>529.0</ele><time>2026-04-19T13:51:49Z</time></trkpt><trkpt lat="42.19557908596674" lon="13.65403814453213"><ele>529.0</ele><time>2026-04-19T13:51:50Z</time></trkpt><trkpt lat="42.195560017589976" lon="13.654202193812019"><ele>529.0</ele><time>2026-04-19T13:51:51Z</time></trkpt><trkpt lat="42.1955519086534" lon="13.654369580003126"><ele>529.0</ele><time>2026-04-19T13:51:52Z</time></trkpt><trkpt lat="42.19558051552559" lon="13.654534336995805"><ele>526.25</ele><time>2026-04-19T13:51:53Z</time></trkpt><trkpt lat="42.19561522977869" lon="13.654693616033411"><ele>523.5</ele><time>2026-04-19T13:51:54Z</time></trkpt><trkpt lat="42.19567365008018" lon="13.65485041008873"><ele>520.75</ele><time>2026-04-19T13:51:55Z</time></trkpt><trkpt lat="42.195749182142734" lon="13.655001548223925"><ele>518.0</ele><time>2026-04-19T13:51:56Z</time></trkpt><trkpt lat="42.195809348352704" lon="13.655150940335588"><ele>512.3333333333333</ele><time>2026-04-19T13:51:57Z</time></trkpt><trkpt lat="42.195914671967884" lon="13.655307946382916"><ele>506.66666666666663</ele><time>2026-04-19T13:51:58Z</time></trkpt><trkpt lat="42.19602456579574" lon="13.655475763955646"><ele>501.0</ele><time>2026-04-19T13:51:59Z</time></trkpt><trkpt lat="42.19614316979196" lon="13.65565491300275"><ele>501.0</ele><time>2026-04-19T13:52:00Z</time></trkpt><trkpt lat="42.19625460390385" lon="13.655827731842084"><ele>501.0</ele><time>2026-04-19T13:52:01Z</time></trkpt><trkpt lat="42.19636018624699" lon="13.655986805978374"><ele>501.0</ele><time>2026-04-19T13:52:02Z</time></trkpt><trkpt lat="42.19645543878365" lon="13.656141751290912"><ele>499.4</ele><time>2026-04-19T13:52:03Z</time></trkpt><trkpt lat="42.19654223153019" lon="13.656277008423025"><ele>497.8</ele><time>2026-04-19T13:52:04Z</time></trkpt><trkpt lat="42.1966184135826" lon="13.656393951900965"><ele>496.19999999999993</ele><time>2026-04-19T13:52:05Z</time></trkpt><trkpt lat="42.19668090803946" lon="13.65649668949415"><ele>494.59999999999997</ele><time>2026-04-19T13:52:06Z</time></trkpt><trkpt lat="42.19673807452119" lon="13.65658739118554"><ele>493.0</ele><time>2026-04-19T13:52:07Z</time></trkpt><trkpt lat="42.196789574344436" lon="13.656671147845818"><ele>493.00000000000006</ele><time>2026-04-19T13:52:08Z</time></trkpt><trkpt lat="42.196834001680585" lon="13.656742577392848"><ele>493.0</ele><time>2026-04-19T13:52:09Z</time></trkpt><trkpt lat="42.19688026452772" lon="13.656823538571134"><ele>493.0</ele><time>2026-04-19T13:52:12Z</time></trkpt><trkpt lat="42.196956355331785" lon="13.656907655495784"><ele>493.0</ele><time>2026-04-19T13:52:38Z</time></trkpt><trkpt lat="42.1970035558115" lon="13.657012306065726"><ele>493.00000000000006</ele><time>2026-04-19T13:52:41Z</time></trkpt><trkpt lat="42.19706137164383" lon="13.657103712306085"><ele>493.0</ele><time>2026-04-19T13:52:43Z</time></trkpt><trkpt lat="42.19712443381909" lon="13.657183594456622"><ele>493.0</ele><time>2026-04-19T13:52:44Z</time></trkpt><trkpt lat="42.1971915629486" lon="13.657286069935246"><ele>493.0</ele><time>2026-04-19T13:52:45Z</time></trkpt><trkpt lat="42.197269746382275" lon="13.65741002809467"><ele>493.0</ele><time>2026-04-19T13:52:46Z</time></trkpt><trkpt lat="42.197364701016525" lon="13.657549493977614"><ele>493.0</ele><time>2026-04-19T13:52:47Z</time></trkpt><trkpt lat="42.19746415334762" lon="13.657702584162417"><ele>492.75</ele><time>2026-04-19T13:52:48Z</time></trkpt><trkpt lat="42.19756239921289" lon="13.657856919436755"><ele>492.5</ele><time>2026-04-19T13:52:49Z</time></trkpt><trkpt lat="42.197643958050726" lon="13.658009671428454"><ele>492.25</ele><time>2026-04-19T13:52:50Z</time></trkpt><trkpt lat="42.19772113437561" lon="13.658132530241332"><ele>492.0</ele><time>2026-04-19T13:52:51Z</time></trkpt><trkpt lat="42.19779273526134" lon="13.65824651350131"><ele>492.0</ele><time>2026-04-19T13:52:52Z</time></trkpt><trkpt lat="42.19787351827741" lon="13.658352954892864"><ele>492.00000000000006</ele><time>2026-04-19T13:52:53Z</time></trkpt><trkpt lat="42.19792772382889" lon="13.658489059797844"><ele>492.00000000000006</ele><time>2026-04-19T13:52:54Z</time></trkpt><trkpt lat="42.1979759035924" lon="13.6586082501355"><ele>492.0</ele><time>2026-04-19T13:52:55Z</time></trkpt><trkpt lat="42.19801611012851" lon="13.658721942453601"><ele>492.0</ele><time>2026-04-19T13:52:56Z</time></trkpt><trkpt lat="42.198049802827796" lon="13.658843102034607"><ele>492.6</ele><time>2026-04-19T13:52:57Z</time></trkpt><trkpt lat="42.19808699597567" lon="13.658962039844612"><ele>493.20000000000005</ele><time>2026-04-19T13:52:58Z</time></trkpt><trkpt lat="42.19812554063706" lon="13.659072856650338"><ele>493.8</ele><time>2026-04-19T13:52:59Z</time></trkpt><trkpt lat="42.19816026200602" lon="13.659176735739575"><ele>494.4</ele><time>2026-04-19T13:53:00Z</time></trkpt><trkpt lat="42.19819267993203" lon="13.659279485548579"><ele>495.0</ele><time>2026-04-19T13:53:01Z</time></trkpt><trkpt lat="42.19836220564072" lon="13.659287513793341"><ele>495.4</ele><time>2026-04-19T13:53:02Z</time></trkpt><trkpt lat="42.19847611058012" lon="13.659316867745913"><ele>495.8</ele><time>2026-04-19T13:53:03Z</time></trkpt><trkpt lat="42.19858642762728" lon="13.65934321034899"><ele>496.20000000000005</ele><time>2026-04-19T13:53:04Z</time></trkpt><trkpt lat="42.198695307192885" lon="13.659358689145089"><ele>496.6</ele><time>2026-04-19T13:53:05Z</time></trkpt><trkpt lat="42.19880137401496" lon="13.659337918481882"><ele>497.0</ele><time>2026-04-19T13:53:06Z</time></trkpt><trkpt lat="42.19890770720936" lon="13.659268072189464"><ele>499.75</ele><time>2026-04-19T13:53:07Z</time></trkpt><trkpt lat="42.199007149678614" lon="13.659162419960605"><ele>502.5</ele><time>2026-04-19T13:53:08Z</time></trkpt><trkpt lat="42.199105708231194" lon="13.659042948920199"><ele>505.25</ele><time>2026-04-19T13:53:09Z</time></trkpt><trkpt lat="42.1992048517046" lon="13.658937631202301"><ele>508.0</ele><time>2026-04-19T13:53:10Z</time></trkpt><trkpt lat="42.19930275384335" lon="13.658844567444817"><ele>508.0</ele><time>2026-04-19T13:53:11Z</time></trkpt><trkpt lat="42.19940169282707" lon="13.658752511559296"><ele>508.0</ele><time>2026-04-19T13:53:12Z</time></trkpt><trkpt lat="42.19950255858194" lon="13.65864698068602"><ele>508.0</ele><time>2026-04-19T13:53:13Z</time></trkpt><trkpt lat="42.19961070138528" lon="13.658543326266042"><ele>508.0</ele><time>2026-04-19T13:53:14Z</time></trkpt><trkpt lat="42.19972201470842" lon="13.658467627608013"><ele>508.0</ele><time>2026-04-19T13:53:15Z</time></trkpt><trkpt lat="42.19984048510665" lon="13.658428849363126"><ele>508.0</ele><time>2026-04-19T13:53:16Z</time></trkpt><trkpt lat="42.19995910947135" lon="13.658421271303682"><ele>508.0</ele><time>2026-04-19T13:53:17Z</time></trkpt><trkpt lat="42.20008489165022" lon="13.65837771869966"><ele>508.0</ele><time>2026-04-19T13:53:18Z</time></trkpt><trkpt lat="42.2002106246208" lon="13.658358729764679"><ele>508.0</ele><time>2026-04-19T13:53:19Z</time></trkpt><trkpt lat="42.20032914827201" lon="13.658335235245632"><ele>508.0</ele><time>2026-04-19T13:53:20Z</time></trkpt><trkpt lat="42.200446755753894" lon="13.65830420498195"><ele>508.0</ele><time>2026-04-19T13:53:21Z</time></trkpt><trkpt lat="42.20056057158663" lon="13.658264217070249"><ele>508.0</ele><time>2026-04-19T13:53:22Z</time></trkpt><trkpt lat="42.2006685404104" lon="13.658212270200309"><ele>511.0</ele><time>2026-04-19T13:53:23Z</time></trkpt><trkpt lat="42.20076878764353" lon="13.658136166005564"><ele>514.0</ele><time>2026-04-19T13:53:24Z</time></trkpt><trkpt lat="42.20085868394534" lon="13.658031874667945"><ele>517.0</ele><time>2026-04-19T13:53:25Z</time></trkpt><trkpt lat="42.200939583102034" lon="13.65791837569827"><ele>520.0</ele><time>2026-04-19T13:53:26Z</time></trkpt><trkpt lat="42.20101372491727" lon="13.657805322215067"><ele>517.0</ele><time>2026-04-19T13:53:27Z</time></trkpt><trkpt lat="42.20108747302498" lon="13.657706311630774"><ele>514.0</ele><time>2026-04-19T13:53:28Z</time></trkpt><trkpt lat="42.20117242952471" lon="13.657632269921226"><ele>511.0</ele><time>2026-04-19T13:53:29Z</time></trkpt><trkpt lat="42.20127059620029" lon="13.657588319349005"><ele>508.0</ele><time>2026-04-19T13:53:30Z</time></trkpt><trkpt lat="42.201373727817916" lon="13.657570183019034"><ele>505.0</ele><time>2026-04-19T13:53:31Z</time></trkpt><trkpt lat="42.201479355300364" lon="13.657551685071134"><ele>507.4</ele><time>2026-04-19T13:53:32Z</time></trkpt><trkpt lat="42.201586698877016" lon="13.65752909930879"><ele>509.8</ele><time>2026-04-19T13:53:33Z</time></trkpt><trkpt lat="42.2016963892806" lon="13.657507248089528"><ele>512.2</ele><time>2026-04-19T13:53:34Z</time></trkpt><trkpt lat="42.201805941037534" lon="13.657486782144744"><ele>514.6</ele><time>2026-04-19T13:53:35Z</time></trkpt><trkpt lat="42.20191452154912" lon="13.657486393114567"><ele>517.0</ele><time>2026-04-19T13:53:36Z</time></trkpt><trkpt lat="42.202021369618414" lon="13.657510181384133"><ele>517.0</ele><time>2026-04-19T13:53:37Z</time></trkpt><trkpt lat="42.202119011437965" lon="13.657581151672122"><ele>517.0</ele><time>2026-04-19T13:53:38Z</time></trkpt><trkpt lat="42.2022115514044" lon="13.65766177708253"><ele>517.0</ele><time>2026-04-19T13:53:39Z</time></trkpt><trkpt lat="42.20230094863897" lon="13.657753884400593"><ele>517.0</ele><time>2026-04-19T13:53:40Z</time></trkpt><trkpt lat="42.202395862295525" lon="13.657853851825598"><ele>520.5</ele><time>2026-04-19T13:53:41Z</time></trkpt><trkpt lat="42.20249178783255" lon="13.657940598132798"><ele>524.0</ele><time>2026-04-19T13:53:42Z</time></trkpt><trkpt lat="42.20258500180181" lon="13.658032689222278"><ele>527.5</ele><time>2026-04-19T13:53:43Z</time></trkpt><trkpt lat="42.20267346578817" lon="13.658125627778416"><ele>531.0</ele><time>2026-04-19T13:53:44Z</time></trkpt><trkpt lat="42.20275850548703" lon="13.658217117588128"><ele>531.0</ele><time>2026-04-19T13:53:45Z</time></trkpt><trkpt lat="42.20285383468795" lon="13.658307417177499"><ele>531.0</ele><time>2026-04-19T13:53:46Z</time></trkpt><trkpt lat="42.202958648644774" lon="13.658379608256318"><ele>531.0</ele><time>2026-04-19T13:53:47Z</time></trkpt><trkpt lat="42.2030715198835" lon="13.658426265448796"><ele>531.0</ele><time>2026-04-19T13:53:48Z</time></trkpt><trkpt lat="42.2031899444692" lon="13.658464163339127"><ele>531.25</ele><time>2026-04-19T13:53:49Z</time></trkpt><trkpt lat="42.203300590228885" lon="13.658507843385788"><ele>531.5</ele><time>2026-04-19T13:53:50Z</time></trkpt><trkpt lat="42.20341262370946" lon="13.65855281058318"><ele>531.75</ele><time>2026-04-19T13:53:51Z</time></trkpt><trkpt lat="42.20353240850553" lon="13.658593390885834"><ele>532.0</ele><time>2026-04-19T13:53:52Z</time></trkpt><trkpt lat="42.203649871298424" lon="13.658638327392561"><ele>535.0</ele><time>2026-04-19T13:53:53Z</time></trkpt><trkpt lat="42.203766108346755" lon="13.658688006747049"><ele>538.0</ele><time>2026-04-19T13:53:54Z</time></trkpt><trkpt lat="42.203883059956425" lon="13.658733666850761"><ele>541.0</ele><time>2026-04-19T13:53:55Z</time></trkpt><trkpt lat="42.20399761319344" lon="13.658774624701664"><ele>544.0</ele><time>2026-04-19T13:53:56Z</time></trkpt><trkpt lat="42.20411381536512" lon="13.658811945464727"><ele>544.0</ele><time>2026-04-19T13:53:57Z</time></trkpt><trkpt lat="42.20423599243936" lon="13.658818808650842"><ele>544.0</ele><time>2026-04-19T13:53:58Z</time></trkpt><trkpt lat="42.20436668505711" lon="13.658787017576016"><ele>544.0</ele><time>2026-04-19T13:53:59Z</time></trkpt><trkpt lat="42.20449706236449" lon="13.658737583884712"><ele>544.0</ele><time>2026-04-19T13:54:00Z</time></trkpt><trkpt lat="42.20463180031445" lon="13.65869344075955"><ele>544.0</ele><time>2026-04-19T13:54:01Z</time></trkpt><trkpt lat="42.204757918896334" lon="13.658659307513037"><ele>544.0</ele><time>2026-04-19T13:54:02Z</time></trkpt><trkpt lat="42.20487911869243" lon="13.658615569243043"><ele>544.0</ele><time>2026-04-19T13:54:03Z</time></trkpt><trkpt lat="42.204993532227505" lon="13.658543490315578"><ele>544.0</ele><time>2026-04-19T13:54:04Z</time></trkpt><trkpt lat="42.20510418552122" lon="13.65843567903445"><ele>544.0</ele><time>2026-04-19T13:54:05Z</time></trkpt><trkpt lat="42.205211550140596" lon="13.658318346647214"><ele>544.0</ele><time>2026-04-19T13:54:06Z</time></trkpt><trkpt lat="42.20531555620439" lon="13.658200632938602"><ele>544.0</ele><time>2026-04-19T13:54:07Z</time></trkpt><trkpt lat="42.20541463374816" lon="13.658097490413148"><ele>544.0</ele><time>2026-04-19T13:54:08Z</time></trkpt><trkpt lat="42.2055068070864" lon="13.657991102596428"><ele>544.0</ele><time>2026-04-19T13:54:09Z</time></trkpt><trkpt lat="42.20558930479372" lon="13.657893515115108"><ele>544.0</ele><time>2026-04-19T13:54:10Z</time></trkpt><trkpt lat="42.20565051270108" lon="13.65776587885162"><ele>544.0</ele><time>2026-04-19T13:54:11Z</time></trkpt><trkpt lat="42.20567651727909" lon="13.65760013060306"><ele>544.0</ele><time>2026-04-19T13:54:12Z</time></trkpt><trkpt lat="42.20566722913916" lon="13.65741721920657"><ele>541.75</ele><time>2026-04-19T13:54:13Z</time></trkpt><trkpt lat="42.20564255278242" lon="13.657228743863783"><ele>539.5</ele><time>2026-04-19T13:54:14Z</time></trkpt><trkpt lat="42.20562444122166" lon="13.657044904577798"><ele>537.25</ele><time>2026-04-19T13:54:15Z</time></trkpt><trkpt lat="42.205613833616695" lon="13.65687088993114"><ele>535.0</ele><time>2026-04-19T13:54:16Z</time></trkpt><trkpt lat="42.20560718250227" lon="13.656703104501174"><ele>534.8</ele><time>2026-04-19T13:54:17Z</time></trkpt><trkpt lat="42.20560037065482" lon="13.656548076028145"><ele>534.6</ele><time>2026-04-19T13:54:18Z</time></trkpt><trkpt lat="42.2055841905498" lon="13.656407209759859"><ele>534.4</ele><time>2026-04-19T13:54:19Z</time></trkpt><trkpt lat="42.20557479810284" lon="13.656287732344135"><ele>534.2</ele><time>2026-04-19T13:54:20Z</time></trkpt><trkpt lat="42.20557315255998" lon="13.656180335844002"><ele>534.0</ele><time>2026-04-19T13:54:21Z</time></trkpt><trkpt lat="42.20556920072304" lon="13.656080549917975"><ele>533.1666666666666</ele><time>2026-04-19T13:54:22Z</time></trkpt><trkpt lat="42.20557442760336" lon="13.65599117439301"><ele>532.3333333333334</ele><time>2026-04-19T13:54:23Z</time></trkpt><trkpt lat="42.20559734524794" lon="13.65590680373829"><ele>531.5</ele><time>2026-04-19T13:54:24Z</time></trkpt><trkpt lat="42.20565512302851" lon="13.655813271275218"><ele>530.6666666666667</ele><time>2026-04-19T13:54:25Z</time></trkpt><trkpt lat="42.20573524024626" lon="13.655733237143863"><ele>529.8333333333334</ele><time>2026-04-19T13:54:26Z</time></trkpt><trkpt lat="42.20582009846649" lon="13.655641850683493"><ele>529.0</ele><time>2026-04-19T13:54:27Z</time></trkpt><trkpt lat="42.20590629520866" lon="13.655532528194101"><ele>530.25</ele><time>2026-04-19T13:54:28Z</time></trkpt><trkpt lat="42.20599873294316" lon="13.655427256010467"><ele>531.5</ele><time>2026-04-19T13:54:29Z</time></trkpt><trkpt lat="42.206098253867054" lon="13.655320004444622"><ele>532.75</ele><time>2026-04-19T13:54:30Z</time></trkpt><trkpt lat="42.206198521406186" lon="13.65525127399562"><ele>534.0</ele><time>2026-04-19T13:54:31Z</time></trkpt><trkpt lat="42.206308671948236" lon="13.655232449682519"><ele>534.0</ele><time>2026-04-19T13:54:32Z</time></trkpt><trkpt lat="42.20642264395576" lon="13.655210338604885"><ele>534.0</ele><time>2026-04-19T13:54:33Z</time></trkpt><trkpt lat="42.20654413967919" lon="13.65518017624291"><ele>534.0</ele><time>2026-04-19T13:54:34Z</time></trkpt><trkpt lat="42.206666313102616" lon="13.655173485182356"><ele>534.0</ele><time>2026-04-19T13:54:35Z</time></trkpt><trkpt lat="42.206791968711386" lon="13.655150835799157"><ele>535.4</ele><time>2026-04-19T13:54:36Z</time></trkpt><trkpt lat="42.206915105528466" lon="13.655113552281595"><ele>536.8</ele><time>2026-04-19T13:54:37Z</time></trkpt><trkpt lat="42.20703431973612" lon="13.655102461327838"><ele>538.2</ele><time>2026-04-19T13:54:38Z</time></trkpt><trkpt lat="42.20714069526458" lon="13.655093588255543"><ele>539.6</ele><time>2026-04-19T13:54:39Z</time></trkpt><trkpt lat="42.20723282294683" lon="13.655091741665462"><ele>541.0</ele><time>2026-04-19T13:54:40Z</time></trkpt><trkpt lat="42.20731653884663" lon="13.655087401299259"><ele>541.8333333333334</ele><time>2026-04-19T13:54:41Z</time></trkpt><trkpt lat="42.20739556354225" lon="13.65507719413229"><ele>542.6666666666667</ele><time>2026-04-19T13:54:42Z</time></trkpt><trkpt lat="42.20747357398977" lon="13.655081625825355"><ele>543.5</ele><time>2026-04-19T13:54:43Z</time></trkpt><trkpt lat="42.20753841589715" lon="13.655149290492401"><ele>544.3333333333334</ele><time>2026-04-19T13:54:44Z</time></trkpt><trkpt lat="42.20759451736711" lon="13.65521183432034"><ele>545.1666666666666</ele><time>2026-04-19T13:54:45Z</time></trkpt><trkpt lat="42.20763033047159" lon="13.655307415732645"><ele>546.0</ele><time>2026-04-19T13:54:46Z</time></trkpt><trkpt lat="42.207633734317845" lon="13.65541645451526"><ele>547.6</ele><time>2026-04-19T13:54:47Z</time></trkpt><trkpt lat="42.2076220036978" lon="13.655540040151292"><ele>549.2</ele><time>2026-04-19T13:54:48Z</time></trkpt><trkpt lat="42.20758239617053" lon="13.655648755058126"><ele>550.8</ele><time>2026-04-19T13:54:49Z</time></trkpt><trkpt lat="42.207506793407184" lon="13.655717067165964"><ele>552.4</ele><time>2026-04-19T13:54:50Z</time></trkpt><trkpt lat="42.20741343498476" lon="13.655764918860065"><ele>554.0</ele><time>2026-04-19T13:54:51Z</time></trkpt><trkpt lat="42.20731205859638" lon="13.655819289224748"><ele>554.0</ele><time>2026-04-19T13:54:52Z</time></trkpt><trkpt lat="42.207208225114094" lon="13.655871120746927"><ele>554.0</ele><time>2026-04-19T13:54:53Z</time></trkpt><trkpt lat="42.207108792603684" lon="13.65592869809209"><ele>554.0</ele><time>2026-04-19T13:54:54Z</time></trkpt><trkpt lat="42.20701920668647" lon="13.656037632708777"><ele>554.0</ele><time>2026-04-19T13:54:55Z</time></trkpt><trkpt lat="42.206937128778264" lon="13.656132065509327"><ele>554.0</ele><time>2026-04-19T13:54:56Z</time></trkpt><trkpt lat="42.20685978403558" lon="13.656242203206137"><ele>556.0</ele><time>2026-04-19T13:54:57Z</time></trkpt><trkpt lat="42.206789756057475" lon="13.65636883662249"><ele>558.0</ele><time>2026-04-19T13:54:58Z</time></trkpt><trkpt lat="42.20670649262903" lon="13.656483652774645"><ele>560.0</ele><time>2026-04-19T13:54:59Z</time></trkpt><trkpt lat="42.20663931785648" lon="13.656616505307385"><ele>562.0</ele><time>2026-04-19T13:55:00Z</time></trkpt><trkpt lat="42.20657822272895" lon="13.656731975209505"><ele>562.0</ele><time>2026-04-19T13:55:01Z</time></trkpt><trkpt lat="42.20653998259908" lon="13.656868295981647"><ele>562.0</ele><time>2026-04-19T13:55:02Z</time></trkpt><trkpt lat="42.20651004801539" lon="13.657025557096983"><ele>562.0</ele><time>2026-04-19T13:55:03Z</time></trkpt><trkpt lat="42.206541020800685" lon="13.657192911627652"><ele>562.0</ele><time>2026-04-19T13:55:04Z</time></trkpt><trkpt lat="42.206560022347766" lon="13.65736187384001"><ele>561.75</ele><time>2026-04-19T13:55:05Z</time></trkpt><trkpt lat="42.20654723047572" lon="13.65751422542097"><ele>561.5</ele><time>2026-04-19T13:55:06Z</time></trkpt><trkpt lat="42.20653228916064" lon="13.657672295153512"><ele>561.25</ele><time>2026-04-19T13:55:07Z</time></trkpt><trkpt lat="42.20648724598909" lon="13.657814013382382"><ele>561.0</ele><time>2026-04-19T13:55:08Z</time></trkpt><trkpt lat="42.20643438889194" lon="13.657948000381886"><ele>561.0</ele><time>2026-04-19T13:55:09Z</time></trkpt><trkpt lat="42.20638248046129" lon="13.658101029476029"><ele>561.0</ele><time>2026-04-19T13:55:10Z</time></trkpt><trkpt lat="42.20629764409546" lon="13.658221051622895"><ele>561.0</ele><time>2026-04-19T13:55:11Z</time></trkpt><trkpt lat="42.20623579137279" lon="13.65836004952297"><ele>561.0</ele><time>2026-04-19T13:55:12Z</time></trkpt><trkpt lat="42.20615986395106" lon="13.658484503134048"><ele>561.0</ele><time>2026-04-19T13:55:13Z</time></trkpt><trkpt lat="42.20608631391042" lon="13.658609817027093"><ele>561.0</ele><time>2026-04-19T13:55:14Z</time></trkpt><trkpt lat="42.206016702307565" lon="13.658740687012127"><ele>561.0</ele><time>2026-04-19T13:55:15Z</time></trkpt><trkpt lat="42.2059422762294" lon="13.658867048745325"><ele>561.0</ele><time>2026-04-19T13:55:16Z</time></trkpt><trkpt lat="42.20587292720094" lon="13.658994352709072"><ele>561.8</ele><time>2026-04-19T13:55:17Z</time></trkpt><trkpt lat="42.20579801854691" lon="13.65911615811946"><ele>562.6</ele><time>2026-04-19T13:55:18Z</time></trkpt><trkpt lat="42.20572661643003" lon="13.659235732517953"><ele>563.4</ele><time>2026-04-19T13:55:19Z</time></trkpt><trkpt lat="42.20565813190009" lon="13.659353546504708"><ele>564.2</ele><time>2026-04-19T13:55:20Z</time></trkpt><trkpt lat="42.20560073505716" lon="13.659450654861127"><ele>565.0</ele><time>2026-04-19T13:55:21Z</time></trkpt><trkpt lat="42.205537093552316" lon="13.659551083725795"><ele>565.0</ele><time>2026-04-19T13:55:22Z</time></trkpt><trkpt lat="42.205503868303204" lon="13.659695341754169"><ele>565.0</ele><time>2026-04-19T13:55:23Z</time></trkpt><trkpt lat="42.20548201922076" lon="13.659857141196483"><ele>565.0</ele><time>2026-04-19T13:55:24Z</time></trkpt><trkpt lat="42.20548421539701" lon="13.660033052174755"><ele>565.0</ele><time>2026-04-19T13:55:25Z</time></trkpt><trkpt lat="42.205496461558795" lon="13.66018566004458"><ele>567.0</ele><time>2026-04-19T13:55:26Z</time></trkpt><trkpt lat="42.20550314806238" lon="13.660309343070367"><ele>569.0</ele><time>2026-04-19T13:55:27Z</time></trkpt><trkpt lat="42.2055086247671" lon="13.660413369479272"><ele>571.0</ele><time>2026-04-19T13:55:28Z</time></trkpt><trkpt lat="42.20554569998697" lon="13.660493062138451"><ele>573.0</ele><time>2026-04-19T13:55:29Z</time></trkpt><trkpt lat="42.205622435194634" lon="13.660532775154625"><ele>575.0</ele><time>2026-04-19T13:55:30Z</time></trkpt><trkpt lat="42.20570794793528" lon="13.660490555833304"><ele>577.0</ele><time>2026-04-19T13:55:31Z</time></trkpt><trkpt lat="42.20577151281302" lon="13.660377082423361"><ele>577.8000000000001</ele><time>2026-04-19T13:55:32Z</time></trkpt><trkpt lat="42.20580370362223" lon="13.66023220329548"><ele>578.6</ele><time>2026-04-19T13:55:33Z</time></trkpt><trkpt lat="42.20582674012777" lon="13.660087285311256"><ele>579.4000000000001</ele><time>2026-04-19T13:55:34Z</time></trkpt><trkpt lat="42.20586215552922" lon="13.659944046099087"><ele>580.2</ele><time>2026-04-19T13:55:35Z</time></trkpt><trkpt lat="42.20591533578205" lon="13.659817557731245"><ele>581.0</ele><time>2026-04-19T13:55:36Z</time></trkpt><trkpt lat="42.20600153000711" lon="13.659718874574395"><ele>581.0</ele><time>2026-04-19T13:55:37Z</time></trkpt><trkpt lat="42.20611655950698" lon="13.659635335896795"><ele>581.0</ele><time>2026-04-19T13:55:38Z</time></trkpt><trkpt lat="42.20624008013214" lon="13.659546544599708"><ele>581.0</ele><time>2026-04-19T13:55:39Z</time></trkpt><trkpt lat="42.20636552131512" lon="13.65944963507361"><ele>581.0</ele><time>2026-04-19T13:55:40Z</time></trkpt><trkpt lat="42.20649535463962" lon="13.659340547089496"><ele>583.0</ele><time>2026-04-19T13:55:41Z</time></trkpt><trkpt lat="42.206624881780115" lon="13.659231076904879"><ele>585.0</ele><time>2026-04-19T13:55:42Z</time></trkpt><trkpt lat="42.20675580272213" lon="13.659133419790566"><ele>587.0</ele><time>2026-04-19T13:55:43Z</time></trkpt><trkpt lat="42.20688898407528" lon="13.659029650719836"><ele>587.0</ele><time>2026-04-19T13:55:44Z</time></trkpt><trkpt lat="42.2070078411887" lon="13.658933944064234"><ele>587.0</ele><time>2026-04-19T13:55:45Z</time></trkpt><trkpt lat="42.20711851534606" lon="13.658846917221245"><ele>587.0</ele><time>2026-04-19T13:55:46Z</time></trkpt><trkpt lat="42.2072204799962" lon="13.658766713170767"><ele>587.0</ele><time>2026-04-19T13:55:47Z</time></trkpt><trkpt lat="42.20732534593245" lon="13.658675916120474"><ele>588.5</ele><time>2026-04-19T13:55:48Z</time></trkpt><trkpt lat="42.207432673217504" lon="13.658590999730027"><ele>590.0</ele><time>2026-04-19T13:55:49Z</time></trkpt><trkpt lat="42.20754225204331" lon="13.658517821670534"><ele>591.5</ele><time>2026-04-19T13:55:50Z</time></trkpt><trkpt lat="42.20764920017874" lon="13.658433681750422"><ele>593.0</ele><time>2026-04-19T13:55:51Z</time></trkpt><trkpt lat="42.20774446780998" lon="13.658338689655197"><ele>593.0</ele><time>2026-04-19T13:55:52Z</time></trkpt><trkpt lat="42.20781886262881" lon="13.65823408527443"><ele>593.0</ele><time>2026-04-19T13:55:53Z</time></trkpt><trkpt lat="42.20787273755155" lon="13.658127463766485"><ele>593.0</ele><time>2026-04-19T13:55:54Z</time></trkpt><trkpt lat="42.20791186434066" lon="13.658052629716783"><ele>593.0</ele><time>2026-04-19T13:55:55Z</time></trkpt><trkpt lat="42.207961647847505" lon="13.657969804962148"><ele>593.0</ele><time>2026-04-19T13:55:57Z</time></trkpt><trkpt lat="42.207994923990434" lon="13.657896673735097"><ele>593.0</ele><time>2026-04-19T13:56:52Z</time></trkpt><trkpt lat="42.2080458866549" lon="13.657788005122468"><ele>593.0</ele><time>2026-04-19T13:56:54Z</time></trkpt><trkpt lat="42.20809168222975" lon="13.657718903286648"><ele>593.0</ele><time>2026-04-19T13:56:56Z</time></trkpt><trkpt lat="42.20816293417828" lon="13.657695702479824"><ele>593.0</ele><time>2026-04-19T13:56:59Z</time></trkpt><trkpt lat="42.20810724668714" lon="13.657861697590517"><ele>593.0</ele><time>2026-04-19T13:57:10Z</time></trkpt><trkpt lat="42.2080713389638" lon="13.657943550782356"><ele>593.0</ele><time>2026-04-19T13:57:11Z</time></trkpt><trkpt lat="42.20803693100343" lon="13.658028849452192"><ele>593.0</ele><time>2026-04-19T13:57:12Z</time></trkpt><trkpt lat="42.207992601729856" lon="13.658165419732704"><ele>593.0</ele><time>2026-04-19T13:57:13Z</time></trkpt><trkpt lat="42.20793211730267" lon="13.65834313705107"><ele>593.0</ele><time>2026-04-19T13:57:14Z</time></trkpt><trkpt lat="42.207848614021955" lon="13.658551003269121"><ele>593.0</ele><time>2026-04-19T13:57:15Z</time></trkpt><trkpt lat="42.20774183470854" lon="13.658754361273651"><ele>598.0</ele><time>2026-04-19T13:57:16Z</time></trkpt><trkpt lat="42.207627093665614" lon="13.659018938295363"><ele>603.0</ele><time>2026-04-19T13:57:17Z</time></trkpt><trkpt lat="42.20751324853688" lon="13.659235432322038"><ele>608.0</ele><time>2026-04-19T13:57:18Z</time></trkpt><trkpt lat="42.20741943600694" lon="13.659428133735352"><ele>604.6666666666666</ele><time>2026-04-19T13:57:19Z</time></trkpt><trkpt lat="42.207318789387095" lon="13.659594898236978"><ele>601.3333333333334</ele><time>2026-04-19T13:57:20Z</time></trkpt><trkpt lat="42.20725633207556" lon="13.659784230462034"><ele>598.0</ele><time>2026-04-19T13:57:21Z</time></trkpt><trkpt lat="42.20720495935947" lon="13.659980265900003"><ele>598.0</ele><time>2026-04-19T13:57:22Z</time></trkpt><trkpt lat="42.207142864271546" lon="13.660161050814859"><ele>598.0</ele><time>2026-04-19T13:57:23Z</time></trkpt><trkpt lat="42.2070573101594" lon="13.660318759862871"><ele>598.0</ele><time>2026-04-19T13:57:24Z</time></trkpt><trkpt lat="42.2069598300237" lon="13.660484777844184"><ele>598.0</ele><time>2026-04-19T13:57:25Z</time></trkpt><trkpt lat="42.20683369130155" lon="13.660597676836899"><ele>599.75</ele><time>2026-04-19T13:57:26Z</time></trkpt><trkpt lat="42.20671866742337" lon="13.660721940973112"><ele>601.5</ele><time>2026-04-19T13:57:27Z</time></trkpt><trkpt lat="42.20673774451103" lon="13.660835665745878"><ele>603.25</ele><time>2026-04-19T13:57:28Z</time></trkpt><trkpt lat="42.20667357342481" lon="13.660967681382902"><ele>605.0</ele><time>2026-04-19T13:57:29Z</time></trkpt><trkpt lat="42.20663097060981" lon="13.661132601438986"><ele>606.5</ele><time>2026-04-19T13:57:30Z</time></trkpt><trkpt lat="42.20661877004273" lon="13.661325268503157"><ele>608.0</ele><time>2026-04-19T13:57:31Z</time></trkpt><trkpt lat="42.206631800701636" lon="13.661529446236093"><ele>609.5</ele><time>2026-04-19T13:57:32Z</time></trkpt><trkpt lat="42.20665353909931" lon="13.661721172983523"><ele>611.0</ele><time>2026-04-19T13:57:33Z</time></trkpt><trkpt lat="42.20668376003442" lon="13.661880346653486"><ele>612.0</ele><time>2026-04-19T13:57:34Z</time></trkpt><trkpt lat="42.206714268210106" lon="13.66202001358115"><ele>613.0</ele><time>2026-04-19T13:57:35Z</time></trkpt><trkpt lat="42.20671870076286" lon="13.662144445792107"><ele>614.0</ele><time>2026-04-19T13:57:36Z</time></trkpt><trkpt lat="42.206722933815506" lon="13.662251731070299"><ele>615.0</ele><time>2026-04-19T13:57:37Z</time></trkpt><trkpt lat="42.20669534266714" lon="13.662347658433239"><ele>616.0</ele><time>2026-04-19T13:57:38Z</time></trkpt><trkpt lat="42.2066465359016" lon="13.662404481501758"><ele>617.0</ele><time>2026-04-19T13:57:39Z</time></trkpt><trkpt lat="42.20651958268936" lon="13.662402483901555"><ele>615.0</ele><time>2026-04-19T13:57:41Z</time></trkpt><trkpt lat="42.20640867938037" lon="13.662415682129833"><ele>613.0</ele><time>2026-04-19T13:57:42Z</time></trkpt><trkpt lat="42.206278919591554" lon="13.662399078999318"><ele>611.0</ele><time>2026-04-19T13:57:43Z</time></trkpt><trkpt lat="42.20612654910363" lon="13.66241035265477"><ele>609.0</ele><time>2026-04-19T13:57:44Z</time></trkpt><trkpt lat="42.205976751191436" lon="13.662476450079788"><ele>609.0</ele><time>2026-04-19T13:57:45Z</time></trkpt><trkpt lat="42.20582460871368" lon="13.662567932802123"><ele>609.0</ele><time>2026-04-19T13:57:46Z</time></trkpt><trkpt lat="42.205684712560576" lon="13.662665696845652"><ele>609.0</ele><time>2026-04-19T13:57:47Z</time></trkpt><trkpt lat="42.20555014979239" lon="13.662773735290001"><ele>609.5</ele><time>2026-04-19T13:57:48Z</time></trkpt><trkpt lat="42.20543311639801" lon="13.66289579289903"><ele>610.0</ele><time>2026-04-19T13:57:49Z</time></trkpt><trkpt lat="42.205331229858636" lon="13.663029567700159"><ele>610.5</ele><time>2026-04-19T13:57:50Z</time></trkpt><trkpt lat="42.20523360881704" lon="13.663196656782358"><ele>611.0</ele><time>2026-04-19T13:57:51Z</time></trkpt><trkpt lat="42.20515382333837" lon="13.663389200340832"><ele>611.0</ele><time>2026-04-19T13:57:52Z</time></trkpt><trkpt lat="42.20507965735099" lon="13.663602305980628"><ele>611.0</ele><time>2026-04-19T13:57:53Z</time></trkpt><trkpt lat="42.20496939216887" lon="13.663769599097424"><ele>611.0</ele><time>2026-04-19T13:57:54Z</time></trkpt><trkpt lat="42.20484199398684" lon="13.663934766611874"><ele>610.6666666666666</ele><time>2026-04-19T13:57:55Z</time></trkpt><trkpt lat="42.204706030734634" lon="13.66410686454713"><ele>610.3333333333334</ele><time>2026-04-19T13:57:56Z</time></trkpt><trkpt lat="42.2045811385399" lon="13.664265056406347"><ele>610.0</ele><time>2026-04-19T13:57:57Z</time></trkpt><trkpt lat="42.20446365462975" lon="13.664413877178719"><ele>615.3333333333334</ele><time>2026-04-19T13:57:58Z</time></trkpt><trkpt lat="42.20434842873308" lon="13.664559837654739"><ele>620.6666666666666</ele><time>2026-04-19T13:57:59Z</time></trkpt><trkpt lat="42.20423471140783" lon="13.664703887280956"><ele>626.0</ele><time>2026-04-19T13:58:00Z</time></trkpt><trkpt lat="42.20412200782333" lon="13.664846652716347"><ele>626.0</ele><time>2026-04-19T13:58:01Z</time></trkpt><trkpt lat="42.20401378629068" lon="13.66498172687202"><ele>626.0</ele><time>2026-04-19T13:58:02Z</time></trkpt><trkpt lat="42.20390379576602" lon="13.665117719681149"><ele>626.0</ele><time>2026-04-19T13:58:03Z</time></trkpt><trkpt lat="42.203794661322114" lon="13.665251671495577"><ele>626.0</ele><time>2026-04-19T13:58:04Z</time></trkpt><trkpt lat="42.203686777689946" lon="13.665382867878433"><ele>625.25</ele><time>2026-04-19T13:58:05Z</time></trkpt><trkpt lat="42.203580984828" lon="13.66551085800838"><ele>624.5</ele><time>2026-04-19T13:58:06Z</time></trkpt><trkpt lat="42.203488373243964" lon="13.665650967160758"><ele>623.75</ele><time>2026-04-19T13:58:07Z</time></trkpt><trkpt lat="42.20338678683933" lon="13.665745119958912"><ele>623.0</ele><time>2026-04-19T13:58:08Z</time></trkpt><trkpt lat="42.20330601427345" lon="13.665839084807724"><ele>623.0</ele><time>2026-04-19T13:58:09Z</time></trkpt><trkpt lat="42.20323228267815" lon="13.665924913396578"><ele>623.0</ele><time>2026-04-19T13:58:10Z</time></trkpt><trkpt lat="42.203163480521475" lon="13.666014902804928"><ele>623.0</ele><time>2026-04-19T13:58:11Z</time></trkpt><trkpt lat="42.20310065460878" lon="13.666119968054796"><ele>623.0</ele><time>2026-04-19T13:58:12Z</time></trkpt><trkpt lat="42.20303637037328" lon="13.666233473359965"><ele>623.0</ele><time>2026-04-19T13:58:13Z</time></trkpt><trkpt lat="42.20297147782493" lon="13.66634594445433"><ele>622.4</ele><time>2026-04-19T13:58:14Z</time></trkpt><trkpt lat="42.20290406505912" lon="13.666438900437338"><ele>621.8</ele><time>2026-04-19T13:58:15Z</time></trkpt><trkpt lat="42.202820403274195" lon="13.666516214285608"><ele>621.2</ele><time>2026-04-19T13:58:16Z</time></trkpt><trkpt lat="42.202738770367525" lon="13.66658715150912"><ele>620.6</ele><time>2026-04-19T13:58:17Z</time></trkpt><trkpt lat="42.20267421067651" lon="13.666673054584512"><ele>620.0</ele><time>2026-04-19T13:58:18Z</time></trkpt><trkpt lat="42.20262665618191" lon="13.666791477462466"><ele>620.0</ele><time>2026-04-19T13:58:19Z</time></trkpt><trkpt lat="42.20255696139012" lon="13.666931790476623"><ele>620.0</ele><time>2026-04-19T13:58:20Z</time></trkpt><trkpt lat="42.20247436952401" lon="13.6670720937389"><ele>620.0</ele><time>2026-04-19T13:58:21Z</time></trkpt><trkpt lat="42.20239312336965" lon="13.667205568241561"><ele>620.0</ele><time>2026-04-19T13:58:22Z</time></trkpt><trkpt lat="42.20229923670154" lon="13.667323285700112"><ele>622.0</ele><time>2026-04-19T13:58:23Z</time></trkpt><trkpt lat="42.202180303695634" lon="13.667419621591208"><ele>624.0</ele><time>2026-04-19T13:58:24Z</time></trkpt><trkpt lat="42.20203727644952" lon="13.667497623119091"><ele>626.0</ele><time>2026-04-19T13:58:25Z</time></trkpt><trkpt lat="42.20188299204615" lon="13.667537882676058"><ele>626.0</ele><time>2026-04-19T13:58:26Z</time></trkpt><trkpt lat="42.201735963109535" lon="13.667625213912988"><ele>626.0</ele><time>2026-04-19T13:58:27Z</time></trkpt><trkpt lat="42.20159439270763" lon="13.667677480112046"><ele>626.0</ele><time>2026-04-19T13:58:28Z</time></trkpt><trkpt lat="42.20145580749409" lon="13.667721474010571"><ele>626.25</ele><time>2026-04-19T13:58:29Z</time></trkpt><trkpt lat="42.20132698411345" lon="13.667758888818605"><ele>626.5</ele><time>2026-04-19T13:58:30Z</time></trkpt><trkpt lat="42.201206772087744" lon="13.66779139468349"><ele>626.75</ele><time>2026-04-19T13:58:31Z</time></trkpt><trkpt lat="42.20109933102361" lon="13.667815160260773"><ele>627.0</ele><time>2026-04-19T13:58:32Z</time></trkpt><trkpt lat="42.20100382757674" lon="13.667847050359192"><ele>628.4</ele><time>2026-04-19T13:58:33Z</time></trkpt><trkpt lat="42.2009093475154" lon="13.667882840784571"><ele>629.8000000000001</ele><time>2026-04-19T13:58:34Z</time></trkpt><trkpt lat="42.20080905271014" lon="13.667942833026236"><ele>631.2</ele><time>2026-04-19T13:58:35Z</time></trkpt><trkpt lat="42.20071176502829" lon="13.667993150042193"><ele>632.6</ele><time>2026-04-19T13:58:36Z</time></trkpt><trkpt lat="42.2006225581447" lon="13.668080084490338"><ele>634.0</ele><time>2026-04-19T13:58:37Z</time></trkpt><trkpt lat="42.20055828306579" lon="13.668246842562281"><ele>633.0</ele><time>2026-04-19T13:58:38Z</time></trkpt><trkpt lat="42.200489403681374" lon="13.668399225996533"><ele>632.0</ele><time>2026-04-19T13:58:39Z</time></trkpt><trkpt lat="42.2004337915509" lon="13.668577193567408"><ele>631.0</ele><time>2026-04-19T13:58:40Z</time></trkpt><trkpt lat="42.20035679480096" lon="13.668755063612313"><ele>630.0</ele><time>2026-04-19T13:58:41Z</time></trkpt><trkpt lat="42.200289763457306" lon="13.66893832525855"><ele>630.0</ele><time>2026-04-19T13:58:42Z</time></trkpt><trkpt lat="42.20021771151264" lon="13.669118532043475"><ele>630.0</ele><time>2026-04-19T13:58:43Z</time></trkpt><trkpt lat="42.200120616172896" lon="13.6692515028732"><ele>630.0</ele><time>2026-04-19T13:58:44Z</time></trkpt><trkpt lat="42.20001355845297" lon="13.66936773963331"><ele>630.0</ele><time>2026-04-19T13:58:45Z</time></trkpt><trkpt lat="42.19990675454139" lon="13.66948528994498"><ele>626.6666666666666</ele><time>2026-04-19T13:58:46Z</time></trkpt><trkpt lat="42.19979559070685" lon="13.669610977857573"><ele>623.3333333333333</ele><time>2026-04-19T13:58:47Z</time></trkpt><trkpt lat="42.19969380044833" lon="13.669761042844783"><ele>620.0</ele><time>2026-04-19T13:58:48Z</time></trkpt><trkpt lat="42.19958073858171" lon="13.669903078963015"><ele>620.0</ele><time>2026-04-19T13:58:49Z</time></trkpt><trkpt lat="42.19947717265847" lon="13.670060831818331"><ele>620.0</ele><time>2026-04-19T13:58:50Z</time></trkpt><trkpt lat="42.19937263377531" lon="13.670235474183547"><ele>620.0</ele><time>2026-04-19T13:58:51Z</time></trkpt><trkpt lat="42.19930073866172" lon="13.670442906644327"><ele>624.6666666666666</ele><time>2026-04-19T13:58:52Z</time></trkpt><trkpt lat="42.19923075689813" lon="13.670659837524191"><ele>629.3333333333334</ele><time>2026-04-19T13:58:53Z</time></trkpt><trkpt lat="42.19914565673242" lon="13.67084819477974"><ele>634.0</ele><time>2026-04-19T13:58:54Z</time></trkpt><trkpt lat="42.199040493630825" lon="13.670987404869086"><ele>629.6666666666667</ele><time>2026-04-19T13:58:55Z</time></trkpt><trkpt lat="42.19891801757694" lon="13.67110262182079"><ele>625.3333333333334</ele><time>2026-04-19T13:58:56Z</time></trkpt><trkpt lat="42.19879862716927" lon="13.67124698919245"><ele>621.0</ele><time>2026-04-19T13:58:57Z</time></trkpt><trkpt lat="42.19872469789273" lon="13.671409368045808"><ele>621.0</ele><time>2026-04-19T13:58:58Z</time></trkpt><trkpt lat="42.198674861117226" lon="13.671591213496594"><ele>621.0</ele><time>2026-04-19T13:58:59Z</time></trkpt><trkpt lat="42.19865790735871" lon="13.671782462271016"><ele>621.0</ele><time>2026-04-19T13:59:00Z</time></trkpt><trkpt lat="42.19867369879914" lon="13.671954609769115"><ele>621.0</ele><time>2026-04-19T13:59:01Z</time></trkpt><trkpt lat="42.198683506502135" lon="13.67210570656278"><ele>624.2</ele><time>2026-04-19T13:59:02Z</time></trkpt><trkpt lat="42.19870101955455" lon="13.672226434187994"><ele>627.4000000000001</ele><time>2026-04-19T13:59:03Z</time></trkpt><trkpt lat="42.19869344078023" lon="13.672319836656733"><ele>630.6</ele><time>2026-04-19T13:59:04Z</time></trkpt><trkpt lat="42.19861891827035" lon="13.67238850649775"><ele>633.8000000000001</ele><time>2026-04-19T13:59:05Z</time></trkpt><trkpt lat="42.198523463635865" lon="13.672436301645307"><ele>637.0</ele><time>2026-04-19T13:59:06Z</time></trkpt><trkpt lat="42.198399516886674" lon="13.672465006357987"><ele>637.0</ele><time>2026-04-19T13:59:07Z</time></trkpt><trkpt lat="42.198257718066564" lon="13.672452507728535"><ele>637.0</ele><time>2026-04-19T13:59:08Z</time></trkpt><trkpt lat="42.19810053743813" lon="13.672430435501745"><ele>637.0</ele><time>2026-04-19T13:59:09Z</time></trkpt><trkpt lat="42.197957776846785" lon="13.672362419117992"><ele>635.5</ele><time>2026-04-19T13:59:10Z</time></trkpt><trkpt lat="42.19784955865641" lon="13.672305472041371"><ele>634.0</ele><time>2026-04-19T13:59:11Z</time></trkpt><trkpt lat="42.19774913040822" lon="13.672273926180823"><ele>632.5</ele><time>2026-04-19T13:59:12Z</time></trkpt><trkpt lat="42.1976371744713" lon="13.672294865317532"><ele>631.0</ele><time>2026-04-19T13:59:13Z</time></trkpt><trkpt lat="42.19749972192824" lon="13.672355207819253"><ele>631.0</ele><time>2026-04-19T13:59:14Z</time></trkpt><trkpt lat="42.197384955789396" lon="13.672456880243612"><ele>631.0</ele><time>2026-04-19T13:59:15Z</time></trkpt><trkpt lat="42.1973081141447" lon="13.672576796560636"><ele>631.0</ele><time>2026-04-19T13:59:16Z</time></trkpt><trkpt lat="42.19722775791356" lon="13.67272837174557"><ele>631.0</ele><time>2026-04-19T13:59:17Z</time></trkpt><trkpt lat="42.197161293932915" lon="13.672955727553829"><ele>629.6666666666667</ele><time>2026-04-19T13:59:18Z</time></trkpt><trkpt lat="42.19709411649574" lon="13.673183449931134"><ele>628.3333333333334</ele><time>2026-04-19T13:59:19Z</time></trkpt><trkpt lat="42.19700346595372" lon="13.67338218580381"><ele>627.0</ele><time>2026-04-19T13:59:20Z</time></trkpt><trkpt lat="42.19688822015746" lon="13.67358518394939"><ele>630.0</ele><time>2026-04-19T13:59:21Z</time></trkpt><trkpt lat="42.19675682280228" lon="13.673809735877544"><ele>633.0</ele><time>2026-04-19T13:59:22Z</time></trkpt><trkpt lat="42.196622466156406" lon="13.674034242405696"><ele>636.0</ele><time>2026-04-19T13:59:23Z</time></trkpt><trkpt lat="42.196510355055416" lon="13.674223708523725"><ele>637.0</ele><time>2026-04-19T13:59:24Z</time></trkpt><trkpt lat="42.19639713535339" lon="13.67441708549942"><ele>638.0</ele><time>2026-04-19T13:59:25Z</time></trkpt><trkpt lat="42.19629280496799" lon="13.67459382963334"><ele>639.0</ele><time>2026-04-19T13:59:26Z</time></trkpt><trkpt lat="42.196192382410025" lon="13.67475856191607"><ele>639.0</ele><time>2026-04-19T13:59:27Z</time></trkpt><trkpt lat="42.19610284935849" lon="13.67492415904969"><ele>639.0</ele><time>2026-04-19T13:59:28Z</time></trkpt><trkpt lat="42.19595859316084" lon="13.67505290288775"><ele>639.0</ele><time>2026-04-19T13:59:29Z</time></trkpt><trkpt lat="42.195814214597306" lon="13.675185741990614"><ele>639.3333333333334</ele><time>2026-04-19T13:59:30Z</time></trkpt><trkpt lat="42.19566590753812" lon="13.675310328993376"><ele>639.6666666666667</ele><time>2026-04-19T13:59:31Z</time></trkpt><trkpt lat="42.195536352089135" lon="13.675440146417687"><ele>640.0</ele><time>2026-04-19T13:59:32Z</time></trkpt><trkpt lat="42.19541825962891" lon="13.67553027167915"><ele>640.0</ele><time>2026-04-19T13:59:33Z</time></trkpt><trkpt lat="42.195313777200745" lon="13.675629127150955"><ele>640.0</ele><time>2026-04-19T13:59:34Z</time></trkpt><trkpt lat="42.19521404835128" lon="13.675744493675156"><ele>640.0</ele><time>2026-04-19T13:59:35Z</time></trkpt><trkpt lat="42.1951227176285" lon="13.675889226430003"><ele>640.0</ele><time>2026-04-19T13:59:36Z</time></trkpt><trkpt lat="42.19504315600046" lon="13.676070781588177"><ele>639.0</ele><time>2026-04-19T13:59:37Z</time></trkpt><trkpt lat="42.19495004941634" lon="13.67625124146624"><ele>638.0</ele><time>2026-04-19T13:59:38Z</time></trkpt><trkpt lat="42.19486601917607" lon="13.676444290603422"><ele>637.0</ele><time>2026-04-19T13:59:39Z</time></trkpt><trkpt lat="42.19478042855061" lon="13.676645676837676"><ele>637.0</ele><time>2026-04-19T13:59:40Z</time></trkpt><trkpt lat="42.1947041706865" lon="13.676859132750273"><ele>637.0</ele><time>2026-04-19T13:59:41Z</time></trkpt><trkpt lat="42.19459635707945" lon="13.677030398359491"><ele>637.0</ele><time>2026-04-19T13:59:42Z</time></trkpt><trkpt lat="42.194494677011285" lon="13.677204594161756"><ele>639.0</ele><time>2026-04-19T13:59:43Z</time></trkpt><trkpt lat="42.19438517518837" lon="13.677380674205008"><ele>641.0</ele><time>2026-04-19T13:59:44Z</time></trkpt><trkpt lat="42.194270943488974" lon="13.677561247152697"><ele>643.0</ele><time>2026-04-19T13:59:45Z</time></trkpt><trkpt lat="42.194155504124744" lon="13.677743940485929"><ele>641.6666666666667</ele><time>2026-04-19T13:59:46Z</time></trkpt><trkpt lat="42.194054841947064" lon="13.677929938152905"><ele>640.3333333333334</ele><time>2026-04-19T13:59:47Z</time></trkpt><trkpt lat="42.19393558959645" lon="13.678081051622813"><ele>639.0</ele><time>2026-04-19T13:59:48Z</time></trkpt><trkpt lat="42.19383248659258" lon="13.67823816235988"><ele>639.0</ele><time>2026-04-19T13:59:49Z</time></trkpt><trkpt lat="42.19373400618939" lon="13.67838822905995"><ele>639.0</ele><time>2026-04-19T13:59:50Z</time></trkpt><trkpt lat="42.193638289089726" lon="13.678533604840446"><ele>639.0</ele><time>2026-04-19T13:59:51Z</time></trkpt><trkpt lat="42.193545830767356" lon="13.67867223791656"><ele>639.0</ele><time>2026-04-19T13:59:52Z</time></trkpt><trkpt lat="42.19345745911825" lon="13.678804412166645"><ele>638.5</ele><time>2026-04-19T13:59:53Z</time></trkpt><trkpt lat="42.19337036645022" lon="13.678934056135233"><ele>638.0</ele><time>2026-04-19T13:59:54Z</time></trkpt><trkpt lat="42.19328038314051" lon="13.679069112871339"><ele>637.5</ele><time>2026-04-19T13:59:55Z</time></trkpt><trkpt lat="42.19319728301423" lon="13.679199093665265"><ele>637.0</ele><time>2026-04-19T13:59:56Z</time></trkpt><trkpt lat="42.193127389431474" lon="13.679314750950054"><ele>637.2</ele><time>2026-04-19T13:59:57Z</time></trkpt><trkpt lat="42.193073375924826" lon="13.679438112206432"><ele>637.4000000000001</ele><time>2026-04-19T13:59:58Z</time></trkpt><trkpt lat="42.193017212490105" lon="13.67957554449592"><ele>637.5999999999999</ele><time>2026-04-19T13:59:59Z</time></trkpt><trkpt lat="42.19296470088451" lon="13.679715137644667"><ele>637.8</ele><time>2026-04-19T14:00:00Z</time></trkpt><trkpt lat="42.192926630450785" lon="13.679851725470224"><ele>638.0</ele><time>2026-04-19T14:00:01Z</time></trkpt><trkpt lat="42.19288869810238" lon="13.67997574754358"><ele>638.0</ele><time>2026-04-19T14:00:02Z</time></trkpt><trkpt lat="42.192829061258514" lon="13.680060968000967"><ele>638.0</ele><time>2026-04-19T14:00:03Z</time></trkpt><trkpt lat="42.19274089303966" lon="13.680126912353815"><ele>638.0</ele><time>2026-04-19T14:00:04Z</time></trkpt><trkpt lat="42.192633232030694" lon="13.680194821223642"><ele>638.0</ele><time>2026-04-19T14:00:05Z</time></trkpt><trkpt lat="42.19251663877002" lon="13.680291064424425"><ele>638.0</ele><time>2026-04-19T14:00:06Z</time></trkpt><trkpt lat="42.19238950728099" lon="13.680368462356927"><ele>636.6666666666666</ele><time>2026-04-19T14:00:07Z</time></trkpt><trkpt lat="42.19226363288702" lon="13.680467477718912"><ele>635.3333333333334</ele><time>2026-04-19T14:00:08Z</time></trkpt><trkpt lat="42.192149165376456" lon="13.680594342236676"><ele>634.0</ele><time>2026-04-19T14:00:09Z</time></trkpt><trkpt lat="42.19204248957715" lon="13.680751788369296"><ele>634.0</ele><time>2026-04-19T14:00:10Z</time></trkpt><trkpt lat="42.191920679581074" lon="13.680900796679655"><ele>634.0</ele><time>2026-04-19T14:00:11Z</time></trkpt><trkpt lat="42.19181419814021" lon="13.681056169426133"><ele>634.0</ele><time>2026-04-19T14:00:12Z</time></trkpt><trkpt lat="42.19173111382552" lon="13.681201500192675"><ele>635.25</ele><time>2026-04-19T14:00:13Z</time></trkpt><trkpt lat="42.191613688520185" lon="13.681290855812476"><ele>636.5</ele><time>2026-04-19T14:00:14Z</time></trkpt><trkpt lat="42.19149239120244" lon="13.681355785345229"><ele>637.75</ele><time>2026-04-19T14:00:15Z</time></trkpt><trkpt lat="42.19136479838972" lon="13.681424576799177"><ele>639.0</ele><time>2026-04-19T14:00:16Z</time></trkpt><trkpt lat="42.19126892717643" lon="13.681514561529823"><ele>639.0</ele><time>2026-04-19T14:00:17Z</time></trkpt><trkpt lat="42.19118913227908" lon="13.681593970679042"><ele>639.0</ele><time>2026-04-19T14:00:18Z</time></trkpt><trkpt lat="42.19112410619359" lon="13.681737059728581"><ele>639.0</ele><time>2026-04-19T14:00:19Z</time></trkpt><trkpt lat="42.19109404810286" lon="13.681911163640729"><ele>639.0</ele><time>2026-04-19T14:00:20Z</time></trkpt><trkpt lat="42.19108657602935" lon="13.682103382185081"><ele>639.8</ele><time>2026-04-19T14:00:21Z</time></trkpt><trkpt lat="42.191078538676514" lon="13.682275412016573"><ele>640.5999999999999</ele><time>2026-04-19T14:00:22Z</time></trkpt><trkpt lat="42.191077082634834" lon="13.682408391913723"><ele>641.4</ele><time>2026-04-19T14:00:23Z</time></trkpt><trkpt lat="42.19110405435268" lon="13.68252770233544"><ele>642.1999999999999</ele><time>2026-04-19T14:00:24Z</time></trkpt><trkpt lat="42.191172006848845" lon="13.682642587201022"><ele>643.0</ele><time>2026-04-19T14:00:25Z</time></trkpt><trkpt lat="42.19128052096854" lon="13.682721314226672"><ele>643.0</ele><time>2026-04-19T14:00:26Z</time></trkpt><trkpt lat="42.191418514639906" lon="13.682759196115674"><ele>643.0</ele><time>2026-04-19T14:00:27Z</time></trkpt><trkpt lat="42.191569175057346" lon="13.682770986657266"><ele>643.0</ele><time>2026-04-19T14:00:28Z</time></trkpt><trkpt lat="42.19171060488074" lon="13.68281572894131"><ele>643.0</ele><time>2026-04-19T14:00:29Z</time></trkpt><trkpt lat="42.19181194060471" lon="13.682923182101307"><ele>645.0</ele><time>2026-04-19T14:00:30Z</time></trkpt><trkpt lat="42.191895413726286" lon="13.683043482105889"><ele>647.0</ele><time>2026-04-19T14:00:31Z</time></trkpt><trkpt lat="42.191961399279165" lon="13.683182346003482"><ele>649.0</ele><time>2026-04-19T14:00:32Z</time></trkpt><trkpt lat="42.192029598174194" lon="13.683345091381891"><ele>651.0</ele><time>2026-04-19T14:00:33Z</time></trkpt><trkpt lat="42.19209312206912" lon="13.683518001241726"><ele>648.6666666666666</ele><time>2026-04-19T14:00:34Z</time></trkpt><trkpt lat="42.19214821464942" lon="13.683708094157494"><ele>646.3333333333333</ele><time>2026-04-19T14:00:35Z</time></trkpt><trkpt lat="42.19219602108682" lon="13.683910930898302"><ele>644.0</ele><time>2026-04-19T14:00:36Z</time></trkpt><trkpt lat="42.19222884414933" lon="13.684106854774216"><ele>644.0</ele><time>2026-04-19T14:00:37Z</time></trkpt><trkpt lat="42.19224789826036" lon="13.684314137115397"><ele>644.0</ele><time>2026-04-19T14:00:38Z</time></trkpt><trkpt lat="42.19226495557014" lon="13.684518630074466"><ele>644.0</ele><time>2026-04-19T14:00:39Z</time></trkpt><trkpt lat="42.19227144660542" lon="13.684695776298089"><ele>644.0</ele><time>2026-04-19T14:00:40Z</time></trkpt><trkpt lat="42.19226823505374" lon="13.684840688204767"><ele>644.4000000000001</ele><time>2026-04-19T14:00:41Z</time></trkpt><trkpt lat="42.19225400841239" lon="13.684957678534339"><ele>644.8</ele><time>2026-04-19T14:00:42Z</time></trkpt><trkpt lat="42.1922177680681" lon="13.685068554465804"><ele>645.2</ele><time>2026-04-19T14:00:43Z</time></trkpt><trkpt lat="42.19215222671359" lon="13.685156009627173"><ele>645.5999999999999</ele><time>2026-04-19T14:00:44Z</time></trkpt><trkpt lat="42.192053855009576" lon="13.685225769558842"><ele>646.0</ele><time>2026-04-19T14:00:45Z</time></trkpt><trkpt lat="42.19193519754366" lon="13.68526438297158"><ele>648.5</ele><time>2026-04-19T14:00:46Z</time></trkpt><trkpt lat="42.191808045430676" lon="13.68530554757553"><ele>651.0</ele><time>2026-04-19T14:00:47Z</time></trkpt><trkpt lat="42.19170144443061" lon="13.685350553380106"><ele>653.5</ele><time>2026-04-19T14:00:48Z</time></trkpt><trkpt lat="42.19160576388355" lon="13.68541588143227"><ele>656.0</ele><time>2026-04-19T14:00:49Z</time></trkpt><trkpt lat="42.19152014154031" lon="13.68552759071047"><ele>647.25</ele><time>2026-04-19T14:00:50Z</time></trkpt><trkpt lat="42.19145736917131" lon="13.685688533837475"><ele>638.5</ele><time>2026-04-19T14:00:51Z</time></trkpt><trkpt lat="42.191419722337535" lon="13.685874863225067"><ele>629.75</ele><time>2026-04-19T14:00:52Z</time></trkpt><trkpt lat="42.191419084406355" lon="13.686095291371641"><ele>621.0</ele><time>2026-04-19T14:00:53Z</time></trkpt><trkpt lat="42.191392480073944" lon="13.68630725863858"><ele>621.0</ele><time>2026-04-19T14:00:54Z</time></trkpt><trkpt lat="42.19136881697811" lon="13.686530461059366"><ele>621.0</ele><time>2026-04-19T14:00:55Z</time></trkpt><trkpt lat="42.19134401873955" lon="13.686765559248567"><ele>621.0</ele><time>2026-04-19T14:00:56Z</time></trkpt><trkpt lat="42.19132005286708" lon="13.68699354088048"><ele>622.25</ele><time>2026-04-19T14:00:57Z</time></trkpt><trkpt lat="42.19129848917551" lon="13.687198792664327"><ele>623.5</ele><time>2026-04-19T14:00:58Z</time></trkpt><trkpt lat="42.191280983543386" lon="13.687382478303334"><ele>624.75</ele><time>2026-04-19T14:00:59Z</time></trkpt><trkpt lat="42.19128651183239" lon="13.687552796146095"><ele>626.0</ele><time>2026-04-19T14:01:00Z</time></trkpt><trkpt lat="42.19129970806659" lon="13.687720249773005"><ele>624.6666666666666</ele><time>2026-04-19T14:01:01Z</time></trkpt><trkpt lat="42.191353267607624" lon="13.687901078240674"><ele>623.3333333333334</ele><time>2026-04-19T14:01:02Z</time></trkpt><trkpt lat="42.191428898710726" lon="13.688090468494662"><ele>622.0</ele><time>2026-04-19T14:01:03Z</time></trkpt><trkpt lat="42.19150425369585" lon="13.688290545039651"><ele>631.0</ele><time>2026-04-19T14:01:04Z</time></trkpt><trkpt lat="42.19153814036919" lon="13.688516077566783"><ele>640.0</ele><time>2026-04-19T14:01:05Z</time></trkpt><trkpt lat="42.191583043911315" lon="13.688734462327314"><ele>649.0</ele><time>2026-04-19T14:01:06Z</time></trkpt><trkpt lat="42.19164209105302" lon="13.68891934014275"><ele>649.0</ele><time>2026-04-19T14:01:07Z</time></trkpt><trkpt lat="42.19168588224097" lon="13.689073041450966"><ele>649.0</ele><time>2026-04-19T14:01:08Z</time></trkpt><trkpt lat="42.1917547523582" lon="13.68920451523371"><ele>649.0</ele><time>2026-04-19T14:01:09Z</time></trkpt><trkpt lat="42.1918529485623" lon="13.689322952813637"><ele>649.0</ele><time>2026-04-19T14:01:10Z</time></trkpt><trkpt lat="42.19197783251809" lon="13.689418495748392"><ele>647.0</ele><time>2026-04-19T14:01:11Z</time></trkpt><trkpt lat="42.192108210012414" lon="13.689516775271366"><ele>645.0</ele><time>2026-04-19T14:01:12Z</time></trkpt><trkpt lat="42.19222650965234" lon="13.689652562934022"><ele>643.0</ele><time>2026-04-19T14:01:13Z</time></trkpt><trkpt lat="42.19235961790354" lon="13.689763859306744"><ele>646.25</ele><time>2026-04-19T14:01:14Z</time></trkpt><trkpt lat="42.19248551293724" lon="13.689885464541533"><ele>649.5</ele><time>2026-04-19T14:01:15Z</time></trkpt><trkpt lat="42.192602779891835" lon="13.689988146982191"><ele>652.75</ele><time>2026-04-19T14:01:16Z</time></trkpt><trkpt lat="42.192709786314815" lon="13.690086291097144"><ele>656.0</ele><time>2026-04-19T14:01:17Z</time></trkpt><trkpt lat="42.19282803724408" lon="13.690109326494191"><ele>656.0</ele><time>2026-04-19T14:01:18Z</time></trkpt><trkpt lat="42.19293178694295" lon="13.690145570865695"><ele>656.0</ele><time>2026-04-19T14:01:19Z</time></trkpt><trkpt lat="42.193018650598376" lon="13.690185654621983"><ele>656.0</ele><time>2026-04-19T14:01:20Z</time></trkpt><trkpt lat="42.19308572601963" lon="13.69024016088681"><ele>656.0</ele><time>2026-04-19T14:01:21Z</time></trkpt><trkpt lat="42.19311672158488" lon="13.690340452674855"><ele>656.0</ele><time>2026-04-19T14:01:22Z</time></trkpt><trkpt lat="42.19312487049668" lon="13.69044423230586"><ele>656.0</ele><time>2026-04-19T14:01:23Z</time></trkpt><trkpt lat="42.193099869225286" lon="13.690554040554009"><ele>655.75</ele><time>2026-04-19T14:01:24Z</time></trkpt><trkpt lat="42.193039090025785" lon="13.690659327944713"><ele>655.5</ele><time>2026-04-19T14:01:25Z</time></trkpt><trkpt lat="42.19294526308833" lon="13.690771536043567"><ele>655.25</ele><time>2026-04-19T14:01:26Z</time></trkpt><trkpt lat="42.19283407950299" lon="13.690891465307628"><ele>655.0</ele><time>2026-04-19T14:01:27Z</time></trkpt><trkpt lat="42.1926962791796" lon="13.690974615815527"><ele>655.0</ele><time>2026-04-19T14:01:28Z</time></trkpt><trkpt lat="42.19256655812697" lon="13.691041910240633"><ele>655.0</ele><time>2026-04-19T14:01:29Z</time></trkpt><trkpt lat="42.19245675730675" lon="13.6911101573723"><ele>655.0</ele><time>2026-04-19T14:01:30Z</time></trkpt><trkpt lat="42.19235502328511" lon="13.691211232503647"><ele>655.0</ele><time>2026-04-19T14:01:31Z</time></trkpt><trkpt lat="42.19226248400893" lon="13.691377732472557"><ele>654.5</ele><time>2026-04-19T14:01:32Z</time></trkpt><trkpt lat="42.19218934052823" lon="13.691553091966776"><ele>654.0</ele><time>2026-04-19T14:01:33Z</time></trkpt><trkpt lat="42.19214756391618" lon="13.691728894554958"><ele>653.5</ele><time>2026-04-19T14:01:34Z</time></trkpt><trkpt lat="42.192127866682696" lon="13.691898414579342"><ele>653.0</ele><time>2026-04-19T14:01:35Z</time></trkpt><trkpt lat="42.19212628704221" lon="13.692075280144824"><ele>652.6666666666666</ele><time>2026-04-19T14:01:36Z</time></trkpt><trkpt lat="42.19214786315227" lon="13.692269644490935"><ele>652.3333333333334</ele><time>2026-04-19T14:01:37Z</time></trkpt><trkpt lat="42.19219646065218" lon="13.692465130062661"><ele>652.0</ele><time>2026-04-19T14:01:38Z</time></trkpt><trkpt lat="42.192279512670765" lon="13.692662472111802"><ele>653.6666666666667</ele><time>2026-04-19T14:01:39Z</time></trkpt><trkpt lat="42.19238727917877" lon="13.692853249309595"><ele>655.3333333333334</ele><time>2026-04-19T14:01:40Z</time></trkpt><trkpt lat="42.1925124757349" lon="13.69304275995924"><ele>657.0</ele><time>2026-04-19T14:01:41Z</time></trkpt><trkpt lat="42.19263301934134" lon="13.693242050646816"><ele>657.0</ele><time>2026-04-19T14:01:42Z</time></trkpt><trkpt lat="42.19274447802812" lon="13.693437024974786"><ele>657.0</ele><time>2026-04-19T14:01:43Z</time></trkpt><trkpt lat="42.19284248365879" lon="13.693606981304178"><ele>657.0</ele><time>2026-04-19T14:01:44Z</time></trkpt><trkpt lat="42.19290795097376" lon="13.693775454324141"><ele>655.75</ele><time>2026-04-19T14:01:45Z</time></trkpt><trkpt lat="42.19299077202861" lon="13.69392001537076"><ele>654.5</ele><time>2026-04-19T14:01:46Z</time></trkpt><trkpt lat="42.19302313653618" lon="13.694096652164722"><ele>653.25</ele><time>2026-04-19T14:01:47Z</time></trkpt><trkpt lat="42.193072818745186" lon="13.69425931707538"><ele>652.0</ele><time>2026-04-19T14:01:48Z</time></trkpt><trkpt lat="42.193089830307336" lon="13.694419025419013"><ele>653.5</ele><time>2026-04-19T14:01:49Z</time></trkpt><trkpt lat="42.193059130008905" lon="13.694563739596637"><ele>655.0</ele><time>2026-04-19T14:01:50Z</time></trkpt><trkpt lat="42.1930376822633" lon="13.694714994691616"><ele>656.5</ele><time>2026-04-19T14:01:51Z</time></trkpt><trkpt lat="42.19296360512569" lon="13.694852425711325"><ele>658.0</ele><time>2026-04-19T14:01:52Z</time></trkpt><trkpt lat="42.192855605534966" lon="13.694922476435979"><ele>658.0</ele><time>2026-04-19T14:01:53Z</time></trkpt><trkpt lat="42.19274562669501" lon="13.694983992713045"><ele>658.0</ele><time>2026-04-19T14:01:54Z</time></trkpt><trkpt lat="42.19262699732276" lon="13.695056138880448"><ele>658.0</ele><time>2026-04-19T14:01:55Z</time></trkpt><trkpt lat="42.192513471314626" lon="13.695109986897608"><ele>658.0</ele><time>2026-04-19T14:01:56Z</time></trkpt><trkpt lat="42.192416010744516" lon="13.695188409155662"><ele>655.75</ele><time>2026-04-19T14:01:57Z</time></trkpt><trkpt lat="42.19232653618326" lon="13.695309508930093"><ele>653.5</ele><time>2026-04-19T14:01:58Z</time></trkpt><trkpt lat="42.19225218009995" lon="13.695465104067187"><ele>651.25</ele><time>2026-04-19T14:01:59Z</time></trkpt><trkpt lat="42.19219565652151" lon="13.695644525501166"><ele>649.0</ele><time>2026-04-19T14:02:00Z</time></trkpt><trkpt lat="42.19215463490428" lon="13.695844309979483"><ele>649.0</ele><time>2026-04-19T14:02:01Z</time></trkpt><trkpt lat="42.192118095376934" lon="13.696047138590206"><ele>649.0</ele><time>2026-04-19T14:02:02Z</time></trkpt><trkpt lat="42.19208244540889" lon="13.696252981199942"><ele>649.0</ele><time>2026-04-19T14:02:03Z</time></trkpt><trkpt lat="42.192027378595476" lon="13.696445038527889"><ele>649.5</ele><time>2026-04-19T14:02:04Z</time></trkpt><trkpt lat="42.192013810374675" lon="13.696628558284232"><ele>650.0</ele><time>2026-04-19T14:02:05Z</time></trkpt><trkpt lat="42.19200882327081" lon="13.69679758477484"><ele>650.5</ele><time>2026-04-19T14:02:06Z</time></trkpt><trkpt lat="42.1920270447886" lon="13.696972900606834"><ele>651.0</ele><time>2026-04-19T14:02:07Z</time></trkpt><trkpt lat="42.192072065292315" lon="13.697145469586065"><ele>648.25</ele><time>2026-04-19T14:02:08Z</time></trkpt><trkpt lat="42.1921458131574" lon="13.697300957381799"><ele>645.5</ele><time>2026-04-19T14:02:09Z</time></trkpt><trkpt lat="42.19224706060674" lon="13.6974496927385"><ele>642.75</ele><time>2026-04-19T14:02:10Z</time></trkpt><trkpt lat="42.19236472713303" lon="13.697589630911606"><ele>640.0</ele><time>2026-04-19T14:02:11Z</time></trkpt><trkpt lat="42.19248433383852" lon="13.697729087296239"><ele>642.5</ele><time>2026-04-19T14:02:12Z</time></trkpt><trkpt lat="42.192584054343996" lon="13.697853829772992"><ele>645.0</ele><time>2026-04-19T14:02:13Z</time></trkpt><trkpt lat="42.19267298828097" lon="13.69797174408085"><ele>647.5</ele><time>2026-04-19T14:02:14Z</time></trkpt><trkpt lat="42.192756659544735" lon="13.698074366967035"><ele>650.0</ele><time>2026-04-19T14:02:15Z</time></trkpt><trkpt lat="42.192859751964136" lon="13.69815507744756"><ele>650.0</ele><time>2026-04-19T14:02:16Z</time></trkpt><trkpt lat="42.192988955326605" lon="13.698218757033136"><ele>650.0</ele><time>2026-04-19T14:02:17Z</time></trkpt><trkpt lat="42.1931432709039" lon="13.698249604777464"><ele>650.0</ele><time>2026-04-19T14:02:18Z</time></trkpt><trkpt lat="42.19329527551298" lon="13.698298584254164"><ele>652.6</ele><time>2026-04-19T14:02:19Z</time></trkpt><trkpt lat="42.19342965014796" lon="13.698339161988144"><ele>655.2</ele><time>2026-04-19T14:02:20Z</time></trkpt><trkpt lat="42.193525556173164" lon="13.69837240993388"><ele>657.8</ele><time>2026-04-19T14:02:21Z</time></trkpt><trkpt lat="42.19361095301139" lon="13.69839236337571"><ele>660.4</ele><time>2026-04-19T14:02:22Z</time></trkpt><trkpt lat="42.19370253952365" lon="13.698463124190384"><ele>663.0</ele><time>2026-04-19T14:02:24Z</time></trkpt><trkpt lat="42.193693636953604" lon="13.698644887127262"><ele>663.0</ele><time>2026-04-19T14:02:26Z</time></trkpt><trkpt lat="42.19370410599168" lon="13.698754304117578"><ele>663.0</ele><time>2026-04-19T14:02:27Z</time></trkpt><trkpt lat="42.193691588424116" lon="13.698876078510136"><ele>663.0</ele><time>2026-04-19T14:02:28Z</time></trkpt><trkpt lat="42.19367159728137" lon="13.698991465034245"><ele>663.0</ele><time>2026-04-19T14:02:29Z</time></trkpt><trkpt lat="42.19359483172718" lon="13.699085145515536"><ele>663.0</ele><time>2026-04-19T14:02:30Z</time></trkpt><trkpt lat="42.19351694213156" lon="13.699183527011673"><ele>663.0</ele><time>2026-04-19T14:02:31Z</time></trkpt><trkpt lat="42.193427105587006" lon="13.699300044626598"><ele>663.0</ele><time>2026-04-19T14:02:32Z</time></trkpt><trkpt lat="42.19330669058581" lon="13.699393635516934"><ele>663.0</ele><time>2026-04-19T14:02:33Z</time></trkpt><trkpt lat="42.193186113757534" lon="13.699497945588384"><ele>663.0</ele><time>2026-04-19T14:02:34Z</time></trkpt><trkpt lat="42.19306191903557" lon="13.699604473658313"><ele>662.0</ele><time>2026-04-19T14:02:35Z</time></trkpt><trkpt lat="42.19292821375048" lon="13.699707021902501"><ele>661.0</ele><time>2026-04-19T14:02:36Z</time></trkpt><trkpt lat="42.192809307791265" lon="13.699796852147243"><ele>660.0</ele><time>2026-04-19T14:02:37Z</time></trkpt><trkpt lat="42.19271102229515" lon="13.699892588071267"><ele>659.0</ele><time>2026-04-19T14:02:38Z</time></trkpt><trkpt lat="42.19263244799243" lon="13.700007156959883"><ele>659.0</ele><time>2026-04-19T14:02:39Z</time></trkpt><trkpt lat="42.19257320275332" lon="13.700160218816048"><ele>659.0</ele><time>2026-04-19T14:02:40Z</time></trkpt><trkpt lat="42.192531442473516" lon="13.70034397255955"><ele>659.0</ele><time>2026-04-19T14:02:41Z</time></trkpt><trkpt lat="42.19247795357769" lon="13.700524807821076"><ele>659.0</ele><time>2026-04-19T14:02:42Z</time></trkpt><trkpt lat="42.192437992445036" lon="13.700664701826685"><ele>659.6</ele><time>2026-04-19T14:02:43Z</time></trkpt><trkpt lat="42.19240070191589" lon="13.70076544132342"><ele>660.2</ele><time>2026-04-19T14:02:44Z</time></trkpt><trkpt lat="42.19234179942755" lon="13.700817337045612"><ele>660.8000000000001</ele><time>2026-04-19T14:02:45Z</time></trkpt><trkpt lat="42.19227235724706" lon="13.700877874139968"><ele>661.4000000000001</ele><time>2026-04-19T14:02:46Z</time></trkpt><trkpt lat="42.19216578916112" lon="13.700837484821426"><ele>662.0</ele><time>2026-04-19T14:02:47Z</time></trkpt><trkpt lat="42.19203920894817" lon="13.700844638715502"><ele>662.0</ele><time>2026-04-19T14:02:48Z</time></trkpt><trkpt lat="42.19190268011607" lon="13.700827088052053"><ele>662.0</ele><time>2026-04-19T14:02:49Z</time></trkpt><trkpt lat="42.19175598188092" lon="13.700831133775711"><ele>662.0</ele><time>2026-04-19T14:02:50Z</time></trkpt><trkpt lat="42.1915974054056" lon="13.700854180018881"><ele>662.0</ele><time>2026-04-19T14:02:51Z</time></trkpt><trkpt lat="42.19143284016327" lon="13.700894162975612"><ele>660.25</ele><time>2026-04-19T14:02:52Z</time></trkpt><trkpt lat="42.191284387033065" lon="13.700937149663822"><ele>658.5</ele><time>2026-04-19T14:02:53Z</time></trkpt><trkpt lat="42.19115090980305" lon="13.700976057721418"><ele>656.75</ele><time>2026-04-19T14:02:54Z</time></trkpt><trkpt lat="42.1910318040985" lon="13.70101144715202"><ele>655.0</ele><time>2026-04-19T14:02:55Z</time></trkpt><trkpt lat="42.19091953247949" lon="13.701058035526696"><ele>657.5</ele><time>2026-04-19T14:02:56Z</time></trkpt><trkpt lat="42.19082210335017" lon="13.701128722978419"><ele>660.0</ele><time>2026-04-19T14:02:57Z</time></trkpt><trkpt lat="42.1907305350027" lon="13.701227751486778"><ele>662.5</ele><time>2026-04-19T14:02:58Z</time></trkpt><trkpt lat="42.190642694612144" lon="13.70136089267117"><ele>665.0</ele><time>2026-04-19T14:02:59Z</time></trkpt><trkpt lat="42.19055628155037" lon="13.701513294387848"><ele>665.0</ele><time>2026-04-19T14:03:00Z</time></trkpt><trkpt lat="42.19045734456042" lon="13.70165574771966"><ele>665.0</ele><time>2026-04-19T14:03:01Z</time></trkpt><trkpt lat="42.190371534724356" lon="13.701785750343701"><ele>665.0</ele><time>2026-04-19T14:03:02Z</time></trkpt><trkpt lat="42.19029604998261" lon="13.701898265033368"><ele>665.0</ele><time>2026-04-19T14:03:03Z</time></trkpt><trkpt lat="42.1901892697143" lon="13.701957086379474"><ele>665.0</ele><time>2026-04-19T14:03:04Z</time></trkpt><trkpt lat="42.19007412818121" lon="13.701982008427574"><ele>665.0</ele><time>2026-04-19T14:03:05Z</time></trkpt><trkpt lat="42.18995887532829" lon="13.701974021353035"><ele>665.0</ele><time>2026-04-19T14:03:06Z</time></trkpt><trkpt lat="42.189833522337764" lon="13.701960326824373"><ele>665.0</ele><time>2026-04-19T14:03:07Z</time></trkpt><trkpt lat="42.18972908284116" lon="13.701958677934579"><ele>665.0</ele><time>2026-04-19T14:03:08Z</time></trkpt><trkpt lat="42.18964085835217" lon="13.701963855962722"><ele>665.0</ele><time>2026-04-19T14:03:09Z</time></trkpt><trkpt lat="42.18955826192184" lon="13.702001495791997"><ele>665.0</ele><time>2026-04-19T14:03:10Z</time></trkpt><trkpt lat="42.18947149869196" lon="13.70208615876841"><ele>665.0</ele><time>2026-04-19T14:03:11Z</time></trkpt><trkpt lat="42.189400661613256" lon="13.702220893596863"><ele>665.0</ele><time>2026-04-19T14:03:12Z</time></trkpt><trkpt lat="42.18935085414467" lon="13.702387625091964"><ele>665.0</ele><time>2026-04-19T14:03:13Z</time></trkpt><trkpt lat="42.18930418772345" lon="13.702563576827089"><ele>665.0</ele><time>2026-04-19T14:03:14Z</time></trkpt><trkpt lat="42.189252268650286" lon="13.702742960003523"><ele>665.0</ele><time>2026-04-19T14:03:15Z</time></trkpt><trkpt lat="42.189192356065206" lon="13.702919418658606"><ele>665.0</ele><time>2026-04-19T14:03:16Z</time></trkpt><trkpt lat="42.18912075390795" lon="13.7031020439528"><ele>663.0</ele><time>2026-04-19T14:03:17Z</time></trkpt><trkpt lat="42.189024571966314" lon="13.70327260963194"><ele>661.0</ele><time>2026-04-19T14:03:18Z</time></trkpt><trkpt lat="42.18894645134079" lon="13.703459588366982"><ele>659.0</ele><time>2026-04-19T14:03:19Z</time></trkpt><trkpt lat="42.18889998290329" lon="13.703633835289335"><ele>659.0</ele><time>2026-04-19T14:03:20Z</time></trkpt><trkpt lat="42.18885060907981" lon="13.70381894770854"><ele>659.0</ele><time>2026-04-19T14:03:21Z</time></trkpt><trkpt lat="42.188826611481886" lon="13.704011668743053"><ele>659.0</ele><time>2026-04-19T14:03:22Z</time></trkpt><trkpt lat="42.1888233453648" lon="13.704225663756917"><ele>659.0</ele><time>2026-04-19T14:03:23Z</time></trkpt><trkpt lat="42.18883510238417" lon="13.704452652587285"><ele>660.75</ele><time>2026-04-19T14:03:24Z</time></trkpt><trkpt lat="42.18885069390027" lon="13.704675051067477"><ele>662.5</ele><time>2026-04-19T14:03:25Z</time></trkpt><trkpt lat="42.188830470809634" lon="13.704864498148282"><ele>664.25</ele><time>2026-04-19T14:03:26Z</time></trkpt><trkpt lat="42.18881080759528" lon="13.704988373504284"><ele>666.0</ele><time>2026-04-19T14:03:27Z</time></trkpt><trkpt lat="42.188773766393794" lon="13.705109838872355"><ele>666.0</ele><time>2026-04-19T14:03:28Z</time></trkpt><trkpt lat="42.18870940098624" lon="13.705216426131472"><ele>666.0</ele><time>2026-04-19T14:03:29Z</time></trkpt><trkpt lat="42.188618275992695" lon="13.705320345512936"><ele>666.0</ele><time>2026-04-19T14:03:30Z</time></trkpt><trkpt lat="42.18850794864974" lon="13.705395173676367"><ele>666.0</ele><time>2026-04-19T14:03:31Z</time></trkpt><trkpt lat="42.18838585415428" lon="13.705446238971492"><ele>667.75</ele><time>2026-04-19T14:03:32Z</time></trkpt><trkpt lat="42.1882590630585" lon="13.70548254535966"><ele>669.5</ele><time>2026-04-19T14:03:33Z</time></trkpt><trkpt lat="42.18813269714177" lon="13.705512162397117"><ele>671.25</ele><time>2026-04-19T14:03:34Z</time></trkpt><trkpt lat="42.18802445092757" lon="13.705553064844842"><ele>673.0</ele><time>2026-04-19T14:03:35Z</time></trkpt><trkpt lat="42.187916098961864" lon="13.705575145010934"><ele>673.0</ele><time>2026-04-19T14:03:36Z</time></trkpt><trkpt lat="42.18780101523249" lon="13.705600645663527"><ele>673.0</ele><time>2026-04-19T14:03:37Z</time></trkpt><trkpt lat="42.18768750380478" lon="13.705636385416476"><ele>673.0</ele><time>2026-04-19T14:03:38Z</time></trkpt><trkpt lat="42.187574812236825" lon="13.705677514433093"><ele>673.0</ele><time>2026-04-19T14:03:39Z</time></trkpt><trkpt lat="42.18745733807652" lon="13.705735036724104"><ele>673.0</ele><time>2026-04-19T14:03:40Z</time></trkpt><trkpt lat="42.187344167466435" lon="13.705808014282827"><ele>673.0</ele><time>2026-04-19T14:03:41Z</time></trkpt><trkpt lat="42.18723744373959" lon="13.705903204282114"><ele>673.0</ele><time>2026-04-19T14:03:42Z</time></trkpt><trkpt lat="42.18714691717049" lon="13.70599738758208"><ele>673.0</ele><time>2026-04-19T14:03:43Z</time></trkpt><trkpt lat="42.18707186691022" lon="13.70608789707311"><ele>672.5</ele><time>2026-04-19T14:03:44Z</time></trkpt><trkpt lat="42.18701879485024" lon="13.70616133407837"><ele>672.0</ele><time>2026-04-19T14:03:45Z</time></trkpt><trkpt lat="42.18696143247573" lon="13.706252946639939"><ele>671.5</ele><time>2026-04-19T14:03:47Z</time></trkpt><trkpt lat="42.18692244419832" lon="13.70636538267883"><ele>671.0</ele><time>2026-04-19T14:03:49Z</time></trkpt><trkpt lat="42.1868897231644" lon="13.706486636456411"><ele>670.5</ele><time>2026-04-19T14:03:51Z</time></trkpt><trkpt lat="42.18686545508544" lon="13.706603007800885"><ele>670.0</ele><time>2026-04-19T14:03:53Z</time></trkpt><trkpt lat="42.18685420650266" lon="13.706693092531246"><ele>670.0</ele><time>2026-04-19T14:03:55Z</time></trkpt><trkpt lat="42.186633471992636" lon="13.706726913586204"><ele>670.0</ele><time>2026-04-19T14:04:20Z</time></trkpt><trkpt lat="42.18658725407943" lon="13.70680626067973"><ele>670.0</ele><time>2026-04-19T14:04:23Z</time></trkpt><trkpt lat="42.1865644912631" lon="13.706893981612533"><ele>670.0</ele><time>2026-04-19T14:04:28Z</time></trkpt><trkpt lat="42.18659712365061" lon="13.706806765342531"><ele>670.0</ele><time>2026-04-19T14:04:41Z</time></trkpt><trkpt lat="42.18665122613047" lon="13.706735302673458"><ele>670.0</ele><time>2026-04-19T14:04:44Z</time></trkpt><trkpt lat="42.18671537234577" lon="13.706725331494852"><ele>670.0</ele><time>2026-04-19T14:06:00Z</time></trkpt><trkpt lat="42.186759453986305" lon="13.706658415721732"><ele>670.0</ele><time>2026-04-19T14:06:02Z</time></trkpt><trkpt lat="42.18680912563506" lon="13.706734869644936"><ele>670.0</ele><time>2026-04-19T14:06:04Z</time></trkpt><trkpt lat="42.186904400884444" lon="13.706777600637146"><ele>670.0</ele><time>2026-04-19T14:06:07Z</time></trkpt><trkpt lat="42.187023423895006" lon="13.706807359484408"><ele>670.0</ele><time>2026-04-19T14:06:09Z</time></trkpt><trkpt lat="42.18711271060435" lon="13.706820769808628"><ele>670.0</ele><time>2026-04-19T14:06:10Z</time></trkpt><trkpt lat="42.18721586444298" lon="13.706846784177088"><ele>670.0</ele><time>2026-04-19T14:06:11Z</time></trkpt><trkpt lat="42.1873404035554" lon="13.706878191895825"><ele>670.0</ele><time>2026-04-19T14:06:12Z</time></trkpt><trkpt lat="42.187469162673935" lon="13.706906860403286"><ele>670.0</ele><time>2026-04-19T14:06:13Z</time></trkpt><trkpt lat="42.187597159632126" lon="13.70693145402109"><ele>670.0</ele><time>2026-04-19T14:06:14Z</time></trkpt><trkpt lat="42.187716294064536" lon="13.70696771395486"><ele>670.0</ele><time>2026-04-19T14:06:15Z</time></trkpt><trkpt lat="42.18776193521568" lon="13.707717361986068"><ele>668.25</ele><time>2026-04-19T14:06:16Z</time></trkpt><trkpt lat="42.18784934165202" lon="13.707860206011379"><ele>666.5</ele><time>2026-04-19T14:06:17Z</time></trkpt><trkpt lat="42.187912228147816" lon="13.708012344840748"><ele>664.75</ele><time>2026-04-19T14:06:18Z</time></trkpt><trkpt lat="42.187955529085315" lon="13.708179015637521"><ele>663.0</ele><time>2026-04-19T14:06:19Z</time></trkpt><trkpt lat="42.187974523119905" lon="13.708362061208094"><ele>663.0</ele><time>2026-04-19T14:06:20Z</time></trkpt><trkpt lat="42.18797631503812" lon="13.708550399258199"><ele>663.0</ele><time>2026-04-19T14:06:21Z</time></trkpt><trkpt lat="42.18794883305935" lon="13.70874395813754"><ele>663.0</ele><time>2026-04-19T14:06:22Z</time></trkpt><trkpt lat="42.18789296377688" lon="13.708947321115017"><ele>663.0</ele><time>2026-04-19T14:06:23Z</time></trkpt><trkpt lat="42.18778280090311" lon="13.709111124058836"><ele>663.25</ele><time>2026-04-19T14:06:24Z</time></trkpt><trkpt lat="42.18773025127117" lon="13.709283160691616"><ele>663.5</ele><time>2026-04-19T14:06:25Z</time></trkpt><trkpt lat="42.18770429414218" lon="13.709451161835949"><ele>663.75</ele><time>2026-04-19T14:06:26Z</time></trkpt><trkpt lat="42.18767172065065" lon="13.709625260996548"><ele>664.0</ele><time>2026-04-19T14:06:27Z</time></trkpt><trkpt lat="42.18766891315071" lon="13.70982778868926"><ele>664.3333333333334</ele><time>2026-04-19T14:06:28Z</time></trkpt><trkpt lat="42.18768438581965" lon="13.710044369478352"><ele>664.6666666666666</ele><time>2026-04-19T14:06:29Z</time></trkpt><trkpt lat="42.187697401248315" lon="13.710266612032056"><ele>665.0</ele><time>2026-04-19T14:06:30Z</time></trkpt><trkpt lat="42.187664579050214" lon="13.710485137222282"><ele>665.0</ele><time>2026-04-19T14:06:31Z</time></trkpt><trkpt lat="42.187642329507895" lon="13.710688358004345"><ele>665.0</ele><time>2026-04-19T14:06:32Z</time></trkpt><trkpt lat="42.18761169181703" lon="13.71090315978429"><ele>665.0</ele><time>2026-04-19T14:06:33Z</time></trkpt><trkpt lat="42.18757239569593" lon="13.711127570169895"><ele>665.0</ele><time>2026-04-19T14:06:34Z</time></trkpt><trkpt lat="42.18754233422378" lon="13.711358446668344"><ele>665.0</ele><time>2026-04-19T14:06:35Z</time></trkpt><trkpt lat="42.187493784934325" lon="13.711582862259196"><ele>665.0</ele><time>2026-04-19T14:06:36Z</time></trkpt><trkpt lat="42.18745091599915" lon="13.711806035237505"><ele>667.0</ele><time>2026-04-19T14:06:37Z</time></trkpt><trkpt lat="42.18739433136203" lon="13.71199921250829"><ele>669.0</ele><time>2026-04-19T14:06:38Z</time></trkpt><trkpt lat="42.18734973083452" lon="13.712193387519948"><ele>671.0</ele><time>2026-04-19T14:06:39Z</time></trkpt><trkpt lat="42.18728246345155" lon="13.712378628000586"><ele>665.0</ele><time>2026-04-19T14:06:40Z</time></trkpt><trkpt lat="42.187194786547074" lon="13.712564749544777"><ele>659.0</ele><time>2026-04-19T14:06:41Z</time></trkpt><trkpt lat="42.18709442779969" lon="13.712758813694192"><ele>653.0</ele><time>2026-04-19T14:06:42Z</time></trkpt><trkpt lat="42.186990424074864" lon="13.712954026834316"><ele>653.0</ele><time>2026-04-19T14:06:43Z</time></trkpt><trkpt lat="42.18689365333302" lon="13.713136489518936"><ele>653.0</ele><time>2026-04-19T14:06:44Z</time></trkpt><trkpt lat="42.18680608132287" lon="13.713301957005278"><ele>653.0</ele><time>2026-04-19T14:06:45Z</time></trkpt><trkpt lat="42.18671755371434" lon="13.71345412439306"><ele>652.5</ele><time>2026-04-19T14:06:46Z</time></trkpt><trkpt lat="42.186624462567416" lon="13.713585158845298"><ele>652.0</ele><time>2026-04-19T14:06:47Z</time></trkpt><trkpt lat="42.186536752500764" lon="13.713713611440054"><ele>651.5</ele><time>2026-04-19T14:06:48Z</time></trkpt><trkpt lat="42.18642964797711" lon="13.713797160499954"><ele>651.0</ele><time>2026-04-19T14:06:49Z</time></trkpt><trkpt lat="42.186320987418696" lon="13.713861024897172"><ele>651.0</ele><time>2026-04-19T14:06:50Z</time></trkpt><trkpt lat="42.18620158303146" lon="13.713882192201932"><ele>651.0</ele><time>2026-04-19T14:06:51Z</time></trkpt><trkpt lat="42.18609664174977" lon="13.713928351928358"><ele>651.0</ele><time>2026-04-19T14:06:52Z</time></trkpt><trkpt lat="42.185995894160065" lon="13.713966850952866"><ele>651.0</ele><time>2026-04-19T14:06:53Z</time></trkpt><trkpt lat="42.18588641561376" lon="13.714045500349952"><ele>651.0</ele><time>2026-04-19T14:06:54Z</time></trkpt><trkpt lat="42.18577643827105" lon="13.714148719265797"><ele>651.0</ele><time>2026-04-19T14:06:55Z</time></trkpt><trkpt lat="42.185671195057324" lon="13.71427708713209"><ele>651.0</ele><time>2026-04-19T14:06:56Z</time></trkpt><trkpt lat="42.185566407575145" lon="13.714383216843888"><ele>651.0</ele><time>2026-04-19T14:06:57Z</time></trkpt><trkpt lat="42.18547983724332" lon="13.714495827981006"><ele>648.75</ele><time>2026-04-19T14:06:58Z</time></trkpt><trkpt lat="42.185410414847404" lon="13.714641913790821"><ele>646.5</ele><time>2026-04-19T14:06:59Z</time></trkpt><trkpt lat="42.18533675140492" lon="13.714795416707274"><ele>644.25</ele><time>2026-04-19T14:07:00Z</time></trkpt><trkpt lat="42.185271757600724" lon="13.714970867350992"><ele>642.0</ele><time>2026-04-19T14:07:01Z</time></trkpt><trkpt lat="42.185182854110884" lon="13.715146918559551"><ele>646.6666666666666</ele><time>2026-04-19T14:07:02Z</time></trkpt><trkpt lat="42.185104658495696" lon="13.71533360912615"><ele>651.3333333333333</ele><time>2026-04-19T14:07:03Z</time></trkpt><trkpt lat="42.18503547922937" lon="13.715523859321554"><ele>656.0</ele><time>2026-04-19T14:07:04Z</time></trkpt><trkpt lat="42.184949685328476" lon="13.715671003691495"><ele>656.0</ele><time>2026-04-19T14:07:05Z</time></trkpt><trkpt lat="42.18487025086649" lon="13.715803054369239"><ele>656.0</ele><time>2026-04-19T14:07:06Z</time></trkpt><trkpt lat="42.18478534897851" lon="13.715921292863278"><ele>656.0</ele><time>2026-04-19T14:07:07Z</time></trkpt><trkpt lat="42.184702285831996" lon="13.716044337691185"><ele>656.0</ele><time>2026-04-19T14:07:08Z</time></trkpt><trkpt lat="42.184593146530176" lon="13.716121363045234"><ele>655.75</ele><time>2026-04-19T14:07:09Z</time></trkpt><trkpt lat="42.184465270164395" lon="13.716155900928488"><ele>655.5</ele><time>2026-04-19T14:07:10Z</time></trkpt><trkpt lat="42.184314711336455" lon="13.716201093620967"><ele>655.25</ele><time>2026-04-19T14:07:11Z</time></trkpt><trkpt lat="42.184173913837654" lon="13.716260962587146"><ele>655.0</ele><time>2026-04-19T14:07:12Z</time></trkpt><trkpt lat="42.18404332696553" lon="13.716277479166743"><ele>655.75</ele><time>2026-04-19T14:07:13Z</time></trkpt><trkpt lat="42.18391117839687" lon="13.716276572668734"><ele>656.5</ele><time>2026-04-19T14:07:14Z</time></trkpt><trkpt lat="42.18376520616923" lon="13.716244669858838"><ele>657.25</ele><time>2026-04-19T14:07:15Z</time></trkpt><trkpt lat="42.18361606605401" lon="13.716183408441946"><ele>658.0</ele><time>2026-04-19T14:07:16Z</time></trkpt><trkpt lat="42.18346112918549" lon="13.716111910151795"><ele>654.5</ele><time>2026-04-19T14:07:17Z</time></trkpt><trkpt lat="42.183312280059916" lon="13.716053391022294"><ele>651.0</ele><time>2026-04-19T14:07:18Z</time></trkpt><trkpt lat="42.18317372631723" lon="13.715998320546284"><ele>647.5</ele><time>2026-04-19T14:07:19Z</time></trkpt><trkpt lat="42.183041315566186" lon="13.715938358025834"><ele>644.0</ele><time>2026-04-19T14:07:20Z</time></trkpt><trkpt lat="42.18290714958621" lon="13.715856144762824"><ele>644.0</ele><time>2026-04-19T14:07:21Z</time></trkpt><trkpt lat="42.18276830709153" lon="13.71574679046148"><ele>644.0</ele><time>2026-04-19T14:07:22Z</time></trkpt><trkpt lat="42.18262973669881" lon="13.715625242886304"><ele>644.0</ele><time>2026-04-19T14:07:23Z</time></trkpt><trkpt lat="42.182490113287926" lon="13.715494397277418"><ele>644.0</ele><time>2026-04-19T14:07:24Z</time></trkpt><trkpt lat="42.18235918025828" lon="13.71537298372509"><ele>644.0</ele><time>2026-04-19T14:07:25Z</time></trkpt><trkpt lat="42.182235765845974" lon="13.715265552302952"><ele>644.0</ele><time>2026-04-19T14:07:26Z</time></trkpt><trkpt lat="42.18211418918946" lon="13.715172467825305"><ele>644.0</ele><time>2026-04-19T14:07:27Z</time></trkpt><trkpt lat="42.18199571073238" lon="13.715086718422837"><ele>640.75</ele><time>2026-04-19T14:07:28Z</time></trkpt><trkpt lat="42.18188501881893" lon="13.715000022539101"><ele>637.5</ele><time>2026-04-19T14:07:29Z</time></trkpt><trkpt lat="42.18178536091946" lon="13.714932968031265"><ele>634.25</ele><time>2026-04-19T14:07:30Z</time></trkpt><trkpt lat="42.18168302304175" lon="13.714888743596356"><ele>631.0</ele><time>2026-04-19T14:07:31Z</time></trkpt><trkpt lat="42.18157888566929" lon="13.714884106566018"><ele>630.25</ele><time>2026-04-19T14:07:32Z</time></trkpt><trkpt lat="42.18147210365948" lon="13.71492307759636"><ele>629.5</ele><time>2026-04-19T14:07:33Z</time></trkpt><trkpt lat="42.18136236387717" lon="13.71501309544086"><ele>628.75</ele><time>2026-04-19T14:07:34Z</time></trkpt><trkpt lat="42.18125474534497" lon="13.715147165609187"><ele>628.0</ele><time>2026-04-19T14:07:35Z</time></trkpt><trkpt lat="42.181129309874116" lon="13.715288488389927"><ele>628.0</ele><time>2026-04-19T14:07:36Z</time></trkpt><trkpt lat="42.18099896461611" lon="13.715443228980005"><ele>628.0</ele><time>2026-04-19T14:07:37Z</time></trkpt><trkpt lat="42.18086212321543" lon="13.71560613818779"><ele>628.0</ele><time>2026-04-19T14:07:38Z</time></trkpt><trkpt lat="42.18072593722369" lon="13.715770097501233"><ele>627.6666666666667</ele><time>2026-04-19T14:07:39Z</time></trkpt><trkpt lat="42.18060108423425" lon="13.715917174806965"><ele>627.3333333333334</ele><time>2026-04-19T14:07:40Z</time></trkpt><trkpt lat="42.18048229840406" lon="13.716054710348358"><ele>627.0</ele><time>2026-04-19T14:07:41Z</time></trkpt><trkpt lat="42.1803761979147" lon="13.716175766967481"><ele>627.0</ele><time>2026-04-19T14:07:42Z</time></trkpt><trkpt lat="42.18029135504175" lon="13.716296576744018"><ele>627.0</ele><time>2026-04-19T14:07:43Z</time></trkpt><trkpt lat="42.180201818941185" lon="13.716392536101749"><ele>627.0</ele><time>2026-04-19T14:07:44Z</time></trkpt><trkpt lat="42.18012112235179" lon="13.716490394780102"><ele>627.0</ele><time>2026-04-19T14:07:45Z</time></trkpt><trkpt lat="42.18005745175822" lon="13.7165887400287"><ele>627.0</ele><time>2026-04-19T14:07:46Z</time></trkpt><trkpt lat="42.18001385774711" lon="13.71669767643067"><ele>627.0</ele><time>2026-04-19T14:07:47Z</time></trkpt><trkpt lat="42.17998703090277" lon="13.716814635841997"><ele>627.0</ele><time>2026-04-19T14:07:48Z</time></trkpt><trkpt lat="42.18002435111921" lon="13.71695772469677"><ele>627.0</ele><time>2026-04-19T14:07:49Z</time></trkpt><trkpt lat="42.18008651113503" lon="13.717097182221295"><ele>627.0</ele><time>2026-04-19T14:07:50Z</time></trkpt><trkpt lat="42.18017925827258" lon="13.717232819539797"><ele>625.0</ele><time>2026-04-19T14:07:51Z</time></trkpt><trkpt lat="42.180300716375456" lon="13.717352233065863"><ele>623.0</ele><time>2026-04-19T14:07:52Z</time></trkpt><trkpt lat="42.18042947003522" lon="13.717460038563901"><ele>621.0</ele><time>2026-04-19T14:07:53Z</time></trkpt><trkpt lat="42.18052401221824" lon="13.717576918588875"><ele>619.0</ele><time>2026-04-19T14:07:54Z</time></trkpt><trkpt lat="42.1805968316631" lon="13.717659389042225"><ele>618.8333333333334</ele><time>2026-04-19T14:07:55Z</time></trkpt><trkpt lat="42.18065295794571" lon="13.717746704934369"><ele>618.6666666666667</ele><time>2026-04-19T14:07:56Z</time></trkpt><trkpt lat="42.18069349525031" lon="13.717856290764608"><ele>618.5</ele><time>2026-04-19T14:07:57Z</time></trkpt><trkpt lat="42.18070461386021" lon="13.717971515010174"><ele>618.3333333333334</ele><time>2026-04-19T14:07:58Z</time></trkpt><trkpt lat="42.180672552032796" lon="13.718077920738384"><ele>618.1666666666666</ele><time>2026-04-19T14:07:59Z</time></trkpt><trkpt lat="42.18062909524414" lon="13.71819080931456"><ele>618.0</ele><time>2026-04-19T14:08:00Z</time></trkpt><trkpt lat="42.180545154153684" lon="13.71826295303823"><ele>618.0</ele><time>2026-04-19T14:08:01Z</time></trkpt><trkpt lat="42.18043792391658" lon="13.718324349295708"><ele>618.0</ele><time>2026-04-19T14:08:02Z</time></trkpt><trkpt lat="42.18030197679779" lon="13.718392862995703"><ele>618.0</ele><time>2026-04-19T14:08:03Z</time></trkpt><trkpt lat="42.18015522084818" lon="13.718474337879574"><ele>618.0</ele><time>2026-04-19T14:08:04Z</time></trkpt><trkpt lat="42.17998936847673" lon="13.718543929455896"><ele>617.3333333333334</ele><time>2026-04-19T14:08:05Z</time></trkpt><trkpt lat="42.17981868991026" lon="13.718625459268825"><ele>616.6666666666667</ele><time>2026-04-19T14:08:06Z</time></trkpt><trkpt lat="42.17964610428804" lon="13.718710312024339"><ele>616.0</ele><time>2026-04-19T14:08:07Z</time></trkpt><trkpt lat="42.17948365836705" lon="13.718787858128222"><ele>616.0</ele><time>2026-04-19T14:08:08Z</time></trkpt><trkpt lat="42.17933857722357" lon="13.718861454773895"><ele>616.0</ele><time>2026-04-19T14:08:09Z</time></trkpt><trkpt lat="42.17920140019266" lon="13.71894663153649"><ele>616.0</ele><time>2026-04-19T14:08:10Z</time></trkpt><trkpt lat="42.17907716882425" lon="13.719041693671768"><ele>616.0</ele><time>2026-04-19T14:08:11Z</time></trkpt><trkpt lat="42.178970555623316" lon="13.719148994441927"><ele>614.25</ele><time>2026-04-19T14:08:12Z</time></trkpt><trkpt lat="42.17887550392182" lon="13.719286303874114"><ele>612.5</ele><time>2026-04-19T14:08:13Z</time></trkpt><trkpt lat="42.178806094011186" lon="13.719435857388735"><ele>610.75</ele><time>2026-04-19T14:08:14Z</time></trkpt><trkpt lat="42.178744138678354" lon="13.71958077859041"><ele>609.0</ele><time>2026-04-19T14:08:15Z</time></trkpt><trkpt lat="42.178680482669286" lon="13.719710756057978"><ele>609.0</ele><time>2026-04-19T14:08:16Z</time></trkpt><trkpt lat="42.178635161647605" lon="13.719844873064833"><ele>609.0</ele><time>2026-04-19T14:08:17Z</time></trkpt><trkpt lat="42.17859374567112" lon="13.719968853775264"><ele>609.0</ele><time>2026-04-19T14:08:18Z</time></trkpt><trkpt lat="42.17856837896632" lon="13.72009634193868"><ele>609.0</ele><time>2026-04-19T14:08:19Z</time></trkpt><trkpt lat="42.178515826969424" lon="13.72019762470002"><ele>609.0</ele><time>2026-04-19T14:08:20Z</time></trkpt><trkpt lat="42.178489887362225" lon="13.720304756964943"><ele>609.5</ele><time>2026-04-19T14:08:21Z</time></trkpt><trkpt lat="42.17844918514821" lon="13.720398708886927"><ele>610.0</ele><time>2026-04-19T14:08:22Z</time></trkpt><trkpt lat="42.17838335651344" lon="13.720459486506465"><ele>610.5</ele><time>2026-04-19T14:08:23Z</time></trkpt><trkpt lat="42.17829478372577" lon="13.720450043181733"><ele>611.0</ele><time>2026-04-19T14:08:24Z</time></trkpt><trkpt lat="42.17820372977526" lon="13.720449936810656"><ele>611.5</ele><time>2026-04-19T14:08:25Z</time></trkpt><trkpt lat="42.17811304551857" lon="13.720395651970557"><ele>612.0</ele><time>2026-04-19T14:08:26Z</time></trkpt><trkpt lat="42.17802641753946" lon="13.720315379067383"><ele>612.25</ele><time>2026-04-19T14:08:27Z</time></trkpt><trkpt lat="42.17795251826485" lon="13.720209149368722"><ele>612.5</ele><time>2026-04-19T14:08:28Z</time></trkpt><trkpt lat="42.17789807790467" lon="13.720077793941302"><ele>612.75</ele><time>2026-04-19T14:08:29Z</time></trkpt><trkpt lat="42.17786067086811" lon="13.719932645514197"><ele>613.0</ele><time>2026-04-19T14:08:30Z</time></trkpt><trkpt lat="42.177828103152756" lon="13.719781244432808"><ele>613.0</ele><time>2026-04-19T14:08:31Z</time></trkpt><trkpt lat="42.17779356322071" lon="13.719635827083094"><ele>613.0</ele><time>2026-04-19T14:08:32Z</time></trkpt><trkpt lat="42.17775990875566" lon="13.719503157197517"><ele>613.0</ele><time>2026-04-19T14:08:33Z</time></trkpt><trkpt lat="42.17772760899425" lon="13.71937784997866"><ele>613.0</ele><time>2026-04-19T14:08:34Z</time></trkpt><trkpt lat="42.17770031610599" lon="13.719258263998503"><ele>613.0</ele><time>2026-04-19T14:08:35Z</time></trkpt><trkpt lat="42.177670509759245" lon="13.719145691018106"><ele>611.8</ele><time>2026-04-19T14:08:36Z</time></trkpt><trkpt lat="42.1776420029821" lon="13.719034516272377"><ele>610.5999999999999</ele><time>2026-04-19T14:08:37Z</time></trkpt><trkpt lat="42.17760387674958" lon="13.71892243157053"><ele>609.4000000000001</ele><time>2026-04-19T14:08:38Z</time></trkpt><trkpt lat="42.17754958853988" lon="13.71880042561863"><ele>608.2</ele><time>2026-04-19T14:08:39Z</time></trkpt><trkpt lat="42.17748123813703" lon="13.718675430245531"><ele>607.0</ele><time>2026-04-19T14:08:40Z</time></trkpt><trkpt lat="42.17740585772783" lon="13.718550227288615"><ele>605.8000000000001</ele><time>2026-04-19T14:08:41Z</time></trkpt><trkpt lat="42.17732797559617" lon="13.718435707484018"><ele>604.6</ele><time>2026-04-19T14:08:42Z</time></trkpt><trkpt lat="42.177251174412504" lon="13.718325337677662"><ele>603.4000000000001</ele><time>2026-04-19T14:08:43Z</time></trkpt><trkpt lat="42.17717431543259" lon="13.718228665645928"><ele>602.2</ele><time>2026-04-19T14:08:44Z</time></trkpt><trkpt lat="42.17709365193393" lon="13.718142994039901"><ele>601.0</ele><time>2026-04-19T14:08:45Z</time></trkpt><trkpt lat="42.177009056093915" lon="13.718066934214797"><ele>601.0</ele><time>2026-04-19T14:08:46Z</time></trkpt><trkpt lat="42.17692590700519" lon="13.718002018724787"><ele>601.0</ele><time>2026-04-19T14:08:47Z</time></trkpt><trkpt lat="42.17684401484428" lon="13.717958441818668"><ele>601.0</ele><time>2026-04-19T14:08:48Z</time></trkpt><trkpt lat="42.176770652933136" lon="13.71793660321637"><ele>601.0</ele><time>2026-04-19T14:08:49Z</time></trkpt><trkpt lat="42.17666974237225" lon="13.717909297041414"><ele>601.0</ele><time>2026-04-19T14:08:51Z</time></trkpt><trkpt lat="42.176598072887124" lon="13.717888392015164"><ele>601.0</ele><time>2026-04-19T14:08:54Z</time></trkpt><trkpt lat="42.17671803690839" lon="13.718038756704711"><ele>601.0</ele><time>2026-04-19T14:08:58Z</time></trkpt><trkpt lat="42.176794632629836" lon="13.718078201097862"><ele>601.0</ele><time>2026-04-19T14:08:59Z</time></trkpt><trkpt lat="42.17683317424265" lon="13.718153346275345"><ele>601.0</ele><time>2026-04-19T14:09:00Z</time></trkpt><trkpt lat="42.176881563252145" lon="13.718264215544774"><ele>601.0</ele><time>2026-04-19T14:09:01Z</time></trkpt><trkpt lat="42.17689983733971" lon="13.718433854058933"><ele>601.0</ele><time>2026-04-19T14:09:02Z</time></trkpt><trkpt lat="42.17694365768325" lon="13.718602549674523"><ele>601.5</ele><time>2026-04-19T14:09:03Z</time></trkpt><trkpt lat="42.177000023594225" lon="13.718804579234835"><ele>602.0</ele><time>2026-04-19T14:09:04Z</time></trkpt><trkpt lat="42.17704639333918" lon="13.718997057032636"><ele>602.5</ele><time>2026-04-19T14:09:05Z</time></trkpt><trkpt lat="42.17708681313614" lon="13.719158073989716"><ele>603.0</ele><time>2026-04-19T14:09:06Z</time></trkpt><trkpt lat="42.17712696341474" lon="13.719307350715646"><ele>602.6666666666666</ele><time>2026-04-19T14:09:07Z</time></trkpt><trkpt lat="42.17717282017051" lon="13.71943327514051"><ele>602.3333333333334</ele><time>2026-04-19T14:09:08Z</time></trkpt><trkpt lat="42.177227136901514" lon="13.719525606647696"><ele>602.0</ele><time>2026-04-19T14:09:09Z</time></trkpt><trkpt lat="42.17724959048449" lon="13.719621904925146"><ele>601.6666666666667</ele><time>2026-04-19T14:09:10Z</time></trkpt><trkpt lat="42.17727625522317" lon="13.719722269470434"><ele>601.3333333333334</ele><time>2026-04-19T14:09:11Z</time></trkpt><trkpt lat="42.177303813895016" lon="13.719827855994668"><ele>601.0</ele><time>2026-04-19T14:09:12Z</time></trkpt><trkpt lat="42.17732324281664" lon="13.71994282131169"><ele>601.0</ele><time>2026-04-19T14:09:13Z</time></trkpt><trkpt lat="42.177345917540094" lon="13.72008029536412"><ele>601.0</ele><time>2026-04-19T14:09:14Z</time></trkpt><trkpt lat="42.17736834955518" lon="13.720234306118982"><ele>601.0</ele><time>2026-04-19T14:09:15Z</time></trkpt><trkpt lat="42.17739168653754" lon="13.720409291225945"><ele>601.0</ele><time>2026-04-19T14:09:16Z</time></trkpt><trkpt lat="42.17741739977775" lon="13.720596196965865"><ele>606.3333333333334</ele><time>2026-04-19T14:09:17Z</time></trkpt><trkpt lat="42.1774610081715" lon="13.720787501967129"><ele>611.6666666666666</ele><time>2026-04-19T14:09:18Z</time></trkpt><trkpt lat="42.177493161668906" lon="13.72098960691407"><ele>617.0</ele><time>2026-04-19T14:09:19Z</time></trkpt><trkpt lat="42.17751110436323" lon="13.72120195938546"><ele>619.0</ele><time>2026-04-19T14:09:20Z</time></trkpt><trkpt lat="42.17754540809791" lon="13.721415929901697"><ele>621.0</ele><time>2026-04-19T14:09:21Z</time></trkpt><trkpt lat="42.177592155959864" lon="13.721628040126744"><ele>623.0</ele><time>2026-04-19T14:09:22Z</time></trkpt><trkpt lat="42.17762529067203" lon="13.721845784627332"><ele>625.3333333333333</ele><time>2026-04-19T14:09:23Z</time></trkpt><trkpt lat="42.17765672160224" lon="13.722069378523416"><ele>627.6666666666666</ele><time>2026-04-19T14:09:24Z</time></trkpt><trkpt lat="42.17768652793214" lon="13.722294965881764"><ele>630.0</ele><time>2026-04-19T14:09:25Z</time></trkpt><trkpt lat="42.177713484190846" lon="13.722523523525478"><ele>632.3333333333334</ele><time>2026-04-19T14:09:26Z</time></trkpt><trkpt lat="42.17773636914994" lon="13.722772422430518"><ele>634.6666666666667</ele><time>2026-04-19T14:09:27Z</time></trkpt><trkpt lat="42.1777676549479" lon="13.723044009426587"><ele>637.0</ele><time>2026-04-19T14:09:28Z</time></trkpt><trkpt lat="42.17778936432324" lon="13.723334616629872"><ele>642.5</ele><time>2026-04-19T14:09:29Z</time></trkpt><trkpt lat="42.177828504601145" lon="13.723652424021898"><ele>648.0</ele><time>2026-04-19T14:09:30Z</time></trkpt><trkpt lat="42.17787311858548" lon="13.723981038714934"><ele>648.0</ele><time>2026-04-19T14:09:31Z</time></trkpt><trkpt lat="42.177925052184655" lon="13.724242177162411"><ele>648.0</ele><time>2026-04-19T14:09:32Z</time></trkpt><trkpt lat="42.17794013809621" lon="13.724504387944128"><ele>648.0</ele><time>2026-04-19T14:09:33Z</time></trkpt><trkpt lat="42.177962207432365" lon="13.724730699920489"><ele>652.3333333333334</ele><time>2026-04-19T14:09:34Z</time></trkpt><trkpt lat="42.177975395343026" lon="13.724935301019029"><ele>656.6666666666667</ele><time>2026-04-19T14:09:35Z</time></trkpt><trkpt lat="42.177980159355826" lon="13.725131154792601"><ele>661.0</ele><time>2026-04-19T14:09:36Z</time></trkpt><trkpt lat="42.17796670221756" lon="13.725345377576044"><ele>663.5</ele><time>2026-04-19T14:09:37Z</time></trkpt><trkpt lat="42.17794585870955" lon="13.725509280740262"><ele>666.0</ele><time>2026-04-19T14:09:38Z</time></trkpt><trkpt lat="42.1779120807885" lon="13.725655154032442"><ele>668.5</ele><time>2026-04-19T14:09:39Z</time></trkpt><trkpt lat="42.17786006055435" lon="13.725784637783997"><ele>671.0</ele><time>2026-04-19T14:09:40Z</time></trkpt><trkpt lat="42.17778657035382" lon="13.72591734539278"><ele>671.0</ele><time>2026-04-19T14:09:41Z</time></trkpt><trkpt lat="42.1777063759484" lon="13.72605706179938"><ele>671.0</ele><time>2026-04-19T14:09:42Z</time></trkpt><trkpt lat="42.177644407831245" lon="13.726168602659277"><ele>671.0</ele><time>2026-04-19T14:09:43Z</time></trkpt><trkpt lat="42.17761105019514" lon="13.726274009885048"><ele>671.0</ele><time>2026-04-19T14:09:44Z</time></trkpt><trkpt lat="42.177584378818864" lon="13.726382006708564"><ele>671.0</ele><time>2026-04-19T14:09:45Z</time></trkpt><trkpt lat="42.1775941749096" lon="13.726528778674679"><ele>671.75</ele><time>2026-04-19T14:09:46Z</time></trkpt><trkpt lat="42.1776371020726" lon="13.726692042607942"><ele>672.5</ele><time>2026-04-19T14:09:47Z</time></trkpt><trkpt lat="42.17770807393256" lon="13.726860633271341"><ele>673.25</ele><time>2026-04-19T14:09:48Z</time></trkpt><trkpt lat="42.1778082154315" lon="13.727023979373934"><ele>674.0</ele><time>2026-04-19T14:09:49Z</time></trkpt><trkpt lat="42.177928194270116" lon="13.727172064538806"><ele>674.25</ele><time>2026-04-19T14:09:50Z</time></trkpt><trkpt lat="42.1780565751616" lon="13.727311069970561"><ele>674.5</ele><time>2026-04-19T14:09:51Z</time></trkpt><trkpt lat="42.178173342754285" lon="13.727442334194029"><ele>674.75</ele><time>2026-04-19T14:09:52Z</time></trkpt><trkpt lat="42.1782535243852" lon="13.727573446772528"><ele>675.0</ele><time>2026-04-19T14:09:53Z</time></trkpt><trkpt lat="42.17831053516254" lon="13.727680465243056"><ele>678.0</ele><time>2026-04-19T14:09:54Z</time></trkpt><trkpt lat="42.17834496733581" lon="13.727788362545668"><ele>681.0</ele><time>2026-04-19T14:09:55Z</time></trkpt><trkpt lat="42.17831843106149" lon="13.727902146635705"><ele>684.0</ele><time>2026-04-19T14:09:56Z</time></trkpt><trkpt lat="42.17829826449701" lon="13.728052411217822"><ele>687.0</ele><time>2026-04-19T14:09:57Z</time></trkpt><trkpt lat="42.178271794904674" lon="13.728226421630374"><ele>690.0</ele><time>2026-04-19T14:09:58Z</time></trkpt><trkpt lat="42.17824050875934" lon="13.728423518018632"><ele>693.0</ele><time>2026-04-19T14:09:59Z</time></trkpt><trkpt lat="42.17820108767492" lon="13.728648272004662"><ele>696.0</ele><time>2026-04-19T14:10:00Z</time></trkpt><trkpt lat="42.17814482762118" lon="13.72888647537352"><ele>699.0</ele><time>2026-04-19T14:10:01Z</time></trkpt><trkpt lat="42.17806206700557" lon="13.729135221407045"><ele>699.0</ele><time>2026-04-19T14:10:02Z</time></trkpt><trkpt lat="42.177969307549546" lon="13.729384179185665"><ele>699.0</ele><time>2026-04-19T14:10:03Z</time></trkpt><trkpt lat="42.17788036550351" lon="13.72961913120647"><ele>699.0</ele><time>2026-04-19T14:10:04Z</time></trkpt><trkpt lat="42.17779247099864" lon="13.729843104195663"><ele>702.3333333333334</ele><time>2026-04-19T14:10:05Z</time></trkpt><trkpt lat="42.177711431909394" lon="13.730048721724046"><ele>705.6666666666667</ele><time>2026-04-19T14:10:06Z</time></trkpt><trkpt lat="42.177656318207845" lon="13.7302314853043"><ele>709.0</ele><time>2026-04-19T14:10:07Z</time></trkpt><trkpt lat="42.1775880531988" lon="13.730410093512143"><ele>709.75</ele><time>2026-04-19T14:10:08Z</time></trkpt><trkpt lat="42.17753666495524" lon="13.730582673079347"><ele>710.5</ele><time>2026-04-19T14:10:09Z</time></trkpt><trkpt lat="42.177510314727584" lon="13.73075711491547"><ele>711.25</ele><time>2026-04-19T14:10:10Z</time></trkpt><trkpt lat="42.17751155855176" lon="13.730947175583834"><ele>712.0</ele><time>2026-04-19T14:10:11Z</time></trkpt><trkpt lat="42.17755064252145" lon="13.731152433605276"><ele>713.25</ele><time>2026-04-19T14:10:12Z</time></trkpt><trkpt lat="42.17759973434953" lon="13.731353838274162"><ele>714.5</ele><time>2026-04-19T14:10:13Z</time></trkpt><trkpt lat="42.177578088253455" lon="13.731518013690899"><ele>715.75</ele><time>2026-04-19T14:10:14Z</time></trkpt><trkpt lat="42.177538857809665" lon="13.731657431368983"><ele>717.0</ele><time>2026-04-19T14:10:15Z</time></trkpt><trkpt lat="42.17746016170458" lon="13.73181871891868"><ele>715.3333333333334</ele><time>2026-04-19T14:10:16Z</time></trkpt><trkpt lat="42.177374862619985" lon="13.732019163580254"><ele>713.6666666666667</ele><time>2026-04-19T14:10:17Z</time></trkpt><trkpt lat="42.17728264696561" lon="13.732230247392762"><ele>712.0</ele><time>2026-04-19T14:10:18Z</time></trkpt><trkpt lat="42.17720203711087" lon="13.732447638606805"><ele>712.0</ele><time>2026-04-19T14:10:19Z</time></trkpt><trkpt lat="42.1771032761784" lon="13.732600608840855"><ele>712.0</ele><time>2026-04-19T14:10:20Z</time></trkpt><trkpt lat="42.17700675316659" lon="13.732730973304168"><ele>712.0</ele><time>2026-04-19T14:10:21Z</time></trkpt><trkpt lat="42.17689034155531" lon="13.732849273669991"><ele>712.0</ele><time>2026-04-19T14:10:22Z</time></trkpt><trkpt lat="42.17678854967343" lon="13.732947918011076"><ele>716.0</ele><time>2026-04-19T14:10:23Z</time></trkpt><trkpt lat="42.17669437964712" lon="13.733021378492282"><ele>720.0</ele><time>2026-04-19T14:10:24Z</time></trkpt><trkpt lat="42.17662593440486" lon="13.733106481842455"><ele>724.0</ele><time>2026-04-19T14:10:25Z</time></trkpt><trkpt lat="42.17656326304122" lon="13.733203286166638"><ele>728.0</ele><time>2026-04-19T14:10:26Z</time></trkpt><trkpt lat="42.17653424202658" lon="13.733353170597077"><ele>732.0</ele><time>2026-04-19T14:10:27Z</time></trkpt><trkpt lat="42.176533765259165" lon="13.73353453791475"><ele>733.25</ele><time>2026-04-19T14:10:28Z</time></trkpt><trkpt lat="42.17653076321027" lon="13.733720557922279"><ele>734.5</ele><time>2026-04-19T14:10:29Z</time></trkpt><trkpt lat="42.17647040064397" lon="13.733890414375885"><ele>735.75</ele><time>2026-04-19T14:10:30Z</time></trkpt><trkpt lat="42.176401615397175" lon="13.734056866621735"><ele>737.0</ele><time>2026-04-19T14:10:31Z</time></trkpt><trkpt lat="42.17631253689872" lon="13.734220828743487"><ele>737.0</ele><time>2026-04-19T14:10:32Z</time></trkpt><trkpt lat="42.17620763672217" lon="13.734382299254408"><ele>737.0</ele><time>2026-04-19T14:10:33Z</time></trkpt><trkpt lat="42.176132193283145" lon="13.734564542741987"><ele>737.0</ele><time>2026-04-19T14:10:34Z</time></trkpt><trkpt lat="42.176076679452244" lon="13.734725124836661"><ele>737.0</ele><time>2026-04-19T14:10:35Z</time></trkpt><trkpt lat="42.17603800748505" lon="13.734888267746518"><ele>739.25</ele><time>2026-04-19T14:10:36Z</time></trkpt><trkpt lat="42.176011404839684" lon="13.735058191124576"><ele>741.5</ele><time>2026-04-19T14:10:37Z</time></trkpt><trkpt lat="42.17600271287716" lon="13.735246891148668"><ele>743.75</ele><time>2026-04-19T14:10:38Z</time></trkpt><trkpt lat="42.17602040438597" lon="13.735454824153512"><ele>746.0</ele><time>2026-04-19T14:10:39Z</time></trkpt><trkpt lat="42.17601995229264" lon="13.735670886097967"><ele>748.3333333333333</ele><time>2026-04-19T14:10:40Z</time></trkpt><trkpt lat="42.17602174682122" lon="13.735888906641136"><ele>750.6666666666666</ele><time>2026-04-19T14:10:41Z</time></trkpt><trkpt lat="42.17600181310767" lon="13.736104582636901"><ele>753.0</ele><time>2026-04-19T14:10:42Z</time></trkpt><trkpt lat="42.175958860493" lon="13.736315474069833"><ele>757.6666666666666</ele><time>2026-04-19T14:10:43Z</time></trkpt><trkpt lat="42.17592634181219" lon="13.736545210718964"><ele>762.3333333333333</ele><time>2026-04-19T14:10:44Z</time></trkpt><trkpt lat="42.1758614992979" lon="13.73677604137173"><ele>767.0</ele><time>2026-04-19T14:10:45Z</time></trkpt><trkpt lat="42.175789931276725" lon="13.737008033418284"><ele>770.0</ele><time>2026-04-19T14:10:46Z</time></trkpt><trkpt lat="42.17572016427537" lon="13.737243918979415"><ele>773.0</ele><time>2026-04-19T14:10:47Z</time></trkpt><trkpt lat="42.17563727448054" lon="13.737455612093589"><ele>776.0</ele><time>2026-04-19T14:10:48Z</time></trkpt><trkpt lat="42.17558073295239" lon="13.737661046215514"><ele>780.0</ele><time>2026-04-19T14:10:49Z</time></trkpt><trkpt lat="42.17553078067069" lon="13.737867600674347"><ele>784.0</ele><time>2026-04-19T14:10:50Z</time></trkpt><trkpt lat="42.17548803311874" lon="13.738083582619012"><ele>788.0</ele><time>2026-04-19T14:10:51Z</time></trkpt><trkpt lat="42.17545173298809" lon="13.738297043966073"><ele>788.0</ele><time>2026-04-19T14:10:52Z</time></trkpt><trkpt lat="42.1754112998005" lon="13.73849776810916"><ele>788.0</ele><time>2026-04-19T14:10:53Z</time></trkpt><trkpt lat="42.17534377711694" lon="13.738647987355208"><ele>788.0</ele><time>2026-04-19T14:10:54Z</time></trkpt><trkpt lat="42.175258398549495" lon="13.738782157784685"><ele>788.0</ele><time>2026-04-19T14:10:55Z</time></trkpt><trkpt lat="42.175155163907164" lon="13.738912141290577"><ele>790.0</ele><time>2026-04-19T14:10:56Z</time></trkpt><trkpt lat="42.175053764193436" lon="13.739047660248511"><ele>792.0</ele><time>2026-04-19T14:10:57Z</time></trkpt><trkpt lat="42.17498389850628" lon="13.739182186279532"><ele>794.0</ele><time>2026-04-19T14:10:58Z</time></trkpt><trkpt lat="42.174928409945565" lon="13.739317226014274"><ele>796.0</ele><time>2026-04-19T14:10:59Z</time></trkpt><trkpt lat="42.174904824023656" lon="13.73950396978507"><ele>799.6666666666666</ele><time>2026-04-19T14:11:00Z</time></trkpt><trkpt lat="42.17492033389873" lon="13.739718545562447"><ele>803.3333333333333</ele><time>2026-04-19T14:11:01Z</time></trkpt><trkpt lat="42.17497050847075" lon="13.739901466998289"><ele>807.0</ele><time>2026-04-19T14:11:02Z</time></trkpt><trkpt lat="42.17505941870004" lon="13.740062809345797"><ele>811.0</ele><time>2026-04-19T14:11:03Z</time></trkpt><trkpt lat="42.175166219360165" lon="13.74024315955322"><ele>815.0</ele><time>2026-04-19T14:11:04Z</time></trkpt><trkpt lat="42.175272013007785" lon="13.740422365176448"><ele>819.0</ele><time>2026-04-19T14:11:05Z</time></trkpt><trkpt lat="42.17537014946796" lon="13.740568256611516"><ele>819.0</ele><time>2026-04-19T14:11:06Z</time></trkpt><trkpt lat="42.17543628064925" lon="13.740699661717594"><ele>819.0</ele><time>2026-04-19T14:11:07Z</time></trkpt><trkpt lat="42.17547985387367" lon="13.740827215772788"><ele>819.0</ele><time>2026-04-19T14:11:08Z</time></trkpt><trkpt lat="42.17552095719951" lon="13.740924807994414"><ele>819.0</ele><time>2026-04-19T14:11:09Z</time></trkpt><trkpt lat="42.17554273878265" lon="13.74101470585146"><ele>819.0</ele><time>2026-04-19T14:11:10Z</time></trkpt><trkpt lat="42.17556607593257" lon="13.741106012731619"><ele>819.0</ele><time>2026-04-19T14:11:11Z</time></trkpt><trkpt lat="42.17549851017098" lon="13.741186623257034"><ele>824.2</ele><time>2026-04-19T14:11:12Z</time></trkpt><trkpt lat="42.17543527300964" lon="13.741253905298409"><ele>829.4000000000001</ele><time>2026-04-19T14:11:13Z</time></trkpt><trkpt lat="42.175368602581074" lon="13.741296594795353"><ele>834.6</ele><time>2026-04-19T14:11:14Z</time></trkpt><trkpt lat="42.1752842812326" lon="13.741270704316758"><ele>839.8</ele><time>2026-04-19T14:11:15Z</time></trkpt><trkpt lat="42.17520432667741" lon="13.74118595996199"><ele>845.0</ele><time>2026-04-19T14:11:16Z</time></trkpt><trkpt lat="42.175118925751136" lon="13.741070404533149"><ele>843.5</ele><time>2026-04-19T14:11:17Z</time></trkpt><trkpt lat="42.17502599753964" lon="13.740947228593635"><ele>842.0</ele><time>2026-04-19T14:11:18Z</time></trkpt><trkpt lat="42.17491662933609" lon="13.740809127515284"><ele>840.5</ele><time>2026-04-19T14:11:19Z</time></trkpt><trkpt lat="42.17479247391946" lon="13.740664335452726"><ele>839.0</ele><time>2026-04-19T14:11:20Z</time></trkpt><trkpt lat="42.174651040974005" lon="13.740531864773303"><ele>839.0</ele><time>2026-04-19T14:11:21Z</time></trkpt><trkpt lat="42.17449379341423" lon="13.740418165150459"><ele>839.0</ele><time>2026-04-19T14:11:22Z</time></trkpt><trkpt lat="42.17434772383284" lon="13.740330817775861"><ele>839.0</ele><time>2026-04-19T14:11:23Z</time></trkpt><trkpt lat="42.174239260453334" lon="13.740270676496358"><ele>839.0</ele><time>2026-04-19T14:11:24Z</time></trkpt><trkpt lat="42.17414866436638" lon="13.740224465798558"><ele>839.0</ele><time>2026-04-19T14:11:25Z</time></trkpt><trkpt lat="42.174052899480515" lon="13.740218934614857"><ele>839.0</ele><time>2026-04-19T14:11:26Z</time></trkpt><trkpt lat="42.1739469612752" lon="13.740259923052733"><ele>839.0</ele><time>2026-04-19T14:11:27Z</time></trkpt><trkpt lat="42.17383916790961" lon="13.740339311320255"><ele>839.0</ele><time>2026-04-19T14:11:28Z</time></trkpt><trkpt lat="42.173740470615435" lon="13.740435867108364"><ele>839.75</ele><time>2026-04-19T14:11:29Z</time></trkpt><trkpt lat="42.17364867128718" lon="13.740555126223835"><ele>840.5</ele><time>2026-04-19T14:11:30Z</time></trkpt><trkpt lat="42.173554263709555" lon="13.740670698720397"><ele>841.25</ele><time>2026-04-19T14:11:31Z</time></trkpt><trkpt lat="42.17346556768377" lon="13.740790128261354"><ele>842.0</ele><time>2026-04-19T14:11:32Z</time></trkpt><trkpt lat="42.173403900770346" lon="13.740947372587565"><ele>844.0</ele><time>2026-04-19T14:11:33Z</time></trkpt><trkpt lat="42.173352346201334" lon="13.741126228895988"><ele>846.0</ele><time>2026-04-19T14:11:34Z</time></trkpt><trkpt lat="42.17328973441274" lon="13.741307586465854"><ele>848.0</ele><time>2026-04-19T14:11:35Z</time></trkpt><trkpt lat="42.17322354242649" lon="13.741468943014967"><ele>850.0</ele><time>2026-04-19T14:11:36Z</time></trkpt><trkpt lat="42.173136940843555" lon="13.741596491059738"><ele>850.75</ele><time>2026-04-19T14:11:37Z</time></trkpt><trkpt lat="42.17303286851762" lon="13.741716830861396"><ele>851.5</ele><time>2026-04-19T14:11:38Z</time></trkpt><trkpt lat="42.17292482440756" lon="13.74182428498027"><ele>852.25</ele><time>2026-04-19T14:11:39Z</time></trkpt><trkpt lat="42.17283180011479" lon="13.741911845183427"><ele>853.0</ele><time>2026-04-19T14:11:40Z</time></trkpt><trkpt lat="42.17275794379375" lon="13.741947380323587"><ele>853.0</ele><time>2026-04-19T14:11:41Z</time></trkpt><trkpt lat="42.172673300186055" lon="13.741927893912395"><ele>853.0</ele><time>2026-04-19T14:11:42Z</time></trkpt><trkpt lat="42.172578389675394" lon="13.74186055039022"><ele>853.0</ele><time>2026-04-19T14:11:43Z</time></trkpt><trkpt lat="42.17248215137768" lon="13.74178513346634"><ele>853.0</ele><time>2026-04-19T14:11:44Z</time></trkpt><trkpt lat="42.17237857286753" lon="13.741747008049009"><ele>853.0</ele><time>2026-04-19T14:11:45Z</time></trkpt><trkpt lat="42.172272836218646" lon="13.741763117216394"><ele>857.0</ele><time>2026-04-19T14:11:46Z</time></trkpt><trkpt lat="42.17216877285106" lon="13.741844591372463"><ele>861.0</ele><time>2026-04-19T14:11:47Z</time></trkpt><trkpt lat="42.17207378163447" lon="13.741986137754681"><ele>865.0</ele><time>2026-04-19T14:11:48Z</time></trkpt><trkpt lat="42.171987043238815" lon="13.742162763829352"><ele>869.0</ele><time>2026-04-19T14:11:49Z</time></trkpt><trkpt lat="42.171919749462205" lon="13.742352631737539"><ele>869.0</ele><time>2026-04-19T14:11:50Z</time></trkpt><trkpt lat="42.171879508467406" lon="13.74251802888279"><ele>869.0</ele><time>2026-04-19T14:11:51Z</time></trkpt><trkpt lat="42.171890234417624" lon="13.742664072096945"><ele>869.0</ele><time>2026-04-19T14:11:52Z</time></trkpt><trkpt lat="42.17191718049076" lon="13.742812712412064"><ele>869.0</ele><time>2026-04-19T14:11:53Z</time></trkpt><trkpt lat="42.17197538109685" lon="13.742964060079839"><ele>869.0</ele><time>2026-04-19T14:11:54Z</time></trkpt><trkpt lat="42.1720284814746" lon="13.743128876420974"><ele>869.0</ele><time>2026-04-19T14:11:55Z</time></trkpt><trkpt lat="42.172097761758415" lon="13.743290224778079"><ele>869.0</ele><time>2026-04-19T14:11:56Z</time></trkpt><trkpt lat="42.172191577917324" lon="13.743434674422378"><ele>869.0</ele><time>2026-04-19T14:11:57Z</time></trkpt><trkpt lat="42.17227028471187" lon="13.74359616390483"><ele>874.75</ele><time>2026-04-19T14:11:58Z</time></trkpt><trkpt lat="42.17236763033488" lon="13.743728821034543"><ele>880.5</ele><time>2026-04-19T14:11:59Z</time></trkpt><trkpt lat="42.172486944543934" lon="13.743837379292518"><ele>886.25</ele><time>2026-04-19T14:12:00Z</time></trkpt><trkpt lat="42.17262529372171" lon="13.743943786393919"><ele>892.0</ele><time>2026-04-19T14:12:01Z</time></trkpt><trkpt lat="42.17276101298551" lon="13.744066647092842"><ele>892.0</ele><time>2026-04-19T14:12:02Z</time></trkpt><trkpt lat="42.172906163367145" lon="13.74415595906853"><ele>892.0</ele><time>2026-04-19T14:12:03Z</time></trkpt><trkpt lat="42.17303493380612" lon="13.744241134905359"><ele>892.0</ele><time>2026-04-19T14:12:04Z</time></trkpt><trkpt lat="42.17316248024974" lon="13.74430819658608"><ele>892.0</ele><time>2026-04-19T14:12:05Z</time></trkpt><trkpt lat="42.173302162955785" lon="13.744351568728632"><ele>891.0</ele><time>2026-04-19T14:12:06Z</time></trkpt><trkpt lat="42.173451065250305" lon="13.74435837270955"><ele>890.0</ele><time>2026-04-19T14:12:07Z</time></trkpt><trkpt lat="42.17361485734039" lon="13.744349674010687"><ele>889.0</ele><time>2026-04-19T14:12:08Z</time></trkpt><trkpt lat="42.17378685751409" lon="13.74432500923969"><ele>889.0</ele><time>2026-04-19T14:12:09Z</time></trkpt><trkpt lat="42.17396101987294" lon="13.744278518501321"><ele>889.0</ele><time>2026-04-19T14:12:10Z</time></trkpt><trkpt lat="42.174134209094035" lon="13.744215593128144"><ele>889.0</ele><time>2026-04-19T14:12:11Z</time></trkpt><trkpt lat="42.174292211445106" lon="13.744156977324772"><ele>892.3333333333333</ele><time>2026-04-19T14:12:12Z</time></trkpt><trkpt lat="42.17443541037197" lon="13.744128619968063"><ele>895.6666666666667</ele><time>2026-04-19T14:12:13Z</time></trkpt><trkpt lat="42.1745852385896" lon="13.74415751813799"><ele>899.0</ele><time>2026-04-19T14:12:14Z</time></trkpt><trkpt lat="42.17475007437826" lon="13.744185528154913"><ele>901.3333333333334</ele><time>2026-04-19T14:12:15Z</time></trkpt><trkpt lat="42.17491971394192" lon="13.74422812236016"><ele>903.6666666666667</ele><time>2026-04-19T14:12:16Z</time></trkpt><trkpt lat="42.175096719385046" lon="13.744256052267955"><ele>906.0</ele><time>2026-04-19T14:12:17Z</time></trkpt><trkpt lat="42.17527042691743" lon="13.744291947309975"><ele>906.0</ele><time>2026-04-19T14:12:18Z</time></trkpt><trkpt lat="42.17543089771137" lon="13.744324072577497"><ele>906.0</ele><time>2026-04-19T14:12:19Z</time></trkpt><trkpt lat="42.175561032955784" lon="13.744377933146808"><ele>906.0</ele><time>2026-04-19T14:12:20Z</time></trkpt><trkpt lat="42.17568924602786" lon="13.744394546031721"><ele>906.0</ele><time>2026-04-19T14:12:21Z</time></trkpt><trkpt lat="42.17580654119308" lon="13.744433581637177"><ele>911.5</ele><time>2026-04-19T14:12:22Z</time></trkpt><trkpt lat="42.17590795810282" lon="13.744490418087715"><ele>917.0</ele><time>2026-04-19T14:12:23Z</time></trkpt><trkpt lat="42.17600163073652" lon="13.744576761247215"><ele>922.5</ele><time>2026-04-19T14:12:24Z</time></trkpt><trkpt lat="42.17606167613587" lon="13.744714642799865"><ele>928.0</ele><time>2026-04-19T14:12:25Z</time></trkpt><trkpt lat="42.176134282291066" lon="13.744850993991784"><ele>928.0</ele><time>2026-04-19T14:12:26Z</time></trkpt><trkpt lat="42.17621257215464" lon="13.744992963780902"><ele>928.0</ele><time>2026-04-19T14:12:27Z</time></trkpt><trkpt lat="42.17629293627862" lon="13.745137996464253"><ele>928.0</ele><time>2026-04-19T14:12:28Z</time></trkpt><trkpt lat="42.17636775050975" lon="13.745273013183185"><ele>928.0</ele><time>2026-04-19T14:12:29Z</time></trkpt><trkpt lat="42.176434637287315" lon="13.7453950187646"><ele>931.5999999999999</ele><time>2026-04-19T14:12:30Z</time></trkpt><trkpt lat="42.17648764330598" lon="13.7455172082131"><ele>935.1999999999999</ele><time>2026-04-19T14:12:31Z</time></trkpt><trkpt lat="42.17651318351118" lon="13.745640965809775"><ele>938.8</ele><time>2026-04-19T14:12:32Z</time></trkpt><trkpt lat="42.17651466357258" lon="13.745770178460702"><ele>942.4</ele><time>2026-04-19T14:12:33Z</time></trkpt><trkpt lat="42.17650608313273" lon="13.74591381512437"><ele>946.0</ele><time>2026-04-19T14:12:34Z</time></trkpt><trkpt lat="42.17649609254882" lon="13.746065291692634"><ele>948.4</ele><time>2026-04-19T14:12:35Z</time></trkpt><trkpt lat="42.17650331174481" lon="13.746216775112034"><ele>950.8</ele><time>2026-04-19T14:12:36Z</time></trkpt><trkpt lat="42.176490508699956" lon="13.746361704864272"><ele>953.1999999999999</ele><time>2026-04-19T14:12:37Z</time></trkpt><trkpt lat="42.1765105800571" lon="13.746518526140907"><ele>955.5999999999999</ele><time>2026-04-19T14:12:38Z</time></trkpt><trkpt lat="42.17651399475226" lon="13.746668056503282"><ele>958.0</ele><time>2026-04-19T14:12:39Z</time></trkpt><trkpt lat="42.176513058585684" lon="13.746823180434426"><ele>955.4</ele><time>2026-04-19T14:12:40Z</time></trkpt><trkpt lat="42.17654448949289" lon="13.746968183360396"><ele>952.8</ele><time>2026-04-19T14:12:41Z</time></trkpt><trkpt lat="42.176568916851075" lon="13.747109847388517"><ele>950.2</ele><time>2026-04-19T14:12:42Z</time></trkpt><trkpt lat="42.17662083207337" lon="13.747240651181668"><ele>947.6</ele><time>2026-04-19T14:12:43Z</time></trkpt><trkpt lat="42.1766999625604" lon="13.747354289149305"><ele>945.0</ele><time>2026-04-19T14:12:44Z</time></trkpt><trkpt lat="42.176807192471756" lon="13.747424569176296"><ele>945.0</ele><time>2026-04-19T14:12:45Z</time></trkpt><trkpt lat="42.1769326769537" lon="13.747465147218676"><ele>945.0</ele><time>2026-04-19T14:12:46Z</time></trkpt><trkpt lat="42.17706305084955" lon="13.747511245873717"><ele>945.0</ele><time>2026-04-19T14:12:47Z</time></trkpt><trkpt lat="42.17718901551242" lon="13.747574410190422"><ele>945.0</ele><time>2026-04-19T14:12:48Z</time></trkpt><trkpt lat="42.177319420318284" lon="13.747634023814147"><ele>945.0</ele><time>2026-04-19T14:12:49Z</time></trkpt><trkpt lat="42.17745558100712" lon="13.7476763587183"><ele>945.0</ele><time>2026-04-19T14:12:50Z</time></trkpt><trkpt lat="42.177594867698545" lon="13.747688352276256"><ele>945.0</ele><time>2026-04-19T14:12:51Z</time></trkpt><trkpt lat="42.17773696470578" lon="13.747685610304682"><ele>945.0</ele><time>2026-04-19T14:12:52Z</time></trkpt><trkpt lat="42.177874353736975" lon="13.747683389751023"><ele>945.0</ele><time>2026-04-19T14:12:53Z</time></trkpt><trkpt lat="42.17801374565067" lon="13.747681268584046"><ele>945.0</ele><time>2026-04-19T14:12:54Z</time></trkpt><trkpt lat="42.1781547151763" lon="13.747680703732707"><ele>945.0</ele><time>2026-04-19T14:12:55Z</time></trkpt><trkpt lat="42.17829130834586" lon="13.747675056281185"><ele>945.0</ele><time>2026-04-19T14:12:56Z</time></trkpt><trkpt lat="42.178425804516024" lon="13.74768265406341"><ele>947.0</ele><time>2026-04-19T14:12:57Z</time></trkpt><trkpt lat="42.178562130736765" lon="13.747667939802794"><ele>949.0</ele><time>2026-04-19T14:12:58Z</time></trkpt><trkpt lat="42.1786947719628" lon="13.7476247607033"><ele>951.0</ele><time>2026-04-19T14:12:59Z</time></trkpt><trkpt lat="42.178821242087686" lon="13.747564656205975"><ele>953.0</ele><time>2026-04-19T14:13:00Z</time></trkpt><trkpt lat="42.178955399896715" lon="13.747499328926336"><ele>956.25</ele><time>2026-04-19T14:13:01Z</time></trkpt><trkpt lat="42.1790854545881" lon="13.747436650123252"><ele>959.5</ele><time>2026-04-19T14:13:02Z</time></trkpt><trkpt lat="42.179217507576716" lon="13.747371572217553"><ele>962.75</ele><time>2026-04-19T14:13:03Z</time></trkpt><trkpt lat="42.179343362095686" lon="13.747306669322189"><ele>966.0</ele><time>2026-04-19T14:13:04Z</time></trkpt><trkpt lat="42.17946125487044" lon="13.747250965971366"><ele>966.0</ele><time>2026-04-19T14:13:05Z</time></trkpt><trkpt lat="42.17958029610861" lon="13.747196225698218"><ele>965.9999999999999</ele><time>2026-04-19T14:13:06Z</time></trkpt><trkpt lat="42.17969995554489" lon="13.747146960633756"><ele>965.9999999999999</ele><time>2026-04-19T14:13:07Z</time></trkpt><trkpt lat="42.17980598288734" lon="13.747123338087961"><ele>966.0</ele><time>2026-04-19T14:13:08Z</time></trkpt><trkpt lat="42.17989212344609" lon="13.747112652895519"><ele>966.0</ele><time>2026-04-19T14:13:09Z</time></trkpt><trkpt lat="42.17998800138338" lon="13.747188347197548"><ele>966.0</ele><time>2026-04-19T14:13:11Z</time></trkpt><trkpt lat="42.17999472338668" lon="13.747353598800188"><ele>966.0</ele><time>2026-04-19T14:13:13Z</time></trkpt><trkpt lat="42.17992514983373" lon="13.747409013754732"><ele>966.0</ele><time>2026-04-19T14:13:14Z</time></trkpt><trkpt lat="42.17985541958339" lon="13.74744552105243"><ele>966.0</ele><time>2026-04-19T14:13:15Z</time></trkpt><trkpt lat="42.179775984462424" lon="13.747459700818377"><ele>966.0</ele><time>2026-04-19T14:13:16Z</time></trkpt><trkpt lat="42.17969376833182" lon="13.74750958678316"><ele>966.0</ele><time>2026-04-19T14:13:17Z</time></trkpt><trkpt lat="42.17961429895067" lon="13.747560192286361"><ele>966.0</ele><time>2026-04-19T14:13:18Z</time></trkpt><trkpt lat="42.17953933541991" lon="13.747654548374122"><ele>966.0</ele><time>2026-04-19T14:13:19Z</time></trkpt><trkpt lat="42.17943931291846" lon="13.747743118776516"><ele>966.0</ele><time>2026-04-19T14:13:20Z</time></trkpt><trkpt lat="42.17934126811148" lon="13.747842395578534"><ele>966.0</ele><time>2026-04-19T14:13:21Z</time></trkpt><trkpt lat="42.179238558047814" lon="13.747948014387411"><ele>969.25</ele><time>2026-04-19T14:13:22Z</time></trkpt><trkpt lat="42.17913952895027" lon="13.748076924053676"><ele>972.5</ele><time>2026-04-19T14:13:23Z</time></trkpt><trkpt lat="42.17902178048482" lon="13.748191510513747"><ele>975.75</ele><time>2026-04-19T14:13:24Z</time></trkpt><trkpt lat="42.178906957972934" lon="13.748313813860651"><ele>979.0</ele><time>2026-04-19T14:13:25Z</time></trkpt><trkpt lat="42.178782085852646" lon="13.748439661669902"><ele>986.6666666666666</ele><time>2026-04-19T14:13:26Z</time></trkpt><trkpt lat="42.178654205093224" lon="13.748563148964159"><ele>994.3333333333333</ele><time>2026-04-19T14:13:27Z</time></trkpt><trkpt lat="42.178512869686585" lon="13.748654953962202"><ele>1002.0</ele><time>2026-04-19T14:13:28Z</time></trkpt><trkpt lat="42.178376372348545" lon="13.74875308085896"><ele>1002.0</ele><time>2026-04-19T14:13:29Z</time></trkpt><trkpt lat="42.17824891965486" lon="13.748869427798082"><ele>1002.0</ele><time>2026-04-19T14:13:30Z</time></trkpt><trkpt lat="42.17811641419038" lon="13.748964029432821"><ele>1002.0</ele><time>2026-04-19T14:13:31Z</time></trkpt><trkpt lat="42.177984063157794" lon="13.749052402381167"><ele>1000.5</ele><time>2026-04-19T14:13:32Z</time></trkpt><trkpt lat="42.177856238602445" lon="13.749142318248891"><ele>999.0</ele><time>2026-04-19T14:13:33Z</time></trkpt><trkpt lat="42.177731062900705" lon="13.749235551749923"><ele>997.5</ele><time>2026-04-19T14:13:34Z</time></trkpt><trkpt lat="42.17760294504543" lon="13.749327270076911"><ele>996.0</ele><time>2026-04-19T14:13:35Z</time></trkpt><trkpt lat="42.17747229986082" lon="13.749417697673593"><ele>1001.75</ele><time>2026-04-19T14:13:36Z</time></trkpt><trkpt lat="42.1773390672403" lon="13.749500144114817"><ele>1007.5</ele><time>2026-04-19T14:13:37Z</time></trkpt><trkpt lat="42.17720048473508" lon="13.749560712946506"><ele>1013.25</ele><time>2026-04-19T14:13:38Z</time></trkpt><trkpt lat="42.177058407119574" lon="13.749602941637539"><ele>1019.0</ele><time>2026-04-19T14:13:39Z</time></trkpt><trkpt lat="42.176915682388874" lon="13.749649299145458"><ele>1019.0</ele><time>2026-04-19T14:13:40Z</time></trkpt><trkpt lat="42.17677442546786" lon="13.749695215421799"><ele>1019.0</ele><time>2026-04-19T14:13:41Z</time></trkpt><trkpt lat="42.176634150691285" lon="13.749743106838745"><ele>1019.0</ele><time>2026-04-19T14:13:42Z</time></trkpt><trkpt lat="42.17649548889734" lon="13.749793648399057"><ele>1019.0</ele><time>2026-04-19T14:13:43Z</time></trkpt><trkpt lat="42.17636083961763" lon="13.749852390030854"><ele>1018.4000000000001</ele><time>2026-04-19T14:13:44Z</time></trkpt><trkpt lat="42.17624599709474" lon="13.749911669380184"><ele>1017.8000000000001</ele><time>2026-04-19T14:13:45Z</time></trkpt><trkpt lat="42.17614685842664" lon="13.749965083782524"><ele>1017.1999999999999</ele><time>2026-04-19T14:13:46Z</time></trkpt><trkpt lat="42.17604830297843" lon="13.750021566740731"><ele>1016.5999999999999</ele><time>2026-04-19T14:13:47Z</time></trkpt><trkpt lat="42.175955100555655" lon="13.750079345502815"><ele>1016.0</ele><time>2026-04-19T14:13:48Z</time></trkpt><trkpt lat="42.17587092496029" lon="13.750133237997588"><ele>1016.0</ele><time>2026-04-19T14:13:49Z</time></trkpt><trkpt lat="42.17580422536436" lon="13.750197919504876"><ele>1015.9999999999999</ele><time>2026-04-19T14:13:50Z</time></trkpt><trkpt lat="42.17576356569531" lon="13.750295561254685"><ele>1015.9999999999999</ele><time>2026-04-19T14:13:51Z</time></trkpt><trkpt lat="42.17576414489237" lon="13.750415695119942"><ele>1016.0</ele><time>2026-04-19T14:13:52Z</time></trkpt><trkpt lat="42.17582425716421" lon="13.750517951906268"><ele>1016.0</ele><time>2026-04-19T14:13:53Z</time></trkpt><trkpt lat="42.17593202431906" lon="13.75057206129927"><ele>1020.75</ele><time>2026-04-19T14:13:54Z</time></trkpt><trkpt lat="42.176056483907864" lon="13.750551487500843"><ele>1025.5</ele><time>2026-04-19T14:13:55Z</time></trkpt><trkpt lat="42.176192875452365" lon="13.750495431012151"><ele>1030.25</ele><time>2026-04-19T14:13:56Z</time></trkpt><trkpt lat="42.17634480629648" lon="13.750439406230875"><ele>1035.0</ele><time>2026-04-19T14:13:57Z</time></trkpt><trkpt lat="42.17649833391139" lon="13.750441415805412"><ele>1037.0</ele><time>2026-04-19T14:13:58Z</time></trkpt><trkpt lat="42.17665400936528" lon="13.75045101335241"><ele>1039.0</ele><time>2026-04-19T14:13:59Z</time></trkpt><trkpt lat="42.176820168496754" lon="13.750443676328079"><ele>1041.0</ele><time>2026-04-19T14:14:00Z</time></trkpt><trkpt lat="42.177003387758624" lon="13.75047420715454"><ele>1041.0</ele><time>2026-04-19T14:14:01Z</time></trkpt><trkpt lat="42.17721459764309" lon="13.750503542809861"><ele>1041.0</ele><time>2026-04-19T14:14:02Z</time></trkpt><trkpt lat="42.177434553232345" lon="13.750526981257234"><ele>1041.0</ele><time>2026-04-19T14:14:03Z</time></trkpt><trkpt lat="42.17763358735288" lon="13.750549139190724"><ele>1040.6666666666667</ele><time>2026-04-19T14:14:04Z</time></trkpt><trkpt lat="42.1778087003169" lon="13.750572256582252"><ele>1040.3333333333335</ele><time>2026-04-19T14:14:05Z</time></trkpt><trkpt lat="42.17797976429345" lon="13.750600119361742"><ele>1040.0</ele><time>2026-04-19T14:14:06Z</time></trkpt><trkpt lat="42.1781485397677" lon="13.750643130784946"><ele>1040.0</ele><time>2026-04-19T14:14:07Z</time></trkpt><trkpt lat="42.178309710032515" lon="13.750703903182659"><ele>1040.0</ele><time>2026-04-19T14:14:08Z</time></trkpt><trkpt lat="42.17845642689444" lon="13.750770766877242"><ele>1040.0</ele><time>2026-04-19T14:14:09Z</time></trkpt><trkpt lat="42.178583216653195" lon="13.750836995096032"><ele>1040.0</ele><time>2026-04-19T14:14:10Z</time></trkpt><trkpt lat="42.17869087665769" lon="13.750908316355106"><ele>1040.0</ele><time>2026-04-19T14:14:11Z</time></trkpt><trkpt lat="42.178781280153565" lon="13.750978435893845"><ele>1040.0</ele><time>2026-04-19T14:14:12Z</time></trkpt><trkpt lat="42.17885496113195" lon="13.751054140995858"><ele>1040.0</ele><time>2026-04-19T14:14:13Z</time></trkpt><trkpt lat="42.17888550959413" lon="13.75114816378219"><ele>1040.0</ele><time>2026-04-19T14:14:14Z</time></trkpt><trkpt lat="42.178916227068285" lon="13.751287879560888"><ele>1042.75</ele><time>2026-04-19T14:14:16Z</time></trkpt><trkpt lat="42.178910169085135" lon="13.751378008211018"><ele>1045.5</ele><time>2026-04-19T14:14:18Z</time></trkpt><trkpt lat="42.17873582563037" lon="13.75150684709746"><ele>1048.25</ele><time>2026-04-19T14:14:21Z</time></trkpt><trkpt lat="42.178647782650614" lon="13.751542507720988"><ele>1051.0</ele><time>2026-04-19T14:14:22Z</time></trkpt><trkpt lat="42.17853713501337" lon="13.751559620862468"><ele>1051.0</ele><time>2026-04-19T14:14:23Z</time></trkpt><trkpt lat="42.17844171041193" lon="13.751573786479453"><ele>1051.0</ele><time>2026-04-19T14:14:24Z</time></trkpt><trkpt lat="42.178350551312946" lon="13.751589276483669"><ele>1051.0</ele><time>2026-04-19T14:14:25Z</time></trkpt><trkpt lat="42.17826174677723" lon="13.751621877558485"><ele>1051.0</ele><time>2026-04-19T14:14:26Z</time></trkpt><trkpt lat="42.178175732970466" lon="13.7516544538301"><ele>1051.0</ele><time>2026-04-19T14:14:27Z</time></trkpt><trkpt lat="42.178085120460054" lon="13.751687608604662"><ele>1051.3999999999999</ele><time>2026-04-19T14:14:28Z</time></trkpt><trkpt lat="42.17799059445821" lon="13.751731746849465"><ele>1051.8</ele><time>2026-04-19T14:14:29Z</time></trkpt><trkpt lat="42.17790588326733" lon="13.751789978211992"><ele>1052.1999999999998</ele><time>2026-04-19T14:14:30Z</time></trkpt><trkpt lat="42.17784183798177" lon="13.751844461983408"><ele>1052.6</ele><time>2026-04-19T14:14:31Z</time></trkpt><trkpt lat="42.17776166336935" lon="13.751935227287188"><ele>1053.0</ele><time>2026-04-19T14:14:33Z</time></trkpt><trkpt lat="42.17767754388991" lon="13.752000855810042"><ele>1054.2</ele><time>2026-04-19T14:14:35Z</time></trkpt><trkpt lat="42.17758339028891" lon="13.75203378447482"><ele>1055.4</ele><time>2026-04-19T14:14:37Z</time></trkpt><trkpt lat="42.17750022531192" lon="13.752018823567045"><ele>1056.6000000000001</ele><time>2026-04-19T14:14:39Z</time></trkpt><trkpt lat="42.17740298381544" lon="13.75198035794959"><ele>1057.8</ele><time>2026-04-19T14:15:05Z</time></trkpt><trkpt lat="42.17733013769091" lon="13.752027182002193"><ele>1059.0</ele><time>2026-04-19T14:15:06Z</time></trkpt><trkpt lat="42.177244746500534" lon="13.752064448232607"><ele>1059.0</ele><time>2026-04-19T14:15:07Z</time></trkpt><trkpt lat="42.17716356517703" lon="13.752107529052946"><ele>1059.0</ele><time>2026-04-19T14:15:08Z</time></trkpt><trkpt lat="42.17709184680954" lon="13.752170732615328"><ele>1059.0</ele><time>2026-04-19T14:15:09Z</time></trkpt><trkpt lat="42.17704016336943" lon="13.752229812684085"><ele>1059.0</ele><time>2026-04-19T14:15:10Z</time></trkpt><trkpt lat="42.17698087531831" lon="13.752267831015052"><ele>1059.0</ele><time>2026-04-19T14:15:14Z</time></trkpt><trkpt lat="42.17699825547419" lon="13.752174366842771"><ele>1059.0</ele><time>2026-04-19T14:18:14Z</time></trkpt><trkpt lat="42.17706125475007" lon="13.752167892585597"><ele>1059.0</ele><time>2026-04-19T14:18:16Z</time></trkpt><trkpt lat="42.17713851997366" lon="13.752132587316941"><ele>1059.0</ele><time>2026-04-19T14:18:18Z</time></trkpt><trkpt lat="42.17719999937901" lon="13.752084987699693"><ele>1059.0</ele><time>2026-04-19T14:18:20Z</time></trkpt><trkpt lat="42.17726303072034" lon="13.75204916429676"><ele>1059.0</ele><time>2026-04-19T14:18:22Z</time></trkpt><trkpt lat="42.17736756634256" lon="13.752017061535327"><ele>1059.0</ele><time>2026-04-19T14:18:24Z</time></trkpt><trkpt lat="42.17743425771137" lon="13.752007636166976"><ele>1059.0</ele><time>2026-04-19T14:18:25Z</time></trkpt><trkpt lat="42.17755299896672" lon="13.752000462956655"><ele>1059.0</ele><time>2026-04-19T14:18:26Z</time></trkpt><trkpt lat="42.17763428524135" lon="13.751991444173362"><ele>1059.2</ele><time>2026-04-19T14:18:27Z</time></trkpt><trkpt lat="42.17773496919946" lon="13.751939961237321"><ele>1059.4</ele><time>2026-04-19T14:18:29Z</time></trkpt><trkpt lat="42.17782865686588" lon="13.751856831657703"><ele>1059.6</ele><time>2026-04-19T14:18:31Z</time></trkpt><trkpt lat="42.17792371420531" lon="13.751775473608014"><ele>1059.8</ele><time>2026-04-19T14:18:33Z</time></trkpt><trkpt lat="42.178004911831785" lon="13.751718116773597"><ele>1060.0</ele><time>2026-04-19T14:18:35Z</time></trkpt><trkpt lat="42.17809611622666" lon="13.751664053367255"><ele>1058.8333333333333</ele><time>2026-04-19T14:18:37Z</time></trkpt><trkpt lat="42.17817416659392" lon="13.75163316854646"><ele>1057.6666666666665</ele><time>2026-04-19T14:18:39Z</time></trkpt><trkpt lat="42.17826740950247" lon="13.751601085047705"><ele>1056.5</ele><time>2026-04-19T14:18:41Z</time></trkpt><trkpt lat="42.17836145935467" lon="13.751573790801801"><ele>1055.3333333333333</ele><time>2026-04-19T14:18:43Z</time></trkpt><trkpt lat="42.17844533128617" lon="13.751547927147215"><ele>1054.1666666666667</ele><time>2026-04-19T14:18:45Z</time></trkpt><trkpt lat="42.17852455720033" lon="13.75153110007551"><ele>1053.0</ele><time>2026-04-19T14:18:47Z</time></trkpt><trkpt lat="42.17860659510742" lon="13.751523669075874"><ele>1052.6666666666667</ele><time>2026-04-19T14:18:49Z</time></trkpt><trkpt lat="42.17869743170309" lon="13.751506568203903"><ele>1052.3333333333333</ele><time>2026-04-19T14:18:51Z</time></trkpt><trkpt lat="42.17878150253581" lon="13.751462108886713"><ele>1052.0</ele><time>2026-04-19T14:18:53Z</time></trkpt><trkpt lat="42.17886870835413" lon="13.751434479163088"><ele>1051.6666666666665</ele><time>2026-04-19T14:18:55Z</time></trkpt><trkpt lat="42.17894559497331" lon="13.751449071132356"><ele>1051.3333333333333</ele><time>2026-04-19T14:18:57Z</time></trkpt><trkpt lat="42.17899805883584" lon="13.751511556403395"><ele>1051.0</ele><time>2026-04-19T14:18:59Z</time></trkpt><trkpt lat="42.1789916677577" lon="13.751663389916777"><ele>1051.0</ele><time>2026-04-19T14:19:01Z</time></trkpt><trkpt lat="42.179001950245635" lon="13.751751801308428"><ele>1051.0</ele><time>2026-04-19T14:19:02Z</time></trkpt><trkpt lat="42.17902421433984" lon="13.75184512105461"><ele>1051.0</ele><time>2026-04-19T14:19:03Z</time></trkpt><trkpt lat="42.17902676919" lon="13.751946962837827"><ele>1051.0</ele><time>2026-04-19T14:19:04Z</time></trkpt><trkpt lat="42.179003214193386" lon="13.752046506071109"><ele>1051.0</ele><time>2026-04-19T14:19:05.001Z</time></trkpt><trkpt lat="42.17897764413209" lon="13.752129216244677"><ele>1051.0</ele><time>2026-04-19T14:19:06.001Z</time></trkpt><trkpt lat="42.178951428877724" lon="13.752214093522712"><ele>1051.0</ele><time>2026-04-19T14:19:07.001Z</time></trkpt><trkpt lat="42.17891775086171" lon="13.752315729162268"><ele>1051.1666666666665</ele><time>2026-04-19T14:19:08.001Z</time></trkpt><trkpt lat="42.17888579615214" lon="13.75242394750387"><ele>1051.3333333333333</ele><time>2026-04-19T14:19:09.001Z</time></trkpt><trkpt lat="42.1788629175198" lon="13.752540313164664"><ele>1051.5</ele><time>2026-04-19T14:19:10.001Z</time></trkpt><trkpt lat="42.17886922417896" lon="13.75266641206482"><ele>1051.6666666666667</ele><time>2026-04-19T14:19:11.001Z</time></trkpt><trkpt lat="42.17886010347012" lon="13.75277930202071"><ele>1051.8333333333335</ele><time>2026-04-19T14:19:12.001Z</time></trkpt><trkpt lat="42.17886890472743" lon="13.752893922094675"><ele>1052.0</ele><time>2026-04-19T14:19:13.001Z</time></trkpt><trkpt lat="42.17888330240206" lon="13.75301362037379"><ele>1051.0</ele><time>2026-04-19T14:19:14.001Z</time></trkpt><trkpt lat="42.17888924682192" lon="13.7531490517811"><ele>1050.0</ele><time>2026-04-19T14:19:15.001Z</time></trkpt><trkpt lat="42.17888034756709" lon="13.75329970107027"><ele>1049.0</ele><time>2026-04-19T14:19:16.001Z</time></trkpt><trkpt lat="42.178873745351694" lon="13.753444501839903"><ele>1048.0</ele><time>2026-04-19T14:19:17.001Z</time></trkpt><trkpt lat="42.17886015595604" lon="13.753570242264546"><ele>1047.0</ele><time>2026-04-19T14:19:18.001Z</time></trkpt><trkpt lat="42.178825857021316" lon="13.753671488502272"><ele>1044.3333333333333</ele><time>2026-04-19T14:19:19.001Z</time></trkpt><trkpt lat="42.17877772505899" lon="13.753754148754062"><ele>1041.6666666666667</ele><time>2026-04-19T14:19:20.001Z</time></trkpt><trkpt lat="42.178722308560666" lon="13.753841089834385"><ele>1039.0</ele><time>2026-04-19T14:19:21.001Z</time></trkpt><trkpt lat="42.178653829251395" lon="13.75390817097191"><ele>1036.3333333333335</ele><time>2026-04-19T14:19:22.001Z</time></trkpt><trkpt lat="42.17857670316106" lon="13.753952695087284"><ele>1033.6666666666667</ele><time>2026-04-19T14:19:23.001Z</time></trkpt><trkpt lat="42.17848187036858" lon="13.753994710376215"><ele>1031.0</ele><time>2026-04-19T14:19:24.001Z</time></trkpt><trkpt lat="42.178383396323945" lon="13.75402975768687"><ele>1031.0</ele><time>2026-04-19T14:19:25.001Z</time></trkpt><trkpt lat="42.17828827914656" lon="13.75406513431794"><ele>1031.0</ele><time>2026-04-19T14:19:26.001Z</time></trkpt><trkpt lat="42.17820096131944" lon="13.754097610110659"><ele>1031.0</ele><time>2026-04-19T14:19:27.001Z</time></trkpt><trkpt lat="42.178115793151235" lon="13.754128299681703"><ele>1031.0</ele><time>2026-04-19T14:19:28.001Z</time></trkpt><trkpt lat="42.17803791905988" lon="13.754155532017982"><ele>1031.0</ele><time>2026-04-19T14:19:29.001Z</time></trkpt><trkpt lat="42.17797455324268" lon="13.754193276080665"><ele>1031.0</ele><time>2026-04-19T14:19:30.001Z</time></trkpt><trkpt lat="42.17790543016684" lon="13.754220353067028"><ele>1030.6666666666667</ele><time>2026-04-19T14:19:31.001Z</time></trkpt><trkpt lat="42.17784195768574" lon="13.754231019651886"><ele>1030.3333333333335</ele><time>2026-04-19T14:19:32.001Z</time></trkpt><trkpt lat="42.17772026665234" lon="13.754240595021672"><ele>1030.0</ele><time>2026-04-19T14:19:34.001Z</time></trkpt><trkpt lat="42.17762832015354" lon="13.754260182447391"><ele>1029.6666666666667</ele><time>2026-04-19T14:19:36Z</time></trkpt><trkpt lat="42.17757407679199" lon="13.754318398678295"><ele>1029.3333333333333</ele><time>2026-04-19T14:19:38Z</time></trkpt><trkpt lat="42.17754076532671" lon="13.754414329469553"><ele>1029.0</ele><time>2026-04-19T14:19:40Z</time></trkpt><trkpt lat="42.17759087586925" lon="13.754486593797646"><ele>1025.1666666666667</ele><time>2026-04-19T14:19:41Z</time></trkpt><trkpt lat="42.17764711829241" lon="13.754526029050858"><ele>1021.3333333333333</ele><time>2026-04-19T14:19:42Z</time></trkpt><trkpt lat="42.177712471071885" lon="13.754535406134144"><ele>1017.5</ele><time>2026-04-19T14:19:43Z</time></trkpt><trkpt lat="42.177775689166424" lon="13.754526186352011"><ele>1013.6666666666666</ele><time>2026-04-19T14:19:44Z</time></trkpt><trkpt lat="42.1778766193401" lon="13.754521588043069"><ele>1009.8333333333333</ele><time>2026-04-19T14:19:46Z</time></trkpt><trkpt lat="42.17797928871963" lon="13.754513708538893"><ele>1006.0</ele><time>2026-04-19T14:19:47Z</time></trkpt><trkpt lat="42.17805670355405" lon="13.754514927230364"><ele>1005.9999999999999</ele><time>2026-04-19T14:19:48Z</time></trkpt><trkpt lat="42.17812733968207" lon="13.75454045509979"><ele>1006.0</ele><time>2026-04-19T14:19:49Z</time></trkpt><trkpt lat="42.17819467227727" lon="13.754553274336876"><ele>1006.0</ele><time>2026-04-19T14:19:50Z</time></trkpt><trkpt lat="42.178265393919865" lon="13.75454638822898"><ele>1006.0</ele><time>2026-04-19T14:19:51Z</time></trkpt><trkpt lat="42.17833433813695" lon="13.75456337873455"><ele>1005.9999999999999</ele><time>2026-04-19T14:19:52Z</time></trkpt><trkpt lat="42.17840056645477" lon="13.75457827974477"><ele>1006.0</ele><time>2026-04-19T14:19:53Z</time></trkpt><trkpt lat="42.178520058362" lon="13.754602066321175"><ele>1005.8333333333333</ele><time>2026-04-19T14:19:55Z</time></trkpt><trkpt lat="42.178649127328164" lon="13.754616337978439"><ele>1005.6666666666666</ele><time>2026-04-19T14:19:57Z</time></trkpt><trkpt lat="42.17872179521654" lon="13.754617450753003"><ele>1005.5</ele><time>2026-04-19T14:19:58Z</time></trkpt><trkpt lat="42.17879553811955" lon="13.754606415240481"><ele>1005.3333333333333</ele><time>2026-04-19T14:19:59Z</time></trkpt><trkpt lat="42.178866748583026" lon="13.754595935338175"><ele>1005.1666666666666</ele><time>2026-04-19T14:20:00Z</time></trkpt><trkpt lat="42.17893559485253" lon="13.754576158156716"><ele>1005.0</ele><time>2026-04-19T14:20:01Z</time></trkpt><trkpt lat="42.17900536924174" lon="13.75455844942899"><ele>1004.5714285714287</ele><time>2026-04-19T14:20:02Z</time></trkpt><trkpt lat="42.17907397418192" lon="13.754540720998257"><ele>1004.1428571428571</ele><time>2026-04-19T14:20:03Z</time></trkpt><trkpt lat="42.17914398490601" lon="13.754522322876499"><ele>1003.7142857142858</ele><time>2026-04-19T14:20:04Z</time></trkpt><trkpt lat="42.17921228446851" lon="13.7544997660474"><ele>1003.2857142857143</ele><time>2026-04-19T14:20:05Z</time></trkpt><trkpt lat="42.17927956609896" lon="13.754466047152437"><ele>1002.8571428571429</ele><time>2026-04-19T14:20:06Z</time></trkpt><trkpt lat="42.17934147314642" lon="13.754426418822831"><ele>1002.4285714285714</ele><time>2026-04-19T14:20:07Z</time></trkpt><trkpt lat="42.179402703283934" lon="13.754378010614692"><ele>1002.0</ele><time>2026-04-19T14:20:08Z</time></trkpt><trkpt lat="42.17945628719208" lon="13.75432199767903"><ele>1002.0</ele><time>2026-04-19T14:20:09Z</time></trkpt><trkpt lat="42.17951123295224" lon="13.754279103827544"><ele>1002.0</ele><time>2026-04-19T14:20:10Z</time></trkpt><trkpt lat="42.17957377087131" lon="13.754263687871923"><ele>1002.0</ele><time>2026-04-19T14:20:11Z</time></trkpt><trkpt lat="42.179637211445296" lon="13.754273770609592"><ele>1002.0</ele><time>2026-04-19T14:20:12Z</time></trkpt><trkpt lat="42.1796943835531" lon="13.75431513883672"><ele>1002.0</ele><time>2026-04-19T14:20:13Z</time></trkpt><trkpt lat="42.17974111434712" lon="13.75437612239086"><ele>1002.0</ele><time>2026-04-19T14:20:14Z</time></trkpt><trkpt lat="42.17974186527045" lon="13.754484468353652"><ele>1002.0</ele><time>2026-04-19T14:20:15Z</time></trkpt><trkpt lat="42.179760165844705" lon="13.754595653322287"><ele>1002.0</ele><time>2026-04-19T14:20:16Z</time></trkpt><trkpt lat="42.17974899921061" lon="13.754771398787488"><ele>1002.0</ele><time>2026-04-19T14:20:18Z</time></trkpt><trkpt lat="42.17975664155696" lon="13.754878809976969"><ele>1002.0</ele><time>2026-04-19T14:20:19Z</time></trkpt><trkpt lat="42.17977112824639" lon="13.754995030873305"><ele>1002.0</ele><time>2026-04-19T14:20:20Z</time></trkpt><trkpt lat="42.17980543196511" lon="13.755102714626217"><ele>1002.0</ele><time>2026-04-19T14:20:21Z</time></trkpt><trkpt lat="42.179810445963234" lon="13.755224672316885"><ele>1001.1666666666666</ele><time>2026-04-19T14:20:22Z</time></trkpt><trkpt lat="42.17982908112468" lon="13.755338498660855"><ele>1000.3333333333333</ele><time>2026-04-19T14:20:23Z</time></trkpt><trkpt lat="42.179846810367174" lon="13.75545415265513"><ele>999.5</ele><time>2026-04-19T14:20:24Z</time></trkpt><trkpt lat="42.17986439345833" lon="13.755570494893732"><ele>998.6666666666666</ele><time>2026-04-19T14:20:25Z</time></trkpt><trkpt lat="42.17988123599104" lon="13.75569048781691"><ele>997.8333333333333</ele><time>2026-04-19T14:20:26Z</time></trkpt><trkpt lat="42.179896767054444" lon="13.755813816733248"><ele>997.0</ele><time>2026-04-19T14:20:27Z</time></trkpt><trkpt lat="42.17992184881155" lon="13.755943677419152"><ele>995.0</ele><time>2026-04-19T14:20:28Z</time></trkpt><trkpt lat="42.17993549459238" lon="13.756077699477869"><ele>993.0</ele><time>2026-04-19T14:20:29Z</time></trkpt><trkpt lat="42.1799620040448" lon="13.756211663473676"><ele>991.0</ele><time>2026-04-19T14:20:30Z</time></trkpt><trkpt lat="42.179993125177546" lon="13.756342239164734"><ele>989.0</ele><time>2026-04-19T14:20:31Z</time></trkpt><trkpt lat="42.180016563178654" lon="13.756472037831392"><ele>987.0</ele><time>2026-04-19T14:20:32Z</time></trkpt><trkpt lat="42.180013936802716" lon="13.756608495451525"><ele>987.0</ele><time>2026-04-19T14:20:33Z</time></trkpt><trkpt lat="42.18001444742453" lon="13.75674594536091"><ele>987.0</ele><time>2026-04-19T14:20:34Z</time></trkpt><trkpt lat="42.17998466185313" lon="13.756870060462429"><ele>987.0</ele><time>2026-04-19T14:20:35Z</time></trkpt><trkpt lat="42.179954230933" lon="13.757003665276102"><ele>987.0</ele><time>2026-04-19T14:20:36Z</time></trkpt><trkpt lat="42.17992000479179" lon="13.75713174042001"><ele>987.0</ele><time>2026-04-19T14:20:37Z</time></trkpt><trkpt lat="42.17988115113434" lon="13.757260663352568"><ele>980.2</ele><time>2026-04-19T14:20:38Z</time></trkpt><trkpt lat="42.17983960398645" lon="13.757390508164951"><ele>973.4000000000001</ele><time>2026-04-19T14:20:39Z</time></trkpt><trkpt lat="42.1797962563137" lon="13.75752150561112"><ele>966.5999999999999</ele><time>2026-04-19T14:20:40Z</time></trkpt><trkpt lat="42.17975004643342" lon="13.757654018404567"><ele>959.8</ele><time>2026-04-19T14:20:41Z</time></trkpt><trkpt lat="42.17970261520291" lon="13.757787003470943"><ele>953.0</ele><time>2026-04-19T14:20:42Z</time></trkpt><trkpt lat="42.17966667962856" lon="13.757927814980787"><ele>953.0</ele><time>2026-04-19T14:20:43Z</time></trkpt><trkpt lat="42.17960141527924" lon="13.758050528073417"><ele>953.0</ele><time>2026-04-19T14:20:44Z</time></trkpt><trkpt lat="42.17954888166652" lon="13.758183054164535"><ele>953.0</ele><time>2026-04-19T14:20:45Z</time></trkpt><trkpt lat="42.17950676548141" lon="13.758325150857504"><ele>953.0</ele><time>2026-04-19T14:20:46Z</time></trkpt><trkpt lat="42.17945304856703" lon="13.758455997367559"><ele>953.0</ele><time>2026-04-19T14:20:47Z</time></trkpt><trkpt lat="42.1793854824267" lon="13.75858282986539"><ele>953.75</ele><time>2026-04-19T14:20:48Z</time></trkpt><trkpt lat="42.17933110248985" lon="13.758715667324301"><ele>954.5</ele><time>2026-04-19T14:20:49Z</time></trkpt><trkpt lat="42.17929820690038" lon="13.758854416903377"><ele>955.25</ele><time>2026-04-19T14:20:50Z</time></trkpt><trkpt lat="42.17925616797779" lon="13.759005537336389"><ele>956.0</ele><time>2026-04-19T14:20:51Z</time></trkpt><trkpt lat="42.17923367001352" lon="13.75916321392731"><ele>956.0</ele><time>2026-04-19T14:20:52Z</time></trkpt><trkpt lat="42.17922373131655" lon="13.759329075551051"><ele>956.0</ele><time>2026-04-19T14:20:53Z</time></trkpt><trkpt lat="42.17920177012398" lon="13.759489433499667"><ele>956.0</ele><time>2026-04-19T14:20:54Z</time></trkpt><trkpt lat="42.17917819359359" lon="13.75965644841019"><ele>956.0</ele><time>2026-04-19T14:20:55Z</time></trkpt><trkpt lat="42.17915134487232" lon="13.759822378102045"><ele>955.5</ele><time>2026-04-19T14:20:56Z</time></trkpt><trkpt lat="42.1791200044406" lon="13.759985865631371"><ele>955.0</ele><time>2026-04-19T14:20:57Z</time></trkpt><trkpt lat="42.17909199825359" lon="13.760144908801855"><ele>954.5</ele><time>2026-04-19T14:20:58Z</time></trkpt><trkpt lat="42.17906870639884" lon="13.760307835669114"><ele>954.0</ele><time>2026-04-19T14:20:59Z</time></trkpt><trkpt lat="42.17905690868395" lon="13.760472225359699"><ele>952.75</ele><time>2026-04-19T14:21:00Z</time></trkpt><trkpt lat="42.179059707749445" lon="13.760635937131305"><ele>951.5</ele><time>2026-04-19T14:21:01Z</time></trkpt><trkpt lat="42.17907369044276" lon="13.760797180736885"><ele>950.25</ele><time>2026-04-19T14:21:02Z</time></trkpt><trkpt lat="42.17908702739199" lon="13.760954800352334"><ele>949.0</ele><time>2026-04-19T14:21:03Z</time></trkpt><trkpt lat="42.179099272610955" lon="13.761114788352518"><ele>945.5</ele><time>2026-04-19T14:21:04Z</time></trkpt><trkpt lat="42.17911757241631" lon="13.76127631292525"><ele>942.0</ele><time>2026-04-19T14:21:05Z</time></trkpt><trkpt lat="42.17913700547804" lon="13.761438518079778"><ele>938.5</ele><time>2026-04-19T14:21:06Z</time></trkpt><trkpt lat="42.17915513798789" lon="13.761603551536187"><ele>935.0</ele><time>2026-04-19T14:21:07Z</time></trkpt><trkpt lat="42.17914729744833" lon="13.761767019240386"><ele>933.0</ele><time>2026-04-19T14:21:08Z</time></trkpt><trkpt lat="42.179145913975745" lon="13.761927078479543"><ele>931.0</ele><time>2026-04-19T14:21:09Z</time></trkpt><trkpt lat="42.179160296569194" lon="13.762082931708242"><ele>929.0</ele><time>2026-04-19T14:21:10Z</time></trkpt><trkpt lat="42.17916129900575" lon="13.762232903864563"><ele>927.0</ele><time>2026-04-19T14:21:11.001Z</time></trkpt><trkpt lat="42.179168512872685" lon="13.762379413225178"><ele>927.0</ele><time>2026-04-19T14:21:12.001Z</time></trkpt><trkpt lat="42.17917537932123" lon="13.762517481121717"><ele>927.0</ele><time>2026-04-19T14:21:13.001Z</time></trkpt><trkpt lat="42.179188158461095" lon="13.762651212652758"><ele>927.0</ele><time>2026-04-19T14:21:14.001Z</time></trkpt><trkpt lat="42.17920022429742" lon="13.76278080421595"><ele>927.0</ele><time>2026-04-19T14:21:15.001Z</time></trkpt><trkpt lat="42.179217750812484" lon="13.76290752704269"><ele>927.0</ele><time>2026-04-19T14:21:16.001Z</time></trkpt><trkpt lat="42.17923583227047" lon="13.76303091391176"><ele>925.0</ele><time>2026-04-19T14:21:17.001Z</time></trkpt><trkpt lat="42.17925500337327" lon="13.763152327094774"><ele>923.0</ele><time>2026-04-19T14:21:18.001Z</time></trkpt><trkpt lat="42.17927305771233" lon="13.763273634915016"><ele>921.0</ele><time>2026-04-19T14:21:19.001Z</time></trkpt><trkpt lat="42.17927907990594" lon="13.763396044536739"><ele>919.0</ele><time>2026-04-19T14:21:20.001Z</time></trkpt><trkpt lat="42.179314515712754" lon="13.763510620225071"><ele>917.0</ele><time>2026-04-19T14:21:21.001Z</time></trkpt><trkpt lat="42.17933489402057" lon="13.763627367199264"><ele>914.1666666666667</ele><time>2026-04-19T14:21:22.001Z</time></trkpt><trkpt lat="42.17935770225821" lon="13.763736865301048"><ele>911.3333333333334</ele><time>2026-04-19T14:21:23.001Z</time></trkpt><trkpt lat="42.17938048630874" lon="13.763838737518597"><ele>908.5</ele><time>2026-04-19T14:21:24.001Z</time></trkpt><trkpt lat="42.179405739049834" lon="13.763935688554099"><ele>905.6666666666667</ele><time>2026-04-19T14:21:25.001Z</time></trkpt><trkpt lat="42.17943539899366" lon="13.764026454687022"><ele>902.8333333333334</ele><time>2026-04-19T14:21:26.001Z</time></trkpt><trkpt lat="42.17946915535624" lon="13.764115409889936"><ele>900.0</ele><time>2026-04-19T14:21:27.001Z</time></trkpt><trkpt lat="42.17950945252097" lon="13.764198653682165"><ele>900.0</ele><time>2026-04-19T14:21:28.001Z</time></trkpt><trkpt lat="42.17956197827138" lon="13.764278935498519"><ele>900.0</ele><time>2026-04-19T14:21:29.001Z</time></trkpt><trkpt lat="42.179626406749506" lon="13.764351495664966"><ele>900.0</ele><time>2026-04-19T14:21:30.001Z</time></trkpt><trkpt lat="42.17970187510746" lon="13.76441130600302"><ele>900.0</ele><time>2026-04-19T14:21:31.001Z</time></trkpt><trkpt lat="42.17978059335722" lon="13.764467550364408"><ele>900.0</ele><time>2026-04-19T14:21:32.001Z</time></trkpt><trkpt lat="42.179860293761585" lon="13.764529857011889"><ele>900.0</ele><time>2026-04-19T14:21:33Z</time></trkpt><trkpt lat="42.17993901372575" lon="13.764603219084137"><ele>900.4</ele><time>2026-04-19T14:21:34Z</time></trkpt><trkpt lat="42.18001093124776" lon="13.764686609206144"><ele>900.8</ele><time>2026-04-19T14:21:35Z</time></trkpt><trkpt lat="42.18008744488402" lon="13.76477674739132"><ele>901.2</ele><time>2026-04-19T14:21:36Z</time></trkpt><trkpt lat="42.18015846137007" lon="13.764875202647376"><ele>901.6</ele><time>2026-04-19T14:21:37Z</time></trkpt><trkpt lat="42.180228394026585" lon="13.764978338094368"><ele>902.0</ele><time>2026-04-19T14:21:38Z</time></trkpt><trkpt lat="42.18028575105772" lon="13.765088488799588"><ele>897.6</ele><time>2026-04-19T14:21:39Z</time></trkpt><trkpt lat="42.180341836867136" lon="13.765203792073095"><ele>893.2</ele><time>2026-04-19T14:21:40Z</time></trkpt><trkpt lat="42.18039391706466" lon="13.765316605105653"><ele>888.8</ele><time>2026-04-19T14:21:41Z</time></trkpt><trkpt lat="42.18044806014398" lon="13.765427329804828"><ele>884.4</ele><time>2026-04-19T14:21:42Z</time></trkpt><trkpt lat="42.18050207905229" lon="13.765535523777613"><ele>880.0</ele><time>2026-04-19T14:21:43Z</time></trkpt><trkpt lat="42.18054819135056" lon="13.765644904946068"><ele>880.0</ele><time>2026-04-19T14:21:44Z</time></trkpt><trkpt lat="42.180601424212334" lon="13.765747449939413"><ele>880.0</ele><time>2026-04-19T14:21:45Z</time></trkpt><trkpt lat="42.18065341030989" lon="13.765851160193364"><ele>880.0</ele><time>2026-04-19T14:21:46Z</time></trkpt><trkpt lat="42.18070650071681" lon="13.765953504848808"><ele>880.0</ele><time>2026-04-19T14:21:47Z</time></trkpt><trkpt lat="42.18076493045218" lon="13.766054217768366"><ele>880.0</ele><time>2026-04-19T14:21:48Z</time></trkpt><trkpt lat="42.18083080842537" lon="13.76614826760311"><ele>880.0</ele><time>2026-04-19T14:21:49Z</time></trkpt><trkpt lat="42.18090474130075" lon="13.766234747468895"><ele>880.0</ele><time>2026-04-19T14:21:50Z</time></trkpt><trkpt lat="42.180980444918646" lon="13.766319760068043"><ele>880.0</ele><time>2026-04-19T14:21:51Z</time></trkpt><trkpt lat="42.18105791886932" lon="13.76640948312822"><ele>880.0</ele><time>2026-04-19T14:21:52Z</time></trkpt><trkpt lat="42.18113563492724" lon="13.766497149899859"><ele>880.0</ele><time>2026-04-19T14:21:53Z</time></trkpt><trkpt lat="42.1812069940656" lon="13.766593863373624"><ele>879.9999999999999</ele><time>2026-04-19T14:21:54Z</time></trkpt><trkpt lat="42.181273266351425" lon="13.76669347399695"><ele>880.0</ele><time>2026-04-19T14:21:55Z</time></trkpt><trkpt lat="42.18133724770483" lon="13.766790518615874"><ele>880.0</ele><time>2026-04-19T14:21:56Z</time></trkpt><trkpt lat="42.18139584166662" lon="13.76686983839381"><ele>880.0</ele><time>2026-04-19T14:21:57Z</time></trkpt><trkpt lat="42.181455850434745" lon="13.766926002706555"><ele>879.9999999999999</ele><time>2026-04-19T14:21:58Z</time></trkpt><trkpt lat="42.18152150519373" lon="13.766956949845852"><ele>880.0</ele><time>2026-04-19T14:21:59Z</time></trkpt><trkpt lat="42.181588857143566" lon="13.76693983539108"><ele>881.3333333333333</ele><time>2026-04-19T14:22:00Z</time></trkpt><trkpt lat="42.18165121634501" lon="13.766887468772003"><ele>882.6666666666666</ele><time>2026-04-19T14:22:01Z</time></trkpt><trkpt lat="42.181707108334415" lon="13.76681142766735"><ele>884.0</ele><time>2026-04-19T14:22:02Z</time></trkpt><trkpt lat="42.18175824441001" lon="13.766732806045578"><ele>885.3333333333333</ele><time>2026-04-19T14:22:03Z</time></trkpt><trkpt lat="42.18181806311112" lon="13.766670099315684"><ele>886.6666666666666</ele><time>2026-04-19T14:22:04Z</time></trkpt><trkpt lat="42.18189035991583" lon="13.766627815479303"><ele>888.0</ele><time>2026-04-19T14:22:05Z</time></trkpt><trkpt lat="42.1819707018099" lon="13.766607325710572"><ele>888.0</ele><time>2026-04-19T14:22:06Z</time></trkpt><trkpt lat="42.18205242608476" lon="13.766599822305524"><ele>888.0</ele><time>2026-04-19T14:22:07Z</time></trkpt><trkpt lat="42.1821358750812" lon="13.76659851309228"><ele>888.0</ele><time>2026-04-19T14:22:08Z</time></trkpt><trkpt lat="42.1822177450612" lon="13.76659811443846"><ele>888.0</ele><time>2026-04-19T14:22:09Z</time></trkpt><trkpt lat="42.18230197145598" lon="13.766594497045665"><ele>888.0</ele><time>2026-04-19T14:22:10Z</time></trkpt><trkpt lat="42.1823861952129" lon="13.766587735026656"><ele>888.0</ele><time>2026-04-19T14:22:11Z</time></trkpt><trkpt lat="42.18247080970343" lon="13.766574875761293"><ele>885.6666666666666</ele><time>2026-04-19T14:22:12Z</time></trkpt><trkpt lat="42.18255151111543" lon="13.766561421668163"><ele>883.3333333333333</ele><time>2026-04-19T14:22:13Z</time></trkpt><trkpt lat="42.1826277784546" lon="13.766541325554414"><ele>881.0</ele><time>2026-04-19T14:22:14Z</time></trkpt><trkpt lat="42.1827023696936" lon="13.76652038388124"><ele>878.6666666666666</ele><time>2026-04-19T14:22:15Z</time></trkpt><trkpt lat="42.18278344762561" lon="13.766508008557482"><ele>876.3333333333333</ele><time>2026-04-19T14:22:16Z</time></trkpt><trkpt lat="42.182863072987345" lon="13.76648375326898"><ele>874.0</ele><time>2026-04-19T14:22:17Z</time></trkpt><trkpt lat="42.1829385928268" lon="13.766451802565268"><ele>873.9999999999999</ele><time>2026-04-19T14:22:18Z</time></trkpt><trkpt lat="42.18301395695387" lon="13.766419468812098"><ele>874.0</ele><time>2026-04-19T14:22:19Z</time></trkpt><trkpt lat="42.183083366799444" lon="13.766391924567467"><ele>874.0</ele><time>2026-04-19T14:22:20Z</time></trkpt><trkpt lat="42.183148821817504" lon="13.766366958349735"><ele>874.0</ele><time>2026-04-19T14:22:21Z</time></trkpt><trkpt lat="42.183248175025504" lon="13.766377611943755"><ele>873.9999999999999</ele><time>2026-04-19T14:22:23Z</time></trkpt><trkpt lat="42.18329804585531" lon="13.766452453920861"><ele>874.0</ele><time>2026-04-19T14:22:25Z</time></trkpt><trkpt lat="42.18317354254479" lon="13.76653995430792"><ele>873.9999999999999</ele><time>2026-04-19T14:22:27Z</time></trkpt><trkpt lat="42.18311072333444" lon="13.766565561437954"><ele>874.0</ele><time>2026-04-19T14:22:28Z</time></trkpt><trkpt lat="42.183043478416" lon="13.766592980985646"><ele>874.0</ele><time>2026-04-19T14:22:29Z</time></trkpt><trkpt lat="42.182973591349054" lon="13.766635416094255"><ele>874.0</ele><time>2026-04-19T14:22:30Z</time></trkpt><trkpt lat="42.182894494241836" lon="13.76666674729833"><ele>873.9999999999999</ele><time>2026-04-19T14:22:31Z</time></trkpt><trkpt lat="42.18281212623081" lon="13.766704934933275"><ele>874.0</ele><time>2026-04-19T14:22:32Z</time></trkpt><trkpt lat="42.18271884614507" lon="13.766724833919348"><ele>874.0</ele><time>2026-04-19T14:22:33Z</time></trkpt><trkpt lat="42.182631784262284" lon="13.766792071599086"><ele>874.0000000000001</ele><time>2026-04-19T14:22:34Z</time></trkpt><trkpt lat="42.18253470255775" lon="13.766845866044829"><ele>874.0000000000001</ele><time>2026-04-19T14:22:35Z</time></trkpt><trkpt lat="42.18244143229266" lon="13.76689738722219"><ele>874.0</ele><time>2026-04-19T14:22:36Z</time></trkpt><trkpt lat="42.18235511064226" lon="13.7669554262302"><ele>874.0</ele><time>2026-04-19T14:22:37Z</time></trkpt><trkpt lat="42.182266554788214" lon="13.767018962062176"><ele>872.2</ele><time>2026-04-19T14:22:38Z</time></trkpt><trkpt lat="42.18218380030876" lon="13.767093683425298"><ele>870.4000000000001</ele><time>2026-04-19T14:22:39Z</time></trkpt><trkpt lat="42.182099217131466" lon="13.767169004924215"><ele>868.6</ele><time>2026-04-19T14:22:40Z</time></trkpt><trkpt lat="42.18205170106574" lon="13.767295016716481"><ele>866.8</ele><time>2026-04-19T14:22:41Z</time></trkpt><trkpt lat="42.182000146951424" lon="13.767409628674313"><ele>865.0</ele><time>2026-04-19T14:22:42Z</time></trkpt><trkpt lat="42.181954763654836" lon="13.767522208323703"><ele>864.9999999999999</ele><time>2026-04-19T14:22:43Z</time></trkpt><trkpt lat="42.18191271436739" lon="13.767634580021014"><ele>865.0</ele><time>2026-04-19T14:22:44Z</time></trkpt><trkpt lat="42.18186006218686" lon="13.767736000894029"><ele>865.0</ele><time>2026-04-19T14:22:45Z</time></trkpt><trkpt lat="42.181843087054126" lon="13.767845390358737"><ele>865.0</ele><time>2026-04-19T14:22:46Z</time></trkpt><trkpt lat="42.181814140561784" lon="13.767940696487615"><ele>864.9999999999999</ele><time>2026-04-19T14:22:47Z</time></trkpt><trkpt lat="42.181796392031536" lon="13.768052193216217"><ele>865.0</ele><time>2026-04-19T14:22:48Z</time></trkpt><trkpt lat="42.18179325973566" lon="13.768167736104107"><ele>862.9999999999999</ele><time>2026-04-19T14:22:49Z</time></trkpt><trkpt lat="42.1818069242034" lon="13.768282416918874"><ele>861.0</ele><time>2026-04-19T14:22:50Z</time></trkpt><trkpt lat="42.181824687318375" lon="13.768395856991498"><ele>859.0</ele><time>2026-04-19T14:22:51Z</time></trkpt><trkpt lat="42.18184140869896" lon="13.768502907083404"><ele>857.0</ele><time>2026-04-19T14:22:52Z</time></trkpt><trkpt lat="42.181864004266636" lon="13.768599821336034"><ele>854.9999999999999</ele><time>2026-04-19T14:22:53Z</time></trkpt><trkpt lat="42.18189762565793" lon="13.768689371649677"><ele>853.0</ele><time>2026-04-19T14:22:54Z</time></trkpt><trkpt lat="42.18194648643782" lon="13.768762767802986"><ele>851.0</ele><time>2026-04-19T14:22:55Z</time></trkpt><trkpt lat="42.18200569052601" lon="13.768809979573453"><ele>849.0</ele><time>2026-04-19T14:22:56Z</time></trkpt><trkpt lat="42.182059514008344" lon="13.768869104846264"><ele>847.0</ele><time>2026-04-19T14:22:57Z</time></trkpt><trkpt lat="42.18215358246008" lon="13.768943826803174"><ele>845.0</ele><time>2026-04-19T14:22:59Z</time></trkpt><trkpt lat="42.182245998244504" lon="13.769021748127416"><ele>843.0</ele><time>2026-04-19T14:23:01Z</time></trkpt><trkpt lat="42.182340283129186" lon="13.769109274700673"><ele>843.0</ele><time>2026-04-19T14:23:03Z</time></trkpt><trkpt lat="42.182424906540795" lon="13.769193542411097"><ele>843.0</ele><time>2026-04-19T14:23:05Z</time></trkpt><trkpt lat="42.18249624565414" lon="13.769268408147479"><ele>843.0</ele><time>2026-04-19T14:23:07Z</time></trkpt><trkpt lat="42.18255030950865" lon="13.769330010295523"><ele>843.0</ele><time>2026-04-19T14:23:09Z</time></trkpt><trkpt lat="42.18260710654952" lon="13.7693691567901"><ele>843.0</ele><time>2026-04-19T14:23:11Z</time></trkpt><trkpt lat="42.18265773833596" lon="13.769451875405595"><ele>843.0</ele><time>2026-04-19T14:23:13Z</time></trkpt><trkpt lat="42.1827009150619" lon="13.769574033510606"><ele>842.0</ele><time>2026-04-19T14:23:15Z</time></trkpt><trkpt lat="42.182725154301366" lon="13.769673094433529"><ele>841.0</ele><time>2026-04-19T14:23:17Z</time></trkpt><trkpt lat="42.18276255934842" lon="13.769741744569613"><ele>840.0</ele><time>2026-04-19T14:23:20Z</time></trkpt><trkpt lat="42.182676332520224" lon="13.769795938187626"><ele>839.0</ele><time>2026-04-19T14:24:24Z</time></trkpt><trkpt lat="42.182575809690086" lon="13.769769822450098"><ele>838.0</ele><time>2026-04-19T14:24:26Z</time></trkpt><trkpt lat="42.182454256489706" lon="13.769803282356596"><ele>837.9999999999999</ele><time>2026-04-19T14:24:28Z</time></trkpt><trkpt lat="42.182382592891074" lon="13.769821978532788"><ele>838.0</ele><time>2026-04-19T14:24:29Z</time></trkpt><trkpt lat="42.18231104945395" lon="13.769840643342729"><ele>838.0</ele><time>2026-04-19T14:24:30Z</time></trkpt><trkpt lat="42.18223493626928" lon="13.769859560150481"><ele>838.0</ele><time>2026-04-19T14:24:31Z</time></trkpt><trkpt lat="42.18215605962586" lon="13.769876215257122"><ele>837.9999999999999</ele><time>2026-04-19T14:24:32Z</time></trkpt><trkpt lat="42.18208186125026" lon="13.769889864544796"><ele>838.0</ele><time>2026-04-19T14:24:33Z</time></trkpt><trkpt lat="42.18200381479219" lon="13.769899242501584"><ele>835.4999999999999</ele><time>2026-04-19T14:24:34Z</time></trkpt><trkpt lat="42.18192357088545" lon="13.769901409557253"><ele>833.0</ele><time>2026-04-19T14:24:35Z</time></trkpt><trkpt lat="42.18183887902077" lon="13.769897107534248"><ele>830.5</ele><time>2026-04-19T14:24:36Z</time></trkpt><trkpt lat="42.1817494614154" lon="13.769886964638069"><ele>828.0</ele><time>2026-04-19T14:24:37Z</time></trkpt><trkpt lat="42.181656122445936" lon="13.769867007640409"><ele>825.4999999999999</ele><time>2026-04-19T14:24:38Z</time></trkpt><trkpt lat="42.18155962180246" lon="13.769838458282692"><ele>823.0</ele><time>2026-04-19T14:24:39Z</time></trkpt><trkpt lat="42.18145540434187" lon="13.769823861203342"><ele>819.2</ele><time>2026-04-19T14:24:40Z</time></trkpt><trkpt lat="42.181362987883794" lon="13.769766401732245"><ele>815.4</ele><time>2026-04-19T14:24:41Z</time></trkpt><trkpt lat="42.181262924233806" lon="13.769733202381804"><ele>811.6</ele><time>2026-04-19T14:24:42Z</time></trkpt><trkpt lat="42.18116241888349" lon="13.769702752678343"><ele>807.8000000000001</ele><time>2026-04-19T14:24:43Z</time></trkpt><trkpt lat="42.181060503815466" lon="13.769694148539743"><ele>804.0</ele><time>2026-04-19T14:24:44Z</time></trkpt><trkpt lat="42.18096604454201" lon="13.769667054049782"><ele>804.0</ele><time>2026-04-19T14:24:45Z</time></trkpt><trkpt lat="42.18088029851181" lon="13.769639947975671"><ele>804.0</ele><time>2026-04-19T14:24:46Z</time></trkpt><trkpt lat="42.18079583906072" lon="13.76962537249807"><ele>804.0</ele><time>2026-04-19T14:24:47Z</time></trkpt><trkpt lat="42.180715580455704" lon="13.769604023674404"><ele>804.0</ele><time>2026-04-19T14:24:48Z</time></trkpt><trkpt lat="42.18063772081867" lon="13.769580487502497"><ele>804.0</ele><time>2026-04-19T14:24:49Z</time></trkpt><trkpt lat="42.18055181708715" lon="13.76959747821192"><ele>804.0</ele><time>2026-04-19T14:24:50Z</time></trkpt><trkpt lat="42.18046630709995" lon="13.769593828308516"><ele>802.0</ele><time>2026-04-19T14:24:51Z</time></trkpt><trkpt lat="42.18038142973686" lon="13.769605356000948"><ele>800.0</ele><time>2026-04-19T14:24:52Z</time></trkpt><trkpt lat="42.1802977850443" lon="13.769615464190924"><ele>798.0</ele><time>2026-04-19T14:24:53Z</time></trkpt><trkpt lat="42.180214298346016" lon="13.769610651529991"><ele>796.0</ele><time>2026-04-19T14:24:54Z</time></trkpt><trkpt lat="42.180131154068704" lon="13.769597859134835"><ele>794.0</ele><time>2026-04-19T14:24:55Z</time></trkpt><trkpt lat="42.180055276528314" lon="13.769574621233575"><ele>792.0</ele><time>2026-04-19T14:24:56Z</time></trkpt><trkpt lat="42.17997797801147" lon="13.769543654811324"><ele>792.0</ele><time>2026-04-19T14:24:57Z</time></trkpt><trkpt lat="42.17990403377572" lon="13.76951841163045"><ele>792.0</ele><time>2026-04-19T14:24:58Z</time></trkpt><trkpt lat="42.17982794952406" lon="13.769493218386998"><ele>792.0</ele><time>2026-04-19T14:24:59Z</time></trkpt><trkpt lat="42.17974780054604" lon="13.769483067542783"><ele>792.0</ele><time>2026-04-19T14:25:00Z</time></trkpt><trkpt lat="42.179666473210006" lon="13.769465944088786"><ele>792.0</ele><time>2026-04-19T14:25:01Z</time></trkpt><trkpt lat="42.17958417327815" lon="13.769434090972785"><ele>792.0</ele><time>2026-04-19T14:25:02Z</time></trkpt><trkpt lat="42.179510363598915" lon="13.769393086545977"><ele>791.75</ele><time>2026-04-19T14:25:03Z</time></trkpt><trkpt lat="42.17941049343616" lon="13.76933809555296"><ele>791.5</ele><time>2026-04-19T14:25:05Z</time></trkpt><trkpt lat="42.17933645628431" lon="13.769289259253021"><ele>791.25</ele><time>2026-04-19T14:25:08Z</time></trkpt><trkpt lat="42.17926228762947" lon="13.769519160355689"><ele>791.0</ele><time>2026-04-19T14:25:10Z</time></trkpt><trkpt lat="42.17926441160701" lon="13.769622980245977"><ele>790.1666666666667</ele><time>2026-04-19T14:25:11Z</time></trkpt><trkpt lat="42.17927410512642" lon="13.769724411502168"><ele>789.3333333333334</ele><time>2026-04-19T14:25:12Z</time></trkpt><trkpt lat="42.17929328314491" lon="13.769825148116766"><ele>788.5</ele><time>2026-04-19T14:25:13Z</time></trkpt><trkpt lat="42.17931055099328" lon="13.769920947181724"><ele>787.6666666666667</ele><time>2026-04-19T14:25:14Z</time></trkpt><trkpt lat="42.179316813098566" lon="13.77001592135204"><ele>786.8333333333334</ele><time>2026-04-19T14:25:15Z</time></trkpt><trkpt lat="42.1793093672299" lon="13.770121403452526"><ele>786.0</ele><time>2026-04-19T14:25:16Z</time></trkpt><trkpt lat="42.1792922515745" lon="13.770237093213249"><ele>785.5999999999999</ele><time>2026-04-19T14:25:17Z</time></trkpt><trkpt lat="42.17927564413478" lon="13.770356236000026"><ele>785.2</ele><time>2026-04-19T14:25:18Z</time></trkpt><trkpt lat="42.17927760788389" lon="13.770482854687518"><ele>784.8</ele><time>2026-04-19T14:25:19Z</time></trkpt><trkpt lat="42.179297212203096" lon="13.770605749022856"><ele>784.4000000000001</ele><time>2026-04-19T14:25:20Z</time></trkpt><trkpt lat="42.17934769076363" lon="13.770715759520238"><ele>784.0</ele><time>2026-04-19T14:25:21Z</time></trkpt><trkpt lat="42.17939147017765" lon="13.770815746658354"><ele>783.9999999999999</ele><time>2026-04-19T14:25:22Z</time></trkpt><trkpt lat="42.179434187873554" lon="13.770908763003657"><ele>784.0</ele><time>2026-04-19T14:25:23Z</time></trkpt><trkpt lat="42.17948466040517" lon="13.770990004154415"><ele>784.0</ele><time>2026-04-19T14:25:24Z</time></trkpt><trkpt lat="42.179510546371276" lon="13.771093310683824"><ele>784.0</ele><time>2026-04-19T14:25:25Z</time></trkpt><trkpt lat="42.17949464688274" lon="13.771203499801254"><ele>783.9999999999999</ele><time>2026-04-19T14:25:26Z</time></trkpt><trkpt lat="42.17947737759902" lon="13.771308154203385"><ele>784.0</ele><time>2026-04-19T14:25:27Z</time></trkpt><trkpt lat="42.17945520585322" lon="13.771415014941361"><ele>782.6666666666666</ele><time>2026-04-19T14:25:28Z</time></trkpt><trkpt lat="42.17942943496485" lon="13.771526640554447"><ele>781.3333333333333</ele><time>2026-04-19T14:25:29Z</time></trkpt><trkpt lat="42.179401667659086" lon="13.77163784426658"><ele>780.0</ele><time>2026-04-19T14:25:30Z</time></trkpt><trkpt lat="42.17937205312468" lon="13.77175238255538"><ele>778.6666666666667</ele><time>2026-04-19T14:25:31Z</time></trkpt><trkpt lat="42.1793405469748" lon="13.77186664878617"><ele>777.3333333333334</ele><time>2026-04-19T14:25:32Z</time></trkpt><trkpt lat="42.17930780088451" lon="13.771981144737"><ele>776.0</ele><time>2026-04-19T14:25:33Z</time></trkpt><trkpt lat="42.179273995259834" lon="13.772096409604476"><ele>773.0</ele><time>2026-04-19T14:25:34Z</time></trkpt><trkpt lat="42.17923952316369" lon="13.7722118573905"><ele>770.0</ele><time>2026-04-19T14:25:35Z</time></trkpt><trkpt lat="42.17920428456069" lon="13.772327826811486"><ele>767.0</ele><time>2026-04-19T14:25:36Z</time></trkpt><trkpt lat="42.17916785989709" lon="13.77244323444034"><ele>764.0</ele><time>2026-04-19T14:25:37Z</time></trkpt><trkpt lat="42.179128837385605" lon="13.772554080295299"><ele>761.0</ele><time>2026-04-19T14:25:38Z</time></trkpt><trkpt lat="42.17908535796772" lon="13.772660099900056"><ele>760.5999999999999</ele><time>2026-04-19T14:25:39Z</time></trkpt><trkpt lat="42.1790329907788" lon="13.772751604646537"><ele>760.2</ele><time>2026-04-19T14:25:40Z</time></trkpt><trkpt lat="42.17897234139801" lon="13.77284394511549"><ele>759.8</ele><time>2026-04-19T14:25:41Z</time></trkpt><trkpt lat="42.178909775726" lon="13.77293724516075"><ele>759.4000000000001</ele><time>2026-04-19T14:25:42Z</time></trkpt><trkpt lat="42.178845152319255" lon="13.77302654123488"><ele>759.0</ele><time>2026-04-19T14:25:43Z</time></trkpt><trkpt lat="42.17878066029845" lon="13.773116468978674"><ele>759.0</ele><time>2026-04-19T14:25:44Z</time></trkpt><trkpt lat="42.178718325244056" lon="13.773211954831789"><ele>759.0</ele><time>2026-04-19T14:25:45Z</time></trkpt><trkpt lat="42.1786608958026" lon="13.773310022971001"><ele>759.0</ele><time>2026-04-19T14:25:46Z</time></trkpt><trkpt lat="42.178628408886624" lon="13.773428457904224"><ele>759.0</ele><time>2026-04-19T14:25:47Z</time></trkpt><trkpt lat="42.17856727277813" lon="13.773523810836755"><ele>759.0</ele><time>2026-04-19T14:25:48Z</time></trkpt><trkpt lat="42.178522554614766" lon="13.773633127763624"><ele>756.0</ele><time>2026-04-19T14:25:49Z</time></trkpt><trkpt lat="42.17848015396563" lon="13.773744010356513"><ele>753.0</ele><time>2026-04-19T14:25:50Z</time></trkpt><trkpt lat="42.1784405783016" lon="13.773855972116325"><ele>750.0</ele><time>2026-04-19T14:25:51Z</time></trkpt><trkpt lat="42.17840274099408" lon="13.773969657010422"><ele>747.0</ele><time>2026-04-19T14:25:52Z</time></trkpt><trkpt lat="42.17836620056836" lon="13.774082664409864"><ele>744.0</ele><time>2026-04-19T14:25:53Z</time></trkpt><trkpt lat="42.17833009368017" lon="13.774196810073176"><ele>744.0</ele><time>2026-04-19T14:25:54Z</time></trkpt><trkpt lat="42.17829333615955" lon="13.774314072281998"><ele>744.0</ele><time>2026-04-19T14:25:55Z</time></trkpt><trkpt lat="42.17825816137215" lon="13.774431616515054"><ele>744.0</ele><time>2026-04-19T14:25:56Z</time></trkpt><trkpt lat="42.178223418656756" lon="13.774547716668577"><ele>744.0</ele><time>2026-04-19T14:25:57Z</time></trkpt><trkpt lat="42.178187420073485" lon="13.774675304482104"><ele>744.0</ele><time>2026-04-19T14:25:58Z</time></trkpt><trkpt lat="42.17815123115772" lon="13.774807843337767"><ele>743.4000000000001</ele><time>2026-04-19T14:25:59Z</time></trkpt><trkpt lat="42.178116118053026" lon="13.774942571227307"><ele>742.8</ele><time>2026-04-19T14:26:00Z</time></trkpt><trkpt lat="42.17808005893303" lon="13.775080929039198"><ele>742.2</ele><time>2026-04-19T14:26:01Z</time></trkpt><trkpt lat="42.17805837295351" lon="13.775228674731428"><ele>741.5999999999999</ele><time>2026-04-19T14:26:02Z</time></trkpt><trkpt lat="42.178006019447494" lon="13.775365016273895"><ele>741.0</ele><time>2026-04-19T14:26:03Z</time></trkpt><trkpt lat="42.17796907376623" lon="13.775502269558944"><ele>739.1999999999999</ele><time>2026-04-19T14:26:04Z</time></trkpt><trkpt lat="42.17793178690111" lon="13.77563720633109"><ele>737.4</ele><time>2026-04-19T14:26:05Z</time></trkpt><trkpt lat="42.17789529481636" lon="13.775769266682753"><ele>735.6</ele><time>2026-04-19T14:26:06Z</time></trkpt><trkpt lat="42.177858505933386" lon="13.775899532317947"><ele>733.8</ele><time>2026-04-19T14:26:07Z</time></trkpt><trkpt lat="42.17782154783816" lon="13.776027706184786"><ele>732.0</ele><time>2026-04-19T14:26:08Z</time></trkpt><trkpt lat="42.177785836332596" lon="13.776151556666933"><ele>731.0</ele><time>2026-04-19T14:26:09Z</time></trkpt><trkpt lat="42.17775116208079" lon="13.776271354017268"><ele>730.0</ele><time>2026-04-19T14:26:10Z</time></trkpt><trkpt lat="42.17773149011816" lon="13.77639253943875"><ele>729.0</ele><time>2026-04-19T14:26:11Z</time></trkpt><trkpt lat="42.177685323689026" lon="13.7764944653346"><ele>728.0</ele><time>2026-04-19T14:26:12Z</time></trkpt><trkpt lat="42.177636384223355" lon="13.776592339728053"><ele>727.0</ele><time>2026-04-19T14:26:13Z</time></trkpt><trkpt lat="42.17758278576784" lon="13.776692551650209"><ele>727.0</ele><time>2026-04-19T14:26:14Z</time></trkpt><trkpt lat="42.17755649214558" lon="13.77681276052835"><ele>727.0</ele><time>2026-04-19T14:26:15Z</time></trkpt><trkpt lat="42.17752156820468" lon="13.776921788648892"><ele>727.0</ele><time>2026-04-19T14:26:16Z</time></trkpt><trkpt lat="42.17750796400967" lon="13.77706550395652"><ele>727.0</ele><time>2026-04-19T14:26:17Z</time></trkpt><trkpt lat="42.177473389235836" lon="13.777183886925013"><ele>727.0</ele><time>2026-04-19T14:26:18Z</time></trkpt><trkpt lat="42.177431042440325" lon="13.777301225030396"><ele>726.8333333333334</ele><time>2026-04-19T14:26:19Z</time></trkpt><trkpt lat="42.17739230731255" lon="13.777420548528825"><ele>726.6666666666667</ele><time>2026-04-19T14:26:20Z</time></trkpt><trkpt lat="42.17734950347723" lon="13.777538589292595"><ele>726.5</ele><time>2026-04-19T14:26:21Z</time></trkpt><trkpt lat="42.17730294659984" lon="13.7776491643322"><ele>726.3333333333334</ele><time>2026-04-19T14:26:22Z</time></trkpt><trkpt lat="42.17723848345803" lon="13.777728633090856"><ele>726.1666666666666</ele><time>2026-04-19T14:26:23Z</time></trkpt><trkpt lat="42.17719013040225" lon="13.777803215743493"><ele>726.0</ele><time>2026-04-19T14:26:24Z</time></trkpt><trkpt lat="42.17714066621056" lon="13.77787280422733"><ele>725.1999999999999</ele><time>2026-04-19T14:26:25Z</time></trkpt><trkpt lat="42.177088408156415" lon="13.777924860120146"><ele>724.4</ele><time>2026-04-19T14:26:26Z</time></trkpt><trkpt lat="42.17709470826165" lon="13.778153308175519"><ele>723.6</ele><time>2026-04-19T14:26:28Z</time></trkpt><trkpt lat="42.17711093203833" lon="13.778265965434498"><ele>722.8</ele><time>2026-04-19T14:26:29Z</time></trkpt><trkpt lat="42.17713988925361" lon="13.778386965480642"><ele>722.0</ele><time>2026-04-19T14:26:30Z</time></trkpt><trkpt lat="42.17717796581761" lon="13.778518810791606"><ele>721.6</ele><time>2026-04-19T14:26:31Z</time></trkpt><trkpt lat="42.17718215895841" lon="13.778662366478303"><ele>721.2</ele><time>2026-04-19T14:26:32Z</time></trkpt><trkpt lat="42.17719758754122" lon="13.778805939229393"><ele>720.8</ele><time>2026-04-19T14:26:33Z</time></trkpt><trkpt lat="42.17721020556646" lon="13.778948335689579"><ele>720.4</ele><time>2026-04-19T14:26:34Z</time></trkpt><trkpt lat="42.1772210591533" lon="13.779110871816142"><ele>720.0</ele><time>2026-04-19T14:26:35Z</time></trkpt><trkpt lat="42.17723091207603" lon="13.779282008510249"><ele>719.5</ele><time>2026-04-19T14:26:36Z</time></trkpt><trkpt lat="42.177242506775784" lon="13.779449480728472"><ele>719.0</ele><time>2026-04-19T14:26:37Z</time></trkpt><trkpt lat="42.17725529375313" lon="13.779618001139514"><ele>718.5</ele><time>2026-04-19T14:26:38Z</time></trkpt><trkpt lat="42.177287907570545" lon="13.779786464361148"><ele>718.0</ele><time>2026-04-19T14:26:39Z</time></trkpt><trkpt lat="42.17729710336929" lon="13.779965296548882"><ele>718.0</ele><time>2026-04-19T14:26:40Z</time></trkpt><trkpt lat="42.17732418405874" lon="13.780134956176505"><ele>718.0</ele><time>2026-04-19T14:26:41Z</time></trkpt><trkpt lat="42.17735112529944" lon="13.780290941387106"><ele>718.0</ele><time>2026-04-19T14:26:42Z</time></trkpt><trkpt lat="42.17737811384296" lon="13.78043220237856"><ele>718.0</ele><time>2026-04-19T14:26:43Z</time></trkpt><trkpt lat="42.17742095191619" lon="13.7805544303321"><ele>717.8</ele><time>2026-04-19T14:26:44Z</time></trkpt><trkpt lat="42.177443944248765" lon="13.780675549668276"><ele>717.5999999999999</ele><time>2026-04-19T14:26:45Z</time></trkpt><trkpt lat="42.17747919495268" lon="13.780797512172496"><ele>717.4000000000001</ele><time>2026-04-19T14:26:46Z</time></trkpt><trkpt lat="42.17753374849199" lon="13.780914155031535"><ele>717.2</ele><time>2026-04-19T14:26:47Z</time></trkpt><trkpt lat="42.17761682787975" lon="13.781015218466475"><ele>717.0</ele><time>2026-04-19T14:26:48Z</time></trkpt><trkpt lat="42.17770786149067" lon="13.781100813513307"><ele>718.4000000000001</ele><time>2026-04-19T14:26:49Z</time></trkpt><trkpt lat="42.17779650243627" lon="13.781166762976442"><ele>719.8000000000001</ele><time>2026-04-19T14:26:50Z</time></trkpt><trkpt lat="42.1778867653258" lon="13.781203351743368"><ele>721.2</ele><time>2026-04-19T14:26:51Z</time></trkpt><trkpt lat="42.177988971385446" lon="13.78122148270333"><ele>722.6</ele><time>2026-04-19T14:26:52Z</time></trkpt><trkpt lat="42.178100696305975" lon="13.781247362005862"><ele>724.0</ele><time>2026-04-19T14:26:53Z</time></trkpt><trkpt lat="42.178215951694355" lon="13.781301035634286"><ele>724.0</ele><time>2026-04-19T14:26:54Z</time></trkpt><trkpt lat="42.17833507970793" lon="13.78137114075717"><ele>724.0</ele><time>2026-04-19T14:26:55Z</time></trkpt><trkpt lat="42.17845502215873" lon="13.781430556644095"><ele>724.0</ele><time>2026-04-19T14:26:56Z</time></trkpt><trkpt lat="42.178575494090836" lon="13.781481449330796"><ele>724.0</ele><time>2026-04-19T14:26:57Z</time></trkpt><trkpt lat="42.178687379245375" lon="13.781524518365844"><ele>724.0</ele><time>2026-04-19T14:26:58Z</time></trkpt><trkpt lat="42.178793567008135" lon="13.781554162866167"><ele>724.0</ele><time>2026-04-19T14:26:59Z</time></trkpt><trkpt lat="42.17890385533749" lon="13.781573901268146"><ele>724.0</ele><time>2026-04-19T14:27:00Z</time></trkpt><trkpt lat="42.17901921406696" lon="13.781586712080315"><ele>724.0</ele><time>2026-04-19T14:27:01Z</time></trkpt><trkpt lat="42.17913052055167" lon="13.781605834991618"><ele>724.0</ele><time>2026-04-19T14:27:02Z</time></trkpt><trkpt lat="42.17923377708479" lon="13.781632936570176"><ele>724.1666666666667</ele><time>2026-04-19T14:27:03Z</time></trkpt><trkpt lat="42.17932647519183" lon="13.781663331349458"><ele>724.3333333333334</ele><time>2026-04-19T14:27:04Z</time></trkpt><trkpt lat="42.179407377056855" lon="13.781702773276505"><ele>724.5</ele><time>2026-04-19T14:27:05Z</time></trkpt><trkpt lat="42.17947975898268" lon="13.78175012939006"><ele>724.6666666666666</ele><time>2026-04-19T14:27:06Z</time></trkpt><trkpt lat="42.17954969565738" lon="13.781812824933855"><ele>724.8333333333333</ele><time>2026-04-19T14:27:07Z</time></trkpt><trkpt lat="42.179616849739915" lon="13.781889467468162"><ele>725.0</ele><time>2026-04-19T14:27:08Z</time></trkpt><trkpt lat="42.179666264988946" lon="13.782001412628867"><ele>725.0</ele><time>2026-04-19T14:27:09Z</time></trkpt><trkpt lat="42.17972056856308" lon="13.782104171877116"><ele>725.0</ele><time>2026-04-19T14:27:10Z</time></trkpt><trkpt lat="42.179759999427894" lon="13.78219720832502"><ele>725.0</ele><time>2026-04-19T14:27:11Z</time></trkpt><trkpt lat="42.179793496491975" lon="13.782289257225244"><ele>725.0</ele><time>2026-04-19T14:27:12Z</time></trkpt><trkpt lat="42.1798033914397" lon="13.782376508648428"><ele>725.0</ele><time>2026-04-19T14:27:13Z</time></trkpt><trkpt lat="42.1797714526035" lon="13.782544148494406"><ele>725.0</ele><time>2026-04-19T14:27:15Z</time></trkpt><trkpt lat="42.17973216077976" lon="13.782645627281083"><ele>722.6</ele><time>2026-04-19T14:27:16Z</time></trkpt><trkpt lat="42.17968683972497" lon="13.782762423913113"><ele>720.2</ele><time>2026-04-19T14:27:17Z</time></trkpt><trkpt lat="42.179637564403116" lon="13.782888244640798"><ele>717.8</ele><time>2026-04-19T14:27:18Z</time></trkpt><trkpt lat="42.17958678363914" lon="13.783018344508461"><ele>715.4</ele><time>2026-04-19T14:27:19Z</time></trkpt><trkpt lat="42.17954047256655" lon="13.783129363000603"><ele>713.0</ele><time>2026-04-19T14:27:20Z</time></trkpt><trkpt lat="42.179495433905124" lon="13.783224420394435"><ele>713.0</ele><time>2026-04-19T14:27:21Z</time></trkpt><trkpt lat="42.1794463283847" lon="13.783303560872278"><ele>713.0</ele><time>2026-04-19T14:27:22Z</time></trkpt><trkpt lat="42.17938986844934" lon="13.783367180404047"><ele>713.0</ele><time>2026-04-19T14:27:23Z</time></trkpt><trkpt lat="42.17932155009665" lon="13.783431029368785"><ele>713.0</ele><time>2026-04-19T14:27:24Z</time></trkpt><trkpt lat="42.179241883170704" lon="13.78348394996156"><ele>713.0</ele><time>2026-04-19T14:27:25Z</time></trkpt><trkpt lat="42.179159679967114" lon="13.783546681155984"><ele>713.0</ele><time>2026-04-19T14:27:26Z</time></trkpt><trkpt lat="42.17907764452784" lon="13.783613806078641"><ele>712.4</ele><time>2026-04-19T14:27:27Z</time></trkpt><trkpt lat="42.17899627882044" lon="13.783683849539289"><ele>711.8</ele><time>2026-04-19T14:27:28Z</time></trkpt><trkpt lat="42.17893424477767" lon="13.7837404514961"><ele>711.2</ele><time>2026-04-19T14:27:29Z</time></trkpt><trkpt lat="42.178856737296016" lon="13.783842107296904"><ele>710.6</ele><time>2026-04-19T14:27:31Z</time></trkpt><trkpt lat="42.17884854667689" lon="13.783977728055284"><ele>710.0</ele><time>2026-04-19T14:27:33Z</time></trkpt><trkpt lat="42.17890609819454" lon="13.784031978479694"><ele>710.0</ele><time>2026-04-19T14:27:34Z</time></trkpt><trkpt lat="42.17899059667973" lon="13.783994428777202"><ele>710.0</ele><time>2026-04-19T14:27:35Z</time></trkpt><trkpt lat="42.179045290474974" lon="13.783939378038891"><ele>710.0</ele><time>2026-04-19T14:27:36Z</time></trkpt><trkpt lat="42.1791072472287" lon="13.783888409667533"><ele>710.0</ele><time>2026-04-19T14:27:37Z</time></trkpt><trkpt lat="42.179186618756646" lon="13.78385681307633"><ele>710.0</ele><time>2026-04-19T14:27:38Z</time></trkpt><trkpt lat="42.17927138927748" lon="13.783844434079924"><ele>710.0</ele><time>2026-04-19T14:27:39Z</time></trkpt><trkpt lat="42.17934895567709" lon="13.783864049754472"><ele>707.5</ele><time>2026-04-19T14:27:40Z</time></trkpt><trkpt lat="42.179421651193344" lon="13.78389472247689"><ele>705.0</ele><time>2026-04-19T14:27:41Z</time></trkpt><trkpt lat="42.17947848046925" lon="13.783945137375087"><ele>702.5</ele><time>2026-04-19T14:27:42Z</time></trkpt><trkpt lat="42.179522331363906" lon="13.78402495935384"><ele>700.0</ele><time>2026-04-19T14:27:43Z</time></trkpt><trkpt lat="42.17954317081458" lon="13.7841137804823"><ele>697.5</ele><time>2026-04-19T14:27:44Z</time></trkpt><trkpt lat="42.17951526952686" lon="13.784217797587752"><ele>695.0</ele><time>2026-04-19T14:27:45Z</time></trkpt><trkpt lat="42.17951153013123" lon="13.784339494544945"><ele>691.75</ele><time>2026-04-19T14:27:46Z</time></trkpt><trkpt lat="42.17950056420358" lon="13.78447920375029"><ele>688.5</ele><time>2026-04-19T14:27:47Z</time></trkpt><trkpt lat="42.17948790665901" lon="13.784636948823483"><ele>685.25</ele><time>2026-04-19T14:27:48Z</time></trkpt><trkpt lat="42.17947326421767" lon="13.784805223389329"><ele>682.0</ele><time>2026-04-19T14:27:49Z</time></trkpt><trkpt lat="42.179452939644584" lon="13.78497847572864"><ele>682.0</ele><time>2026-04-19T14:27:50Z</time></trkpt><trkpt lat="42.17942631423776" lon="13.785159397221712"><ele>682.0</ele><time>2026-04-19T14:27:51Z</time></trkpt><trkpt lat="42.17940146148431" lon="13.785329796384133"><ele>682.0</ele><time>2026-04-19T14:27:52Z</time></trkpt><trkpt lat="42.179380973554196" lon="13.785498304906172"><ele>682.0</ele><time>2026-04-19T14:27:53Z</time></trkpt><trkpt lat="42.17937873705061" lon="13.78567488957295"><ele>679.25</ele><time>2026-04-19T14:27:54Z</time></trkpt><trkpt lat="42.17934770517173" lon="13.785863747111492"><ele>676.5</ele><time>2026-04-19T14:27:55Z</time></trkpt><trkpt lat="42.17933517401004" lon="13.786062924753537"><ele>673.75</ele><time>2026-04-19T14:27:56Z</time></trkpt><trkpt lat="42.17932606287714" lon="13.786252419537924"><ele>671.0</ele><time>2026-04-19T14:27:57Z</time></trkpt><trkpt lat="42.17931911502667" lon="13.786436472451882"><ele>669.5</ele><time>2026-04-19T14:27:58Z</time></trkpt><trkpt lat="42.17931607639847" lon="13.786615721918947"><ele>668.0</ele><time>2026-04-19T14:27:59Z</time></trkpt><trkpt lat="42.17931468839277" lon="13.786789788705903"><ele>666.5</ele><time>2026-04-19T14:28:00Z</time></trkpt><trkpt lat="42.17931352329735" lon="13.786957795294182"><ele>665.0</ele><time>2026-04-19T14:28:01Z</time></trkpt><trkpt lat="42.17931238921792" lon="13.787121328863522"><ele>663.0</ele><time>2026-04-19T14:28:02Z</time></trkpt><trkpt lat="42.17931335298641" lon="13.787287440241549"><ele>661.0</ele><time>2026-04-19T14:28:03Z</time></trkpt><trkpt lat="42.17932234879332" lon="13.787458907339646"><ele>659.0</ele><time>2026-04-19T14:28:04Z</time></trkpt><trkpt lat="42.17934257585297" lon="13.787630628400123"><ele>657.0</ele><time>2026-04-19T14:28:05Z</time></trkpt><trkpt lat="42.17935565829959" lon="13.787810313092265"><ele>654.25</ele><time>2026-04-19T14:28:06Z</time></trkpt><trkpt lat="42.179362801412914" lon="13.788000819611058"><ele>651.5</ele><time>2026-04-19T14:28:07Z</time></trkpt><trkpt lat="42.179369055396194" lon="13.788195322211006"><ele>648.75</ele><time>2026-04-19T14:28:08Z</time></trkpt><trkpt lat="42.17937505208624" lon="13.78838182271567"><ele>646.0</ele><time>2026-04-19T14:28:09Z</time></trkpt><trkpt lat="42.17938078175242" lon="13.788558073639443"><ele>643.75</ele><time>2026-04-19T14:28:10Z</time></trkpt><trkpt lat="42.1793871810152" lon="13.788727236664785"><ele>641.5</ele><time>2026-04-19T14:28:11Z</time></trkpt><trkpt lat="42.17941342967092" lon="13.78888930098957"><ele>639.25</ele><time>2026-04-19T14:28:12Z</time></trkpt><trkpt lat="42.17940673569296" lon="13.789046684927907"><ele>637.0</ele><time>2026-04-19T14:28:13Z</time></trkpt><trkpt lat="42.17943431724362" lon="13.789196004144847"><ele>637.0</ele><time>2026-04-19T14:28:14Z</time></trkpt><trkpt lat="42.17944970576894" lon="13.78934042769493"><ele>637.0</ele><time>2026-04-19T14:28:15Z</time></trkpt><trkpt lat="42.179457054883926" lon="13.789490422442585"><ele>637.0</ele><time>2026-04-19T14:28:16Z</time></trkpt><trkpt lat="42.17949044595152" lon="13.789640657993084"><ele>637.0</ele><time>2026-04-19T14:28:17Z</time></trkpt><trkpt lat="42.179542088082734" lon="13.789780527677303"><ele>634.2</ele><time>2026-04-19T14:28:18Z</time></trkpt><trkpt lat="42.179582394112785" lon="13.789917313241064"><ele>631.4000000000001</ele><time>2026-04-19T14:28:19Z</time></trkpt><trkpt lat="42.1796190268453" lon="13.790041061513922"><ele>628.5999999999999</ele><time>2026-04-19T14:28:20Z</time></trkpt><trkpt lat="42.179654314089994" lon="13.790150389161628"><ele>625.8</ele><time>2026-04-19T14:28:21Z</time></trkpt><trkpt lat="42.17969961580091" lon="13.790237971641972"><ele>623.0</ele><time>2026-04-19T14:28:22Z</time></trkpt><trkpt lat="42.17975753684071" lon="13.790306941160813"><ele>623.0</ele><time>2026-04-19T14:28:23Z</time></trkpt><trkpt lat="42.17981460139051" lon="13.790358029197806"><ele>623.0</ele><time>2026-04-19T14:28:24Z</time></trkpt><trkpt lat="42.17988084196417" lon="13.790478628745673"><ele>623.0</ele><time>2026-04-19T14:28:26Z</time></trkpt><trkpt lat="42.17985900776346" lon="13.790562622538125"><ele>623.0</ele><time>2026-04-19T14:28:27Z</time></trkpt><trkpt lat="42.179821273199316" lon="13.79064148962834"><ele>623.0</ele><time>2026-04-19T14:28:28Z</time></trkpt><trkpt lat="42.17977878844316" lon="13.790726859449958"><ele>623.0</ele><time>2026-04-19T14:28:29Z</time></trkpt><trkpt lat="42.179732242262176" lon="13.790832812266729"><ele>621.0</ele><time>2026-04-19T14:28:30Z</time></trkpt><trkpt lat="42.179677792342616" lon="13.79095480451868"><ele>619.0</ele><time>2026-04-19T14:28:31Z</time></trkpt><trkpt lat="42.17962508898542" lon="13.791084182207825"><ele>617.0</ele><time>2026-04-19T14:28:32Z</time></trkpt><trkpt lat="42.1795781198866" lon="13.791202812924503"><ele>615.0</ele><time>2026-04-19T14:28:33Z</time></trkpt><trkpt lat="42.179534172759844" lon="13.79131773355491"><ele>613.0</ele><time>2026-04-19T14:28:34Z</time></trkpt><trkpt lat="42.179499608259746" lon="13.791431726489456"><ele>612.6666666666667</ele><time>2026-04-19T14:28:35Z</time></trkpt><trkpt lat="42.17946779768846" lon="13.791543835354624"><ele>612.3333333333334</ele><time>2026-04-19T14:28:36Z</time></trkpt><trkpt lat="42.179442883835634" lon="13.791649017711064"><ele>612.0</ele><time>2026-04-19T14:28:37Z</time></trkpt><trkpt lat="42.17943183622109" lon="13.791752682121803"><ele>611.6666666666666</ele><time>2026-04-19T14:28:38Z</time></trkpt><trkpt lat="42.17944072278971" lon="13.79186730008924"><ele>611.3333333333333</ele><time>2026-04-19T14:28:39Z</time></trkpt><trkpt lat="42.17946870686246" lon="13.791987111210517"><ele>611.0</ele><time>2026-04-19T14:28:40Z</time></trkpt><trkpt lat="42.17950083729285" lon="13.792106473355199"><ele>608.6</ele><time>2026-04-19T14:28:41Z</time></trkpt><trkpt lat="42.17954134390399" lon="13.792217980381311"><ele>606.2</ele><time>2026-04-19T14:28:42Z</time></trkpt><trkpt lat="42.17959383374902" lon="13.79231969970853"><ele>603.8</ele><time>2026-04-19T14:28:43Z</time></trkpt><trkpt lat="42.17966593669543" lon="13.792397298060273"><ele>601.4</ele><time>2026-04-19T14:28:44Z</time></trkpt><trkpt lat="42.179735048872224" lon="13.792490348148371"><ele>599.0</ele><time>2026-04-19T14:28:45Z</time></trkpt><trkpt lat="42.179795961620094" lon="13.792591366428756"><ele>599.8</ele><time>2026-04-19T14:28:46Z</time></trkpt><trkpt lat="42.17981872816818" lon="13.792719163394308"><ele>600.5999999999999</ele><time>2026-04-19T14:28:47Z</time></trkpt><trkpt lat="42.179833274200206" lon="13.792846886990915"><ele>601.4</ele><time>2026-04-19T14:28:48Z</time></trkpt><trkpt lat="42.17985286953514" lon="13.792981275546941"><ele>602.1999999999999</ele><time>2026-04-19T14:28:49Z</time></trkpt><trkpt lat="42.17986874565499" lon="13.793105641034515"><ele>603.0</ele><time>2026-04-19T14:28:50Z</time></trkpt><trkpt lat="42.17987836772501" lon="13.793216357593428"><ele>603.0</ele><time>2026-04-19T14:28:51Z</time></trkpt><trkpt lat="42.17988293540368" lon="13.793314958384657"><ele>603.0</ele><time>2026-04-19T14:28:52Z</time></trkpt><trkpt lat="42.17988345511886" lon="13.793437389419921"><ele>603.0</ele><time>2026-04-19T14:28:54Z</time></trkpt><trkpt lat="42.17981343932517" lon="13.793458371032886"><ele>603.0</ele><time>2026-04-19T14:28:56Z</time></trkpt><trkpt lat="42.17972526212341" lon="13.79333862782002"><ele>603.0</ele><time>2026-04-19T14:28:58Z</time></trkpt><trkpt lat="42.17968982385217" lon="13.793236947561585"><ele>603.0</ele><time>2026-04-19T14:28:59Z</time></trkpt><trkpt lat="42.17963409822059" lon="13.793132977647089"><ele>598.25</ele><time>2026-04-19T14:29:00Z</time></trkpt><trkpt lat="42.17956143117647" lon="13.793013628558057"><ele>593.5</ele><time>2026-04-19T14:29:01Z</time></trkpt><trkpt lat="42.17948412861705" lon="13.792889887504327"><ele>588.75</ele><time>2026-04-19T14:29:02Z</time></trkpt><trkpt lat="42.179407006917586" lon="13.792776966379268"><ele>584.0</ele><time>2026-04-19T14:29:03Z</time></trkpt><trkpt lat="42.17933561989125" lon="13.792674484839518"><ele>586.5</ele><time>2026-04-19T14:29:04Z</time></trkpt><trkpt lat="42.17927841088569" lon="13.792584447492196"><ele>589.0</ele><time>2026-04-19T14:29:05Z</time></trkpt><trkpt lat="42.1792313391601" lon="13.792514658880885"><ele>591.5</ele><time>2026-04-19T14:29:06Z</time></trkpt><trkpt lat="42.17914944900138" lon="13.792429158773608"><ele>594.0</ele><time>2026-04-19T14:29:08Z</time></trkpt><trkpt lat="42.17907591370719" lon="13.792418525591065"><ele>596.5</ele><time>2026-04-19T14:29:10Z</time></trkpt><trkpt lat="42.17903228022275" lon="13.792492960164305"><ele>599.0</ele><time>2026-04-19T14:29:12Z</time></trkpt><trkpt lat="42.179041346408944" lon="13.79258667045604"><ele>599.0</ele><time>2026-04-19T14:29:13Z</time></trkpt><trkpt lat="42.17912035193809" lon="13.792667413885109"><ele>599.0</ele><time>2026-04-19T14:29:14Z</time></trkpt><trkpt lat="42.179168498889354" lon="13.792754011898069"><ele>599.0</ele><time>2026-04-19T14:29:15Z</time></trkpt><trkpt lat="42.17921085303392" lon="13.792867338401953"><ele>599.0</ele><time>2026-04-19T14:29:16Z</time></trkpt><trkpt lat="42.17924545038215" lon="13.793000683486156"><ele>599.0</ele><time>2026-04-19T14:29:17Z</time></trkpt><trkpt lat="42.17925136097663" lon="13.793153852650054"><ele>595.25</ele><time>2026-04-19T14:29:18Z</time></trkpt><trkpt lat="42.17926611789855" lon="13.793314512990328"><ele>591.5</ele><time>2026-04-19T14:29:19Z</time></trkpt><trkpt lat="42.1792739273285" lon="13.79348307925099"><ele>587.75</ele><time>2026-04-19T14:29:20Z</time></trkpt><trkpt lat="42.17928264561176" lon="13.793661010273864"><ele>584.0</ele><time>2026-04-19T14:29:21Z</time></trkpt><trkpt lat="42.179294629682126" lon="13.793839452276615"><ele>581.5</ele><time>2026-04-19T14:29:22Z</time></trkpt><trkpt lat="42.17930646511781" lon="13.79402395271857"><ele>579.0</ele><time>2026-04-19T14:29:23Z</time></trkpt><trkpt lat="42.17931730318567" lon="13.79421096365329"><ele>576.5</ele><time>2026-04-19T14:29:24Z</time></trkpt><trkpt lat="42.179326938641424" lon="13.794397638761339"><ele>574.0</ele><time>2026-04-19T14:29:25Z</time></trkpt><trkpt lat="42.17933189894774" lon="13.7945719781852"><ele>572.25</ele><time>2026-04-19T14:29:26Z</time></trkpt><trkpt lat="42.17933177479873" lon="13.794738956125522"><ele>570.5</ele><time>2026-04-19T14:29:26.999Z</time></trkpt><trkpt lat="42.1793257311066" lon="13.794896575039806"><ele>568.75</ele><time>2026-04-19T14:29:27.999Z</time></trkpt><trkpt lat="42.179313199429274" lon="13.795041162276233"><ele>567.0</ele><time>2026-04-19T14:29:28.999Z</time></trkpt><trkpt lat="42.17928895458944" lon="13.795177642083184"><ele>566.8000000000001</ele><time>2026-04-19T14:29:29.999Z</time></trkpt><trkpt lat="42.17926087174848" lon="13.795307889925539"><ele>566.6</ele><time>2026-04-19T14:29:30.999Z</time></trkpt><trkpt lat="42.179233097929306" lon="13.795439234399906"><ele>566.4000000000001</ele><time>2026-04-19T14:29:31.999Z</time></trkpt><trkpt lat="42.17920458810994" lon="13.795574059945121"><ele>566.2</ele><time>2026-04-19T14:29:32.999Z</time></trkpt><trkpt lat="42.179175188961715" lon="13.795717497908477"><ele>566.0</ele><time>2026-04-19T14:29:33.999Z</time></trkpt><trkpt lat="42.179150264388554" lon="13.795858260213084"><ele>564.8</ele><time>2026-04-19T14:29:34.999Z</time></trkpt><trkpt lat="42.179128773910115" lon="13.796003404329161"><ele>563.6</ele><time>2026-04-19T14:29:35.999Z</time></trkpt><trkpt lat="42.179114238500915" lon="13.796151673852656"><ele>562.4</ele><time>2026-04-19T14:29:36.999Z</time></trkpt><trkpt lat="42.179107867076" lon="13.796302496100608"><ele>561.2</ele><time>2026-04-19T14:29:37.999Z</time></trkpt><trkpt lat="42.17910560919892" lon="13.796460301924315"><ele>560.0</ele><time>2026-04-19T14:29:38.999Z</time></trkpt><trkpt lat="42.17910493760927" lon="13.796625176765708"><ele>560.0</ele><time>2026-04-19T14:29:39.999Z</time></trkpt><trkpt lat="42.17911105931484" lon="13.796793796188597"><ele>560.0</ele><time>2026-04-19T14:29:40.999Z</time></trkpt><trkpt lat="42.17913170129016" lon="13.79695808004374"><ele>560.0</ele><time>2026-04-19T14:29:41.999Z</time></trkpt><trkpt lat="42.17916576476776" lon="13.797111202125976"><ele>560.0</ele><time>2026-04-19T14:29:42.999Z</time></trkpt><trkpt lat="42.17919878375213" lon="13.797239641712117"><ele>557.2</ele><time>2026-04-19T14:29:44Z</time></trkpt><trkpt lat="42.1792249651086" lon="13.797337007263343"><ele>554.4</ele><time>2026-04-19T14:29:45Z</time></trkpt><trkpt lat="42.179238988314246" lon="13.797484982725276"><ele>551.6</ele><time>2026-04-19T14:29:47Z</time></trkpt><trkpt lat="42.17920093625256" lon="13.797613342740515"><ele>548.8</ele><time>2026-04-19T14:29:49Z</time></trkpt><trkpt lat="42.17908821606245" lon="13.797646910022472"><ele>546.0</ele><time>2026-04-19T14:29:51Z</time></trkpt><trkpt lat="42.17901442405888" lon="13.797634393833965"><ele>542.8</ele><time>2026-04-19T14:29:52Z</time></trkpt><trkpt lat="42.17894402393945" lon="13.797556088826415"><ele>539.6</ele><time>2026-04-19T14:29:53Z</time></trkpt><trkpt lat="42.17887658576539" lon="13.797453966051135"><ele>536.4</ele><time>2026-04-19T14:29:54Z</time></trkpt><trkpt lat="42.17880546989952" lon="13.79733999706545"><ele>533.2</ele><time>2026-04-19T14:29:55Z</time></trkpt><trkpt lat="42.17873012687643" lon="13.797216699656298"><ele>530.0</ele><time>2026-04-19T14:29:56Z</time></trkpt><trkpt lat="42.17866787996881" lon="13.797084779031191"><ele>530.0</ele><time>2026-04-19T14:29:57Z</time></trkpt><trkpt lat="42.1786085364003" lon="13.796961126631695"><ele>530.0</ele><time>2026-04-19T14:29:58Z</time></trkpt><trkpt lat="42.17855417093688" lon="13.796836267174477"><ele>530.0</ele><time>2026-04-19T14:29:59Z</time></trkpt><trkpt lat="42.178508832802635" lon="13.796701162957051"><ele>530.0</ele><time>2026-04-19T14:30:00Z</time></trkpt><trkpt lat="42.17847071974263" lon="13.796560832912476"><ele>530.0</ele><time>2026-04-19T14:30:01Z</time></trkpt><trkpt lat="42.17844204503251" lon="13.79641895717444"><ele>530.1666666666666</ele><time>2026-04-19T14:30:02Z</time></trkpt><trkpt lat="42.178424983432826" lon="13.79627774282088"><ele>530.3333333333333</ele><time>2026-04-19T14:30:03Z</time></trkpt><trkpt lat="42.17841020168141" lon="13.796145220119547"><ele>530.5</ele><time>2026-04-19T14:30:04Z</time></trkpt><trkpt lat="42.17839881358112" lon="13.796038485323704"><ele>530.6666666666666</ele><time>2026-04-19T14:30:05Z</time></trkpt><trkpt lat="42.178392541410005" lon="13.79595383105077"><ele>530.8333333333334</ele><time>2026-04-19T14:30:06Z</time></trkpt><trkpt lat="42.17838404673755" lon="13.795835774704422"><ele>531.0</ele><time>2026-04-19T14:30:08Z</time></trkpt><trkpt lat="42.17832347131788" lon="13.795768488976831"><ele>531.0</ele><time>2026-04-19T14:30:10Z</time></trkpt><trkpt lat="42.17824458443919" lon="13.795816082557787"><ele>531.0</ele><time>2026-04-19T14:30:11Z</time></trkpt><trkpt lat="42.178204014245054" lon="13.795927165463556"><ele>531.0</ele><time>2026-04-19T14:30:12Z</time></trkpt><trkpt lat="42.17818147496011" lon="13.796035426810624"><ele>531.0</ele><time>2026-04-19T14:30:13Z</time></trkpt><trkpt lat="42.17815516704829" lon="13.796152025991555"><ele>531.0</ele><time>2026-04-19T14:30:14Z</time></trkpt><trkpt lat="42.17811953709841" lon="13.796273182325692"><ele>531.0</ele><time>2026-04-19T14:30:15Z</time></trkpt><trkpt lat="42.17807438712639" lon="13.796408850573753"><ele>524.75</ele><time>2026-04-19T14:30:16Z</time></trkpt><trkpt lat="42.17802580887191" lon="13.796544075258126"><ele>518.5</ele><time>2026-04-19T14:30:17Z</time></trkpt><trkpt lat="42.177974484913776" lon="13.796680431628046"><ele>512.25</ele><time>2026-04-19T14:30:18Z</time></trkpt><trkpt lat="42.17792725900543" lon="13.796828819685988"><ele>506.0</ele><time>2026-04-19T14:30:19Z</time></trkpt><trkpt lat="42.17784938028878" lon="13.79694637326558"><ele>506.0</ele><time>2026-04-19T14:30:20Z</time></trkpt><trkpt lat="42.17777655835459" lon="13.797084264440274"><ele>506.0</ele><time>2026-04-19T14:30:21Z</time></trkpt><trkpt lat="42.17772412847765" lon="13.797203604299694"><ele>506.0</ele><time>2026-04-19T14:30:22Z</time></trkpt><trkpt lat="42.17764591670327" lon="13.797326498550618"><ele>506.0</ele><time>2026-04-19T14:30:23Z</time></trkpt><trkpt lat="42.177569578245965" lon="13.797451645981964"><ele>506.0</ele><time>2026-04-19T14:30:24Z</time></trkpt><trkpt lat="42.177491891776086" lon="13.797579789199725"><ele>506.0</ele><time>2026-04-19T14:30:25Z</time></trkpt><trkpt lat="42.177416529444116" lon="13.7976962785524"><ele>506.0</ele><time>2026-04-19T14:30:26Z</time></trkpt><trkpt lat="42.17734047829252" lon="13.797807492548278"><ele>506.0</ele><time>2026-04-19T14:30:27Z</time></trkpt><trkpt lat="42.17727367923387" lon="13.797916625333903"><ele>501.6</ele><time>2026-04-19T14:30:28Z</time></trkpt><trkpt lat="42.177224249394946" lon="13.79803331071339"><ele>497.20000000000005</ele><time>2026-04-19T14:30:29Z</time></trkpt><trkpt lat="42.177177481182696" lon="13.798135537642201"><ele>492.79999999999995</ele><time>2026-04-19T14:30:30Z</time></trkpt><trkpt lat="42.177143258444744" lon="13.798257879995155"><ele>488.4</ele><time>2026-04-19T14:30:31Z</time></trkpt><trkpt lat="42.177124336459606" lon="13.798389170357527"><ele>484.0</ele><time>2026-04-19T14:30:32Z</time></trkpt><trkpt lat="42.17709489947957" lon="13.79852616469655"><ele>484.0</ele><time>2026-04-19T14:30:33Z</time></trkpt><trkpt lat="42.17708238936919" lon="13.798679639211676"><ele>484.0</ele><time>2026-04-19T14:30:34Z</time></trkpt><trkpt lat="42.1770703088326" lon="13.798840647732787"><ele>484.0</ele><time>2026-04-19T14:30:35Z</time></trkpt><trkpt lat="42.177056863403486" lon="13.799005896428541"><ele>484.0</ele><time>2026-04-19T14:30:36Z</time></trkpt><trkpt lat="42.17703608085112" lon="13.799168611234144"><ele>484.0</ele><time>2026-04-19T14:30:37Z</time></trkpt><trkpt lat="42.1770133295349" lon="13.79933076793113"><ele>484.0</ele><time>2026-04-19T14:30:38Z</time></trkpt><trkpt lat="42.17699185012552" lon="13.799483859337101"><ele>484.0</ele><time>2026-04-19T14:30:39Z</time></trkpt><trkpt lat="42.176972089640344" lon="13.799607386535572"><ele>484.0</ele><time>2026-04-19T14:30:40Z</time></trkpt><trkpt lat="42.17695175228474" lon="13.799710173393587"><ele>484.0</ele><time>2026-04-19T14:30:41Z</time></trkpt><trkpt lat="42.17693241102856" lon="13.799793403637924"><ele>483.0</ele><time>2026-04-19T14:30:42Z</time></trkpt><trkpt lat="42.17689529036697" lon="13.79989443156122"><ele>482.0</ele><time>2026-04-19T14:30:44Z</time></trkpt><trkpt lat="42.17683009916291" lon="13.799900700579888"><ele>481.0</ele><time>2026-04-19T14:30:46Z</time></trkpt><trkpt lat="42.17674509698516" lon="13.799783540025924"><ele>480.0</ele><time>2026-04-19T14:30:48Z</time></trkpt><trkpt lat="42.17668135746939" lon="13.799738937563507"><ele>479.0</ele><time>2026-04-19T14:30:49Z</time></trkpt><trkpt lat="42.17658646274625" lon="13.799662301094257"><ele>474.79999999999995</ele><time>2026-04-19T14:30:51Z</time></trkpt><trkpt lat="42.176509941638145" lon="13.799671926120048"><ele>470.59999999999997</ele><time>2026-04-19T14:30:52Z</time></trkpt><trkpt lat="42.17642056297748" lon="13.79975219066212"><ele>466.4</ele><time>2026-04-19T14:30:53Z</time></trkpt><trkpt lat="42.176326113431934" lon="13.799827510248132"><ele>462.2</ele><time>2026-04-19T14:30:54Z</time></trkpt><trkpt lat="42.17623896860605" lon="13.799900878095434"><ele>458.0</ele><time>2026-04-19T14:30:55Z</time></trkpt><trkpt lat="42.176150353472984" lon="13.799972581559025"><ele>458.0</ele><time>2026-04-19T14:30:56Z</time></trkpt><trkpt lat="42.176073952744304" lon="13.800035608666025"><ele>457.99999999999994</ele><time>2026-04-19T14:30:57Z</time></trkpt><trkpt lat="42.176004881116555" lon="13.800124584124104"><ele>457.99999999999994</ele><time>2026-04-19T14:30:58Z</time></trkpt><trkpt lat="42.17594656839936" lon="13.800232730864735"><ele>458.0</ele><time>2026-04-19T14:30:59Z</time></trkpt><trkpt lat="42.17589120143068" lon="13.80034728737888"><ele>458.0</ele><time>2026-04-19T14:31:00Z</time></trkpt><trkpt lat="42.17583196359758" lon="13.8004697234963"><ele>458.4</ele><time>2026-04-19T14:31:01Z</time></trkpt><trkpt lat="42.17576956729296" lon="13.800599609227104"><ele>458.79999999999995</ele><time>2026-04-19T14:31:02Z</time></trkpt><trkpt lat="42.175710568935095" lon="13.800725008045873"><ele>459.2</ele><time>2026-04-19T14:31:03Z</time></trkpt><trkpt lat="42.17565636924008" lon="13.800845596452053"><ele>459.6</ele><time>2026-04-19T14:31:04Z</time></trkpt><trkpt lat="42.17560762058875" lon="13.800968851731474"><ele>460.0</ele><time>2026-04-19T14:31:05Z</time></trkpt><trkpt lat="42.1755663599055" lon="13.801095954086346"><ele>454.5</ele><time>2026-04-19T14:31:06Z</time></trkpt><trkpt lat="42.17553315316579" lon="13.801228303899324"><ele>449.0</ele><time>2026-04-19T14:31:07Z</time></trkpt><trkpt lat="42.17550662455176" lon="13.801377136559429"><ele>443.5</ele><time>2026-04-19T14:31:08Z</time></trkpt><trkpt lat="42.175490980968235" lon="13.801534294842478"><ele>438.0</ele><time>2026-04-19T14:31:09Z</time></trkpt><trkpt lat="42.17548297262792" lon="13.801697120854595"><ele>437.5</ele><time>2026-04-19T14:31:10Z</time></trkpt><trkpt lat="42.17548144082021" lon="13.801860607640263"><ele>437.0</ele><time>2026-04-19T14:31:11Z</time></trkpt><trkpt lat="42.175473742096614" lon="13.802024431578175"><ele>436.5</ele><time>2026-04-19T14:31:12Z</time></trkpt><trkpt lat="42.17545893633474" lon="13.802180702968817"><ele>436.0</ele><time>2026-04-19T14:31:13Z</time></trkpt><trkpt lat="42.175440172876215" lon="13.802334655716091"><ele>436.0</ele><time>2026-04-19T14:31:14Z</time></trkpt><trkpt lat="42.1754194138487" lon="13.802495104124812"><ele>436.0</ele><time>2026-04-19T14:31:15Z</time></trkpt><trkpt lat="42.175398185833686" lon="13.802649714213247"><ele>436.0</ele><time>2026-04-19T14:31:16Z</time></trkpt><trkpt lat="42.17537404862583" lon="13.802807324979307"><ele>436.0</ele><time>2026-04-19T14:31:17Z</time></trkpt><trkpt lat="42.175349563205124" lon="13.802961418926419"><ele>435.4</ele><time>2026-04-19T14:31:18Z</time></trkpt><trkpt lat="42.17532804622458" lon="13.80310131118354"><ele>434.8</ele><time>2026-04-19T14:31:19Z</time></trkpt><trkpt lat="42.17530914230716" lon="13.803231878491276"><ele>434.19999999999993</ele><time>2026-04-19T14:31:20Z</time></trkpt><trkpt lat="42.175291983254326" lon="13.803356867849313"><ele>433.59999999999997</ele><time>2026-04-19T14:31:21Z</time></trkpt><trkpt lat="42.17527676994535" lon="13.803485177264948"><ele>433.0</ele><time>2026-04-19T14:31:22Z</time></trkpt><trkpt lat="42.17527124598333" lon="13.803616754631944"><ele>432.59999999999997</ele><time>2026-04-19T14:31:23Z</time></trkpt><trkpt lat="42.17527731858469" lon="13.803748433617898"><ele>432.19999999999993</ele><time>2026-04-19T14:31:24Z</time></trkpt><trkpt lat="42.175300384126274" lon="13.803881788481897"><ele>431.8</ele><time>2026-04-19T14:31:25Z</time></trkpt><trkpt lat="42.17535597664308" lon="13.804004601957708"><ele>431.4</ele><time>2026-04-19T14:31:26Z</time></trkpt><trkpt lat="42.175402115854325" lon="13.804130303137244"><ele>431.0</ele><time>2026-04-19T14:31:27Z</time></trkpt><trkpt lat="42.17544152966165" lon="13.804226149567658"><ele>430.99999999999994</ele><time>2026-04-19T14:31:28Z</time></trkpt><trkpt lat="42.17548864863782" lon="13.804302361157989"><ele>431.0</ele><time>2026-04-19T14:31:29Z</time></trkpt><trkpt lat="42.17554208770898" lon="13.80436825101548"><ele>431.0</ele><time>2026-04-19T14:31:30Z</time></trkpt><trkpt lat="42.175610402357414" lon="13.804420522327103"><ele>431.0</ele><time>2026-04-19T14:31:31Z</time></trkpt><trkpt lat="42.175697791222426" lon="13.804465795674952"><ele>430.99999999999994</ele><time>2026-04-19T14:31:32Z</time></trkpt><trkpt lat="42.17579540106186" lon="13.80450971623423"><ele>431.0</ele><time>2026-04-19T14:31:33Z</time></trkpt><trkpt lat="42.17590552161073" lon="13.804555647402163"><ele>430.25</ele><time>2026-04-19T14:31:34Z</time></trkpt><trkpt lat="42.17602772245901" lon="13.804611127457784"><ele>429.5</ele><time>2026-04-19T14:31:35Z</time></trkpt><trkpt lat="42.176153624229" lon="13.804666732889274"><ele>428.75</ele><time>2026-04-19T14:31:36Z</time></trkpt><trkpt lat="42.176265678987704" lon="13.80470944269318"><ele>428.0</ele><time>2026-04-19T14:31:37Z</time></trkpt><trkpt lat="42.17635246423339" lon="13.804741876304227"><ele>427.99999999999994</ele><time>2026-04-19T14:31:38Z</time></trkpt><trkpt lat="42.176429297247346" lon="13.80475875310961"><ele>428.0</ele><time>2026-04-19T14:31:39Z</time></trkpt><trkpt lat="42.176508812050706" lon="13.804752179439044"><ele>428.0</ele><time>2026-04-19T14:31:40Z</time></trkpt><trkpt lat="42.1765823900737" lon="13.804724872271224"><ele>428.0</ele><time>2026-04-19T14:31:41Z</time></trkpt><trkpt lat="42.17664237241965" lon="13.804686467923183"><ele>427.99999999999994</ele><time>2026-04-19T14:31:42Z</time></trkpt><trkpt lat="42.17670272990691" lon="13.804550328018458"><ele>428.0</ele><time>2026-04-19T14:31:44Z</time></trkpt><trkpt lat="42.176690780381364" lon="13.804451165450685"><ele>426.8333333333333</ele><time>2026-04-19T14:31:45Z</time></trkpt><trkpt lat="42.17665088813587" lon="13.804348225851175"><ele>425.66666666666663</ele><time>2026-04-19T14:31:46Z</time></trkpt><trkpt lat="42.17660417798595" lon="13.804246132742762"><ele>424.5</ele><time>2026-04-19T14:31:47Z</time></trkpt><trkpt lat="42.17656321470395" lon="13.804170063951759"><ele>423.33333333333337</ele><time>2026-04-19T14:31:48Z</time></trkpt><trkpt lat="42.17652588597441" lon="13.80402968816493"><ele>422.1666666666667</ele><time>2026-04-19T14:31:50Z</time></trkpt><trkpt lat="42.17655171385047" lon="13.803950259790431"><ele>421.0</ele><time>2026-04-19T14:31:51Z</time></trkpt><trkpt lat="42.17660033554015" lon="13.80387421641742"><ele>419.6666666666667</ele><time>2026-04-19T14:31:52Z</time></trkpt><trkpt lat="42.17667033808813" lon="13.80384340062787"><ele>418.33333333333337</ele><time>2026-04-19T14:31:53Z</time></trkpt><trkpt lat="42.17674384305221" lon="13.803867378445627"><ele>417.0</ele><time>2026-04-19T14:31:54Z</time></trkpt><trkpt lat="42.17680161568701" lon="13.803955476462672"><ele>415.66666666666663</ele><time>2026-04-19T14:31:55Z</time></trkpt><trkpt lat="42.176874747985465" lon="13.804040837208605"><ele>414.3333333333333</ele><time>2026-04-19T14:31:56Z</time></trkpt><trkpt lat="42.176952570944934" lon="13.804140209314117"><ele>413.0</ele><time>2026-04-19T14:31:57Z</time></trkpt><trkpt lat="42.177037931488954" lon="13.804251497490739"><ele>414.59999999999997</ele><time>2026-04-19T14:31:58Z</time></trkpt><trkpt lat="42.177116818232285" lon="13.804356411945246"><ele>416.2</ele><time>2026-04-19T14:31:59Z</time></trkpt><trkpt lat="42.17717990700642" lon="13.804477630973869"><ele>417.8</ele><time>2026-04-19T14:32:00Z</time></trkpt><trkpt lat="42.17724517311121" lon="13.804594890254268"><ele>419.4</ele><time>2026-04-19T14:32:01Z</time></trkpt><trkpt lat="42.177309999190854" lon="13.80471302095235"><ele>421.0</ele><time>2026-04-19T14:32:02Z</time></trkpt><trkpt lat="42.1773690708758" lon="13.804835276430452"><ele>416.0</ele><time>2026-04-19T14:32:03Z</time></trkpt><trkpt lat="42.17741952280184" lon="13.804957082541478"><ele>411.0</ele><time>2026-04-19T14:32:04Z</time></trkpt><trkpt lat="42.17745569787497" lon="13.805082227742053"><ele>406.0</ele><time>2026-04-19T14:32:05Z</time></trkpt><trkpt lat="42.177485497363975" lon="13.805209974670404"><ele>401.0</ele><time>2026-04-19T14:32:06Z</time></trkpt><trkpt lat="42.17752839323476" lon="13.805326478550493"><ele>396.0</ele><time>2026-04-19T14:32:07Z</time></trkpt><trkpt lat="42.17753982346514" lon="13.805453527341607"><ele>396.0</ele><time>2026-04-19T14:32:08Z</time></trkpt><trkpt lat="42.17757088183124" lon="13.80557097949652"><ele>396.0</ele><time>2026-04-19T14:32:09Z</time></trkpt><trkpt lat="42.17761951374438" lon="13.805680522756395"><ele>396.0</ele><time>2026-04-19T14:32:10Z</time></trkpt><trkpt lat="42.17765043363532" lon="13.805800886624874"><ele>396.0</ele><time>2026-04-19T14:32:11Z</time></trkpt><trkpt lat="42.177677809550325" lon="13.805926558726831"><ele>396.0</ele><time>2026-04-19T14:32:12Z</time></trkpt><trkpt lat="42.17772257731279" lon="13.806041121177845"><ele>396.6</ele><time>2026-04-19T14:32:13Z</time></trkpt><trkpt lat="42.177759300885626" lon="13.806162492316965"><ele>397.20000000000005</ele><time>2026-04-19T14:32:14Z</time></trkpt><trkpt lat="42.177801513735645" lon="13.806282899285558"><ele>397.79999999999995</ele><time>2026-04-19T14:32:15Z</time></trkpt><trkpt lat="42.17784922210604" lon="13.806399004467815"><ele>398.4</ele><time>2026-04-19T14:32:16Z</time></trkpt><trkpt lat="42.17789918338758" lon="13.806512629069795"><ele>399.0</ele><time>2026-04-19T14:32:17Z</time></trkpt><trkpt lat="42.177942912410074" lon="13.806625635614255"><ele>399.0</ele><time>2026-04-19T14:32:18Z</time></trkpt><trkpt lat="42.17798802985823" lon="13.80674006203207"><ele>399.0</ele><time>2026-04-19T14:32:19Z</time></trkpt><trkpt lat="42.17803239076732" lon="13.806854510398798"><ele>399.0</ele><time>2026-04-19T14:32:20Z</time></trkpt><trkpt lat="42.178080001403096" lon="13.806970600625473"><ele>399.0</ele><time>2026-04-19T14:32:21Z</time></trkpt><trkpt lat="42.17812373758445" lon="13.807083950539754"><ele>399.0</ele><time>2026-04-19T14:32:22Z</time></trkpt><trkpt lat="42.178168557961456" lon="13.807190178088945"><ele>394.6666666666667</ele><time>2026-04-19T14:32:23Z</time></trkpt><trkpt lat="42.1781959713858" lon="13.807303124875542"><ele>390.3333333333333</ele><time>2026-04-19T14:32:24Z</time></trkpt><trkpt lat="42.17824256555395" lon="13.807401387127157"><ele>386.0</ele><time>2026-04-19T14:32:25Z</time></trkpt><trkpt lat="42.17828122257461" lon="13.807502131613317"><ele>381.66666666666663</ele><time>2026-04-19T14:32:26Z</time></trkpt><trkpt lat="42.17831178862573" lon="13.807605291336062"><ele>377.3333333333333</ele><time>2026-04-19T14:32:27Z</time></trkpt><trkpt lat="42.1783496576124" lon="13.807714975616925"><ele>373.0</ele><time>2026-04-19T14:32:28Z</time></trkpt><trkpt lat="42.17838608801677" lon="13.807831041015248"><ele>373.0</ele><time>2026-04-19T14:32:29Z</time></trkpt><trkpt lat="42.17842465846431" lon="13.80794721580179"><ele>373.0</ele><time>2026-04-19T14:32:30Z</time></trkpt><trkpt lat="42.17847173226199" lon="13.808060805439265"><ele>373.0</ele><time>2026-04-19T14:32:31Z</time></trkpt><trkpt lat="42.17851683420743" lon="13.808176949020876"><ele>373.0</ele><time>2026-04-19T14:32:32Z</time></trkpt><trkpt lat="42.178562347105874" lon="13.80829242087094"><ele>373.0</ele><time>2026-04-19T14:32:33Z</time></trkpt><trkpt lat="42.17860843408792" lon="13.808402834549954"><ele>372.59999999999997</ele><time>2026-04-19T14:32:34Z</time></trkpt><trkpt lat="42.1786507935329" lon="13.80851377552313"><ele>372.2</ele><time>2026-04-19T14:32:35Z</time></trkpt><trkpt lat="42.17869501266633" lon="13.808627828768802"><ele>371.8</ele><time>2026-04-19T14:32:36Z</time></trkpt><trkpt lat="42.178734540076256" lon="13.808740944092442"><ele>371.4</ele><time>2026-04-19T14:32:37Z</time></trkpt><trkpt lat="42.17876672489176" lon="13.808846216817704"><ele>371.0</ele><time>2026-04-19T14:32:38Z</time></trkpt><trkpt lat="42.17880219889005" lon="13.808950221221512"><ele>371.0</ele><time>2026-04-19T14:32:39Z</time></trkpt><trkpt lat="42.17883359980456" lon="13.809054594477734"><ele>371.0</ele><time>2026-04-19T14:32:40Z</time></trkpt><trkpt lat="42.17887266540278" lon="13.809164115119302"><ele>371.0</ele><time>2026-04-19T14:32:41Z</time></trkpt><trkpt lat="42.178914468586534" lon="13.809312635076026"><ele>371.0</ele><time>2026-04-19T14:32:42Z</time></trkpt><trkpt lat="42.17895220405298" lon="13.80945631366783"><ele>371.0</ele><time>2026-04-19T14:32:43Z</time></trkpt><trkpt lat="42.17896200028455" lon="13.80958710221229"><ele>368.8</ele><time>2026-04-19T14:32:44Z</time></trkpt><trkpt lat="42.17898354474444" lon="13.809710705441189"><ele>366.6</ele><time>2026-04-19T14:32:45Z</time></trkpt><trkpt lat="42.179002919752165" lon="13.809832427421064"><ele>364.4</ele><time>2026-04-19T14:32:46Z</time></trkpt><trkpt lat="42.179036103379104" lon="13.809949691732331"><ele>362.2</ele><time>2026-04-19T14:32:47Z</time></trkpt><trkpt lat="42.179045378461446" lon="13.810070598080795"><ele>360.0</ele><time>2026-04-19T14:32:48Z</time></trkpt><trkpt lat="42.179051284655806" lon="13.81020064227881"><ele>358.8</ele><time>2026-04-19T14:32:49Z</time></trkpt><trkpt lat="42.17902782429811" lon="13.810329748843778"><ele>357.6</ele><time>2026-04-19T14:32:50Z</time></trkpt><trkpt lat="42.179006354324024" lon="13.810457033087719"><ele>356.4</ele><time>2026-04-19T14:32:51Z</time></trkpt><trkpt lat="42.178977998466564" lon="13.810577366723544"><ele>355.2</ele><time>2026-04-19T14:32:52Z</time></trkpt><trkpt lat="42.17894073162693" lon="13.810699689732935"><ele>354.0</ele><time>2026-04-19T14:32:53Z</time></trkpt><trkpt lat="42.17890265087951" lon="13.810825676702597"><ele>353.4</ele><time>2026-04-19T14:32:54Z</time></trkpt><trkpt lat="42.17887043440666" lon="13.810953261246391"><ele>352.79999999999995</ele><time>2026-04-19T14:32:55Z</time></trkpt><trkpt lat="42.17884526720781" lon="13.811085323733801"><ele>352.20000000000005</ele><time>2026-04-19T14:32:56Z</time></trkpt><trkpt lat="42.17882067134023" lon="13.811217066595088"><ele>351.6</ele><time>2026-04-19T14:32:57Z</time></trkpt><trkpt lat="42.17880008553052" lon="13.811346586402214"><ele>351.0</ele><time>2026-04-19T14:32:58Z</time></trkpt><trkpt lat="42.17877846754303" lon="13.81147278059187"><ele>350.20000000000005</ele><time>2026-04-19T14:32:59Z</time></trkpt><trkpt lat="42.17875520691051" lon="13.811598652622415"><ele>349.40000000000003</ele><time>2026-04-19T14:33:00Z</time></trkpt><trkpt lat="42.178730041561366" lon="13.811725323538111"><ele>348.6</ele><time>2026-04-19T14:33:01Z</time></trkpt><trkpt lat="42.178708590015006" lon="13.811859734174217"><ele>347.8</ele><time>2026-04-19T14:33:02Z</time></trkpt><trkpt lat="42.17869798647219" lon="13.81199445631087"><ele>347.0</ele><time>2026-04-19T14:33:03Z</time></trkpt><trkpt lat="42.17869321162079" lon="13.81212990264205"><ele>347.0</ele><time>2026-04-19T14:33:04Z</time></trkpt><trkpt lat="42.17869596528742" lon="13.812266514247451"><ele>347.0</ele><time>2026-04-19T14:33:05Z</time></trkpt><trkpt lat="42.17870701919311" lon="13.81239989445711"><ele>347.0</ele><time>2026-04-19T14:33:06Z</time></trkpt><trkpt lat="42.1787228936175" lon="13.812529242692447"><ele>347.0</ele><time>2026-04-19T14:33:07Z</time></trkpt><trkpt lat="42.178749315263424" lon="13.812655942749737"><ele>347.0</ele><time>2026-04-19T14:33:08Z</time></trkpt><trkpt lat="42.178785018221916" lon="13.81277878303988"><ele>346.8</ele><time>2026-04-19T14:33:09Z</time></trkpt><trkpt lat="42.17882825211379" lon="13.812898742229308"><ele>346.6</ele><time>2026-04-19T14:33:10Z</time></trkpt><trkpt lat="42.17888267836691" lon="13.812999965173283"><ele>346.40000000000003</ele><time>2026-04-19T14:33:11Z</time></trkpt><trkpt lat="42.17892079060881" lon="13.81311286440842"><ele>346.20000000000005</ele><time>2026-04-19T14:33:12Z</time></trkpt><trkpt lat="42.178959337759316" lon="13.813223273131484"><ele>346.0</ele><time>2026-04-19T14:33:13Z</time></trkpt><trkpt lat="42.178983092436766" lon="13.813345361222828"><ele>345.8333333333333</ele><time>2026-04-19T14:33:14Z</time></trkpt><trkpt lat="42.17903423450912" lon="13.81345385306412"><ele>345.66666666666663</ele><time>2026-04-19T14:33:15Z</time></trkpt><trkpt lat="42.179066868198426" lon="13.813566159494354"><ele>345.5</ele><time>2026-04-19T14:33:16Z</time></trkpt><trkpt lat="42.179098682843566" lon="13.813674480369539"><ele>345.3333333333333</ele><time>2026-04-19T14:33:17Z</time></trkpt><trkpt lat="42.179127620382815" lon="13.813787566298114"><ele>345.1666666666667</ele><time>2026-04-19T14:33:18Z</time></trkpt><trkpt lat="42.1791355875657" lon="13.813906532704772"><ele>345.0</ele><time>2026-04-19T14:33:19Z</time></trkpt><trkpt lat="42.179157201523914" lon="13.814021137001687"><ele>343.6</ele><time>2026-04-19T14:33:20Z</time></trkpt><trkpt lat="42.17917615182703" lon="13.814136251703786"><ele>342.2</ele><time>2026-04-19T14:33:21Z</time></trkpt><trkpt lat="42.179210209772926" lon="13.814250059163204"><ele>340.79999999999995</ele><time>2026-04-19T14:33:22Z</time></trkpt><trkpt lat="42.17922133075707" lon="13.814371893407456"><ele>339.4</ele><time>2026-04-19T14:33:23Z</time></trkpt><trkpt lat="42.17921974514163" lon="13.814498332454741"><ele>338.0</ele><time>2026-04-19T14:33:24Z</time></trkpt><trkpt lat="42.17924563079225" lon="13.81462668775607"><ele>335.4</ele><time>2026-04-19T14:33:25Z</time></trkpt><trkpt lat="42.179248708596226" lon="13.81475193590636"><ele>332.79999999999995</ele><time>2026-04-19T14:33:26Z</time></trkpt><trkpt lat="42.17924440337553" lon="13.814876269346128"><ele>330.2</ele><time>2026-04-19T14:33:27Z</time></trkpt><trkpt lat="42.17923703266771" lon="13.815007773437442"><ele>327.6</ele><time>2026-04-19T14:33:28Z</time></trkpt><trkpt lat="42.17923067781845" lon="13.81512405145556"><ele>325.0</ele><time>2026-04-19T14:33:29Z</time></trkpt><trkpt lat="42.1792181282198" lon="13.815238633159986"><ele>323.2</ele><time>2026-04-19T14:33:30Z</time></trkpt><trkpt lat="42.179198955408985" lon="13.815356733565476"><ele>321.4</ele><time>2026-04-19T14:33:31Z</time></trkpt><trkpt lat="42.17917685442708" lon="13.815473386737144"><ele>319.6</ele><time>2026-04-19T14:33:32Z</time></trkpt><trkpt lat="42.17915072110736" lon="13.815591303211946"><ele>317.8</ele><time>2026-04-19T14:33:33Z</time></trkpt><trkpt lat="42.179124402190645" lon="13.815709909021045"><ele>316.0</ele><time>2026-04-19T14:33:34Z</time></trkpt><trkpt lat="42.17910011540385" lon="13.81582538513419"><ele>316.0</ele><time>2026-04-19T14:33:35Z</time></trkpt><trkpt lat="42.17907691545868" lon="13.815942726185773"><ele>316.0</ele><time>2026-04-19T14:33:36Z</time></trkpt><trkpt lat="42.179055397813144" lon="13.816056641231068"><ele>316.0</ele><time>2026-04-19T14:33:37Z</time></trkpt><trkpt lat="42.17903878093049" lon="13.816168930193088"><ele>316.0</ele><time>2026-04-19T14:33:38Z</time></trkpt><trkpt lat="42.17902810397924" lon="13.816279883897387"><ele>316.0</ele><time>2026-04-19T14:33:39Z</time></trkpt><trkpt lat="42.17902082127325" lon="13.816392581481928"><ele>316.0</ele><time>2026-04-19T14:33:40Z</time></trkpt><trkpt lat="42.17901393470465" lon="13.816501458378902"><ele>314.0</ele><time>2026-04-19T14:33:41Z</time></trkpt><trkpt lat="42.17900679741827" lon="13.816605626921808"><ele>312.0</ele><time>2026-04-19T14:33:42Z</time></trkpt><trkpt lat="42.17901289775389" lon="13.81672631448735"><ele>310.0</ele><time>2026-04-19T14:33:43Z</time></trkpt><trkpt lat="42.17900519829204" lon="13.816835401830055"><ele>308.0</ele><time>2026-04-19T14:33:44Z</time></trkpt><trkpt lat="42.1789882555242" lon="13.816946917112077"><ele>306.0</ele><time>2026-04-19T14:33:45Z</time></trkpt><trkpt lat="42.17898131774723" lon="13.817075351192061"><ele>304.0</ele><time>2026-04-19T14:33:46Z</time></trkpt><trkpt lat="42.178965741584626" lon="13.817213960104116"><ele>303.8</ele><time>2026-04-19T14:33:47Z</time></trkpt><trkpt lat="42.178956434139494" lon="13.817356307902074"><ele>303.59999999999997</ele><time>2026-04-19T14:33:48Z</time></trkpt><trkpt lat="42.178943599104315" lon="13.81750405140751"><ele>303.4</ele><time>2026-04-19T14:33:49Z</time></trkpt><trkpt lat="42.17891812764257" lon="13.817650849596742"><ele>303.2</ele><time>2026-04-19T14:33:50Z</time></trkpt><trkpt lat="42.17890438095002" lon="13.817789125614983"><ele>303.0</ele><time>2026-04-19T14:33:51Z</time></trkpt><trkpt lat="42.17889025414593" lon="13.817931224453798"><ele>302.2</ele><time>2026-04-19T14:33:52Z</time></trkpt><trkpt lat="42.17887701978248" lon="13.81806738562273"><ele>301.4</ele><time>2026-04-19T14:33:53Z</time></trkpt><trkpt lat="42.17886697595569" lon="13.818189500843634"><ele>300.59999999999997</ele><time>2026-04-19T14:33:54Z</time></trkpt><trkpt lat="42.17885730855494" lon="13.818307040040029"><ele>299.8</ele><time>2026-04-19T14:33:55Z</time></trkpt><trkpt lat="42.178846322123" lon="13.818426608965778"><ele>299.0</ele><time>2026-04-19T14:33:56Z</time></trkpt><trkpt lat="42.1788315899968" lon="13.818545638615518"><ele>296.5</ele><time>2026-04-19T14:33:57Z</time></trkpt><trkpt lat="42.17881394998654" lon="13.818654649403602"><ele>294.0</ele><time>2026-04-19T14:33:58Z</time></trkpt><trkpt lat="42.17879406791547" lon="13.818757488960195"><ele>291.5</ele><time>2026-04-19T14:33:59Z</time></trkpt><trkpt lat="42.17877084887067" lon="13.818867791179017"><ele>289.0</ele><time>2026-04-19T14:34:00Z</time></trkpt><trkpt lat="42.17874369494088" lon="13.81899325470853"><ele>286.5</ele><time>2026-04-19T14:34:01Z</time></trkpt><trkpt lat="42.17871497804685" lon="13.819113214178659"><ele>284.0</ele><time>2026-04-19T14:34:02Z</time></trkpt><trkpt lat="42.178687980902694" lon="13.819225989592226"><ele>282.4</ele><time>2026-04-19T14:34:03Z</time></trkpt><trkpt lat="42.17866470749993" lon="13.819344341038514"><ele>280.79999999999995</ele><time>2026-04-19T14:34:04Z</time></trkpt><trkpt lat="42.17864363641307" lon="13.8194639087141"><ele>279.20000000000005</ele><time>2026-04-19T14:34:05Z</time></trkpt><trkpt lat="42.17862384828424" lon="13.819588327165983"><ele>277.6</ele><time>2026-04-19T14:34:06Z</time></trkpt><trkpt lat="42.17860926654035" lon="13.819702019040168"><ele>276.0</ele><time>2026-04-19T14:34:07Z</time></trkpt><trkpt lat="42.178598587055454" lon="13.819822722585716"><ele>276.0</ele><time>2026-04-19T14:34:08Z</time></trkpt><trkpt lat="42.178597045562036" lon="13.819945509343771"><ele>276.0</ele><time>2026-04-19T14:34:09Z</time></trkpt><trkpt lat="42.17860633385592" lon="13.820065173535674"><ele>276.0</ele><time>2026-04-19T14:34:10Z</time></trkpt><trkpt lat="42.17861670915099" lon="13.820173574153124"><ele>276.0</ele><time>2026-04-19T14:34:11Z</time></trkpt><trkpt lat="42.17862999954251" lon="13.820282643231252"><ele>276.0</ele><time>2026-04-19T14:34:12Z</time></trkpt><trkpt lat="42.17865112854726" lon="13.820395811438193"><ele>276.0</ele><time>2026-04-19T14:34:13Z</time></trkpt><trkpt lat="42.178677853487166" lon="13.82049125978193"><ele>274.1666666666667</ele><time>2026-04-19T14:34:14Z</time></trkpt><trkpt lat="42.17872046547896" lon="13.820591438738877"><ele>272.3333333333333</ele><time>2026-04-19T14:34:15Z</time></trkpt><trkpt lat="42.17876509615313" lon="13.820691760464511"><ele>270.5</ele><time>2026-04-19T14:34:16Z</time></trkpt><trkpt lat="42.178805236185156" lon="13.820778145776497"><ele>268.66666666666663</ele><time>2026-04-19T14:34:17Z</time></trkpt><trkpt lat="42.17885471497919" lon="13.820875076355337"><ele>266.8333333333333</ele><time>2026-04-19T14:34:18Z</time></trkpt><trkpt lat="42.178901921429414" lon="13.82095241292631"><ele>265.0</ele><time>2026-04-19T14:34:19Z</time></trkpt><trkpt lat="42.178965064095514" lon="13.821003373174332"><ele>264.8333333333333</ele><time>2026-04-19T14:34:20Z</time></trkpt><trkpt lat="42.179062530089276" lon="13.821071592224197"><ele>264.66666666666663</ele><time>2026-04-19T14:34:22Z</time></trkpt><trkpt lat="42.179072097726504" lon="13.821158071601355"><ele>264.5</ele><time>2026-04-19T14:34:23Z</time></trkpt><trkpt lat="42.17909341494422" lon="13.821242975199876"><ele>264.3333333333333</ele><time>2026-04-19T14:34:24Z</time></trkpt><trkpt lat="42.17911312800088" lon="13.821338937525216"><ele>264.1666666666667</ele><time>2026-04-19T14:34:25Z</time></trkpt><trkpt lat="42.17914065035816" lon="13.821442965005113"><ele>264.0</ele><time>2026-04-19T14:34:26Z</time></trkpt><trkpt lat="42.17917283481459" lon="13.821547776419965"><ele>264.0</ele><time>2026-04-19T14:34:27Z</time></trkpt><trkpt lat="42.17920366593941" lon="13.821651160288358"><ele>264.0</ele><time>2026-04-19T14:34:28Z</time></trkpt><trkpt lat="42.17923115365199" lon="13.821756456613072"><ele>264.0</ele><time>2026-04-19T14:34:29Z</time></trkpt><trkpt lat="42.17925614650255" lon="13.821864561568672"><ele>264.0</ele><time>2026-04-19T14:34:30Z</time></trkpt><trkpt lat="42.179273743554184" lon="13.821962136373793"><ele>264.0</ele><time>2026-04-19T14:34:31Z</time></trkpt><trkpt lat="42.17927586317501" lon="13.822060388126273"><ele>264.0</ele><time>2026-04-19T14:34:32Z</time></trkpt><trkpt lat="42.17924210093947" lon="13.822141278079984"><ele>263.2</ele><time>2026-04-19T14:34:33Z</time></trkpt><trkpt lat="42.17920779727423" lon="13.822248248578875"><ele>262.4</ele><time>2026-04-19T14:34:34Z</time></trkpt><trkpt lat="42.17916329161725" lon="13.822359267067343"><ele>261.6</ele><time>2026-04-19T14:34:35Z</time></trkpt><trkpt lat="42.179106862755205" lon="13.822462533256257"><ele>260.8</ele><time>2026-04-19T14:34:36Z</time></trkpt><trkpt lat="42.179044042650794" lon="13.822567571022844"><ele>260.0</ele><time>2026-04-19T14:34:37Z</time></trkpt><trkpt lat="42.17897520972789" lon="13.82267358707182"><ele>260.0</ele><time>2026-04-19T14:34:38Z</time></trkpt><trkpt lat="42.178907112213" lon="13.82277656530913"><ele>260.0</ele><time>2026-04-19T14:34:39Z</time></trkpt><trkpt lat="42.178843311865045" lon="13.822875718841928"><ele>260.0</ele><time>2026-04-19T14:34:40Z</time></trkpt><trkpt lat="42.17878872974864" lon="13.82296721306182"><ele>260.0</ele><time>2026-04-19T14:34:41Z</time></trkpt><trkpt lat="42.178740443529996" lon="13.823055306014883"><ele>260.0</ele><time>2026-04-19T14:34:42Z</time></trkpt><trkpt lat="42.17869643217843" lon="13.823150858891228"><ele>260.0</ele><time>2026-04-19T14:34:43Z</time></trkpt><trkpt lat="42.17865754599764" lon="13.823254664601352"><ele>260.0</ele><time>2026-04-19T14:34:44Z</time></trkpt><trkpt lat="42.17862363061608" lon="13.823367462151712"><ele>260.0</ele><time>2026-04-19T14:34:45Z</time></trkpt><trkpt lat="42.17858949722268" lon="13.823486024853866"><ele>260.0</ele><time>2026-04-19T14:34:46Z</time></trkpt><trkpt lat="42.178558060848225" lon="13.82359838675609"><ele>260.0</ele><time>2026-04-19T14:34:47Z</time></trkpt><trkpt lat="42.17852993954918" lon="13.823698140020603"><ele>260.0</ele><time>2026-04-19T14:34:48Z</time></trkpt><trkpt lat="42.17850165230198" lon="13.823787898819392"><ele>260.5</ele><time>2026-04-19T14:34:49Z</time></trkpt><trkpt lat="42.17846947496367" lon="13.823876752443317"><ele>261.0</ele><time>2026-04-19T14:34:50Z</time></trkpt><trkpt lat="42.17843384186102" lon="13.823959304002637"><ele>261.5</ele><time>2026-04-19T14:34:51Z</time></trkpt><trkpt lat="42.17839145803425" lon="13.824033629956896"><ele>262.0</ele><time>2026-04-19T14:34:52Z</time></trkpt><trkpt lat="42.17833458140476" lon="13.824108773871123"><ele>262.5</ele><time>2026-04-19T14:34:53Z</time></trkpt><trkpt lat="42.17826732809992" lon="13.824175008505605"><ele>263.0</ele><time>2026-04-19T14:34:54Z</time></trkpt><trkpt lat="42.178201969475246" lon="13.824249249622833"><ele>262.85714285714283</ele><time>2026-04-19T14:34:55Z</time></trkpt><trkpt lat="42.17814336621703" lon="13.824320567623479"><ele>262.71428571428567</ele><time>2026-04-19T14:34:56Z</time></trkpt><trkpt lat="42.17808301750685" lon="13.824387111689735"><ele>262.57142857142856</ele><time>2026-04-19T14:34:57Z</time></trkpt><trkpt lat="42.17802464607358" lon="13.82444933919383"><ele>262.42857142857144</ele><time>2026-04-19T14:34:58Z</time></trkpt><trkpt lat="42.17796239013232" lon="13.824509681886093"><ele>262.28571428571433</ele><time>2026-04-19T14:34:59Z</time></trkpt><trkpt lat="42.177902260335856" lon="13.824568048154388"><ele>262.14285714285717</ele><time>2026-04-19T14:35:00Z</time></trkpt><trkpt lat="42.17784823578504" lon="13.824619841456544"><ele>262.0</ele><time>2026-04-19T14:35:01Z</time></trkpt><trkpt lat="42.177789027251094" lon="13.824701747400669"><ele>262.0</ele><time>2026-04-19T14:35:02Z</time></trkpt><trkpt lat="42.17771540029585" lon="13.824743934314528"><ele>262.0</ele><time>2026-04-19T14:35:03Z</time></trkpt><trkpt lat="42.1776581952749" lon="13.824796071306947"><ele>262.0</ele><time>2026-04-19T14:35:04Z</time></trkpt><trkpt lat="42.17759617949901" lon="13.824850702303577"><ele>262.0</ele><time>2026-04-19T14:35:05Z</time></trkpt><trkpt lat="42.17753431974107" lon="13.824902678706408"><ele>262.0</ele><time>2026-04-19T14:35:06Z</time></trkpt><trkpt lat="42.1774689527824" lon="13.824957601960467"><ele>262.0</ele><time>2026-04-19T14:35:07Z</time></trkpt><trkpt lat="42.17740174307109" lon="13.825013925638132"><ele>262.0</ele><time>2026-04-19T14:35:08Z</time></trkpt><trkpt lat="42.17733632664346" lon="13.825068607482429"><ele>262.0</ele><time>2026-04-19T14:35:09Z</time></trkpt><trkpt lat="42.17726823699148" lon="13.825125524197633"><ele>262.0</ele><time>2026-04-19T14:35:10Z</time></trkpt><trkpt lat="42.177200225905615" lon="13.825182374985019"><ele>262.0</ele><time>2026-04-19T14:35:11Z</time></trkpt><trkpt lat="42.17713279354709" lon="13.825238742067402"><ele>262.0</ele><time>2026-04-19T14:35:12Z</time></trkpt><trkpt lat="42.1770679753347" lon="13.825293441945199"><ele>262.0</ele><time>2026-04-19T14:35:13Z</time></trkpt><trkpt lat="42.17700069779561" lon="13.825351056636324"><ele>262.0</ele><time>2026-04-19T14:35:14Z</time></trkpt><trkpt lat="42.17691350288419" lon="13.825436577671445"><ele>262.0</ele><time>2026-04-19T14:35:16Z</time></trkpt><trkpt lat="42.17685483725057" lon="13.825495007820697"><ele>262.0</ele><time>2026-04-19T14:35:18Z</time></trkpt><trkpt lat="42.17695019914961" lon="13.825562695140917"><ele>262.0</ele><time>2026-04-19T14:35:38Z</time></trkpt><trkpt lat="42.17696872943996" lon="13.825474351926275"><ele>262.0</ele><time>2026-04-19T14:35:39Z</time></trkpt><trkpt lat="42.17695796376058" lon="13.825318728563563"><ele>262.0</ele><time>2026-04-19T14:35:41Z</time></trkpt><trkpt lat="42.176875402818986" lon="13.82518591034885"><ele>262.0</ele><time>2026-04-19T14:35:43Z</time></trkpt><trkpt lat="42.17682315018683" lon="13.825103925057045"><ele>262.0</ele><time>2026-04-19T14:35:44Z</time></trkpt><trkpt lat="42.17677599448623" lon="13.825015842524644"><ele>262.0</ele><time>2026-04-19T14:35:45Z</time></trkpt><trkpt lat="42.17673624441078" lon="13.82493132803171"><ele>262.0</ele><time>2026-04-19T14:35:46Z</time></trkpt><trkpt lat="42.176702722903" lon="13.824853346511974"><ele>262.0</ele><time>2026-04-19T14:35:47Z</time></trkpt><trkpt lat="42.17668043420725" lon="13.824724339874077"><ele>262.2</ele><time>2026-04-19T14:35:49Z</time></trkpt><trkpt lat="42.176660477927015" lon="13.824623820085158"><ele>262.4</ele><time>2026-04-19T14:35:52Z</time></trkpt><trkpt lat="42.17658508911777" lon="13.824569540628232"><ele>262.6</ele><time>2026-04-19T14:35:55Z</time></trkpt><trkpt lat="42.17650898176381" lon="13.824544012911273"><ele>262.8</ele><time>2026-04-19T14:35:57Z</time></trkpt><trkpt lat="42.17640037155173" lon="13.82451067863139"><ele>263.0</ele><time>2026-04-19T14:35:59Z</time></trkpt><trkpt lat="42.176280390008536" lon="13.824525639131988"><ele>261.6666666666667</ele><time>2026-04-19T14:36:01Z</time></trkpt><trkpt lat="42.17602767953073" lon="13.82442106867637"><ele>260.3333333333333</ele><time>2026-04-19T14:36:03Z</time></trkpt><trkpt lat="42.175934037567565" lon="13.824397612478638"><ele>259.0</ele><time>2026-04-19T14:36:04Z</time></trkpt><trkpt lat="42.17583480764295" lon="13.824343981493387"><ele>259.0</ele><time>2026-04-19T14:36:05Z</time></trkpt><trkpt lat="42.1757252590423" lon="13.824347565434163"><ele>259.0</ele><time>2026-04-19T14:36:06Z</time></trkpt><trkpt lat="42.17561044147914" lon="13.824336575382356"><ele>259.0</ele><time>2026-04-19T14:36:07Z</time></trkpt><trkpt lat="42.175487521201646" lon="13.82432006505361"><ele>259.0</ele><time>2026-04-19T14:36:08Z</time></trkpt><trkpt lat="42.17536002986646" lon="13.824296353334889"><ele>258.0</ele><time>2026-04-19T14:36:09Z</time></trkpt><trkpt lat="42.175241928459265" lon="13.824312839786826"><ele>257.0</ele><time>2026-04-19T14:36:10Z</time></trkpt><trkpt lat="42.175120058140394" lon="13.824285491910025"><ele>256.0</ele><time>2026-04-19T14:36:11Z</time></trkpt><trkpt lat="42.17499390836141" lon="13.824278933693392"><ele>255.0</ele><time>2026-04-19T14:36:12Z</time></trkpt><trkpt lat="42.17486423159031" lon="13.824277845216763"><ele>255.25</ele><time>2026-04-19T14:36:13Z</time></trkpt><trkpt lat="42.174734838228" lon="13.824270856572658"><ele>255.5</ele><time>2026-04-19T14:36:14Z</time></trkpt><trkpt lat="42.17459875594088" lon="13.82426004373972"><ele>255.75</ele><time>2026-04-19T14:36:15Z</time></trkpt><trkpt lat="42.17446726552562" lon="13.824247306678688"><ele>256.0</ele><time>2026-04-19T14:36:16Z</time></trkpt><trkpt lat="42.17432750462506" lon="13.824239569386945"><ele>256.0</ele><time>2026-04-19T14:36:17Z</time></trkpt><trkpt lat="42.17418400181493" lon="13.824230832564398"><ele>256.0</ele><time>2026-04-19T14:36:18Z</time></trkpt><trkpt lat="42.174042557215046" lon="13.82421860587947"><ele>256.0</ele><time>2026-04-19T14:36:19Z</time></trkpt><trkpt lat="42.17389953399744" lon="13.824211904546493"><ele>256.0</ele><time>2026-04-19T14:36:20Z</time></trkpt><trkpt lat="42.17376285148747" lon="13.824197605012044"><ele>255.75</ele><time>2026-04-19T14:36:21Z</time></trkpt><trkpt lat="42.17361706945463" lon="13.824188924890697"><ele>255.5</ele><time>2026-04-19T14:36:22Z</time></trkpt><trkpt lat="42.173468667977446" lon="13.824176291987879"><ele>255.25</ele><time>2026-04-19T14:36:23Z</time></trkpt><trkpt lat="42.173322271828596" lon="13.824168905721477"><ele>255.0</ele><time>2026-04-19T14:36:24Z</time></trkpt><trkpt lat="42.17319173409186" lon="13.824158323744308"><ele>255.5</ele><time>2026-04-19T14:36:25Z</time></trkpt><trkpt lat="42.17304452676731" lon="13.824148119618616"><ele>256.0</ele><time>2026-04-19T14:36:26Z</time></trkpt><trkpt lat="42.17289937351411" lon="13.824136266239424"><ele>256.5</ele><time>2026-04-19T14:36:27Z</time></trkpt><trkpt lat="42.172753036561886" lon="13.824117675666978"><ele>257.0</ele><time>2026-04-19T14:36:28Z</time></trkpt><trkpt lat="42.17260761699353" lon="13.82410071612956"><ele>257.0</ele><time>2026-04-19T14:36:29Z</time></trkpt><trkpt lat="42.172465573621785" lon="13.82408622424294"><ele>257.0</ele><time>2026-04-19T14:36:30Z</time></trkpt><trkpt lat="42.17232545987352" lon="13.824077642175952"><ele>257.0</ele><time>2026-04-19T14:36:31Z</time></trkpt><trkpt lat="42.172194105650895" lon="13.824064238626331"><ele>257.0</ele><time>2026-04-19T14:36:32Z</time></trkpt><trkpt lat="42.17206872099796" lon="13.824064027030952"><ele>256.25</ele><time>2026-04-19T14:36:33Z</time></trkpt><trkpt lat="42.17194126706785" lon="13.824073661193395"><ele>255.5</ele><time>2026-04-19T14:36:34Z</time></trkpt><trkpt lat="42.17181784280819" lon="13.82410112017841"><ele>254.75</ele><time>2026-04-19T14:36:35Z</time></trkpt><trkpt lat="42.171690946056785" lon="13.824151833578608"><ele>254.0</ele><time>2026-04-19T14:36:36Z</time></trkpt><trkpt lat="42.17156984048004" lon="13.824209677739017"><ele>253.25</ele><time>2026-04-19T14:36:37Z</time></trkpt><trkpt lat="42.171451868563736" lon="13.824285777388203"><ele>252.5</ele><time>2026-04-19T14:36:38Z</time></trkpt><trkpt lat="42.171351288224606" lon="13.824377996928678"><ele>251.75</ele><time>2026-04-19T14:36:39Z</time></trkpt><trkpt lat="42.1712575976777" lon="13.824480381547323"><ele>251.0</ele><time>2026-04-19T14:36:40Z</time></trkpt><trkpt lat="42.171165618889226" lon="13.824582629023174"><ele>250.8</ele><time>2026-04-19T14:36:41Z</time></trkpt><trkpt lat="42.17107558946528" lon="13.824683808462384"><ele>250.60000000000002</ele><time>2026-04-19T14:36:42Z</time></trkpt><trkpt lat="42.170994262013295" lon="13.824778710811634"><ele>250.4</ele><time>2026-04-19T14:36:43Z</time></trkpt><trkpt lat="42.170925160387924" lon="13.824861500878216"><ele>250.2</ele><time>2026-04-19T14:36:44Z</time></trkpt><trkpt lat="42.17085176967303" lon="13.824930889067838"><ele>250.0</ele><time>2026-04-19T14:36:45Z</time></trkpt><trkpt lat="42.170798045806634" lon="13.825008873384773"><ele>250.0</ele><time>2026-04-19T14:36:46Z</time></trkpt><trkpt lat="42.17074373575963" lon="13.825069653446203"><ele>250.0</ele><time>2026-04-19T14:36:47Z</time></trkpt><trkpt lat="42.17064297611039" lon="13.82517342349313"><ele>250.0</ele><time>2026-04-19T14:36:49Z</time></trkpt><trkpt lat="42.1705684189938" lon="13.825263853815882"><ele>250.0</ele><time>2026-04-19T14:36:51Z</time></trkpt><trkpt lat="42.170495599196784" lon="13.825335315242349"><ele>250.0</ele><time>2026-04-19T14:37:54Z</time></trkpt><trkpt lat="42.17044217476436" lon="13.8254006263417"><ele>249.49999999999997</ele><time>2026-04-19T14:37:55Z</time></trkpt><trkpt lat="42.17038424941523" lon="13.82547442631131"><ele>249.0</ele><time>2026-04-19T14:37:56Z</time></trkpt><trkpt lat="42.17032651492622" lon="13.82555460233228"><ele>248.5</ele><time>2026-04-19T14:37:57Z</time></trkpt><trkpt lat="42.17025792591052" lon="13.825637017913492"><ele>248.0</ele><time>2026-04-19T14:37:58Z</time></trkpt><trkpt lat="42.17018130468128" lon="13.825722504482952"><ele>247.49999999999997</ele><time>2026-04-19T14:37:59Z</time></trkpt><trkpt lat="42.1701072010518" lon="13.825802549820175"><ele>247.0</ele><time>2026-04-19T14:38:00Z</time></trkpt><trkpt lat="42.170040722524696" lon="13.825885680438915"><ele>247.0</ele><time>2026-04-19T14:38:01Z</time></trkpt><trkpt lat="42.16997316575778" lon="13.825967722883428"><ele>247.0</ele><time>2026-04-19T14:38:02Z</time></trkpt><trkpt lat="42.1699072539009" lon="13.826047345097335"><ele>247.0</ele><time>2026-04-19T14:38:03Z</time></trkpt><trkpt lat="42.16983615768924" lon="13.826129229988116"><ele>247.0</ele><time>2026-04-19T14:38:04Z</time></trkpt><trkpt lat="42.169761651034634" lon="13.826212825479443"><ele>247.0</ele><time>2026-04-19T14:38:05Z</time></trkpt><trkpt lat="42.16968346788266" lon="13.826305182898913"><ele>247.0</ele><time>2026-04-19T14:38:06Z</time></trkpt><trkpt lat="42.169603328522946" lon="13.826417151967489"><ele>247.0</ele><time>2026-04-19T14:38:07Z</time></trkpt><trkpt lat="42.16952749431189" lon="13.826544138082095"><ele>247.0</ele><time>2026-04-19T14:38:08Z</time></trkpt><trkpt lat="42.16945683162061" lon="13.82668653749256"><ele>247.0</ele><time>2026-04-19T14:38:09Z</time></trkpt><trkpt lat="42.16939162100896" lon="13.826830387906028"><ele>247.0</ele><time>2026-04-19T14:38:10Z</time></trkpt><trkpt lat="42.169340851537854" lon="13.82698644501161"><ele>247.0</ele><time>2026-04-19T14:38:11Z</time></trkpt><trkpt lat="42.1692906639002" lon="13.827139633231482"><ele>247.0</ele><time>2026-04-19T14:38:12Z</time></trkpt><trkpt lat="42.16925926280634" lon="13.82730795918774"><ele>247.0</ele><time>2026-04-19T14:38:13Z</time></trkpt><trkpt lat="42.169236895873496" lon="13.827479090570629"><ele>246.25</ele><time>2026-04-19T14:38:14Z</time></trkpt><trkpt lat="42.16923164233776" lon="13.827651354178657"><ele>245.5</ele><time>2026-04-19T14:38:15Z</time></trkpt><trkpt lat="42.16923491450656" lon="13.827820570832866"><ele>244.75</ele><time>2026-04-19T14:38:16Z</time></trkpt><trkpt lat="42.169245319677906" lon="13.827987077348093"><ele>244.0</ele><time>2026-04-19T14:38:17Z</time></trkpt><trkpt lat="42.16925558934702" lon="13.828154663143382"><ele>244.0</ele><time>2026-04-19T14:38:18Z</time></trkpt><trkpt lat="42.16926465264116" lon="13.828320216399117"><ele>244.0</ele><time>2026-04-19T14:38:19Z</time></trkpt><trkpt lat="42.16927455922021" lon="13.828484979704587"><ele>244.0</ele><time>2026-04-19T14:38:20Z</time></trkpt><trkpt lat="42.16928523230398" lon="13.828647754180711"><ele>244.0</ele><time>2026-04-19T14:38:21Z</time></trkpt><trkpt lat="42.16929326604674" lon="13.82880934843654"><ele>244.0</ele><time>2026-04-19T14:38:22Z</time></trkpt><trkpt lat="42.16930293622782" lon="13.828964064042967"><ele>244.0</ele><time>2026-04-19T14:38:23Z</time></trkpt><trkpt lat="42.16931289097585" lon="13.829118317642449"><ele>244.0</ele><time>2026-04-19T14:38:24Z</time></trkpt><trkpt lat="42.16932368913746" lon="13.829272311869042"><ele>244.0</ele><time>2026-04-19T14:38:25Z</time></trkpt><trkpt lat="42.169331591926515" lon="13.829421531361879"><ele>243.99999999999997</ele><time>2026-04-19T14:38:26Z</time></trkpt><trkpt lat="42.169341107188714" lon="13.829564411503528"><ele>244.0</ele><time>2026-04-19T14:38:27Z</time></trkpt><trkpt lat="42.16934884927541" lon="13.829699701210851"><ele>244.0</ele><time>2026-04-19T14:38:28Z</time></trkpt><trkpt lat="42.1693574527692" lon="13.829817376095908"><ele>244.0</ele><time>2026-04-19T14:38:29Z</time></trkpt><trkpt lat="42.169363057710356" lon="13.829917678313967"><ele>243.99999999999997</ele><time>2026-04-19T14:38:30Z</time></trkpt><trkpt lat="42.16936297171627" lon="13.830006172791803"><ele>244.0</ele><time>2026-04-19T14:38:31Z</time></trkpt><trkpt lat="42.169354903225056" lon="13.830096084075539"><ele>244.16666666666666</ele><time>2026-04-19T14:38:32Z</time></trkpt><trkpt lat="42.169335004821924" lon="13.830190340302138"><ele>244.33333333333331</ele><time>2026-04-19T14:38:33Z</time></trkpt><trkpt lat="42.16930787179541" lon="13.83028370201527"><ele>244.5</ele><time>2026-04-19T14:38:34Z</time></trkpt><trkpt lat="42.16927760431354" lon="13.830365535972659"><ele>244.66666666666669</ele><time>2026-04-19T14:38:35Z</time></trkpt><trkpt lat="42.16922119141353" lon="13.830510034954148"><ele>244.83333333333334</ele><time>2026-04-19T14:38:37Z</time></trkpt><trkpt lat="42.16914179261779" lon="13.830603623459947"><ele>245.0</ele><time>2026-04-19T14:38:39Z</time></trkpt><trkpt lat="42.169051297214" lon="13.830662298613541"><ele>245.0</ele><time>2026-04-19T14:38:41Z</time></trkpt><trkpt lat="42.169018866932305" lon="13.830737482771612"><ele>245.0</ele><time>2026-04-19T14:38:42Z</time></trkpt><trkpt lat="42.16892128479852" lon="13.830740933778129"><ele>245.0</ele><time>2026-04-19T14:38:43Z</time></trkpt><trkpt lat="42.16883003129423" lon="13.83076761182022"><ele>245.0</ele><time>2026-04-19T14:38:44Z</time></trkpt><trkpt lat="42.168723920124535" lon="13.830783357239188"><ele>245.0</ele><time>2026-04-19T14:38:45Z</time></trkpt><trkpt lat="42.1686077662243" lon="13.830797430950174"><ele>245.0</ele><time>2026-04-19T14:38:46Z</time></trkpt><trkpt lat="42.16849399453888" lon="13.83081096795109"><ele>245.0</ele><time>2026-04-19T14:38:47Z</time></trkpt><trkpt lat="42.16838820521902" lon="13.830814204692484"><ele>245.0</ele><time>2026-04-19T14:38:48Z</time></trkpt><trkpt lat="42.168277950130104" lon="13.830819181016967"><ele>245.0</ele><time>2026-04-19T14:38:49Z</time></trkpt><trkpt lat="42.168168360743636" lon="13.830820131164074"><ele>245.0</ele><time>2026-04-19T14:38:50Z</time></trkpt><trkpt lat="42.16805796651875" lon="13.83081489158715"><ele>245.0</ele><time>2026-04-19T14:38:51Z</time></trkpt><trkpt lat="42.16794482003151" lon="13.830810355054926"><ele>245.0</ele><time>2026-04-19T14:38:52Z</time></trkpt><trkpt lat="42.167826435740785" lon="13.83080749080195"><ele>245.0</ele><time>2026-04-19T14:38:53Z</time></trkpt><trkpt lat="42.16770241180433" lon="13.830797641332065"><ele>245.0</ele><time>2026-04-19T14:38:54Z</time></trkpt><trkpt lat="42.16757748046583" lon="13.830788852572267"><ele>245.0</ele><time>2026-04-19T14:38:55Z</time></trkpt><trkpt lat="42.16745169678805" lon="13.830779528151545"><ele>245.0</ele><time>2026-04-19T14:38:56Z</time></trkpt><trkpt lat="42.16731939398881" lon="13.830769009251128"><ele>245.0</ele><time>2026-04-19T14:38:57Z</time></trkpt><trkpt lat="42.167188808157555" lon="13.830756037746715"><ele>245.0</ele><time>2026-04-19T14:38:58Z</time></trkpt><trkpt lat="42.16705934622605" lon="13.830738674972109"><ele>245.25</ele><time>2026-04-19T14:38:59Z</time></trkpt><trkpt lat="42.16691971779993" lon="13.83072020382704"><ele>245.5</ele><time>2026-04-19T14:39:00Z</time></trkpt><trkpt lat="42.166776210593525" lon="13.830690003372418"><ele>245.75</ele><time>2026-04-19T14:39:01Z</time></trkpt><trkpt lat="42.166629134137274" lon="13.83065625728682"><ele>246.0</ele><time>2026-04-19T14:39:02Z</time></trkpt><trkpt lat="42.166474013708964" lon="13.83062821459419"><ele>246.66666666666669</ele><time>2026-04-19T14:39:03Z</time></trkpt><trkpt lat="42.166315351748146" lon="13.830597535737212"><ele>247.33333333333334</ele><time>2026-04-19T14:39:04Z</time></trkpt><trkpt lat="42.16616085210561" lon="13.830564247168246"><ele>248.0</ele><time>2026-04-19T14:39:05Z</time></trkpt><trkpt lat="42.166010565369206" lon="13.830540371549505"><ele>248.0</ele><time>2026-04-19T14:39:06Z</time></trkpt><trkpt lat="42.1658605302125" lon="13.830526889670798"><ele>248.0</ele><time>2026-04-19T14:39:07Z</time></trkpt><trkpt lat="42.16571234424496" lon="13.830528194557582"><ele>248.0</ele><time>2026-04-19T14:39:08Z</time></trkpt><trkpt lat="42.165567978797625" lon="13.830548745065062"><ele>248.0</ele><time>2026-04-19T14:39:09Z</time></trkpt><trkpt lat="42.165416710145635" lon="13.830555895654193"><ele>247.5</ele><time>2026-04-19T14:39:10Z</time></trkpt><trkpt lat="42.165267623222405" lon="13.83059144274576"><ele>247.0</ele><time>2026-04-19T14:39:11Z</time></trkpt><trkpt lat="42.16513041685701" lon="13.830626522601783"><ele>246.5</ele><time>2026-04-19T14:39:12Z</time></trkpt><trkpt lat="42.165001883013986" lon="13.830642542356443"><ele>246.0</ele><time>2026-04-19T14:39:13Z</time></trkpt><trkpt lat="42.16488370483258" lon="13.83063483741075"><ele>246.0</ele><time>2026-04-19T14:39:14Z</time></trkpt><trkpt lat="42.16476629667807" lon="13.83060117876157"><ele>246.0</ele><time>2026-04-19T14:39:15Z</time></trkpt><trkpt lat="42.16464725313419" lon="13.8305339084312"><ele>246.0</ele><time>2026-04-19T14:39:16Z</time></trkpt><trkpt lat="42.16453645355014" lon="13.830440789943921"><ele>246.0</ele><time>2026-04-19T14:39:17Z</time></trkpt><trkpt lat="42.164444689929" lon="13.830318330325762"><ele>246.0</ele><time>2026-04-19T14:39:18Z</time></trkpt><trkpt lat="42.16436920310229" lon="13.830176752754364"><ele>246.0</ele><time>2026-04-19T14:39:19Z</time></trkpt><trkpt lat="42.16429848246247" lon="13.830026027046147"><ele>246.0</ele><time>2026-04-19T14:39:20Z</time></trkpt><trkpt lat="42.16422223096682" lon="13.82987618803486"><ele>246.0</ele><time>2026-04-19T14:39:21Z</time></trkpt><trkpt lat="42.164151451105845" lon="13.829734523303514"><ele>246.25</ele><time>2026-04-19T14:39:22Z</time></trkpt><trkpt lat="42.16408246827273" lon="13.829607379953357"><ele>246.5</ele><time>2026-04-19T14:39:23Z</time></trkpt><trkpt lat="42.1640045769614" lon="13.829484694996971"><ele>246.75</ele><time>2026-04-19T14:39:24Z</time></trkpt><trkpt lat="42.16390324809212" lon="13.829366849132354"><ele>247.0</ele><time>2026-04-19T14:39:25Z</time></trkpt><trkpt lat="42.163774297865814" lon="13.829265240473294"><ele>247.0</ele><time>2026-04-19T14:39:26Z</time></trkpt><trkpt lat="42.16363357580776" lon="13.82919845895995"><ele>247.0</ele><time>2026-04-19T14:39:27Z</time></trkpt><trkpt lat="42.16348382098437" lon="13.829151682331787"><ele>247.0</ele><time>2026-04-19T14:39:28Z</time></trkpt><trkpt lat="42.163319420649465" lon="13.829107477114306"><ele>247.0</ele><time>2026-04-19T14:39:29Z</time></trkpt><trkpt lat="42.16315526043029" lon="13.829062925174318"><ele>247.0</ele><time>2026-04-19T14:39:30Z</time></trkpt><trkpt lat="42.16298205011403" lon="13.829031089478082"><ele>247.0</ele><time>2026-04-19T14:39:31Z</time></trkpt><trkpt lat="42.162798559451716" lon="13.829037315102138"><ele>247.0</ele><time>2026-04-19T14:39:32Z</time></trkpt><trkpt lat="42.16261977816699" lon="13.829036566280326"><ele>247.0</ele><time>2026-04-19T14:39:33Z</time></trkpt><trkpt lat="42.16244070467706" lon="13.829042980132833"><ele>247.0</ele><time>2026-04-19T14:39:34Z</time></trkpt><trkpt lat="42.16226246142925" lon="13.829049519819101"><ele>247.33333333333331</ele><time>2026-04-19T14:39:35Z</time></trkpt><trkpt lat="42.1620840032158" lon="13.829055151239645"><ele>247.66666666666669</ele><time>2026-04-19T14:39:36Z</time></trkpt><trkpt lat="42.16190437227397" lon="13.8290644637243"><ele>248.0</ele><time>2026-04-19T14:39:37Z</time></trkpt><trkpt lat="42.16172629370625" lon="13.829077526626458"><ele>248.0</ele><time>2026-04-19T14:39:38Z</time></trkpt><trkpt lat="42.16155163580026" lon="13.829090120443986"><ele>248.0</ele><time>2026-04-19T14:39:39Z</time></trkpt><trkpt lat="42.16137736518806" lon="13.829104835098896"><ele>248.0</ele><time>2026-04-19T14:39:40Z</time></trkpt><trkpt lat="42.16120589941163" lon="13.82911388645941"><ele>248.66666666666669</ele><time>2026-04-19T14:39:41Z</time></trkpt><trkpt lat="42.16104084998663" lon="13.829114740119424"><ele>249.33333333333331</ele><time>2026-04-19T14:39:42Z</time></trkpt><trkpt lat="42.16088610753279" lon="13.82910995186288"><ele>250.0</ele><time>2026-04-19T14:39:43Z</time></trkpt><trkpt lat="42.16074213268669" lon="13.829095147199826"><ele>250.0</ele><time>2026-04-19T14:39:44Z</time></trkpt><trkpt lat="42.16060768782486" lon="13.829065649850245"><ele>250.0</ele><time>2026-04-19T14:39:45Z</time></trkpt><trkpt lat="42.16046911155023" lon="13.829017713839237"><ele>250.0</ele><time>2026-04-19T14:39:46Z</time></trkpt><trkpt lat="42.160331015237766" lon="13.828943770348916"><ele>250.0</ele><time>2026-04-19T14:39:47Z</time></trkpt><trkpt lat="42.16020172856591" lon="13.828822249579105"><ele>250.0</ele><time>2026-04-19T14:39:48Z</time></trkpt><trkpt lat="42.160065347584364" lon="13.828705988693518"><ele>250.0</ele><time>2026-04-19T14:39:49Z</time></trkpt><trkpt lat="42.15991515497896" lon="13.828598029093447"><ele>250.0</ele><time>2026-04-19T14:39:50Z</time></trkpt><trkpt lat="42.15978025731058" lon="13.828452639778627"><ele>249.66666666666666</ele><time>2026-04-19T14:39:51Z</time></trkpt><trkpt lat="42.159623904913836" lon="13.82834469754263"><ele>249.33333333333331</ele><time>2026-04-19T14:39:52Z</time></trkpt><trkpt lat="42.159471914988515" lon="13.82821465668018"><ele>249.0</ele><time>2026-04-19T14:39:53Z</time></trkpt><trkpt lat="42.15931477693382" lon="13.828089990919045"><ele>249.0</ele><time>2026-04-19T14:39:54Z</time></trkpt><trkpt lat="42.1591538289877" lon="13.82796752610805"><ele>249.0</ele><time>2026-04-19T14:39:55Z</time></trkpt><trkpt lat="42.15898572951307" lon="13.827861640820712"><ele>249.0</ele><time>2026-04-19T14:39:56Z</time></trkpt><trkpt lat="42.158819412067366" lon="13.827758920943225"><ele>248.66666666666669</ele><time>2026-04-19T14:39:57Z</time></trkpt><trkpt lat="42.15865618608418" lon="13.827660038977813"><ele>248.33333333333334</ele><time>2026-04-19T14:39:58Z</time></trkpt><trkpt lat="42.15850388737052" lon="13.8275622825153"><ele>248.0</ele><time>2026-04-19T14:39:59Z</time></trkpt><trkpt lat="42.15836632411858" lon="13.82747804031379"><ele>247.75</ele><time>2026-04-19T14:40:00Z</time></trkpt><trkpt lat="42.15823985546944" lon="13.827398080248344"><ele>247.5</ele><time>2026-04-19T14:40:01Z</time></trkpt><trkpt lat="42.15812552281953" lon="13.827321027522688"><ele>247.25</ele><time>2026-04-19T14:40:02Z</time></trkpt><trkpt lat="42.158022594074275" lon="13.82724643248173"><ele>247.0</ele><time>2026-04-19T14:40:03Z</time></trkpt><trkpt lat="42.15791309652125" lon="13.827166059309791"><ele>248.25</ele><time>2026-04-19T14:40:04Z</time></trkpt><trkpt lat="42.15780653564566" lon="13.82706702602097"><ele>249.5</ele><time>2026-04-19T14:40:05Z</time></trkpt><trkpt lat="42.15771114643089" lon="13.826946320739339"><ele>250.75</ele><time>2026-04-19T14:40:06Z</time></trkpt><trkpt lat="42.15762221525785" lon="13.82681535333617"><ele>252.0</ele><time>2026-04-19T14:40:07Z</time></trkpt><trkpt lat="42.15753995275966" lon="13.826684051627526"><ele>252.25</ele><time>2026-04-19T14:40:08Z</time></trkpt><trkpt lat="42.15746253229654" lon="13.826545071675987"><ele>252.5</ele><time>2026-04-19T14:40:09Z</time></trkpt><trkpt lat="42.15739689094247" lon="13.826400738293561"><ele>252.75</ele><time>2026-04-19T14:40:10Z</time></trkpt><trkpt lat="42.157345106574525" lon="13.8262479261882"><ele>253.0</ele><time>2026-04-19T14:40:11Z</time></trkpt><trkpt lat="42.15730083670824" lon="13.82609298257402"><ele>252.5</ele><time>2026-04-19T14:40:12Z</time></trkpt><trkpt lat="42.15727903445058" lon="13.825927442214455"><ele>252.0</ele><time>2026-04-19T14:40:13Z</time></trkpt><trkpt lat="42.15725337996811" lon="13.825767355302002"><ele>251.5</ele><time>2026-04-19T14:40:14Z</time></trkpt><trkpt lat="42.1572193210936" lon="13.82560691068172"><ele>251.0</ele><time>2026-04-19T14:40:15Z</time></trkpt><trkpt lat="42.157203170681335" lon="13.82544526679198"><ele>251.0</ele><time>2026-04-19T14:40:16Z</time></trkpt><trkpt lat="42.157182238401866" lon="13.825283628573422"><ele>251.0</ele><time>2026-04-19T14:40:17Z</time></trkpt><trkpt lat="42.157162000928345" lon="13.825119398145267"><ele>251.0</ele><time>2026-04-19T14:40:18Z</time></trkpt><trkpt lat="42.15714159062709" lon="13.82495329329308"><ele>251.0</ele><time>2026-04-19T14:40:19Z</time></trkpt><trkpt lat="42.15712239950361" lon="13.824785955135033"><ele>251.5</ele><time>2026-04-19T14:40:20Z</time></trkpt><trkpt lat="42.157103375190644" lon="13.824621391773473"><ele>252.0</ele><time>2026-04-19T14:40:21Z</time></trkpt><trkpt lat="42.1570818944296" lon="13.824460057961232"><ele>252.5</ele><time>2026-04-19T14:40:22Z</time></trkpt><trkpt lat="42.157062518188894" lon="13.824304557157522"><ele>253.0</ele><time>2026-04-19T14:40:23Z</time></trkpt><trkpt lat="42.15704292551173" lon="13.824163724622064"><ele>253.8</ele><time>2026-04-19T14:40:24Z</time></trkpt><trkpt lat="42.15701353524316" lon="13.824033316090857"><ele>254.60000000000002</ele><time>2026-04-19T14:40:25Z</time></trkpt><trkpt lat="42.15696754216164" lon="13.823903058669762"><ele>255.39999999999998</ele><time>2026-04-19T14:40:26Z</time></trkpt><trkpt lat="42.1569265806846" lon="13.823757005506483"><ele>256.2</ele><time>2026-04-19T14:40:27Z</time></trkpt><trkpt lat="42.15686553071383" lon="13.823620557813065"><ele>257.0</ele><time>2026-04-19T14:40:28Z</time></trkpt><trkpt lat="42.15677583708466" lon="13.82350884664705"><ele>257.25</ele><time>2026-04-19T14:40:29Z</time></trkpt><trkpt lat="42.15669261329123" lon="13.82339811737992"><ele>257.5</ele><time>2026-04-19T14:40:30Z</time></trkpt><trkpt lat="42.15659573753397" lon="13.823301879109993"><ele>257.75</ele><time>2026-04-19T14:40:31Z</time></trkpt><trkpt lat="42.156480223602415" lon="13.82321928126275"><ele>258.0</ele><time>2026-04-19T14:40:32Z</time></trkpt><trkpt lat="42.15635963487271" lon="13.823150170655925"><ele>258.5</ele><time>2026-04-19T14:40:33Z</time></trkpt><trkpt lat="42.156232636312474" lon="13.823095808977687"><ele>259.0</ele><time>2026-04-19T14:40:34Z</time></trkpt><trkpt lat="42.15609103396452" lon="13.823072278879033"><ele>259.5</ele><time>2026-04-19T14:40:35Z</time></trkpt><trkpt lat="42.155940332901416" lon="13.823069187675445"><ele>260.0</ele><time>2026-04-19T14:40:36Z</time></trkpt><trkpt lat="42.1557843073267" lon="13.823077208504902"><ele>260.0</ele><time>2026-04-19T14:40:37Z</time></trkpt><trkpt lat="42.15562372541513" lon="13.823080663762667"><ele>260.0</ele><time>2026-04-19T14:40:38Z</time></trkpt><trkpt lat="42.15545459520107" lon="13.823075553746454"><ele>260.0</ele><time>2026-04-19T14:40:39Z</time></trkpt><trkpt lat="42.15528402419041" lon="13.823068093292648"><ele>260.0</ele><time>2026-04-19T14:40:40Z</time></trkpt><trkpt lat="42.15511051772081" lon="13.823062564963056"><ele>260.0</ele><time>2026-04-19T14:40:41Z</time></trkpt><trkpt lat="42.154931880080795" lon="13.823067965935678"><ele>260.0</ele><time>2026-04-19T14:40:42Z</time></trkpt><trkpt lat="42.15475227465331" lon="13.823070938374299"><ele>259.6666666666667</ele><time>2026-04-19T14:40:43Z</time></trkpt><trkpt lat="42.15457778728455" lon="13.823070395706319"><ele>259.3333333333333</ele><time>2026-04-19T14:40:44Z</time></trkpt><trkpt lat="42.15441895650864" lon="13.82307089164906"><ele>259.0</ele><time>2026-04-19T14:40:45Z</time></trkpt><trkpt lat="42.15426912028787" lon="13.823075097943414"><ele>259.0</ele><time>2026-04-19T14:40:46Z</time></trkpt><trkpt lat="42.15413113382634" lon="13.82307785520907"><ele>259.0</ele><time>2026-04-19T14:40:47Z</time></trkpt><trkpt lat="42.153994048484904" lon="13.823077273917235"><ele>259.0</ele><time>2026-04-19T14:40:48Z</time></trkpt><trkpt lat="42.15385378318402" lon="13.823064306872716"><ele>259.0</ele><time>2026-04-19T14:40:49Z</time></trkpt><trkpt lat="42.153713863375124" lon="13.823037985300319"><ele>257.66666666666663</ele><time>2026-04-19T14:40:50Z</time></trkpt><trkpt lat="42.15357384602847" lon="13.822981614542046"><ele>256.3333333333333</ele><time>2026-04-19T14:40:51Z</time></trkpt><trkpt lat="42.15343289810336" lon="13.822904135485802"><ele>255.0</ele><time>2026-04-19T14:40:52Z</time></trkpt><trkpt lat="42.15329118672124" lon="13.822808070555487"><ele>255.0</ele><time>2026-04-19T14:40:53Z</time></trkpt><trkpt lat="42.153155370255455" lon="13.822684694605591"><ele>255.0</ele><time>2026-04-19T14:40:54Z</time></trkpt><trkpt lat="42.153027481815194" lon="13.822546778480865"><ele>255.0</ele><time>2026-04-19T14:40:55Z</time></trkpt><trkpt lat="42.152910188527585" lon="13.822390986852527"><ele>255.0</ele><time>2026-04-19T14:40:56Z</time></trkpt><trkpt lat="42.152796466965476" lon="13.82223257356332"><ele>255.0</ele><time>2026-04-19T14:40:57Z</time></trkpt><trkpt lat="42.1526913758886" lon="13.822067323256862"><ele>255.0</ele><time>2026-04-19T14:40:58Z</time></trkpt><trkpt lat="42.15259142081697" lon="13.821889387304095"><ele>256.0</ele><time>2026-04-19T14:40:59Z</time></trkpt><trkpt lat="42.152496923748586" lon="13.821710391327846"><ele>257.0</ele><time>2026-04-19T14:41:00Z</time></trkpt><trkpt lat="42.15241000122848" lon="13.821543376836871"><ele>258.0</ele><time>2026-04-19T14:41:01Z</time></trkpt><trkpt lat="42.15231473114094" lon="13.821398712186006"><ele>258.0</ele><time>2026-04-19T14:41:02Z</time></trkpt><trkpt lat="42.15221386561811" lon="13.821272444315177"><ele>258.0</ele><time>2026-04-19T14:41:03Z</time></trkpt><trkpt lat="42.15210288319679" lon="13.821153765397323"><ele>258.0</ele><time>2026-04-19T14:41:04Z</time></trkpt><trkpt lat="42.15198621589847" lon="13.821051573636398"><ele>258.0</ele><time>2026-04-19T14:41:05Z</time></trkpt><trkpt lat="42.15186117932865" lon="13.820966441434027"><ele>258.0</ele><time>2026-04-19T14:41:06Z</time></trkpt><trkpt lat="42.151734806049134" lon="13.820878715070494"><ele>258.0</ele><time>2026-04-19T14:41:07Z</time></trkpt><trkpt lat="42.15161016856245" lon="13.82078675049307"><ele>258.0</ele><time>2026-04-19T14:41:08Z</time></trkpt><trkpt lat="42.15148501286869" lon="13.820687014496734"><ele>258.0</ele><time>2026-04-19T14:41:09Z</time></trkpt><trkpt lat="42.15135888262437" lon="13.820589629097817"><ele>259.0</ele><time>2026-04-19T14:41:10Z</time></trkpt><trkpt lat="42.15122839887205" lon="13.820498506957383"><ele>260.0</ele><time>2026-04-19T14:41:11Z</time></trkpt><trkpt lat="42.151091624600596" lon="13.820421969085416"><ele>261.0</ele><time>2026-04-19T14:41:12Z</time></trkpt><trkpt lat="42.15094370902493" lon="13.820362388746661"><ele>262.0</ele><time>2026-04-19T14:41:13Z</time></trkpt><trkpt lat="42.150796197794556" lon="13.82030425614054"><ele>262.0</ele><time>2026-04-19T14:41:14Z</time></trkpt><trkpt lat="42.15064230933413" lon="13.820257306150125"><ele>262.0</ele><time>2026-04-19T14:41:15Z</time></trkpt><trkpt lat="42.150488287495456" lon="13.820212272135107"><ele>262.0</ele><time>2026-04-19T14:41:16Z</time></trkpt><trkpt lat="42.1503311073661" lon="13.820164355176418"><ele>262.25</ele><time>2026-04-19T14:41:17Z</time></trkpt><trkpt lat="42.15017724026717" lon="13.820118168625243"><ele>262.5</ele><time>2026-04-19T14:41:18Z</time></trkpt><trkpt lat="42.150031620366406" lon="13.820074640778666"><ele>262.75</ele><time>2026-04-19T14:41:19Z</time></trkpt><trkpt lat="42.14990271671347" lon="13.820025193173523"><ele>263.0</ele><time>2026-04-19T14:41:20Z</time></trkpt><trkpt lat="42.1497763899066" lon="13.81996053777172"><ele>263.0</ele><time>2026-04-19T14:41:21Z</time></trkpt><trkpt lat="42.149650669651315" lon="13.819876411439061"><ele>263.0</ele><time>2026-04-19T14:41:22Z</time></trkpt><trkpt lat="42.14953946663609" lon="13.819759014042551"><ele>263.0</ele><time>2026-04-19T14:41:23Z</time></trkpt><trkpt lat="42.14943562758166" lon="13.81963437504085"><ele>263.0</ele><time>2026-04-19T14:41:24Z</time></trkpt><trkpt lat="42.149325032066585" lon="13.819518430812106"><ele>263.0</ele><time>2026-04-19T14:41:25Z</time></trkpt><trkpt lat="42.14920844913798" lon="13.819422291273996"><ele>263.0</ele><time>2026-04-19T14:41:26Z</time></trkpt><trkpt lat="42.14908430292473" lon="13.819351940850076"><ele>263.0</ele><time>2026-04-19T14:41:27Z</time></trkpt><trkpt lat="42.148945994470466" lon="13.819319420350636"><ele>263.0</ele><time>2026-04-19T14:41:28Z</time></trkpt><trkpt lat="42.14880301129849" lon="13.819315430897138"><ele>263.6666666666667</ele><time>2026-04-19T14:41:29Z</time></trkpt><trkpt lat="42.14865420142966" lon="13.819342690534146"><ele>264.3333333333333</ele><time>2026-04-19T14:41:30Z</time></trkpt><trkpt lat="42.1485054523848" lon="13.819375432197562"><ele>265.0</ele><time>2026-04-19T14:41:31Z</time></trkpt><trkpt lat="42.148354549342315" lon="13.819418025568051"><ele>266.3333333333333</ele><time>2026-04-19T14:41:32Z</time></trkpt><trkpt lat="42.148199851019434" lon="13.819430080468294"><ele>267.6666666666667</ele><time>2026-04-19T14:41:33Z</time></trkpt><trkpt lat="42.1480405367799" lon="13.819433213047436"><ele>269.0</ele><time>2026-04-19T14:41:34Z</time></trkpt><trkpt lat="42.14788009819891" lon="13.819417382622904"><ele>269.0</ele><time>2026-04-19T14:41:35Z</time></trkpt><trkpt lat="42.14771692383229" lon="13.819398045016115"><ele>269.0</ele><time>2026-04-19T14:41:36Z</time></trkpt><trkpt lat="42.14755712511702" lon="13.819379299592327"><ele>269.0</ele><time>2026-04-19T14:41:37Z</time></trkpt><trkpt lat="42.14740223705839" lon="13.819376519577963"><ele>270.6666666666667</ele><time>2026-04-19T14:41:38Z</time></trkpt><trkpt lat="42.147248372985935" lon="13.81938775284725"><ele>272.3333333333333</ele><time>2026-04-19T14:41:39Z</time></trkpt><trkpt lat="42.14709619435917" lon="13.81940465539747"><ele>274.0</ele><time>2026-04-19T14:41:40Z</time></trkpt><trkpt lat="42.14694384242731" lon="13.819418754540116"><ele>274.0</ele><time>2026-04-19T14:41:41Z</time></trkpt><trkpt lat="42.14679551771134" lon="13.819453066252562"><ele>274.0</ele><time>2026-04-19T14:41:42Z</time></trkpt><trkpt lat="42.14664404914959" lon="13.819471400255093"><ele>274.0</ele><time>2026-04-19T14:41:43Z</time></trkpt><trkpt lat="42.146490827903264" lon="13.81949289124044"><ele>276.3333333333333</ele><time>2026-04-19T14:41:44Z</time></trkpt><trkpt lat="42.14633853614124" lon="13.819511508702238"><ele>278.6666666666667</ele><time>2026-04-19T14:41:45Z</time></trkpt><trkpt lat="42.146186175485184" lon="13.819535093299374"><ele>281.0</ele><time>2026-04-19T14:41:46Z</time></trkpt><trkpt lat="42.14602907863156" lon="13.819557739077247"><ele>281.0</ele><time>2026-04-19T14:41:47Z</time></trkpt><trkpt lat="42.14587426013362" lon="13.819573675731988"><ele>281.0</ele><time>2026-04-19T14:41:48Z</time></trkpt><trkpt lat="42.145716717213325" lon="13.81958862572709"><ele>281.0</ele><time>2026-04-19T14:41:49Z</time></trkpt><trkpt lat="42.145559224665256" lon="13.81960336463266"><ele>284.6666666666667</ele><time>2026-04-19T14:41:50Z</time></trkpt><trkpt lat="42.145403332677326" lon="13.819618425316555"><ele>288.3333333333333</ele><time>2026-04-19T14:41:51Z</time></trkpt><trkpt lat="42.14524852484019" lon="13.819635461461186"><ele>292.0</ele><time>2026-04-19T14:41:52Z</time></trkpt><trkpt lat="42.145094717717214" lon="13.819650937724331"><ele>292.0</ele><time>2026-04-19T14:41:53Z</time></trkpt><trkpt lat="42.1449393060759" lon="13.819656814060064"><ele>292.0</ele><time>2026-04-19T14:41:54Z</time></trkpt><trkpt lat="42.14478356825005" lon="13.819660628839037"><ele>292.0</ele><time>2026-04-19T14:41:55Z</time></trkpt><trkpt lat="42.14462987534364" lon="13.819666483730174"><ele>292.25</ele><time>2026-04-19T14:41:56Z</time></trkpt><trkpt lat="42.14447922136995" lon="13.819675374202799"><ele>292.5</ele><time>2026-04-19T14:41:57Z</time></trkpt><trkpt lat="42.14433094833567" lon="13.819683152912463"><ele>292.75</ele><time>2026-04-19T14:41:58Z</time></trkpt><trkpt lat="42.14418573986144" lon="13.819694215989008"><ele>293.0</ele><time>2026-04-19T14:41:59Z</time></trkpt><trkpt lat="42.14404240044653" lon="13.819710296137607"><ele>294.75</ele><time>2026-04-19T14:42:00Z</time></trkpt><trkpt lat="42.143900064102596" lon="13.81972387532397"><ele>296.5</ele><time>2026-04-19T14:42:01Z</time></trkpt><trkpt lat="42.143758441308954" lon="13.819735854387794"><ele>298.25</ele><time>2026-04-19T14:42:02Z</time></trkpt><trkpt lat="42.14362399437127" lon="13.819743873841857"><ele>300.0</ele><time>2026-04-19T14:42:03Z</time></trkpt><trkpt lat="42.1434928400898" lon="13.819744507535228"><ele>300.0</ele><time>2026-04-19T14:42:04Z</time></trkpt><trkpt lat="42.143364325493685" lon="13.819723071120727"><ele>300.0</ele><time>2026-04-19T14:42:05Z</time></trkpt><trkpt lat="42.14323550848353" lon="13.819682144622261"><ele>300.0</ele><time>2026-04-19T14:42:06Z</time></trkpt><trkpt lat="42.14310914537057" lon="13.819637237619846"><ele>300.0</ele><time>2026-04-19T14:42:07Z</time></trkpt><trkpt lat="42.14298116789664" lon="13.819593510189954"><ele>301.75</ele><time>2026-04-19T14:42:08Z</time></trkpt><trkpt lat="42.14285167753614" lon="13.81956456589515"><ele>303.5</ele><time>2026-04-19T14:42:09Z</time></trkpt><trkpt lat="42.14271767271353" lon="13.81954920034656"><ele>305.25</ele><time>2026-04-19T14:42:10Z</time></trkpt><trkpt lat="42.142582394045434" lon="13.81954558333358"><ele>307.0</ele><time>2026-04-19T14:42:11Z</time></trkpt><trkpt lat="42.142445554369274" lon="13.819552490203776"><ele>308.0</ele><time>2026-04-19T14:42:12Z</time></trkpt><trkpt lat="42.142306886051664" lon="13.819566046869067"><ele>309.0</ele><time>2026-04-19T14:42:13Z</time></trkpt><trkpt lat="42.142165266217454" lon="13.819586225979146"><ele>310.0</ele><time>2026-04-19T14:42:14Z</time></trkpt><trkpt lat="42.142023171862334" lon="13.81960929322086"><ele>311.0</ele><time>2026-04-19T14:42:15Z</time></trkpt><trkpt lat="42.14188136279951" lon="13.819631427787582"><ele>311.0</ele><time>2026-04-19T14:42:16Z</time></trkpt><trkpt lat="42.141739073532094" lon="13.819651890534516"><ele>311.0</ele><time>2026-04-19T14:42:17Z</time></trkpt><trkpt lat="42.141599242448756" lon="13.819675157208064"><ele>311.0</ele><time>2026-04-19T14:42:18Z</time></trkpt><trkpt lat="42.14146230840776" lon="13.819699849765522"><ele>311.0</ele><time>2026-04-19T14:42:19Z</time></trkpt><trkpt lat="42.14132769261686" lon="13.819723081996603"><ele>311.5</ele><time>2026-04-19T14:42:20Z</time></trkpt><trkpt lat="42.14119446474972" lon="13.819739674026364"><ele>312.0</ele><time>2026-04-19T14:42:21Z</time></trkpt><trkpt lat="42.1410617268511" lon="13.819754414957501"><ele>312.5</ele><time>2026-04-19T14:42:22Z</time></trkpt><trkpt lat="42.14093154786037" lon="13.819769566878303"><ele>313.0</ele><time>2026-04-19T14:42:23Z</time></trkpt><trkpt lat="42.14080112295206" lon="13.819791026502234"><ele>313.5</ele><time>2026-04-19T14:42:24Z</time></trkpt><trkpt lat="42.14066984606519" lon="13.819817150717896"><ele>314.0</ele><time>2026-04-19T14:42:25Z</time></trkpt><trkpt lat="42.140537713009074" lon="13.819847036228088"><ele>314.5</ele><time>2026-04-19T14:42:26Z</time></trkpt><trkpt lat="42.140408211947836" lon="13.819883431687579"><ele>315.0</ele><time>2026-04-19T14:42:27Z</time></trkpt><trkpt lat="42.140280599526584" lon="13.819930201507985"><ele>315.0</ele><time>2026-04-19T14:42:28Z</time></trkpt><trkpt lat="42.14015519029491" lon="13.819980299630014"><ele>315.0</ele><time>2026-04-19T14:42:29Z</time></trkpt><trkpt lat="42.14002841875262" lon="13.820033079059165"><ele>315.0</ele><time>2026-04-19T14:42:30Z</time></trkpt><trkpt lat="42.13990067935369" lon="13.820081790425817"><ele>315.0</ele><time>2026-04-19T14:42:31Z</time></trkpt><trkpt lat="42.13977262057523" lon="13.820137642787252"><ele>316.4</ele><time>2026-04-19T14:42:32Z</time></trkpt><trkpt lat="42.13965229133294" lon="13.820187589531635"><ele>317.8</ele><time>2026-04-19T14:42:33Z</time></trkpt><trkpt lat="42.1395463918734" lon="13.820218866542806"><ele>319.20000000000005</ele><time>2026-04-19T14:42:34Z</time></trkpt><trkpt lat="42.139446960400974" lon="13.820221156018476"><ele>320.6</ele><time>2026-04-19T14:42:35Z</time></trkpt><trkpt lat="42.139346347067374" lon="13.82019242492741"><ele>322.0</ele><time>2026-04-19T14:42:36Z</time></trkpt><trkpt lat="42.13926191315729" lon="13.820121738734665"><ele>322.0</ele><time>2026-04-19T14:42:37Z</time></trkpt><trkpt lat="42.139192376244225" lon="13.820027327909127"><ele>322.0</ele><time>2026-04-19T14:42:38Z</time></trkpt><trkpt lat="42.13914860771276" lon="13.819897931654232"><ele>322.0</ele><time>2026-04-19T14:42:39Z</time></trkpt><trkpt lat="42.13911047367167" lon="13.819755076582469"><ele>322.0</ele><time>2026-04-19T14:42:40Z</time></trkpt><trkpt lat="42.139068876094925" lon="13.819604029302912"><ele>322.0</ele><time>2026-04-19T14:42:41Z</time></trkpt><trkpt lat="42.13901952126922" lon="13.81944466224755"><ele>323.0</ele><time>2026-04-19T14:42:42Z</time></trkpt><trkpt lat="42.1389784753158" lon="13.819279502511845"><ele>324.0</ele><time>2026-04-19T14:42:43Z</time></trkpt><trkpt lat="42.1389053617532" lon="13.81913180394083"><ele>325.0</ele><time>2026-04-19T14:42:44Z</time></trkpt><trkpt lat="42.13885207192902" lon="13.818985152954278"><ele>326.0</ele><time>2026-04-19T14:42:45Z</time></trkpt><trkpt lat="42.138779542840894" lon="13.81887128258463"><ele>326.0</ele><time>2026-04-19T14:42:46Z</time></trkpt><trkpt lat="42.1386750812991" lon="13.818777759928537"><ele>326.0</ele><time>2026-04-19T14:42:47Z</time></trkpt><trkpt lat="42.13853973323276" lon="13.818706693591459"><ele>326.0</ele><time>2026-04-19T14:42:48Z</time></trkpt><trkpt lat="42.138389657649036" lon="13.818645580813397"><ele>326.0</ele><time>2026-04-19T14:42:49Z</time></trkpt><trkpt lat="42.138232075060785" lon="13.818593100563422"><ele>327.33333333333337</ele><time>2026-04-19T14:42:50Z</time></trkpt><trkpt lat="42.13806475358478" lon="13.818554858492337"><ele>328.6666666666667</ele><time>2026-04-19T14:42:51Z</time></trkpt><trkpt lat="42.13788932856792" lon="13.818528008338832"><ele>330.0</ele><time>2026-04-19T14:42:52Z</time></trkpt><trkpt lat="42.13773740090086" lon="13.818502534052453"><ele>330.75</ele><time>2026-04-19T14:42:53Z</time></trkpt><trkpt lat="42.13760304881653" lon="13.818479990276371"><ele>331.5</ele><time>2026-04-19T14:42:54Z</time></trkpt><trkpt lat="42.13748058278626" lon="13.818478194497986"><ele>332.25</ele><time>2026-04-19T14:42:55Z</time></trkpt><trkpt lat="42.137359031902434" lon="13.818514817122145"><ele>333.0</ele><time>2026-04-19T14:42:56Z</time></trkpt><trkpt lat="42.137208274722674" lon="13.818566461328553"><ele>334.3333333333333</ele><time>2026-04-19T14:42:57Z</time></trkpt><trkpt lat="42.13705725829856" lon="13.818631651652794"><ele>335.66666666666663</ele><time>2026-04-19T14:42:58Z</time></trkpt><trkpt lat="42.136902869530665" lon="13.81868948985386"><ele>337.0</ele><time>2026-04-19T14:42:59Z</time></trkpt><trkpt lat="42.13674548410707" lon="13.818725172390202"><ele>337.0</ele><time>2026-04-19T14:43:00Z</time></trkpt><trkpt lat="42.13659703980885" lon="13.818739504891528"><ele>337.0</ele><time>2026-04-19T14:43:01Z</time></trkpt><trkpt lat="42.136454845037726" lon="13.818716851604604"><ele>337.0</ele><time>2026-04-19T14:43:02Z</time></trkpt><trkpt lat="42.13630818405666" lon="13.818701263086506"><ele>337.0</ele><time>2026-04-19T14:43:03Z</time></trkpt><trkpt lat="42.136160822788625" lon="13.818670308914697"><ele>338.3333333333333</ele><time>2026-04-19T14:43:04Z</time></trkpt><trkpt lat="42.13600664370661" lon="13.818633909444939"><ele>339.6666666666667</ele><time>2026-04-19T14:43:05Z</time></trkpt><trkpt lat="42.13584469888914" lon="13.818607740824167"><ele>341.0</ele><time>2026-04-19T14:43:06Z</time></trkpt><trkpt lat="42.13569117306369" lon="13.81855987276326"><ele>342.0</ele><time>2026-04-19T14:43:07Z</time></trkpt><trkpt lat="42.13554197566173" lon="13.818505619882343"><ele>343.0</ele><time>2026-04-19T14:43:08Z</time></trkpt><trkpt lat="42.13539829473175" lon="13.818447905817687"><ele>344.0</ele><time>2026-04-19T14:43:09Z</time></trkpt><trkpt lat="42.13525465852241" lon="13.8183728365375"><ele>345.25</ele><time>2026-04-19T14:43:10Z</time></trkpt><trkpt lat="42.13511465860679" lon="13.818293958967262"><ele>346.5</ele><time>2026-04-19T14:43:11Z</time></trkpt><trkpt lat="42.134982941187445" lon="13.818206856180812"><ele>347.75</ele><time>2026-04-19T14:43:12Z</time></trkpt><trkpt lat="42.1348546295524" lon="13.818109516070372"><ele>349.0</ele><time>2026-04-19T14:43:13Z</time></trkpt><trkpt lat="42.13473266878528" lon="13.81800193383802"><ele>349.0</ele><time>2026-04-19T14:43:14Z</time></trkpt><trkpt lat="42.134609690918886" lon="13.817883788620398"><ele>349.0</ele><time>2026-04-19T14:43:15Z</time></trkpt><trkpt lat="42.13448887650303" lon="13.817765968005386"><ele>349.0</ele><time>2026-04-19T14:43:16Z</time></trkpt><trkpt lat="42.13436503963263" lon="13.817649836856832"><ele>350.0</ele><time>2026-04-19T14:43:17Z</time></trkpt><trkpt lat="42.13423994627013" lon="13.817536644506484"><ele>351.0</ele><time>2026-04-19T14:43:18Z</time></trkpt><trkpt lat="42.1341083600773" lon="13.8174316535682"><ele>352.0</ele><time>2026-04-19T14:43:19Z</time></trkpt><trkpt lat="42.13397459155106" lon="13.817334900730746"><ele>353.66666666666663</ele><time>2026-04-19T14:43:20Z</time></trkpt><trkpt lat="42.13383581930794" lon="13.817249899958735"><ele>355.3333333333333</ele><time>2026-04-19T14:43:21Z</time></trkpt><trkpt lat="42.133690889120665" lon="13.81717353563371"><ele>357.0</ele><time>2026-04-19T14:43:22Z</time></trkpt><trkpt lat="42.133543045350315" lon="13.817100304440126"><ele>357.0</ele><time>2026-04-19T14:43:23Z</time></trkpt><trkpt lat="42.13339517036841" lon="13.817023590123005"><ele>357.0</ele><time>2026-04-19T14:43:24Z</time></trkpt><trkpt lat="42.13325740505365" lon="13.816944178697485"><ele>357.0</ele><time>2026-04-19T14:43:25Z</time></trkpt><trkpt lat="42.13313429567866" lon="13.816879705558135"><ele>357.0</ele><time>2026-04-19T14:43:26Z</time></trkpt><trkpt lat="42.13301361369843" lon="13.816809101655709"><ele>358.0</ele><time>2026-04-19T14:43:27Z</time></trkpt><trkpt lat="42.1328918036571" lon="13.81675321270596"><ele>359.0</ele><time>2026-04-19T14:43:28Z</time></trkpt><trkpt lat="42.13275803845276" lon="13.816681490583989"><ele>360.0</ele><time>2026-04-19T14:43:29Z</time></trkpt><trkpt lat="42.13261765722764" lon="13.816615952066167"><ele>361.0</ele><time>2026-04-19T14:43:30Z</time></trkpt><trkpt lat="42.13248101602232" lon="13.816550432863407"><ele>361.5</ele><time>2026-04-19T14:43:31Z</time></trkpt><trkpt lat="42.13234313377544" lon="13.816496235458208"><ele>362.0</ele><time>2026-04-19T14:43:32Z</time></trkpt><trkpt lat="42.13220664223829" lon="13.816441825461682"><ele>362.5</ele><time>2026-04-19T14:43:33Z</time></trkpt><trkpt lat="42.13206704862214" lon="13.816393225651897"><ele>363.0</ele><time>2026-04-19T14:43:34Z</time></trkpt><trkpt lat="42.13192676946391" lon="13.816355769352013"><ele>363.0</ele><time>2026-04-19T14:43:35Z</time></trkpt><trkpt lat="42.131785345066895" lon="13.81631864256295"><ele>363.0</ele><time>2026-04-19T14:43:36Z</time></trkpt><trkpt lat="42.13164569275017" lon="13.816290602736807"><ele>363.0</ele><time>2026-04-19T14:43:37Z</time></trkpt><trkpt lat="42.13150402666327" lon="13.816271598538124"><ele>363.0</ele><time>2026-04-19T14:43:38Z</time></trkpt><trkpt lat="42.131366694636064" lon="13.816258861764707"><ele>363.5</ele><time>2026-04-19T14:43:39Z</time></trkpt><trkpt lat="42.13124364171332" lon="13.816260125720353"><ele>364.0</ele><time>2026-04-19T14:43:40Z</time></trkpt><trkpt lat="42.131119140263536" lon="13.81628295417603"><ele>364.5</ele><time>2026-04-19T14:43:41Z</time></trkpt><trkpt lat="42.13098813826801" lon="13.81632897801544"><ele>365.0</ele><time>2026-04-19T14:43:42Z</time></trkpt><trkpt lat="42.130855824892926" lon="13.81639848297642"><ele>365.0</ele><time>2026-04-19T14:43:43Z</time></trkpt><trkpt lat="42.13072635461667" lon="13.81647301373274"><ele>365.0</ele><time>2026-04-19T14:43:44Z</time></trkpt><trkpt lat="42.1305958565642" lon="13.816555291182546"><ele>365.0</ele><time>2026-04-19T14:43:45Z</time></trkpt><trkpt lat="42.13046486130626" lon="13.816630792563702"><ele>365.0</ele><time>2026-04-19T14:43:46Z</time></trkpt><trkpt lat="42.13033454027535" lon="13.816708031977832"><ele>365.25</ele><time>2026-04-19T14:43:47Z</time></trkpt><trkpt lat="42.130198687061316" lon="13.816754523827559"><ele>365.5</ele><time>2026-04-19T14:43:48Z</time></trkpt><trkpt lat="42.130075897603554" lon="13.816830034099704"><ele>365.75</ele><time>2026-04-19T14:43:49Z</time></trkpt><trkpt lat="42.129942451488645" lon="13.816869705110658"><ele>366.0</ele><time>2026-04-19T14:43:50Z</time></trkpt><trkpt lat="42.12980757977281" lon="13.816899140305622"><ele>366.0</ele><time>2026-04-19T14:43:51Z</time></trkpt><trkpt lat="42.129666097627776" lon="13.816926767955959"><ele>366.0</ele><time>2026-04-19T14:43:52Z</time></trkpt><trkpt lat="42.12953090456995" lon="13.816954974200174"><ele>366.0</ele><time>2026-04-19T14:43:53Z</time></trkpt><trkpt lat="42.129405466836104" lon="13.816989280759271"><ele>366.0</ele><time>2026-04-19T14:43:54Z</time></trkpt><trkpt lat="42.12929141239969" lon="13.817032433324435"><ele>366.0</ele><time>2026-04-19T14:43:55Z</time></trkpt><trkpt lat="42.12918131272525" lon="13.817083048345804"><ele>366.0</ele><time>2026-04-19T14:43:56Z</time></trkpt><trkpt lat="42.129067170803914" lon="13.817131575847624"><ele>366.0</ele><time>2026-04-19T14:43:57Z</time></trkpt><trkpt lat="42.12895742316149" lon="13.817197373923165"><ele>366.0</ele><time>2026-04-19T14:43:58Z</time></trkpt><trkpt lat="42.12884656894534" lon="13.817260249697616"><ele>366.75</ele><time>2026-04-19T14:43:59Z</time></trkpt><trkpt lat="42.128736944784535" lon="13.817320353568531"><ele>367.5</ele><time>2026-04-19T14:44:00Z</time></trkpt><trkpt lat="42.12862069039107" lon="13.817352655002852"><ele>368.25</ele><time>2026-04-19T14:44:01Z</time></trkpt><trkpt lat="42.128511914867424" lon="13.817421750316898"><ele>369.0</ele><time>2026-04-19T14:44:02Z</time></trkpt><trkpt lat="42.128405251480885" lon="13.817465588347531"><ele>369.0</ele><time>2026-04-19T14:44:03Z</time></trkpt><trkpt lat="42.12830575616465" lon="13.817510394138129"><ele>369.0</ele><time>2026-04-19T14:44:04Z</time></trkpt><trkpt lat="42.12820537885432" lon="13.817558176659174"><ele>369.0</ele><time>2026-04-19T14:44:05Z</time></trkpt><trkpt lat="42.128105127631265" lon="13.817609337659839"><ele>369.0</ele><time>2026-04-19T14:44:06Z</time></trkpt><trkpt lat="42.128006451572" lon="13.817665425814644"><ele>369.0</ele><time>2026-04-19T14:44:07Z</time></trkpt><trkpt lat="42.127905845022156" lon="13.817724935294967"><ele>369.1666666666667</ele><time>2026-04-19T14:44:08Z</time></trkpt><trkpt lat="42.12781891776068" lon="13.817792100019695"><ele>369.3333333333333</ele><time>2026-04-19T14:44:09Z</time></trkpt><trkpt lat="42.127739567924934" lon="13.817859126328381"><ele>369.5</ele><time>2026-04-19T14:44:10Z</time></trkpt><trkpt lat="42.12766577393694" lon="13.817912492327526"><ele>369.66666666666663</ele><time>2026-04-19T14:44:11Z</time></trkpt><trkpt lat="42.12759451126282" lon="13.817965970103902"><ele>369.8333333333333</ele><time>2026-04-19T14:44:12Z</time></trkpt><trkpt lat="42.127524586158394" lon="13.818014004617718"><ele>370.0</ele><time>2026-04-19T14:44:13Z</time></trkpt><trkpt lat="42.127457745792036" lon="13.818057791793759"><ele>369.99999999999994</ele><time>2026-04-19T14:44:14Z</time></trkpt><trkpt lat="42.127394545601966" lon="13.81809699420171"><ele>370.0</ele><time>2026-04-19T14:44:15Z</time></trkpt><trkpt lat="42.127335261635835" lon="13.818125939487764"><ele>370.0</ele><time>2026-04-19T14:44:16Z</time></trkpt><trkpt lat="42.1272712204574" lon="13.818145143902683"><ele>370.0</ele><time>2026-04-19T14:44:17Z</time></trkpt><trkpt lat="42.127201125676315" lon="13.818152150545117"><ele>370.0</ele><time>2026-04-19T14:44:18Z</time></trkpt><trkpt lat="42.12712686468218" lon="13.818123054663594"><ele>369.99999999999994</ele><time>2026-04-19T14:44:19Z</time></trkpt><trkpt lat="42.12704750442191" lon="13.818118652231423"><ele>370.0</ele><time>2026-04-19T14:44:20Z</time></trkpt><trkpt lat="42.12696872197519" lon="13.818095883455154"><ele>370.3333333333333</ele><time>2026-04-19T14:44:21Z</time></trkpt><trkpt lat="42.126892746528576" lon="13.8180898238963"><ele>370.66666666666663</ele><time>2026-04-19T14:44:22Z</time></trkpt><trkpt lat="42.12681652855008" lon="13.818056666556888"><ele>371.0</ele><time>2026-04-19T14:44:23Z</time></trkpt><trkpt lat="42.126740324852676" lon="13.818035191589741"><ele>371.3333333333333</ele><time>2026-04-19T14:44:24Z</time></trkpt><trkpt lat="42.126662960041536" lon="13.817973167634392"><ele>371.6666666666667</ele><time>2026-04-19T14:44:25Z</time></trkpt><trkpt lat="42.12658712506684" lon="13.817923908687874"><ele>372.0</ele><time>2026-04-19T14:44:26Z</time></trkpt><trkpt lat="42.12652095149344" lon="13.817849358881668"><ele>372.40000000000003</ele><time>2026-04-19T14:44:27Z</time></trkpt><trkpt lat="42.12644758884979" lon="13.817793810138959"><ele>372.8</ele><time>2026-04-19T14:44:28Z</time></trkpt><trkpt lat="42.12637146417943" lon="13.817736170050544"><ele>373.2</ele><time>2026-04-19T14:44:29Z</time></trkpt><trkpt lat="42.126287856049544" lon="13.817692573051376"><ele>373.6</ele><time>2026-04-19T14:44:30Z</time></trkpt><trkpt lat="42.12620738925237" lon="13.817632850824666"><ele>374.0</ele><time>2026-04-19T14:44:31Z</time></trkpt><trkpt lat="42.12613077012447" lon="13.81755236444265"><ele>374.2</ele><time>2026-04-19T14:44:32Z</time></trkpt><trkpt lat="42.126046957086714" lon="13.817488880530734"><ele>374.4</ele><time>2026-04-19T14:44:33Z</time></trkpt><trkpt lat="42.1259583903857" lon="13.817422476828053"><ele>374.6</ele><time>2026-04-19T14:44:34Z</time></trkpt><trkpt lat="42.12587392265615" lon="13.817359146379324"><ele>374.8</ele><time>2026-04-19T14:44:35Z</time></trkpt><trkpt lat="42.125786850618525" lon="13.81729382652783"><ele>375.0</ele><time>2026-04-19T14:44:36Z</time></trkpt><trkpt lat="42.12571306035958" lon="13.817239996926467"><ele>375.3333333333333</ele><time>2026-04-19T14:44:37Z</time></trkpt><trkpt lat="42.125638597595845" lon="13.817185678194603"><ele>375.6666666666667</ele><time>2026-04-19T14:44:38Z</time></trkpt><trkpt lat="42.12556835297641" lon="13.817134435236724"><ele>376.0</ele><time>2026-04-19T14:44:39Z</time></trkpt><trkpt lat="42.125502024823646" lon="13.817086049218696"><ele>376.33333333333337</ele><time>2026-04-19T14:44:40Z</time></trkpt><trkpt lat="42.125437556828025" lon="13.817039020182403"><ele>376.6666666666667</ele><time>2026-04-19T14:44:41Z</time></trkpt><trkpt lat="42.1253252983869" lon="13.816957128299915"><ele>377.0</ele><time>2026-04-19T14:44:43Z</time></trkpt><trkpt lat="42.12521215349726" lon="13.81687848212958"><ele>377.0</ele><time>2026-04-19T14:44:45Z</time></trkpt><trkpt lat="42.12511971161444" lon="13.81682782055627"><ele>377.0</ele><time>2026-04-19T14:44:47Z</time></trkpt><trkpt lat="42.12500978956529" lon="13.816886585536157"><ele>377.0</ele><time>2026-04-19T14:44:49Z</time></trkpt><trkpt lat="42.1249124633404" lon="13.816987442031515"><ele>377.0</ele><time>2026-04-19T14:44:51Z</time></trkpt><trkpt lat="42.1248559522501" lon="13.817048681456269"><ele>377.0</ele><time>2026-04-19T14:44:52Z</time></trkpt><trkpt lat="42.12479105384609" lon="13.8171190101403"><ele>377.5</ele><time>2026-04-19T14:44:53Z</time></trkpt><trkpt lat="42.12472651950271" lon="13.817197992030438"><ele>378.0</ele><time>2026-04-19T14:44:54Z</time></trkpt><trkpt lat="42.12467064298687" lon="13.817289860467792"><ele>378.5</ele><time>2026-04-19T14:44:55Z</time></trkpt><trkpt lat="42.12461851557824" lon="13.817375813170987"><ele>379.0</ele><time>2026-04-19T14:44:56Z</time></trkpt><trkpt lat="42.12457382906303" lon="13.817466327005286"><ele>379.5</ele><time>2026-04-19T14:44:57Z</time></trkpt><trkpt lat="42.12449926735906" lon="13.817516994612639"><ele>380.0</ele><time>2026-04-19T14:44:58Z</time></trkpt><trkpt lat="42.124422127712975" lon="13.817547458714456"><ele>380.0</ele><time>2026-04-19T14:44:59Z</time></trkpt><trkpt lat="42.124334836144186" lon="13.81759376761485"><ele>380.0</ele><time>2026-04-19T14:45:00Z</time></trkpt><trkpt lat="42.12424371340279" lon="13.817642109534885"><ele>380.0</ele><time>2026-04-19T14:45:01Z</time></trkpt><trkpt lat="42.124158567471746" lon="13.817710332559514"><ele>380.0</ele><time>2026-04-19T14:45:02Z</time></trkpt><trkpt lat="42.1240638945772" lon="13.817757685619632"><ele>380.0</ele><time>2026-04-19T14:45:03Z</time></trkpt><trkpt lat="42.123981683643876" lon="13.817816399687853"><ele>380.1666666666667</ele><time>2026-04-19T14:45:04Z</time></trkpt><trkpt lat="42.12390149505246" lon="13.817847578805877"><ele>380.33333333333337</ele><time>2026-04-19T14:45:05Z</time></trkpt><trkpt lat="42.12383676423995" lon="13.817889247956998"><ele>380.5</ele><time>2026-04-19T14:45:06Z</time></trkpt><trkpt lat="42.12374487282394" lon="13.817966057772974"><ele>380.6666666666667</ele><time>2026-04-19T14:45:08Z</time></trkpt><trkpt lat="42.12368526225605" lon="13.817996994471892"><ele>380.8333333333333</ele><time>2026-04-19T14:45:15Z</time></trkpt><trkpt lat="42.123603573765934" lon="13.81810021057718"><ele>381.0</ele><time>2026-04-19T14:45:17Z</time></trkpt><trkpt lat="42.123564947449175" lon="13.818210999178806"><ele>381.0</ele><time>2026-04-19T14:45:18Z</time></trkpt><trkpt lat="42.12352446739396" lon="13.81833054004331"><ele>381.0</ele><time>2026-04-19T14:45:19Z</time></trkpt><trkpt lat="42.123472430417095" lon="13.818456077111602"><ele>381.0</ele><time>2026-04-19T14:45:20Z</time></trkpt><trkpt lat="42.12341879453009" lon="13.818574552164492"><ele>381.0</ele><time>2026-04-19T14:45:21Z</time></trkpt><trkpt lat="42.12336340171687" lon="13.818670318411662"><ele>381.0</ele><time>2026-04-19T14:45:22Z</time></trkpt><trkpt lat="42.123303744524065" lon="13.818746189511014"><ele>379.4</ele><time>2026-04-19T14:45:23Z</time></trkpt><trkpt lat="42.12322524375919" lon="13.818776730146473"><ele>377.8</ele><time>2026-04-19T14:45:24Z</time></trkpt><trkpt lat="42.123139475283494" lon="13.818812889641492"><ele>376.2</ele><time>2026-04-19T14:45:25Z</time></trkpt><trkpt lat="42.1230399164019" lon="13.818839946474606"><ele>374.59999999999997</ele><time>2026-04-19T14:45:26Z</time></trkpt><trkpt lat="42.12293497127905" lon="13.81887916070143"><ele>373.0</ele><time>2026-04-19T14:45:27Z</time></trkpt><trkpt lat="42.12281780763474" lon="13.818890108255777"><ele>373.0</ele><time>2026-04-19T14:45:28Z</time></trkpt><trkpt lat="42.122693076104824" lon="13.818875753304553"><ele>373.0</ele><time>2026-04-19T14:45:29Z</time></trkpt><trkpt lat="42.122579078623" lon="13.818882424784745"><ele>373.0</ele><time>2026-04-19T14:45:30Z</time></trkpt><trkpt lat="42.122472225251926" lon="13.81889221202624"><ele>373.0</ele><time>2026-04-19T14:45:31Z</time></trkpt><trkpt lat="42.12237056700044" lon="13.818930398188494"><ele>374.0</ele><time>2026-04-19T14:45:32Z</time></trkpt><trkpt lat="42.122260814949826" lon="13.818958632814622"><ele>375.0</ele><time>2026-04-19T14:45:33Z</time></trkpt><trkpt lat="42.122154769755085" lon="13.818996334879701"><ele>376.0</ele><time>2026-04-19T14:45:34Z</time></trkpt><trkpt lat="42.122044537618386" lon="13.819037132431854"><ele>377.0</ele><time>2026-04-19T14:45:35Z</time></trkpt><trkpt lat="42.1219323848976" lon="13.819083143021208"><ele>377.0</ele><time>2026-04-19T14:45:36Z</time></trkpt><trkpt lat="42.12181322467566" lon="13.819108330054533"><ele>377.0</ele><time>2026-04-19T14:45:37Z</time></trkpt><trkpt lat="42.121701710788784" lon="13.819176699445888"><ele>377.0</ele><time>2026-04-19T14:45:38Z</time></trkpt><trkpt lat="42.12158827266528" lon="13.81919950224012"><ele>377.0</ele><time>2026-04-19T14:45:39Z</time></trkpt><trkpt lat="42.12148023328092" lon="13.819250533045096"><ele>378.0</ele><time>2026-04-19T14:45:40Z</time></trkpt><trkpt lat="42.12137381496301" lon="13.819291051835735"><ele>379.0</ele><time>2026-04-19T14:45:41Z</time></trkpt><trkpt lat="42.121275550259845" lon="13.819327002515413"><ele>380.0</ele><time>2026-04-19T14:45:42Z</time></trkpt><trkpt lat="42.1211824482378" lon="13.819355886690465"><ele>381.0</ele><time>2026-04-19T14:45:43Z</time></trkpt><trkpt lat="42.12107553179383" lon="13.819350345461519"><ele>382.0</ele><time>2026-04-19T14:45:44Z</time></trkpt><trkpt lat="42.12095445851609" lon="13.819362810691672"><ele>380.5</ele><time>2026-04-19T14:45:45Z</time></trkpt><trkpt lat="42.12082535949162" lon="13.819364868868734"><ele>379.0</ele><time>2026-04-19T14:45:46Z</time></trkpt><trkpt lat="42.12069094041761" lon="13.819348156299734"><ele>377.5</ele><time>2026-04-19T14:45:47Z</time></trkpt><trkpt lat="42.12054247154991" lon="13.819332304435681"><ele>376.0</ele><time>2026-04-19T14:45:48Z</time></trkpt><trkpt lat="42.12041300952255" lon="13.81929514000939"><ele>376.0</ele><time>2026-04-19T14:45:49Z</time></trkpt><trkpt lat="42.12029187080036" lon="13.819265022852187"><ele>376.0</ele><time>2026-04-19T14:45:50Z</time></trkpt><trkpt lat="42.1201766202224" lon="13.819254378980743"><ele>376.0</ele><time>2026-04-19T14:45:51Z</time></trkpt><trkpt lat="42.12005880478327" lon="13.819257491174378"><ele>376.0</ele><time>2026-04-19T14:45:52Z</time></trkpt><trkpt lat="42.119932836457984" lon="13.819277604951173"><ele>378.5</ele><time>2026-04-19T14:45:53Z</time></trkpt><trkpt lat="42.11980661312636" lon="13.8193147622909"><ele>381.0</ele><time>2026-04-19T14:45:54Z</time></trkpt><trkpt lat="42.11967603980074" lon="13.819374509576356"><ele>383.5</ele><time>2026-04-19T14:45:55Z</time></trkpt><trkpt lat="42.119545189570154" lon="13.819445977329114"><ele>386.0</ele><time>2026-04-19T14:45:56Z</time></trkpt><trkpt lat="42.11941258015167" lon="13.819510818674988"><ele>378.5</ele><time>2026-04-19T14:45:57Z</time></trkpt><trkpt lat="42.119267964177546" lon="13.819528721681019"><ele>371.0</ele><time>2026-04-19T14:45:58Z</time></trkpt><trkpt lat="42.11912401293822" lon="13.819560610302132"><ele>363.5</ele><time>2026-04-19T14:45:59Z</time></trkpt><trkpt lat="42.118985583947804" lon="13.819586277336882"><ele>356.0</ele><time>2026-04-19T14:46:00Z</time></trkpt><trkpt lat="42.118849887503565" lon="13.81960112964815"><ele>356.0</ele><time>2026-04-19T14:46:01Z</time></trkpt><trkpt lat="42.11871353728023" lon="13.819619707562227"><ele>356.0</ele><time>2026-04-19T14:46:02Z</time></trkpt><trkpt lat="42.11858872312956" lon="13.819678874933116"><ele>356.0</ele><time>2026-04-19T14:46:03Z</time></trkpt><trkpt lat="42.118461205133706" lon="13.819725277043734"><ele>356.0</ele><time>2026-04-19T14:46:04Z</time></trkpt><trkpt lat="42.11833411680079" lon="13.819781339910403"><ele>357.0</ele><time>2026-04-19T14:46:05Z</time></trkpt><trkpt lat="42.118207600701865" lon="13.819847347252427"><ele>358.0</ele><time>2026-04-19T14:46:06Z</time></trkpt><trkpt lat="42.11807480611033" lon="13.819888200579173"><ele>359.0</ele><time>2026-04-19T14:46:07Z</time></trkpt><trkpt lat="42.117940623021575" lon="13.819946304344692"><ele>360.0</ele><time>2026-04-19T14:46:08Z</time></trkpt><trkpt lat="42.11780584563044" lon="13.819988442372383"><ele>360.0</ele><time>2026-04-19T14:46:09Z</time></trkpt><trkpt lat="42.117675253499094" lon="13.820017850241458"><ele>360.0</ele><time>2026-04-19T14:46:10Z</time></trkpt><trkpt lat="42.11754359752648" lon="13.820040160194841"><ele>360.0</ele><time>2026-04-19T14:46:11Z</time></trkpt><trkpt lat="42.117417679707955" lon="13.820054805224169"><ele>360.0</ele><time>2026-04-19T14:46:12Z</time></trkpt><trkpt lat="42.11729744321958" lon="13.820057236293142"><ele>359.8</ele><time>2026-04-19T14:46:13Z</time></trkpt><trkpt lat="42.1171868514975" lon="13.820037019685202"><ele>359.6</ele><time>2026-04-19T14:46:14Z</time></trkpt><trkpt lat="42.11708328372098" lon="13.819999005598023"><ele>359.4</ele><time>2026-04-19T14:46:15Z</time></trkpt><trkpt lat="42.11698193395808" lon="13.819983648333135"><ele>359.2</ele><time>2026-04-19T14:46:16Z</time></trkpt><trkpt lat="42.11689085299399" lon="13.819949324402138"><ele>359.0</ele><time>2026-04-19T14:46:17Z</time></trkpt><trkpt lat="42.11680872892886" lon="13.819902095277962"><ele>359.0</ele><time>2026-04-19T14:46:18Z</time></trkpt><trkpt lat="42.11672383992298" lon="13.81988493922767"><ele>359.0</ele><time>2026-04-19T14:46:19Z</time></trkpt><trkpt lat="42.11663707400057" lon="13.81987262472075"><ele>359.0</ele><time>2026-04-19T14:46:20Z</time></trkpt><trkpt lat="42.11654287614453" lon="13.819879866481385"><ele>359.0</ele><time>2026-04-19T14:46:21.001Z</time></trkpt><trkpt lat="42.11645261086661" lon="13.819870009105312"><ele>359.0</ele><time>2026-04-19T14:46:22.001Z</time></trkpt><trkpt lat="42.11636878319501" lon="13.819862497862623"><ele>359.0</ele><time>2026-04-19T14:46:23Z</time></trkpt><trkpt lat="42.116300633308065" lon="13.81985701710594"><ele>356.33333333333337</ele><time>2026-04-19T14:46:24Z</time></trkpt><trkpt lat="42.116234066421136" lon="13.819850455990581"><ele>353.6666666666667</ele><time>2026-04-19T14:46:25Z</time></trkpt><trkpt lat="42.116125877055744" lon="13.819812088682502"><ele>351.0</ele><time>2026-04-19T14:46:27Z</time></trkpt><trkpt lat="42.11604832080396" lon="13.819792737659187"><ele>348.3333333333333</ele><time>2026-04-19T14:46:29Z</time></trkpt><trkpt lat="42.11598038859883" lon="13.819766278393368"><ele>345.66666666666663</ele><time>2026-04-19T14:46:32Z</time></trkpt><trkpt lat="42.11591731307566" lon="13.81972591587455"><ele>343.0</ele><time>2026-04-19T14:46:34Z</time></trkpt><trkpt lat="42.11586679495838" lon="13.81967290842188"><ele>343.0</ele><time>2026-04-19T14:46:41Z</time></trkpt><trkpt lat="42.11580945429151" lon="13.819594421052454"><ele>343.0</ele><time>2026-04-19T14:46:43Z</time></trkpt><trkpt lat="42.115744815829764" lon="13.819516246430016"><ele>343.0</ele><time>2026-04-19T14:46:44Z</time></trkpt><trkpt lat="42.115644380228574" lon="13.819456615104341"><ele>343.0</ele><time>2026-04-19T14:46:45Z</time></trkpt><trkpt lat="42.115539701332224" lon="13.819385438715662"><ele>343.0</ele><time>2026-04-19T14:46:46Z</time></trkpt><trkpt lat="42.115413972226506" lon="13.819329195117275"><ele>345.5</ele><time>2026-04-19T14:46:47Z</time></trkpt><trkpt lat="42.115284203808294" lon="13.819255138113679"><ele>348.0</ele><time>2026-04-19T14:46:48Z</time></trkpt><trkpt lat="42.11514382520173" lon="13.819188420886324"><ele>350.5</ele><time>2026-04-19T14:46:49Z</time></trkpt><trkpt lat="42.11500847301244" lon="13.819111487234142"><ele>353.0</ele><time>2026-04-19T14:46:50Z</time></trkpt><trkpt lat="42.11487394671634" lon="13.819031688665884"><ele>347.75</ele><time>2026-04-19T14:46:51Z</time></trkpt><trkpt lat="42.11473913373547" lon="13.81895624395937"><ele>342.5</ele><time>2026-04-19T14:46:52Z</time></trkpt><trkpt lat="42.11460092937194" lon="13.818885602626661"><ele>337.25</ele><time>2026-04-19T14:46:53Z</time></trkpt><trkpt lat="42.114467901892446" lon="13.818809947338123"><ele>332.0</ele><time>2026-04-19T14:46:54Z</time></trkpt><trkpt lat="42.11434522660159" lon="13.818735470333332"><ele>332.0</ele><time>2026-04-19T14:46:55Z</time></trkpt><trkpt lat="42.1142327846765" lon="13.818654520783749"><ele>332.0</ele><time>2026-04-19T14:46:56Z</time></trkpt><trkpt lat="42.114133968752576" lon="13.818580751916626"><ele>332.0</ele><time>2026-04-19T14:46:57Z</time></trkpt><trkpt lat="42.11404671827522" lon="13.818504529182066"><ele>332.0</ele><time>2026-04-19T14:46:58Z</time></trkpt><trkpt lat="42.11397180837377" lon="13.818417711228012"><ele>332.0</ele><time>2026-04-19T14:46:59Z</time></trkpt><trkpt lat="42.11390604319377" lon="13.818296423824536"><ele>331.25</ele><time>2026-04-19T14:47:00Z</time></trkpt><trkpt lat="42.11386320973833" lon="13.81813460773773"><ele>330.5</ele><time>2026-04-19T14:47:01Z</time></trkpt><trkpt lat="42.11382086162029" lon="13.817967631552563"><ele>329.75</ele><time>2026-04-19T14:47:02Z</time></trkpt><trkpt lat="42.11377889284802" lon="13.817791380040804"><ele>329.0</ele><time>2026-04-19T14:47:03Z</time></trkpt><trkpt lat="42.11372998244432" lon="13.817611240377097"><ele>329.0</ele><time>2026-04-19T14:47:04Z</time></trkpt><trkpt lat="42.11369055844816" lon="13.817436180871104"><ele>329.0</ele><time>2026-04-19T14:47:05Z</time></trkpt><trkpt lat="42.1136588171338" lon="13.817262917274045"><ele>329.0</ele><time>2026-04-19T14:47:06Z</time></trkpt><trkpt lat="42.11362899129436" lon="13.817090234944807"><ele>329.0</ele><time>2026-04-19T14:47:07Z</time></trkpt><trkpt lat="42.11360623350886" lon="13.81691816655332"><ele>330.0</ele><time>2026-04-19T14:47:08Z</time></trkpt><trkpt lat="42.11360359935071" lon="13.8167450675479"><ele>331.0</ele><time>2026-04-19T14:47:09Z</time></trkpt><trkpt lat="42.11361207556069" lon="13.816579845148485"><ele>332.0</ele><time>2026-04-19T14:47:10Z</time></trkpt><trkpt lat="42.113588807407616" lon="13.816407912360456"><ele>333.0</ele><time>2026-04-19T14:47:11Z</time></trkpt><trkpt lat="42.11355032572044" lon="13.816227774377971"><ele>333.0</ele><time>2026-04-19T14:47:12Z</time></trkpt><trkpt lat="42.11349705651916" lon="13.816046095636546"><ele>333.0</ele><time>2026-04-19T14:47:13Z</time></trkpt><trkpt lat="42.11343858444661" lon="13.81586625818602"><ele>333.0</ele><time>2026-04-19T14:47:14Z</time></trkpt><trkpt lat="42.11338119971914" lon="13.815689817780184"><ele>333.0</ele><time>2026-04-19T14:47:15Z</time></trkpt><trkpt lat="42.113328457628405" lon="13.815515317995464"><ele>335.0</ele><time>2026-04-19T14:47:16Z</time></trkpt><trkpt lat="42.113282083416784" lon="13.815336391337803"><ele>337.0</ele><time>2026-04-19T14:47:17Z</time></trkpt><trkpt lat="42.113242529855064" lon="13.815152416438977"><ele>339.0</ele><time>2026-04-19T14:47:18Z</time></trkpt><trkpt lat="42.11320896130318" lon="13.814966088951934"><ele>341.0</ele><time>2026-04-19T14:47:19Z</time></trkpt><trkpt lat="42.11317821394219" lon="13.814779725979433"><ele>332.5</ele><time>2026-04-19T14:47:20Z</time></trkpt><trkpt lat="42.113149276206286" lon="13.81459102224009"><ele>324.0</ele><time>2026-04-19T14:47:21Z</time></trkpt><trkpt lat="42.11312165578317" lon="13.814406651440821"><ele>315.5</ele><time>2026-04-19T14:47:22Z</time></trkpt><trkpt lat="42.11309831142793" lon="13.814236809917672"><ele>307.0</ele><time>2026-04-19T14:47:23Z</time></trkpt><trkpt lat="42.11308169638589" lon="13.814076886233234"><ele>307.0</ele><time>2026-04-19T14:47:24Z</time></trkpt><trkpt lat="42.113076954460865" lon="13.813922666798103"><ele>307.0</ele><time>2026-04-19T14:47:25Z</time></trkpt><trkpt lat="42.113086672417516" lon="13.81376056812434"><ele>307.0</ele><time>2026-04-19T14:47:26Z</time></trkpt><trkpt lat="42.11311148298183" lon="13.813595058164177"><ele>307.0</ele><time>2026-04-19T14:47:27Z</time></trkpt><trkpt lat="42.11313722575241" lon="13.813414508244502"><ele>307.5</ele><time>2026-04-19T14:47:28Z</time></trkpt><trkpt lat="42.113162206606184" lon="13.813236394906536"><ele>308.0</ele><time>2026-04-19T14:47:29Z</time></trkpt><trkpt lat="42.113182927063725" lon="13.813054340682166"><ele>308.5</ele><time>2026-04-19T14:47:30Z</time></trkpt><trkpt lat="42.11321031229199" lon="13.812876353958579"><ele>309.0</ele><time>2026-04-19T14:47:31Z</time></trkpt><trkpt lat="42.113222668150335" lon="13.812696333203075"><ele>309.75</ele><time>2026-04-19T14:47:32Z</time></trkpt><trkpt lat="42.113220442214775" lon="13.812526129590749"><ele>310.5</ele><time>2026-04-19T14:47:33Z</time></trkpt><trkpt lat="42.11320496901713" lon="13.812366268544391"><ele>311.25</ele><time>2026-04-19T14:47:34Z</time></trkpt><trkpt lat="42.11317969392708" lon="13.812227324853518"><ele>312.0</ele><time>2026-04-19T14:47:35Z</time></trkpt><trkpt lat="42.11312763867751" lon="13.81209717156437"><ele>312.0</ele><time>2026-04-19T14:47:36Z</time></trkpt><trkpt lat="42.11304922563788" lon="13.811978406135145"><ele>312.0</ele><time>2026-04-19T14:47:37Z</time></trkpt><trkpt lat="42.112945646647155" lon="13.811881311717384"><ele>312.0</ele><time>2026-04-19T14:47:38Z</time></trkpt><trkpt lat="42.11285463431825" lon="13.811759498499047"><ele>312.0</ele><time>2026-04-19T14:47:39Z</time></trkpt><trkpt lat="42.11275577898684" lon="13.811663634190099"><ele>314.0</ele><time>2026-04-19T14:47:40Z</time></trkpt><trkpt lat="42.11266853464583" lon="13.811578741222704"><ele>316.0</ele><time>2026-04-19T14:47:41Z</time></trkpt><trkpt lat="42.11259172667423" lon="13.811495809681821"><ele>318.0</ele><time>2026-04-19T14:47:42Z</time></trkpt><trkpt lat="42.11252407521339" lon="13.811414305909638"><ele>320.0</ele><time>2026-04-19T14:47:43Z</time></trkpt><trkpt lat="42.11246658590936" lon="13.811322613221531"><ele>322.0</ele><time>2026-04-19T14:47:44Z</time></trkpt><trkpt lat="42.11242113091867" lon="13.811208070531174"><ele>316.6</ele><time>2026-04-19T14:47:45Z</time></trkpt><trkpt lat="42.11238581090874" lon="13.811072762696849"><ele>311.20000000000005</ele><time>2026-04-19T14:47:46Z</time></trkpt><trkpt lat="42.112349698027224" lon="13.810926033881481"><ele>305.8</ele><time>2026-04-19T14:47:47Z</time></trkpt><trkpt lat="42.11231397191958" lon="13.81078153528711"><ele>300.4</ele><time>2026-04-19T14:47:48Z</time></trkpt><trkpt lat="42.112283884510965" lon="13.810636031165938"><ele>295.0</ele><time>2026-04-19T14:47:49Z</time></trkpt><trkpt lat="42.11226333557265" lon="13.810504428898533"><ele>295.0</ele><time>2026-04-19T14:47:50Z</time></trkpt><trkpt lat="42.11225195921741" lon="13.81038545103715"><ele>295.0</ele><time>2026-04-19T14:47:51Z</time></trkpt><trkpt lat="42.11225415448523" lon="13.810278762270904"><ele>295.0</ele><time>2026-04-19T14:47:52Z</time></trkpt><trkpt lat="42.11227599145135" lon="13.810169053873656"><ele>295.0</ele><time>2026-04-19T14:47:53Z</time></trkpt><trkpt lat="42.112299991648385" lon="13.81003909376276"><ele>295.0</ele><time>2026-04-19T14:47:54Z</time></trkpt><trkpt lat="42.11232315689232" lon="13.809903868221136"><ele>295.8</ele><time>2026-04-19T14:47:55Z</time></trkpt><trkpt lat="42.11234853637657" lon="13.809762394269393"><ele>296.6</ele><time>2026-04-19T14:47:56Z</time></trkpt><trkpt lat="42.112374534865005" lon="13.809618253583611"><ele>297.4</ele><time>2026-04-19T14:47:57Z</time></trkpt><trkpt lat="42.112401529556045" lon="13.809469970564741"><ele>298.2</ele><time>2026-04-19T14:47:58Z</time></trkpt><trkpt lat="42.11242600161021" lon="13.80932636441563"><ele>299.0</ele><time>2026-04-19T14:47:59Z</time></trkpt><trkpt lat="42.11244565261966" lon="13.809192455760375"><ele>299.8</ele><time>2026-04-19T14:48:00Z</time></trkpt><trkpt lat="42.112454936327666" lon="13.80906399544163"><ele>300.59999999999997</ele><time>2026-04-19T14:48:01Z</time></trkpt><trkpt lat="42.11245615449496" lon="13.808934902005548"><ele>301.4</ele><time>2026-04-19T14:48:02Z</time></trkpt><trkpt lat="42.112397007787" lon="13.808803850622654"><ele>302.2</ele><time>2026-04-19T14:48:03Z</time></trkpt><trkpt lat="42.11232961367655" lon="13.80867017819061"><ele>303.0</ele><time>2026-04-19T14:48:04Z</time></trkpt><trkpt lat="42.11225707158738" lon="13.808540181823128"><ele>304.75</ele><time>2026-04-19T14:48:05Z</time></trkpt><trkpt lat="42.112191256893226" lon="13.80839534649407"><ele>306.5</ele><time>2026-04-19T14:48:06Z</time></trkpt><trkpt lat="42.11212455708007" lon="13.808256925624983"><ele>308.25</ele><time>2026-04-19T14:48:07Z</time></trkpt><trkpt lat="42.11207433920848" lon="13.808123435409277"><ele>310.0</ele><time>2026-04-19T14:48:08Z</time></trkpt><trkpt lat="42.11203588416346" lon="13.807997375871594"><ele>310.0</ele><time>2026-04-19T14:48:09Z</time></trkpt><trkpt lat="42.11199290402547" lon="13.807853935121269"><ele>310.0</ele><time>2026-04-19T14:48:10Z</time></trkpt><trkpt lat="42.11194796029349" lon="13.807704098225965"><ele>310.0</ele><time>2026-04-19T14:48:11Z</time></trkpt><trkpt lat="42.11189179002952" lon="13.807575254126638"><ele>310.0</ele><time>2026-04-19T14:48:12Z</time></trkpt><trkpt lat="42.11187127432933" lon="13.807425669185744"><ele>309.5</ele><time>2026-04-19T14:48:13Z</time></trkpt><trkpt lat="42.11183026385934" lon="13.807286244040919"><ele>309.0</ele><time>2026-04-19T14:48:14Z</time></trkpt><trkpt lat="42.111754569302185" lon="13.807158780753408"><ele>308.5</ele><time>2026-04-19T14:48:15Z</time></trkpt><trkpt lat="42.11163831540866" lon="13.807069577567326"><ele>308.0</ele><time>2026-04-19T14:48:16Z</time></trkpt><trkpt lat="42.111523518061254" lon="13.807003082553315"><ele>308.0</ele><time>2026-04-19T14:48:17Z</time></trkpt><trkpt lat="42.111413209557895" lon="13.806950120833722"><ele>308.0</ele><time>2026-04-19T14:48:18Z</time></trkpt><trkpt lat="42.111310264332204" lon="13.806907901737336"><ele>308.0</ele><time>2026-04-19T14:48:19Z</time></trkpt><trkpt lat="42.11122154986358" lon="13.806866171681753"><ele>308.0</ele><time>2026-04-19T14:48:20Z</time></trkpt><trkpt lat="42.11114800474158" lon="13.806807684290074"><ele>308.0</ele><time>2026-04-19T14:48:21Z</time></trkpt><trkpt lat="42.111094832893706" lon="13.806738948182419"><ele>309.0</ele><time>2026-04-19T14:48:22Z</time></trkpt><trkpt lat="42.11104888331517" lon="13.806658102033948"><ele>310.0</ele><time>2026-04-19T14:48:23Z</time></trkpt><trkpt lat="42.11106280858795" lon="13.806555925307956"><ele>311.0</ele><time>2026-04-19T14:48:24Z</time></trkpt><trkpt lat="42.11108304133816" lon="13.80644326367493"><ele>312.0</ele><time>2026-04-19T14:48:25Z</time></trkpt><trkpt lat="42.11110622352753" lon="13.806300343747074"><ele>313.0</ele><time>2026-04-19T14:48:26Z</time></trkpt><trkpt lat="42.111131424983256" lon="13.806135550386557"><ele>311.0</ele><time>2026-04-19T14:48:27Z</time></trkpt><trkpt lat="42.11115469084781" lon="13.805962702322192"><ele>309.0</ele><time>2026-04-19T14:48:28Z</time></trkpt><trkpt lat="42.11117883871879" lon="13.805783084297993"><ele>307.0</ele><time>2026-04-19T14:48:29Z</time></trkpt><trkpt lat="42.11120174617761" lon="13.805612426744737"><ele>305.0</ele><time>2026-04-19T14:48:30Z</time></trkpt><trkpt lat="42.11122215848829" lon="13.80543854600244"><ele>305.0</ele><time>2026-04-19T14:48:31Z</time></trkpt><trkpt lat="42.111236159077706" lon="13.805267067129524"><ele>305.0</ele><time>2026-04-19T14:48:32Z</time></trkpt><trkpt lat="42.11122855997824" lon="13.805098035073867"><ele>305.0</ele><time>2026-04-19T14:48:33Z</time></trkpt><trkpt lat="42.111225993498465" lon="13.80492670726707"><ele>305.0</ele><time>2026-04-19T14:48:34Z</time></trkpt><trkpt lat="42.11122030096701" lon="13.804757397767368"><ele>304.75</ele><time>2026-04-19T14:48:35Z</time></trkpt><trkpt lat="42.1112120475" lon="13.80458431154579"><ele>304.5</ele><time>2026-04-19T14:48:36Z</time></trkpt><trkpt lat="42.11120312942977" lon="13.80441986719685"><ele>304.25</ele><time>2026-04-19T14:48:37Z</time></trkpt><trkpt lat="42.11118652636175" lon="13.80426354433714"><ele>304.0</ele><time>2026-04-19T14:48:38Z</time></trkpt><trkpt lat="42.11115667051851" lon="13.80410685252558"><ele>304.5</ele><time>2026-04-19T14:48:39Z</time></trkpt><trkpt lat="42.11110712320479" lon="13.803963086498095"><ele>305.0</ele><time>2026-04-19T14:48:40Z</time></trkpt><trkpt lat="42.111035261820724" lon="13.80383865956495"><ele>305.5</ele><time>2026-04-19T14:48:41Z</time></trkpt><trkpt lat="42.11095431358852" lon="13.803728111082153"><ele>306.0</ele><time>2026-04-19T14:48:42Z</time></trkpt><trkpt lat="42.110878017628075" lon="13.80360894170874"><ele>307.8</ele><time>2026-04-19T14:48:43Z</time></trkpt><trkpt lat="42.11082677913252" lon="13.803477871924493"><ele>309.6</ele><time>2026-04-19T14:48:44Z</time></trkpt><trkpt lat="42.11080744015425" lon="13.803343483796823"><ele>311.4</ele><time>2026-04-19T14:48:45Z</time></trkpt><trkpt lat="42.110848309446894" lon="13.803210246545433"><ele>313.2</ele><time>2026-04-19T14:48:46Z</time></trkpt><trkpt lat="42.11083416824854" lon="13.803094358546062"><ele>315.0</ele><time>2026-04-19T14:48:47Z</time></trkpt><trkpt lat="42.110811532033715" lon="13.80296844801511"><ele>315.0</ele><time>2026-04-19T14:48:48Z</time></trkpt><trkpt lat="42.110749372130975" lon="13.802844882075705"><ele>315.0</ele><time>2026-04-19T14:48:49Z</time></trkpt><trkpt lat="42.11065055046077" lon="13.802775397993887"><ele>315.0</ele><time>2026-04-19T14:48:50Z</time></trkpt><trkpt lat="42.11060142004799" lon="13.802705731893113"><ele>315.0</ele><time>2026-04-19T14:48:51Z</time></trkpt><trkpt lat="42.1105713199444" lon="13.802631199058903"><ele>315.0</ele><time>2026-04-19T14:48:52Z</time></trkpt><trkpt lat="42.11055936034146" lon="13.80254521459866"><ele>315.0</ele><time>2026-04-19T14:48:53Z</time></trkpt><trkpt lat="42.110542874375355" lon="13.802416970368283"><ele>312.0</ele><time>2026-04-19T14:48:54Z</time></trkpt><trkpt lat="42.11050827735131" lon="13.802275608988609"><ele>309.0</ele><time>2026-04-19T14:48:55Z</time></trkpt><trkpt lat="42.11047501600861" lon="13.802137502415048"><ele>306.0</ele><time>2026-04-19T14:48:56Z</time></trkpt><trkpt lat="42.11045051455292" lon="13.802014858116813"><ele>303.0</ele><time>2026-04-19T14:48:57Z</time></trkpt><trkpt lat="42.11044606601888" lon="13.801918941569623"><ele>300.0</ele><time>2026-04-19T14:48:58Z</time></trkpt><trkpt lat="42.11046572298394" lon="13.801828813570097"><ele>300.0</ele><time>2026-04-19T14:48:59Z</time></trkpt><trkpt lat="42.11048615318412" lon="13.801715496463745"><ele>300.0</ele><time>2026-04-19T14:49:00Z</time></trkpt><trkpt lat="42.11051600919083" lon="13.801582862190848"><ele>300.0</ele><time>2026-04-19T14:49:01Z</time></trkpt><trkpt lat="42.11054995824359" lon="13.801440109425346"><ele>300.0</ele><time>2026-04-19T14:49:02Z</time></trkpt><trkpt lat="42.110576736754744" lon="13.801286390713202"><ele>300.0</ele><time>2026-04-19T14:49:03Z</time></trkpt><trkpt lat="42.110594531819714" lon="13.801127434761279"><ele>300.0</ele><time>2026-04-19T14:49:04Z</time></trkpt><trkpt lat="42.11058557334425" lon="13.800977972912104"><ele>300.0</ele><time>2026-04-19T14:49:05Z</time></trkpt><trkpt lat="42.11059046289487" lon="13.800842580488483"><ele>300.0</ele><time>2026-04-19T14:49:06Z</time></trkpt><trkpt lat="42.110580879872956" lon="13.800716465476404"><ele>300.0</ele><time>2026-04-19T14:49:07Z</time></trkpt><trkpt lat="42.1105448819331" lon="13.80060642862319"><ele>300.0</ele><time>2026-04-19T14:49:08Z</time></trkpt><trkpt lat="42.11050206258163" lon="13.800491781309018"><ele>300.0</ele><time>2026-04-19T14:49:09Z</time></trkpt><trkpt lat="42.11046897682446" lon="13.800384365328453"><ele>300.0</ele><time>2026-04-19T14:49:10Z</time></trkpt><trkpt lat="42.11042754091985" lon="13.80028457366795"><ele>300.0</ele><time>2026-04-19T14:49:11Z</time></trkpt><trkpt lat="42.11037454684958" lon="13.800197838398628"><ele>300.0</ele><time>2026-04-19T14:49:12Z</time></trkpt><trkpt lat="42.11031766318925" lon="13.80013736106293"><ele>300.0</ele><time>2026-04-19T14:49:13Z</time></trkpt><trkpt lat="42.110289414319816" lon="13.800052910096346"><ele>300.0</ele><time>2026-04-19T14:49:14Z</time></trkpt><trkpt lat="42.11028423350621" lon="13.799955226170475"><ele>301.4</ele><time>2026-04-19T14:49:15Z</time></trkpt><trkpt lat="42.1102702786792" lon="13.799813437675194"><ele>302.8</ele><time>2026-04-19T14:49:16Z</time></trkpt><trkpt lat="42.11022116326917" lon="13.799710027313369"><ele>304.2</ele><time>2026-04-19T14:49:17Z</time></trkpt><trkpt lat="42.110156124847954" lon="13.799614395248886"><ele>305.6</ele><time>2026-04-19T14:49:18Z</time></trkpt><trkpt lat="42.110113775794666" lon="13.799498332299681"><ele>307.0</ele><time>2026-04-19T14:49:19Z</time></trkpt><trkpt lat="42.110058292003295" lon="13.79940796916902"><ele>307.8</ele><time>2026-04-19T14:49:20Z</time></trkpt><trkpt lat="42.110019223969246" lon="13.799323735888624"><ele>308.6</ele><time>2026-04-19T14:49:21Z</time></trkpt><trkpt lat="42.10992940078955" lon="13.799245575217165"><ele>309.40000000000003</ele><time>2026-04-19T14:49:23Z</time></trkpt><trkpt lat="42.10984846558497" lon="13.799191622382683"><ele>310.2</ele><time>2026-04-19T14:50:21Z</time></trkpt><trkpt lat="42.109749044001134" lon="13.799163918352512"><ele>311.0</ele><time>2026-04-19T14:50:23Z</time></trkpt><trkpt lat="42.109630716804304" lon="13.799258638126869"><ele>316.83333333333337</ele><time>2026-04-19T14:50:25Z</time></trkpt><trkpt lat="42.109590830571285" lon="13.799338132490899"><ele>322.6666666666667</ele><time>2026-04-19T14:50:26Z</time></trkpt><trkpt lat="42.10954435583401" lon="13.7994268925571"><ele>328.5</ele><time>2026-04-19T14:50:27Z</time></trkpt><trkpt lat="42.109488871788095" lon="13.799508120873334"><ele>334.3333333333333</ele><time>2026-04-19T14:50:28Z</time></trkpt><trkpt lat="42.10943519428322" lon="13.79959301006147"><ele>340.16666666666663</ele><time>2026-04-19T14:50:29Z</time></trkpt><trkpt lat="42.10938782454922" lon="13.799688691416703"><ele>346.0</ele><time>2026-04-19T14:50:30Z</time></trkpt><trkpt lat="42.109360218836486" lon="13.79981568777636"><ele>346.0</ele><time>2026-04-19T14:50:31Z</time></trkpt><trkpt lat="42.1093497397992" lon="13.799972561517373"><ele>346.0</ele><time>2026-04-19T14:50:32Z</time></trkpt><trkpt lat="42.10935183384893" lon="13.800149815842298"><ele>346.0</ele><time>2026-04-19T14:50:33Z</time></trkpt><trkpt lat="42.109376411243446" lon="13.800315696683185"><ele>346.0</ele><time>2026-04-19T14:50:34Z</time></trkpt><trkpt lat="42.10940805698814" lon="13.800447991212687"><ele>344.66666666666663</ele><time>2026-04-19T14:50:35Z</time></trkpt><trkpt lat="42.10943473832758" lon="13.80055357002013"><ele>343.3333333333333</ele><time>2026-04-19T14:50:36Z</time></trkpt><trkpt lat="42.10945142797491" lon="13.800644743995068"><ele>342.0</ele><time>2026-04-19T14:50:37Z</time></trkpt><trkpt lat="42.10945189960857" lon="13.800804704527629"><ele>340.6666666666667</ele><time>2026-04-19T14:50:39Z</time></trkpt><trkpt lat="42.109430953626166" lon="13.80089310848252"><ele>339.33333333333337</ele><time>2026-04-19T14:50:40Z</time></trkpt><trkpt lat="42.109384508313035" lon="13.80097883639035"><ele>338.0</ele><time>2026-04-19T14:50:41Z</time></trkpt><trkpt lat="42.10933041628327" lon="13.801080160591168"><ele>336.2</ele><time>2026-04-19T14:50:42Z</time></trkpt><trkpt lat="42.10926910650188" lon="13.801183623098481"><ele>334.4</ele><time>2026-04-19T14:50:43Z</time></trkpt><trkpt lat="42.109228774347976" lon="13.801307651924263"><ele>332.59999999999997</ele><time>2026-04-19T14:50:44Z</time></trkpt><trkpt lat="42.10921542223526" lon="13.801440184891499"><ele>330.79999999999995</ele><time>2026-04-19T14:50:45Z</time></trkpt><trkpt lat="42.109266100921566" lon="13.801577406416433"><ele>329.0</ele><time>2026-04-19T14:50:46Z</time></trkpt><trkpt lat="42.109280400235406" lon="13.801689053130708"><ele>329.0</ele><time>2026-04-19T14:50:47Z</time></trkpt><trkpt lat="42.10924565543017" lon="13.801794028231024"><ele>329.0</ele><time>2026-04-19T14:50:48Z</time></trkpt><trkpt lat="42.109169894791" lon="13.801889982651373"><ele>329.0</ele><time>2026-04-19T14:50:49Z</time></trkpt><trkpt lat="42.10911084698713" lon="13.802021846826381"><ele>329.0</ele><time>2026-04-19T14:50:50Z</time></trkpt><trkpt lat="42.10905036397818" lon="13.802137579092474"><ele>329.0</ele><time>2026-04-19T14:50:51Z</time></trkpt><trkpt lat="42.109045156918846" lon="13.802287913410602"><ele>328.5</ele><time>2026-04-19T14:50:52Z</time></trkpt><trkpt lat="42.109077463468715" lon="13.802463921401436"><ele>328.0</ele><time>2026-04-19T14:50:53Z</time></trkpt><trkpt lat="42.1091269277532" lon="13.802636997799631"><ele>327.5</ele><time>2026-04-19T14:50:54Z</time></trkpt><trkpt lat="42.10916857984113" lon="13.802805540329555"><ele>327.0</ele><time>2026-04-19T14:50:55Z</time></trkpt><trkpt lat="42.10920083086714" lon="13.802940431037952"><ele>327.0</ele><time>2026-04-19T14:50:56Z</time></trkpt><trkpt lat="42.10922413768366" lon="13.803057309660495"><ele>327.0</ele><time>2026-04-19T14:50:57Z</time></trkpt><trkpt lat="42.109228584942954" lon="13.803168756305556"><ele>327.0</ele><time>2026-04-19T14:50:58Z</time></trkpt><trkpt lat="42.10922127025431" lon="13.803297492357956"><ele>327.0</ele><time>2026-04-19T14:50:59Z</time></trkpt><trkpt lat="42.109179259739506" lon="13.803435027275421"><ele>327.0</ele><time>2026-04-19T14:51:00Z</time></trkpt><trkpt lat="42.10913592130506" lon="13.803567694991198"><ele>324.5</ele><time>2026-04-19T14:51:01Z</time></trkpt><trkpt lat="42.10908899061115" lon="13.803706183790977"><ele>322.0</ele><time>2026-04-19T14:51:02Z</time></trkpt><trkpt lat="42.10904028638978" lon="13.8038418041767"><ele>319.5</ele><time>2026-04-19T14:51:03Z</time></trkpt><trkpt lat="42.1089983061776" lon="13.803986465194138"><ele>317.0</ele><time>2026-04-19T14:51:04Z</time></trkpt><trkpt lat="42.108948042830626" lon="13.804129059701753"><ele>321.75</ele><time>2026-04-19T14:51:05Z</time></trkpt><trkpt lat="42.10888859862749" lon="13.80427040504122"><ele>326.5</ele><time>2026-04-19T14:51:06Z</time></trkpt><trkpt lat="42.10882607349025" lon="13.804410709712325"><ele>331.25</ele><time>2026-04-19T14:51:07Z</time></trkpt><trkpt lat="42.10873069126304" lon="13.80453085415698"><ele>336.0</ele><time>2026-04-19T14:51:08Z</time></trkpt><trkpt lat="42.1086205332092" lon="13.804651447974475"><ele>336.0</ele><time>2026-04-19T14:51:09Z</time></trkpt><trkpt lat="42.108498794617766" lon="13.804797639067736"><ele>336.0</ele><time>2026-04-19T14:51:10Z</time></trkpt><trkpt lat="42.108348424999456" lon="13.80493710101547"><ele>336.0</ele><time>2026-04-19T14:51:11Z</time></trkpt><trkpt lat="42.10818663925672" lon="13.8050931009896"><ele>338.3333333333333</ele><time>2026-04-19T14:51:12Z</time></trkpt><trkpt lat="42.10800303439933" lon="13.8052508271132"><ele>340.66666666666663</ele><time>2026-04-19T14:51:13Z</time></trkpt><trkpt lat="42.107825330405014" lon="13.805418003411905"><ele>343.0</ele><time>2026-04-19T14:51:14Z</time></trkpt><trkpt lat="42.107666026360654" lon="13.805567759505601"><ele>343.0</ele><time>2026-04-19T14:51:15Z</time></trkpt><trkpt lat="42.1075287462349" lon="13.805696122416656"><ele>343.0</ele><time>2026-04-19T14:51:16Z</time></trkpt><trkpt lat="42.1074004953529" lon="13.805813698439525"><ele>343.0</ele><time>2026-04-19T14:51:17Z</time></trkpt><trkpt lat="42.10728425591887" lon="13.805919830853975"><ele>343.5</ele><time>2026-04-19T14:51:18Z</time></trkpt><trkpt lat="42.107175624112806" lon="13.80601215971547"><ele>344.0</ele><time>2026-04-19T14:51:19Z</time></trkpt><trkpt lat="42.10706558295264" lon="13.806104749133238"><ele>344.5</ele><time>2026-04-19T14:51:20Z</time></trkpt><trkpt lat="42.10694502002265" lon="13.806199151146384"><ele>345.0</ele><time>2026-04-19T14:51:21Z</time></trkpt><trkpt lat="42.10681958751449" lon="13.806298507328709"><ele>345.0</ele><time>2026-04-19T14:51:22Z</time></trkpt><trkpt lat="42.106711858410044" lon="13.806436694815647"><ele>345.0</ele><time>2026-04-19T14:51:23Z</time></trkpt><trkpt lat="42.10661200137958" lon="13.806578596935436"><ele>345.0</ele><time>2026-04-19T14:51:24Z</time></trkpt><trkpt lat="42.1065067880949" lon="13.806692639075843"><ele>345.0</ele><time>2026-04-19T14:51:25Z</time></trkpt><trkpt lat="42.10640543993861" lon="13.80679367575758"><ele>348.0</ele><time>2026-04-19T14:51:26Z</time></trkpt><trkpt lat="42.10628665406952" lon="13.806863837273124"><ele>351.0</ele><time>2026-04-19T14:51:27Z</time></trkpt><trkpt lat="42.106165002183594" lon="13.806961964917983"><ele>354.0</ele><time>2026-04-19T14:51:28Z</time></trkpt><trkpt lat="42.10604742355713" lon="13.807066516654086"><ele>357.0</ele><time>2026-04-19T14:51:29Z</time></trkpt><trkpt lat="42.105938893851224" lon="13.80722152804826"><ele>357.0</ele><time>2026-04-19T14:51:30Z</time></trkpt><trkpt lat="42.10584243664622" lon="13.807376179162022"><ele>357.0</ele><time>2026-04-19T14:51:31Z</time></trkpt><trkpt lat="42.10576390275487" lon="13.807533079597079"><ele>357.0</ele><time>2026-04-19T14:51:32Z</time></trkpt><trkpt lat="42.105703538867495" lon="13.80771604565832"><ele>357.0</ele><time>2026-04-19T14:51:33Z</time></trkpt><trkpt lat="42.10565793118149" lon="13.80791775088271"><ele>359.25</ele><time>2026-04-19T14:51:34Z</time></trkpt><trkpt lat="42.10561817706521" lon="13.808126583349557"><ele>361.5</ele><time>2026-04-19T14:51:35Z</time></trkpt><trkpt lat="42.10558651465387" lon="13.808318780788165"><ele>363.75</ele><time>2026-04-19T14:51:36Z</time></trkpt><trkpt lat="42.10556070610901" lon="13.808483723903102"><ele>366.0</ele><time>2026-04-19T14:51:37Z</time></trkpt><trkpt lat="42.10553286308344" lon="13.808624410514039"><ele>366.0</ele><time>2026-04-19T14:51:38Z</time></trkpt><trkpt lat="42.105509057480155" lon="13.808761082656916"><ele>366.0</ele><time>2026-04-19T14:51:39Z</time></trkpt><trkpt lat="42.10543306946096" lon="13.80886457966808"><ele>366.0</ele><time>2026-04-19T14:51:40Z</time></trkpt><trkpt lat="42.10535708898629" lon="13.808988415251694"><ele>366.0</ele><time>2026-04-19T14:51:41Z</time></trkpt><trkpt lat="42.10525968872786" lon="13.809077193623358"><ele>366.0</ele><time>2026-04-19T14:51:42Z</time></trkpt><trkpt lat="42.10517638645158" lon="13.809150951046924"><ele>366.0</ele><time>2026-04-19T14:51:43Z</time></trkpt><trkpt lat="42.105080839556514" lon="13.809188741964466"><ele>366.0</ele><time>2026-04-19T14:51:44Z</time></trkpt><trkpt lat="42.104967926619" lon="13.809226563709803"><ele>366.0</ele><time>2026-04-19T14:51:45Z</time></trkpt><trkpt lat="42.10485649112221" lon="13.809281643342397"><ele>366.0</ele><time>2026-04-19T14:51:46Z</time></trkpt><trkpt lat="42.10475423314811" lon="13.809316132224176"><ele>366.0</ele><time>2026-04-19T14:51:47Z</time></trkpt><trkpt lat="42.10466492622363" lon="13.809343213137389"><ele>369.4</ele><time>2026-04-19T14:51:48Z</time></trkpt><trkpt lat="42.10458536291766" lon="13.809423562321074"><ele>372.8</ele><time>2026-04-19T14:51:49Z</time></trkpt><trkpt lat="42.1045524739814" lon="13.809572159650566"><ele>376.2</ele><time>2026-04-19T14:51:50Z</time></trkpt><trkpt lat="42.10452928759499" lon="13.80971892254388"><ele>379.59999999999997</ele><time>2026-04-19T14:51:51Z</time></trkpt><trkpt lat="42.104483530835914" lon="13.809866828927097"><ele>383.0</ele><time>2026-04-19T14:51:52Z</time></trkpt><trkpt lat="42.10443795050701" lon="13.81001934465236"><ele>381.25</ele><time>2026-04-19T14:51:53Z</time></trkpt><trkpt lat="42.104387653286615" lon="13.810181616982891"><ele>379.5</ele><time>2026-04-19T14:51:54Z</time></trkpt><trkpt lat="42.1042943718491" lon="13.810318230280728"><ele>377.75</ele><time>2026-04-19T14:51:55Z</time></trkpt><trkpt lat="42.10421643836444" lon="13.810456259643063"><ele>376.0</ele><time>2026-04-19T14:51:56Z</time></trkpt><trkpt lat="42.104167982774335" lon="13.81059751488612"><ele>376.0</ele><time>2026-04-19T14:51:57Z</time></trkpt><trkpt lat="42.10412882272382" lon="13.810756557088963"><ele>376.0</ele><time>2026-04-19T14:51:58Z</time></trkpt><trkpt lat="42.10410942001477" lon="13.810924108401732"><ele>376.0</ele><time>2026-04-19T14:51:59Z</time></trkpt><trkpt lat="42.10409826059366" lon="13.811086549781917"><ele>376.0</ele><time>2026-04-19T14:52:00Z</time></trkpt><trkpt lat="42.10410530143219" lon="13.811245362347236"><ele>376.0</ele><time>2026-04-19T14:52:01Z</time></trkpt><trkpt lat="42.10409942220082" lon="13.811382698475521"><ele>376.0</ele><time>2026-04-19T14:52:02Z</time></trkpt><trkpt lat="42.10411321431504" lon="13.811525006797345"><ele>376.0</ele><time>2026-04-19T14:52:03Z</time></trkpt><trkpt lat="42.104157152201346" lon="13.811665335632082"><ele>376.0</ele><time>2026-04-19T14:52:04Z</time></trkpt><trkpt lat="42.10422336007226" lon="13.811802013646842"><ele>376.0</ele><time>2026-04-19T14:52:05Z</time></trkpt><trkpt lat="42.10429044281759" lon="13.811925427060585"><ele>377.16666666666663</ele><time>2026-04-19T14:52:06Z</time></trkpt><trkpt lat="42.104318477955474" lon="13.812036657841265"><ele>378.3333333333333</ele><time>2026-04-19T14:52:07Z</time></trkpt><trkpt lat="42.10435488822075" lon="13.8121586825296"><ele>379.5</ele><time>2026-04-19T14:52:08Z</time></trkpt><trkpt lat="42.1043777188449" lon="13.812279231345228"><ele>380.6666666666667</ele><time>2026-04-19T14:52:09Z</time></trkpt><trkpt lat="42.10440485925274" lon="13.812391421323284"><ele>381.83333333333337</ele><time>2026-04-19T14:52:10Z</time></trkpt><trkpt lat="42.10440023734677" lon="13.812505428471532"><ele>383.0</ele><time>2026-04-19T14:52:11Z</time></trkpt><trkpt lat="42.10438542861856" lon="13.812625353508874"><ele>383.0</ele><time>2026-04-19T14:52:12Z</time></trkpt><trkpt lat="42.104369934395514" lon="13.812760011467056"><ele>383.0</ele><time>2026-04-19T14:52:13Z</time></trkpt><trkpt lat="42.10435476149163" lon="13.812886890433534"><ele>383.0</ele><time>2026-04-19T14:52:14Z</time></trkpt><trkpt lat="42.10433710612949" lon="13.81300150641052"><ele>383.0</ele><time>2026-04-19T14:52:14.999Z</time></trkpt><trkpt lat="42.10432683097888" lon="13.813107542234702"><ele>383.0</ele><time>2026-04-19T14:52:15.999Z</time></trkpt><trkpt lat="42.10430747768634" lon="13.813193041814444"><ele>383.0</ele><time>2026-04-19T14:52:16.999Z</time></trkpt><trkpt lat="42.104239540550076" lon="13.813301621898438"><ele>383.0</ele><time>2026-04-19T14:52:18.999Z</time></trkpt><trkpt lat="42.10414738697545" lon="13.813291849297277"><ele>383.0</ele><time>2026-04-19T14:52:20.999Z</time></trkpt><trkpt lat="42.10402721672423" lon="13.813268269990091"><ele>383.0</ele><time>2026-04-19T14:52:22.999Z</time></trkpt><trkpt lat="42.10396353143442" lon="13.813253945251914"><ele>383.0</ele><time>2026-04-19T14:52:23.999Z</time></trkpt><trkpt lat="42.103900493135335" lon="13.813220879095198"><ele>383.0</ele><time>2026-04-19T14:52:24.999Z</time></trkpt><trkpt lat="42.10383206726275" lon="13.813221703930848"><ele>383.0</ele><time>2026-04-19T14:52:25.999Z</time></trkpt><trkpt lat="42.1037688176002" lon="13.813200532990814"><ele>384.1666666666667</ele><time>2026-04-19T14:52:26.999Z</time></trkpt><trkpt lat="42.103704191035035" lon="13.813169745725201"><ele>385.33333333333337</ele><time>2026-04-19T14:52:27.999Z</time></trkpt><trkpt lat="42.10364198868985" lon="13.8131364822975"><ele>386.5</ele><time>2026-04-19T14:52:28.999Z</time></trkpt><trkpt lat="42.10354188203238" lon="13.813093262276924"><ele>387.6666666666667</ele><time>2026-04-19T14:52:30.999Z</time></trkpt><trkpt lat="42.103423003112844" lon="13.813076692605492"><ele>388.8333333333333</ele><time>2026-04-19T14:52:32.999Z</time></trkpt><trkpt lat="42.103352956472136" lon="13.813088222953953"><ele>390.0</ele><time>2026-04-19T14:52:33.999Z</time></trkpt><trkpt lat="42.103279610223474" lon="13.813102510947735"><ele>390.1666666666667</ele><time>2026-04-19T14:52:34.999Z</time></trkpt><trkpt lat="42.10320489224132" lon="13.813122395959033"><ele>390.33333333333337</ele><time>2026-04-19T14:52:35.999Z</time></trkpt><trkpt lat="42.10313072306367" lon="13.813137433000247"><ele>390.5</ele><time>2026-04-19T14:52:36.999Z</time></trkpt><trkpt lat="42.10305821567156" lon="13.813155215283002"><ele>390.6666666666667</ele><time>2026-04-19T14:52:38Z</time></trkpt><trkpt lat="42.10298921272327" lon="13.813169889711405"><ele>390.83333333333337</ele><time>2026-04-19T14:52:39Z</time></trkpt><trkpt lat="42.10288546822846" lon="13.813199856798477"><ele>391.0</ele><time>2026-04-19T14:52:41Z</time></trkpt><trkpt lat="42.10281081543409" lon="13.813169733931456"><ele>391.0</ele><time>2026-04-19T14:52:45Z</time></trkpt><trkpt lat="42.1027916880437" lon="13.813005841885909"><ele>391.0</ele><time>2026-04-19T14:52:48Z</time></trkpt><trkpt lat="42.10278133644258" lon="13.812851416373743"><ele>391.0</ele><time>2026-04-19T14:52:50Z</time></trkpt><trkpt lat="42.10276300736683" lon="13.812759924961984"><ele>391.0</ele><time>2026-04-19T14:52:51Z</time></trkpt><trkpt lat="42.10275141134713" lon="13.812654824925371"><ele>391.0</ele><time>2026-04-19T14:52:52Z</time></trkpt><trkpt lat="42.102746049174534" lon="13.812540621989431"><ele>391.50000000000006</ele><time>2026-04-19T14:52:53Z</time></trkpt><trkpt lat="42.102739961605934" lon="13.812419988942143"><ele>392.0</ele><time>2026-04-19T14:52:54Z</time></trkpt><trkpt lat="42.10272482240906" lon="13.812303659951993"><ele>392.5</ele><time>2026-04-19T14:52:55Z</time></trkpt><trkpt lat="42.10271533757555" lon="13.812189305429994"><ele>393.0</ele><time>2026-04-19T14:52:56Z</time></trkpt><trkpt lat="42.10270662933311" lon="13.812083441555497"><ele>393.50000000000006</ele><time>2026-04-19T14:52:57Z</time></trkpt><trkpt lat="42.10270390714816" lon="13.811975682105048"><ele>394.0</ele><time>2026-04-19T14:52:58Z</time></trkpt><trkpt lat="42.102702483115536" lon="13.811862634699516"><ele>394.00000000000006</ele><time>2026-04-19T14:52:59Z</time></trkpt><trkpt lat="42.10270445487897" lon="13.811740263905419"><ele>394.0</ele><time>2026-04-19T14:53:00Z</time></trkpt><trkpt lat="42.10269761548338" lon="13.81162510590126"><ele>394.0</ele><time>2026-04-19T14:53:01Z</time></trkpt><trkpt lat="42.10268897756691" lon="13.811511535704863"><ele>394.0</ele><time>2026-04-19T14:53:02Z</time></trkpt><trkpt lat="42.10268390330027" lon="13.811395496521943"><ele>394.00000000000006</ele><time>2026-04-19T14:53:03Z</time></trkpt><trkpt lat="42.10267787880957" lon="13.811283262102258"><ele>394.0</ele><time>2026-04-19T14:53:04Z</time></trkpt><trkpt lat="42.10267586972793" lon="13.811179566579721"><ele>394.00000000000006</ele><time>2026-04-19T14:53:05Z</time></trkpt><trkpt lat="42.10267348096412" lon="13.811077651542504"><ele>394.0</ele><time>2026-04-19T14:53:06Z</time></trkpt><trkpt lat="42.102665247831126" lon="13.810976434297638"><ele>394.0</ele><time>2026-04-19T14:53:07Z</time></trkpt><trkpt lat="42.10265478526945" lon="13.810873494486602"><ele>394.0</ele><time>2026-04-19T14:53:08Z</time></trkpt><trkpt lat="42.10264107397752" lon="13.810764632222366"><ele>394.00000000000006</ele><time>2026-04-19T14:53:09Z</time></trkpt><trkpt lat="42.10262892873858" lon="13.81064655295227"><ele>394.0</ele><time>2026-04-19T14:53:10Z</time></trkpt><trkpt lat="42.10261743523997" lon="13.81052209763309"><ele>394.6</ele><time>2026-04-19T14:53:11Z</time></trkpt><trkpt lat="42.102599649776984" lon="13.810391326521154"><ele>395.2</ele><time>2026-04-19T14:53:12Z</time></trkpt><trkpt lat="42.10257108109034" lon="13.810261333271429"><ele>395.8</ele><time>2026-04-19T14:53:13Z</time></trkpt><trkpt lat="42.10254146879672" lon="13.81012256298166"><ele>396.40000000000003</ele><time>2026-04-19T14:53:14Z</time></trkpt><trkpt lat="42.10250695882283" lon="13.809982177261514"><ele>397.0</ele><time>2026-04-19T14:53:15Z</time></trkpt><trkpt lat="42.10246741667161" lon="13.809835039362692"><ele>397.20000000000005</ele><time>2026-04-19T14:53:16Z</time></trkpt><trkpt lat="42.10243061321313" lon="13.809690330736299"><ele>397.4</ele><time>2026-04-19T14:53:17Z</time></trkpt><trkpt lat="42.10239465382863" lon="13.809548325190441"><ele>397.6</ele><time>2026-04-19T14:53:18Z</time></trkpt><trkpt lat="42.10235608800592" lon="13.809407417792727"><ele>397.79999999999995</ele><time>2026-04-19T14:53:19Z</time></trkpt><trkpt lat="42.10232040535731" lon="13.80926268234079"><ele>398.0</ele><time>2026-04-19T14:53:20Z</time></trkpt><trkpt lat="42.10228236020323" lon="13.809118367957488"><ele>397.2</ele><time>2026-04-19T14:53:21Z</time></trkpt><trkpt lat="42.10224625344835" lon="13.808975326773922"><ele>396.4</ele><time>2026-04-19T14:53:22Z</time></trkpt><trkpt lat="42.10221334600162" lon="13.808833524054359"><ele>395.59999999999997</ele><time>2026-04-19T14:53:23Z</time></trkpt><trkpt lat="42.102177911898515" lon="13.80869518489354"><ele>394.79999999999995</ele><time>2026-04-19T14:53:24Z</time></trkpt><trkpt lat="42.10213714364543" lon="13.808558063312569"><ele>394.0</ele><time>2026-04-19T14:53:25Z</time></trkpt><trkpt lat="42.102085624000075" lon="13.808427570340196"><ele>394.0</ele><time>2026-04-19T14:53:26Z</time></trkpt><trkpt lat="42.10202316738773" lon="13.808305283989043"><ele>394.0</ele><time>2026-04-19T14:53:27Z</time></trkpt><trkpt lat="42.10194815391442" lon="13.808188790257041"><ele>394.0</ele><time>2026-04-19T14:53:28Z</time></trkpt><trkpt lat="42.10185822273228" lon="13.808090491968319"><ele>394.0</ele><time>2026-04-19T14:53:29Z</time></trkpt><trkpt lat="42.101753145123865" lon="13.808010003092907"><ele>394.0</ele><time>2026-04-19T14:53:30Z</time></trkpt><trkpt lat="42.101640116483" lon="13.807934329605873"><ele>394.0</ele><time>2026-04-19T14:53:31Z</time></trkpt><trkpt lat="42.10152471579144" lon="13.807862704886597"><ele>394.0</ele><time>2026-04-19T14:53:32Z</time></trkpt><trkpt lat="42.101408381158166" lon="13.807788352035981"><ele>394.0</ele><time>2026-04-19T14:53:33Z</time></trkpt><trkpt lat="42.101286361931066" lon="13.807712784241346"><ele>394.5</ele><time>2026-04-19T14:53:34Z</time></trkpt><trkpt lat="42.101159143042686" lon="13.80764071906752"><ele>395.0</ele><time>2026-04-19T14:53:35Z</time></trkpt><trkpt lat="42.10103654792356" lon="13.807560614717836"><ele>395.5</ele><time>2026-04-19T14:53:36Z</time></trkpt><trkpt lat="42.10091044585151" lon="13.80748053364697"><ele>396.0</ele><time>2026-04-19T14:53:37Z</time></trkpt><trkpt lat="42.10078313783747" lon="13.807400412425372"><ele>396.25</ele><time>2026-04-19T14:53:38Z</time></trkpt><trkpt lat="42.100654360230166" lon="13.807319225015988"><ele>396.5</ele><time>2026-04-19T14:53:39Z</time></trkpt><trkpt lat="42.1005241354758" lon="13.807240774894208"><ele>396.75</ele><time>2026-04-19T14:53:40Z</time></trkpt><trkpt lat="42.10039116984794" lon="13.807160035495864"><ele>397.0</ele><time>2026-04-19T14:53:41Z</time></trkpt><trkpt lat="42.1002582843065" lon="13.80707843787169"><ele>397.0</ele><time>2026-04-19T14:53:42Z</time></trkpt><trkpt lat="42.10012220944252" lon="13.80699733353805"><ele>397.0</ele><time>2026-04-19T14:53:43Z</time></trkpt><trkpt lat="42.099985777063836" lon="13.806919701097694"><ele>397.0</ele><time>2026-04-19T14:53:44Z</time></trkpt><trkpt lat="42.09984165351298" lon="13.80682876257283"><ele>398.33333333333337</ele><time>2026-04-19T14:53:45Z</time></trkpt><trkpt lat="42.09969477589604" lon="13.80673220382786"><ele>399.66666666666663</ele><time>2026-04-19T14:53:46Z</time></trkpt><trkpt lat="42.099542807821265" lon="13.806640457038354"><ele>401.0</ele><time>2026-04-19T14:53:47Z</time></trkpt><trkpt lat="42.09939486119931" lon="13.806550729337056"><ele>401.0</ele><time>2026-04-19T14:53:48Z</time></trkpt><trkpt lat="42.09925668429571" lon="13.806464676001037"><ele>401.0</ele><time>2026-04-19T14:53:49Z</time></trkpt><trkpt lat="42.09912680929947" lon="13.806379582367509"><ele>401.0</ele><time>2026-04-19T14:53:50Z</time></trkpt><trkpt lat="42.099007468928995" lon="13.806287544947631"><ele>401.0</ele><time>2026-04-19T14:53:51Z</time></trkpt><trkpt lat="42.09889844922286" lon="13.806171626841879"><ele>401.0</ele><time>2026-04-19T14:53:52Z</time></trkpt><trkpt lat="42.098798816341414" lon="13.806040000858516"><ele>401.0</ele><time>2026-04-19T14:53:53Z</time></trkpt><trkpt lat="42.09871343742363" lon="13.805894932286954"><ele>401.0</ele><time>2026-04-19T14:53:54Z</time></trkpt><trkpt lat="42.0986453560858" lon="13.805734885122158"><ele>401.0</ele><time>2026-04-19T14:53:55Z</time></trkpt><trkpt lat="42.098589097718374" lon="13.805560690588967"><ele>402.0</ele><time>2026-04-19T14:53:56Z</time></trkpt><trkpt lat="42.098551970014796" lon="13.805378262934632"><ele>403.0</ele><time>2026-04-19T14:53:57Z</time></trkpt><trkpt lat="42.09852834532603" lon="13.805191296206338"><ele>404.0</ele><time>2026-04-19T14:53:58Z</time></trkpt><trkpt lat="42.098523610227524" lon="13.805002297638087"><ele>405.0</ele><time>2026-04-19T14:53:59Z</time></trkpt><trkpt lat="42.09854111980468" lon="13.80481592979709"><ele>405.5</ele><time>2026-04-19T14:54:00Z</time></trkpt><trkpt lat="42.09856493705442" lon="13.804625302864894"><ele>406.0</ele><time>2026-04-19T14:54:01Z</time></trkpt><trkpt lat="42.09858936662212" lon="13.804426315993172"><ele>406.5</ele><time>2026-04-19T14:54:02Z</time></trkpt><trkpt lat="42.098610104559235" lon="13.804225471686074"><ele>407.0</ele><time>2026-04-19T14:54:03Z</time></trkpt><trkpt lat="42.09863058004096" lon="13.80402576435222"><ele>408.0</ele><time>2026-04-19T14:54:04Z</time></trkpt><trkpt lat="42.09865390992698" lon="13.803832887276746"><ele>409.0</ele><time>2026-04-19T14:54:04.999Z</time></trkpt><trkpt lat="42.09868390420408" lon="13.80364659284029"><ele>410.0</ele><time>2026-04-19T14:54:05.999Z</time></trkpt><trkpt lat="42.09872355479265" lon="13.803466055410428"><ele>411.0</ele><time>2026-04-19T14:54:06.999Z</time></trkpt><trkpt lat="42.09877686343525" lon="13.803291687763808"><ele>412.25</ele><time>2026-04-19T14:54:07.999Z</time></trkpt><trkpt lat="42.098842737615435" lon="13.803118417983226"><ele>413.5</ele><time>2026-04-19T14:54:08.999Z</time></trkpt><trkpt lat="42.09892149359025" lon="13.80295294155542"><ele>414.75</ele><time>2026-04-19T14:54:09.999Z</time></trkpt><trkpt lat="42.09900844884505" lon="13.80279719743988"><ele>416.0</ele><time>2026-04-19T14:54:10.999Z</time></trkpt><trkpt lat="42.09910026547621" lon="13.80264535517842"><ele>417.25</ele><time>2026-04-19T14:54:11.999Z</time></trkpt><trkpt lat="42.099192911804884" lon="13.802512837445576"><ele>418.5</ele><time>2026-04-19T14:54:12.999Z</time></trkpt><trkpt lat="42.09928476539318" lon="13.802398107462913"><ele>419.75</ele><time>2026-04-19T14:54:13.999Z</time></trkpt><trkpt lat="42.09938722532031" lon="13.80227829276345"><ele>421.0</ele><time>2026-04-19T14:54:14.999Z</time></trkpt><trkpt lat="42.09949801820858" lon="13.802152563948178"><ele>421.0</ele><time>2026-04-19T14:54:15.999Z</time></trkpt><trkpt lat="42.09962082547536" lon="13.802016443329004"><ele>421.0</ele><time>2026-04-19T14:54:16.999Z</time></trkpt><trkpt lat="42.09975391796276" lon="13.801869638112993"><ele>421.0</ele><time>2026-04-19T14:54:17.999Z</time></trkpt><trkpt lat="42.09988546794581" lon="13.801722119834833"><ele>423.0</ele><time>2026-04-19T14:54:18.999Z</time></trkpt><trkpt lat="42.10001287914281" lon="13.801569543758154"><ele>425.0</ele><time>2026-04-19T14:54:19.999Z</time></trkpt><trkpt lat="42.10014039227801" lon="13.80142132997246"><ele>427.0</ele><time>2026-04-19T14:54:20.999Z</time></trkpt><trkpt lat="42.10027140678457" lon="13.801327479931668"><ele>427.0</ele><time>2026-04-19T14:54:21.999Z</time></trkpt><trkpt lat="42.10040730551047" lon="13.80124432912178"><ele>427.0</ele><time>2026-04-19T14:54:22.999Z</time></trkpt><trkpt lat="42.10054699606705" lon="13.80115294730191"><ele>427.0</ele><time>2026-04-19T14:54:23.999Z</time></trkpt><trkpt lat="42.10070015965603" lon="13.801097403358275"><ele>426.0</ele><time>2026-04-19T14:54:24.999Z</time></trkpt><trkpt lat="42.100854518729136" lon="13.801055771073887"><ele>425.0</ele><time>2026-04-19T14:54:25.999Z</time></trkpt><trkpt lat="42.101010871882295" lon="13.801061002008524"><ele>424.0</ele><time>2026-04-19T14:54:26.999Z</time></trkpt><trkpt lat="42.10116302392361" lon="13.801048319883154"><ele>424.0</ele><time>2026-04-19T14:54:27.999Z</time></trkpt><trkpt lat="42.10131704740187" lon="13.801079635787515"><ele>424.0</ele><time>2026-04-19T14:54:28.999Z</time></trkpt><trkpt lat="42.10147647496156" lon="13.801124612917334"><ele>424.0</ele><time>2026-04-19T14:54:29.999Z</time></trkpt><trkpt lat="42.10163436023871" lon="13.80117208980442"><ele>424.33333333333337</ele><time>2026-04-19T14:54:30.999Z</time></trkpt><trkpt lat="42.10179370770944" lon="13.80122427515634"><ele>424.66666666666663</ele><time>2026-04-19T14:54:31.999Z</time></trkpt><trkpt lat="42.10195480006641" lon="13.801274431426503"><ele>425.0</ele><time>2026-04-19T14:54:32.999Z</time></trkpt><trkpt lat="42.10211654492235" lon="13.801325429458755"><ele>425.0</ele><time>2026-04-19T14:54:33.999Z</time></trkpt><trkpt lat="42.102278057229334" lon="13.801381078680857"><ele>425.0</ele><time>2026-04-19T14:54:34.999Z</time></trkpt><trkpt lat="42.102436065612295" lon="13.801444379068883"><ele>425.0</ele><time>2026-04-19T14:54:35.999Z</time></trkpt><trkpt lat="42.10258481550058" lon="13.801525542700286"><ele>423.66666666666663</ele><time>2026-04-19T14:54:36.999Z</time></trkpt><trkpt lat="42.10272747489707" lon="13.801618912082898"><ele>422.33333333333337</ele><time>2026-04-19T14:54:37.999Z</time></trkpt><trkpt lat="42.102861666362635" lon="13.80171788937327"><ele>421.0</ele><time>2026-04-19T14:54:38.999Z</time></trkpt><trkpt lat="42.10299012793475" lon="13.801841003172246"><ele>421.0</ele><time>2026-04-19T14:54:39.999Z</time></trkpt><trkpt lat="42.10312056008984" lon="13.801964653052044"><ele>421.0</ele><time>2026-04-19T14:54:40.999Z</time></trkpt><trkpt lat="42.10325094820662" lon="13.802093606559046"><ele>421.0</ele><time>2026-04-19T14:54:41.999Z</time></trkpt><trkpt lat="42.10338302605858" lon="13.802219194540202"><ele>427.33333333333337</ele><time>2026-04-19T14:54:42.999Z</time></trkpt><trkpt lat="42.10351975852217" lon="13.802353645992836"><ele>433.66666666666663</ele><time>2026-04-19T14:54:44Z</time></trkpt><trkpt lat="42.10365768010469" lon="13.802479099451872"><ele>440.0</ele><time>2026-04-19T14:54:45Z</time></trkpt><trkpt lat="42.103794449586125" lon="13.802608110580607"><ele>441.0</ele><time>2026-04-19T14:54:46Z</time></trkpt><trkpt lat="42.10393558508297" lon="13.802742113542203"><ele>442.0</ele><time>2026-04-19T14:54:47Z</time></trkpt><trkpt lat="42.10407860090901" lon="13.80287683295431"><ele>443.0</ele><time>2026-04-19T14:54:48Z</time></trkpt><trkpt lat="42.10422104356832" lon="13.803007122130827"><ele>443.0</ele><time>2026-04-19T14:54:49Z</time></trkpt><trkpt lat="42.104372655177286" lon="13.80313081952664"><ele>443.0</ele><time>2026-04-19T14:54:50Z</time></trkpt><trkpt lat="42.104520456341625" lon="13.803248798019318"><ele>443.0</ele><time>2026-04-19T14:54:51Z</time></trkpt><trkpt lat="42.104666695710634" lon="13.803372207215672"><ele>444.0</ele><time>2026-04-19T14:54:52Z</time></trkpt><trkpt lat="42.104812092959236" lon="13.803498943118129"><ele>445.0</ele><time>2026-04-19T14:54:53Z</time></trkpt><trkpt lat="42.104949543617" lon="13.803609693608264"><ele>446.0</ele><time>2026-04-19T14:54:54Z</time></trkpt><trkpt lat="42.10508549717361" lon="13.803717574667024"><ele>446.0</ele><time>2026-04-19T14:54:55Z</time></trkpt><trkpt lat="42.10521311320339" lon="13.803817164838534"><ele>446.0</ele><time>2026-04-19T14:54:56Z</time></trkpt><trkpt lat="42.10533535856305" lon="13.803916650763844"><ele>446.0</ele><time>2026-04-19T14:54:57Z</time></trkpt><trkpt lat="42.10546038387496" lon="13.803996975160956"><ele>446.0</ele><time>2026-04-19T14:54:58Z</time></trkpt><trkpt lat="42.10559619851004" lon="13.804044230231414"><ele>446.0</ele><time>2026-04-19T14:54:59Z</time></trkpt><trkpt lat="42.1057422807599" lon="13.804053421913004"><ele>446.0</ele><time>2026-04-19T14:55:00Z</time></trkpt><trkpt lat="42.105887664079674" lon="13.804040678927583"><ele>446.0</ele><time>2026-04-19T14:55:01Z</time></trkpt><trkpt lat="42.10602946676282" lon="13.803985733738946"><ele>446.0</ele><time>2026-04-19T14:55:02Z</time></trkpt><trkpt lat="42.106165387283184" lon="13.803917509704922"><ele>449.3333333333333</ele><time>2026-04-19T14:55:03Z</time></trkpt><trkpt lat="42.106283666729674" lon="13.803794373342159"><ele>452.66666666666663</ele><time>2026-04-19T14:55:04Z</time></trkpt><trkpt lat="42.10638669568529" lon="13.803647302199918"><ele>456.0</ele><time>2026-04-19T14:55:05Z</time></trkpt><trkpt lat="42.106465183795954" lon="13.80346710135363"><ele>460.0</ele><time>2026-04-19T14:55:06Z</time></trkpt><trkpt lat="42.106511467105776" lon="13.803274817882853"><ele>464.0</ele><time>2026-04-19T14:55:07Z</time></trkpt><trkpt lat="42.10653138639994" lon="13.803076382944754"><ele>468.0</ele><time>2026-04-19T14:55:08Z</time></trkpt><trkpt lat="42.10652173448939" lon="13.802875472069621"><ele>472.0</ele><time>2026-04-19T14:55:09Z</time></trkpt><trkpt lat="42.10647819272531" lon="13.802673916574381"><ele>473.0</ele><time>2026-04-19T14:55:10Z</time></trkpt><trkpt lat="42.10640804522247" lon="13.802471917724965"><ele>474.0</ele><time>2026-04-19T14:55:11Z</time></trkpt><trkpt lat="42.10631815449004" lon="13.802280512090357"><ele>475.0</ele><time>2026-04-19T14:55:12Z</time></trkpt><trkpt lat="42.10622434747642" lon="13.802084039854945"><ele>475.0</ele><time>2026-04-19T14:55:13Z</time></trkpt><trkpt lat="42.10615042626922" lon="13.801892666002647"><ele>475.0</ele><time>2026-04-19T14:55:14Z</time></trkpt><trkpt lat="42.106098281089174" lon="13.801708442216338"><ele>475.0</ele><time>2026-04-19T14:55:15Z</time></trkpt><trkpt lat="42.10606492993527" lon="13.801512453951604"><ele>476.6666666666667</ele><time>2026-04-19T14:55:16Z</time></trkpt><trkpt lat="42.1060744384365" lon="13.801303147944777"><ele>478.33333333333337</ele><time>2026-04-19T14:55:17Z</time></trkpt><trkpt lat="42.10605848037009" lon="13.801091890542857"><ele>480.0</ele><time>2026-04-19T14:55:18Z</time></trkpt><trkpt lat="42.10606822136468" lon="13.800872861814426"><ele>481.0</ele><time>2026-04-19T14:55:19Z</time></trkpt><trkpt lat="42.10606674177973" lon="13.800648136630429"><ele>482.0</ele><time>2026-04-19T14:55:20Z</time></trkpt><trkpt lat="42.10606373488648" lon="13.800421789002238"><ele>483.0</ele><time>2026-04-19T14:55:21Z</time></trkpt><trkpt lat="42.106066821659354" lon="13.800193456527635"><ele>485.33333333333337</ele><time>2026-04-19T14:55:22Z</time></trkpt><trkpt lat="42.106104073615754" lon="13.799971804288209"><ele>487.6666666666667</ele><time>2026-04-19T14:55:23Z</time></trkpt><trkpt lat="42.10612331747049" lon="13.799735794612305"><ele>490.0</ele><time>2026-04-19T14:55:24Z</time></trkpt><trkpt lat="42.10616217842368" lon="13.799506005114907"><ele>493.6666666666667</ele><time>2026-04-19T14:55:25Z</time></trkpt><trkpt lat="42.10620121708436" lon="13.799272092275363"><ele>497.33333333333337</ele><time>2026-04-19T14:55:26Z</time></trkpt><trkpt lat="42.10624276455637" lon="13.799035360747043"><ele>501.0</ele><time>2026-04-19T14:55:27Z</time></trkpt><trkpt lat="42.10629116867454" lon="13.798798326734245"><ele>501.0</ele><time>2026-04-19T14:55:28Z</time></trkpt><trkpt lat="42.10634688675957" lon="13.7985669966822"><ele>501.0</ele><time>2026-04-19T14:55:29Z</time></trkpt><trkpt lat="42.106398956942385" lon="13.798344463311384"><ele>501.0</ele><time>2026-04-19T14:55:30Z</time></trkpt><trkpt lat="42.10645297575561" lon="13.79812698607036"><ele>505.66666666666663</ele><time>2026-04-19T14:55:31Z</time></trkpt><trkpt lat="42.10650875364815" lon="13.797924346711953"><ele>510.3333333333333</ele><time>2026-04-19T14:55:32Z</time></trkpt><trkpt lat="42.106562506154674" lon="13.797718382546933"><ele>515.0</ele><time>2026-04-19T14:55:33Z</time></trkpt><trkpt lat="42.10661588909717" lon="13.79750912657479"><ele>505.3333333333333</ele><time>2026-04-19T14:55:34Z</time></trkpt><trkpt lat="42.10667105953542" lon="13.797301399450642"><ele>495.66666666666663</ele><time>2026-04-19T14:55:35Z</time></trkpt><trkpt lat="42.10673925474023" lon="13.797078216813427"><ele>486.0</ele><time>2026-04-19T14:55:36Z</time></trkpt><trkpt lat="42.10681740031164" lon="13.79685281462478"><ele>492.33333333333337</ele><time>2026-04-19T14:55:37Z</time></trkpt><trkpt lat="42.10689563498179" lon="13.796656370886916"><ele>498.6666666666667</ele><time>2026-04-19T14:55:38Z</time></trkpt><trkpt lat="42.10698118670906" lon="13.796490031316388"><ele>505.0</ele><time>2026-04-19T14:55:39Z</time></trkpt><trkpt lat="42.10707051832453" lon="13.796352425013257"><ele>505.0</ele><time>2026-04-19T14:55:40Z</time></trkpt><trkpt lat="42.10715276537263" lon="13.796226265744002"><ele>505.0</ele><time>2026-04-19T14:55:41Z</time></trkpt><trkpt lat="42.10721306544388" lon="13.796089998826911"><ele>505.0</ele><time>2026-04-19T14:55:42Z</time></trkpt><trkpt lat="42.10723849703937" lon="13.795915353129947"><ele>505.0</ele><time>2026-04-19T14:55:43Z</time></trkpt><trkpt lat="42.107229506206686" lon="13.795704724651781"><ele>510.0</ele><time>2026-04-19T14:55:44Z</time></trkpt><trkpt lat="42.107202863869" lon="13.795479591416727"><ele>515.0</ele><time>2026-04-19T14:55:45Z</time></trkpt><trkpt lat="42.10719647110024" lon="13.795263707324773"><ele>520.0</ele><time>2026-04-19T14:55:46Z</time></trkpt><trkpt lat="42.107195236568614" lon="13.79509373118124"><ele>522.6</ele><time>2026-04-19T14:55:47Z</time></trkpt><trkpt lat="42.10720378756509" lon="13.794953122802173"><ele>525.2</ele><time>2026-04-19T14:55:48Z</time></trkpt><trkpt lat="42.107235074552335" lon="13.794836411812833"><ele>527.8</ele><time>2026-04-19T14:55:49Z</time></trkpt><trkpt lat="42.10730793597676" lon="13.794748857391657"><ele>530.4</ele><time>2026-04-19T14:55:50Z</time></trkpt><trkpt lat="42.107391825737494" lon="13.794668639218445"><ele>533.0</ele><time>2026-04-19T14:55:51Z</time></trkpt><trkpt lat="42.10749030910084" lon="13.7946251962723"><ele>524.75</ele><time>2026-04-19T14:55:52Z</time></trkpt><trkpt lat="42.107599473982866" lon="13.79467997381068"><ele>516.5</ele><time>2026-04-19T14:55:53Z</time></trkpt><trkpt lat="42.107719643047666" lon="13.794756596941426"><ele>508.25</ele><time>2026-04-19T14:55:54Z</time></trkpt><trkpt lat="42.10786215750848" lon="13.794832811420832"><ele>500.0</ele><time>2026-04-19T14:55:55Z</time></trkpt><trkpt lat="42.10803010846105" lon="13.7949245807255"><ele>500.0</ele><time>2026-04-19T14:55:56Z</time></trkpt><trkpt lat="42.10819132123727" lon="13.79500159970852"><ele>500.0</ele><time>2026-04-19T14:55:56.999Z</time></trkpt><trkpt lat="42.10831922783121" lon="13.795057396201935"><ele>500.0</ele><time>2026-04-19T14:55:57.999Z</time></trkpt><trkpt lat="42.10842129829213" lon="13.795085552562563"><ele>500.0</ele><time>2026-04-19T14:55:58.999Z</time></trkpt><trkpt lat="42.10853435359359" lon="13.795084167181958"><ele>501.66666666666663</ele><time>2026-04-19T14:55:59.999Z</time></trkpt><trkpt lat="42.10867548044801" lon="13.795021490949697"><ele>503.33333333333337</ele><time>2026-04-19T14:56:00.999Z</time></trkpt><trkpt lat="42.108833324484834" lon="13.794927234739149"><ele>505.0</ele><time>2026-04-19T14:56:01.999Z</time></trkpt><trkpt lat="42.10901503474174" lon="13.794834975405188"><ele>502.33333333333337</ele><time>2026-04-19T14:56:02.999Z</time></trkpt><trkpt lat="42.10919675931371" lon="13.794749881345005"><ele>499.66666666666663</ele><time>2026-04-19T14:56:03.999Z</time></trkpt><trkpt lat="42.10936828458555" lon="13.794658128217549"><ele>497.0</ele><time>2026-04-19T14:56:04.999Z</time></trkpt><trkpt lat="42.10951856599697" lon="13.794552667722607"><ele>497.0</ele><time>2026-04-19T14:56:05.999Z</time></trkpt><trkpt lat="42.10965104152747" lon="13.7944497280384"><ele>497.0</ele><time>2026-04-19T14:56:06.999Z</time></trkpt><trkpt lat="42.1097645610271" lon="13.794362983173206"><ele>497.0</ele><time>2026-04-19T14:56:07.999Z</time></trkpt><trkpt lat="42.109860048212944" lon="13.794291327524677"><ele>497.0</ele><time>2026-04-19T14:56:08.999Z</time></trkpt><trkpt lat="42.109944786277204" lon="13.794192963422928"><ele>496.0</ele><time>2026-04-19T14:56:09.999Z</time></trkpt><trkpt lat="42.11001309380663" lon="13.794043242017214"><ele>495.0</ele><time>2026-04-19T14:56:10.999Z</time></trkpt><trkpt lat="42.11005534093371" lon="13.793852547965463"><ele>494.0</ele><time>2026-04-19T14:56:11.999Z</time></trkpt><trkpt lat="42.11008049427202" lon="13.793642015123648"><ele>493.0</ele><time>2026-04-19T14:56:12.999Z</time></trkpt><trkpt lat="42.11008517255727" lon="13.7934148236306"><ele>500.0</ele><time>2026-04-19T14:56:13.999Z</time></trkpt><trkpt lat="42.110069879693924" lon="13.793175249601584"><ele>507.0</ele><time>2026-04-19T14:56:14.999Z</time></trkpt><trkpt lat="42.110049087915705" lon="13.792930382811598"><ele>514.0</ele><time>2026-04-19T14:56:15.999Z</time></trkpt><trkpt lat="42.1100185892274" lon="13.792683552096856"><ele>514.3333333333334</ele><time>2026-04-19T14:56:16.999Z</time></trkpt><trkpt lat="42.11000787721503" lon="13.792448191150802"><ele>514.6666666666666</ele><time>2026-04-19T14:56:17.999Z</time></trkpt><trkpt lat="42.11001915589394" lon="13.792208281718608"><ele>515.0</ele><time>2026-04-19T14:56:18.999Z</time></trkpt><trkpt lat="42.11000053434091" lon="13.791989817402213"><ele>515.0</ele><time>2026-04-19T14:56:19.999Z</time></trkpt><trkpt lat="42.1099761388755" lon="13.791789561985862"><ele>515.0</ele><time>2026-04-19T14:56:20.999Z</time></trkpt><trkpt lat="42.109973666697236" lon="13.79156672737453"><ele>515.0</ele><time>2026-04-19T14:56:21.999Z</time></trkpt><trkpt lat="42.10993954959441" lon="13.791356232491728"><ele>531.3333333333333</ele><time>2026-04-19T14:56:22.999Z</time></trkpt><trkpt lat="42.109906292348974" lon="13.791145385311541"><ele>547.6666666666666</ele><time>2026-04-19T14:56:23.999Z</time></trkpt><trkpt lat="42.109901646599674" lon="13.790938642723779"><ele>564.0</ele><time>2026-04-19T14:56:24.999Z</time></trkpt><trkpt lat="42.10988305318983" lon="13.79073535307882"><ele>564.0</ele><time>2026-04-19T14:56:25.999Z</time></trkpt><trkpt lat="42.1098939430443" lon="13.790553202413582"><ele>564.0</ele><time>2026-04-19T14:56:26.999Z</time></trkpt><trkpt lat="42.10992848466068" lon="13.790459792395772"><ele>564.0</ele><time>2026-04-19T14:56:27.999Z</time></trkpt><trkpt lat="42.10999459909459" lon="13.790331653712126"><ele>564.0</ele><time>2026-04-19T14:56:28.999Z</time></trkpt><trkpt lat="42.11006581905278" lon="13.790215318064186"><ele>564.0</ele><time>2026-04-19T14:56:29.999Z</time></trkpt><trkpt lat="42.11014844255105" lon="13.790064160999522"><ele>555.0</ele><time>2026-04-19T14:56:30.999Z</time></trkpt><trkpt lat="42.11021681341192" lon="13.789920786641947"><ele>546.0</ele><time>2026-04-19T14:56:31.999Z</time></trkpt><trkpt lat="42.1102660537372" lon="13.789731659658809"><ele>537.0</ele><time>2026-04-19T14:56:32.999Z</time></trkpt><trkpt lat="42.110277828658674" lon="13.789583200104708"><ele>528.0</ele><time>2026-04-19T14:56:33.999Z</time></trkpt><trkpt lat="42.110302108329876" lon="13.789412620629156"><ele>532.1999999999999</ele><time>2026-04-19T14:56:34.999Z</time></trkpt><trkpt lat="42.110334630285315" lon="13.789292219605048"><ele>536.4</ele><time>2026-04-19T14:56:35.999Z</time></trkpt><trkpt lat="42.11040732105141" lon="13.78921912114705"><ele>540.5999999999999</ele><time>2026-04-19T14:56:36.999Z</time></trkpt><trkpt lat="42.110492904951975" lon="13.789153103505626"><ele>544.8</ele><time>2026-04-19T14:56:37.999Z</time></trkpt><trkpt lat="42.11059685149385" lon="13.789095354193282"><ele>549.0</ele><time>2026-04-19T14:56:38.999Z</time></trkpt><trkpt lat="42.1107106768345" lon="13.789058800624883"><ele>538.0</ele><time>2026-04-19T14:56:39.999Z</time></trkpt><trkpt lat="42.11081790477623" lon="13.789048961654142"><ele>527.0</ele><time>2026-04-19T14:56:40.999Z</time></trkpt><trkpt lat="42.11091969078751" lon="13.789021647688537"><ele>516.0</ele><time>2026-04-19T14:56:41.999Z</time></trkpt><trkpt lat="42.11101629630901" lon="13.788962075293979"><ele>505.0</ele><time>2026-04-19T14:56:42.999Z</time></trkpt><trkpt lat="42.11111803842376" lon="13.788891491562786"><ele>494.0</ele><time>2026-04-19T14:56:43.999Z</time></trkpt><trkpt lat="42.111216607332345" lon="13.788804343246015"><ele>494.0</ele><time>2026-04-19T14:56:44.999Z</time></trkpt><trkpt lat="42.11128350304966" lon="13.78868477870522"><ele>494.0</ele><time>2026-04-19T14:56:45.999Z</time></trkpt><trkpt lat="42.111328749031976" lon="13.788519943698523"><ele>494.0</ele><time>2026-04-19T14:56:46.999Z</time></trkpt><trkpt lat="42.11135961387381" lon="13.788319747698473"><ele>494.0</ele><time>2026-04-19T14:56:47.999Z</time></trkpt><trkpt lat="42.11139819926439" lon="13.788138469099428"><ele>501.0</ele><time>2026-04-19T14:56:48.999Z</time></trkpt><trkpt lat="42.111435369890316" lon="13.78797266347864"><ele>508.0</ele><time>2026-04-19T14:56:50Z</time></trkpt><trkpt lat="42.111443724165035" lon="13.787789320529077"><ele>515.0</ele><time>2026-04-19T14:56:51Z</time></trkpt><trkpt lat="42.11141881628237" lon="13.787607854649348"><ele>522.0</ele><time>2026-04-19T14:56:52Z</time></trkpt><trkpt lat="42.111387865248915" lon="13.787446343665138"><ele>524.0</ele><time>2026-04-19T14:56:53Z</time></trkpt><trkpt lat="42.11139171219318" lon="13.787294289866255"><ele>526.0</ele><time>2026-04-19T14:56:54Z</time></trkpt><trkpt lat="42.1114417039706" lon="13.787153910487387"><ele>528.0</ele><time>2026-04-19T14:56:55Z</time></trkpt><trkpt lat="42.1115201165193" lon="13.787043922914862"><ele>530.0</ele><time>2026-04-19T14:56:56Z</time></trkpt><trkpt lat="42.111641650114564" lon="13.786946519068458"><ele>520.0</ele><time>2026-04-19T14:56:57Z</time></trkpt><trkpt lat="42.11177758018358" lon="13.786849613310249"><ele>510.0</ele><time>2026-04-19T14:56:58Z</time></trkpt><trkpt lat="42.11189836346062" lon="13.786720883863723"><ele>500.0</ele><time>2026-04-19T14:56:59Z</time></trkpt><trkpt lat="42.11201213117451" lon="13.786559351804376"><ele>500.0</ele><time>2026-04-19T14:57:00Z</time></trkpt><trkpt lat="42.112104409014" lon="13.786381819480358"><ele>500.0</ele><time>2026-04-19T14:57:01Z</time></trkpt><trkpt lat="42.11217549746657" lon="13.786191024214165"><ele>500.0</ele><time>2026-04-19T14:57:02Z</time></trkpt><trkpt lat="42.112227414077395" lon="13.78597678981022"><ele>507.3333333333333</ele><time>2026-04-19T14:57:03Z</time></trkpt><trkpt lat="42.11226014922748" lon="13.785753786063623"><ele>514.6666666666666</ele><time>2026-04-19T14:57:04Z</time></trkpt><trkpt lat="42.11229059594329" lon="13.785546844653815"><ele>522.0</ele><time>2026-04-19T14:57:05Z</time></trkpt><trkpt lat="42.11233182817865" lon="13.785359000115541"><ele>522.0</ele><time>2026-04-19T14:57:06Z</time></trkpt><trkpt lat="42.11239567876462" lon="13.785184252537439"><ele>522.0</ele><time>2026-04-19T14:57:07Z</time></trkpt><trkpt lat="42.112498854318645" lon="13.78501670337957"><ele>522.0</ele><time>2026-04-19T14:57:08Z</time></trkpt><trkpt lat="42.11260656506796" lon="13.784845433544858"><ele>516.6666666666666</ele><time>2026-04-19T14:57:09Z</time></trkpt><trkpt lat="42.112696571338105" lon="13.784653805333482"><ele>511.3333333333333</ele><time>2026-04-19T14:57:10Z</time></trkpt><trkpt lat="42.11277205126611" lon="13.784428705500398"><ele>506.0</ele><time>2026-04-19T14:57:11Z</time></trkpt><trkpt lat="42.112830630621026" lon="13.784180551967252"><ele>506.0</ele><time>2026-04-19T14:57:12Z</time></trkpt><trkpt lat="42.11288999800022" lon="13.783954010014465"><ele>506.0</ele><time>2026-04-19T14:57:13Z</time></trkpt><trkpt lat="42.11295742486737" lon="13.783739392944412"><ele>506.0</ele><time>2026-04-19T14:57:13.999Z</time></trkpt><trkpt lat="42.113059664447476" lon="13.783531122002037"><ele>511.66666666666663</ele><time>2026-04-19T14:57:14.999Z</time></trkpt><trkpt lat="42.11317822274327" lon="13.783323895998512"><ele>517.3333333333334</ele><time>2026-04-19T14:57:15.999Z</time></trkpt><trkpt lat="42.113290679678656" lon="13.783118195770394"><ele>523.0</ele><time>2026-04-19T14:57:16.999Z</time></trkpt><trkpt lat="42.113388421578634" lon="13.78292310825839"><ele>518.0</ele><time>2026-04-19T14:57:17.999Z</time></trkpt><trkpt lat="42.113475788915984" lon="13.78275578005617"><ele>513.0</ele><time>2026-04-19T14:57:18.999Z</time></trkpt><trkpt lat="42.11356529316671" lon="13.782603256637584"><ele>508.0</ele><time>2026-04-19T14:57:19.999Z</time></trkpt><trkpt lat="42.113665459402846" lon="13.782472206068164"><ele>503.0</ele><time>2026-04-19T14:57:20.999Z</time></trkpt><trkpt lat="42.11378753515172" lon="13.782349299695435"><ele>503.0</ele><time>2026-04-19T14:57:21.999Z</time></trkpt><trkpt lat="42.11393302452363" lon="13.782238754040579"><ele>503.0</ele><time>2026-04-19T14:57:22.999Z</time></trkpt><trkpt lat="42.11407813796013" lon="13.78212660272268"><ele>503.0</ele><time>2026-04-19T14:57:23.999Z</time></trkpt><trkpt lat="42.1142151758605" lon="13.782006525392068"><ele>501.0</ele><time>2026-04-19T14:57:24.999Z</time></trkpt><trkpt lat="42.11433614415592" lon="13.781881118822193"><ele>499.0</ele><time>2026-04-19T14:57:25.999Z</time></trkpt><trkpt lat="42.114438727553186" lon="13.781761638619246"><ele>497.0</ele><time>2026-04-19T14:57:26.999Z</time></trkpt><trkpt lat="42.114539908943975" lon="13.781647229609941"><ele>495.0</ele><time>2026-04-19T14:57:27.999Z</time></trkpt><trkpt lat="42.114645412386594" lon="13.781519537242877"><ele>495.0</ele><time>2026-04-19T14:57:28.999Z</time></trkpt><trkpt lat="42.114742718574064" lon="13.78137276197454"><ele>495.0</ele><time>2026-04-19T14:57:29.999Z</time></trkpt><trkpt lat="42.114874679831736" lon="13.781158285266624"><ele>495.0</ele><time>2026-04-19T14:57:30.999Z</time></trkpt><trkpt lat="42.11499099237236" lon="13.780960781642923"><ele>489.0</ele><time>2026-04-19T14:57:31.999Z</time></trkpt><trkpt lat="42.1151039210113" lon="13.780757301730254"><ele>483.0</ele><time>2026-04-19T14:57:32.999Z</time></trkpt><trkpt lat="42.11522421348997" lon="13.780556357051438"><ele>477.0</ele><time>2026-04-19T14:57:33.999Z</time></trkpt><trkpt lat="42.11534338790748" lon="13.780345773174442"><ele>485.0</ele><time>2026-04-19T14:57:34.999Z</time></trkpt><trkpt lat="42.11544361275797" lon="13.780131652862552"><ele>493.0</ele><time>2026-04-19T14:57:35.999Z</time></trkpt><trkpt lat="42.1155298210518" lon="13.779922505282745"><ele>501.0</ele><time>2026-04-19T14:57:36.999Z</time></trkpt><trkpt lat="42.115619451325294" lon="13.779729744437564"><ele>501.0</ele><time>2026-04-19T14:57:37.999Z</time></trkpt><trkpt lat="42.11572247465258" lon="13.779549576070028"><ele>501.0</ele><time>2026-04-19T14:57:38.999Z</time></trkpt><trkpt lat="42.115849836346925" lon="13.779372763409812"><ele>501.0</ele><time>2026-04-19T14:57:39.999Z</time></trkpt><trkpt lat="42.11599150258851" lon="13.779201774209993"><ele>492.66666666666663</ele><time>2026-04-19T14:57:40.999Z</time></trkpt><trkpt lat="42.11613921737593" lon="13.779028048595588"><ele>484.3333333333333</ele><time>2026-04-19T14:57:41.999Z</time></trkpt><trkpt lat="42.116286875895085" lon="13.77884544936908"><ele>476.0</ele><time>2026-04-19T14:57:42.999Z</time></trkpt><trkpt lat="42.11643817164662" lon="13.778655934919824"><ele>472.0</ele><time>2026-04-19T14:57:43.999Z</time></trkpt><trkpt lat="42.1165955052521" lon="13.778463497492838"><ele>468.0</ele><time>2026-04-19T14:57:44.999Z</time></trkpt><trkpt lat="42.11675024757881" lon="13.778266525288254"><ele>464.0</ele><time>2026-04-19T14:57:45.999Z</time></trkpt><trkpt lat="42.11689758723203" lon="13.778072642386515"><ele>464.0</ele><time>2026-04-19T14:57:46.999Z</time></trkpt><trkpt lat="42.117034146173495" lon="13.777896230069064"><ele>464.0</ele><time>2026-04-19T14:57:47.999Z</time></trkpt><trkpt lat="42.11716249351186" lon="13.777747357972311"><ele>464.0</ele><time>2026-04-19T14:57:48.999Z</time></trkpt><trkpt lat="42.117281435392215" lon="13.777604846328527"><ele>461.66666666666663</ele><time>2026-04-19T14:57:49.999Z</time></trkpt><trkpt lat="42.11740106352667" lon="13.777477607262332"><ele>459.33333333333337</ele><time>2026-04-19T14:57:50.999Z</time></trkpt><trkpt lat="42.1175408170159" lon="13.777393461545694"><ele>457.0</ele><time>2026-04-19T14:57:51.999Z</time></trkpt><trkpt lat="42.11768195538646" lon="13.777295920232437"><ele>457.0</ele><time>2026-04-19T14:57:52.999Z</time></trkpt><trkpt lat="42.11784166442227" lon="13.777221892484285"><ele>457.0</ele><time>2026-04-19T14:57:53.999Z</time></trkpt><trkpt lat="42.11800721993385" lon="13.777144690454742"><ele>457.0</ele><time>2026-04-19T14:57:54.999Z</time></trkpt><trkpt lat="42.11817389125884" lon="13.777077310928805"><ele>452.6666666666667</ele><time>2026-04-19T14:57:55.999Z</time></trkpt><trkpt lat="42.11833423232491" lon="13.77704137760321"><ele>448.33333333333337</ele><time>2026-04-19T14:57:56.999Z</time></trkpt><trkpt lat="42.118492196997835" lon="13.776985916836239"><ele>444.0</ele><time>2026-04-19T14:57:57.999Z</time></trkpt><trkpt lat="42.11862931309726" lon="13.776926485310012"><ele>444.0</ele><time>2026-04-19T14:57:58.999Z</time></trkpt><trkpt lat="42.11877230453103" lon="13.776894758567527"><ele>444.0</ele><time>2026-04-19T14:57:59.999Z</time></trkpt><trkpt lat="42.118916491799965" lon="13.776884416140518"><ele>444.0</ele><time>2026-04-19T14:58:00.999Z</time></trkpt><trkpt lat="42.11905816017775" lon="13.776895003701581"><ele>444.0</ele><time>2026-04-19T14:58:01.999Z</time></trkpt><trkpt lat="42.11918275813431" lon="13.77690327869608"><ele>440.25</ele><time>2026-04-19T14:58:02.999Z</time></trkpt><trkpt lat="42.11930618522712" lon="13.776889672388645"><ele>436.5</ele><time>2026-04-19T14:58:03.999Z</time></trkpt><trkpt lat="42.11942057709553" lon="13.776833350297286"><ele>432.75</ele><time>2026-04-19T14:58:04.999Z</time></trkpt><trkpt lat="42.11952500307656" lon="13.77672976974426"><ele>429.0</ele><time>2026-04-19T14:58:05.999Z</time></trkpt><trkpt lat="42.11962247404954" lon="13.776575731159728"><ele>437.66666666666663</ele><time>2026-04-19T14:58:06.999Z</time></trkpt><trkpt lat="42.11970683076575" lon="13.776412722007057"><ele>446.3333333333333</ele><time>2026-04-19T14:58:07.999Z</time></trkpt><trkpt lat="42.11983454330553" lon="13.776209423776804"><ele>455.0</ele><time>2026-04-19T14:58:08.999Z</time></trkpt><trkpt lat="42.11997058782215" lon="13.776009571455802"><ele>455.0</ele><time>2026-04-19T14:58:09.999Z</time></trkpt><trkpt lat="42.120119391032894" lon="13.775809248031647"><ele>455.0</ele><time>2026-04-19T14:58:10.999Z</time></trkpt><trkpt lat="42.120263331369195" lon="13.775618467621813"><ele>455.0</ele><time>2026-04-19T14:58:11.999Z</time></trkpt><trkpt lat="42.120399747614755" lon="13.775445268850023"><ele>455.0</ele><time>2026-04-19T14:58:12.999Z</time></trkpt><trkpt lat="42.12052882079083" lon="13.775283367325017"><ele>455.0</ele><time>2026-04-19T14:58:13.999Z</time></trkpt><trkpt lat="42.1206510938259" lon="13.775125565735241"><ele>455.0</ele><time>2026-04-19T14:58:14.999Z</time></trkpt><trkpt lat="42.12076906265518" lon="13.774976241222408"><ele>452.0</ele><time>2026-04-19T14:58:15.999Z</time></trkpt><trkpt lat="42.12088437728367" lon="13.774841019637801"><ele>449.0</ele><time>2026-04-19T14:58:16.999Z</time></trkpt><trkpt lat="42.1210112983201" lon="13.774719560249588"><ele>446.0</ele><time>2026-04-19T14:58:17.999Z</time></trkpt><trkpt lat="42.1211513517993" lon="13.774611144885485"><ele>446.0</ele><time>2026-04-19T14:58:18.999Z</time></trkpt><trkpt lat="42.12130229401619" lon="13.77452134934224"><ele>446.0</ele><time>2026-04-19T14:58:19.999Z</time></trkpt><trkpt lat="42.121463244210254" lon="13.774462765969156"><ele>446.0</ele><time>2026-04-19T14:58:20.999Z</time></trkpt><trkpt lat="42.121632298242176" lon="13.774407665345922"><ele>449.0</ele><time>2026-04-19T14:58:21.999Z</time></trkpt><trkpt lat="42.12179796199139" lon="13.774354667617507"><ele>452.0</ele><time>2026-04-19T14:58:22.999Z</time></trkpt><trkpt lat="42.12194336463692" lon="13.774291903501245"><ele>455.0</ele><time>2026-04-19T14:58:23.999Z</time></trkpt><trkpt lat="42.12207793931388" lon="13.774249836582387"><ele>455.0</ele><time>2026-04-19T14:58:24.999Z</time></trkpt><trkpt lat="42.12220299285609" lon="13.774238247044682"><ele>455.0</ele><time>2026-04-19T14:58:25.999Z</time></trkpt><trkpt lat="42.12230760395614" lon="13.774247073315916"><ele>455.0</ele><time>2026-04-19T14:58:26.999Z</time></trkpt><trkpt lat="42.122421324159234" lon="13.774293097671245"><ele>455.0</ele><time>2026-04-19T14:58:27.999Z</time></trkpt><trkpt lat="42.12255446384246" lon="13.774357071086474"><ele>439.3333333333333</ele><time>2026-04-19T14:58:28.999Z</time></trkpt><trkpt lat="42.12270002092406" lon="13.774422695796698"><ele>423.66666666666663</ele><time>2026-04-19T14:58:29.999Z</time></trkpt><trkpt lat="42.122859552763465" lon="13.774466297936423"><ele>408.0</ele><time>2026-04-19T14:58:30.999Z</time></trkpt><trkpt lat="42.12302139850967" lon="13.774532159658117"><ele>408.0</ele><time>2026-04-19T14:58:31.999Z</time></trkpt><trkpt lat="42.12317300363584" lon="13.77458076732834"><ele>408.0</ele><time>2026-04-19T14:58:32.999Z</time></trkpt><trkpt lat="42.123299694007294" lon="13.774637485459182"><ele>408.0</ele><time>2026-04-19T14:58:33.999Z</time></trkpt><trkpt lat="42.12340981545412" lon="13.7746542989987"><ele>408.0</ele><time>2026-04-19T14:58:34.999Z</time></trkpt><trkpt lat="42.12352234360385" lon="13.774619052778595"><ele>410.0</ele><time>2026-04-19T14:58:35.999Z</time></trkpt><trkpt lat="42.12365385193366" lon="13.774531137959269"><ele>412.0</ele><time>2026-04-19T14:58:36.999Z</time></trkpt><trkpt lat="42.12379752653618" lon="13.774423161751015"><ele>414.0</ele><time>2026-04-19T14:58:37.999Z</time></trkpt><trkpt lat="42.12394705663091" lon="13.774363259801468"><ele>413.0</ele><time>2026-04-19T14:58:38.999Z</time></trkpt><trkpt lat="42.12407259689516" lon="13.774405099796013"><ele>412.0</ele><time>2026-04-19T14:58:39.999Z</time></trkpt><trkpt lat="42.12419745181874" lon="13.774467979785863"><ele>411.0</ele><time>2026-04-19T14:58:40.999Z</time></trkpt><trkpt lat="42.12434096788214" lon="13.774490080794376"><ele>410.0</ele><time>2026-04-19T14:58:41.999Z</time></trkpt><trkpt lat="42.12448156710164" lon="13.774485045238352"><ele>410.0</ele><time>2026-04-19T14:58:42.999Z</time></trkpt><trkpt lat="42.12463677771426" lon="13.77439733918753"><ele>410.0</ele><time>2026-04-19T14:58:43.999Z</time></trkpt><trkpt lat="42.124787624985586" lon="13.774271293423835"><ele>410.0</ele><time>2026-04-19T14:58:44.999Z</time></trkpt><trkpt lat="42.12492601178105" lon="13.77417673786865"><ele>411.3333333333333</ele><time>2026-04-19T14:58:45.999Z</time></trkpt><trkpt lat="42.12505002035854" lon="13.774084247701525"><ele>412.66666666666663</ele><time>2026-04-19T14:58:46.999Z</time></trkpt><trkpt lat="42.125168816161036" lon="13.77394844131083"><ele>414.0</ele><time>2026-04-19T14:58:47.999Z</time></trkpt><trkpt lat="42.125272026819516" lon="13.773741578912848"><ele>424.0</ele><time>2026-04-19T14:58:48.999Z</time></trkpt><trkpt lat="42.12535440824659" lon="13.773506207882356"><ele>434.0</ele><time>2026-04-19T14:58:49.999Z</time></trkpt><trkpt lat="42.125423897475436" lon="13.773297816382673"><ele>444.0</ele><time>2026-04-19T14:58:50.999Z</time></trkpt><trkpt lat="42.125486997749874" lon="13.773088623354525"><ele>444.0</ele><time>2026-04-19T14:58:51.999Z</time></trkpt><trkpt lat="42.12552486979963" lon="13.772865284820533"><ele>444.0</ele><time>2026-04-19T14:58:52.999Z</time></trkpt><trkpt lat="42.12553446448753" lon="13.772628102344507"><ele>444.0</ele><time>2026-04-19T14:58:53.999Z</time></trkpt><trkpt lat="42.125537451023234" lon="13.77241019870345"><ele>448.25</ele><time>2026-04-19T14:58:54.999Z</time></trkpt><trkpt lat="42.12558134822192" lon="13.772221595277614"><ele>452.5</ele><time>2026-04-19T14:58:55.999Z</time></trkpt><trkpt lat="42.12564140457203" lon="13.772048602088299"><ele>456.75</ele><time>2026-04-19T14:58:56.999Z</time></trkpt><trkpt lat="42.125690521872905" lon="13.771880839060278"><ele>461.0</ele><time>2026-04-19T14:58:57.999Z</time></trkpt><trkpt lat="42.12578719153" lon="13.771740888915573"><ele>448.66666666666663</ele><time>2026-04-19T14:58:58.999Z</time></trkpt><trkpt lat="42.125904100453845" lon="13.771578675626186"><ele>436.33333333333337</ele><time>2026-04-19T14:58:59.999Z</time></trkpt><trkpt lat="42.12604114756711" lon="13.771391364022836"><ele>424.0</ele><time>2026-04-19T14:59:00.999Z</time></trkpt><trkpt lat="42.12619075408668" lon="13.771175393232104"><ele>416.0</ele><time>2026-04-19T14:59:02Z</time></trkpt><trkpt lat="42.12638630817412" lon="13.770917598081517"><ele>408.0</ele><time>2026-04-19T14:59:03Z</time></trkpt><trkpt lat="42.126568814683985" lon="13.77066932607137"><ele>408.0</ele><time>2026-04-19T14:59:04Z</time></trkpt><trkpt lat="42.12673226963674" lon="13.770451179146187"><ele>408.0</ele><time>2026-04-19T14:59:05Z</time></trkpt><trkpt lat="42.12689372661824" lon="13.770248807042421"><ele>411.0</ele><time>2026-04-19T14:59:06Z</time></trkpt><trkpt lat="42.127052253515394" lon="13.770049139928977"><ele>414.0</ele><time>2026-04-19T14:59:07Z</time></trkpt><trkpt lat="42.12720967802508" lon="13.76983056249007"><ele>417.0</ele><time>2026-04-19T14:59:08Z</time></trkpt><trkpt lat="42.12735753246718" lon="13.769581396251453"><ele>415.66666666666663</ele><time>2026-04-19T14:59:09Z</time></trkpt><trkpt lat="42.1274805490366" lon="13.769330465339197"><ele>414.3333333333333</ele><time>2026-04-19T14:59:10Z</time></trkpt><trkpt lat="42.12760154921189" lon="13.769116512474124"><ele>413.0</ele><time>2026-04-19T14:59:11Z</time></trkpt><trkpt lat="42.1277114022125" lon="13.768919058190766"><ele>413.0</ele><time>2026-04-19T14:59:12Z</time></trkpt><trkpt lat="42.12780641612698" lon="13.768743866718252"><ele>413.0</ele><time>2026-04-19T14:59:13Z</time></trkpt><trkpt lat="42.1278856009023" lon="13.768585165724991"><ele>413.0</ele><time>2026-04-19T14:59:14Z</time></trkpt><trkpt lat="42.127945297285365" lon="13.768423897154031"><ele>413.0</ele><time>2026-04-19T14:59:15Z</time></trkpt><trkpt lat="42.12797097767881" lon="13.768239999981352"><ele>415.0</ele><time>2026-04-19T14:59:16Z</time></trkpt><trkpt lat="42.12798545534231" lon="13.768100736480756"><ele>417.0</ele><time>2026-04-19T14:59:17Z</time></trkpt><trkpt lat="42.12805270371572" lon="13.767965707298886"><ele>419.0</ele><time>2026-04-19T14:59:18Z</time></trkpt><trkpt lat="42.12816940860894" lon="13.76776491258504"><ele>421.0</ele><time>2026-04-19T14:59:19Z</time></trkpt><trkpt lat="42.12828163155649" lon="13.767558633978753"><ele>421.0</ele><time>2026-04-19T14:59:20Z</time></trkpt><trkpt lat="42.12839605905593" lon="13.767327695975649"><ele>421.0</ele><time>2026-04-19T14:59:21Z</time></trkpt><trkpt lat="42.12851060703371" lon="13.767091143022117"><ele>421.0</ele><time>2026-04-19T14:59:22Z</time></trkpt><trkpt lat="42.128597202418995" lon="13.766847509907475"><ele>427.0</ele><time>2026-04-19T14:59:23Z</time></trkpt><trkpt lat="42.12866448551862" lon="13.766619558681674"><ele>433.0</ele><time>2026-04-19T14:59:24Z</time></trkpt><trkpt lat="42.128722939433224" lon="13.76640807462181"><ele>439.0</ele><time>2026-04-19T14:59:25Z</time></trkpt><trkpt lat="42.128762414775366" lon="13.766196667340164"><ele>450.6666666666667</ele><time>2026-04-19T14:59:26Z</time></trkpt><trkpt lat="42.12880718877463" lon="13.765986369075565"><ele>462.33333333333337</ele><time>2026-04-19T14:59:27Z</time></trkpt><trkpt lat="42.128893647254216" lon="13.765800581851733"><ele>474.0</ele><time>2026-04-19T14:59:28Z</time></trkpt><trkpt lat="42.12896974050275" lon="13.765596795451778"><ele>461.66666666666663</ele><time>2026-04-19T14:59:29Z</time></trkpt><trkpt lat="42.12907506442618" lon="13.76541738218924"><ele>449.3333333333333</ele><time>2026-04-19T14:59:30Z</time></trkpt><trkpt lat="42.12917464632902" lon="13.765177362429302"><ele>437.0</ele><time>2026-04-19T14:59:31Z</time></trkpt><trkpt lat="42.129286847191175" lon="13.764960697071867"><ele>437.0</ele><time>2026-04-19T14:59:32Z</time></trkpt><trkpt lat="42.12937925679066" lon="13.764748249891861"><ele>437.0</ele><time>2026-04-19T14:59:33Z</time></trkpt><trkpt lat="42.12947399124693" lon="13.764549739429276"><ele>437.0</ele><time>2026-04-19T14:59:34Z</time></trkpt><trkpt lat="42.12955506878682" lon="13.7643683669808"><ele>434.0</ele><time>2026-04-19T14:59:35Z</time></trkpt><trkpt lat="42.12962162907681" lon="13.764209119281402"><ele>431.00000000000006</ele><time>2026-04-19T14:59:36Z</time></trkpt><trkpt lat="42.129673463799115" lon="13.764075472443448"><ele>428.0</ele><time>2026-04-19T14:59:37Z</time></trkpt><trkpt lat="42.12972926022251" lon="13.76396756690949"><ele>425.0</ele><time>2026-04-19T14:59:38Z</time></trkpt><trkpt lat="42.129797385308336" lon="13.763874664738852"><ele>422.0</ele><time>2026-04-19T14:59:39Z</time></trkpt><trkpt lat="42.12989258044584" lon="13.76381605385879"><ele>422.0</ele><time>2026-04-19T14:59:40Z</time></trkpt><trkpt lat="42.130002572408706" lon="13.763808616796902"><ele>422.0</ele><time>2026-04-19T14:59:41Z</time></trkpt><trkpt lat="42.13012606130785" lon="13.763846682916373"><ele>422.0</ele><time>2026-04-19T14:59:42Z</time></trkpt><trkpt lat="42.13025249425159" lon="13.763873017959646"><ele>422.0</ele><time>2026-04-19T14:59:43Z</time></trkpt><trkpt lat="42.13037736323137" lon="13.763834512330611"><ele>422.0</ele><time>2026-04-19T14:59:44Z</time></trkpt><trkpt lat="42.13050172937529" lon="13.763737852344807"><ele>422.0</ele><time>2026-04-19T14:59:45Z</time></trkpt><trkpt lat="42.13059390321401" lon="13.763571659981713"><ele>422.0</ele><time>2026-04-19T14:59:46Z</time></trkpt><trkpt lat="42.13064477982353" lon="13.763371607993125"><ele>426.3333333333333</ele><time>2026-04-19T14:59:47Z</time></trkpt><trkpt lat="42.13071985045894" lon="13.763179254221384"><ele>430.66666666666663</ele><time>2026-04-19T14:59:48Z</time></trkpt><trkpt lat="42.130822473600695" lon="13.762968294350665"><ele>435.0</ele><time>2026-04-19T14:59:49Z</time></trkpt><trkpt lat="42.13095087025429" lon="13.762764983349854"><ele>432.33333333333337</ele><time>2026-04-19T14:59:50Z</time></trkpt><trkpt lat="42.13109205212281" lon="13.762551995407827"><ele>429.6666666666667</ele><time>2026-04-19T14:59:51Z</time></trkpt><trkpt lat="42.13123607297779" lon="13.762323560752016"><ele>427.0</ele><time>2026-04-19T14:59:52Z</time></trkpt><trkpt lat="42.1313659544697" lon="13.762122751328821"><ele>427.0</ele><time>2026-04-19T14:59:53Z</time></trkpt><trkpt lat="42.131485498731465" lon="13.7619434338269"><ele>427.0</ele><time>2026-04-19T14:59:54Z</time></trkpt><trkpt lat="42.13159388450074" lon="13.761779434708076"><ele>427.0</ele><time>2026-04-19T14:59:55Z</time></trkpt><trkpt lat="42.1316980126497" lon="13.761617940223028"><ele>429.6666666666667</ele><time>2026-04-19T14:59:56Z</time></trkpt><trkpt lat="42.13179132321238" lon="13.761450405066624"><ele>432.33333333333337</ele><time>2026-04-19T14:59:57Z</time></trkpt><trkpt lat="42.13186780749512" lon="13.761269163157062"><ele>435.0</ele><time>2026-04-19T14:59:58Z</time></trkpt><trkpt lat="42.13194035817897" lon="13.761065177694423"><ele>434.0</ele><time>2026-04-19T14:59:59Z</time></trkpt><trkpt lat="42.13200779150462" lon="13.760862186555043"><ele>433.0</ele><time>2026-04-19T15:00:00Z</time></trkpt><trkpt lat="42.132078454337055" lon="13.760663314043413"><ele>432.0</ele><time>2026-04-19T15:00:01Z</time></trkpt><trkpt lat="42.13215594029707" lon="13.76047504962362"><ele>432.0</ele><time>2026-04-19T15:00:02Z</time></trkpt><trkpt lat="42.13223395842596" lon="13.760287194816545"><ele>432.0</ele><time>2026-04-19T15:00:03Z</time></trkpt><trkpt lat="42.13231011989884" lon="13.76009975481775"><ele>432.0</ele><time>2026-04-19T15:00:04Z</time></trkpt><trkpt lat="42.132378486682185" lon="13.759946668465927"><ele>433.40000000000003</ele><time>2026-04-19T15:00:05Z</time></trkpt><trkpt lat="42.13243017158154" lon="13.759832452190023"><ele>434.80000000000007</ele><time>2026-04-19T15:00:06Z</time></trkpt><trkpt lat="42.132485779998895" lon="13.759753388626255"><ele>436.2</ele><time>2026-04-19T15:00:07Z</time></trkpt><trkpt lat="42.132567709461625" lon="13.759702112018594"><ele>437.6</ele><time>2026-04-19T15:00:08Z</time></trkpt><trkpt lat="42.13266197577128" lon="13.759647849831353"><ele>439.0</ele><time>2026-04-19T15:00:09Z</time></trkpt><trkpt lat="42.13276845143137" lon="13.759557374258687"><ele>439.0</ele><time>2026-04-19T15:00:10Z</time></trkpt><trkpt lat="42.13287629771762" lon="13.759431080762734"><ele>439.0</ele><time>2026-04-19T15:00:11Z</time></trkpt><trkpt lat="42.13298928010206" lon="13.75928556004427"><ele>439.0</ele><time>2026-04-19T15:00:11.999Z</time></trkpt><trkpt lat="42.13311567193903" lon="13.759133046271629"><ele>441.6666666666667</ele><time>2026-04-19T15:00:12.999Z</time></trkpt><trkpt lat="42.133240307346824" lon="13.758978078442302"><ele>444.33333333333337</ele><time>2026-04-19T15:00:13.999Z</time></trkpt><trkpt lat="42.133354724406416" lon="13.758834213278318"><ele>447.0</ele><time>2026-04-19T15:00:14.999Z</time></trkpt><trkpt lat="42.133451418178815" lon="13.758688929910127"><ele>443.33333333333337</ele><time>2026-04-19T15:00:15.999Z</time></trkpt><trkpt lat="42.133533914832796" lon="13.758516122000287"><ele>439.6666666666667</ele><time>2026-04-19T15:00:16.999Z</time></trkpt><trkpt lat="42.13359181100316" lon="13.758322125453951"><ele>436.0</ele><time>2026-04-19T15:00:17.999Z</time></trkpt><trkpt lat="42.13362216778376" lon="13.758112938369257"><ele>436.0</ele><time>2026-04-19T15:00:18.999Z</time></trkpt><trkpt lat="42.133636883653075" lon="13.757891499850151"><ele>436.0</ele><time>2026-04-19T15:00:19.999Z</time></trkpt><trkpt lat="42.13365574744065" lon="13.757660184020732"><ele>436.0</ele><time>2026-04-19T15:00:20.999Z</time></trkpt><trkpt lat="42.13367927257047" lon="13.757428291138233"><ele>435.33333333333337</ele><time>2026-04-19T15:00:21.999Z</time></trkpt><trkpt lat="42.133700614043846" lon="13.757193500919128"><ele>434.66666666666663</ele><time>2026-04-19T15:00:22.999Z</time></trkpt><trkpt lat="42.133720210287336" lon="13.756957392576114"><ele>434.0</ele><time>2026-04-19T15:00:23.999Z</time></trkpt><trkpt lat="42.133737617327085" lon="13.75673656379883"><ele>433.75</ele><time>2026-04-19T15:00:24.999Z</time></trkpt><trkpt lat="42.13375230170146" lon="13.756536054111134"><ele>433.5</ele><time>2026-04-19T15:00:25.999Z</time></trkpt><trkpt lat="42.133767485531244" lon="13.756353552749031"><ele>433.25</ele><time>2026-04-19T15:00:26.999Z</time></trkpt><trkpt lat="42.13378743700389" lon="13.756169452170512"><ele>433.0</ele><time>2026-04-19T15:00:27.999Z</time></trkpt><trkpt lat="42.13382033394856" lon="13.755989303629233"><ele>433.0</ele><time>2026-04-19T15:00:28.999Z</time></trkpt><trkpt lat="42.13386643817364" lon="13.75581657300563"><ele>433.0</ele><time>2026-04-19T15:00:29.999Z</time></trkpt><trkpt lat="42.13393863885668" lon="13.755658935859039"><ele>433.0</ele><time>2026-04-19T15:00:30.999Z</time></trkpt><trkpt lat="42.1340401225804" lon="13.755517853712345"><ele>433.0</ele><time>2026-04-19T15:00:31.999Z</time></trkpt><trkpt lat="42.1341575151156" lon="13.755391848223542"><ele>433.33333333333337</ele><time>2026-04-19T15:00:32.999Z</time></trkpt><trkpt lat="42.13429071600157" lon="13.755276305423305"><ele>433.66666666666663</ele><time>2026-04-19T15:00:33.999Z</time></trkpt><trkpt lat="42.13443846027155" lon="13.755171292055634"><ele>434.0</ele><time>2026-04-19T15:00:34.999Z</time></trkpt><trkpt lat="42.134594940509565" lon="13.755069550767574"><ele>434.0</ele><time>2026-04-19T15:00:35.999Z</time></trkpt><trkpt lat="42.13475720953222" lon="13.754955987441432"><ele>434.0</ele><time>2026-04-19T15:00:36.999Z</time></trkpt><trkpt lat="42.134918398667125" lon="13.75483603577908"><ele>434.0</ele><time>2026-04-19T15:00:37.999Z</time></trkpt><trkpt lat="42.13508574394811" lon="13.754715031647107"><ele>436.3333333333333</ele><time>2026-04-19T15:00:38.999Z</time></trkpt><trkpt lat="42.135256210516275" lon="13.75459653802224"><ele>438.66666666666663</ele><time>2026-04-19T15:00:39.999Z</time></trkpt><trkpt lat="42.13542564649223" lon="13.754481059020637"><ele>441.0</ele><time>2026-04-19T15:00:40.999Z</time></trkpt><trkpt lat="42.13558994166943" lon="13.754364568320323"><ele>442.0</ele><time>2026-04-19T15:00:41.999Z</time></trkpt><trkpt lat="42.1357429512704" lon="13.754254091667597"><ele>443.0</ele><time>2026-04-19T15:00:42.999Z</time></trkpt><trkpt lat="42.135885869376054" lon="13.754149008871224"><ele>444.0</ele><time>2026-04-19T15:00:43.999Z</time></trkpt><trkpt lat="42.13601945795917" lon="13.754061550078232"><ele>444.0</ele><time>2026-04-19T15:00:44.999Z</time></trkpt><trkpt lat="42.136148559726905" lon="13.753967980885"><ele>444.0</ele><time>2026-04-19T15:00:45.999Z</time></trkpt><trkpt lat="42.13627548342528" lon="13.75387746307584"><ele>444.0</ele><time>2026-04-19T15:00:46.999Z</time></trkpt><trkpt lat="42.13640321703268" lon="13.753783568622655"><ele>444.0</ele><time>2026-04-19T15:00:47.999Z</time></trkpt><trkpt lat="42.13653274191906" lon="13.75369365747258"><ele>443.25</ele><time>2026-04-19T15:00:48.999Z</time></trkpt><trkpt lat="42.136666843902034" lon="13.753616376150623"><ele>442.5</ele><time>2026-04-19T15:00:49.999Z</time></trkpt><trkpt lat="42.13681076366975" lon="13.753567385143665"><ele>441.75</ele><time>2026-04-19T15:00:50.999Z</time></trkpt><trkpt lat="42.13695594102054" lon="13.753529836916876"><ele>441.0</ele><time>2026-04-19T15:00:51.999Z</time></trkpt><trkpt lat="42.13709324360976" lon="13.753456683569665"><ele>441.0</ele><time>2026-04-19T15:00:52.999Z</time></trkpt><trkpt lat="42.137225902126474" lon="13.753351341005809"><ele>441.0</ele><time>2026-04-19T15:00:53.999Z</time></trkpt><trkpt lat="42.137331517629676" lon="13.753194454924069"><ele>441.0</ele><time>2026-04-19T15:00:54.999Z</time></trkpt><trkpt lat="42.13742860414171" lon="13.753011225862227"><ele>441.33333333333337</ele><time>2026-04-19T15:00:55.999Z</time></trkpt><trkpt lat="42.13753106929166" lon="13.752811194622753"><ele>441.6666666666667</ele><time>2026-04-19T15:00:56.999Z</time></trkpt><trkpt lat="42.137650488968006" lon="13.752613924682159"><ele>442.0</ele><time>2026-04-19T15:00:57.999Z</time></trkpt><trkpt lat="42.13777686380149" lon="13.75241940761757"><ele>442.0</ele><time>2026-04-19T15:00:58.999Z</time></trkpt><trkpt lat="42.137907881367724" lon="13.752221255940345"><ele>442.0</ele><time>2026-04-19T15:00:59.999Z</time></trkpt><trkpt lat="42.13803557452092" lon="13.752030152392516"><ele>442.0</ele><time>2026-04-19T15:01:01Z</time></trkpt><trkpt lat="42.1381500634073" lon="13.751861763138052"><ele>445.5</ele><time>2026-04-19T15:01:02Z</time></trkpt><trkpt lat="42.13825290621305" lon="13.751714402984216"><ele>449.0</ele><time>2026-04-19T15:01:03Z</time></trkpt><trkpt lat="42.1383547917107" lon="13.751569402474038"><ele>452.5</ele><time>2026-04-19T15:01:04Z</time></trkpt><trkpt lat="42.138447187379185" lon="13.751414229675838"><ele>456.0</ele><time>2026-04-19T15:01:05Z</time></trkpt><trkpt lat="42.13852162036864" lon="13.751222776306482"><ele>456.33333333333337</ele><time>2026-04-19T15:01:06Z</time></trkpt><trkpt lat="42.13858809281952" lon="13.751021786168117"><ele>456.6666666666667</ele><time>2026-04-19T15:01:07Z</time></trkpt><trkpt lat="42.138651400997915" lon="13.750822399251799"><ele>457.0</ele><time>2026-04-19T15:01:08Z</time></trkpt><trkpt lat="42.13870776569949" lon="13.750628932635898"><ele>457.0</ele><time>2026-04-19T15:01:09Z</time></trkpt><trkpt lat="42.138750180643136" lon="13.75043322314801"><ele>457.0</ele><time>2026-04-19T15:01:10Z</time></trkpt><trkpt lat="42.13879485343819" lon="13.750259835022224"><ele>457.0</ele><time>2026-04-19T15:01:11Z</time></trkpt><trkpt lat="42.138831705979975" lon="13.750102890283943"><ele>457.0</ele><time>2026-04-19T15:01:12Z</time></trkpt><trkpt lat="42.138879313134716" lon="13.749967591148176"><ele>459.75</ele><time>2026-04-19T15:01:13Z</time></trkpt><trkpt lat="42.138958874120426" lon="13.749849913849637"><ele>462.5</ele><time>2026-04-19T15:01:14Z</time></trkpt><trkpt lat="42.13905704179298" lon="13.749749539581465"><ele>465.25</ele><time>2026-04-19T15:01:15Z</time></trkpt><trkpt lat="42.13913997017063" lon="13.749564063808617"><ele>468.0</ele><time>2026-04-19T15:01:16Z</time></trkpt><trkpt lat="42.13917642230838" lon="13.74944123439786"><ele>466.0</ele><time>2026-04-19T15:01:17Z</time></trkpt><trkpt lat="42.139202370668734" lon="13.749326595230905"><ele>463.99999999999994</ele><time>2026-04-19T15:01:18Z</time></trkpt><trkpt lat="42.13922484077759" lon="13.749226559073566"><ele>461.99999999999994</ele><time>2026-04-19T15:01:19Z</time></trkpt><trkpt lat="42.139245700121656" lon="13.749133989686953"><ele>460.0</ele><time>2026-04-19T15:01:20Z</time></trkpt><trkpt lat="42.13925826828116" lon="13.7490151002109"><ele>458.0</ele><time>2026-04-19T15:01:21Z</time></trkpt><trkpt lat="42.139345513352374" lon="13.748558997385667"><ele>458.3333333333333</ele><time>2026-04-19T15:01:22Z</time></trkpt><trkpt lat="42.139353131326686" lon="13.748347750178244"><ele>458.66666666666663</ele><time>2026-04-19T15:01:23Z</time></trkpt><trkpt lat="42.13936275101293" lon="13.748134096295225"><ele>459.0</ele><time>2026-04-19T15:01:24Z</time></trkpt><trkpt lat="42.13936539872305" lon="13.747915658269866"><ele>458.66666666666663</ele><time>2026-04-19T15:01:25Z</time></trkpt><trkpt lat="42.139379103840014" lon="13.747695355364627"><ele>458.3333333333333</ele><time>2026-04-19T15:01:26Z</time></trkpt><trkpt lat="42.13939678916521" lon="13.747479442956868"><ele>458.0</ele><time>2026-04-19T15:01:27Z</time></trkpt><trkpt lat="42.13943737386548" lon="13.747277508939371"><ele>458.0</ele><time>2026-04-19T15:01:28Z</time></trkpt><trkpt lat="42.139449485496996" lon="13.74708693133587"><ele>458.0</ele><time>2026-04-19T15:01:29Z</time></trkpt><trkpt lat="42.139477784800384" lon="13.746923704382276"><ele>458.0</ele><time>2026-04-19T15:01:30Z</time></trkpt><trkpt lat="42.13948255656689" lon="13.746780837346044"><ele>458.0</ele><time>2026-04-19T15:01:31Z</time></trkpt><trkpt lat="42.1394574978242" lon="13.746649509258615"><ele>457.2</ele><time>2026-04-19T15:01:32Z</time></trkpt><trkpt lat="42.13939184693184" lon="13.74651279814385"><ele>456.4</ele><time>2026-04-19T15:01:33Z</time></trkpt><trkpt lat="42.139311152558264" lon="13.74639426510283"><ele>455.59999999999997</ele><time>2026-04-19T15:01:34Z</time></trkpt><trkpt lat="42.13924874405699" lon="13.74629431440763"><ele>454.79999999999995</ele><time>2026-04-19T15:01:35Z</time></trkpt><trkpt lat="42.13922680342338" lon="13.74617118666843"><ele>454.0</ele><time>2026-04-19T15:01:36Z</time></trkpt><trkpt lat="42.139287731337035" lon="13.746050130154577"><ele>452.75</ele><time>2026-04-19T15:01:37Z</time></trkpt><trkpt lat="42.13934536579911" lon="13.745910268031553"><ele>451.5</ele><time>2026-04-19T15:01:38Z</time></trkpt><trkpt lat="42.13942352588609" lon="13.745764110530466"><ele>450.25</ele><time>2026-04-19T15:01:39Z</time></trkpt><trkpt lat="42.139505761166504" lon="13.745609349139498"><ele>449.0</ele><time>2026-04-19T15:01:40Z</time></trkpt><trkpt lat="42.13962928019616" lon="13.745508363210764"><ele>449.0</ele><time>2026-04-19T15:01:41Z</time></trkpt><trkpt lat="42.139749449374584" lon="13.745429842533728"><ele>449.0</ele><time>2026-04-19T15:01:42Z</time></trkpt><trkpt lat="42.13987605815148" lon="13.74538789281181"><ele>449.0</ele><time>2026-04-19T15:01:43Z</time></trkpt><trkpt lat="42.14000028693715" lon="13.745395717328007"><ele>449.0</ele><time>2026-04-19T15:01:44Z</time></trkpt><trkpt lat="42.140167131140686" lon="13.745399218498537"><ele>453.66666666666663</ele><time>2026-04-19T15:01:45Z</time></trkpt><trkpt lat="42.1403236662223" lon="13.745432788619247"><ele>458.33333333333337</ele><time>2026-04-19T15:01:46Z</time></trkpt><trkpt lat="42.14048730884826" lon="13.745444187108493"><ele>463.0</ele><time>2026-04-19T15:01:47Z</time></trkpt><trkpt lat="42.14065569613407" lon="13.745467753839295"><ele>466.33333333333337</ele><time>2026-04-19T15:01:48Z</time></trkpt><trkpt lat="42.14082641667129" lon="13.745452226761481"><ele>469.66666666666663</ele><time>2026-04-19T15:01:49Z</time></trkpt><trkpt lat="42.141015683018466" lon="13.74548329736383"><ele>473.0</ele><time>2026-04-19T15:01:50Z</time></trkpt><trkpt lat="42.14116975138169" lon="13.745458897530716"><ele>473.0</ele><time>2026-04-19T15:01:51Z</time></trkpt><trkpt lat="42.141334483791155" lon="13.74545988318173"><ele>473.0</ele><time>2026-04-19T15:01:52Z</time></trkpt><trkpt lat="42.14149366263042" lon="13.745463949842073"><ele>473.0</ele><time>2026-04-19T15:01:53Z</time></trkpt><trkpt lat="42.14164140000302" lon="13.745460814295914"><ele>473.25</ele><time>2026-04-19T15:01:54Z</time></trkpt><trkpt lat="42.141776449790484" lon="13.745438674998638"><ele>473.5</ele><time>2026-04-19T15:01:55Z</time></trkpt><trkpt lat="42.141903060622816" lon="13.745372887373396"><ele>473.75</ele><time>2026-04-19T15:01:56Z</time></trkpt><trkpt lat="42.14202787071745" lon="13.745258117070362"><ele>474.0</ele><time>2026-04-19T15:01:57Z</time></trkpt><trkpt lat="42.14214387271699" lon="13.745116203124487"><ele>472.5</ele><time>2026-04-19T15:01:58Z</time></trkpt><trkpt lat="42.14225216802229" lon="13.744962246130005"><ele>471.0</ele><time>2026-04-19T15:01:59Z</time></trkpt><trkpt lat="42.14235078106742" lon="13.744803477734644"><ele>469.5</ele><time>2026-04-19T15:02:00Z</time></trkpt><trkpt lat="42.142431129256266" lon="13.744652853248782"><ele>468.0</ele><time>2026-04-19T15:02:01Z</time></trkpt><trkpt lat="42.14249643398496" lon="13.744473196771592"><ele>464.0</ele><time>2026-04-19T15:02:02Z</time></trkpt><trkpt lat="42.142539451364875" lon="13.744269015590737"><ele>460.0</ele><time>2026-04-19T15:02:03Z</time></trkpt><trkpt lat="42.14257162442974" lon="13.744054778042983"><ele>456.0</ele><time>2026-04-19T15:02:04Z</time></trkpt><trkpt lat="42.14260382510281" lon="13.743853971683198"><ele>456.0</ele><time>2026-04-19T15:02:05Z</time></trkpt><trkpt lat="42.14264053419079" lon="13.743668176854314"><ele>456.0</ele><time>2026-04-19T15:02:06Z</time></trkpt><trkpt lat="42.142675190542576" lon="13.743496005210263"><ele>456.0</ele><time>2026-04-19T15:02:07Z</time></trkpt><trkpt lat="42.14270279723483" lon="13.743334368408638"><ele>456.0</ele><time>2026-04-19T15:02:08Z</time></trkpt><trkpt lat="42.142713238840486" lon="13.743163326857548"><ele>454.75</ele><time>2026-04-19T15:02:09Z</time></trkpt><trkpt lat="42.14270752432136" lon="13.74299410320177"><ele>453.5</ele><time>2026-04-19T15:02:10Z</time></trkpt><trkpt lat="42.14267785574781" lon="13.74284064655891"><ele>452.25</ele><time>2026-04-19T15:02:11Z</time></trkpt><trkpt lat="42.14262853303073" lon="13.742701089019294"><ele>451.0</ele><time>2026-04-19T15:02:12Z</time></trkpt><trkpt lat="42.14256214096175" lon="13.742559020322453"><ele>451.0</ele><time>2026-04-19T15:02:13Z</time></trkpt><trkpt lat="42.14247989034346" lon="13.742430522880214"><ele>451.0</ele><time>2026-04-19T15:02:14Z</time></trkpt><trkpt lat="42.14239009664094" lon="13.74233862639569"><ele>451.0</ele><time>2026-04-19T15:02:15Z</time></trkpt><trkpt lat="42.1422968949186" lon="13.742264624206955"><ele>451.0</ele><time>2026-04-19T15:02:16Z</time></trkpt><trkpt lat="42.14218939867233" lon="13.742214391205755"><ele>450.5</ele><time>2026-04-19T15:02:16.999Z</time></trkpt><trkpt lat="42.14206843825088" lon="13.74218621522862"><ele>450.0</ele><time>2026-04-19T15:02:17.999Z</time></trkpt><trkpt lat="42.14194306324044" lon="13.742174893364867"><ele>449.5</ele><time>2026-04-19T15:02:18.999Z</time></trkpt><trkpt lat="42.14181157471568" lon="13.74218821024689"><ele>449.0</ele><time>2026-04-19T15:02:19.999Z</time></trkpt><trkpt lat="42.14169536651307" lon="13.742203353752357"><ele>449.0</ele><time>2026-04-19T15:02:20.999Z</time></trkpt><trkpt lat="42.1415933137324" lon="13.742213704605133"><ele>449.0</ele><time>2026-04-19T15:02:21.999Z</time></trkpt><trkpt lat="42.14149793196079" lon="13.742217139131483"><ele>449.0</ele><time>2026-04-19T15:02:22.999Z</time></trkpt><trkpt lat="42.141413186712086" lon="13.742186278540332"><ele>449.0</ele><time>2026-04-19T15:02:23.999Z</time></trkpt><trkpt lat="42.14134145588607" lon="13.742129048099015"><ele>449.0</ele><time>2026-04-19T15:02:24.999Z</time></trkpt><trkpt lat="42.141278643159744" lon="13.742046012459385"><ele>448.99999999999994</ele><time>2026-04-19T15:02:25.999Z</time></trkpt><trkpt lat="42.1412268467348" lon="13.741952917610437"><ele>449.0</ele><time>2026-04-19T15:02:26.999Z</time></trkpt><trkpt lat="42.14118675296556" lon="13.741858058000167"><ele>449.0</ele><time>2026-04-19T15:02:27.999Z</time></trkpt><trkpt lat="42.141179954421666" lon="13.741763757997697"><ele>449.0</ele><time>2026-04-19T15:02:28.999Z</time></trkpt><trkpt lat="42.14116856473543" lon="13.74166063274693"><ele>448.99999999999994</ele><time>2026-04-19T15:02:29.999Z</time></trkpt><trkpt lat="42.14115255323173" lon="13.741519804658573"><ele>449.0</ele><time>2026-04-19T15:02:30.999Z</time></trkpt><trkpt lat="42.14113453588411" lon="13.741359925404902"><ele>449.5</ele><time>2026-04-19T15:02:31.999Z</time></trkpt><trkpt lat="42.14111568765849" lon="13.741186556142864"><ele>450.0</ele><time>2026-04-19T15:02:32.999Z</time></trkpt><trkpt lat="42.141096347820685" lon="13.740994645277041"><ele>450.5</ele><time>2026-04-19T15:02:33.999Z</time></trkpt><trkpt lat="42.1410617672958" lon="13.740801980307362"><ele>451.0</ele><time>2026-04-19T15:02:34.999Z</time></trkpt><trkpt lat="42.14105336361397" lon="13.740588524202083"><ele>452.0</ele><time>2026-04-19T15:02:35.999Z</time></trkpt><trkpt lat="42.14104370356058" lon="13.740378739289875"><ele>453.0</ele><time>2026-04-19T15:02:36.999Z</time></trkpt><trkpt lat="42.14102924165137" lon="13.740170897715103"><ele>454.0</ele><time>2026-04-19T15:02:37.999Z</time></trkpt><trkpt lat="42.141016790671294" lon="13.739963975632133"><ele>455.6666666666667</ele><time>2026-04-19T15:02:38.999Z</time></trkpt><trkpt lat="42.14097784593932" lon="13.739761956994363"><ele>457.33333333333337</ele><time>2026-04-19T15:02:39.999Z</time></trkpt><trkpt lat="42.140904046445364" lon="13.739564481332614"><ele>459.0</ele><time>2026-04-19T15:02:40.999Z</time></trkpt><trkpt lat="42.14081160661368" lon="13.739382097753651"><ele>457.66666666666663</ele><time>2026-04-19T15:02:41.999Z</time></trkpt><trkpt lat="42.14069882545582" lon="13.739222181763955"><ele>456.3333333333333</ele><time>2026-04-19T15:02:42.999Z</time></trkpt><trkpt lat="42.14057642132872" lon="13.739080925959023"><ele>455.0</ele><time>2026-04-19T15:02:43.999Z</time></trkpt><trkpt lat="42.14044997848057" lon="13.738944907420459"><ele>455.0</ele><time>2026-04-19T15:02:44.999Z</time></trkpt><trkpt lat="42.14032615454421" lon="13.738804549004412"><ele>455.0</ele><time>2026-04-19T15:02:45.999Z</time></trkpt><trkpt lat="42.14020740893817" lon="13.738657761615602"><ele>455.0</ele><time>2026-04-19T15:02:46.999Z</time></trkpt><trkpt lat="42.14008933101483" lon="13.738509536219953"><ele>455.66666666666663</ele><time>2026-04-19T15:02:47.999Z</time></trkpt><trkpt lat="42.139978536204" lon="13.738360795276213"><ele>456.33333333333337</ele><time>2026-04-19T15:02:48.999Z</time></trkpt><trkpt lat="42.13987487573325" lon="13.738216514814495"><ele>457.0</ele><time>2026-04-19T15:02:49.999Z</time></trkpt><trkpt lat="42.13976851599189" lon="13.738070020899265"><ele>457.0</ele><time>2026-04-19T15:02:50.999Z</time></trkpt><trkpt lat="42.139656839821384" lon="13.737929829201123"><ele>457.0</ele><time>2026-04-19T15:02:51.999Z</time></trkpt><trkpt lat="42.13953234910302" lon="13.737804352852246"><ele>457.0</ele><time>2026-04-19T15:02:52.999Z</time></trkpt><trkpt lat="42.139396058642625" lon="13.73770017126218"><ele>462.33333333333337</ele><time>2026-04-19T15:02:53.999Z</time></trkpt><trkpt lat="42.13925558739865" lon="13.737609418751443"><ele>467.66666666666663</ele><time>2026-04-19T15:02:54.999Z</time></trkpt><trkpt lat="42.139110517643644" lon="13.737532497720478"><ele>473.0</ele><time>2026-04-19T15:02:55.999Z</time></trkpt><trkpt lat="42.13896181945021" lon="13.737467501946027"><ele>473.0</ele><time>2026-04-19T15:02:56.999Z</time></trkpt><trkpt lat="42.13879986803211" lon="13.737421233494146"><ele>473.0</ele><time>2026-04-19T15:02:57.999Z</time></trkpt><trkpt lat="42.13862719565261" lon="13.737404559224524"><ele>473.0</ele><time>2026-04-19T15:02:58.999Z</time></trkpt><trkpt lat="42.1384464439869" lon="13.73741512560005"><ele>473.0</ele><time>2026-04-19T15:02:59.999Z</time></trkpt><trkpt lat="42.13827017783471" lon="13.737420331214151"><ele>473.0</ele><time>2026-04-19T15:03:00.999Z</time></trkpt><trkpt lat="42.138111677442986" lon="13.737419565569569"><ele>473.0</ele><time>2026-04-19T15:03:01.999Z</time></trkpt><trkpt lat="42.13797220565782" lon="13.73741332539974"><ele>472.5</ele><time>2026-04-19T15:03:02.999Z</time></trkpt><trkpt lat="42.13784006146774" lon="13.73740553678924"><ele>472.0</ele><time>2026-04-19T15:03:03.999Z</time></trkpt><trkpt lat="42.1377005535572" lon="13.737384156470567"><ele>471.5</ele><time>2026-04-19T15:03:04.999Z</time></trkpt><trkpt lat="42.13755686677822" lon="13.737339529093232"><ele>471.0</ele><time>2026-04-19T15:03:05.999Z</time></trkpt><trkpt lat="42.13741121388584" lon="13.737275644702466"><ele>469.66666666666663</ele><time>2026-04-19T15:03:07Z</time></trkpt><trkpt lat="42.13726407852532" lon="13.737191257559015"><ele>468.3333333333333</ele><time>2026-04-19T15:03:08Z</time></trkpt><trkpt lat="42.13711409452078" lon="13.737108585232173"><ele>467.0</ele><time>2026-04-19T15:03:09Z</time></trkpt><trkpt lat="42.136958519602565" lon="13.737040331975333"><ele>467.0</ele><time>2026-04-19T15:03:10Z</time></trkpt><trkpt lat="42.13680085412998" lon="13.73700553786366"><ele>467.0</ele><time>2026-04-19T15:03:11Z</time></trkpt><trkpt lat="42.13665143205621" lon="13.736995610087117"><ele>467.0</ele><time>2026-04-19T15:03:12Z</time></trkpt><trkpt lat="42.13650951881827" lon="13.737002763314797"><ele>467.0</ele><time>2026-04-19T15:03:13Z</time></trkpt><trkpt lat="42.13637082194232" lon="13.737013904128116"><ele>467.0</ele><time>2026-04-19T15:03:14Z</time></trkpt><trkpt lat="42.136233882392226" lon="13.73701645086408"><ele>467.0</ele><time>2026-04-19T15:03:15Z</time></trkpt><trkpt lat="42.13610193567813" lon="13.737003491456692"><ele>467.0</ele><time>2026-04-19T15:03:16Z</time></trkpt><trkpt lat="42.1359769263211" lon="13.736970263374527"><ele>467.0</ele><time>2026-04-19T15:03:17Z</time></trkpt><trkpt lat="42.13586530678372" lon="13.73690213053348"><ele>467.0</ele><time>2026-04-19T15:03:18Z</time></trkpt><trkpt lat="42.13577030744918" lon="13.736801610473677"><ele>467.0</ele><time>2026-04-19T15:03:19Z</time></trkpt><trkpt lat="42.135710297750194" lon="13.736681700246553"><ele>467.0</ele><time>2026-04-19T15:03:20Z</time></trkpt><trkpt lat="42.135689132409986" lon="13.736541473333228"><ele>467.3333333333333</ele><time>2026-04-19T15:03:21Z</time></trkpt><trkpt lat="42.135714371222825" lon="13.736372995657696"><ele>467.66666666666663</ele><time>2026-04-19T15:03:22Z</time></trkpt><trkpt lat="42.135781521517224" lon="13.736190851846684"><ele>468.0</ele><time>2026-04-19T15:03:23Z</time></trkpt><trkpt lat="42.135861852800716" lon="13.73598415914815"><ele>472.0</ele><time>2026-04-19T15:03:24Z</time></trkpt><trkpt lat="42.13593834871345" lon="13.735778243111106"><ele>476.0</ele><time>2026-04-19T15:03:25Z</time></trkpt><trkpt lat="42.13597821264696" lon="13.735560132204395"><ele>480.0</ele><time>2026-04-19T15:03:26Z</time></trkpt><trkpt lat="42.135986472697965" lon="13.735323570230118"><ele>482.66666666666663</ele><time>2026-04-19T15:03:27Z</time></trkpt><trkpt lat="42.13595904042536" lon="13.735087720937283"><ele>485.3333333333333</ele><time>2026-04-19T15:03:28Z</time></trkpt><trkpt lat="42.13589039463444" lon="13.734856792666182"><ele>488.0</ele><time>2026-04-19T15:03:29Z</time></trkpt><trkpt lat="42.135803832413075" lon="13.73464923667036"><ele>488.0</ele><time>2026-04-19T15:03:30Z</time></trkpt><trkpt lat="42.13572249196142" lon="13.734470286648689"><ele>488.0</ele><time>2026-04-19T15:03:31Z</time></trkpt><trkpt lat="42.13565216601749" lon="13.734310187433532"><ele>488.0</ele><time>2026-04-19T15:03:32Z</time></trkpt><trkpt lat="42.135574653165676" lon="13.734158804109457"><ele>488.0</ele><time>2026-04-19T15:03:33Z</time></trkpt><trkpt lat="42.135475268576926" lon="13.734031963905906"><ele>490.75</ele><time>2026-04-19T15:03:34Z</time></trkpt><trkpt lat="42.135368863050715" lon="13.733902085399881"><ele>493.5</ele><time>2026-04-19T15:03:35Z</time></trkpt><trkpt lat="42.13527037481826" lon="13.73375646146997"><ele>496.25</ele><time>2026-04-19T15:03:36Z</time></trkpt><trkpt lat="42.13517787047384" lon="13.733605737379573"><ele>499.0</ele><time>2026-04-19T15:03:37Z</time></trkpt><trkpt lat="42.135073072074064" lon="13.73347069341472"><ele>499.0</ele><time>2026-04-19T15:03:38Z</time></trkpt><trkpt lat="42.13495130120747" lon="13.733368603183655"><ele>499.0</ele><time>2026-04-19T15:03:39Z</time></trkpt><trkpt lat="42.13482386110847" lon="13.73327603855266"><ele>499.0</ele><time>2026-04-19T15:03:40Z</time></trkpt><trkpt lat="42.134708048631225" lon="13.73316416443425"><ele>499.0</ele><time>2026-04-19T15:03:41Z</time></trkpt><trkpt lat="42.134608080061895" lon="13.73301585044466"><ele>499.0</ele><time>2026-04-19T15:03:42Z</time></trkpt><trkpt lat="42.13451489102475" lon="13.732850609217264"><ele>499.0</ele><time>2026-04-19T15:03:43Z</time></trkpt><trkpt lat="42.13442746096056" lon="13.732688446702944"><ele>499.0</ele><time>2026-04-19T15:03:44Z</time></trkpt><trkpt lat="42.134336843268954" lon="13.732536554629126"><ele>499.0</ele><time>2026-04-19T15:03:45Z</time></trkpt><trkpt lat="42.13423325500592" lon="13.732398462643529"><ele>499.0</ele><time>2026-04-19T15:03:46Z</time></trkpt><trkpt lat="42.13412941033654" lon="13.732280886218039"><ele>499.0</ele><time>2026-04-19T15:03:47Z</time></trkpt><trkpt lat="42.13402822634173" lon="13.732197078046449"><ele>499.0</ele><time>2026-04-19T15:03:48Z</time></trkpt><trkpt lat="42.13392046848043" lon="13.732131272497247"><ele>499.0</ele><time>2026-04-19T15:03:49Z</time></trkpt><trkpt lat="42.13379954114475" lon="13.732090578975928"><ele>500.5</ele><time>2026-04-19T15:03:50Z</time></trkpt><trkpt lat="42.13367451467657" lon="13.732048150392238"><ele>502.0</ele><time>2026-04-19T15:03:51Z</time></trkpt><trkpt lat="42.13355635440248" lon="13.731989047511293"><ele>503.5</ele><time>2026-04-19T15:03:52Z</time></trkpt><trkpt lat="42.13345224701463" lon="13.731898593035208"><ele>505.0</ele><time>2026-04-19T15:03:53Z</time></trkpt><trkpt lat="42.13335822100366" lon="13.731800415398029"><ele>505.0</ele><time>2026-04-19T15:03:54Z</time></trkpt><trkpt lat="42.13325586780568" lon="13.731730952818848"><ele>505.0</ele><time>2026-04-19T15:03:55Z</time></trkpt><trkpt lat="42.133147822427865" lon="13.731680009913912"><ele>505.0</ele><time>2026-04-19T15:03:56Z</time></trkpt><trkpt lat="42.13303393613099" lon="13.731654405192305"><ele>505.0</ele><time>2026-04-19T15:03:57Z</time></trkpt><trkpt lat="42.13292106622542" lon="13.73165551071101"><ele>505.75</ele><time>2026-04-19T15:03:58Z</time></trkpt><trkpt lat="42.13281099668954" lon="13.731687652834816"><ele>506.5</ele><time>2026-04-19T15:03:59Z</time></trkpt><trkpt lat="42.13270429422911" lon="13.731734127227888"><ele>507.25</ele><time>2026-04-19T15:04:00Z</time></trkpt><trkpt lat="42.132588803232906" lon="13.731778347743234"><ele>508.0</ele><time>2026-04-19T15:04:01Z</time></trkpt><trkpt lat="42.132470551172425" lon="13.731818543331455"><ele>507.25</ele><time>2026-04-19T15:04:02Z</time></trkpt><trkpt lat="42.132355194066456" lon="13.731840929161976"><ele>506.5</ele><time>2026-04-19T15:04:03Z</time></trkpt><trkpt lat="42.132242299152516" lon="13.73183341219917"><ele>505.75</ele><time>2026-04-19T15:04:04Z</time></trkpt><trkpt lat="42.132135692922844" lon="13.731797117633297"><ele>505.0</ele><time>2026-04-19T15:04:05Z</time></trkpt><trkpt lat="42.13203769953219" lon="13.731721475378887"><ele>505.0</ele><time>2026-04-19T15:04:06Z</time></trkpt><trkpt lat="42.13194101998558" lon="13.731622876063955"><ele>505.0</ele><time>2026-04-19T15:04:07Z</time></trkpt><trkpt lat="42.13183685269011" lon="13.731584399980155"><ele>505.0</ele><time>2026-04-19T15:04:08Z</time></trkpt><trkpt lat="42.131729822257725" lon="13.731478259549876"><ele>505.0</ele><time>2026-04-19T15:04:09Z</time></trkpt><trkpt lat="42.13164247406521" lon="13.731366520289214"><ele>505.0</ele><time>2026-04-19T15:04:10Z</time></trkpt><trkpt lat="42.13155855662121" lon="13.731281757708668"><ele>505.0</ele><time>2026-04-19T15:04:11Z</time></trkpt><trkpt lat="42.131475984295776" lon="13.731220162710317"><ele>505.0</ele><time>2026-04-19T15:04:12Z</time></trkpt><trkpt lat="42.13138342079749" lon="13.731178651867394"><ele>505.0</ele><time>2026-04-19T15:04:13Z</time></trkpt><trkpt lat="42.1312719800803" lon="13.731163156197567"><ele>505.0</ele><time>2026-04-19T15:04:14Z</time></trkpt><trkpt lat="42.131156116182666" lon="13.73116838578601"><ele>505.00000000000006</ele><time>2026-04-19T15:04:15Z</time></trkpt><trkpt lat="42.131054213363974" lon="13.731180225121644"><ele>505.0</ele><time>2026-04-19T15:04:16Z</time></trkpt><trkpt lat="42.13096321765488" lon="13.731192712159267"><ele>505.0</ele><time>2026-04-19T15:04:17Z</time></trkpt><trkpt lat="42.130881203591144" lon="13.73115505882809"><ele>505.0</ele><time>2026-04-19T15:04:18Z</time></trkpt><trkpt lat="42.13079795935162" lon="13.731121214659906"><ele>505.00000000000006</ele><time>2026-04-19T15:04:19Z</time></trkpt><trkpt lat="42.13074379080108" lon="13.731051933876175"><ele>505.0</ele><time>2026-04-19T15:04:20Z</time></trkpt><trkpt lat="42.13069334013723" lon="13.730986174474165"><ele>505.00000000000006</ele><time>2026-04-19T15:04:21Z</time></trkpt><trkpt lat="42.130677398253084" lon="13.730870977658824"><ele>505.0</ele><time>2026-04-19T15:04:22Z</time></trkpt><trkpt lat="42.130642518527566" lon="13.730778772213604"><ele>505.0</ele><time>2026-04-19T15:04:23Z</time></trkpt><trkpt lat="42.13058671628546" lon="13.73069259189445"><ele>505.0</ele><time>2026-04-19T15:04:24Z</time></trkpt><trkpt lat="42.1305068853775" lon="13.730630632614895"><ele>505.00000000000006</ele><time>2026-04-19T15:04:25Z</time></trkpt><trkpt lat="42.13042859005663" lon="13.730559571346758"><ele>505.0</ele><time>2026-04-19T15:04:26Z</time></trkpt><trkpt lat="42.13033941622064" lon="13.730503736037512"><ele>505.00000000000006</ele><time>2026-04-19T15:04:27Z</time></trkpt><trkpt lat="42.130251328612324" lon="13.730466719446042"><ele>505.0</ele><time>2026-04-19T15:04:28Z</time></trkpt><trkpt lat="42.13017464810049" lon="13.730433029251051"><ele>505.0</ele><time>2026-04-19T15:04:28.999Z</time></trkpt><trkpt lat="42.13016634199195" lon="13.730326683955381"><ele>505.0</ele><time>2026-04-19T15:04:29.999Z</time></trkpt><trkpt lat="42.13016351339857" lon="13.730229110351987"><ele>505.00000000000006</ele><time>2026-04-19T15:04:30.999Z</time></trkpt><trkpt lat="42.130171845972065" lon="13.730126445453285"><ele>505.0</ele><time>2026-04-19T15:04:31.999Z</time></trkpt><trkpt lat="42.130185922011684" lon="13.730006962348083"><ele>504.2</ele><time>2026-04-19T15:04:32.999Z</time></trkpt><trkpt lat="42.13020872835561" lon="13.729866598985678"><ele>503.4</ele><time>2026-04-19T15:04:33.999Z</time></trkpt><trkpt lat="42.13022771183258" lon="13.72972512916994"><ele>502.6</ele><time>2026-04-19T15:04:34.999Z</time></trkpt><trkpt lat="42.13023954505002" lon="13.729580963455243"><ele>501.8</ele><time>2026-04-19T15:04:35.999Z</time></trkpt><trkpt lat="42.130241642748196" lon="13.729410547072032"><ele>501.0</ele><time>2026-04-19T15:04:36.999Z</time></trkpt><trkpt lat="42.13026610334459" lon="13.729249509301141"><ele>500.0</ele><time>2026-04-19T15:04:37.999Z</time></trkpt><trkpt lat="42.13030114938892" lon="13.72910438527501"><ele>499.0</ele><time>2026-04-19T15:04:38.999Z</time></trkpt><trkpt lat="42.13034184127579" lon="13.72896914052109"><ele>498.0</ele><time>2026-04-19T15:04:39.999Z</time></trkpt><trkpt lat="42.13040526014181" lon="13.728842686425873"><ele>497.0</ele><time>2026-04-19T15:04:40.999Z</time></trkpt><trkpt lat="42.130482265005234" lon="13.728725119255849"><ele>497.0</ele><time>2026-04-19T15:04:41.999Z</time></trkpt><trkpt lat="42.130568417608856" lon="13.728606569177238"><ele>497.0</ele><time>2026-04-19T15:04:42.999Z</time></trkpt><trkpt lat="42.130660023791705" lon="13.728482650459735"><ele>497.0</ele><time>2026-04-19T15:04:43.999Z</time></trkpt><trkpt lat="42.13075156998092" lon="13.72835443943084"><ele>497.0</ele><time>2026-04-19T15:04:44.999Z</time></trkpt><trkpt lat="42.130841773184535" lon="13.728232804100449"><ele>497.0</ele><time>2026-04-19T15:04:45.999Z</time></trkpt><trkpt lat="42.1309251132761" lon="13.728119398024534"><ele>497.00000000000006</ele><time>2026-04-19T15:04:46.999Z</time></trkpt><trkpt lat="42.131001316001054" lon="13.728007252658548"><ele>497.00000000000006</ele><time>2026-04-19T15:04:47.999Z</time></trkpt><trkpt lat="42.1310742351921" lon="13.727904774121708"><ele>497.0</ele><time>2026-04-19T15:04:48.999Z</time></trkpt><trkpt lat="42.131143482590126" lon="13.727805799292714"><ele>497.0</ele><time>2026-04-19T15:04:49.999Z</time></trkpt><trkpt lat="42.13120882204031" lon="13.727712617253301"><ele>496.99999999999994</ele><time>2026-04-19T15:04:50.999Z</time></trkpt><trkpt lat="42.13127200718533" lon="13.727624608061223"><ele>497.0</ele><time>2026-04-19T15:04:51.999Z</time></trkpt><trkpt lat="42.131326252211935" lon="13.727545279224167"><ele>497.0</ele><time>2026-04-19T15:04:52.999Z</time></trkpt><trkpt lat="42.13136668012478" lon="13.727460890706745"><ele>497.0</ele><time>2026-04-19T15:04:53.999Z</time></trkpt><trkpt lat="42.13138425364048" lon="13.727368520737707"><ele>496.99999999999994</ele><time>2026-04-19T15:04:54.999Z</time></trkpt><trkpt lat="42.131374850694556" lon="13.727277371165103"><ele>497.0</ele><time>2026-04-19T15:04:55.999Z</time></trkpt><trkpt lat="42.13132602233258" lon="13.727205183472533"><ele>496.99999999999994</ele><time>2026-04-19T15:04:56.999Z</time></trkpt><trkpt lat="42.131250348400805" lon="13.72717212876787"><ele>497.0</ele><time>2026-04-19T15:04:57.999Z</time></trkpt><trkpt lat="42.13117098643463" lon="13.72717541375652"><ele>497.0</ele><time>2026-04-19T15:04:58.999Z</time></trkpt><trkpt lat="42.13109414576381" lon="13.727231428988942"><ele>497.0</ele><time>2026-04-19T15:04:59.999Z</time></trkpt><trkpt lat="42.13103132306342" lon="13.727324661469062"><ele>496.99999999999994</ele><time>2026-04-19T15:05:00.999Z</time></trkpt><trkpt lat="42.130968897341035" lon="13.727428236162238"><ele>497.0</ele><time>2026-04-19T15:05:01.999Z</time></trkpt><trkpt lat="42.13090084406531" lon="13.72753314457551"><ele>497.0</ele><time>2026-04-19T15:05:02.999Z</time></trkpt><trkpt lat="42.130820557038945" lon="13.72763706384618"><ele>497.0</ele><time>2026-04-19T15:05:03.999Z</time></trkpt><trkpt lat="42.13073900554218" lon="13.727742275191243"><ele>497.0</ele><time>2026-04-19T15:05:04.999Z</time></trkpt><trkpt lat="42.13065534148446" lon="13.727849884756136"><ele>497.0</ele><time>2026-04-19T15:05:05.999Z</time></trkpt><trkpt lat="42.13057284852954" lon="13.727968568127038"><ele>495.75</ele><time>2026-04-19T15:05:06.999Z</time></trkpt><trkpt lat="42.130486206871105" lon="13.728087715721317"><ele>494.5</ele><time>2026-04-19T15:05:07.999Z</time></trkpt><trkpt lat="42.130396527503976" lon="13.728210760348945"><ele>493.25</ele><time>2026-04-19T15:05:08.999Z</time></trkpt><trkpt lat="42.130306284797506" lon="13.728341927887197"><ele>492.0</ele><time>2026-04-19T15:05:09.999Z</time></trkpt><trkpt lat="42.13021694010839" lon="13.728477664088523"><ele>493.25</ele><time>2026-04-19T15:05:10.999Z</time></trkpt><trkpt lat="42.13012365459367" lon="13.728618665558987"><ele>494.5</ele><time>2026-04-19T15:05:12Z</time></trkpt><trkpt lat="42.13003730727176" lon="13.728773649909092"><ele>495.75</ele><time>2026-04-19T15:05:13Z</time></trkpt><trkpt lat="42.12995514142963" lon="13.728937532442787"><ele>497.0</ele><time>2026-04-19T15:05:14Z</time></trkpt><trkpt lat="42.12987332469781" lon="13.729104406250883"><ele>493.66666666666663</ele><time>2026-04-19T15:05:15Z</time></trkpt><trkpt lat="42.129786886219605" lon="13.729269655477196"><ele>490.33333333333337</ele><time>2026-04-19T15:05:16Z</time></trkpt><trkpt lat="42.12969805195353" lon="13.72943759967351"><ele>487.0</ele><time>2026-04-19T15:05:17Z</time></trkpt><trkpt lat="42.12961162137563" lon="13.72960336407091"><ele>487.0</ele><time>2026-04-19T15:05:18Z</time></trkpt><trkpt lat="42.12953213227131" lon="13.729752370482426"><ele>487.0</ele><time>2026-04-19T15:05:19Z</time></trkpt><trkpt lat="42.12945397529916" lon="13.729893885217484"><ele>487.0</ele><time>2026-04-19T15:05:20Z</time></trkpt><trkpt lat="42.12937701021551" lon="13.730023717680083"><ele>487.0</ele><time>2026-04-19T15:05:21Z</time></trkpt><trkpt lat="42.12929742320185" lon="13.730138521143992"><ele>485.5</ele><time>2026-04-19T15:05:22Z</time></trkpt><trkpt lat="42.129208021350365" lon="13.73024243470612"><ele>484.0</ele><time>2026-04-19T15:05:23Z</time></trkpt><trkpt lat="42.1291033915616" lon="13.73034414366598"><ele>482.5</ele><time>2026-04-19T15:05:24Z</time></trkpt><trkpt lat="42.12898414592404" lon="13.730452101464572"><ele>481.0</ele><time>2026-04-19T15:05:25Z</time></trkpt><trkpt lat="42.128850951146816" lon="13.730551959700014"><ele>481.0</ele><time>2026-04-19T15:05:26Z</time></trkpt><trkpt lat="42.12871776079053" lon="13.730674537814188"><ele>481.0</ele><time>2026-04-19T15:05:27Z</time></trkpt><trkpt lat="42.12859535584842" lon="13.73081650289103"><ele>481.0</ele><time>2026-04-19T15:05:28Z</time></trkpt><trkpt lat="42.12846022138176" lon="13.730919676801948"><ele>481.0</ele><time>2026-04-19T15:05:29Z</time></trkpt><trkpt lat="42.12835668438809" lon="13.73105166606797"><ele>481.0</ele><time>2026-04-19T15:05:30Z</time></trkpt><trkpt lat="42.12824921603295" lon="13.731166135812998"><ele>481.0</ele><time>2026-04-19T15:05:31Z</time></trkpt><trkpt lat="42.1281513047164" lon="13.731274114096138"><ele>481.0</ele><time>2026-04-19T15:05:32Z</time></trkpt><trkpt lat="42.1280606529004" lon="13.731379131995826"><ele>480.83333333333337</ele><time>2026-04-19T15:05:33Z</time></trkpt><trkpt lat="42.127971602104296" lon="13.731473962087414"><ele>480.6666666666667</ele><time>2026-04-19T15:05:34Z</time></trkpt><trkpt lat="42.127897020889705" lon="13.731553148496936"><ele>480.5</ele><time>2026-04-19T15:05:35Z</time></trkpt><trkpt lat="42.12783436919323" lon="13.731619975838086"><ele>480.33333333333337</ele><time>2026-04-19T15:05:36Z</time></trkpt><trkpt lat="42.12778644111464" lon="13.731680007633017"><ele>480.1666666666667</ele><time>2026-04-19T15:05:37Z</time></trkpt><trkpt lat="42.127725226460825" lon="13.731747501049481"><ele>480.0</ele><time>2026-04-19T15:05:39Z</time></trkpt><trkpt lat="42.12765626887089" lon="13.731822449196994"><ele>480.0</ele><time>2026-04-19T15:05:41Z</time></trkpt><trkpt lat="42.127596563345534" lon="13.731880876150123"><ele>480.0</ele><time>2026-04-19T15:05:42Z</time></trkpt><trkpt lat="42.12752706058992" lon="13.73196229414287"><ele>480.0</ele><time>2026-04-19T15:05:43Z</time></trkpt><trkpt lat="42.127437963255694" lon="13.73204019181884"><ele>480.0</ele><time>2026-04-19T15:05:44Z</time></trkpt><trkpt lat="42.12732864237142" lon="13.732094183805383"><ele>480.0</ele><time>2026-04-19T15:05:45Z</time></trkpt><trkpt lat="42.1272062643883" lon="13.732105530503764"><ele>479.0</ele><time>2026-04-19T15:05:46Z</time></trkpt><trkpt lat="42.12708496309117" lon="13.7321493514989"><ele>478.0</ele><time>2026-04-19T15:05:47Z</time></trkpt><trkpt lat="42.12697170144725" lon="13.732227948025013"><ele>477.0</ele><time>2026-04-19T15:05:48Z</time></trkpt><trkpt lat="42.12685675814179" lon="13.732294422455292"><ele>476.0</ele><time>2026-04-19T15:05:49Z</time></trkpt><trkpt lat="42.12674431722175" lon="13.732370520407468"><ele>476.0</ele><time>2026-04-19T15:05:50Z</time></trkpt><trkpt lat="42.12663335153891" lon="13.732443396164074"><ele>476.0</ele><time>2026-04-19T15:05:51Z</time></trkpt><trkpt lat="42.1265147635143" lon="13.73251902228221"><ele>476.0</ele><time>2026-04-19T15:05:52Z</time></trkpt><trkpt lat="42.12639982281833" lon="13.732601579064864"><ele>476.0</ele><time>2026-04-19T15:05:53Z</time></trkpt><trkpt lat="42.12628569314809" lon="13.73268637964729"><ele>475.5</ele><time>2026-04-19T15:05:54Z</time></trkpt><trkpt lat="42.126171121966316" lon="13.73276886084319"><ele>475.0</ele><time>2026-04-19T15:05:55Z</time></trkpt><trkpt lat="42.126057394859856" lon="13.732846174251826"><ele>474.5</ele><time>2026-04-19T15:05:56Z</time></trkpt><trkpt lat="42.125943105710036" lon="13.732921255111181"><ele>474.0</ele><time>2026-04-19T15:05:57Z</time></trkpt><trkpt lat="42.125833521706234" lon="13.732994578433386"><ele>474.5</ele><time>2026-04-19T15:05:58Z</time></trkpt><trkpt lat="42.125724222939965" lon="13.733068248434819"><ele>475.0</ele><time>2026-04-19T15:05:59Z</time></trkpt><trkpt lat="42.12561244416482" lon="13.73314518368001"><ele>475.5</ele><time>2026-04-19T15:06:00Z</time></trkpt><trkpt lat="42.12550282015297" lon="13.733213892562645"><ele>476.0</ele><time>2026-04-19T15:06:01Z</time></trkpt><trkpt lat="42.12540095865326" lon="13.733285918447613"><ele>476.0</ele><time>2026-04-19T15:06:02Z</time></trkpt><trkpt lat="42.125291689014176" lon="13.733354838589486"><ele>476.0</ele><time>2026-04-19T15:06:03Z</time></trkpt><trkpt lat="42.12518098201622" lon="13.733423054225817"><ele>476.0</ele><time>2026-04-19T15:06:04Z</time></trkpt><trkpt lat="42.125070826070605" lon="13.733498502942789"><ele>476.0</ele><time>2026-04-19T15:06:05Z</time></trkpt><trkpt lat="42.12496157546835" lon="13.73357571600984"><ele>475.25</ele><time>2026-04-19T15:06:06Z</time></trkpt><trkpt lat="42.124859135681824" lon="13.733657947309547"><ele>474.5</ele><time>2026-04-19T15:06:07Z</time></trkpt><trkpt lat="42.124753932069325" lon="13.733734190681716"><ele>473.75</ele><time>2026-04-19T15:06:08Z</time></trkpt><trkpt lat="42.1246492194565" lon="13.733803389220855"><ele>473.0</ele><time>2026-04-19T15:06:09Z</time></trkpt><trkpt lat="42.12454106208946" lon="13.733872892108696"><ele>473.0</ele><time>2026-04-19T15:06:10Z</time></trkpt><trkpt lat="42.12443641996261" lon="13.73394359545551"><ele>473.0</ele><time>2026-04-19T15:06:11Z</time></trkpt><trkpt lat="42.1243320280933" lon="13.734011421727738"><ele>473.0</ele><time>2026-04-19T15:06:12Z</time></trkpt><trkpt lat="42.12422675490551" lon="13.73407742066811"><ele>473.0</ele><time>2026-04-19T15:06:13Z</time></trkpt><trkpt lat="42.12412393053856" lon="13.73414665065834"><ele>473.25</ele><time>2026-04-19T15:06:14Z</time></trkpt><trkpt lat="42.124020207918974" lon="13.73421997842998"><ele>473.5</ele><time>2026-04-19T15:06:15Z</time></trkpt><trkpt lat="42.123919873021535" lon="13.734292599781565"><ele>473.75</ele><time>2026-04-19T15:06:16Z</time></trkpt><trkpt lat="42.12381828854055" lon="13.734362002445756"><ele>474.0</ele><time>2026-04-19T15:06:17Z</time></trkpt><trkpt lat="42.12371753404947" lon="13.734430225140102"><ele>474.0</ele><time>2026-04-19T15:06:18Z</time></trkpt><trkpt lat="42.123617640180655" lon="13.734496606013934"><ele>474.0</ele><time>2026-04-19T15:06:19Z</time></trkpt><trkpt lat="42.1235224377846" lon="13.73456423748015"><ele>474.0</ele><time>2026-04-19T15:06:20Z</time></trkpt><trkpt lat="42.1234231444323" lon="13.734634705414724"><ele>474.0</ele><time>2026-04-19T15:06:21Z</time></trkpt><trkpt lat="42.123321803614246" lon="13.734701613689547"><ele>474.0</ele><time>2026-04-19T15:06:22Z</time></trkpt><trkpt lat="42.1232247240336" lon="13.734771358146668"><ele>474.75</ele><time>2026-04-19T15:06:23Z</time></trkpt><trkpt lat="42.12312922081384" lon="13.734839667883652"><ele>475.5</ele><time>2026-04-19T15:06:24Z</time></trkpt><trkpt lat="42.12302457139487" lon="13.73490845213645"><ele>476.25</ele><time>2026-04-19T15:06:24.999Z</time></trkpt><trkpt lat="42.122917657224114" lon="13.734977773534732"><ele>477.0</ele><time>2026-04-19T15:06:25.999Z</time></trkpt><trkpt lat="42.12280636354683" lon="13.735046386307022"><ele>477.0</ele><time>2026-04-19T15:06:26.999Z</time></trkpt><trkpt lat="42.12269133079699" lon="13.73510853918319"><ele>477.0</ele><time>2026-04-19T15:06:27.999Z</time></trkpt><trkpt lat="42.12257522294073" lon="13.735165674310633"><ele>477.0</ele><time>2026-04-19T15:06:28.999Z</time></trkpt><trkpt lat="42.12245703727931" lon="13.735211405740403"><ele>477.0</ele><time>2026-04-19T15:06:29.999Z</time></trkpt><trkpt lat="42.12233426727029" lon="13.735265145577635"><ele>477.25</ele><time>2026-04-19T15:06:30.999Z</time></trkpt><trkpt lat="42.12220773554904" lon="13.735321872314149"><ele>477.5</ele><time>2026-04-19T15:06:31.999Z</time></trkpt><trkpt lat="42.12208159366329" lon="13.735366885068803"><ele>477.75</ele><time>2026-04-19T15:06:32.999Z</time></trkpt><trkpt lat="42.1219535544991" lon="13.735415900218682"><ele>478.0</ele><time>2026-04-19T15:06:33.999Z</time></trkpt><trkpt lat="42.121824123384876" lon="13.735468506668294"><ele>478.0</ele><time>2026-04-19T15:06:34.999Z</time></trkpt><trkpt lat="42.121694661755576" lon="13.735520759372319"><ele>478.0</ele><time>2026-04-19T15:06:35.999Z</time></trkpt><trkpt lat="42.12156587653508" lon="13.735576505466595"><ele>478.0</ele><time>2026-04-19T15:06:36.999Z</time></trkpt><trkpt lat="42.1214381897016" lon="13.735629790600857"><ele>478.0</ele><time>2026-04-19T15:06:37.999Z</time></trkpt><trkpt lat="42.12130204926063" lon="13.735665741336652"><ele>478.5</ele><time>2026-04-19T15:06:38.999Z</time></trkpt><trkpt lat="42.12117480693972" lon="13.735737443382636"><ele>479.0</ele><time>2026-04-19T15:06:39.999Z</time></trkpt><trkpt lat="42.12104099780973" lon="13.735783958911716"><ele>479.5</ele><time>2026-04-19T15:06:40.999Z</time></trkpt><trkpt lat="42.120911922616855" lon="13.735833351807264"><ele>480.0</ele><time>2026-04-19T15:06:41.999Z</time></trkpt><trkpt lat="42.12078159629798" lon="13.73588543846953"><ele>481.25</ele><time>2026-04-19T15:06:42.999Z</time></trkpt><trkpt lat="42.120650167692176" lon="13.735934326731613"><ele>482.5</ele><time>2026-04-19T15:06:43.999Z</time></trkpt><trkpt lat="42.120520807011424" lon="13.735982506891188"><ele>483.75</ele><time>2026-04-19T15:06:44.999Z</time></trkpt><trkpt lat="42.120389781327" lon="13.736026947521063"><ele>485.0</ele><time>2026-04-19T15:06:45.999Z</time></trkpt><trkpt lat="42.12025597119082" lon="13.736058299282414"><ele>485.0</ele><time>2026-04-19T15:06:46.999Z</time></trkpt><trkpt lat="42.1201300719151" lon="13.736058930281605"><ele>485.0</ele><time>2026-04-19T15:06:47.999Z</time></trkpt><trkpt lat="42.11999909269546" lon="13.736033879249552"><ele>485.0</ele><time>2026-04-19T15:06:48.999Z</time></trkpt><trkpt lat="42.11987330689575" lon="13.735974540804355"><ele>485.0</ele><time>2026-04-19T15:06:49.999Z</time></trkpt><trkpt lat="42.119752253756126" lon="13.735864878160983"><ele>485.66666666666663</ele><time>2026-04-19T15:06:50.999Z</time></trkpt><trkpt lat="42.119629845474826" lon="13.73574859829738"><ele>486.33333333333337</ele><time>2026-04-19T15:06:51.999Z</time></trkpt><trkpt lat="42.119502769875666" lon="13.735633541492758"><ele>487.0</ele><time>2026-04-19T15:06:52.999Z</time></trkpt><trkpt lat="42.119369084265145" lon="13.735523000991472"><ele>487.0</ele><time>2026-04-19T15:06:53.999Z</time></trkpt><trkpt lat="42.11923226072453" lon="13.735418645080546"><ele>487.0</ele><time>2026-04-19T15:06:54.999Z</time></trkpt><trkpt lat="42.11909690399696" lon="13.735321201135989"><ele>487.0</ele><time>2026-04-19T15:06:55.999Z</time></trkpt><trkpt lat="42.1189677202039" lon="13.735229302241114"><ele>487.5</ele><time>2026-04-19T15:06:56.999Z</time></trkpt><trkpt lat="42.118847262977745" lon="13.73514715331127"><ele>488.0</ele><time>2026-04-19T15:06:57.999Z</time></trkpt><trkpt lat="42.1187345373366" lon="13.735069442225088"><ele>488.5</ele><time>2026-04-19T15:06:58.999Z</time></trkpt><trkpt lat="42.11862586759772" lon="13.73500501728422"><ele>489.0</ele><time>2026-04-19T15:06:59.999Z</time></trkpt><trkpt lat="42.11851262603379" lon="13.734927103908465"><ele>489.0</ele><time>2026-04-19T15:07:00.999Z</time></trkpt><trkpt lat="42.11839387857448" lon="13.734919569098063"><ele>489.0</ele><time>2026-04-19T15:07:01.999Z</time></trkpt><trkpt lat="42.11826737096168" lon="13.734963152180189"><ele>489.0</ele><time>2026-04-19T15:07:02.999Z</time></trkpt><trkpt lat="42.118139507240585" lon="13.735051670679985"><ele>489.0</ele><time>2026-04-19T15:07:03.999Z</time></trkpt><trkpt lat="42.11801644291695" lon="13.735150856864864"><ele>491.0</ele><time>2026-04-19T15:07:04.999Z</time></trkpt><trkpt lat="42.11788366551351" lon="13.735252692409082"><ele>493.0</ele><time>2026-04-19T15:07:05.999Z</time></trkpt><trkpt lat="42.117745945628386" lon="13.73534189271172"><ele>495.0</ele><time>2026-04-19T15:07:06.999Z</time></trkpt><trkpt lat="42.11760441478141" lon="13.735407039773502"><ele>495.0</ele><time>2026-04-19T15:07:07.999Z</time></trkpt><trkpt lat="42.11747339573975" lon="13.735428528905292"><ele>495.0</ele><time>2026-04-19T15:07:08.999Z</time></trkpt><trkpt lat="42.117342313370465" lon="13.7354284326472"><ele>495.0</ele><time>2026-04-19T15:07:09.999Z</time></trkpt><trkpt lat="42.1171919804357" lon="13.735427389297525"><ele>495.0</ele><time>2026-04-19T15:07:10.999Z</time></trkpt><trkpt lat="42.117035551555226" lon="13.73544457770558"><ele>496.66666666666663</ele><time>2026-04-19T15:07:11.999Z</time></trkpt><trkpt lat="42.11687551182946" lon="13.735445676744895"><ele>498.3333333333333</ele><time>2026-04-19T15:07:12.999Z</time></trkpt><trkpt lat="42.1167202546045" lon="13.735468564579985"><ele>500.0</ele><time>2026-04-19T15:07:13.999Z</time></trkpt><trkpt lat="42.116580470343536" lon="13.73549045625228"><ele>501.25</ele><time>2026-04-19T15:07:14.999Z</time></trkpt><trkpt lat="42.11646652594605" lon="13.735519378511217"><ele>502.5</ele><time>2026-04-19T15:07:15.999Z</time></trkpt><trkpt lat="42.11636675907519" lon="13.735560688450253"><ele>503.75</ele><time>2026-04-19T15:07:16.999Z</time></trkpt><trkpt lat="42.11626301065248" lon="13.735627668437107"><ele>505.0</ele><time>2026-04-19T15:07:18Z</time></trkpt><trkpt lat="42.116174349494884" lon="13.735728907204997"><ele>505.0</ele><time>2026-04-19T15:07:19Z</time></trkpt><trkpt lat="42.11610153224153" lon="13.73585727975628"><ele>505.0</ele><time>2026-04-19T15:07:20Z</time></trkpt><trkpt lat="42.11604957429967" lon="13.73602816469387"><ele>505.0</ele><time>2026-04-19T15:07:21Z</time></trkpt><trkpt lat="42.116026355335165" lon="13.736209179162424"><ele>505.0</ele><time>2026-04-19T15:07:22Z</time></trkpt><trkpt lat="42.11603983163969" lon="13.736394654670967"><ele>506.6666666666667</ele><time>2026-04-19T15:07:23Z</time></trkpt><trkpt lat="42.11609658584208" lon="13.736575842473247"><ele>508.33333333333337</ele><time>2026-04-19T15:07:24Z</time></trkpt><trkpt lat="42.11618948761079" lon="13.736751937320927"><ele>510.0</ele><time>2026-04-19T15:07:25Z</time></trkpt><trkpt lat="42.116305677014964" lon="13.736923916422112"><ele>510.33333333333337</ele><time>2026-04-19T15:07:26Z</time></trkpt><trkpt lat="42.11643871232047" lon="13.737098662857091"><ele>510.6666666666667</ele><time>2026-04-19T15:07:27Z</time></trkpt><trkpt lat="42.116558528965015" lon="13.737247001458456"><ele>511.0</ele><time>2026-04-19T15:07:28Z</time></trkpt><trkpt lat="42.116651414880366" lon="13.737377169540627"><ele>511.0</ele><time>2026-04-19T15:07:29Z</time></trkpt><trkpt lat="42.11672915549554" lon="13.737521946484637"><ele>511.0</ele><time>2026-04-19T15:07:30Z</time></trkpt><trkpt lat="42.116797298049754" lon="13.73766993396869"><ele>511.0</ele><time>2026-04-19T15:07:31Z</time></trkpt><trkpt lat="42.116838808795976" lon="13.737824694288038"><ele>511.0</ele><time>2026-04-19T15:07:32Z</time></trkpt><trkpt lat="42.1168595115148" lon="13.73799231842779"><ele>511.75</ele><time>2026-04-19T15:07:33Z</time></trkpt><trkpt lat="42.11685734601346" lon="13.738167451280317"><ele>512.5</ele><time>2026-04-19T15:07:34Z</time></trkpt><trkpt lat="42.116829806951" lon="13.738331034771926"><ele>513.25</ele><time>2026-04-19T15:07:35Z</time></trkpt><trkpt lat="42.11678510232555" lon="13.738497367421498"><ele>514.0</ele><time>2026-04-19T15:07:36Z</time></trkpt><trkpt lat="42.11675111473091" lon="13.738663143404835"><ele>514.75</ele><time>2026-04-19T15:07:37Z</time></trkpt><trkpt lat="42.116703551846314" lon="13.738820720567311"><ele>515.5</ele><time>2026-04-19T15:07:38Z</time></trkpt><trkpt lat="42.116657792069944" lon="13.738974033740948"><ele>516.25</ele><time>2026-04-19T15:07:39Z</time></trkpt><trkpt lat="42.11661333138168" lon="13.7391310554622"><ele>517.0</ele><time>2026-04-19T15:07:40Z</time></trkpt><trkpt lat="42.116568359630065" lon="13.739294381825971"><ele>519.75</ele><time>2026-04-19T15:07:41Z</time></trkpt><trkpt lat="42.116520339204875" lon="13.739450711761233"><ele>522.5</ele><time>2026-04-19T15:07:42Z</time></trkpt><trkpt lat="42.116436442753326" lon="13.739573486180767"><ele>525.25</ele><time>2026-04-19T15:07:43Z</time></trkpt><trkpt lat="42.11635723680805" lon="13.739705882216732"><ele>528.0</ele><time>2026-04-19T15:07:44Z</time></trkpt><trkpt lat="42.116280882024306" lon="13.739835672908873"><ele>528.0</ele><time>2026-04-19T15:07:45Z</time></trkpt><trkpt lat="42.11619657623232" lon="13.739960047984653"><ele>528.0</ele><time>2026-04-19T15:07:46Z</time></trkpt><trkpt lat="42.11611934830626" lon="13.740083815855282"><ele>528.0</ele><time>2026-04-19T15:07:47Z</time></trkpt><trkpt lat="42.116043733634996" lon="13.740213134771492"><ele>528.0</ele><time>2026-04-19T15:07:48Z</time></trkpt><trkpt lat="42.11596504093342" lon="13.740345698355586"><ele>527.5</ele><time>2026-04-19T15:07:49Z</time></trkpt><trkpt lat="42.11587849320912" lon="13.74048377251363"><ele>527.0</ele><time>2026-04-19T15:07:50Z</time></trkpt><trkpt lat="42.115792426150165" lon="13.74062196098079"><ele>526.5</ele><time>2026-04-19T15:07:51Z</time></trkpt><trkpt lat="42.115713462244656" lon="13.740765671736895"><ele>526.0</ele><time>2026-04-19T15:07:52Z</time></trkpt><trkpt lat="42.11564930906062" lon="13.740907806913786"><ele>527.6</ele><time>2026-04-19T15:07:53Z</time></trkpt><trkpt lat="42.115593901930474" lon="13.741034657230669"><ele>529.2</ele><time>2026-04-19T15:07:54Z</time></trkpt><trkpt lat="42.11553570554201" lon="13.741151686712735"><ele>530.8</ele><time>2026-04-19T15:07:55Z</time></trkpt><trkpt lat="42.11547298528091" lon="13.741246608517145"><ele>532.4</ele><time>2026-04-19T15:07:56Z</time></trkpt><trkpt lat="42.11540064899997" lon="13.741320863666548"><ele>534.0</ele><time>2026-04-19T15:07:57Z</time></trkpt><trkpt lat="42.11531199863917" lon="13.741371201683252"><ele>534.0</ele><time>2026-04-19T15:07:58Z</time></trkpt><trkpt lat="42.115213319954414" lon="13.741403723962147"><ele>534.0</ele><time>2026-04-19T15:07:59Z</time></trkpt><trkpt lat="42.11512933543694" lon="13.741415127561837"><ele>534.0</ele><time>2026-04-19T15:08:00Z</time></trkpt><trkpt lat="42.11505505702816" lon="13.741436322039656"><ele>534.0</ele><time>2026-04-19T15:08:01Z</time></trkpt><trkpt lat="42.114974459109916" lon="13.741459031164894"><ele>534.0</ele><time>2026-04-19T15:08:02Z</time></trkpt><trkpt lat="42.11489262141541" lon="13.741476013817884"><ele>534.0</ele><time>2026-04-19T15:08:03Z</time></trkpt><trkpt lat="42.114818003646114" lon="13.741477731770466"><ele>533.1666666666666</ele><time>2026-04-19T15:08:04Z</time></trkpt><trkpt lat="42.11474968067033" lon="13.741452018104672"><ele>532.3333333333334</ele><time>2026-04-19T15:08:05Z</time></trkpt><trkpt lat="42.11469952611186" lon="13.741379538529536"><ele>531.5</ele><time>2026-04-19T15:08:06Z</time></trkpt><trkpt lat="42.11460278268689" lon="13.741270431409712"><ele>530.6666666666667</ele><time>2026-04-19T15:08:08Z</time></trkpt><trkpt lat="42.11457319992955" lon="13.741189240248175"><ele>529.8333333333334</ele><time>2026-04-19T15:08:10Z</time></trkpt><trkpt lat="42.11463018412259" lon="13.741228285914323"><ele>529.0</ele><time>2026-04-19T15:09:24Z</time></trkpt><trkpt lat="42.11467597055309" lon="13.74129181493264"><ele>529.0</ele><time>2026-04-19T15:09:29Z</time></trkpt><trkpt lat="42.114568702624695" lon="13.741321883132187"><ele>529.0</ele><time>2026-04-19T15:12:01.015Z</time></trkpt><trkpt lat="42.114558635407484" lon="13.74118098302728"><ele>529.0</ele><time>2026-04-19T15:12:04.018Z</time></trkpt><trkpt lat="42.11451961084363" lon="13.741099599519142"><ele>529.0</ele><time>2026-04-19T15:14:01.999Z</time></trkpt><trkpt lat="42.11444399225442" lon="13.741082204433978"><ele>529.0</ele><time>2026-04-19T15:14:03.999Z</time></trkpt><trkpt lat="42.11434639986356" lon="13.741006725895897"><ele>530.0</ele><time>2026-04-19T15:14:05.999Z</time></trkpt><trkpt lat="42.11427433207184" lon="13.740976611475377"><ele>531.0</ele><time>2026-04-19T15:14:06.999Z</time></trkpt><trkpt lat="42.1142067719217" lon="13.740943203847793"><ele>532.0</ele><time>2026-04-19T15:14:07.999Z</time></trkpt><trkpt lat="42.114138159914276" lon="13.740904231317815"><ele>533.0</ele><time>2026-04-19T15:14:08.999Z</time></trkpt><trkpt lat="42.1140638808227" lon="13.740887152114778"><ele>534.0</ele><time>2026-04-19T15:14:09.999Z</time></trkpt><trkpt lat="42.11398350511715" lon="13.740871925710882"><ele>535.0</ele><time>2026-04-19T15:14:11.999Z</time></trkpt><trkpt lat="42.11390391436965" lon="13.741014080094276"><ele>535.25</ele><time>2026-04-19T15:14:12.999Z</time></trkpt><trkpt lat="42.11380501836647" lon="13.741043435018039"><ele>535.5</ele><time>2026-04-19T15:14:13.999Z</time></trkpt><trkpt lat="42.11369197577124" lon="13.741074575309119"><ele>535.75</ele><time>2026-04-19T15:14:14.999Z</time></trkpt><trkpt lat="42.1135764011984" lon="13.74112275967466"><ele>536.0</ele><time>2026-04-19T15:14:16Z</time></trkpt><trkpt lat="42.11345953772555" lon="13.741172183244494"><ele>533.0</ele><time>2026-04-19T15:14:17Z</time></trkpt><trkpt lat="42.11334356922207" lon="13.741212972717863"><ele>530.0</ele><time>2026-04-19T15:14:18Z</time></trkpt><trkpt lat="42.113224723740885" lon="13.741243420066274"><ele>527.0</ele><time>2026-04-19T15:14:19Z</time></trkpt><trkpt lat="42.113114599134846" lon="13.741264698383704"><ele>524.0</ele><time>2026-04-19T15:14:20Z</time></trkpt><trkpt lat="42.113002787855685" lon="13.741275319212678"><ele>523.25</ele><time>2026-04-19T15:14:21Z</time></trkpt><trkpt lat="42.11288321622943" lon="13.741263736086648"><ele>522.5</ele><time>2026-04-19T15:14:22Z</time></trkpt><trkpt lat="42.11276293647004" lon="13.741245740025471"><ele>521.75</ele><time>2026-04-19T15:14:23Z</time></trkpt><trkpt lat="42.11265049583125" lon="13.74122103202708"><ele>521.0</ele><time>2026-04-19T15:14:24Z</time></trkpt><trkpt lat="42.11254770019826" lon="13.741195291055234"><ele>521.0</ele><time>2026-04-19T15:14:25Z</time></trkpt><trkpt lat="42.11245376391078" lon="13.741172468900807"><ele>521.0</ele><time>2026-04-19T15:14:26Z</time></trkpt><trkpt lat="42.11237463586095" lon="13.741156403127087"><ele>521.0</ele><time>2026-04-19T15:14:27Z</time></trkpt><trkpt lat="42.11230765273115" lon="13.74113962804888"><ele>521.0</ele><time>2026-04-19T15:14:28Z</time></trkpt><trkpt lat="42.11219671436435" lon="13.741112894239093"><ele>521.0</ele><time>2026-04-19T15:14:30Z</time></trkpt><trkpt lat="42.11210217777265" lon="13.74114406622372"><ele>520.0</ele><time>2026-04-19T15:14:32Z</time></trkpt><trkpt lat="42.11204990835921" lon="13.741253967029962"><ele>519.0</ele><time>2026-04-19T15:14:34Z</time></trkpt><trkpt lat="42.11210976479803" lon="13.74140063241211"><ele>518.0</ele><time>2026-04-19T15:14:36Z</time></trkpt><trkpt lat="42.11219068420178" lon="13.741456057011973"><ele>517.0</ele><time>2026-04-19T15:14:37Z</time></trkpt><trkpt lat="42.11227949378859" lon="13.74150634641439"><ele>516.0</ele><time>2026-04-19T15:14:38Z</time></trkpt><trkpt lat="42.112375738784074" lon="13.741568521284103"><ele>517.25</ele><time>2026-04-19T15:14:39Z</time></trkpt><trkpt lat="42.11248797749043" lon="13.741635641052115"><ele>518.5</ele><time>2026-04-19T15:14:40Z</time></trkpt><trkpt lat="42.112602290287484" lon="13.74170511524707"><ele>519.75</ele><time>2026-04-19T15:14:41Z</time></trkpt><trkpt lat="42.112711079638274" lon="13.741782384030696"><ele>521.0</ele><time>2026-04-19T15:14:42Z</time></trkpt><trkpt lat="42.11281474802521" lon="13.741864831859578"><ele>519.4</ele><time>2026-04-19T15:14:43Z</time></trkpt><trkpt lat="42.112916884098055" lon="13.741940973618929"><ele>517.8</ele><time>2026-04-19T15:14:44Z</time></trkpt><trkpt lat="42.11300947588048" lon="13.742013073385783"><ele>516.1999999999999</ele><time>2026-04-19T15:14:45Z</time></trkpt><trkpt lat="42.113092433278155" lon="13.742084138947098"><ele>514.6</ele><time>2026-04-19T15:14:46Z</time></trkpt><trkpt lat="42.11316475426979" lon="13.74214772411633"><ele>513.0</ele><time>2026-04-19T15:14:47Z</time></trkpt><trkpt lat="42.11323086349126" lon="13.7422092647313"><ele>513.0</ele><time>2026-04-19T15:14:48Z</time></trkpt><trkpt lat="42.113284806571144" lon="13.742273054192806"><ele>513.0</ele><time>2026-04-19T15:14:49Z</time></trkpt><trkpt lat="42.113319419150045" lon="13.74235237791877"><ele>513.0</ele><time>2026-04-19T15:14:50Z</time></trkpt><trkpt lat="42.11332174637124" lon="13.742442555640402"><ele>513.0</ele><time>2026-04-19T15:14:51Z</time></trkpt><trkpt lat="42.11329138381798" lon="13.742537843849592"><ele>513.0</ele><time>2026-04-19T15:14:52Z</time></trkpt><trkpt lat="42.11322817895628" lon="13.742618495458307"><ele>513.0</ele><time>2026-04-19T15:14:53Z</time></trkpt><trkpt lat="42.113168219463006" lon="13.742714781449747"><ele>513.0</ele><time>2026-04-19T15:14:54Z</time></trkpt><trkpt lat="42.11310101567902" lon="13.742813929372804"><ele>513.0</ele><time>2026-04-19T15:14:55Z</time></trkpt><trkpt lat="42.11302835632924" lon="13.74292142167544"><ele>513.0</ele><time>2026-04-19T15:14:56Z</time></trkpt><trkpt lat="42.11295464192397" lon="13.743031919713093"><ele>513.0</ele><time>2026-04-19T15:14:57Z</time></trkpt><trkpt lat="42.112879620264295" lon="13.743144348530503"><ele>513.0</ele><time>2026-04-19T15:14:58Z</time></trkpt><trkpt lat="42.11281407489507" lon="13.743272454981073"><ele>513.0</ele><time>2026-04-19T15:14:59Z</time></trkpt><trkpt lat="42.11273876757255" lon="13.743365083803457"><ele>513.0</ele><time>2026-04-19T15:15:00Z</time></trkpt><trkpt lat="42.11266773931964" lon="13.743454190184917"><ele>513.0</ele><time>2026-04-19T15:15:01Z</time></trkpt><trkpt lat="42.11259398034557" lon="13.743542212341115"><ele>513.0</ele><time>2026-04-19T15:15:02Z</time></trkpt><trkpt lat="42.1125132818033" lon="13.743615684043089"><ele>513.0</ele><time>2026-04-19T15:15:03Z</time></trkpt><trkpt lat="42.11241636019994" lon="13.743667052065227"><ele>513.75</ele><time>2026-04-19T15:15:04Z</time></trkpt><trkpt lat="42.11230752414375" lon="13.743709658811225"><ele>514.5</ele><time>2026-04-19T15:15:05Z</time></trkpt><trkpt lat="42.11218783978164" lon="13.743747897455606"><ele>515.25</ele><time>2026-04-19T15:15:06Z</time></trkpt><trkpt lat="42.11206354913291" lon="13.743794980666758"><ele>516.0</ele><time>2026-04-19T15:15:07Z</time></trkpt><trkpt lat="42.11193570492066" lon="13.743857220314363"><ele>516.0</ele><time>2026-04-19T15:15:08Z</time></trkpt><trkpt lat="42.11180794289404" lon="13.74394323413732"><ele>516.0</ele><time>2026-04-19T15:15:09Z</time></trkpt><trkpt lat="42.11167403030227" lon="13.74402830775157"><ele>516.0</ele><time>2026-04-19T15:15:10Z</time></trkpt><trkpt lat="42.11153870294937" lon="13.744123290044998"><ele>516.0</ele><time>2026-04-19T15:15:11Z</time></trkpt><trkpt lat="42.11140036111561" lon="13.744221864515705"><ele>515.0</ele><time>2026-04-19T15:15:11.999Z</time></trkpt><trkpt lat="42.11125141620808" lon="13.74432664793222"><ele>514.0</ele><time>2026-04-19T15:15:12.999Z</time></trkpt><trkpt lat="42.111097019407765" lon="13.744439475094993"><ele>513.0</ele><time>2026-04-19T15:15:13.999Z</time></trkpt><trkpt lat="42.11094118974975" lon="13.744560639011926"><ele>514.0</ele><time>2026-04-19T15:15:14.999Z</time></trkpt><trkpt lat="42.11077175261988" lon="13.744709728775177"><ele>515.0</ele><time>2026-04-19T15:15:15.999Z</time></trkpt><trkpt lat="42.11059922852383" lon="13.744878469395058"><ele>516.0</ele><time>2026-04-19T15:15:16.999Z</time></trkpt><trkpt lat="42.11044388216533" lon="13.745035384495171"><ele>516.0</ele><time>2026-04-19T15:15:17.999Z</time></trkpt><trkpt lat="42.11029409640284" lon="13.745190192040294"><ele>516.0</ele><time>2026-04-19T15:15:18.999Z</time></trkpt><trkpt lat="42.11014801178067" lon="13.745337883824488"><ele>516.0</ele><time>2026-04-19T15:15:19.999Z</time></trkpt><trkpt lat="42.11000821425408" lon="13.745481056403545"><ele>517.0</ele><time>2026-04-19T15:15:20.999Z</time></trkpt><trkpt lat="42.109871666820894" lon="13.745615941489076"><ele>518.0</ele><time>2026-04-19T15:15:21.999Z</time></trkpt><trkpt lat="42.10974570043004" lon="13.74574293533212"><ele>519.0</ele><time>2026-04-19T15:15:22.999Z</time></trkpt><trkpt lat="42.10962634969175" lon="13.745863678263433"><ele>519.0</ele><time>2026-04-19T15:15:23.999Z</time></trkpt><trkpt lat="42.10950950956631" lon="13.745976646343244"><ele>519.0</ele><time>2026-04-19T15:15:24.999Z</time></trkpt><trkpt lat="42.109394253665016" lon="13.746087015895531"><ele>519.0</ele><time>2026-04-19T15:15:25.999Z</time></trkpt><trkpt lat="42.109282735615004" lon="13.746184657582189"><ele>519.0</ele><time>2026-04-19T15:15:26.999Z</time></trkpt><trkpt lat="42.109177969724335" lon="13.746266679847702"><ele>520.0</ele><time>2026-04-19T15:15:27.999Z</time></trkpt><trkpt lat="42.10908290321502" lon="13.746364219121551"><ele>521.0</ele><time>2026-04-19T15:15:28.999Z</time></trkpt><trkpt lat="42.10899191457442" lon="13.7464553032368"><ele>522.0</ele><time>2026-04-19T15:15:29.999Z</time></trkpt><trkpt lat="42.10890262043721" lon="13.746544865240326"><ele>523.0</ele><time>2026-04-19T15:15:30.999Z</time></trkpt><trkpt lat="42.10878079376582" lon="13.74671362874298"><ele>523.0</ele><time>2026-04-19T15:15:31.999Z</time></trkpt><trkpt lat="42.1086826118755" lon="13.74680981244137"><ele>523.0</ele><time>2026-04-19T15:15:32.999Z</time></trkpt><trkpt lat="42.1085923196421" lon="13.746896387703753"><ele>523.0</ele><time>2026-04-19T15:15:33.999Z</time></trkpt><trkpt lat="42.10851793852238" lon="13.7469585166158"><ele>523.0</ele><time>2026-04-19T15:15:34.999Z</time></trkpt><trkpt lat="42.108441800433916" lon="13.747022511085234"><ele>523.0</ele><time>2026-04-19T15:15:35.999Z</time></trkpt><trkpt lat="42.10836277663305" lon="13.747114289921681"><ele>523.25</ele><time>2026-04-19T15:15:36.999Z</time></trkpt><trkpt lat="42.1082820008193" lon="13.747221238403204"><ele>523.5</ele><time>2026-04-19T15:15:37.999Z</time></trkpt><trkpt lat="42.10819954983646" lon="13.747343173959255"><ele>523.75</ele><time>2026-04-19T15:15:38.999Z</time></trkpt><trkpt lat="42.10811144001973" lon="13.747482746470691"><ele>524.0</ele><time>2026-04-19T15:15:39.999Z</time></trkpt><trkpt lat="42.10802228309423" lon="13.747631316991491"><ele>524.3333333333333</ele><time>2026-04-19T15:15:40.999Z</time></trkpt><trkpt lat="42.10792600557354" lon="13.747788945604187"><ele>524.6666666666666</ele><time>2026-04-19T15:15:41.999Z</time></trkpt><trkpt lat="42.10782675602996" lon="13.74794864365964"><ele>525.0</ele><time>2026-04-19T15:15:42.999Z</time></trkpt><trkpt lat="42.10772283081433" lon="13.748116605219566"><ele>525.0</ele><time>2026-04-19T15:15:43.999Z</time></trkpt><trkpt lat="42.107618479427195" lon="13.74827600126726"><ele>525.0</ele><time>2026-04-19T15:15:44.999Z</time></trkpt><trkpt lat="42.107508966837614" lon="13.748423937385166"><ele>525.0</ele><time>2026-04-19T15:15:45.999Z</time></trkpt><trkpt lat="42.10738287927856" lon="13.748546785313298"><ele>525.0</ele><time>2026-04-19T15:15:46.999Z</time></trkpt><trkpt lat="42.10726089238523" lon="13.748660851031822"><ele>525.0</ele><time>2026-04-19T15:15:47.999Z</time></trkpt><trkpt lat="42.10713586432984" lon="13.748763745718245"><ele>525.0</ele><time>2026-04-19T15:15:48.999Z</time></trkpt><trkpt lat="42.10700520530987" lon="13.748864460985672"><ele>525.0</ele><time>2026-04-19T15:15:49.999Z</time></trkpt><trkpt lat="42.10688015423102" lon="13.748979084973021"><ele>525.0</ele><time>2026-04-19T15:15:50.999Z</time></trkpt><trkpt lat="42.10673751241806" lon="13.749079399109739"><ele>525.0</ele><time>2026-04-19T15:15:51.999Z</time></trkpt><trkpt lat="42.10658290537917" lon="13.749195735173776"><ele>525.0</ele><time>2026-04-19T15:15:52.999Z</time></trkpt><trkpt lat="42.10640950481337" lon="13.749328097747242"><ele>525.6666666666666</ele><time>2026-04-19T15:15:53.999Z</time></trkpt><trkpt lat="42.1062388214932" lon="13.749455976881132"><ele>526.3333333333333</ele><time>2026-04-19T15:15:54.999Z</time></trkpt><trkpt lat="42.106061680214374" lon="13.749595936572648"><ele>527.0</ele><time>2026-04-19T15:15:55.999Z</time></trkpt><trkpt lat="42.1058798395123" lon="13.749735061373597"><ele>527.3333333333333</ele><time>2026-04-19T15:15:56.999Z</time></trkpt><trkpt lat="42.10569766763982" lon="13.749873043859505"><ele>527.6666666666666</ele><time>2026-04-19T15:15:57.999Z</time></trkpt><trkpt lat="42.105522944411796" lon="13.750002938474132"><ele>528.0</ele><time>2026-04-19T15:15:58.999Z</time></trkpt><trkpt lat="42.10536086260207" lon="13.75012197086071"><ele>528.0</ele><time>2026-04-19T15:15:59.999Z</time></trkpt><trkpt lat="42.10521348373205" lon="13.750235057833976"><ele>528.0</ele><time>2026-04-19T15:16:00.999Z</time></trkpt><trkpt lat="42.10507339556399" lon="13.750342605522649"><ele>528.0</ele><time>2026-04-19T15:16:01.999Z</time></trkpt><trkpt lat="42.104948203235246" lon="13.750461044852395"><ele>529.0</ele><time>2026-04-19T15:16:02.999Z</time></trkpt><trkpt lat="42.10483568840898" lon="13.750602016562691"><ele>530.0</ele><time>2026-04-19T15:16:03.999Z</time></trkpt><trkpt lat="42.104729654353825" lon="13.750767570855576"><ele>531.0</ele><time>2026-04-19T15:16:04.999Z</time></trkpt><trkpt lat="42.104622996801965" lon="13.750935739787764"><ele>531.0</ele><time>2026-04-19T15:16:05.999Z</time></trkpt><trkpt lat="42.104496559569036" lon="13.751092516473818"><ele>531.0</ele><time>2026-04-19T15:16:06.999Z</time></trkpt><trkpt lat="42.10439511076882" lon="13.751270831419987"><ele>531.0</ele><time>2026-04-19T15:16:07.999Z</time></trkpt><trkpt lat="42.10426842024787" lon="13.751403345040274"><ele>531.0</ele><time>2026-04-19T15:16:08.999Z</time></trkpt><trkpt lat="42.10414651896925" lon="13.751535827748873"><ele>531.0</ele><time>2026-04-19T15:16:09.999Z</time></trkpt><trkpt lat="42.10402096046648" lon="13.751672444827507"><ele>531.0</ele><time>2026-04-19T15:16:10.999Z</time></trkpt><trkpt lat="42.103902011485836" lon="13.751830941827443"><ele>531.6666666666666</ele><time>2026-04-19T15:16:11.999Z</time></trkpt><trkpt lat="42.10378047285" lon="13.75199482696214"><ele>532.3333333333333</ele><time>2026-04-19T15:16:12.999Z</time></trkpt><trkpt lat="42.103659326959665" lon="13.752177640486822"><ele>533.0</ele><time>2026-04-19T15:16:13.999Z</time></trkpt><trkpt lat="42.10353955343259" lon="13.7523724333804"><ele>533.0</ele><time>2026-04-19T15:16:14.999Z</time></trkpt><trkpt lat="42.103426625907865" lon="13.752569224992383"><ele>533.0</ele><time>2026-04-19T15:16:15.999Z</time></trkpt><trkpt lat="42.10331572577568" lon="13.752756696419462"><ele>533.0</ele><time>2026-04-19T15:16:16.999Z</time></trkpt><trkpt lat="42.103210599773725" lon="13.752937003363515"><ele>533.3333333333333</ele><time>2026-04-19T15:16:17.999Z</time></trkpt><trkpt lat="42.10310010308096" lon="13.753110819649518"><ele>533.6666666666666</ele><time>2026-04-19T15:16:18.999Z</time></trkpt><trkpt lat="42.102983803812705" lon="13.753288639597665"><ele>534.0</ele><time>2026-04-19T15:16:19.999Z</time></trkpt><trkpt lat="42.102861323726785" lon="13.753470533731535"><ele>535.0</ele><time>2026-04-19T15:16:20.999Z</time></trkpt><trkpt lat="42.1027383336564" lon="13.753642399058352"><ele>536.0</ele><time>2026-04-19T15:16:21.999Z</time></trkpt><trkpt lat="42.10261231165677" lon="13.753820269970673"><ele>537.0</ele><time>2026-04-19T15:16:22.999Z</time></trkpt><trkpt lat="42.10248796091102" lon="13.75399879197637"><ele>537.0</ele><time>2026-04-19T15:16:23.999Z</time></trkpt><trkpt lat="42.1023620999707" lon="13.754174832939986"><ele>537.0</ele><time>2026-04-19T15:16:24.999Z</time></trkpt><trkpt lat="42.10223515769064" lon="13.75434278100478"><ele>537.0</ele><time>2026-04-19T15:16:25.999Z</time></trkpt><trkpt lat="42.1021178802481" lon="13.754496536652148"><ele>537.25</ele><time>2026-04-19T15:16:26.999Z</time></trkpt><trkpt lat="42.10201098648526" lon="13.754634636237208"><ele>537.5</ele><time>2026-04-19T15:16:27.999Z</time></trkpt><trkpt lat="42.10191171522023" lon="13.754769676042628"><ele>537.75</ele><time>2026-04-19T15:16:28.999Z</time></trkpt><trkpt lat="42.101810965363875" lon="13.754908445660464"><ele>538.0</ele><time>2026-04-19T15:16:29.999Z</time></trkpt><trkpt lat="42.101709332857745" lon="13.755050897325399"><ele>538.0</ele><time>2026-04-19T15:16:30.999Z</time></trkpt><trkpt lat="42.10160549160585" lon="13.755189656881834"><ele>538.0</ele><time>2026-04-19T15:16:31.999Z</time></trkpt><trkpt lat="42.10149420855688" lon="13.75532354851514"><ele>538.0</ele><time>2026-04-19T15:16:32.999Z</time></trkpt><trkpt lat="42.1013507804557" lon="13.75542856614517"><ele>539.3333333333334</ele><time>2026-04-19T15:16:33.999Z</time></trkpt><trkpt lat="42.10121474634684" lon="13.755565769504932"><ele>540.6666666666666</ele><time>2026-04-19T15:16:34.999Z</time></trkpt><trkpt lat="42.10106670908542" lon="13.755681939570653"><ele>542.0</ele><time>2026-04-19T15:16:35.999Z</time></trkpt><trkpt lat="42.10090947616398" lon="13.755793277310305"><ele>542.0</ele><time>2026-04-19T15:16:36.999Z</time></trkpt><trkpt lat="42.10074965843372" lon="13.755902831399442"><ele>542.0</ele><time>2026-04-19T15:16:37.999Z</time></trkpt><trkpt lat="42.10058428134948" lon="13.756011857180866"><ele>542.0</ele><time>2026-04-19T15:16:38.999Z</time></trkpt><trkpt lat="42.100412917212545" lon="13.756117389732594"><ele>543.0</ele><time>2026-04-19T15:16:39.999Z</time></trkpt><trkpt lat="42.10023423645444" lon="13.756221379738143"><ele>544.0</ele><time>2026-04-19T15:16:40.999Z</time></trkpt><trkpt lat="42.10004205757876" lon="13.756336194339873"><ele>545.0</ele><time>2026-04-19T15:16:41.999Z</time></trkpt><trkpt lat="42.09983245546211" lon="13.756459832286673"><ele>545.5</ele><time>2026-04-19T15:16:42.999Z</time></trkpt><trkpt lat="42.09961744708679" lon="13.756586739021555"><ele>546.0</ele><time>2026-04-19T15:16:43.999Z</time></trkpt><trkpt lat="42.09939937857173" lon="13.756716478390064"><ele>546.0</ele><time>2026-04-19T15:16:44.999Z</time></trkpt><trkpt lat="42.09917448672903" lon="13.756855966285345"><ele>546.0</ele><time>2026-04-19T15:16:45.999Z</time></trkpt><trkpt lat="42.09894408342833" lon="13.756992909050675"><ele>547.5</ele><time>2026-04-19T15:16:46.999Z</time></trkpt><trkpt lat="42.098719930400655" lon="13.757131644849919"><ele>549.0</ele><time>2026-04-19T15:16:47.999Z</time></trkpt><trkpt lat="42.098509282304754" lon="13.757262382656997"><ele>549.0</ele><time>2026-04-19T15:16:48.999Z</time></trkpt><trkpt lat="42.098310899166975" lon="13.757383958253843"><ele>549.0</ele><time>2026-04-19T15:16:49.999Z</time></trkpt><trkpt lat="42.09811049800425" lon="13.757499156187302"><ele>549.0</ele><time>2026-04-19T15:16:50.999Z</time></trkpt><trkpt lat="42.097909092904786" lon="13.757611630729922"><ele>551.0</ele><time>2026-04-19T15:16:51.999Z</time></trkpt><trkpt lat="42.0977109604458" lon="13.757730703382611"><ele>553.0</ele><time>2026-04-19T15:16:52.999Z</time></trkpt><trkpt lat="42.09751497947579" lon="13.757853165098021"><ele>555.0</ele><time>2026-04-19T15:16:53.999Z</time></trkpt><trkpt lat="42.09732070514769" lon="13.75797489930484"><ele>555.6666666666666</ele><time>2026-04-19T15:16:54.999Z</time></trkpt><trkpt lat="42.09712625479718" lon="13.758091497558045"><ele>556.3333333333333</ele><time>2026-04-19T15:16:55.999Z</time></trkpt><trkpt lat="42.09692992640973" lon="13.758201599906155"><ele>557.0</ele><time>2026-04-19T15:16:56.999Z</time></trkpt><trkpt lat="42.09673494477326" lon="13.758311527714522"><ele>557.3333333333333</ele><time>2026-04-19T15:16:57.999Z</time></trkpt><trkpt lat="42.09654260313127" lon="13.758422892519311"><ele>557.6666666666666</ele><time>2026-04-19T15:16:58.999Z</time></trkpt><trkpt lat="42.09635139949095" lon="13.75853895579755"><ele>558.0</ele><time>2026-04-19T15:16:59.999Z</time></trkpt><trkpt lat="42.09616325744852" lon="13.758658001802916"><ele>559.0</ele><time>2026-04-19T15:17:00.999Z</time></trkpt><trkpt lat="42.095972229560836" lon="13.758787925848122"><ele>560.0</ele><time>2026-04-19T15:17:01.999Z</time></trkpt><trkpt lat="42.09578453374606" lon="13.758925340516395"><ele>561.0</ele><time>2026-04-19T15:17:02.999Z</time></trkpt><trkpt lat="42.09560053977428" lon="13.75907232147929"><ele>561.6666666666666</ele><time>2026-04-19T15:17:03.999Z</time></trkpt><trkpt lat="42.09541416053588" lon="13.759223823756821"><ele>562.3333333333333</ele><time>2026-04-19T15:17:04.999Z</time></trkpt><trkpt lat="42.09522906809192" lon="13.75937685299733"><ele>563.0</ele><time>2026-04-19T15:17:05.999Z</time></trkpt><trkpt lat="42.095048333379175" lon="13.759526764719425"><ele>564.6666666666666</ele><time>2026-04-19T15:17:06.999Z</time></trkpt><trkpt lat="42.09487254990908" lon="13.75966678372994"><ele>566.3333333333334</ele><time>2026-04-19T15:17:07.999Z</time></trkpt><trkpt lat="42.094701843076464" lon="13.759803549703"><ele>568.0</ele><time>2026-04-19T15:17:08.999Z</time></trkpt><trkpt lat="42.09453508990895" lon="13.75993861787643"><ele>568.0</ele><time>2026-04-19T15:17:09.999Z</time></trkpt><trkpt lat="42.09436854562222" lon="13.76007147837084"><ele>568.0</ele><time>2026-04-19T15:17:10.999Z</time></trkpt><trkpt lat="42.09420577904806" lon="13.760205151454057"><ele>568.0</ele><time>2026-04-19T15:17:11.999Z</time></trkpt><trkpt lat="42.0940442542421" lon="13.760341837796998"><ele>570.3333333333334</ele><time>2026-04-19T15:17:12.999Z</time></trkpt><trkpt lat="42.09388065203549" lon="13.760484480992183"><ele>572.6666666666666</ele><time>2026-04-19T15:17:13.999Z</time></trkpt><trkpt lat="42.09371901013665" lon="13.76063096154289"><ele>575.0</ele><time>2026-04-19T15:17:14.999Z</time></trkpt><trkpt lat="42.09356011431945" lon="13.760792336676523"><ele>575.0</ele><time>2026-04-19T15:17:15.999Z</time></trkpt><trkpt lat="42.0934025241346" lon="13.760956139110265"><ele>575.0</ele><time>2026-04-19T15:17:16.999Z</time></trkpt><trkpt lat="42.09323914691716" lon="13.761093506343586"><ele>575.0</ele><time>2026-04-19T15:17:17.999Z</time></trkpt><trkpt lat="42.09309504641581" lon="13.761257287245085"><ele>577.3333333333333</ele><time>2026-04-19T15:17:18.999Z</time></trkpt><trkpt lat="42.092944049637055" lon="13.76139234120806"><ele>579.6666666666666</ele><time>2026-04-19T15:17:19.999Z</time></trkpt><trkpt lat="42.092792681539855" lon="13.761520098066079"><ele>582.0</ele><time>2026-04-19T15:17:20.999Z</time></trkpt><trkpt lat="42.092646637898575" lon="13.76163805731472"><ele>582.0</ele><time>2026-04-19T15:17:21.999Z</time></trkpt><trkpt lat="42.09250306564112" lon="13.761752446576127"><ele>582.0</ele><time>2026-04-19T15:17:22.999Z</time></trkpt><trkpt lat="42.092363531964935" lon="13.761865225207835"><ele>582.0</ele><time>2026-04-19T15:17:23.999Z</time></trkpt><trkpt lat="42.09222066034967" lon="13.761954824355303"><ele>584.0</ele><time>2026-04-19T15:17:24.999Z</time></trkpt><trkpt lat="42.092092086754455" lon="13.76207959342371"><ele>586.0</ele><time>2026-04-19T15:17:25.999Z</time></trkpt><trkpt lat="42.091950973015294" lon="13.76219401156797"><ele>588.0</ele><time>2026-04-19T15:17:26.999Z</time></trkpt><trkpt lat="42.09180973193848" lon="13.76230902821219"><ele>588.0</ele><time>2026-04-19T15:17:27.999Z</time></trkpt><trkpt lat="42.09166223212302" lon="13.762425938660071"><ele>588.0</ele><time>2026-04-19T15:17:28.999Z</time></trkpt><trkpt lat="42.0915164295379" lon="13.762539838507351"><ele>588.0</ele><time>2026-04-19T15:17:29.999Z</time></trkpt><trkpt lat="42.09136743128766" lon="13.762659424851563"><ele>589.6666666666666</ele><time>2026-04-19T15:17:30.999Z</time></trkpt><trkpt lat="42.09121917109591" lon="13.762780683967659"><ele>591.3333333333333</ele><time>2026-04-19T15:17:31.999Z</time></trkpt><trkpt lat="42.09106691453536" lon="13.762906674621014"><ele>593.0</ele><time>2026-04-19T15:17:32.999Z</time></trkpt><trkpt lat="42.09091240497421" lon="13.763034703325912"><ele>593.0</ele><time>2026-04-19T15:17:33.999Z</time></trkpt><trkpt lat="42.09075428985112" lon="13.763162375489378"><ele>593.0</ele><time>2026-04-19T15:17:34.999Z</time></trkpt><trkpt lat="42.09059624334788" lon="13.763285712902675"><ele>593.0</ele><time>2026-04-19T15:17:35.999Z</time></trkpt><trkpt lat="42.090443035514156" lon="13.76340371086954"><ele>593.0</ele><time>2026-04-19T15:17:36.999Z</time></trkpt><trkpt lat="42.090312046840886" lon="13.763507599485935"><ele>593.0</ele><time>2026-04-19T15:17:37.999Z</time></trkpt><trkpt lat="42.090204951527916" lon="13.763601003193639"><ele>593.0</ele><time>2026-04-19T15:17:38.999Z</time></trkpt><trkpt lat="42.09010704983986" lon="13.763647717150794"><ele>593.0</ele><time>2026-04-19T15:17:39.999Z</time></trkpt><trkpt lat="42.09002986334633" lon="13.76370459681841"><ele>594.8</ele><time>2026-04-19T15:17:40.999Z</time></trkpt><trkpt lat="42.089943689552356" lon="13.7637010048553"><ele>596.5999999999999</ele><time>2026-04-19T15:17:41.999Z</time></trkpt><trkpt lat="42.08986251000951" lon="13.763639538333685"><ele>598.4000000000001</ele><time>2026-04-19T15:17:42.999Z</time></trkpt><trkpt lat="42.089816994206856" lon="13.76352074220009"><ele>600.2</ele><time>2026-04-19T15:17:43.999Z</time></trkpt><trkpt lat="42.08976073765866" lon="13.76341313187235"><ele>602.0</ele><time>2026-04-19T15:17:44.999Z</time></trkpt><trkpt lat="42.08969667333205" lon="13.763312644090309"><ele>602.0</ele><time>2026-04-19T15:17:45.999Z</time></trkpt><trkpt lat="42.089594185888444" lon="13.763272643632252"><ele>602.0</ele><time>2026-04-19T15:17:46.999Z</time></trkpt><trkpt lat="42.08945929075861" lon="13.76329513656018"><ele>602.0</ele><time>2026-04-19T15:17:47.999Z</time></trkpt><trkpt lat="42.089323706418654" lon="13.763337672831906"><ele>602.0</ele><time>2026-04-19T15:17:48.999Z</time></trkpt><trkpt lat="42.08918707201211" lon="13.763381946709075"><ele>604.0</ele><time>2026-04-19T15:17:49.999Z</time></trkpt><trkpt lat="42.08904880758235" lon="13.763444756347875"><ele>606.0</ele><time>2026-04-19T15:17:50.999Z</time></trkpt><trkpt lat="42.08891465731092" lon="13.763527480104067"><ele>608.0</ele><time>2026-04-19T15:17:51.999Z</time></trkpt><trkpt lat="42.08877907974459" lon="13.763639491662177"><ele>608.0</ele><time>2026-04-19T15:17:52.999Z</time></trkpt><trkpt lat="42.088638539244855" lon="13.76377238663695"><ele>608.0</ele><time>2026-04-19T15:17:53.999Z</time></trkpt><trkpt lat="42.08849428836171" lon="13.763897210503458"><ele>608.0</ele><time>2026-04-19T15:17:54.999Z</time></trkpt><trkpt lat="42.08834147704934" lon="13.764030859672504"><ele>611.3333333333333</ele><time>2026-04-19T15:17:55.999Z</time></trkpt><trkpt lat="42.088190066998465" lon="13.76415978294834"><ele>614.6666666666666</ele><time>2026-04-19T15:17:56.999Z</time></trkpt><trkpt lat="42.088045392606936" lon="13.764288206474058"><ele>618.0</ele><time>2026-04-19T15:17:57.999Z</time></trkpt><trkpt lat="42.08790201383284" lon="13.764423946468238"><ele>618.0</ele><time>2026-04-19T15:17:58.999Z</time></trkpt><trkpt lat="42.08777739722043" lon="13.764578918397783"><ele>618.0</ele><time>2026-04-19T15:17:59.999Z</time></trkpt><trkpt lat="42.087665358303106" lon="13.76475129756437"><ele>618.0</ele><time>2026-04-19T15:18:00.999Z</time></trkpt><trkpt lat="42.08756328777012" lon="13.764930719917086"><ele>618.0</ele><time>2026-04-19T15:18:01.999Z</time></trkpt><trkpt lat="42.08744565566536" lon="13.765074632906709"><ele>618.0</ele><time>2026-04-19T15:18:02.999Z</time></trkpt><trkpt lat="42.087344413351445" lon="13.76522797803381"><ele>618.0</ele><time>2026-04-19T15:18:03.999Z</time></trkpt><trkpt lat="42.08721927167254" lon="13.765359033353361"><ele>619.5</ele><time>2026-04-19T15:18:04.999Z</time></trkpt><trkpt lat="42.0870929114194" lon="13.76548143556184"><ele>621.0</ele><time>2026-04-19T15:18:05.999Z</time></trkpt><trkpt lat="42.086982081681626" lon="13.765585362750786"><ele>622.5</ele><time>2026-04-19T15:18:06.999Z</time></trkpt><trkpt lat="42.086872073150154" lon="13.765672562258377"><ele>624.0</ele><time>2026-04-19T15:18:07.999Z</time></trkpt><trkpt lat="42.086769331926575" lon="13.765726040443369"><ele>624.0</ele><time>2026-04-19T15:18:08.999Z</time></trkpt><trkpt lat="42.08666291117695" lon="13.765744685533795"><ele>624.0</ele><time>2026-04-19T15:18:09.999Z</time></trkpt><trkpt lat="42.086555216954665" lon="13.765723734654303"><ele>624.0</ele><time>2026-04-19T15:18:10.999Z</time></trkpt><trkpt lat="42.08644674035361" lon="13.765650351271148"><ele>624.0</ele><time>2026-04-19T15:18:11.999Z</time></trkpt><trkpt lat="42.08634189832581" lon="13.765560111839893"><ele>626.5</ele><time>2026-04-19T15:18:12.999Z</time></trkpt><trkpt lat="42.086243375739336" lon="13.765458736910158"><ele>629.0</ele><time>2026-04-19T15:18:13.999Z</time></trkpt><trkpt lat="42.086137675507906" lon="13.765376317925273"><ele>631.5</ele><time>2026-04-19T15:18:14.999Z</time></trkpt><trkpt lat="42.08600858050275" lon="13.76532267976456"><ele>634.0</ele><time>2026-04-19T15:18:15.999Z</time></trkpt><trkpt lat="42.08587677524085" lon="13.765280039382132"><ele>636.6666666666667</ele><time>2026-04-19T15:18:16.999Z</time></trkpt><trkpt lat="42.085725394969536" lon="13.76529673168058"><ele>639.3333333333334</ele><time>2026-04-19T15:18:17.999Z</time></trkpt><trkpt lat="42.085568881717066" lon="13.765344147847511"><ele>642.0</ele><time>2026-04-19T15:18:18.999Z</time></trkpt><trkpt lat="42.08541339379476" lon="13.765439920947424"><ele>642.0</ele><time>2026-04-19T15:18:19.999Z</time></trkpt><trkpt lat="42.085261771906005" lon="13.765547212138808"><ele>642.0</ele><time>2026-04-19T15:18:20.999Z</time></trkpt><trkpt lat="42.08512369834961" lon="13.76564308316514"><ele>642.0</ele><time>2026-04-19T15:18:21.999Z</time></trkpt><trkpt lat="42.085015527953885" lon="13.765729306131114"><ele>643.4000000000001</ele><time>2026-04-19T15:18:22.999Z</time></trkpt><trkpt lat="42.0849215996066" lon="13.765811615785196"><ele>644.8000000000001</ele><time>2026-04-19T15:18:23.999Z</time></trkpt><trkpt lat="42.08484656839473" lon="13.765894852347293"><ele>646.2</ele><time>2026-04-19T15:18:24.999Z</time></trkpt><trkpt lat="42.08481527017156" lon="13.766016168701151"><ele>647.6</ele><time>2026-04-19T15:18:25.999Z</time></trkpt><trkpt lat="42.08483266939417" lon="13.7661435460717"><ele>649.0</ele><time>2026-04-19T15:18:26.999Z</time></trkpt><trkpt lat="42.08489524554588" lon="13.766250094336206"><ele>649.25</ele><time>2026-04-19T15:18:27.999Z</time></trkpt><trkpt lat="42.084992972078155" lon="13.766306522233368"><ele>649.5</ele><time>2026-04-19T15:18:28.999Z</time></trkpt><trkpt lat="42.08510717689164" lon="13.766270381993571"><ele>649.75</ele><time>2026-04-19T15:18:29.999Z</time></trkpt><trkpt lat="42.08522861154603" lon="13.766248102954249"><ele>650.0</ele><time>2026-04-19T15:18:30.999Z</time></trkpt><trkpt lat="42.08535276265126" lon="13.76619066124896"><ele>650.0</ele><time>2026-04-19T15:18:31.999Z</time></trkpt><trkpt lat="42.08547357279445" lon="13.766150555480557"><ele>650.0</ele><time>2026-04-19T15:18:32.999Z</time></trkpt><trkpt lat="42.08559985013824" lon="13.766119176637792"><ele>650.0</ele><time>2026-04-19T15:18:33.999Z</time></trkpt><trkpt lat="42.08572201686894" lon="13.766103969246341"><ele>650.0</ele><time>2026-04-19T15:18:34.999Z</time></trkpt><trkpt lat="42.085849550375954" lon="13.766106070120161"><ele>649.25</ele><time>2026-04-19T15:18:35.999Z</time></trkpt><trkpt lat="42.08596732129259" lon="13.76618663334295"><ele>648.5</ele><time>2026-04-19T15:18:36.999Z</time></trkpt><trkpt lat="42.08608128998479" lon="13.766276451212835"><ele>647.75</ele><time>2026-04-19T15:18:37.999Z</time></trkpt><trkpt lat="42.08619776379521" lon="13.766394542272733"><ele>647.0</ele><time>2026-04-19T15:18:38.999Z</time></trkpt><trkpt lat="42.086300058191384" lon="13.766532782600748"><ele>647.0</ele><time>2026-04-19T15:18:39.999Z</time></trkpt><trkpt lat="42.08636693586878" lon="13.766665360260282"><ele>647.0</ele><time>2026-04-19T15:18:40.999Z</time></trkpt><trkpt lat="42.086406841779464" lon="13.7667922263385"><ele>647.0</ele><time>2026-04-19T15:18:41.999Z</time></trkpt><trkpt lat="42.08641576336052" lon="13.766928321882203"><ele>647.0</ele><time>2026-04-19T15:18:42.999Z</time></trkpt><trkpt lat="42.08638535020109" lon="13.767072034847631"><ele>647.0</ele><time>2026-04-19T15:18:43.999Z</time></trkpt><trkpt lat="42.086352707858346" lon="13.767241670490574"><ele>651.3333333333333</ele><time>2026-04-19T15:18:44.999Z</time></trkpt><trkpt lat="42.086312500478904" lon="13.767427468079962"><ele>655.6666666666666</ele><time>2026-04-19T15:18:45.999Z</time></trkpt><trkpt lat="42.086277535102255" lon="13.767625450749465"><ele>660.0</ele><time>2026-04-19T15:18:46.999Z</time></trkpt><trkpt lat="42.086226860569596" lon="13.767827267464842"><ele>660.0</ele><time>2026-04-19T15:18:47.999Z</time></trkpt><trkpt lat="42.08615468490136" lon="13.768021365404767"><ele>660.0</ele><time>2026-04-19T15:18:48.999Z</time></trkpt><trkpt lat="42.08607064207241" lon="13.768195849729254"><ele>660.0</ele><time>2026-04-19T15:18:49.999Z</time></trkpt><trkpt lat="42.085960927975094" lon="13.768367004424267"><ele>657.0</ele><time>2026-04-19T15:18:50.999Z</time></trkpt><trkpt lat="42.08584186485994" lon="13.768564351857117"><ele>654.0</ele><time>2026-04-19T15:18:51.999Z</time></trkpt><trkpt lat="42.08572125644972" lon="13.768729454629701"><ele>651.0</ele><time>2026-04-19T15:18:52.999Z</time></trkpt><trkpt lat="42.08560684856464" lon="13.768897136472063"><ele>657.6666666666666</ele><time>2026-04-19T15:18:53.999Z</time></trkpt><trkpt lat="42.08550800164712" lon="13.769083894717982"><ele>664.3333333333333</ele><time>2026-04-19T15:18:54.999Z</time></trkpt><trkpt lat="42.08542464626768" lon="13.769285168180117"><ele>671.0</ele><time>2026-04-19T15:18:55.999Z</time></trkpt><trkpt lat="42.0853565394545" lon="13.769503598605004"><ele>671.0</ele><time>2026-04-19T15:18:56.999Z</time></trkpt><trkpt lat="42.085295451145434" lon="13.7697293207606"><ele>671.0</ele><time>2026-04-19T15:18:57.999Z</time></trkpt><trkpt lat="42.085241026308886" lon="13.769956947599653"><ele>671.0</ele><time>2026-04-19T15:18:58.999Z</time></trkpt><trkpt lat="42.085186001097874" lon="13.770184332756163"><ele>670.0</ele><time>2026-04-19T15:18:59.999Z</time></trkpt><trkpt lat="42.085129867560674" lon="13.770416100190285"><ele>669.0</ele><time>2026-04-19T15:19:00.999Z</time></trkpt><trkpt lat="42.08507195903616" lon="13.770645885729328"><ele>668.0</ele><time>2026-04-19T15:19:01.999Z</time></trkpt><trkpt lat="42.085017109016164" lon="13.770877962425121"><ele>668.6666666666666</ele><time>2026-04-19T15:19:02.999Z</time></trkpt><trkpt lat="42.084964157853776" lon="13.771094704544446"><ele>669.3333333333334</ele><time>2026-04-19T15:19:03.999Z</time></trkpt><trkpt lat="42.08491958602088" lon="13.771286523625156"><ele>670.0</ele><time>2026-04-19T15:19:04.999Z</time></trkpt><trkpt lat="42.08487549958518" lon="13.7714772123344"><ele>674.0</ele><time>2026-04-19T15:19:05.999Z</time></trkpt><trkpt lat="42.08483229950547" lon="13.771661668168676"><ele>678.0</ele><time>2026-04-19T15:19:06.999Z</time></trkpt><trkpt lat="42.084799372157065" lon="13.771830879361488"><ele>682.0</ele><time>2026-04-19T15:19:07.999Z</time></trkpt><trkpt lat="42.08476838457219" lon="13.771981551275404"><ele>686.0</ele><time>2026-04-19T15:19:08.999Z</time></trkpt><trkpt lat="42.084717209742415" lon="13.772099250545317"><ele>686.0</ele><time>2026-04-19T15:19:09.999Z</time></trkpt><trkpt lat="42.08466846257365" lon="13.772191723589343"><ele>686.0</ele><time>2026-04-19T15:19:10.999Z</time></trkpt><trkpt lat="42.08460688616729" lon="13.772262891473968"><ele>686.0</ele><time>2026-04-19T15:19:11.999Z</time></trkpt><trkpt lat="42.08451149145062" lon="13.77227053729227"><ele>686.0</ele><time>2026-04-19T15:19:12.999Z</time></trkpt><trkpt lat="42.084404429064996" lon="13.772231145291107"><ele>686.0</ele><time>2026-04-19T15:19:13.999Z</time></trkpt><trkpt lat="42.084292103967535" lon="13.772175881833224"><ele>686.0</ele><time>2026-04-19T15:19:14.999Z</time></trkpt><trkpt lat="42.084159634549195" lon="13.772140627525019"><ele>686.0</ele><time>2026-04-19T15:19:15.999Z</time></trkpt><trkpt lat="42.08401668988211" lon="13.772100849723747"><ele>686.0</ele><time>2026-04-19T15:19:16.999Z</time></trkpt><trkpt lat="42.083870060993405" lon="13.772068288971246"><ele>686.0</ele><time>2026-04-19T15:19:17.999Z</time></trkpt><trkpt lat="42.08371876370961" lon="13.772043026251026"><ele>687.3333333333333</ele><time>2026-04-19T15:19:18.999Z</time></trkpt><trkpt lat="42.083562075465245" lon="13.772032042258203"><ele>688.6666666666666</ele><time>2026-04-19T15:19:19.999Z</time></trkpt><trkpt lat="42.083407982161035" lon="13.772052733504898"><ele>690.0</ele><time>2026-04-19T15:19:20.999Z</time></trkpt><trkpt lat="42.083258431631336" lon="13.772110119010183"><ele>692.0</ele><time>2026-04-19T15:19:21.999Z</time></trkpt><trkpt lat="42.08311276563449" lon="13.772185104275032"><ele>694.0</ele><time>2026-04-19T15:19:22.999Z</time></trkpt><trkpt lat="42.082968989897566" lon="13.77227624818028"><ele>696.0</ele><time>2026-04-19T15:19:23.999Z</time></trkpt><trkpt lat="42.08283104333804" lon="13.772363173231085"><ele>696.0</ele><time>2026-04-19T15:19:24.999Z</time></trkpt><trkpt lat="42.082706375008705" lon="13.77243728837553"><ele>696.0</ele><time>2026-04-19T15:19:25.999Z</time></trkpt><trkpt lat="42.082588060475985" lon="13.772507970716656"><ele>696.0</ele><time>2026-04-19T15:19:26.999Z</time></trkpt><trkpt lat="42.08248519810648" lon="13.772579623524402"><ele>696.0</ele><time>2026-04-19T15:19:27.999Z</time></trkpt><trkpt lat="42.082394087215214" lon="13.772656218409036"><ele>701.5</ele><time>2026-04-19T15:19:28.999Z</time></trkpt><trkpt lat="42.082313312854005" lon="13.772751351604176"><ele>707.0</ele><time>2026-04-19T15:19:29.999Z</time></trkpt><trkpt lat="42.08226675597144" lon="13.772891063737331"><ele>712.5</ele><time>2026-04-19T15:19:30.999Z</time></trkpt><trkpt lat="42.08225691751417" lon="13.773065656463036"><ele>718.0</ele><time>2026-04-19T15:19:31.999Z</time></trkpt><trkpt lat="42.08226949607311" lon="13.773245246698933"><ele>718.0</ele><time>2026-04-19T15:19:32.999Z</time></trkpt><trkpt lat="42.08226115597205" lon="13.773396742619488"><ele>718.0</ele><time>2026-04-19T15:19:33.999Z</time></trkpt><trkpt lat="42.08225157828251" lon="13.773510292420244"><ele>718.0</ele><time>2026-04-19T15:19:34.999Z</time></trkpt><trkpt lat="42.08219644404615" lon="13.773623156647874"><ele>718.0</ele><time>2026-04-19T15:19:36.999Z</time></trkpt><trkpt lat="42.082134253915584" lon="13.773606935667422"><ele>718.0</ele><time>2026-04-19T15:19:37.999Z</time></trkpt><trkpt lat="42.08209222353576" lon="13.773532138723425"><ele>718.0</ele><time>2026-04-19T15:19:38.999Z</time></trkpt><trkpt lat="42.082071762216714" lon="13.773424382244407"><ele>718.0</ele><time>2026-04-19T15:19:39.999Z</time></trkpt><trkpt lat="42.08206077927435" lon="13.773294027216824"><ele>718.0</ele><time>2026-04-19T15:19:40.999Z</time></trkpt><trkpt lat="42.08204346752513" lon="13.773152308165596"><ele>718.0</ele><time>2026-04-19T15:19:41.999Z</time></trkpt><trkpt lat="42.08201582312158" lon="13.772991473950135"><ele>718.0</ele><time>2026-04-19T15:19:42.999Z</time></trkpt><trkpt lat="42.08199137952266" lon="13.772820863243208"><ele>715.8</ele><time>2026-04-19T15:19:43.999Z</time></trkpt><trkpt lat="42.08197277989879" lon="13.772650457069588"><ele>713.5999999999999</ele><time>2026-04-19T15:19:44.999Z</time></trkpt><trkpt lat="42.081945036933405" lon="13.772507309393413"><ele>711.4000000000001</ele><time>2026-04-19T15:19:45.999Z</time></trkpt><trkpt lat="42.0819165453279" lon="13.77238645020958"><ele>709.2</ele><time>2026-04-19T15:19:46.999Z</time></trkpt><trkpt lat="42.08188814378972" lon="13.772273965404121"><ele>707.0</ele><time>2026-04-19T15:19:47.999Z</time></trkpt><trkpt lat="42.08184755487807" lon="13.772165405570945"><ele>707.0</ele><time>2026-04-19T15:19:48.999Z</time></trkpt><trkpt lat="42.081784992987465" lon="13.77208489552963"><ele>707.0</ele><time>2026-04-19T15:19:49.999Z</time></trkpt><trkpt lat="42.081721523472694" lon="13.77203123220122"><ele>707.0</ele><time>2026-04-19T15:19:50.999Z</time></trkpt><trkpt lat="42.08165249639498" lon="13.772005252172557"><ele>707.0</ele><time>2026-04-19T15:19:51.999Z</time></trkpt><trkpt lat="42.08156592756105" lon="13.771999996940377"><ele>707.0</ele><time>2026-04-19T15:19:52.999Z</time></trkpt><trkpt lat="42.08147913693194" lon="13.771968392802233"><ele>707.0</ele><time>2026-04-19T15:19:53.999Z</time></trkpt><trkpt lat="42.08140133961211" lon="13.771889805841168"><ele>707.5</ele><time>2026-04-19T15:19:54.999Z</time></trkpt><trkpt lat="42.081324499284094" lon="13.771775027543566"><ele>708.0</ele><time>2026-04-19T15:19:55.999Z</time></trkpt><trkpt lat="42.08123942626948" lon="13.771651767402487"><ele>708.5</ele><time>2026-04-19T15:19:56.999Z</time></trkpt><trkpt lat="42.0811473863824" lon="13.771526440557626"><ele>709.0</ele><time>2026-04-19T15:19:57.999Z</time></trkpt><trkpt lat="42.08104732583705" lon="13.77139888616356"><ele>709.0</ele><time>2026-04-19T15:19:58.999Z</time></trkpt><trkpt lat="42.08094687818831" lon="13.771281541825145"><ele>709.0</ele><time>2026-04-19T15:19:59.999Z</time></trkpt><trkpt lat="42.080853515665346" lon="13.771199438218948"><ele>709.0</ele><time>2026-04-19T15:20:00.999Z</time></trkpt><trkpt lat="42.08076859593815" lon="13.771134591803941"><ele>709.0</ele><time>2026-04-19T15:20:01.999Z</time></trkpt><trkpt lat="42.08069326996424" lon="13.77109138411347"><ele>709.0</ele><time>2026-04-19T15:20:02.999Z</time></trkpt><trkpt lat="42.080615210917024" lon="13.771048124446885"><ele>709.4000000000001</ele><time>2026-04-19T15:20:03.999Z</time></trkpt><trkpt lat="42.08055501957521" lon="13.771005889255001"><ele>709.8</ele><time>2026-04-19T15:20:04.999Z</time></trkpt><trkpt lat="42.080466159277584" lon="13.77090269948146"><ele>710.2</ele><time>2026-04-19T15:20:06.999Z</time></trkpt><trkpt lat="42.08042047637346" lon="13.77082648100521"><ele>710.5999999999999</ele><time>2026-04-19T15:20:07.999Z</time></trkpt><trkpt lat="42.08036366503293" lon="13.770731126830603"><ele>711.0</ele><time>2026-04-19T15:20:08.999Z</time></trkpt><trkpt lat="42.08028078861565" lon="13.770624737984539"><ele>711.0</ele><time>2026-04-19T15:20:09.999Z</time></trkpt><trkpt lat="42.08017987644162" lon="13.770507233688415"><ele>711.0</ele><time>2026-04-19T15:20:10.999Z</time></trkpt><trkpt lat="42.080068126432515" lon="13.770372989604079"><ele>711.0</ele><time>2026-04-19T15:20:11.999Z</time></trkpt><trkpt lat="42.07994622571101" lon="13.770220946594112"><ele>711.0</ele><time>2026-04-19T15:20:12.999Z</time></trkpt><trkpt lat="42.079817614506524" lon="13.770060724243356"><ele>707.6666666666666</ele><time>2026-04-19T15:20:13.999Z</time></trkpt><trkpt lat="42.07967433430577" lon="13.76989247951506"><ele>704.3333333333333</ele><time>2026-04-19T15:20:14.999Z</time></trkpt><trkpt lat="42.079521600351846" lon="13.769715334421162"><ele>701.0</ele><time>2026-04-19T15:20:15.999Z</time></trkpt><trkpt lat="42.079370032884356" lon="13.769543068251174"><ele>701.0</ele><time>2026-04-19T15:20:16.999Z</time></trkpt><trkpt lat="42.079231112866054" lon="13.769376768100061"><ele>701.0</ele><time>2026-04-19T15:20:17.999Z</time></trkpt><trkpt lat="42.07909417141482" lon="13.769213023999955"><ele>701.0</ele><time>2026-04-19T15:20:18.999Z</time></trkpt><trkpt lat="42.07895996681227" lon="13.769052679415111"><ele>697.6666666666666</ele><time>2026-04-19T15:20:19.999Z</time></trkpt><trkpt lat="42.07882956011743" lon="13.768896156391941"><ele>694.3333333333334</ele><time>2026-04-19T15:20:20.999Z</time></trkpt><trkpt lat="42.0786980590915" lon="13.768741355749851"><ele>691.0</ele><time>2026-04-19T15:20:21.999Z</time></trkpt><trkpt lat="42.078566760524" lon="13.768593532080732"><ele>689.3333333333334</ele><time>2026-04-19T15:20:22.999Z</time></trkpt><trkpt lat="42.078451683215675" lon="13.768429291372327"><ele>687.6666666666666</ele><time>2026-04-19T15:20:23.999Z</time></trkpt><trkpt lat="42.07831718778084" lon="13.768302892707595"><ele>686.0</ele><time>2026-04-19T15:20:24.999Z</time></trkpt><trkpt lat="42.07820557488402" lon="13.76816510057647"><ele>686.0</ele><time>2026-04-19T15:20:25.999Z</time></trkpt><trkpt lat="42.078112783665944" lon="13.768043554669784"><ele>686.0</ele><time>2026-04-19T15:20:26.999Z</time></trkpt><trkpt lat="42.078045448430366" lon="13.767928040753647"><ele>686.0</ele><time>2026-04-19T15:20:27.999Z</time></trkpt><trkpt lat="42.07800970846541" lon="13.767791215151979"><ele>686.0</ele><time>2026-04-19T15:20:28.999Z</time></trkpt><trkpt lat="42.078006261085065" lon="13.767648963548895"><ele>686.4</ele><time>2026-04-19T15:20:29.999Z</time></trkpt><trkpt lat="42.078026012889026" lon="13.76751046943706"><ele>686.8</ele><time>2026-04-19T15:20:30.999Z</time></trkpt><trkpt lat="42.07806624394352" lon="13.767377887726722"><ele>687.1999999999999</ele><time>2026-04-19T15:20:31.999Z</time></trkpt><trkpt lat="42.078110679504526" lon="13.767248953632341"><ele>687.5999999999999</ele><time>2026-04-19T15:20:32.999Z</time></trkpt><trkpt lat="42.078156074404205" lon="13.767120281526088"><ele>688.0</ele><time>2026-04-19T15:20:33.999Z</time></trkpt><trkpt lat="42.078208266217445" lon="13.766991286002984"><ele>687.75</ele><time>2026-04-19T15:20:34.999Z</time></trkpt><trkpt lat="42.07826491839188" lon="13.76685752022583"><ele>687.5</ele><time>2026-04-19T15:20:35.999Z</time></trkpt><trkpt lat="42.07832235774497" lon="13.76672313544259"><ele>687.25</ele><time>2026-04-19T15:20:36.999Z</time></trkpt><trkpt lat="42.07838774455745" lon="13.766594109383318"><ele>687.0</ele><time>2026-04-19T15:20:37.999Z</time></trkpt><trkpt lat="42.07846273155749" lon="13.766468657056613"><ele>687.0</ele><time>2026-04-19T15:20:38.999Z</time></trkpt><trkpt lat="42.07853729758974" lon="13.766341078573102"><ele>687.0</ele><time>2026-04-19T15:20:39.999Z</time></trkpt><trkpt lat="42.07860951553518" lon="13.766208387735945"><ele>687.0</ele><time>2026-04-19T15:20:40.999Z</time></trkpt><trkpt lat="42.07868200728517" lon="13.766071227189029"><ele>687.0</ele><time>2026-04-19T15:20:41.999Z</time></trkpt><trkpt lat="42.07875477922946" lon="13.76593291764867"><ele>689.25</ele><time>2026-04-19T15:20:42.999Z</time></trkpt><trkpt lat="42.07882833692909" lon="13.765788305066826"><ele>691.5</ele><time>2026-04-19T15:20:43.999Z</time></trkpt><trkpt lat="42.07890728603188" lon="13.765644813417909"><ele>693.75</ele><time>2026-04-19T15:20:44.999Z</time></trkpt><trkpt lat="42.07899145021607" lon="13.765498602247323"><ele>696.0</ele><time>2026-04-19T15:20:45.999Z</time></trkpt><trkpt lat="42.079071901646245" lon="13.765345280749786"><ele>696.75</ele><time>2026-04-19T15:20:46.999Z</time></trkpt><trkpt lat="42.07915450927252" lon="13.765184129321174"><ele>697.5</ele><time>2026-04-19T15:20:47.999Z</time></trkpt><trkpt lat="42.079241924909425" lon="13.765020343518056"><ele>698.25</ele><time>2026-04-19T15:20:48.999Z</time></trkpt><trkpt lat="42.07933056527731" lon="13.764858135028053"><ele>699.0</ele><time>2026-04-19T15:20:49.999Z</time></trkpt><trkpt lat="42.079420878558174" lon="13.764694475230018"><ele>699.0</ele><time>2026-04-19T15:20:50.999Z</time></trkpt><trkpt lat="42.079505761819334" lon="13.764516574813985"><ele>699.0</ele><time>2026-04-19T15:20:51.999Z</time></trkpt><trkpt lat="42.07958945613148" lon="13.764327587264154"><ele>699.0</ele><time>2026-04-19T15:20:52.999Z</time></trkpt><trkpt lat="42.07966332172583" lon="13.764154239565466"><ele>699.8333333333334</ele><time>2026-04-19T15:20:53.999Z</time></trkpt><trkpt lat="42.07971582424469" lon="13.764019783264395"><ele>700.6666666666666</ele><time>2026-04-19T15:20:54.999Z</time></trkpt><trkpt lat="42.07975309365699" lon="13.763913832265995"><ele>701.5</ele><time>2026-04-19T15:20:55.999Z</time></trkpt><trkpt lat="42.07977087120794" lon="13.763823713541447"><ele>702.3333333333333</ele><time>2026-04-19T15:20:56.999Z</time></trkpt><trkpt lat="42.07976574783527" lon="13.76372380380043"><ele>703.1666666666666</ele><time>2026-04-19T15:20:57.999Z</time></trkpt><trkpt lat="42.07975187995977" lon="13.763627235053592"><ele>704.0</ele><time>2026-04-19T15:20:58.999Z</time></trkpt><trkpt lat="42.0796680257423" lon="13.763537170951107"><ele>704.0</ele><time>2026-04-19T15:20:59.999Z</time></trkpt><trkpt lat="42.079583296717736" lon="13.763473047804467"><ele>704.0</ele><time>2026-04-19T15:21:00.999Z</time></trkpt><trkpt lat="42.079471316382815" lon="13.763469826583597"><ele>704.0</ele><time>2026-04-19T15:21:01.999Z</time></trkpt><trkpt lat="42.07935951218732" lon="13.763485502857925"><ele>704.0</ele><time>2026-04-19T15:21:02.999Z</time></trkpt><trkpt lat="42.07923830447743" lon="13.76352551102034"><ele>704.0</ele><time>2026-04-19T15:21:03.999Z</time></trkpt><trkpt lat="42.07910923219132" lon="13.763563513095848"><ele>706.0</ele><time>2026-04-19T15:21:04.999Z</time></trkpt><trkpt lat="42.078968353856176" lon="13.763605241979999"><ele>708.0</ele><time>2026-04-19T15:21:05.999Z</time></trkpt><trkpt lat="42.07881788442743" lon="13.763648237688002"><ele>710.0</ele><time>2026-04-19T15:21:06.999Z</time></trkpt><trkpt lat="42.07868052383319" lon="13.763681577393875"><ele>712.0</ele><time>2026-04-19T15:21:07.999Z</time></trkpt><trkpt lat="42.0785586677479" lon="13.763714850841703"><ele>712.0</ele><time>2026-04-19T15:21:08.999Z</time></trkpt><trkpt lat="42.0784455811828" lon="13.763713504543194"><ele>712.0</ele><time>2026-04-19T15:21:09.999Z</time></trkpt><trkpt lat="42.07834215039356" lon="13.76368579128811"><ele>712.0</ele><time>2026-04-19T15:21:10.999Z</time></trkpt><trkpt lat="42.078239079395324" lon="13.763611201458142"><ele>712.0</ele><time>2026-04-19T15:21:11.999Z</time></trkpt><trkpt lat="42.07814903655622" lon="13.7634757319369"><ele>715.3333333333334</ele><time>2026-04-19T15:21:12.999Z</time></trkpt><trkpt lat="42.07805779033382" lon="13.763316511730421"><ele>718.6666666666666</ele><time>2026-04-19T15:21:13.999Z</time></trkpt><trkpt lat="42.07796075042755" lon="13.763150464967906"><ele>722.0</ele><time>2026-04-19T15:21:14.999Z</time></trkpt><trkpt lat="42.077872449819004" lon="13.762982594619135"><ele>722.0</ele><time>2026-04-19T15:21:15.999Z</time></trkpt><trkpt lat="42.07781202324254" lon="13.762801967707812"><ele>722.0</ele><time>2026-04-19T15:21:16.999Z</time></trkpt><trkpt lat="42.0777782482319" lon="13.76259943946801"><ele>722.0</ele><time>2026-04-19T15:21:17.999Z</time></trkpt><trkpt lat="42.07777088005187" lon="13.762386289077288"><ele>722.6666666666666</ele><time>2026-04-19T15:21:18.999Z</time></trkpt><trkpt lat="42.077749323007744" lon="13.762195950086197"><ele>723.3333333333334</ele><time>2026-04-19T15:21:19.999Z</time></trkpt><trkpt lat="42.077715315977706" lon="13.761989347601363"><ele>724.0</ele><time>2026-04-19T15:21:20.999Z</time></trkpt><trkpt lat="42.07764819333134" lon="13.761783492800456"><ele>724.0</ele><time>2026-04-19T15:21:21.999Z</time></trkpt><trkpt lat="42.07755888728727" lon="13.761588025782816"><ele>724.0</ele><time>2026-04-19T15:21:22.999Z</time></trkpt><trkpt lat="42.07747352399964" lon="13.761433885871234"><ele>724.0</ele><time>2026-04-19T15:21:24.999Z</time></trkpt><trkpt lat="42.07735834261698" lon="13.761350044195712"><ele>724.0</ele><time>2026-04-19T15:21:25.999Z</time></trkpt><trkpt lat="42.07721414789337" lon="13.761291427211027"><ele>730.0</ele><time>2026-04-19T15:21:26.999Z</time></trkpt><trkpt lat="42.07705335078406" lon="13.761251871495185"><ele>736.0</ele><time>2026-04-19T15:21:27.999Z</time></trkpt><trkpt lat="42.07688707400445" lon="13.761207846419623"><ele>742.0</ele><time>2026-04-19T15:21:28.999Z</time></trkpt><trkpt lat="42.07672907608195" lon="13.761147997521187"><ele>744.75</ele><time>2026-04-19T15:21:29.999Z</time></trkpt><trkpt lat="42.076594525682" lon="13.761096551691072"><ele>747.5</ele><time>2026-04-19T15:21:30.999Z</time></trkpt><trkpt lat="42.076476954192174" lon="13.76105185218493"><ele>750.25</ele><time>2026-04-19T15:21:31.999Z</time></trkpt><trkpt lat="42.076376750761696" lon="13.76099755675861"><ele>753.0</ele><time>2026-04-19T15:21:32.999Z</time></trkpt><trkpt lat="42.076286905455625" lon="13.760909009713536"><ele>753.0</ele><time>2026-04-19T15:21:33.999Z</time></trkpt><trkpt lat="42.07621508747166" lon="13.76082842145902"><ele>753.0</ele><time>2026-04-19T15:21:34.999Z</time></trkpt><trkpt lat="42.076131742419136" lon="13.760778358668794"><ele>753.0</ele><time>2026-04-19T15:21:35.999Z</time></trkpt><trkpt lat="42.076098280000735" lon="13.76070021850439"><ele>753.0</ele><time>2026-04-19T15:21:36.999Z</time></trkpt><trkpt lat="42.07611509531083" lon="13.760546970313586"><ele>753.0</ele><time>2026-04-19T15:21:38.999Z</time></trkpt><trkpt lat="42.076183900155634" lon="13.760500190598218"><ele>753.0</ele><time>2026-04-19T15:21:39.999Z</time></trkpt><trkpt lat="42.0762654125509" lon="13.760510464410368"><ele>753.0</ele><time>2026-04-19T15:21:40.999Z</time></trkpt><trkpt lat="42.07634670799371" lon="13.760585967426103"><ele>753.0</ele><time>2026-04-19T15:21:41.999Z</time></trkpt><trkpt lat="42.07644593919569" lon="13.76060558175554"><ele>753.0</ele><time>2026-04-19T15:21:42.999Z</time></trkpt><trkpt lat="42.07654651954781" lon="13.760623676109118"><ele>753.0</ele><time>2026-04-19T15:21:43.999Z</time></trkpt><trkpt lat="42.07666083302151" lon="13.760604069597514"><ele>753.0</ele><time>2026-04-19T15:21:44.999Z</time></trkpt><trkpt lat="42.076782882068485" lon="13.76056198064447"><ele>753.5</ele><time>2026-04-19T15:21:45.999Z</time></trkpt><trkpt lat="42.07691357568982" lon="13.760501175024643"><ele>754.0</ele><time>2026-04-19T15:21:46.999Z</time></trkpt><trkpt lat="42.07704241745973" lon="13.760418645060668"><ele>754.5</ele><time>2026-04-19T15:21:47.999Z</time></trkpt><trkpt lat="42.077171995676274" lon="13.760306295086998"><ele>755.0</ele><time>2026-04-19T15:21:48.999Z</time></trkpt><trkpt lat="42.07730050932512" lon="13.760189582107621"><ele>755.0</ele><time>2026-04-19T15:21:49.999Z</time></trkpt><trkpt lat="42.0774333516788" lon="13.760057216202556"><ele>755.0</ele><time>2026-04-19T15:21:50.999Z</time></trkpt><trkpt lat="42.07755125911853" lon="13.759922602789404"><ele>755.0</ele><time>2026-04-19T15:21:51.999Z</time></trkpt><trkpt lat="42.07764314534107" lon="13.759805084536225"><ele>755.0</ele><time>2026-04-19T15:21:52.999Z</time></trkpt><trkpt lat="42.07770664111085" lon="13.759682391471612"><ele>754.5</ele><time>2026-04-19T15:21:53.999Z</time></trkpt><trkpt lat="42.077761469377045" lon="13.759529849665512"><ele>754.0</ele><time>2026-04-19T15:21:54.999Z</time></trkpt><trkpt lat="42.07779466171645" lon="13.759344623303027"><ele>753.5</ele><time>2026-04-19T15:21:55.999Z</time></trkpt><trkpt lat="42.077817905153125" lon="13.759154277285171"><ele>753.0</ele><time>2026-04-19T15:21:56.999Z</time></trkpt><trkpt lat="42.07784623508498" lon="13.758972438777471"><ele>753.0</ele><time>2026-04-19T15:21:57.999Z</time></trkpt><trkpt lat="42.07788963794186" lon="13.758803134212837"><ele>753.0</ele><time>2026-04-19T15:21:58.999Z</time></trkpt><trkpt lat="42.07793017380641" lon="13.758645775395518"><ele>753.0</ele><time>2026-04-19T15:21:59.999Z</time></trkpt><trkpt lat="42.07790809456037" lon="13.758293295651907"><ele>754.5</ele><time>2026-04-19T15:22:01.999Z</time></trkpt><trkpt lat="42.077858574723145" lon="13.758110340226498"><ele>756.0</ele><time>2026-04-19T15:22:02.999Z</time></trkpt><trkpt lat="42.077816296824466" lon="13.757944462503657"><ele>757.5</ele><time>2026-04-19T15:22:03.999Z</time></trkpt><trkpt lat="42.07780611863956" lon="13.75778524219081"><ele>759.0</ele><time>2026-04-19T15:22:04.999Z</time></trkpt><trkpt lat="42.07782459402401" lon="13.757608441427383"><ele>759.6666666666666</ele><time>2026-04-19T15:22:05.999Z</time></trkpt><trkpt lat="42.07785843351852" lon="13.75742211975262"><ele>760.3333333333333</ele><time>2026-04-19T15:22:06.999Z</time></trkpt><trkpt lat="42.07790149715899" lon="13.757223845288655"><ele>761.0</ele><time>2026-04-19T15:22:07.999Z</time></trkpt><trkpt lat="42.07794949801183" lon="13.757018128565226"><ele>765.0</ele><time>2026-04-19T15:22:08.999Z</time></trkpt><trkpt lat="42.07799870733686" lon="13.756802286420644"><ele>769.0</ele><time>2026-04-19T15:22:09.999Z</time></trkpt><trkpt lat="42.078045212704275" lon="13.756579538755629"><ele>773.0</ele><time>2026-04-19T15:22:10.999Z</time></trkpt><trkpt lat="42.078089915284615" lon="13.756364254764073"><ele>773.0</ele><time>2026-04-19T15:22:11.999Z</time></trkpt><trkpt lat="42.078135781536766" lon="13.756181649997083"><ele>773.0</ele><time>2026-04-19T15:22:12.999Z</time></trkpt><trkpt lat="42.07817928107925" lon="13.756017115786026"><ele>773.0</ele><time>2026-04-19T15:22:13.999Z</time></trkpt><trkpt lat="42.07821428252679" lon="13.755842089219161"><ele>773.0</ele><time>2026-04-19T15:22:14.999Z</time></trkpt><trkpt lat="42.07822909504714" lon="13.755657100234993"><ele>774.75</ele><time>2026-04-19T15:22:15.999Z</time></trkpt><trkpt lat="42.07822155830865" lon="13.755489289841906"><ele>776.5</ele><time>2026-04-19T15:22:16.999Z</time></trkpt><trkpt lat="42.07819436908677" lon="13.755324096603104"><ele>778.25</ele><time>2026-04-19T15:22:17.999Z</time></trkpt><trkpt lat="42.07813063614823" lon="13.75516057893571"><ele>780.0</ele><time>2026-04-19T15:22:18.999Z</time></trkpt><trkpt lat="42.07803474029692" lon="13.755000154594937"><ele>780.0</ele><time>2026-04-19T15:22:19.999Z</time></trkpt><trkpt lat="42.077939331876266" lon="13.754838190675258"><ele>780.0</ele><time>2026-04-19T15:22:20.999Z</time></trkpt><trkpt lat="42.077870004784316" lon="13.754661908541417"><ele>780.0</ele><time>2026-04-19T15:22:21.999Z</time></trkpt><trkpt lat="42.077821326945006" lon="13.754477557321634"><ele>780.0</ele><time>2026-04-19T15:22:22.999Z</time></trkpt><trkpt lat="42.07779738239002" lon="13.754308541891744"><ele>778.75</ele><time>2026-04-19T15:22:23.999Z</time></trkpt><trkpt lat="42.07776566919669" lon="13.754144635497296"><ele>777.5</ele><time>2026-04-19T15:22:24.999Z</time></trkpt><trkpt lat="42.07770647068086" lon="13.753991856716452"><ele>776.25</ele><time>2026-04-19T15:22:25.999Z</time></trkpt><trkpt lat="42.07761915703344" lon="13.753861871052088"><ele>775.0</ele><time>2026-04-19T15:22:26.999Z</time></trkpt><trkpt lat="42.07749912791081" lon="13.753764226289153"><ele>779.0</ele><time>2026-04-19T15:22:27.999Z</time></trkpt><trkpt lat="42.0773690452123" lon="13.753695122275484"><ele>783.0</ele><time>2026-04-19T15:22:28.999Z</time></trkpt><trkpt lat="42.077264475487226" lon="13.753629430252694"><ele>787.0</ele><time>2026-04-19T15:22:29.999Z</time></trkpt><trkpt lat="42.077194370682804" lon="13.753538923530698"><ele>791.0</ele><time>2026-04-19T15:22:30.999Z</time></trkpt><trkpt lat="42.07713877110319" lon="13.753447785355965"><ele>795.0</ele><time>2026-04-19T15:22:31.999Z</time></trkpt><trkpt lat="42.07714388466453" lon="13.753312476225123"><ele>795.0</ele><time>2026-04-19T15:22:32.999Z</time></trkpt><trkpt lat="42.07715271525501" lon="13.753173975231277"><ele>795.0</ele><time>2026-04-19T15:22:33.999Z</time></trkpt><trkpt lat="42.07720896357392" lon="13.753034377767833"><ele>795.0</ele><time>2026-04-19T15:22:34.999Z</time></trkpt><trkpt lat="42.077261893143586" lon="13.752904351627713"><ele>795.0</ele><time>2026-04-19T15:22:35.999Z</time></trkpt><trkpt lat="42.077288063532286" lon="13.752774659385397"><ele>795.0</ele><time>2026-04-19T15:22:36.999Z</time></trkpt><trkpt lat="42.07729158153014" lon="13.752623815406396"><ele>793.75</ele><time>2026-04-19T15:22:37.999Z</time></trkpt><trkpt lat="42.07728093745474" lon="13.752461142208894"><ele>792.5</ele><time>2026-04-19T15:22:38.999Z</time></trkpt><trkpt lat="42.077263094183856" lon="13.75229571437261"><ele>791.25</ele><time>2026-04-19T15:22:39.999Z</time></trkpt><trkpt lat="42.07722701830939" lon="13.75213315736484"><ele>790.0</ele><time>2026-04-19T15:22:40.999Z</time></trkpt><trkpt lat="42.07717275478072" lon="13.751980195692258"><ele>787.75</ele><time>2026-04-19T15:22:41.999Z</time></trkpt><trkpt lat="42.07710416134967" lon="13.751837099350631"><ele>785.5</ele><time>2026-04-19T15:22:42.999Z</time></trkpt><trkpt lat="42.07702718607722" lon="13.751696357282334"><ele>783.25</ele><time>2026-04-19T15:22:43.999Z</time></trkpt><trkpt lat="42.07694721036837" lon="13.751549108589368"><ele>781.0</ele><time>2026-04-19T15:22:44.999Z</time></trkpt><trkpt lat="42.07687240384771" lon="13.751390925337915"><ele>781.0</ele><time>2026-04-19T15:22:45.999Z</time></trkpt><trkpt lat="42.07679940159455" lon="13.751237015301108"><ele>781.0</ele><time>2026-04-19T15:22:46.999Z</time></trkpt><trkpt lat="42.07672123805264" lon="13.75108664027804"><ele>781.0</ele><time>2026-04-19T15:22:47.999Z</time></trkpt><trkpt lat="42.07663862288955" lon="13.750930130392106"><ele>781.0</ele><time>2026-04-19T15:22:48.999Z</time></trkpt><trkpt lat="42.07655539490285" lon="13.750767316380399"><ele>781.0</ele><time>2026-04-19T15:22:49.999Z</time></trkpt><trkpt lat="42.07647156353787" lon="13.750597824988674"><ele>781.0</ele><time>2026-04-19T15:22:50.999Z</time></trkpt><trkpt lat="42.07639003036164" lon="13.750436931648558"><ele>781.0</ele><time>2026-04-19T15:22:51.999Z</time></trkpt><trkpt lat="42.07631662647438" lon="13.750281761485196"><ele>781.0</ele><time>2026-04-19T15:22:52.999Z</time></trkpt><trkpt lat="42.076246090037266" lon="13.75013373414818"><ele>779.5999999999999</ele><time>2026-04-19T15:22:53.999Z</time></trkpt><trkpt lat="42.076173005368176" lon="13.74999276913953"><ele>778.2</ele><time>2026-04-19T15:22:54.999Z</time></trkpt><trkpt lat="42.07610300951499" lon="13.749865231606316"><ele>776.8</ele><time>2026-04-19T15:22:55.999Z</time></trkpt><trkpt lat="42.07604284749081" lon="13.749754575295233"><ele>775.4000000000001</ele><time>2026-04-19T15:22:56.999Z</time></trkpt><trkpt lat="42.07599864289484" lon="13.749654072377787"><ele>774.0</ele><time>2026-04-19T15:22:57.999Z</time></trkpt><trkpt lat="42.07594960538161" lon="13.749553307955491"><ele>774.0</ele><time>2026-04-19T15:22:58.999Z</time></trkpt><trkpt lat="42.075918182749405" lon="13.749443415287987"><ele>774.0</ele><time>2026-04-19T15:22:59.999Z</time></trkpt><trkpt lat="42.07591399093868" lon="13.74932308977896"><ele>774.0</ele><time>2026-04-19T15:23:00.999Z</time></trkpt><trkpt lat="42.075958742725305" lon="13.749199570454255"><ele>774.0</ele><time>2026-04-19T15:23:01.999Z</time></trkpt><trkpt lat="42.076045647544476" lon="13.74909906247827"><ele>774.0</ele><time>2026-04-19T15:23:02.999Z</time></trkpt><trkpt lat="42.076135643801344" lon="13.748984921521387"><ele>771.75</ele><time>2026-04-19T15:23:03.999Z</time></trkpt><trkpt lat="42.07622817770352" lon="13.748851559865816"><ele>769.5</ele><time>2026-04-19T15:23:04.999Z</time></trkpt><trkpt lat="42.07634168872922" lon="13.748727880815068"><ele>767.25</ele><time>2026-04-19T15:23:05.999Z</time></trkpt><trkpt lat="42.07645211382274" lon="13.748594832784038"><ele>765.0</ele><time>2026-04-19T15:23:06.999Z</time></trkpt><trkpt lat="42.076554288844136" lon="13.748467497302267"><ele>764.4</ele><time>2026-04-19T15:23:07.999Z</time></trkpt><trkpt lat="42.07664406461764" lon="13.748356597080615"><ele>763.8</ele><time>2026-04-19T15:23:08.999Z</time></trkpt><trkpt lat="42.076725061909976" lon="13.748254490542587"><ele>763.2</ele><time>2026-04-19T15:23:09.999Z</time></trkpt><trkpt lat="42.076790984407914" lon="13.748142119817901"><ele>762.6</ele><time>2026-04-19T15:23:10.999Z</time></trkpt><trkpt lat="42.076828479251155" lon="13.748004883379611"><ele>762.0</ele><time>2026-04-19T15:23:11.999Z</time></trkpt><trkpt lat="42.07683532790218" lon="13.747840671770037"><ele>759.6666666666666</ele><time>2026-04-19T15:23:12.999Z</time></trkpt><trkpt lat="42.07681549945184" lon="13.747661291415593"><ele>757.3333333333333</ele><time>2026-04-19T15:23:13.999Z</time></trkpt><trkpt lat="42.07676945622526" lon="13.747468321527935"><ele>755.0</ele><time>2026-04-19T15:23:14.999Z</time></trkpt><trkpt lat="42.07671024143062" lon="13.747255777918053"><ele>755.0</ele><time>2026-04-19T15:23:15.999Z</time></trkpt><trkpt lat="42.07665231970066" lon="13.747042169484322"><ele>755.0</ele><time>2026-04-19T15:23:16.999Z</time></trkpt><trkpt lat="42.07660182493675" lon="13.746845369755604"><ele>755.0</ele><time>2026-04-19T15:23:17.999Z</time></trkpt><trkpt lat="42.076555963540336" lon="13.746659700761125"><ele>755.5</ele><time>2026-04-19T15:23:18.999Z</time></trkpt><trkpt lat="42.076516137165655" lon="13.746484638570266"><ele>756.0</ele><time>2026-04-19T15:23:19.999Z</time></trkpt><trkpt lat="42.07648757558853" lon="13.746314857648159"><ele>756.5</ele><time>2026-04-19T15:23:20.999Z</time></trkpt><trkpt lat="42.076476686316944" lon="13.746146359362331"><ele>757.0</ele><time>2026-04-19T15:23:21.999Z</time></trkpt><trkpt lat="42.07648225045524" lon="13.745959288129578"><ele>758.5</ele><time>2026-04-19T15:23:22.999Z</time></trkpt><trkpt lat="42.07648600018584" lon="13.745784813700892"><ele>760.0</ele><time>2026-04-19T15:23:23.999Z</time></trkpt><trkpt lat="42.076495075854716" lon="13.745603140532683"><ele>761.5</ele><time>2026-04-19T15:23:24.999Z</time></trkpt><trkpt lat="42.07651156604067" lon="13.745430687482784"><ele>763.0</ele><time>2026-04-19T15:23:25.999Z</time></trkpt><trkpt lat="42.07653823218969" lon="13.745264863375027"><ele>763.25</ele><time>2026-04-19T15:23:26.999Z</time></trkpt><trkpt lat="42.07656727994851" lon="13.745099067149443"><ele>763.5</ele><time>2026-04-19T15:23:27.999Z</time></trkpt><trkpt lat="42.0766025220805" lon="13.744923100577054"><ele>763.75</ele><time>2026-04-19T15:23:28.999Z</time></trkpt><trkpt lat="42.07664851140575" lon="13.744746332505555"><ele>764.0</ele><time>2026-04-19T15:23:29.999Z</time></trkpt><trkpt lat="42.07671455253095" lon="13.744576873820806"><ele>763.25</ele><time>2026-04-19T15:23:30.999Z</time></trkpt><trkpt lat="42.07680226899563" lon="13.744415524151174"><ele>762.5</ele><time>2026-04-19T15:23:31.999Z</time></trkpt><trkpt lat="42.07690413834783" lon="13.744272217500047"><ele>761.75</ele><time>2026-04-19T15:23:32.999Z</time></trkpt><trkpt lat="42.07701639764243" lon="13.744133473418774"><ele>761.0</ele><time>2026-04-19T15:23:33.999Z</time></trkpt><trkpt lat="42.07713155843148" lon="13.743995410527477"><ele>761.0</ele><time>2026-04-19T15:23:34.999Z</time></trkpt><trkpt lat="42.07724037890154" lon="13.743869216512456"><ele>761.0</ele><time>2026-04-19T15:23:35.999Z</time></trkpt><trkpt lat="42.07732785622239" lon="13.743754635271083"><ele>761.0</ele><time>2026-04-19T15:23:36.999Z</time></trkpt><trkpt lat="42.07739193908895" lon="13.743644306799762"><ele>761.0</ele><time>2026-04-19T15:23:37.999Z</time></trkpt><trkpt lat="42.07744155257124" lon="13.743517927616194"><ele>760.75</ele><time>2026-04-19T15:23:38.999Z</time></trkpt><trkpt lat="42.077457462239245" lon="13.743359881609019"><ele>760.5</ele><time>2026-04-19T15:23:39.999Z</time></trkpt><trkpt lat="42.077443725229145" lon="13.743182837424035"><ele>760.25</ele><time>2026-04-19T15:23:40.999Z</time></trkpt><trkpt lat="42.07740923072521" lon="13.743016255217745"><ele>760.0</ele><time>2026-04-19T15:23:41.999Z</time></trkpt><trkpt lat="42.07737818922724" lon="13.742860022583393"><ele>763.0</ele><time>2026-04-19T15:23:42.999Z</time></trkpt><trkpt lat="42.07736342528213" lon="13.742717600885863"><ele>766.0</ele><time>2026-04-19T15:23:43.999Z</time></trkpt><trkpt lat="42.07736722619455" lon="13.742593451098333"><ele>769.0</ele><time>2026-04-19T15:23:44.999Z</time></trkpt><trkpt lat="42.0773667488061" lon="13.742472231370996"><ele>772.0</ele><time>2026-04-19T15:23:45.999Z</time></trkpt><trkpt lat="42.0773651782985" lon="13.742355028026402"><ele>775.0</ele><time>2026-04-19T15:23:46.999Z</time></trkpt><trkpt lat="42.07736200229808" lon="13.742223861591556"><ele>778.75</ele><time>2026-04-19T15:23:47.999Z</time></trkpt><trkpt lat="42.07736301067666" lon="13.74208821104709"><ele>782.5</ele><time>2026-04-19T15:23:48.999Z</time></trkpt><trkpt lat="42.07736623316538" lon="13.741944010139274"><ele>786.25</ele><time>2026-04-19T15:23:49.999Z</time></trkpt><trkpt lat="42.07736686148028" lon="13.741779966880387"><ele>790.0</ele><time>2026-04-19T15:23:50.999Z</time></trkpt><trkpt lat="42.07736638314269" lon="13.741607717963078"><ele>790.0</ele><time>2026-04-19T15:23:51.999Z</time></trkpt><trkpt lat="42.07736317933067" lon="13.741426746608619"><ele>790.0</ele><time>2026-04-19T15:23:52.999Z</time></trkpt><trkpt lat="42.07736976212411" lon="13.741236423543933"><ele>790.0</ele><time>2026-04-19T15:23:53.999Z</time></trkpt><trkpt lat="42.07739138895645" lon="13.741045950053682"><ele>790.0</ele><time>2026-04-19T15:23:54.999Z</time></trkpt><trkpt lat="42.07742063194361" lon="13.740855776225612"><ele>786.0</ele><time>2026-04-19T15:23:55.999Z</time></trkpt><trkpt lat="42.077459558926755" lon="13.740666804041345"><ele>782.0</ele><time>2026-04-19T15:23:56.999Z</time></trkpt><trkpt lat="42.07751351535536" lon="13.740483950719515"><ele>778.0</ele><time>2026-04-19T15:23:57.999Z</time></trkpt><trkpt lat="42.07758837084674" lon="13.740309788318578"><ele>774.0</ele><time>2026-04-19T15:23:58.999Z</time></trkpt><trkpt lat="42.07766178573119" lon="13.7401441004854"><ele>774.0</ele><time>2026-04-19T15:23:59.999Z</time></trkpt><trkpt lat="42.07772567505455" lon="13.739995184322682"><ele>774.0</ele><time>2026-04-19T15:24:00.999Z</time></trkpt><trkpt lat="42.077769628471984" lon="13.739858173279334"><ele>774.0</ele><time>2026-04-19T15:24:01.999Z</time></trkpt><trkpt lat="42.07779463229886" lon="13.739697958045115"><ele>774.0</ele><time>2026-04-19T15:24:02.999Z</time></trkpt><trkpt lat="42.07779033004186" lon="13.739511715077834"><ele>775.25</ele><time>2026-04-19T15:24:03.999Z</time></trkpt><trkpt lat="42.07777694779593" lon="13.739323462843188"><ele>776.5</ele><time>2026-04-19T15:24:04.999Z</time></trkpt><trkpt lat="42.077760336618894" lon="13.739130363446355"><ele>777.75</ele><time>2026-04-19T15:24:05.999Z</time></trkpt><trkpt lat="42.07774303877102" lon="13.738931635503917"><ele>779.0</ele><time>2026-04-19T15:24:06.999Z</time></trkpt><trkpt lat="42.07772978096868" lon="13.738740515641041"><ele>779.0</ele><time>2026-04-19T15:24:07.999Z</time></trkpt><trkpt lat="42.077717394219576" lon="13.738554895695477"><ele>779.0</ele><time>2026-04-19T15:24:08.999Z</time></trkpt><trkpt lat="42.077720172243666" lon="13.738387645291366"><ele>779.0</ele><time>2026-04-19T15:24:09.999Z</time></trkpt><trkpt lat="42.07774172579325" lon="13.738215884722157"><ele>779.0</ele><time>2026-04-19T15:24:10.999Z</time></trkpt><trkpt lat="42.07777815637169" lon="13.738040867653734"><ele>780.75</ele><time>2026-04-19T15:24:11.999Z</time></trkpt><trkpt lat="42.0778130487958" lon="13.737861553097128"><ele>782.5</ele><time>2026-04-19T15:24:12.999Z</time></trkpt><trkpt lat="42.077853196297994" lon="13.73768440057453"><ele>784.25</ele><time>2026-04-19T15:24:13.999Z</time></trkpt><trkpt lat="42.07791684571804" lon="13.737517427707324"><ele>786.0</ele><time>2026-04-19T15:24:14.999Z</time></trkpt><trkpt lat="42.07796144447282" lon="13.737339323833806"><ele>789.25</ele><time>2026-04-19T15:24:15.999Z</time></trkpt><trkpt lat="42.07799091605727" lon="13.73716073210444"><ele>792.5</ele><time>2026-04-19T15:24:16.999Z</time></trkpt><trkpt lat="42.07802608634266" lon="13.73699464533445"><ele>795.75</ele><time>2026-04-19T15:24:17.999Z</time></trkpt><trkpt lat="42.078071211098994" lon="13.73683577725227"><ele>799.0</ele><time>2026-04-19T15:24:18.999Z</time></trkpt><trkpt lat="42.07809625014694" lon="13.736671927013026"><ele>803.5</ele><time>2026-04-19T15:24:19.999Z</time></trkpt><trkpt lat="42.07809625014694" lon="13.736671927013026"><ele>808.0</ele><time>2026-04-19T15:24:19.999Z</time></trkpt><trkpt lat="42.07830496283469" lon="13.735555072990344"><ele>805.25</ele><time>2026-04-19T15:24:26.999Z</time></trkpt><trkpt lat="42.07836947204762" lon="13.735405470900087"><ele>802.5</ele><time>2026-04-19T15:24:27.999Z</time></trkpt><trkpt lat="42.07843725975156" lon="13.735254676873431"><ele>799.75</ele><time>2026-04-19T15:24:28.999Z</time></trkpt><trkpt lat="42.078505179553865" lon="13.735104759209955"><ele>797.0</ele><time>2026-04-19T15:24:29.999Z</time></trkpt><trkpt lat="42.078573816018746" lon="13.734951483633441"><ele>797.0</ele><time>2026-04-19T15:24:30.999Z</time></trkpt><trkpt lat="42.078625361581615" lon="13.734787351074175"><ele>797.0</ele><time>2026-04-19T15:24:31.999Z</time></trkpt><trkpt lat="42.07869327084618" lon="13.734637605395745"><ele>797.0</ele><time>2026-04-19T15:24:32.999Z</time></trkpt><trkpt lat="42.07875104351082" lon="13.734471786728637"><ele>797.0</ele><time>2026-04-19T15:24:33.999Z</time></trkpt><trkpt lat="42.078805796282595" lon="13.73428838157911"><ele>800.6666666666667</ele><time>2026-04-19T15:24:34.999Z</time></trkpt><trkpt lat="42.07884160093746" lon="13.734093881099557"><ele>804.3333333333333</ele><time>2026-04-19T15:24:35.999Z</time></trkpt><trkpt lat="42.07888290466465" lon="13.73388898204724"><ele>808.0</ele><time>2026-04-19T15:24:36.999Z</time></trkpt><trkpt lat="42.07892729852421" lon="13.733668296871246"><ele>811.6666666666666</ele><time>2026-04-19T15:24:37.999Z</time></trkpt><trkpt lat="42.07897173547626" lon="13.733439447753959"><ele>815.3333333333333</ele><time>2026-04-19T15:24:38.999Z</time></trkpt><trkpt lat="42.07901011404422" lon="13.733201557417608"><ele>819.0</ele><time>2026-04-19T15:24:39.999Z</time></trkpt><trkpt lat="42.07905198268748" lon="13.732948486507071"><ele>812.6666666666667</ele><time>2026-04-19T15:24:40.999Z</time></trkpt><trkpt lat="42.079101545724654" lon="13.732694229881702"><ele>806.3333333333334</ele><time>2026-04-19T15:24:41.999Z</time></trkpt><trkpt lat="42.07915348826354" lon="13.732447297610582"><ele>800.0</ele><time>2026-04-19T15:24:42.999Z</time></trkpt><trkpt lat="42.07920701159375" lon="13.73221745635778"><ele>800.0</ele><time>2026-04-19T15:24:43.999Z</time></trkpt><trkpt lat="42.0792658614136" lon="13.732003034534955"><ele>800.0</ele><time>2026-04-19T15:24:44.999Z</time></trkpt><trkpt lat="42.07933020165998" lon="13.731796677530587"><ele>800.0</ele><time>2026-04-19T15:24:45.999Z</time></trkpt><trkpt lat="42.07938779790163" lon="13.731596022878707"><ele>802.6666666666667</ele><time>2026-04-19T15:24:46.999Z</time></trkpt><trkpt lat="42.07942790849878" lon="13.731378807736897"><ele>805.3333333333333</ele><time>2026-04-19T15:24:47.999Z</time></trkpt><trkpt lat="42.07945554357507" lon="13.731144128859716"><ele>808.0</ele><time>2026-04-19T15:24:48.999Z</time></trkpt><trkpt lat="42.079474958223585" lon="13.730887756072855"><ele>809.6666666666666</ele><time>2026-04-19T15:24:49.999Z</time></trkpt><trkpt lat="42.07948872453325" lon="13.730621544057083"><ele>811.3333333333333</ele><time>2026-04-19T15:24:50.999Z</time></trkpt><trkpt lat="42.07951450645747" lon="13.730353528515824"><ele>813.0</ele><time>2026-04-19T15:24:51.999Z</time></trkpt><trkpt lat="42.079543261430075" lon="13.730084765923678"><ele>816.0</ele><time>2026-04-19T15:24:52.999Z</time></trkpt><trkpt lat="42.07956164119432" lon="13.72981458555645"><ele>819.0</ele><time>2026-04-19T15:24:53.999Z</time></trkpt><trkpt lat="42.07957007639014" lon="13.729534649115811"><ele>822.0</ele><time>2026-04-19T15:24:54.999Z</time></trkpt><trkpt lat="42.079565656480675" lon="13.729251426145574"><ele>823.3333333333333</ele><time>2026-04-19T15:24:55.999Z</time></trkpt><trkpt lat="42.07956693078251" lon="13.728974673771264"><ele>824.6666666666666</ele><time>2026-04-19T15:24:56.999Z</time></trkpt><trkpt lat="42.07956371787789" lon="13.728716861882479"><ele>826.0</ele><time>2026-04-19T15:24:57.999Z</time></trkpt><trkpt lat="42.07955865246675" lon="13.728472183160845"><ele>826.0</ele><time>2026-04-19T15:24:58.999Z</time></trkpt><trkpt lat="42.079556726293156" lon="13.72821801823414"><ele>826.0</ele><time>2026-04-19T15:24:59.999Z</time></trkpt><trkpt lat="42.0795539835184" lon="13.727961063328276"><ele>826.0</ele><time>2026-04-19T15:25:00.999Z</time></trkpt><trkpt lat="42.07954817181146" lon="13.727726879123129"><ele>826.5</ele><time>2026-04-19T15:25:01.999Z</time></trkpt><trkpt lat="42.07954780787248" lon="13.727514675993579"><ele>827.0</ele><time>2026-04-19T15:25:02.999Z</time></trkpt><trkpt lat="42.079548873484924" lon="13.727326481565779"><ele>827.5</ele><time>2026-04-19T15:25:03.999Z</time></trkpt><trkpt lat="42.07953399935187" lon="13.727140674918337"><ele>828.0</ele><time>2026-04-19T15:25:04.999Z</time></trkpt><trkpt lat="42.07948759579993" lon="13.72695310890704"><ele>827.6666666666667</ele><time>2026-04-19T15:25:05.999Z</time></trkpt><trkpt lat="42.079419096329715" lon="13.726772443761115"><ele>827.3333333333334</ele><time>2026-04-19T15:25:06.999Z</time></trkpt><trkpt lat="42.079337299200205" lon="13.726592696057189"><ele>827.0</ele><time>2026-04-19T15:25:07.999Z</time></trkpt><trkpt lat="42.07926725086134" lon="13.726410903852694"><ele>827.0</ele><time>2026-04-19T15:25:08.999Z</time></trkpt><trkpt lat="42.0791902388655" lon="13.726236498822319"><ele>827.0</ele><time>2026-04-19T15:25:09.999Z</time></trkpt><trkpt lat="42.079113774296815" lon="13.726071790037045"><ele>827.0</ele><time>2026-04-19T15:25:10.999Z</time></trkpt><trkpt lat="42.07905276432127" lon="13.725908343124347"><ele>827.0</ele><time>2026-04-19T15:25:11.999Z</time></trkpt><trkpt lat="42.07899980674634" lon="13.72577246087326"><ele>827.5000000000001</ele><time>2026-04-19T15:25:12.999Z</time></trkpt><trkpt lat="42.078960419371505" lon="13.725650799066498"><ele>828.0</ele><time>2026-04-19T15:25:13.999Z</time></trkpt><trkpt lat="42.07893572729463" lon="13.725543196703873"><ele>828.5</ele><time>2026-04-19T15:25:14.999Z</time></trkpt><trkpt lat="42.078958324705226" lon="13.725390260852018"><ele>829.0</ele><time>2026-04-19T15:25:16.999Z</time></trkpt><trkpt lat="42.079007589423256" lon="13.72533580857043"><ele>829.5000000000001</ele><time>2026-04-19T15:25:17.999Z</time></trkpt><trkpt lat="42.07907915516382" lon="13.725314987139427"><ele>830.0</ele><time>2026-04-19T15:25:18.999Z</time></trkpt><trkpt lat="42.0791580784735" lon="13.725392038208268"><ele>830.0</ele><time>2026-04-19T15:25:19.999Z</time></trkpt><trkpt lat="42.079233550171594" lon="13.725460228899044"><ele>830.0</ele><time>2026-04-19T15:25:20.999Z</time></trkpt><trkpt lat="42.07933807054844" lon="13.725538371094075"><ele>830.0</ele><time>2026-04-19T15:25:21.999Z</time></trkpt><trkpt lat="42.07946120537236" lon="13.725618839640715"><ele>830.0</ele><time>2026-04-19T15:25:22.999Z</time></trkpt><trkpt lat="42.07959170514961" lon="13.72567677928191"><ele>830.0</ele><time>2026-04-19T15:25:23.999Z</time></trkpt><trkpt lat="42.07970564597184" lon="13.72575545138666"><ele>830.0</ele><time>2026-04-19T15:25:24.999Z</time></trkpt><trkpt lat="42.07981499221936" lon="13.72581252986145"><ele>830.0</ele><time>2026-04-19T15:25:25.999Z</time></trkpt><trkpt lat="42.079926193755405" lon="13.72585448043709"><ele>830.0</ele><time>2026-04-19T15:25:26.999Z</time></trkpt><trkpt lat="42.08004233022685" lon="13.725876215806064"><ele>829.6</ele><time>2026-04-19T15:25:27.999Z</time></trkpt><trkpt lat="42.08014925546091" lon="13.725865748301752"><ele>829.2</ele><time>2026-04-19T15:25:28.999Z</time></trkpt><trkpt lat="42.08024511435181" lon="13.725802595057244"><ele>828.8</ele><time>2026-04-19T15:25:29.999Z</time></trkpt><trkpt lat="42.08033737323965" lon="13.725739857963369"><ele>828.4</ele><time>2026-04-19T15:25:30.999Z</time></trkpt><trkpt lat="42.08042264804238" lon="13.725669528432002"><ele>828.0</ele><time>2026-04-19T15:25:31.999Z</time></trkpt><trkpt lat="42.08051373719067" lon="13.725606904134944"><ele>828.0</ele><time>2026-04-19T15:25:32.999Z</time></trkpt><trkpt lat="42.08061641698094" lon="13.725535469007266"><ele>828.0</ele><time>2026-04-19T15:25:33.999Z</time></trkpt><trkpt lat="42.080723246992015" lon="13.725449189874114"><ele>828.0</ele><time>2026-04-19T15:25:34.999Z</time></trkpt><trkpt lat="42.08083940278821" lon="13.72538548132907"><ele>828.0</ele><time>2026-04-19T15:25:35.999Z</time></trkpt><trkpt lat="42.080952747299946" lon="13.725325828773665"><ele>827.5</ele><time>2026-04-19T15:25:36.999Z</time></trkpt><trkpt lat="42.08106480989159" lon="13.725255130706282"><ele>827.0</ele><time>2026-04-19T15:25:37.999Z</time></trkpt><trkpt lat="42.08117772538765" lon="13.725156249739271"><ele>826.5</ele><time>2026-04-19T15:25:38.999Z</time></trkpt><trkpt lat="42.0812853583497" lon="13.725031077634554"><ele>826.0</ele><time>2026-04-19T15:25:39.999Z</time></trkpt><trkpt lat="42.08137804695766" lon="13.724883601406603"><ele>832.6666666666666</ele><time>2026-04-19T15:25:40.999Z</time></trkpt><trkpt lat="42.081467763582424" lon="13.724711185609056"><ele>839.3333333333333</ele><time>2026-04-19T15:25:41.999Z</time></trkpt><trkpt lat="42.081556492598274" lon="13.724538823030853"><ele>846.0</ele><time>2026-04-19T15:25:42.999Z</time></trkpt><trkpt lat="42.08165744147715" lon="13.72436877988715"><ele>846.5</ele><time>2026-04-19T15:25:43.999Z</time></trkpt><trkpt lat="42.081759741774384" lon="13.72421425242404"><ele>847.0</ele><time>2026-04-19T15:25:44.999Z</time></trkpt><trkpt lat="42.08187025025563" lon="13.724076262952305"><ele>847.5</ele><time>2026-04-19T15:25:45.999Z</time></trkpt><trkpt lat="42.08197645551662" lon="13.723964595645445"><ele>848.0</ele><time>2026-04-19T15:25:46.999Z</time></trkpt><trkpt lat="42.08207025476866" lon="13.723864784227395"><ele>848.0</ele><time>2026-04-19T15:25:47.999Z</time></trkpt><trkpt lat="42.08214584887421" lon="13.723771882693363"><ele>848.0</ele><time>2026-04-19T15:25:48.999Z</time></trkpt><trkpt lat="42.08221366430832" lon="13.72368584068678"><ele>848.0</ele><time>2026-04-19T15:25:49.999Z</time></trkpt><trkpt lat="42.082272346836014" lon="13.723612167218137"><ele>848.0</ele><time>2026-04-19T15:25:50.999Z</time></trkpt><trkpt lat="42.08229049972727" lon="13.723459660951246"><ele>848.0</ele><time>2026-04-19T15:25:52.999Z</time></trkpt><trkpt lat="42.08222978870872" lon="13.723394422296066"><ele>848.0</ele><time>2026-04-19T15:25:53.999Z</time></trkpt><trkpt lat="42.08215746069159" lon="13.723368922610018"><ele>848.0</ele><time>2026-04-19T15:25:54.999Z</time></trkpt><trkpt lat="42.0820696984308" lon="13.723469426310082"><ele>848.0</ele><time>2026-04-19T15:25:55.999Z</time></trkpt><trkpt lat="42.08200266102293" lon="13.723589382975705"><ele>848.0</ele><time>2026-04-19T15:25:56.999Z</time></trkpt><trkpt lat="42.08192956835512" lon="13.723724483804993"><ele>848.0</ele><time>2026-04-19T15:25:57.999Z</time></trkpt><trkpt lat="42.08183500178305" lon="13.723853526723222"><ele>848.0</ele><time>2026-04-19T15:25:58.999Z</time></trkpt><trkpt lat="42.081710080613405" lon="13.723947306818514"><ele>848.0</ele><time>2026-04-19T15:25:59.999Z</time></trkpt><trkpt lat="42.08158811349171" lon="13.724058959594101"><ele>848.0</ele><time>2026-04-19T15:26:00.999Z</time></trkpt><trkpt lat="42.08147538144126" lon="13.724186845808834"><ele>848.0</ele><time>2026-04-19T15:26:01.999Z</time></trkpt><trkpt lat="42.081355260913185" lon="13.72429554923637"><ele>847.5</ele><time>2026-04-19T15:26:02.999Z</time></trkpt><trkpt lat="42.08123520429689" lon="13.724400297272423"><ele>847.0</ele><time>2026-04-19T15:26:03.999Z</time></trkpt><trkpt lat="42.08112687700981" lon="13.724516904883165"><ele>846.5</ele><time>2026-04-19T15:26:04.999Z</time></trkpt><trkpt lat="42.080990628474964" lon="13.72459120807882"><ele>846.0</ele><time>2026-04-19T15:26:05.999Z</time></trkpt><trkpt lat="42.08086916921835" lon="13.724638924533778"><ele>848.3333333333333</ele><time>2026-04-19T15:26:06.999Z</time></trkpt><trkpt lat="42.08069706126791" lon="13.724669994396779"><ele>850.6666666666666</ele><time>2026-04-19T15:26:07.999Z</time></trkpt><trkpt lat="42.08050676669905" lon="13.724731722526768"><ele>853.0</ele><time>2026-04-19T15:26:08.999Z</time></trkpt><trkpt lat="42.08032367191416" lon="13.724781660863473"><ele>853.0</ele><time>2026-04-19T15:26:09.999Z</time></trkpt><trkpt lat="42.08018180642315" lon="13.724855206528396"><ele>853.0</ele><time>2026-04-19T15:26:10.999Z</time></trkpt><trkpt lat="42.080046431980946" lon="13.724880966442475"><ele>853.0</ele><time>2026-04-19T15:26:11.999Z</time></trkpt><trkpt lat="42.079921483665764" lon="13.724913162595083"><ele>853.0</ele><time>2026-04-19T15:26:12.999Z</time></trkpt><trkpt lat="42.07980710251435" lon="13.72487896124617"><ele>850.75</ele><time>2026-04-19T15:26:13.999Z</time></trkpt><trkpt lat="42.07971631383936" lon="13.724761172578544"><ele>848.5</ele><time>2026-04-19T15:26:14.999Z</time></trkpt><trkpt lat="42.079604045187565" lon="13.724653196615876"><ele>846.25</ele><time>2026-04-19T15:26:15.999Z</time></trkpt><trkpt lat="42.079508327593736" lon="13.724501957223099"><ele>844.0</ele><time>2026-04-19T15:26:16.999Z</time></trkpt><trkpt lat="42.07940704157934" lon="13.724346879625287"><ele>848.6666666666666</ele><time>2026-04-19T15:26:17.999Z</time></trkpt><trkpt lat="42.07929898392992" lon="13.724195210815623"><ele>853.3333333333333</ele><time>2026-04-19T15:26:18.999Z</time></trkpt><trkpt lat="42.079180826374234" lon="13.72405005883473"><ele>858.0</ele><time>2026-04-19T15:26:19.999Z</time></trkpt><trkpt lat="42.07905604629141" lon="13.723905672541726"><ele>858.0</ele><time>2026-04-19T15:26:20.999Z</time></trkpt><trkpt lat="42.078938590044686" lon="13.72377120172703"><ele>858.0</ele><time>2026-04-19T15:26:21.999Z</time></trkpt><trkpt lat="42.07881898198536" lon="13.723654633835404"><ele>858.0</ele><time>2026-04-19T15:26:22.999Z</time></trkpt><trkpt lat="42.07867769569995" lon="13.723570287715269"><ele>862.25</ele><time>2026-04-19T15:26:23.999Z</time></trkpt><trkpt lat="42.07852126263622" lon="13.723534270209715"><ele>866.5</ele><time>2026-04-19T15:26:24.999Z</time></trkpt><trkpt lat="42.078375660186175" lon="13.723505223222709"><ele>870.75</ele><time>2026-04-19T15:26:25.999Z</time></trkpt><trkpt lat="42.07826044764613" lon="13.723429381565765"><ele>875.0</ele><time>2026-04-19T15:26:26.999Z</time></trkpt><trkpt lat="42.07814673560706" lon="13.723340664917812"><ele>875.0</ele><time>2026-04-19T15:26:27.999Z</time></trkpt><trkpt lat="42.078043413555186" lon="13.723213617567176"><ele>875.0</ele><time>2026-04-19T15:26:28.999Z</time></trkpt><trkpt lat="42.07793308111041" lon="13.723073775998575"><ele>875.0</ele><time>2026-04-19T15:26:29.999Z</time></trkpt><trkpt lat="42.077845435021366" lon="13.722903765409278"><ele>875.0</ele><time>2026-04-19T15:26:30.999Z</time></trkpt><trkpt lat="42.0777620312026" lon="13.72274143865536"><ele>877.0</ele><time>2026-04-19T15:26:31.999Z</time></trkpt><trkpt lat="42.077683917640684" lon="13.722606263994923"><ele>879.0</ele><time>2026-04-19T15:26:32.999Z</time></trkpt><trkpt lat="42.077590951995255" lon="13.722495269285814"><ele>881.0</ele><time>2026-04-19T15:26:33.999Z</time></trkpt><trkpt lat="42.0774719072805" lon="13.72242165665177"><ele>883.0</ele><time>2026-04-19T15:26:34.999Z</time></trkpt><trkpt lat="42.07733995721626" lon="13.722380279075777"><ele>886.0</ele><time>2026-04-19T15:26:35.999Z</time></trkpt><trkpt lat="42.07719913928219" lon="13.722371476174189"><ele>889.0</ele><time>2026-04-19T15:26:36.999Z</time></trkpt><trkpt lat="42.077069992026175" lon="13.722370062134702"><ele>892.0</ele><time>2026-04-19T15:26:37.999Z</time></trkpt><trkpt lat="42.076960004892115" lon="13.72235673219413"><ele>895.0</ele><time>2026-04-19T15:26:38.999Z</time></trkpt><trkpt lat="42.07686895598996" lon="13.722339614424952"><ele>894.9999999999999</ele><time>2026-04-19T15:26:39.999Z</time></trkpt><trkpt lat="42.07679243869339" lon="13.72233210665225"><ele>895.0</ele><time>2026-04-19T15:26:40.999Z</time></trkpt><trkpt lat="42.076728397835495" lon="13.722315305893778"><ele>895.0</ele><time>2026-04-19T15:26:41.999Z</time></trkpt><trkpt lat="42.07668894939405" lon="13.722185539910322"><ele>895.0</ele><time>2026-04-19T15:26:43.999Z</time></trkpt><trkpt lat="42.0767153400971" lon="13.722100538704215"><ele>894.9999999999999</ele><time>2026-04-19T15:26:44.999Z</time></trkpt><trkpt lat="42.07680283215341" lon="13.722069781900247"><ele>895.0</ele><time>2026-04-19T15:26:45.999Z</time></trkpt><trkpt lat="42.07689747654888" lon="13.72206761647191"><ele>895.0</ele><time>2026-04-19T15:26:46.999Z</time></trkpt><trkpt lat="42.07699974566303" lon="13.722118219414881"><ele>895.0</ele><time>2026-04-19T15:26:47.999Z</time></trkpt><trkpt lat="42.07713149136395" lon="13.722149798272653"><ele>895.0</ele><time>2026-04-19T15:26:48.999Z</time></trkpt><trkpt lat="42.07726585576006" lon="13.72218951794952"><ele>895.0</ele><time>2026-04-19T15:26:49.999Z</time></trkpt><trkpt lat="42.077409551616284" lon="13.722195212441342"><ele>892.0</ele><time>2026-04-19T15:26:50.999Z</time></trkpt><trkpt lat="42.07755831345522" lon="13.722171399098624"><ele>889.0</ele><time>2026-04-19T15:26:52Z</time></trkpt><trkpt lat="42.07770690267127" lon="13.722165616636058"><ele>886.0</ele><time>2026-04-19T15:26:53Z</time></trkpt><trkpt lat="42.07782135376525" lon="13.722239374227819"><ele>883.0</ele><time>2026-04-19T15:26:54Z</time></trkpt><trkpt lat="42.077901047111474" lon="13.722345443903315"><ele>883.0</ele><time>2026-04-19T15:26:55Z</time></trkpt><trkpt lat="42.077981364944506" lon="13.72246289440747"><ele>883.0</ele><time>2026-04-19T15:26:56Z</time></trkpt><trkpt lat="42.0780676170726" lon="13.72259953582369"><ele>883.0</ele><time>2026-04-19T15:26:57Z</time></trkpt><trkpt lat="42.07817813908013" lon="13.722707361860481"><ele>883.0</ele><time>2026-04-19T15:26:58Z</time></trkpt><trkpt lat="42.07829279763092" lon="13.722806092457391"><ele>881.5</ele><time>2026-04-19T15:26:59Z</time></trkpt><trkpt lat="42.07840766667268" lon="13.722889084159382"><ele>880.0</ele><time>2026-04-19T15:27:00Z</time></trkpt><trkpt lat="42.078523251472745" lon="13.722951259116495"><ele>878.5</ele><time>2026-04-19T15:27:01Z</time></trkpt><trkpt lat="42.07863535707436" lon="13.722985392572339"><ele>877.0</ele><time>2026-04-19T15:27:02Z</time></trkpt><trkpt lat="42.078741636896225" lon="13.722988340247982"><ele>877.0</ele><time>2026-04-19T15:27:03Z</time></trkpt><trkpt lat="42.0788564262817" lon="13.722944357634839"><ele>877.0</ele><time>2026-04-19T15:27:04Z</time></trkpt><trkpt lat="42.07896663253199" lon="13.722869379128667"><ele>877.0</ele><time>2026-04-19T15:27:05Z</time></trkpt><trkpt lat="42.079077105197065" lon="13.72277303603459"><ele>877.0</ele><time>2026-04-19T15:27:06Z</time></trkpt><trkpt lat="42.07919282553904" lon="13.722675504857838"><ele>882.75</ele><time>2026-04-19T15:27:07Z</time></trkpt><trkpt lat="42.079310610639226" lon="13.72258862379837"><ele>888.5</ele><time>2026-04-19T15:27:08Z</time></trkpt><trkpt lat="42.079412423914725" lon="13.72250921152209"><ele>894.25</ele><time>2026-04-19T15:27:09Z</time></trkpt><trkpt lat="42.07950136912279" lon="13.722429408694358"><ele>900.0</ele><time>2026-04-19T15:27:10Z</time></trkpt><trkpt lat="42.07957495300941" lon="13.722323341626154"><ele>900.0</ele><time>2026-04-19T15:27:11Z</time></trkpt><trkpt lat="42.07963110616884" lon="13.722176559332674"><ele>900.0</ele><time>2026-04-19T15:27:12Z</time></trkpt><trkpt lat="42.079669649547256" lon="13.722003263665494"><ele>900.0</ele><time>2026-04-19T15:27:13Z</time></trkpt><trkpt lat="42.0796804229309" lon="13.72182136568922"><ele>900.0</ele><time>2026-04-19T15:27:14Z</time></trkpt><trkpt lat="42.07966363550198" lon="13.721645810727011"><ele>902.0</ele><time>2026-04-19T15:27:15Z</time></trkpt><trkpt lat="42.07962820278391" lon="13.721464441476865"><ele>904.0</ele><time>2026-04-19T15:27:16Z</time></trkpt><trkpt lat="42.07959901821871" lon="13.721286041864015"><ele>906.0</ele><time>2026-04-19T15:27:17Z</time></trkpt><trkpt lat="42.07962232527855" lon="13.721132246080094"><ele>908.0</ele><time>2026-04-19T15:27:18Z</time></trkpt><trkpt lat="42.079657979271175" lon="13.721000177622127"><ele>908.5999999999999</ele><time>2026-04-19T15:27:19Z</time></trkpt><trkpt lat="42.079704311134684" lon="13.720866557396485"><ele>909.1999999999999</ele><time>2026-04-19T15:27:20Z</time></trkpt><trkpt lat="42.079746651699125" lon="13.72072945343997"><ele>909.8</ele><time>2026-04-19T15:27:21Z</time></trkpt><trkpt lat="42.079770495435085" lon="13.720596369834801"><ele>910.4</ele><time>2026-04-19T15:27:22Z</time></trkpt><trkpt lat="42.07976177995028" lon="13.720457838701893"><ele>911.0</ele><time>2026-04-19T15:27:23Z</time></trkpt><trkpt lat="42.079706645347386" lon="13.720336711134843"><ele>911.0</ele><time>2026-04-19T15:27:24Z</time></trkpt><trkpt lat="42.07961028061964" lon="13.720260014061173"><ele>911.0</ele><time>2026-04-19T15:27:25Z</time></trkpt><trkpt lat="42.07948703436075" lon="13.720240012505737"><ele>911.0</ele><time>2026-04-19T15:27:26Z</time></trkpt><trkpt lat="42.07935218365855" lon="13.720270336164706"><ele>911.0</ele><time>2026-04-19T15:27:27Z</time></trkpt><trkpt lat="42.07921916698365" lon="13.720286334161253"><ele>913.0</ele><time>2026-04-19T15:27:28Z</time></trkpt><trkpt lat="42.07910069868085" lon="13.720241116278258"><ele>915.0</ele><time>2026-04-19T15:27:29Z</time></trkpt><trkpt lat="42.078996162711675" lon="13.720189330638396"><ele>917.0</ele><time>2026-04-19T15:27:30Z</time></trkpt><trkpt lat="42.07889799307296" lon="13.720116007561728"><ele>919.0</ele><time>2026-04-19T15:27:31Z</time></trkpt><trkpt lat="42.078841625672226" lon="13.719965624614929"><ele>920.0</ele><time>2026-04-19T15:27:32Z</time></trkpt><trkpt lat="42.078773610799416" lon="13.71981650896979"><ele>921.0</ele><time>2026-04-19T15:27:33Z</time></trkpt><trkpt lat="42.07876583932048" lon="13.719634355603517"><ele>922.0</ele><time>2026-04-19T15:27:33.999Z</time></trkpt><trkpt lat="42.07873472149363" lon="13.719440108156915"><ele>923.0</ele><time>2026-04-19T15:27:34.999Z</time></trkpt><trkpt lat="42.0787091596207" lon="13.71924734736572"><ele>923.4</ele><time>2026-04-19T15:27:35.999Z</time></trkpt><trkpt lat="42.078683700978516" lon="13.719084901806696"><ele>923.8</ele><time>2026-04-19T15:27:36.999Z</time></trkpt><trkpt lat="42.078665575779965" lon="13.71893608249936"><ele>924.2</ele><time>2026-04-19T15:27:37.999Z</time></trkpt><trkpt lat="42.07865591116036" lon="13.718793147568695"><ele>924.6</ele><time>2026-04-19T15:27:38.999Z</time></trkpt><trkpt lat="42.07864474782554" lon="13.718661784450315"><ele>925.0</ele><time>2026-04-19T15:27:39.999Z</time></trkpt><trkpt lat="42.07861015355543" lon="13.718542206941818"><ele>925.0</ele><time>2026-04-19T15:27:40.999Z</time></trkpt><trkpt lat="42.07853059940556" lon="13.718439442549293"><ele>925.0</ele><time>2026-04-19T15:27:41.999Z</time></trkpt><trkpt lat="42.07842954556924" lon="13.718373525480587"><ele>925.0</ele><time>2026-04-19T15:27:42.999Z</time></trkpt><trkpt lat="42.07832566388912" lon="13.718366030347784"><ele>925.0</ele><time>2026-04-19T15:27:43.999Z</time></trkpt><trkpt lat="42.07822368208106" lon="13.718457665106284"><ele>925.0</ele><time>2026-04-19T15:27:44.999Z</time></trkpt><trkpt lat="42.07813215256911" lon="13.718551229045909"><ele>928.0</ele><time>2026-04-19T15:27:45.999Z</time></trkpt><trkpt lat="42.078044241357404" lon="13.718662977228954"><ele>931.0</ele><time>2026-04-19T15:27:46.999Z</time></trkpt><trkpt lat="42.07796497810167" lon="13.718800761125545"><ele>934.0</ele><time>2026-04-19T15:27:47.999Z</time></trkpt><trkpt lat="42.07790574213719" lon="13.718958071723065"><ele>937.0</ele><time>2026-04-19T15:27:48.999Z</time></trkpt><trkpt lat="42.07787294827467" lon="13.719129674133887"><ele>937.0</ele><time>2026-04-19T15:27:49.999Z</time></trkpt><trkpt lat="42.07785046874296" lon="13.719315615333006"><ele>937.0</ele><time>2026-04-19T15:27:50.999Z</time></trkpt><trkpt lat="42.07783804970885" lon="13.719496488203404"><ele>937.0</ele><time>2026-04-19T15:27:51.999Z</time></trkpt><trkpt lat="42.07784085478452" lon="13.7196746021587"><ele>937.0</ele><time>2026-04-19T15:27:52.999Z</time></trkpt><trkpt lat="42.07785219917906" lon="13.719843280317976"><ele>937.2</ele><time>2026-04-19T15:27:53.999Z</time></trkpt><trkpt lat="42.077871232893955" lon="13.719984392219015"><ele>937.4000000000001</ele><time>2026-04-19T15:27:54.999Z</time></trkpt><trkpt lat="42.07788210942349" lon="13.720117814584745"><ele>937.5999999999999</ele><time>2026-04-19T15:27:55.999Z</time></trkpt><trkpt lat="42.077875459276704" lon="13.720257439237178"><ele>937.8</ele><time>2026-04-19T15:27:56.999Z</time></trkpt><trkpt lat="42.07785884790149" lon="13.720396801503265"><ele>938.0</ele><time>2026-04-19T15:27:57.999Z</time></trkpt><trkpt lat="42.07782652359503" lon="13.720546893496069"><ele>937.0</ele><time>2026-04-19T15:27:58.999Z</time></trkpt><trkpt lat="42.07772112741044" lon="13.720634832471978"><ele>936.0</ele><time>2026-04-19T15:27:59.999Z</time></trkpt><trkpt lat="42.07762188371288" lon="13.720715913538779"><ele>935.0</ele><time>2026-04-19T15:28:00.999Z</time></trkpt><trkpt lat="42.077507436155955" lon="13.72076641174571"><ele>934.0</ele><time>2026-04-19T15:28:01.999Z</time></trkpt><trkpt lat="42.07737197549265" lon="13.720812870660389"><ele>934.0</ele><time>2026-04-19T15:28:02.999Z</time></trkpt><trkpt lat="42.07722023011236" lon="13.72083954827522"><ele>934.0</ele><time>2026-04-19T15:28:03.999Z</time></trkpt><trkpt lat="42.07706156967153" lon="13.720843832384917"><ele>934.0</ele><time>2026-04-19T15:28:04.999Z</time></trkpt><trkpt lat="42.076910288888556" lon="13.720857528761409"><ele>934.0</ele><time>2026-04-19T15:28:05.999Z</time></trkpt><trkpt lat="42.07678631018196" lon="13.720820034583843"><ele>934.0</ele><time>2026-04-19T15:28:06.999Z</time></trkpt><trkpt lat="42.07667658901778" lon="13.7207879211886"><ele>934.0</ele><time>2026-04-19T15:28:07.999Z</time></trkpt><trkpt lat="42.076582641796584" lon="13.720716978431959"><ele>934.0</ele><time>2026-04-19T15:28:08.999Z</time></trkpt><trkpt lat="42.076492829059795" lon="13.72061404660741"><ele>935.5</ele><time>2026-04-19T15:28:09.999Z</time></trkpt><trkpt lat="42.07640375105707" lon="13.720484236389337"><ele>937.0</ele><time>2026-04-19T15:28:10.999Z</time></trkpt><trkpt lat="42.076326023450214" lon="13.720315171904687"><ele>938.5</ele><time>2026-04-19T15:28:11.999Z</time></trkpt><trkpt lat="42.07623327504904" lon="13.720148770846782"><ele>940.0</ele><time>2026-04-19T15:28:12.999Z</time></trkpt><trkpt lat="42.07614503995443" lon="13.719986897921364"><ele>940.0</ele><time>2026-04-19T15:28:13.999Z</time></trkpt><trkpt lat="42.076033932757106" lon="13.71985985753616"><ele>940.0</ele><time>2026-04-19T15:28:14.999Z</time></trkpt><trkpt lat="42.075916637609076" lon="13.719755862866428"><ele>940.0</ele><time>2026-04-19T15:28:15.999Z</time></trkpt><trkpt lat="42.07583173950294" lon="13.719617666026668"><ele>940.0</ele><time>2026-04-19T15:28:16.999Z</time></trkpt><trkpt lat="42.075774809884" lon="13.719453688293992"><ele>941.0</ele><time>2026-04-19T15:28:17.999Z</time></trkpt><trkpt lat="42.07572087914645" lon="13.719276017342052"><ele>942.0</ele><time>2026-04-19T15:28:18.999Z</time></trkpt><trkpt lat="42.07566192823697" lon="13.719128404901031"><ele>943.0</ele><time>2026-04-19T15:28:19.999Z</time></trkpt><trkpt lat="42.075626762062655" lon="13.718994167226642"><ele>944.0</ele><time>2026-04-19T15:28:20.999Z</time></trkpt><trkpt lat="42.075568361188296" lon="13.718870087785966"><ele>944.0</ele><time>2026-04-19T15:28:21.999Z</time></trkpt><trkpt lat="42.075464776058055" lon="13.718767715903141"><ele>944.0</ele><time>2026-04-19T15:28:22.999Z</time></trkpt><trkpt lat="42.07533145022032" lon="13.718714331673144"><ele>944.0</ele><time>2026-04-19T15:28:23.999Z</time></trkpt><trkpt lat="42.075191000767845" lon="13.718725535947256"><ele>944.0</ele><time>2026-04-19T15:28:24.999Z</time></trkpt><trkpt lat="42.075046660023915" lon="13.718771838941572"><ele>947.0</ele><time>2026-04-19T15:28:25.999Z</time></trkpt><trkpt lat="42.074901048168485" lon="13.71882660179995"><ele>950.0</ele><time>2026-04-19T15:28:26.999Z</time></trkpt><trkpt lat="42.07475236483253" lon="13.71882580428365"><ele>953.0</ele><time>2026-04-19T15:28:27.999Z</time></trkpt><trkpt lat="42.07460024519487" lon="13.718805121684737"><ele>953.0</ele><time>2026-04-19T15:28:28.999Z</time></trkpt><trkpt lat="42.074436973282424" lon="13.718785798692863"><ele>953.0</ele><time>2026-04-19T15:28:29.999Z</time></trkpt><trkpt lat="42.0742754041216" lon="13.718805134308813"><ele>953.0</ele><time>2026-04-19T15:28:30.999Z</time></trkpt><trkpt lat="42.07412071462726" lon="13.718814952932796"><ele>957.75</ele><time>2026-04-19T15:28:31.999Z</time></trkpt><trkpt lat="42.073981536381815" lon="13.71880314733056"><ele>962.5</ele><time>2026-04-19T15:28:32.999Z</time></trkpt><trkpt lat="42.073843412471724" lon="13.718803639805376"><ele>967.25</ele><time>2026-04-19T15:28:33.999Z</time></trkpt><trkpt lat="42.07371038419943" lon="13.718719494712186"><ele>972.0</ele><time>2026-04-19T15:28:34.999Z</time></trkpt><trkpt lat="42.07358357363275" lon="13.718639184977196"><ele>970.5</ele><time>2026-04-19T15:28:35.999Z</time></trkpt><trkpt lat="42.07347009240161" lon="13.718524950011952"><ele>969.0</ele><time>2026-04-19T15:28:36.999Z</time></trkpt><trkpt lat="42.07338840823204" lon="13.71838093360557"><ele>967.5</ele><time>2026-04-19T15:28:37.999Z</time></trkpt><trkpt lat="42.07328692668475" lon="13.71823076739557"><ele>966.0</ele><time>2026-04-19T15:28:38.999Z</time></trkpt><trkpt lat="42.07320329617472" lon="13.718052855126658"><ele>968.0</ele><time>2026-04-19T15:28:39.999Z</time></trkpt><trkpt lat="42.07312619181897" lon="13.71786000312308"><ele>970.0</ele><time>2026-04-19T15:28:40.999Z</time></trkpt><trkpt lat="42.07302161682749" lon="13.717684233223435"><ele>972.0</ele><time>2026-04-19T15:28:41.999Z</time></trkpt><trkpt lat="42.072931093254404" lon="13.717489076367519"><ele>972.0</ele><time>2026-04-19T15:28:42.999Z</time></trkpt><trkpt lat="42.072834634989604" lon="13.717293457020569"><ele>972.0</ele><time>2026-04-19T15:28:43.999Z</time></trkpt><trkpt lat="42.07273621583798" lon="13.717107922678206"><ele>972.0</ele><time>2026-04-19T15:28:44.999Z</time></trkpt><trkpt lat="42.07265154356872" lon="13.716923889642596"><ele>971.75</ele><time>2026-04-19T15:28:45.999Z</time></trkpt><trkpt lat="42.07260461219093" lon="13.716729923606811"><ele>971.5</ele><time>2026-04-19T15:28:46.999Z</time></trkpt><trkpt lat="42.07253409307985" lon="13.716554390483719"><ele>971.25</ele><time>2026-04-19T15:28:47.999Z</time></trkpt><trkpt lat="42.0724892787118" lon="13.71637389239521"><ele>971.0</ele><time>2026-04-19T15:28:48.999Z</time></trkpt><trkpt lat="42.07244720041175" lon="13.716205878501285"><ele>971.1999999999999</ele><time>2026-04-19T15:28:49.999Z</time></trkpt><trkpt lat="42.072417893103434" lon="13.716055747536396"><ele>971.3999999999999</ele><time>2026-04-19T15:28:50.999Z</time></trkpt><trkpt lat="42.072416078166285" lon="13.71591555264559"><ele>971.6</ele><time>2026-04-19T15:28:51.999Z</time></trkpt><trkpt lat="42.07244620158214" lon="13.71577676081879"><ele>971.8</ele><time>2026-04-19T15:28:52.999Z</time></trkpt><trkpt lat="42.07248528124014" lon="13.715665083519717"><ele>972.0</ele><time>2026-04-19T15:28:53.999Z</time></trkpt><trkpt lat="42.07248612708948" lon="13.715564628221115"><ele>972.0</ele><time>2026-04-19T15:28:54.999Z</time></trkpt><trkpt lat="42.07244405746951" lon="13.715475943976974"><ele>972.0</ele><time>2026-04-19T15:28:55.999Z</time></trkpt><trkpt lat="42.07236316260126" lon="13.71542431906076"><ele>972.0</ele><time>2026-04-19T15:28:56.999Z</time></trkpt><trkpt lat="42.07226492787156" lon="13.715422444535447"><ele>972.0</ele><time>2026-04-19T15:28:58Z</time></trkpt><trkpt lat="42.07215499228957" lon="13.715460642383162"><ele>972.0</ele><time>2026-04-19T15:28:59Z</time></trkpt><trkpt lat="42.07203776333312" lon="13.715512348670183"><ele>972.5</ele><time>2026-04-19T15:29:00Z</time></trkpt><trkpt lat="42.07191260867233" lon="13.715565013159477"><ele>973.0</ele><time>2026-04-19T15:29:01Z</time></trkpt><trkpt lat="42.07177473978943" lon="13.715614951320788"><ele>973.5</ele><time>2026-04-19T15:29:02Z</time></trkpt><trkpt lat="42.071618871338856" lon="13.715661887650832"><ele>974.0</ele><time>2026-04-19T15:29:03Z</time></trkpt><trkpt lat="42.07146122599733" lon="13.715716469188974"><ele>971.3333333333334</ele><time>2026-04-19T15:29:04Z</time></trkpt><trkpt lat="42.07129943060937" lon="13.715778138412189"><ele>968.6666666666667</ele><time>2026-04-19T15:29:05Z</time></trkpt><trkpt lat="42.071141289519446" lon="13.715836872251408"><ele>966.0</ele><time>2026-04-19T15:29:06Z</time></trkpt><trkpt lat="42.07099738762293" lon="13.715894412191819"><ele>966.0</ele><time>2026-04-19T15:29:07Z</time></trkpt><trkpt lat="42.07085900634337" lon="13.715966334295013"><ele>966.0</ele><time>2026-04-19T15:29:08Z</time></trkpt><trkpt lat="42.07072834622256" lon="13.716059016236409"><ele>966.0</ele><time>2026-04-19T15:29:09Z</time></trkpt><trkpt lat="42.07060674619116" lon="13.716167891555452"><ele>966.0</ele><time>2026-04-19T15:29:10Z</time></trkpt><trkpt lat="42.07049828882373" lon="13.71628039254225"><ele>968.0</ele><time>2026-04-19T15:29:11Z</time></trkpt><trkpt lat="42.07040291502113" lon="13.716388946025788"><ele>970.0</ele><time>2026-04-19T15:29:12Z</time></trkpt><trkpt lat="42.0702955440056" lon="13.716455860139991"><ele>972.0</ele><time>2026-04-19T15:29:13Z</time></trkpt><trkpt lat="42.070195082499794" lon="13.716507822487872"><ele>974.0</ele><time>2026-04-19T15:29:14Z</time></trkpt><trkpt lat="42.07008618186228" lon="13.71653750318335"><ele>974.0</ele><time>2026-04-19T15:29:15Z</time></trkpt><trkpt lat="42.06997108994034" lon="13.716563353698149"><ele>974.0</ele><time>2026-04-19T15:29:16Z</time></trkpt><trkpt lat="42.06985622982401" lon="13.716509806449386"><ele>974.0</ele><time>2026-04-19T15:29:17Z</time></trkpt><trkpt lat="42.06974361438288" lon="13.7164467020863"><ele>974.0</ele><time>2026-04-19T15:29:18Z</time></trkpt><trkpt lat="42.069634018331605" lon="13.716352779987776"><ele>975.5</ele><time>2026-04-19T15:29:19Z</time></trkpt><trkpt lat="42.0695545665263" lon="13.716216759195223"><ele>977.0</ele><time>2026-04-19T15:29:20Z</time></trkpt><trkpt lat="42.0695175122037" lon="13.716050727514164"><ele>978.5</ele><time>2026-04-19T15:29:21Z</time></trkpt><trkpt lat="42.06946133253813" lon="13.715899195951813"><ele>980.0</ele><time>2026-04-19T15:29:22Z</time></trkpt><trkpt lat="42.06941521217897" lon="13.715761173681786"><ele>980.0</ele><time>2026-04-19T15:29:23Z</time></trkpt><trkpt lat="42.06933729268422" lon="13.715644137665468"><ele>980.0</ele><time>2026-04-19T15:29:24Z</time></trkpt><trkpt lat="42.06923996178749" lon="13.71554155205952"><ele>980.0</ele><time>2026-04-19T15:29:25Z</time></trkpt><trkpt lat="42.06912446169899" lon="13.71546042413408"><ele>980.0</ele><time>2026-04-19T15:29:26Z</time></trkpt><trkpt lat="42.06900039933113" lon="13.715394338968114"><ele>981.75</ele><time>2026-04-19T15:29:27Z</time></trkpt><trkpt lat="42.0688700709687" lon="13.715331503712532"><ele>983.5</ele><time>2026-04-19T15:29:28Z</time></trkpt><trkpt lat="42.068754752203596" lon="13.715277997878156"><ele>985.25</ele><time>2026-04-19T15:29:29Z</time></trkpt><trkpt lat="42.06866217179676" lon="13.715227281021285"><ele>987.0</ele><time>2026-04-19T15:29:30Z</time></trkpt><trkpt lat="42.06858422646631" lon="13.715166952124243"><ele>987.0</ele><time>2026-04-19T15:29:31Z</time></trkpt><trkpt lat="42.068516358247784" lon="13.715092248631862"><ele>987.0</ele><time>2026-04-19T15:29:32Z</time></trkpt><trkpt lat="42.06846289436114" lon="13.714999445108107"><ele>987.0</ele><time>2026-04-19T15:29:33Z</time></trkpt><trkpt lat="42.068427690600316" lon="13.71487953807605"><ele>987.0</ele><time>2026-04-19T15:29:34Z</time></trkpt><trkpt lat="42.068411580993114" lon="13.714737003486896"><ele>987.0</ele><time>2026-04-19T15:29:35Z</time></trkpt><trkpt lat="42.06839713064293" lon="13.714579676271631"><ele>987.0</ele><time>2026-04-19T15:29:36Z</time></trkpt><trkpt lat="42.06837376537305" lon="13.7144135269423"><ele>987.0</ele><time>2026-04-19T15:29:37Z</time></trkpt><trkpt lat="42.06835641142275" lon="13.714230014908566"><ele>987.0</ele><time>2026-04-19T15:29:38Z</time></trkpt><trkpt lat="42.06835114228621" lon="13.714039530380516"><ele>987.0</ele><time>2026-04-19T15:29:39Z</time></trkpt><trkpt lat="42.068355918425084" lon="13.713845260079184"><ele>987.3333333333333</ele><time>2026-04-19T15:29:40Z</time></trkpt><trkpt lat="42.06837114641116" lon="13.71364652220196"><ele>987.6666666666666</ele><time>2026-04-19T15:29:41Z</time></trkpt><trkpt lat="42.068392860264545" lon="13.713439734054813"><ele>988.0</ele><time>2026-04-19T15:29:42Z</time></trkpt><trkpt lat="42.0684101966022" lon="13.713209944747621"><ele>988.6666666666666</ele><time>2026-04-19T15:29:43Z</time></trkpt><trkpt lat="42.06842643186304" lon="13.71296839894016"><ele>989.3333333333333</ele><time>2026-04-19T15:29:44Z</time></trkpt><trkpt lat="42.06844606189465" lon="13.712744772002292"><ele>990.0</ele><time>2026-04-19T15:29:45Z</time></trkpt><trkpt lat="42.068460511659914" lon="13.71253821773816"><ele>992.6666666666667</ele><time>2026-04-19T15:29:46Z</time></trkpt><trkpt lat="42.06846816339012" lon="13.712338876894972"><ele>995.3333333333334</ele><time>2026-04-19T15:29:47Z</time></trkpt><trkpt lat="42.068474008450394" lon="13.712131179782485"><ele>998.0</ele><time>2026-04-19T15:29:48Z</time></trkpt><trkpt lat="42.06847874521255" lon="13.711921090212666"><ele>998.25</ele><time>2026-04-19T15:29:49Z</time></trkpt><trkpt lat="42.06848263305104" lon="13.711717777215076"><ele>998.5</ele><time>2026-04-19T15:29:50Z</time></trkpt><trkpt lat="42.06848133317105" lon="13.711524330830661"><ele>998.75</ele><time>2026-04-19T15:29:51Z</time></trkpt><trkpt lat="42.06847492391038" lon="13.711330904961851"><ele>999.0</ele><time>2026-04-19T15:29:52Z</time></trkpt><trkpt lat="42.06846615063499" lon="13.711138391251433"><ele>1000.75</ele><time>2026-04-19T15:29:53Z</time></trkpt><trkpt lat="42.06845882675635" lon="13.710942995462249"><ele>1002.5</ele><time>2026-04-19T15:29:54Z</time></trkpt><trkpt lat="42.068462380958536" lon="13.710743819641216"><ele>1004.25</ele><time>2026-04-19T15:29:55Z</time></trkpt><trkpt lat="42.068439615577134" lon="13.710552186636084"><ele>1006.0</ele><time>2026-04-19T15:29:56Z</time></trkpt><trkpt lat="42.06841696057725" lon="13.710354524040731"><ele>1006.5</ele><time>2026-04-19T15:29:57Z</time></trkpt><trkpt lat="42.068397182915945" lon="13.710166253247376"><ele>1007.0</ele><time>2026-04-19T15:29:58Z</time></trkpt><trkpt lat="42.068386944804516" lon="13.710004237629452"><ele>1007.5</ele><time>2026-04-19T15:29:59Z</time></trkpt><trkpt lat="42.068381249434594" lon="13.709870017814392"><ele>1008.0</ele><time>2026-04-19T15:30:00Z</time></trkpt><trkpt lat="42.06836911736615" lon="13.70973825724248"><ele>1008.0</ele><time>2026-04-19T15:30:01Z</time></trkpt><trkpt lat="42.06834216523548" lon="13.709609367819258"><ele>1008.0</ele><time>2026-04-19T15:30:02Z</time></trkpt><trkpt lat="42.06830798347094" lon="13.709482935019018"><ele>1008.0</ele><time>2026-04-19T15:30:03Z</time></trkpt><trkpt lat="42.068268337071444" lon="13.709360222109549"><ele>1008.0</ele><time>2026-04-19T15:30:04Z</time></trkpt><trkpt lat="42.06823103274111" lon="13.709237269722024"><ele>1008.0</ele><time>2026-04-19T15:30:05Z</time></trkpt><trkpt lat="42.06819454047901" lon="13.70910881283374"><ele>1012.2</ele><time>2026-04-19T15:30:06Z</time></trkpt><trkpt lat="42.06815788871257" lon="13.708974789414238"><ele>1016.4</ele><time>2026-04-19T15:30:07Z</time></trkpt><trkpt lat="42.068123045407866" lon="13.708839772576601"><ele>1020.6000000000001</ele><time>2026-04-19T15:30:08Z</time></trkpt><trkpt lat="42.06809917074445" lon="13.708710721732956"><ele>1024.8</ele><time>2026-04-19T15:30:09Z</time></trkpt><trkpt lat="42.06809128498923" lon="13.70860702042941"><ele>1029.0</ele><time>2026-04-19T15:30:10Z</time></trkpt><trkpt lat="42.06808584572698" lon="13.708504597715667"><ele>1029.1666666666667</ele><time>2026-04-19T15:30:11Z</time></trkpt><trkpt lat="42.06808567763921" lon="13.708397647005272"><ele>1029.3333333333333</ele><time>2026-04-19T15:30:12Z</time></trkpt><trkpt lat="42.068095814166355" lon="13.708287274977467"><ele>1029.5</ele><time>2026-04-19T15:30:13Z</time></trkpt><trkpt lat="42.068116925422416" lon="13.708170712252892"><ele>1029.6666666666665</ele><time>2026-04-19T15:30:14Z</time></trkpt><trkpt lat="42.068149052952535" lon="13.70805247920295"><ele>1029.8333333333333</ele><time>2026-04-19T15:30:15Z</time></trkpt><trkpt lat="42.06820340096984" lon="13.70794046634983"><ele>1030.0</ele><time>2026-04-19T15:30:16Z</time></trkpt><trkpt lat="42.06828604182589" lon="13.70784912230332"><ele>1030.0</ele><time>2026-04-19T15:30:17Z</time></trkpt><trkpt lat="42.06838801696768" lon="13.707768846987342"><ele>1030.0</ele><time>2026-04-19T15:30:18Z</time></trkpt><trkpt lat="42.068509690228055" lon="13.70769560856737"><ele>1030.0</ele><time>2026-04-19T15:30:19Z</time></trkpt><trkpt lat="42.06863201724837" lon="13.707605125111167"><ele>1030.0</ele><time>2026-04-19T15:30:20Z</time></trkpt><trkpt lat="42.06875160555669" lon="13.707497358267945"><ele>1030.0</ele><time>2026-04-19T15:30:21Z</time></trkpt><trkpt lat="42.06886817258982" lon="13.707364101209343"><ele>1030.0</ele><time>2026-04-19T15:30:22Z</time></trkpt><trkpt lat="42.068990103217835" lon="13.707241468301229"><ele>1030.0</ele><time>2026-04-19T15:30:23Z</time></trkpt><trkpt lat="42.069111187945154" lon="13.707110903813374"><ele>1026.6666666666665</ele><time>2026-04-19T15:30:24Z</time></trkpt><trkpt lat="42.06921998718131" lon="13.706965414530034"><ele>1023.3333333333333</ele><time>2026-04-19T15:30:25Z</time></trkpt><trkpt lat="42.06932089422638" lon="13.706808223305023"><ele>1020.0</ele><time>2026-04-19T15:30:26Z</time></trkpt><trkpt lat="42.06941309108113" lon="13.706657205517718"><ele>1025.25</ele><time>2026-04-19T15:30:27Z</time></trkpt><trkpt lat="42.069489589372" lon="13.706529153682663"><ele>1030.5</ele><time>2026-04-19T15:30:28Z</time></trkpt><trkpt lat="42.0695701775548" lon="13.706413827222631"><ele>1035.75</ele><time>2026-04-19T15:30:29Z</time></trkpt><trkpt lat="42.069665382878796" lon="13.706315463710428"><ele>1041.0</ele><time>2026-04-19T15:30:30Z</time></trkpt><trkpt lat="42.06974955682087" lon="13.706256022031123"><ele>1041.0</ele><time>2026-04-19T15:30:31Z</time></trkpt><trkpt lat="42.069821094409946" lon="13.706215538791351"><ele>1041.0</ele><time>2026-04-19T15:30:32Z</time></trkpt><trkpt lat="42.06988859246382" lon="13.706181831821697"><ele>1041.0</ele><time>2026-04-19T15:30:33Z</time></trkpt><trkpt lat="42.069953664515445" lon="13.706163362258714"><ele>1041.0</ele><time>2026-04-19T15:30:34Z</time></trkpt><trkpt lat="42.0700616598438" lon="13.706132931731654"><ele>1041.0</ele><time>2026-04-19T15:30:36Z</time></trkpt><trkpt lat="42.070168841649014" lon="13.70607535596227"><ele>1041.0</ele><time>2026-04-19T15:30:38Z</time></trkpt><trkpt lat="42.070222060326046" lon="13.705920101745239"><ele>1042.5</ele><time>2026-04-19T15:30:39Z</time></trkpt><trkpt lat="42.070315897317" lon="13.705852812181469"><ele>1044.0</ele><time>2026-04-19T15:30:40Z</time></trkpt><trkpt lat="42.070431527127155" lon="13.705868178919669"><ele>1045.5</ele><time>2026-04-19T15:30:41Z</time></trkpt><trkpt lat="42.070561108315616" lon="13.705873297077547"><ele>1047.0</ele><time>2026-04-19T15:30:42Z</time></trkpt><trkpt lat="42.07070070227398" lon="13.70588384644863"><ele>1045.5</ele><time>2026-04-19T15:30:43Z</time></trkpt><trkpt lat="42.07083430379447" lon="13.705884881341373"><ele>1044.0</ele><time>2026-04-19T15:30:44Z</time></trkpt><trkpt lat="42.07096145470986" lon="13.705837147992614"><ele>1042.5</ele><time>2026-04-19T15:30:45Z</time></trkpt><trkpt lat="42.07108495317974" lon="13.705732978038894"><ele>1041.0</ele><time>2026-04-19T15:30:46Z</time></trkpt><trkpt lat="42.07119358814048" lon="13.705569591603865"><ele>1041.0</ele><time>2026-04-19T15:30:47Z</time></trkpt><trkpt lat="42.07129978678322" lon="13.70537884818579"><ele>1041.0</ele><time>2026-04-19T15:30:48Z</time></trkpt><trkpt lat="42.07142397153448" lon="13.705206131586126"><ele>1041.0</ele><time>2026-04-19T15:30:49Z</time></trkpt><trkpt lat="42.07158133880052" lon="13.705054418209455"><ele>1042.6666666666667</ele><time>2026-04-19T15:30:50Z</time></trkpt><trkpt lat="42.0717428143126" lon="13.704910398514983"><ele>1044.3333333333335</ele><time>2026-04-19T15:30:51Z</time></trkpt><trkpt lat="42.07189274405594" lon="13.704765887957597"><ele>1046.0</ele><time>2026-04-19T15:30:52Z</time></trkpt><trkpt lat="42.07202441043968" lon="13.704632383843041"><ele>1046.0</ele><time>2026-04-19T15:30:53Z</time></trkpt><trkpt lat="42.07214729415714" lon="13.704511849213093"><ele>1046.0</ele><time>2026-04-19T15:30:54Z</time></trkpt><trkpt lat="42.07226748422929" lon="13.704385756958628"><ele>1046.0</ele><time>2026-04-19T15:30:55Z</time></trkpt><trkpt lat="42.07237338123155" lon="13.704237655786276"><ele>1047.5</ele><time>2026-04-19T15:30:56Z</time></trkpt><trkpt lat="42.072461394136994" lon="13.704072620042332"><ele>1049.0</ele><time>2026-04-19T15:30:57Z</time></trkpt><trkpt lat="42.07253806844549" lon="13.703917134161092"><ele>1050.5</ele><time>2026-04-19T15:30:58Z</time></trkpt><trkpt lat="42.07261516170577" lon="13.703787084258593"><ele>1052.0</ele><time>2026-04-19T15:30:59Z</time></trkpt><trkpt lat="42.07268185058361" lon="13.70367412941626"><ele>1054.3333333333335</ele><time>2026-04-19T15:31:00Z</time></trkpt><trkpt lat="42.072714821575666" lon="13.703564926411666"><ele>1056.6666666666667</ele><time>2026-04-19T15:31:01Z</time></trkpt><trkpt lat="42.072698625665176" lon="13.703443735956633"><ele>1059.0</ele><time>2026-04-19T15:31:02Z</time></trkpt><trkpt lat="42.07263801795146" lon="13.703349286867912"><ele>1061.3333333333333</ele><time>2026-04-19T15:31:03Z</time></trkpt><trkpt lat="42.072550339358436" lon="13.703331293024885"><ele>1063.6666666666665</ele><time>2026-04-19T15:31:04.001Z</time></trkpt><trkpt lat="42.072474419010724" lon="13.70334133202633"><ele>1066.0</ele><time>2026-04-19T15:31:05.001Z</time></trkpt><trkpt lat="42.07235406910323" lon="13.703442962660722"><ele>1065.3333333333333</ele><time>2026-04-19T15:31:06.001Z</time></trkpt><trkpt lat="42.07226388351822" lon="13.703610322390524"><ele>1064.6666666666667</ele><time>2026-04-19T15:31:07.001Z</time></trkpt><trkpt lat="42.07215464837109" lon="13.703765628764684"><ele>1064.0</ele><time>2026-04-19T15:31:08.001Z</time></trkpt><trkpt lat="42.072028609888136" lon="13.703928660229268"><ele>1064.0</ele><time>2026-04-19T15:31:09.001Z</time></trkpt><trkpt lat="42.071892706623345" lon="13.70409599661555"><ele>1064.0</ele><time>2026-04-19T15:31:10.001Z</time></trkpt><trkpt lat="42.07175675904134" lon="13.70424293612347"><ele>1064.0</ele><time>2026-04-19T15:31:11.001Z</time></trkpt><trkpt lat="42.07161747952578" lon="13.704340812506597"><ele>1067.3333333333335</ele><time>2026-04-19T15:31:12.001Z</time></trkpt><trkpt lat="42.07146755224658" lon="13.704398043460229"><ele>1070.6666666666667</ele><time>2026-04-19T15:31:13.001Z</time></trkpt><trkpt lat="42.07130093430431" lon="13.704386036312759"><ele>1074.0</ele><time>2026-04-19T15:31:14.001Z</time></trkpt><trkpt lat="42.07111366256018" lon="13.704377928479808"><ele>1074.0</ele><time>2026-04-19T15:31:15Z</time></trkpt><trkpt lat="42.070920278616505" lon="13.704381007813446"><ele>1074.0</ele><time>2026-04-19T15:31:16Z</time></trkpt><trkpt lat="42.070721029467734" lon="13.704362002235118"><ele>1074.0</ele><time>2026-04-19T15:31:17Z</time></trkpt><trkpt lat="42.0705197033203" lon="13.70434209276765"><ele>1072.3333333333333</ele><time>2026-04-19T15:31:18Z</time></trkpt><trkpt lat="42.070341340877405" lon="13.704360547523867"><ele>1070.6666666666665</ele><time>2026-04-19T15:31:19Z</time></trkpt><trkpt lat="42.07018440532499" lon="13.704424096369502"><ele>1069.0</ele><time>2026-04-19T15:31:20Z</time></trkpt><trkpt lat="42.07001909118274" lon="13.704538607744428"><ele>1080.3333333333333</ele><time>2026-04-19T15:31:21Z</time></trkpt><trkpt lat="42.06986939276423" lon="13.704721867200142"><ele>1091.6666666666667</ele><time>2026-04-19T15:31:22Z</time></trkpt><trkpt lat="42.06972457922667" lon="13.704956115273351"><ele>1103.0</ele><time>2026-04-19T15:31:23Z</time></trkpt><trkpt lat="42.069553062132684" lon="13.705178121019587"><ele>1098.3333333333335</ele><time>2026-04-19T15:31:24Z</time></trkpt><trkpt lat="42.06938818222655" lon="13.705349789881204"><ele>1093.6666666666667</ele><time>2026-04-19T15:31:25Z</time></trkpt><trkpt lat="42.069195660504185" lon="13.705495798405417"><ele>1089.0</ele><time>2026-04-19T15:31:26Z</time></trkpt><trkpt lat="42.068986849507965" lon="13.705627368712939"><ele>1089.0</ele><time>2026-04-19T15:31:27Z</time></trkpt><trkpt lat="42.06879698944946" lon="13.705729155820785"><ele>1089.0</ele><time>2026-04-19T15:31:28Z</time></trkpt><trkpt lat="42.068583972437835" lon="13.705813646500811"><ele>1089.0</ele><time>2026-04-19T15:31:29Z</time></trkpt><trkpt lat="42.06834283026838" lon="13.705856312708729"><ele>1093.6666666666667</ele><time>2026-04-19T15:31:30Z</time></trkpt><trkpt lat="42.068132034965956" lon="13.70593901695788"><ele>1098.3333333333335</ele><time>2026-04-19T15:31:31Z</time></trkpt><trkpt lat="42.067925143797275" lon="13.705976318007139"><ele>1103.0</ele><time>2026-04-19T15:31:32Z</time></trkpt><trkpt lat="42.06770653449714" lon="13.706026454648939"><ele>1103.0</ele><time>2026-04-19T15:31:33Z</time></trkpt><trkpt lat="42.06748307060184" lon="13.706061488259124"><ele>1103.0</ele><time>2026-04-19T15:31:34Z</time></trkpt><trkpt lat="42.06724971314379" lon="13.706085210352047"><ele>1106.0</ele><time>2026-04-19T15:31:35Z</time></trkpt><trkpt lat="42.06702494206237" lon="13.706087833146583"><ele>1109.0</ele><time>2026-04-19T15:31:36Z</time></trkpt><trkpt lat="42.06679493333223" lon="13.706068227843499"><ele>1100.3333333333335</ele><time>2026-04-19T15:31:37Z</time></trkpt><trkpt lat="42.0666092549426" lon="13.706080795649406"><ele>1091.6666666666667</ele><time>2026-04-19T15:31:38Z</time></trkpt><trkpt lat="42.0664228648525" lon="13.706085227406582"><ele>1083.0</ele><time>2026-04-19T15:31:39Z</time></trkpt><trkpt lat="42.066233397585975" lon="13.706120370158304"><ele>1083.0</ele><time>2026-04-19T15:31:40Z</time></trkpt><trkpt lat="42.066051253918616" lon="13.706184122830756"><ele>1083.0</ele><time>2026-04-19T15:31:41Z</time></trkpt><trkpt lat="42.06588141598699" lon="13.706251525138276"><ele>1083.0</ele><time>2026-04-19T15:31:42Z</time></trkpt><trkpt lat="42.06570127781608" lon="13.706254866427935"><ele>1086.6666666666667</ele><time>2026-04-19T15:31:43Z</time></trkpt><trkpt lat="42.06551209639494" lon="13.70623537666549"><ele>1090.3333333333335</ele><time>2026-04-19T15:31:44Z</time></trkpt><trkpt lat="42.06530689674902" lon="13.70620644934249"><ele>1094.0</ele><time>2026-04-19T15:31:45Z</time></trkpt><trkpt lat="42.06509468732923" lon="13.706182823940653"><ele>1101.3333333333335</ele><time>2026-04-19T15:31:46Z</time></trkpt><trkpt lat="42.06490451413985" lon="13.706152671767441"><ele>1108.6666666666667</ele><time>2026-04-19T15:31:47Z</time></trkpt><trkpt lat="42.064733020068424" lon="13.706133894942516"><ele>1116.0</ele><time>2026-04-19T15:31:48Z</time></trkpt><trkpt lat="42.064580744179935" lon="13.706122396689642"><ele>1116.0</ele><time>2026-04-19T15:31:49Z</time></trkpt><trkpt lat="42.06443397356482" lon="13.706127409933462"><ele>1116.0</ele><time>2026-04-19T15:31:50Z</time></trkpt><trkpt lat="42.064298548811706" lon="13.70612225357734"><ele>1116.0</ele><time>2026-04-19T15:31:51Z</time></trkpt><trkpt lat="42.0641686345417" lon="13.70610730111372"><ele>1116.0</ele><time>2026-04-19T15:31:52Z</time></trkpt><trkpt lat="42.06406380509585" lon="13.706067922902173"><ele>1115.0</ele><time>2026-04-19T15:31:53Z</time></trkpt><trkpt lat="42.06397282780856" lon="13.705946520175855"><ele>1114.0</ele><time>2026-04-19T15:31:54Z</time></trkpt><trkpt lat="42.06387493730621" lon="13.705803541510907"><ele>1113.0</ele><time>2026-04-19T15:31:55Z</time></trkpt><trkpt lat="42.06376242306361" lon="13.705639671332644"><ele>1112.0</ele><time>2026-04-19T15:31:56Z</time></trkpt><trkpt lat="42.063634992940536" lon="13.705464612893568"><ele>1112.0</ele><time>2026-04-19T15:31:57Z</time></trkpt><trkpt lat="42.063515551393046" lon="13.705265234560569"><ele>1112.0</ele><time>2026-04-19T15:31:58Z</time></trkpt><trkpt lat="42.06342194435239" lon="13.705056355129232"><ele>1112.0</ele><time>2026-04-19T15:31:59Z</time></trkpt><trkpt lat="42.063316153185724" lon="13.704889779800585"><ele>1102.6666666666667</ele><time>2026-04-19T15:32:00Z</time></trkpt><trkpt lat="42.063237848144276" lon="13.704716420969536"><ele>1093.3333333333333</ele><time>2026-04-19T15:32:01Z</time></trkpt><trkpt lat="42.06320249586807" lon="13.704523738849899"><ele>1084.0</ele><time>2026-04-19T15:32:02Z</time></trkpt><trkpt lat="42.06316715909496" lon="13.704304328795034"><ele>1084.0</ele><time>2026-04-19T15:32:03Z</time></trkpt><trkpt lat="42.0631278556235" lon="13.704066422983221"><ele>1084.0</ele><time>2026-04-19T15:32:04Z</time></trkpt><trkpt lat="42.06307582400223" lon="13.703828641536713"><ele>1084.0</ele><time>2026-04-19T15:32:05Z</time></trkpt><trkpt lat="42.06302790197442" lon="13.703581012585191"><ele>1087.0</ele><time>2026-04-19T15:32:06Z</time></trkpt><trkpt lat="42.0629615164642" lon="13.703346652551256"><ele>1090.0</ele><time>2026-04-19T15:32:07Z</time></trkpt><trkpt lat="42.062861538589914" lon="13.70314593261949"><ele>1093.0</ele><time>2026-04-19T15:32:08Z</time></trkpt><trkpt lat="42.06275031275336" lon="13.70296934032202"><ele>1093.0</ele><time>2026-04-19T15:32:09Z</time></trkpt><trkpt lat="42.06264737539596" lon="13.702812867308351"><ele>1093.0</ele><time>2026-04-19T15:32:10Z</time></trkpt><trkpt lat="42.06255997661898" lon="13.702654723549683"><ele>1093.0</ele><time>2026-04-19T15:32:11Z</time></trkpt><trkpt lat="42.0625165681358" lon="13.702465474252856"><ele>1093.0</ele><time>2026-04-19T15:32:12Z</time></trkpt><trkpt lat="42.06247223797401" lon="13.702264252665808"><ele>1096.3333333333333</ele><time>2026-04-19T15:32:13Z</time></trkpt><trkpt lat="42.06248775259961" lon="13.702025327713454"><ele>1099.6666666666667</ele><time>2026-04-19T15:32:14Z</time></trkpt><trkpt lat="42.062478801015715" lon="13.701764491625875"><ele>1103.0</ele><time>2026-04-19T15:32:15Z</time></trkpt><trkpt lat="42.062482622232324" lon="13.701496582724758"><ele>1104.3333333333335</ele><time>2026-04-19T15:32:16Z</time></trkpt><trkpt lat="42.06248656113688" lon="13.701217954617238"><ele>1105.6666666666667</ele><time>2026-04-19T15:32:17Z</time></trkpt><trkpt lat="42.06249177561895" lon="13.700940417149727"><ele>1107.0</ele><time>2026-04-19T15:32:18Z</time></trkpt><trkpt lat="42.06249095428831" lon="13.70067747279603"><ele>1107.6666666666667</ele><time>2026-04-19T15:32:19Z</time></trkpt><trkpt lat="42.062489705911794" lon="13.70043447431911"><ele>1108.3333333333335</ele><time>2026-04-19T15:32:20Z</time></trkpt><trkpt lat="42.06249104346789" lon="13.700204092995754"><ele>1109.0</ele><time>2026-04-19T15:32:21Z</time></trkpt><trkpt lat="42.062494603801206" lon="13.699981319012775"><ele>1109.3333333333335</ele><time>2026-04-19T15:32:22Z</time></trkpt><trkpt lat="42.062491325304855" lon="13.699748703275448"><ele>1109.6666666666667</ele><time>2026-04-19T15:32:23Z</time></trkpt><trkpt lat="42.062474484245996" lon="13.699512849732768"><ele>1110.0</ele><time>2026-04-19T15:32:24Z</time></trkpt><trkpt lat="42.06245630887605" lon="13.699272675365174"><ele>1109.0</ele><time>2026-04-19T15:32:25Z</time></trkpt><trkpt lat="42.062445512424794" lon="13.699030672574532"><ele>1108.0</ele><time>2026-04-19T15:32:26Z</time></trkpt><trkpt lat="42.06245836421729" lon="13.69878716882561"><ele>1107.0</ele><time>2026-04-19T15:32:27Z</time></trkpt><trkpt lat="42.0624757052378" lon="13.698545970684863"><ele>1106.0</ele><time>2026-04-19T15:32:28Z</time></trkpt><trkpt lat="42.06249538517146" lon="13.698305405085522"><ele>1105.0</ele><time>2026-04-19T15:32:29Z</time></trkpt><trkpt lat="42.06249700151373" lon="13.69807061739658"><ele>1104.0</ele><time>2026-04-19T15:32:30Z</time></trkpt><trkpt lat="42.06250559700364" lon="13.697821683400093"><ele>1103.3333333333333</ele><time>2026-04-19T15:32:31Z</time></trkpt><trkpt lat="42.06249092886298" lon="13.697559781049115"><ele>1102.6666666666665</ele><time>2026-04-19T15:32:32Z</time></trkpt><trkpt lat="42.062466549835236" lon="13.697293049544339"><ele>1102.0</ele><time>2026-04-19T15:32:33Z</time></trkpt><trkpt lat="42.0624421766541" lon="13.697019547154095"><ele>1094.0</ele><time>2026-04-19T15:32:34Z</time></trkpt><trkpt lat="42.06242403159368" lon="13.69674145003588"><ele>1086.0</ele><time>2026-04-19T15:32:35Z</time></trkpt><trkpt lat="42.062405366751086" lon="13.696457313128448"><ele>1078.0</ele><time>2026-04-19T15:32:36Z</time></trkpt><trkpt lat="42.06238424699701" lon="13.696166549074803"><ele>1077.0</ele><time>2026-04-19T15:32:37Z</time></trkpt><trkpt lat="42.0623622433999" lon="13.69587738894102"><ele>1076.0</ele><time>2026-04-19T15:32:37.999Z</time></trkpt><trkpt lat="42.06234223963622" lon="13.695585961349177"><ele>1075.0</ele><time>2026-04-19T15:32:38.999Z</time></trkpt><trkpt lat="42.062327891982" lon="13.695310543638767"><ele>1075.6666666666665</ele><time>2026-04-19T15:32:39.999Z</time></trkpt><trkpt lat="42.06231337209828" lon="13.69505454694948"><ele>1076.3333333333333</ele><time>2026-04-19T15:32:40.999Z</time></trkpt><trkpt lat="42.062301559395486" lon="13.694812595432463"><ele>1077.0</ele><time>2026-04-19T15:32:41.999Z</time></trkpt><trkpt lat="42.06228557987648" lon="13.694584227477892"><ele>1079.3333333333333</ele><time>2026-04-19T15:32:42.999Z</time></trkpt><trkpt lat="42.06227043091949" lon="13.694368452230757"><ele>1081.6666666666665</ele><time>2026-04-19T15:32:43.999Z</time></trkpt><trkpt lat="42.062257911693436" lon="13.694163498688107"><ele>1084.0</ele><time>2026-04-19T15:32:44.999Z</time></trkpt><trkpt lat="42.06223004697459" lon="13.693965727654211"><ele>1084.0</ele><time>2026-04-19T15:32:45.999Z</time></trkpt><trkpt lat="42.0621646228195" lon="13.693767224976467"><ele>1084.0</ele><time>2026-04-19T15:32:46.999Z</time></trkpt><trkpt lat="42.06207495431896" lon="13.693573541090426"><ele>1084.0</ele><time>2026-04-19T15:32:47.999Z</time></trkpt><trkpt lat="42.06198762063154" lon="13.693410523799308"><ele>1086.75</ele><time>2026-04-19T15:32:48.999Z</time></trkpt><trkpt lat="42.06191663415602" lon="13.693259668615521"><ele>1089.5</ele><time>2026-04-19T15:32:49.999Z</time></trkpt><trkpt lat="42.06187481093998" lon="13.693111402633027"><ele>1092.25</ele><time>2026-04-19T15:32:50.999Z</time></trkpt><trkpt lat="42.06187180146858" lon="13.692960588652697"><ele>1095.0</ele><time>2026-04-19T15:32:51.999Z</time></trkpt><trkpt lat="42.061936894572696" lon="13.692825030590155"><ele>1095.0</ele><time>2026-04-19T15:32:52.999Z</time></trkpt><trkpt lat="42.062022678844336" lon="13.69267961677814"><ele>1095.0</ele><time>2026-04-19T15:32:53.999Z</time></trkpt><trkpt lat="42.062108025242495" lon="13.692505241952343"><ele>1095.0</ele><time>2026-04-19T15:32:54.999Z</time></trkpt><trkpt lat="42.062220441189304" lon="13.692330841196153"><ele>1095.0</ele><time>2026-04-19T15:32:55.999Z</time></trkpt><trkpt lat="42.06234456636583" lon="13.692128355419873"><ele>1095.0</ele><time>2026-04-19T15:32:56.999Z</time></trkpt><trkpt lat="42.06249149434822" lon="13.691892797443703"><ele>1095.0</ele><time>2026-04-19T15:32:57.999Z</time></trkpt><trkpt lat="42.06264337425482" lon="13.691651021766486"><ele>1091.5</ele><time>2026-04-19T15:32:58.999Z</time></trkpt><trkpt lat="42.06279452734324" lon="13.691400510583273"><ele>1088.0</ele><time>2026-04-19T15:32:59.999Z</time></trkpt><trkpt lat="42.06293697383597" lon="13.69113274758147"><ele>1082.5</ele><time>2026-04-19T15:33:00.999Z</time></trkpt><trkpt lat="42.06307177536479" lon="13.69082842330116"><ele>1077.0</ele><time>2026-04-19T15:33:01.999Z</time></trkpt><trkpt lat="42.063205684540435" lon="13.690504586233171"><ele>1081.0</ele><time>2026-04-19T15:33:02.999Z</time></trkpt><trkpt lat="42.063328878273445" lon="13.69019651218284"><ele>1085.0</ele><time>2026-04-19T15:33:03.999Z</time></trkpt><trkpt lat="42.06344983578838" lon="13.689920889226176"><ele>1085.0</ele><time>2026-04-19T15:33:04.999Z</time></trkpt><trkpt lat="42.06356593047779" lon="13.689667780013064"><ele>1085.0</ele><time>2026-04-19T15:33:05.999Z</time></trkpt><trkpt lat="42.063670551025716" lon="13.689430052562546"><ele>1085.0</ele><time>2026-04-19T15:33:06.999Z</time></trkpt><trkpt lat="42.06376778177826" lon="13.689206001496926"><ele>1081.6666666666667</ele><time>2026-04-19T15:33:07.999Z</time></trkpt><trkpt lat="42.06385024726731" lon="13.689002451378816"><ele>1078.3333333333333</ele><time>2026-04-19T15:33:08.999Z</time></trkpt><trkpt lat="42.063920361604474" lon="13.68880768997209"><ele>1075.0</ele><time>2026-04-19T15:33:10Z</time></trkpt><trkpt lat="42.063962321543876" lon="13.688606240397842"><ele>1073.0</ele><time>2026-04-19T15:33:11Z</time></trkpt><trkpt lat="42.063968699388795" lon="13.688385686356286"><ele>1071.0</ele><time>2026-04-19T15:33:12Z</time></trkpt><trkpt lat="42.06393116987296" lon="13.688143587134554"><ele>1069.0</ele><time>2026-04-19T15:33:13Z</time></trkpt><trkpt lat="42.063877311015155" lon="13.68791008163795"><ele>1068.3333333333333</ele><time>2026-04-19T15:33:14Z</time></trkpt><trkpt lat="42.06385291640547" lon="13.68768274661383"><ele>1067.6666666666667</ele><time>2026-04-19T15:33:15Z</time></trkpt><trkpt lat="42.06385607311282" lon="13.68744544045132"><ele>1067.0</ele><time>2026-04-19T15:33:16Z</time></trkpt><trkpt lat="42.06388189261373" lon="13.687200632547114"><ele>1067.0</ele><time>2026-04-19T15:33:17Z</time></trkpt><trkpt lat="42.063945188891914" lon="13.686956586293558"><ele>1067.0</ele><time>2026-04-19T15:33:18Z</time></trkpt><trkpt lat="42.06399196166792" lon="13.686696727484017"><ele>1067.0</ele><time>2026-04-19T15:33:19Z</time></trkpt><trkpt lat="42.06407944422757" lon="13.686459956099489"><ele>1068.0</ele><time>2026-04-19T15:33:20Z</time></trkpt><trkpt lat="42.06413785981156" lon="13.686225787183606"><ele>1069.0</ele><time>2026-04-19T15:33:21Z</time></trkpt><trkpt lat="42.06419037388291" lon="13.686021564238079"><ele>1070.0</ele><time>2026-04-19T15:33:22Z</time></trkpt><trkpt lat="42.064229108537994" lon="13.685803857693124"><ele>1070.0</ele><time>2026-04-19T15:33:23Z</time></trkpt><trkpt lat="42.06419523631638" lon="13.685549343773314"><ele>1070.0</ele><time>2026-04-19T15:33:24Z</time></trkpt><trkpt lat="42.06413637998663" lon="13.685289040747127"><ele>1070.0</ele><time>2026-04-19T15:33:25Z</time></trkpt><trkpt lat="42.06404059661947" lon="13.685026849735895"><ele>1065.0</ele><time>2026-04-19T15:33:26Z</time></trkpt><trkpt lat="42.06393024150914" lon="13.684749249222765"><ele>1060.0</ele><time>2026-04-19T15:33:27Z</time></trkpt><trkpt lat="42.06382143004778" lon="13.684474738894767"><ele>1060.0</ele><time>2026-04-19T15:33:28Z</time></trkpt><trkpt lat="42.06371807602239" lon="13.684215004922757"><ele>1060.0</ele><time>2026-04-19T15:33:29Z</time></trkpt><trkpt lat="42.0635901225396" lon="13.683952371455797"><ele>1060.0</ele><time>2026-04-19T15:33:30Z</time></trkpt><trkpt lat="42.063389239921726" lon="13.683732423169948"><ele>1060.0</ele><time>2026-04-19T15:33:31Z</time></trkpt><trkpt lat="42.063162779046465" lon="13.683500319864667"><ele>1059.5</ele><time>2026-04-19T15:33:32Z</time></trkpt><trkpt lat="42.06291959921942" lon="13.683266816362403"><ele>1059.0</ele><time>2026-04-19T15:33:33Z</time></trkpt><trkpt lat="42.06266099690801" lon="13.68303165531252"><ele>1059.0</ele><time>2026-04-19T15:33:34Z</time></trkpt><trkpt lat="42.06240107581481" lon="13.682792592295487"><ele>1059.0</ele><time>2026-04-19T15:33:35Z</time></trkpt><trkpt lat="42.06214920714127" lon="13.682553240267186"><ele>1059.0</ele><time>2026-04-19T15:33:36Z</time></trkpt><trkpt lat="42.06189745996288" lon="13.682312110432427"><ele>1059.0</ele><time>2026-04-19T15:33:37Z</time></trkpt><trkpt lat="42.06164535300136" lon="13.682069647178718"><ele>1060.0</ele><time>2026-04-19T15:33:38Z</time></trkpt><trkpt lat="42.06139120122572" lon="13.681827860818109"><ele>1061.0</ele><time>2026-04-19T15:33:39Z</time></trkpt><trkpt lat="42.06112490804184" lon="13.681579181894502"><ele>1061.0</ele><time>2026-04-19T15:33:40Z</time></trkpt><trkpt lat="42.060847678135694" lon="13.68131741260004"><ele>1061.0</ele><time>2026-04-19T15:33:41Z</time></trkpt><trkpt lat="42.06056202326677" lon="13.681046427514298"><ele>1063.0</ele><time>2026-04-19T15:33:42Z</time></trkpt><trkpt lat="42.06028580497696" lon="13.68077294976069"><ele>1065.0</ele><time>2026-04-19T15:33:43Z</time></trkpt><trkpt lat="42.06003079850116" lon="13.680510696602145"><ele>1066.0</ele><time>2026-04-19T15:33:44Z</time></trkpt><trkpt lat="42.05980444646529" lon="13.680262293886083"><ele>1067.0</ele><time>2026-04-19T15:33:45Z</time></trkpt><trkpt lat="42.05959449474555" lon="13.680026494939337"><ele>1067.0</ele><time>2026-04-19T15:33:46Z</time></trkpt><trkpt lat="42.05939250464259" lon="13.679803573047723"><ele>1067.0</ele><time>2026-04-19T15:33:47Z</time></trkpt><trkpt lat="42.05919744276274" lon="13.679598928533018"><ele>1067.0</ele><time>2026-04-19T15:33:48Z</time></trkpt><trkpt lat="42.0590143398394" lon="13.67943506506309"><ele>1067.0</ele><time>2026-04-19T15:33:49Z</time></trkpt><trkpt lat="42.05885231433069" lon="13.67930285647442"><ele>1067.0</ele><time>2026-04-19T15:33:50Z</time></trkpt><trkpt lat="42.05872657557264" lon="13.679181837672704"><ele>1068.0</ele><time>2026-04-19T15:33:51Z</time></trkpt><trkpt lat="42.058589338617" lon="13.679090027460658"><ele>1069.0</ele><time>2026-04-19T15:33:52Z</time></trkpt><trkpt lat="42.05848128832229" lon="13.678961231417818"><ele>1070.0</ele><time>2026-04-19T15:33:53Z</time></trkpt><trkpt lat="42.05839113104355" lon="13.678801599993271"><ele>1071.0</ele><time>2026-04-19T15:33:54Z</time></trkpt><trkpt lat="42.05833099159262" lon="13.678621599851217"><ele>1071.3333333333333</ele><time>2026-04-19T15:33:55Z</time></trkpt><trkpt lat="42.058288901661044" lon="13.678460815489588"><ele>1071.6666666666667</ele><time>2026-04-19T15:33:56Z</time></trkpt><trkpt lat="42.05826752323376" lon="13.678329040262135"><ele>1072.0</ele><time>2026-04-19T15:33:57Z</time></trkpt><trkpt lat="42.058243930724345" lon="13.678223719954465"><ele>1072.3333333333335</ele><time>2026-04-19T15:33:58Z</time></trkpt><trkpt lat="42.05821555719848" lon="13.678138770608063"><ele>1072.6666666666667</ele><time>2026-04-19T15:33:59Z</time></trkpt><trkpt lat="42.05820709629736" lon="13.678050905465625"><ele>1073.0</ele><time>2026-04-19T15:34:00Z</time></trkpt><trkpt lat="42.058195081948405" lon="13.67795158745285"><ele>1073.0</ele><time>2026-04-19T15:34:01Z</time></trkpt><trkpt lat="42.0582097526837" lon="13.677864518230427"><ele>1073.0</ele><time>2026-04-19T15:34:02Z</time></trkpt><trkpt lat="42.05820975268566" lon="13.677776387677792"><ele>1073.0</ele><time>2026-04-19T15:34:03Z</time></trkpt><trkpt lat="42.05820975268671" lon="13.677662786216725"><ele>1073.0</ele><time>2026-04-19T15:34:04Z</time></trkpt><trkpt lat="42.058209752688576" lon="13.677535672500024"><ele>1073.0</ele><time>2026-04-19T15:34:05Z</time></trkpt><trkpt lat="42.05819089103938" lon="13.677405801645419"><ele>1073.0</ele><time>2026-04-19T15:34:06Z</time></trkpt><trkpt lat="42.05820037103363" lon="13.677280286377353"><ele>1073.8</ele><time>2026-04-19T15:34:07Z</time></trkpt><trkpt lat="42.05821040133556" lon="13.677161049625614"><ele>1074.6</ele><time>2026-04-19T15:34:08Z</time></trkpt><trkpt lat="42.058217783290125" lon="13.67703781949229"><ele>1075.4</ele><time>2026-04-19T15:34:09Z</time></trkpt><trkpt lat="42.058226910233486" lon="13.676906935450742"><ele>1076.2</ele><time>2026-04-19T15:34:10Z</time></trkpt><trkpt lat="42.05824412730834" lon="13.676774080335838"><ele>1077.0</ele><time>2026-04-19T15:34:11Z</time></trkpt><trkpt lat="42.058272184044355" lon="13.676629117865945"><ele>1076.4</ele><time>2026-04-19T15:34:12Z</time></trkpt><trkpt lat="42.05830310728633" lon="13.676495988477953"><ele>1075.8000000000002</ele><time>2026-04-19T15:34:13Z</time></trkpt><trkpt lat="42.05834123336465" lon="13.676386295883693"><ele>1075.2</ele><time>2026-04-19T15:34:14Z</time></trkpt><trkpt lat="42.05840174317136" lon="13.676279388452135"><ele>1074.6000000000001</ele><time>2026-04-19T15:34:14.999Z</time></trkpt><trkpt lat="42.058473352969976" lon="13.676169587987305"><ele>1074.0</ele><time>2026-04-19T15:34:15.999Z</time></trkpt><trkpt lat="42.05854206880812" lon="13.676050224219063"><ele>1076.5</ele><time>2026-04-19T15:34:16.999Z</time></trkpt><trkpt lat="42.058615207947355" lon="13.67592808101644"><ele>1079.0</ele><time>2026-04-19T15:34:17.999Z</time></trkpt><trkpt lat="42.05868548719238" lon="13.675796202034203"><ele>1081.5</ele><time>2026-04-19T15:34:18.999Z</time></trkpt><trkpt lat="42.05874831231885" lon="13.675662275610305"><ele>1084.0</ele><time>2026-04-19T15:34:19.999Z</time></trkpt><trkpt lat="42.0588183548732" lon="13.675524115500362"><ele>1084.0</ele><time>2026-04-19T15:34:20.999Z</time></trkpt><trkpt lat="42.05888751105817" lon="13.675387104130792"><ele>1084.0</ele><time>2026-04-19T15:34:21.999Z</time></trkpt><trkpt lat="42.05894898206824" lon="13.675260284612248"><ele>1084.0</ele><time>2026-04-19T15:34:22.999Z</time></trkpt><trkpt lat="42.059003941309804" lon="13.675131604426388"><ele>1084.0</ele><time>2026-04-19T15:34:23.999Z</time></trkpt><trkpt lat="42.05906495291676" lon="13.674998448484697"><ele>1082.4</ele><time>2026-04-19T15:34:24.999Z</time></trkpt><trkpt lat="42.0591270937058" lon="13.674858350415802"><ele>1080.8000000000002</ele><time>2026-04-19T15:34:25.999Z</time></trkpt><trkpt lat="42.05918057274422" lon="13.674721639717815"><ele>1079.1999999999998</ele><time>2026-04-19T15:34:26.999Z</time></trkpt><trkpt lat="42.05922804896256" lon="13.67459504596954"><ele>1077.6</ele><time>2026-04-19T15:34:27.999Z</time></trkpt><trkpt lat="42.059283751120674" lon="13.674470252538692"><ele>1076.0</ele><time>2026-04-19T15:34:28.999Z</time></trkpt><trkpt lat="42.059338275976856" lon="13.674336436551258"><ele>1076.0</ele><time>2026-04-19T15:34:29.999Z</time></trkpt><trkpt lat="42.059392952067334" lon="13.674214797668691"><ele>1076.0</ele><time>2026-04-19T15:34:30.999Z</time></trkpt><trkpt lat="42.059449716197534" lon="13.674103503706005"><ele>1076.0</ele><time>2026-04-19T15:34:31.999Z</time></trkpt><trkpt lat="42.05951401672389" lon="13.673991457586174"><ele>1076.0</ele><time>2026-04-19T15:34:32.999Z</time></trkpt><trkpt lat="42.059580566894695" lon="13.673879710828144"><ele>1076.0</ele><time>2026-04-19T15:34:33.999Z</time></trkpt><trkpt lat="42.059640005313945" lon="13.673774050146573"><ele>1076.0</ele><time>2026-04-19T15:34:34.999Z</time></trkpt><trkpt lat="42.05969629636881" lon="13.673667018673406"><ele>1076.0</ele><time>2026-04-19T15:34:35.999Z</time></trkpt><trkpt lat="42.05975554077612" lon="13.673546519810168"><ele>1076.0</ele><time>2026-04-19T15:34:36.999Z</time></trkpt><trkpt lat="42.05981213975193" lon="13.673420081963728"><ele>1076.0</ele><time>2026-04-19T15:34:37.999Z</time></trkpt><trkpt lat="42.059872899209985" lon="13.673290023326926"><ele>1076.0</ele><time>2026-04-19T15:34:38.999Z</time></trkpt><trkpt lat="42.05993234129439" lon="13.67316139925489"><ele>1072.75</ele><time>2026-04-19T15:34:39.999Z</time></trkpt><trkpt lat="42.059988702822494" lon="13.673026689399864"><ele>1069.5</ele><time>2026-04-19T15:34:40.999Z</time></trkpt><trkpt lat="42.06004669281" lon="13.672886852729501"><ele>1066.25</ele><time>2026-04-19T15:34:41.999Z</time></trkpt><trkpt lat="42.060103757078785" lon="13.672753999574399"><ele>1063.0</ele><time>2026-04-19T15:34:42.999Z</time></trkpt><trkpt lat="42.06015913133785" lon="13.672618815867065"><ele>1063.0</ele><time>2026-04-19T15:34:43.999Z</time></trkpt><trkpt lat="42.060209241268204" lon="13.672479478209052"><ele>1063.0</ele><time>2026-04-19T15:34:44.999Z</time></trkpt><trkpt lat="42.06026006740293" lon="13.672342522588"><ele>1063.0</ele><time>2026-04-19T15:34:45.999Z</time></trkpt><trkpt lat="42.060309289314404" lon="13.672204759975358"><ele>1063.0</ele><time>2026-04-19T15:34:46.999Z</time></trkpt><trkpt lat="42.06035656012975" lon="13.672065371474112"><ele>1064.6</ele><time>2026-04-19T15:34:47.999Z</time></trkpt><trkpt lat="42.0604037475693" lon="13.671930889151069"><ele>1066.1999999999998</ele><time>2026-04-19T15:34:48.999Z</time></trkpt><trkpt lat="42.06045194927308" lon="13.67180144803088"><ele>1067.8</ele><time>2026-04-19T15:34:49.999Z</time></trkpt><trkpt lat="42.06049468229536" lon="13.671688548075176"><ele>1069.3999999999999</ele><time>2026-04-19T15:34:50.999Z</time></trkpt><trkpt lat="42.06052991953561" lon="13.671569549429906"><ele>1071.0</ele><time>2026-04-19T15:34:51.999Z</time></trkpt><trkpt lat="42.06056363663562" lon="13.671461733528275"><ele>1071.0</ele><time>2026-04-19T15:34:52.999Z</time></trkpt><trkpt lat="42.06059061382078" lon="13.67135480129147"><ele>1071.0</ele><time>2026-04-19T15:34:53.999Z</time></trkpt><trkpt lat="42.06061803258261" lon="13.671220397153563"><ele>1071.0</ele><time>2026-04-19T15:34:54.999Z</time></trkpt><trkpt lat="42.06064618769656" lon="13.671075861703208"><ele>1071.0</ele><time>2026-04-19T15:34:55.999Z</time></trkpt><trkpt lat="42.060672635945636" lon="13.67091786566113"><ele>1071.0</ele><time>2026-04-19T15:34:56.999Z</time></trkpt><trkpt lat="42.06070459673766" lon="13.670765389301483"><ele>1072.0</ele><time>2026-04-19T15:34:57.999Z</time></trkpt><trkpt lat="42.06073814922305" lon="13.67062122050137"><ele>1073.0</ele><time>2026-04-19T15:34:58.999Z</time></trkpt><trkpt lat="42.06076687689084" lon="13.670484536184022"><ele>1074.0</ele><time>2026-04-19T15:34:59.999Z</time></trkpt><trkpt lat="42.060798114991464" lon="13.670347664323181"><ele>1075.0</ele><time>2026-04-19T15:35:00.999Z</time></trkpt><trkpt lat="42.06082480745096" lon="13.670209480147262"><ele>1076.0</ele><time>2026-04-19T15:35:01.999Z</time></trkpt><trkpt lat="42.060855950799656" lon="13.670078693132936"><ele>1071.0</ele><time>2026-04-19T15:35:02.999Z</time></trkpt><trkpt lat="42.060893544596" lon="13.669943695863452"><ele>1066.0</ele><time>2026-04-19T15:35:03.999Z</time></trkpt><trkpt lat="42.060936214654554" lon="13.669808562313804"><ele>1061.0</ele><time>2026-04-19T15:35:04.999Z</time></trkpt><trkpt lat="42.06098292393123" lon="13.669679652478639"><ele>1056.0</ele><time>2026-04-19T15:35:05.999Z</time></trkpt><trkpt lat="42.06102860063035" lon="13.669559052455483"><ele>1051.0</ele><time>2026-04-19T15:35:06.999Z</time></trkpt><trkpt lat="42.06107685994259" lon="13.669451013520094"><ele>1052.2</ele><time>2026-04-19T15:35:07.999Z</time></trkpt><trkpt lat="42.06112925303685" lon="13.669340775524029"><ele>1053.3999999999999</ele><time>2026-04-19T15:35:08.999Z</time></trkpt><trkpt lat="42.06117107881121" lon="13.669226625135916"><ele>1054.6</ele><time>2026-04-19T15:35:09.999Z</time></trkpt><trkpt lat="42.06121394463109" lon="13.669115495081623"><ele>1055.8</ele><time>2026-04-19T15:35:10.999Z</time></trkpt><trkpt lat="42.0612608307172" lon="13.668994458640766"><ele>1057.0</ele><time>2026-04-19T15:35:11.999Z</time></trkpt><trkpt lat="42.061300731760824" lon="13.668877673864031"><ele>1057.0</ele><time>2026-04-19T15:35:12.999Z</time></trkpt><trkpt lat="42.061342803668815" lon="13.668763312447918"><ele>1057.0</ele><time>2026-04-19T15:35:13.999Z</time></trkpt><trkpt lat="42.06137598271272" lon="13.668644651796292"><ele>1057.0</ele><time>2026-04-19T15:35:14.999Z</time></trkpt><trkpt lat="42.06140779160993" lon="13.66851418693807"><ele>1057.0</ele><time>2026-04-19T15:35:16Z</time></trkpt><trkpt lat="42.06143698745073" lon="13.668399186002322"><ele>1057.0</ele><time>2026-04-19T15:35:17Z</time></trkpt><trkpt lat="42.06146991571624" lon="13.668288124547939"><ele>1057.8</ele><time>2026-04-19T15:35:18Z</time></trkpt><trkpt lat="42.061501660172674" lon="13.668176285298815"><ele>1058.6</ele><time>2026-04-19T15:35:19Z</time></trkpt><trkpt lat="42.061532877775875" lon="13.668053434962331"><ele>1059.3999999999999</ele><time>2026-04-19T15:35:20Z</time></trkpt><trkpt lat="42.06156108804855" lon="13.667928499345699"><ele>1060.2</ele><time>2026-04-19T15:35:21Z</time></trkpt><trkpt lat="42.061592035390944" lon="13.667808616069538"><ele>1061.0</ele><time>2026-04-19T15:35:22Z</time></trkpt><trkpt lat="42.06162017425129" lon="13.667691412159225"><ele>1055.2</ele><time>2026-04-19T15:35:23Z</time></trkpt><trkpt lat="42.0616453548382" lon="13.667594550941502"><ele>1049.3999999999999</ele><time>2026-04-19T15:35:24Z</time></trkpt><trkpt lat="42.061678834093826" lon="13.66747112368541"><ele>1043.6</ele><time>2026-04-19T15:35:25Z</time></trkpt><trkpt lat="42.06171096197779" lon="13.66735096099542"><ele>1037.8</ele><time>2026-04-19T15:35:26Z</time></trkpt><trkpt lat="42.06174538315137" lon="13.667227499609501"><ele>1032.0</ele><time>2026-04-19T15:35:27Z</time></trkpt><trkpt lat="42.06177672274793" lon="13.667102712247456"><ele>1032.0</ele><time>2026-04-19T15:35:28Z</time></trkpt><trkpt lat="42.061800886589474" lon="13.666978551675735"><ele>1032.0</ele><time>2026-04-19T15:35:29Z</time></trkpt><trkpt lat="42.06181964150828" lon="13.6668557252553"><ele>1032.0</ele><time>2026-04-19T15:35:30Z</time></trkpt><trkpt lat="42.06182397894655" lon="13.666745953591805"><ele>1032.0</ele><time>2026-04-19T15:35:31Z</time></trkpt><trkpt lat="42.06183782807241" lon="13.666642454846302"><ele>1032.0</ele><time>2026-04-19T15:35:32Z</time></trkpt><trkpt lat="42.06186043769823" lon="13.666521723118079"><ele>1032.0</ele><time>2026-04-19T15:35:33Z</time></trkpt><trkpt lat="42.06187558432887" lon="13.66641838484141"><ele>1032.2</ele><time>2026-04-19T15:35:34Z</time></trkpt><trkpt lat="42.061877996270695" lon="13.666316897871175"><ele>1032.4</ele><time>2026-04-19T15:35:35Z</time></trkpt><trkpt lat="42.06186255576426" lon="13.666202639226336"><ele>1032.6</ele><time>2026-04-19T15:35:36Z</time></trkpt><trkpt lat="42.061830254020386" lon="13.666081965413923"><ele>1032.8</ele><time>2026-04-19T15:35:37Z</time></trkpt><trkpt lat="42.0617881921121" lon="13.665946791632358"><ele>1033.0</ele><time>2026-04-19T15:35:38Z</time></trkpt><trkpt lat="42.061746150608535" lon="13.665788599916885"><ele>1031.5</ele><time>2026-04-19T15:35:39Z</time></trkpt><trkpt lat="42.06171368251816" lon="13.665631705478608"><ele>1030.0</ele><time>2026-04-19T15:35:40Z</time></trkpt><trkpt lat="42.061687458690855" lon="13.66547979118521"><ele>1028.5</ele><time>2026-04-19T15:35:41Z</time></trkpt><trkpt lat="42.06167130955418" lon="13.665327903131857"><ele>1027.0</ele><time>2026-04-19T15:35:42Z</time></trkpt><trkpt lat="42.061660734389214" lon="13.665172039697485"><ele>1025.5</ele><time>2026-04-19T15:35:43Z</time></trkpt><trkpt lat="42.06165458351136" lon="13.665014227193243"><ele>1024.0</ele><time>2026-04-19T15:35:44Z</time></trkpt><trkpt lat="42.06165719138601" lon="13.664872533052145"><ele>1022.5</ele><time>2026-04-19T15:35:45Z</time></trkpt><trkpt lat="42.06166140648701" lon="13.664711696614699"><ele>1021.0</ele><time>2026-04-19T15:35:46Z</time></trkpt><trkpt lat="42.061678778436914" lon="13.664538432989506"><ele>1019.5</ele><time>2026-04-19T15:35:47Z</time></trkpt><trkpt lat="42.0616976854942" lon="13.66437059808155"><ele>1018.0</ele><time>2026-04-19T15:35:48Z</time></trkpt><trkpt lat="42.06171493837003" lon="13.664220048800436"><ele>1016.5</ele><time>2026-04-19T15:35:49Z</time></trkpt><trkpt lat="42.06173071904261" lon="13.664056565922357"><ele>1015.0</ele><time>2026-04-19T15:35:50Z</time></trkpt><trkpt lat="42.06174753945306" lon="13.6639008103747"><ele>1015.0</ele><time>2026-04-19T15:35:51Z</time></trkpt><trkpt lat="42.0617670115866" lon="13.663749735292132"><ele>1015.0</ele><time>2026-04-19T15:35:52Z</time></trkpt><trkpt lat="42.06178155660646" lon="13.66359518479163"><ele>1015.0</ele><time>2026-04-19T15:35:53Z</time></trkpt><trkpt lat="42.06181033857916" lon="13.663446082356156"><ele>1015.0</ele><time>2026-04-19T15:35:54Z</time></trkpt><trkpt lat="42.06183790970298" lon="13.663293730138639"><ele>1015.2</ele><time>2026-04-19T15:35:55Z</time></trkpt><trkpt lat="42.06186476872283" lon="13.663144624481351"><ele>1015.4</ele><time>2026-04-19T15:35:56Z</time></trkpt><trkpt lat="42.06188761580596" lon="13.663019464513958"><ele>1015.5999999999999</ele><time>2026-04-19T15:35:57Z</time></trkpt><trkpt lat="42.061909334278624" lon="13.662892218514216"><ele>1015.8</ele><time>2026-04-19T15:35:58Z</time></trkpt><trkpt lat="42.06194304866916" lon="13.662783137293268"><ele>1016.0</ele><time>2026-04-19T15:35:59Z</time></trkpt><trkpt lat="42.06198945831902" lon="13.662675127664388"><ele>1016.4</ele><time>2026-04-19T15:36:00Z</time></trkpt><trkpt lat="42.06203088476149" lon="13.662546682078112"><ele>1016.8</ele><time>2026-04-19T15:36:01Z</time></trkpt><trkpt lat="42.06207291786856" lon="13.662427022495963"><ele>1017.1999999999999</ele><time>2026-04-19T15:36:02Z</time></trkpt><trkpt lat="42.06211377238814" lon="13.662308028192736"><ele>1017.5999999999999</ele><time>2026-04-19T15:36:03Z</time></trkpt><trkpt lat="42.062146237530236" lon="13.662194411371244"><ele>1018.0</ele><time>2026-04-19T15:36:04Z</time></trkpt><trkpt lat="42.062188119335104" lon="13.6620759965169"><ele>1017.9999999999999</ele><time>2026-04-19T15:36:05Z</time></trkpt><trkpt lat="42.06222721667438" lon="13.661961302262952"><ele>1018.0</ele><time>2026-04-19T15:36:06Z</time></trkpt><trkpt lat="42.062263639098035" lon="13.661848607394012"><ele>1018.0</ele><time>2026-04-19T15:36:07Z</time></trkpt><trkpt lat="42.06230245593157" lon="13.661747825045943"><ele>1018.0</ele><time>2026-04-19T15:36:07.999Z</time></trkpt><trkpt lat="42.062338506442984" lon="13.661648665234203"><ele>1017.9999999999999</ele><time>2026-04-19T15:36:08.999Z</time></trkpt><trkpt lat="42.0623712735366" lon="13.661546800237554"><ele>1018.0</ele><time>2026-04-19T15:36:09.999Z</time></trkpt><trkpt lat="42.06240296917556" lon="13.661451256192684"><ele>1016.8</ele><time>2026-04-19T15:36:10.999Z</time></trkpt><trkpt lat="42.062440685761" lon="13.661370919630695"><ele>1015.5999999999999</ele><time>2026-04-19T15:36:11.999Z</time></trkpt><trkpt lat="42.062492905878045" lon="13.661225137187799"><ele>1014.4000000000001</ele><time>2026-04-19T15:36:13.999Z</time></trkpt><trkpt lat="42.06250933355233" lon="13.661079027391056"><ele>1013.2</ele><time>2026-04-19T15:36:15.999Z</time></trkpt><trkpt lat="42.06253930063028" lon="13.660923126414119"><ele>1012.0</ele><time>2026-04-19T15:36:17.999Z</time></trkpt><trkpt lat="42.062558251315274" lon="13.660824647808381"><ele>1011.4000000000001</ele><time>2026-04-19T15:36:18.999Z</time></trkpt><trkpt lat="42.06257815112475" lon="13.660705314017743"><ele>1010.8000000000001</ele><time>2026-04-19T15:36:19.999Z</time></trkpt><trkpt lat="42.0625970955961" lon="13.660583017725715"><ele>1010.2</ele><time>2026-04-19T15:36:20.999Z</time></trkpt><trkpt lat="42.06261032349809" lon="13.660450943980038"><ele>1009.6</ele><time>2026-04-19T15:36:21.999Z</time></trkpt><trkpt lat="42.06261251126001" lon="13.660318335198376"><ele>1009.0</ele><time>2026-04-19T15:36:22.999Z</time></trkpt><trkpt lat="42.0626136834925" lon="13.660177875999796"><ele>1008.5</ele><time>2026-04-19T15:36:23.999Z</time></trkpt><trkpt lat="42.062608090622156" lon="13.660029874999434"><ele>1008.0</ele><time>2026-04-19T15:36:24.999Z</time></trkpt><trkpt lat="42.06261455542405" lon="13.659874455122544"><ele>1007.5</ele><time>2026-04-19T15:36:25.999Z</time></trkpt><trkpt lat="42.0626243803095" lon="13.65971943303877"><ele>1007.0</ele><time>2026-04-19T15:36:26.999Z</time></trkpt><trkpt lat="42.062627445298496" lon="13.659566471565993"><ele>1006.2</ele><time>2026-04-19T15:36:27.999Z</time></trkpt><trkpt lat="42.06262648559698" lon="13.659432353720634"><ele>1005.4000000000001</ele><time>2026-04-19T15:36:28.999Z</time></trkpt><trkpt lat="42.062634883816735" lon="13.659293126576978"><ele>1004.5999999999999</ele><time>2026-04-19T15:36:30Z</time></trkpt><trkpt lat="42.06264348263328" lon="13.659177200873723"><ele>1003.8</ele><time>2026-04-19T15:36:31Z</time></trkpt><trkpt lat="42.06265741955054" lon="13.659063516135777"><ele>1003.0</ele><time>2026-04-19T15:36:32Z</time></trkpt><trkpt lat="42.06269362022182" lon="13.658952791596516"><ele>1002.9999999999999</ele><time>2026-04-19T15:36:33Z</time></trkpt><trkpt lat="42.06274491610477" lon="13.658863211999686"><ele>1003.0</ele><time>2026-04-19T15:36:34Z</time></trkpt><trkpt lat="42.06281356560887" lon="13.658781590782098"><ele>1003.0</ele><time>2026-04-19T15:36:35Z</time></trkpt><trkpt lat="42.06289342423849" lon="13.658709942368876"><ele>1003.0</ele><time>2026-04-19T15:36:36Z</time></trkpt><trkpt lat="42.06296004485544" lon="13.658635661902633"><ele>1002.9999999999999</ele><time>2026-04-19T15:36:37Z</time></trkpt><trkpt lat="42.063020108769535" lon="13.658591441242212"><ele>1003.0</ele><time>2026-04-19T15:36:38Z</time></trkpt><trkpt lat="42.06309359171374" lon="13.658560155216227"><ele>1002.6666666666666</ele><time>2026-04-19T15:36:39Z</time></trkpt><trkpt lat="42.06317468067558" lon="13.658544482696607"><ele>1002.3333333333333</ele><time>2026-04-19T15:36:40Z</time></trkpt><trkpt lat="42.06325544963371" lon="13.658545199484466"><ele>1002.0</ele><time>2026-04-19T15:36:41Z</time></trkpt><trkpt lat="42.06332245580209" lon="13.658542616587058"><ele>1001.6666666666667</ele><time>2026-04-19T15:36:42Z</time></trkpt><trkpt lat="42.06343034643562" lon="13.658517614482186"><ele>1001.3333333333334</ele><time>2026-04-19T15:36:44Z</time></trkpt><trkpt lat="42.06349565315183" lon="13.658431127406047"><ele>1001.0</ele><time>2026-04-19T15:36:46Z</time></trkpt><trkpt lat="42.06350838951387" lon="13.658263803619283"><ele>1001.25</ele><time>2026-04-19T15:36:48Z</time></trkpt><trkpt lat="42.06348333629426" lon="13.65812329532002"><ele>1001.5</ele><time>2026-04-19T15:36:49Z</time></trkpt><trkpt lat="42.0634438563779" lon="13.65795456335183"><ele>1001.75</ele><time>2026-04-19T15:36:50Z</time></trkpt><trkpt lat="42.06340189625522" lon="13.657757491528946"><ele>1002.0</ele><time>2026-04-19T15:36:51Z</time></trkpt><trkpt lat="42.06335605147977" lon="13.657537518845011"><ele>1002.0</ele><time>2026-04-19T15:36:52Z</time></trkpt><trkpt lat="42.063308070271056" lon="13.6572959697647"><ele>1002.0</ele><time>2026-04-19T15:36:53Z</time></trkpt><trkpt lat="42.06325721347611" lon="13.65704623979808"><ele>1002.0</ele><time>2026-04-19T15:36:54Z</time></trkpt><trkpt lat="42.06321379808597" lon="13.656821427021805"><ele>1000.3333333333333</ele><time>2026-04-19T15:36:55Z</time></trkpt><trkpt lat="42.06317212870799" lon="13.656597580904021"><ele>998.6666666666666</ele><time>2026-04-19T15:36:56Z</time></trkpt><trkpt lat="42.063139185622575" lon="13.656366820861901"><ele>997.0</ele><time>2026-04-19T15:36:57Z</time></trkpt><trkpt lat="42.06311672290736" lon="13.656131247384913"><ele>995.3333333333333</ele><time>2026-04-19T15:36:58Z</time></trkpt><trkpt lat="42.06310850802343" lon="13.655889722234555"><ele>993.6666666666667</ele><time>2026-04-19T15:36:59Z</time></trkpt><trkpt lat="42.063085323247094" lon="13.655642903825383"><ele>992.0</ele><time>2026-04-19T15:37:00Z</time></trkpt><trkpt lat="42.06304494783478" lon="13.655377269040645"><ele>991.3333333333334</ele><time>2026-04-19T15:37:01Z</time></trkpt><trkpt lat="42.06299435145594" lon="13.655103208557826"><ele>990.6666666666667</ele><time>2026-04-19T15:37:02Z</time></trkpt><trkpt lat="42.06293911175264" lon="13.654815948834175"><ele>990.0</ele><time>2026-04-19T15:37:03Z</time></trkpt><trkpt lat="42.062884437313585" lon="13.6545377798435"><ele>989.0</ele><time>2026-04-19T15:37:04Z</time></trkpt><trkpt lat="42.06283446843109" lon="13.654275122643352"><ele>988.0</ele><time>2026-04-19T15:37:05Z</time></trkpt><trkpt lat="42.062786368611306" lon="13.654021584261718"><ele>987.0</ele><time>2026-04-19T15:37:06Z</time></trkpt><trkpt lat="42.06274027509203" lon="13.653778174595628"><ele>985.0</ele><time>2026-04-19T15:37:07Z</time></trkpt><trkpt lat="42.06269585783628" lon="13.653541221768903"><ele>983.0</ele><time>2026-04-19T15:37:08Z</time></trkpt><trkpt lat="42.06265246757436" lon="13.653314281764583"><ele>981.0</ele><time>2026-04-19T15:37:09Z</time></trkpt><trkpt lat="42.06261095007282" lon="13.65309493382925"><ele>981.0</ele><time>2026-04-19T15:37:10Z</time></trkpt><trkpt lat="42.06256647098064" lon="13.652877142760744"><ele>981.0</ele><time>2026-04-19T15:37:11Z</time></trkpt><trkpt lat="42.06252552128925" lon="13.652670315371521"><ele>981.0</ele><time>2026-04-19T15:37:12Z</time></trkpt><trkpt lat="42.06248045252683" lon="13.65247244907204"><ele>980.0</ele><time>2026-04-19T15:37:13Z</time></trkpt><trkpt lat="42.06242275463563" lon="13.652272283519526"><ele>979.0</ele><time>2026-04-19T15:37:14Z</time></trkpt><trkpt lat="42.06234420265213" lon="13.652077659870962"><ele>978.0</ele><time>2026-04-19T15:37:15Z</time></trkpt><trkpt lat="42.06225056255948" lon="13.651888438446601"><ele>975.3333333333333</ele><time>2026-04-19T15:37:16Z</time></trkpt><trkpt lat="42.062161671946306" lon="13.651694780127984"><ele>972.6666666666666</ele><time>2026-04-19T15:37:17Z</time></trkpt><trkpt lat="42.0620836167612" lon="13.651508258769756"><ele>970.0</ele><time>2026-04-19T15:37:18Z</time></trkpt><trkpt lat="42.06201051126765" lon="13.651330223467843"><ele>970.0</ele><time>2026-04-19T15:37:19Z</time></trkpt><trkpt lat="42.06194592251283" lon="13.651173454376302"><ele>970.0</ele><time>2026-04-19T15:37:20Z</time></trkpt><trkpt lat="42.0618983749316" lon="13.651037389661393"><ele>970.0</ele><time>2026-04-19T15:37:21.001Z</time></trkpt><trkpt lat="42.0618946837787" lon="13.650890970360722"><ele>970.0</ele><time>2026-04-19T15:37:22.001Z</time></trkpt><trkpt lat="42.06191931445449" lon="13.650743695111188"><ele>968.75</ele><time>2026-04-19T15:37:23.001Z</time></trkpt><trkpt lat="42.06199157690938" lon="13.650609956475376"><ele>967.5</ele><time>2026-04-19T15:37:24.001Z</time></trkpt><trkpt lat="42.062091077208365" lon="13.650501598191493"><ele>966.25</ele><time>2026-04-19T15:37:25.001Z</time></trkpt><trkpt lat="42.06220874078739" lon="13.650368519377617"><ele>965.0</ele><time>2026-04-19T15:37:26.001Z</time></trkpt><trkpt lat="42.06232646400111" lon="13.65022831275857"><ele>965.75</ele><time>2026-04-19T15:37:27.001Z</time></trkpt><trkpt lat="42.062419613771695" lon="13.650086546532403"><ele>966.5</ele><time>2026-04-19T15:37:28.001Z</time></trkpt><trkpt lat="42.062502903668495" lon="13.649930610170804"><ele>967.25</ele><time>2026-04-19T15:37:29.001Z</time></trkpt><trkpt lat="42.06254869344255" lon="13.649746775832089"><ele>968.0</ele><time>2026-04-19T15:37:30.001Z</time></trkpt><trkpt lat="42.06255606224256" lon="13.649536295876256"><ele>966.0</ele><time>2026-04-19T15:37:31.001Z</time></trkpt><trkpt lat="42.062550793568974" lon="13.649312806230546"><ele>964.0</ele><time>2026-04-19T15:37:32.001Z</time></trkpt><trkpt lat="42.06256650133734" lon="13.649118246791918"><ele>962.0</ele><time>2026-04-19T15:37:33.001Z</time></trkpt><trkpt lat="42.0626385786268" lon="13.648957789114805"><ele>962.0</ele><time>2026-04-19T15:37:34.001Z</time></trkpt><trkpt lat="42.062719376802974" lon="13.648813327682115"><ele>962.0</ele><time>2026-04-19T15:37:35.001Z</time></trkpt><trkpt lat="42.06280588035485" lon="13.648680238185175"><ele>962.0</ele><time>2026-04-19T15:37:36.001Z</time></trkpt><trkpt lat="42.062913629477976" lon="13.648583896102535"><ele>962.0</ele><time>2026-04-19T15:37:37.001Z</time></trkpt><trkpt lat="42.06303563882926" lon="13.648549544255529"><ele>960.0</ele><time>2026-04-19T15:37:38.001Z</time></trkpt><trkpt lat="42.06315085013946" lon="13.648596654546722"><ele>958.0</ele><time>2026-04-19T15:37:39.001Z</time></trkpt><trkpt lat="42.06327502426203" lon="13.648600265874245"><ele>956.0</ele><time>2026-04-19T15:37:40.001Z</time></trkpt><trkpt lat="42.063382615399384" lon="13.648556104006808"><ele>954.0</ele><time>2026-04-19T15:37:41.001Z</time></trkpt><trkpt lat="42.06347281249756" lon="13.648477785436711"><ele>954.0</ele><time>2026-04-19T15:37:42.001Z</time></trkpt><trkpt lat="42.06354205301042" lon="13.648339775784192"><ele>954.0</ele><time>2026-04-19T15:37:43.001Z</time></trkpt><trkpt lat="42.0635914787604" lon="13.648170832351113"><ele>954.0</ele><time>2026-04-19T15:37:44.001Z</time></trkpt><trkpt lat="42.06359828438678" lon="13.647979393504032"><ele>954.0</ele><time>2026-04-19T15:37:45.001Z</time></trkpt><trkpt lat="42.06355925442154" lon="13.647779236664102"><ele>952.0</ele><time>2026-04-19T15:37:46.001Z</time></trkpt><trkpt lat="42.063522494694446" lon="13.647596194480935"><ele>950.0</ele><time>2026-04-19T15:37:47.001Z</time></trkpt><trkpt lat="42.06350059314163" lon="13.64741823588879"><ele>948.0</ele><time>2026-04-19T15:37:48.001Z</time></trkpt><trkpt lat="42.06353575643838" lon="13.64726070248546"><ele>946.0</ele><time>2026-04-19T15:37:49.001Z</time></trkpt><trkpt lat="42.063580736156666" lon="13.647120758649319"><ele>946.0</ele><time>2026-04-19T15:37:50.001Z</time></trkpt><trkpt lat="42.06364815156604" lon="13.64700258304276"><ele>945.9999999999999</ele><time>2026-04-19T15:37:51.001Z</time></trkpt><trkpt lat="42.063727991503505" lon="13.646909071164893"><ele>945.9999999999999</ele><time>2026-04-19T15:37:52.001Z</time></trkpt><trkpt lat="42.06379469192919" lon="13.64679998971756"><ele>946.0</ele><time>2026-04-19T15:37:53.001Z</time></trkpt><trkpt lat="42.06387385553672" lon="13.646719853770689"><ele>946.0</ele><time>2026-04-19T15:37:54.001Z</time></trkpt><trkpt lat="42.063951499844286" lon="13.646626372301219"><ele>946.5999999999999</ele><time>2026-04-19T15:37:55.001Z</time></trkpt><trkpt lat="42.06403094706425" lon="13.646527970665783"><ele>947.1999999999999</ele><time>2026-04-19T15:37:56.001Z</time></trkpt><trkpt lat="42.064114877664466" lon="13.64642564782486"><ele>947.8000000000001</ele><time>2026-04-19T15:37:57.001Z</time></trkpt><trkpt lat="42.06419830111015" lon="13.646324291074462"><ele>948.4000000000001</ele><time>2026-04-19T15:37:58.001Z</time></trkpt><trkpt lat="42.06428140234245" lon="13.646233740057799"><ele>949.0</ele><time>2026-04-19T15:37:59.001Z</time></trkpt><trkpt lat="42.06435837394438" lon="13.646162957522451"><ele>947.1666666666666</ele><time>2026-04-19T15:38:00.001Z</time></trkpt><trkpt lat="42.06442035941932" lon="13.64611260701707"><ele>945.3333333333333</ele><time>2026-04-19T15:38:01.001Z</time></trkpt><trkpt lat="42.06448728425592" lon="13.64607218079252"><ele>943.5</ele><time>2026-04-19T15:38:03.001Z</time></trkpt><trkpt lat="42.06454984115413" lon="13.646010808382231"><ele>941.6666666666667</ele><time>2026-04-19T15:39:08Z</time></trkpt><trkpt lat="42.06462051740934" lon="13.645947570690499"><ele>939.8333333333334</ele><time>2026-04-19T15:39:09Z</time></trkpt><trkpt lat="42.064712567150046" lon="13.645883533157201"><ele>938.0</ele><time>2026-04-19T15:39:10Z</time></trkpt><trkpt lat="42.064810385293704" lon="13.645800329090163"><ele>938.0</ele><time>2026-04-19T15:39:11Z</time></trkpt><trkpt lat="42.06489439831566" lon="13.64565170122079"><ele>938.0</ele><time>2026-04-19T15:39:12Z</time></trkpt><trkpt lat="42.064939464262515" lon="13.645468014085914"><ele>938.0</ele><time>2026-04-19T15:39:13Z</time></trkpt><trkpt lat="42.06494710738207" lon="13.645237434729584"><ele>936.3333333333334</ele><time>2026-04-19T15:39:14Z</time></trkpt><trkpt lat="42.06491419142635" lon="13.644977124063407"><ele>934.6666666666667</ele><time>2026-04-19T15:39:15Z</time></trkpt><trkpt lat="42.06488270893378" lon="13.644739378976551"><ele>933.0</ele><time>2026-04-19T15:39:16Z</time></trkpt><trkpt lat="42.064887434797356" lon="13.644530892831721"><ele>933.5</ele><time>2026-04-19T15:39:17Z</time></trkpt><trkpt lat="42.06488555303195" lon="13.644362649483817"><ele>934.0</ele><time>2026-04-19T15:39:18Z</time></trkpt><trkpt lat="42.06490495195378" lon="13.644210344324652"><ele>934.5</ele><time>2026-04-19T15:39:19Z</time></trkpt><trkpt lat="42.0649604300739" lon="13.644075876306564"><ele>935.0</ele><time>2026-04-19T15:39:20Z</time></trkpt><trkpt lat="42.06505427200765" lon="13.643976038134655"><ele>935.0</ele><time>2026-04-19T15:39:21Z</time></trkpt><trkpt lat="42.06517502428884" lon="13.643875252541521"><ele>935.0</ele><time>2026-04-19T15:39:22Z</time></trkpt><trkpt lat="42.065306515956244" lon="13.643759236792025"><ele>935.0</ele><time>2026-04-19T15:39:23Z</time></trkpt><trkpt lat="42.065443715559205" lon="13.64363209202331"><ele>932.6666666666667</ele><time>2026-04-19T15:39:24Z</time></trkpt><trkpt lat="42.06556772548008" lon="13.643446045024891"><ele>930.3333333333333</ele><time>2026-04-19T15:39:25Z</time></trkpt><trkpt lat="42.06567301303213" lon="13.643221136964051"><ele>928.0</ele><time>2026-04-19T15:39:26Z</time></trkpt><trkpt lat="42.06577253770044" lon="13.642966754615733"><ele>927.0</ele><time>2026-04-19T15:39:27.001Z</time></trkpt><trkpt lat="42.065922817499256" lon="13.642755262092788"><ele>926.0</ele><time>2026-04-19T15:39:28.001Z</time></trkpt><trkpt lat="42.06607783951399" lon="13.642525517660843"><ele>925.0</ele><time>2026-04-19T15:39:29.001Z</time></trkpt><trkpt lat="42.06624524265529" lon="13.642277424171388"><ele>925.0</ele><time>2026-04-19T15:39:30.001Z</time></trkpt><trkpt lat="42.06642768986398" lon="13.64200703526531"><ele>925.0</ele><time>2026-04-19T15:39:31.001Z</time></trkpt><trkpt lat="42.066615694187654" lon="13.641729228006605"><ele>924.0</ele><time>2026-04-19T15:39:32.001Z</time></trkpt><trkpt lat="42.06679653150292" lon="13.641462392857278"><ele>923.0</ele><time>2026-04-19T15:39:33.001Z</time></trkpt><trkpt lat="42.06696339880078" lon="13.641216742054418"><ele>918.5</ele><time>2026-04-19T15:39:34.001Z</time></trkpt><trkpt lat="42.06711389589605" lon="13.640970620518392"><ele>914.0</ele><time>2026-04-19T15:39:35.001Z</time></trkpt><trkpt lat="42.067266645484004" lon="13.64075349444311"><ele>914.0</ele><time>2026-04-19T15:39:36.001Z</time></trkpt><trkpt lat="42.06741499115116" lon="13.640529785458575"><ele>914.0</ele><time>2026-04-19T15:39:37.001Z</time></trkpt><trkpt lat="42.06755322870477" lon="13.640301953859993"><ele>914.0</ele><time>2026-04-19T15:39:38.001Z</time></trkpt><trkpt lat="42.06767859450951" lon="13.640070766226216"><ele>914.0</ele><time>2026-04-19T15:39:39.001Z</time></trkpt><trkpt lat="42.06778247492143" lon="13.639826370714635"><ele>914.0</ele><time>2026-04-19T15:39:40.001Z</time></trkpt><trkpt lat="42.06787734293285" lon="13.639589393513845"><ele>914.0</ele><time>2026-04-19T15:39:41.001Z</time></trkpt><trkpt lat="42.067962920827014" lon="13.639356753459364"><ele>911.0</ele><time>2026-04-19T15:39:42.001Z</time></trkpt><trkpt lat="42.068029109091505" lon="13.639105820510984"><ele>908.0</ele><time>2026-04-19T15:39:43.001Z</time></trkpt><trkpt lat="42.06807809558716" lon="13.63882318144207"><ele>905.0</ele><time>2026-04-19T15:39:44.001Z</time></trkpt><trkpt lat="42.06812238697768" lon="13.638521421573913"><ele>904.3333333333334</ele><time>2026-04-19T15:39:45.001Z</time></trkpt><trkpt lat="42.06817392081111" lon="13.638224504844537"><ele>903.6666666666667</ele><time>2026-04-19T15:39:46.001Z</time></trkpt><trkpt lat="42.068224036214495" lon="13.637948555200007"><ele>903.0</ele><time>2026-04-19T15:39:47.001Z</time></trkpt><trkpt lat="42.068278391467814" lon="13.637670684915435"><ele>903.0</ele><time>2026-04-19T15:39:48.001Z</time></trkpt><trkpt lat="42.06835204647" lon="13.637374279734106"><ele>903.0</ele><time>2026-04-19T15:39:49.001Z</time></trkpt><trkpt lat="42.06847015122704" lon="13.637087775753331"><ele>899.0</ele><time>2026-04-19T15:39:50.001Z</time></trkpt><trkpt lat="42.06856825191096" lon="13.636780752137046"><ele>895.0</ele><time>2026-04-19T15:39:51.001Z</time></trkpt><trkpt lat="42.06868033148716" lon="13.636489751829016"><ele>895.0</ele><time>2026-04-19T15:39:52.001Z</time></trkpt><trkpt lat="42.06877826846739" lon="13.636214132534457"><ele>895.0</ele><time>2026-04-19T15:39:53.001Z</time></trkpt><trkpt lat="42.068868001357075" lon="13.635949229743261"><ele>895.0</ele><time>2026-04-19T15:39:54.001Z</time></trkpt><trkpt lat="42.06895696940013" lon="13.63569429494062"><ele>894.0</ele><time>2026-04-19T15:39:55.001Z</time></trkpt><trkpt lat="42.06904378588117" lon="13.635458338365746"><ele>893.0</ele><time>2026-04-19T15:39:56.001Z</time></trkpt><trkpt lat="42.06913239045155" lon="13.635228410142997"><ele>892.0</ele><time>2026-04-19T15:39:57.001Z</time></trkpt><trkpt lat="42.06922873259344" lon="13.635012096188659"><ele>892.0</ele><time>2026-04-19T15:39:58.001Z</time></trkpt><trkpt lat="42.06935967664071" lon="13.634842408567627"><ele>892.0</ele><time>2026-04-19T15:39:59.001Z</time></trkpt><trkpt lat="42.06947129478563" lon="13.634672743866398"><ele>892.0</ele><time>2026-04-19T15:40:00Z</time></trkpt><trkpt lat="42.06957382381651" lon="13.634529007504076"><ele>890.6666666666666</ele><time>2026-04-19T15:40:01Z</time></trkpt><trkpt lat="42.069662506035954" lon="13.634375510538064"><ele>889.3333333333333</ele><time>2026-04-19T15:40:02Z</time></trkpt><trkpt lat="42.069737350935235" lon="13.63421383528833"><ele>888.0</ele><time>2026-04-19T15:40:03Z</time></trkpt><trkpt lat="42.06972284367951" lon="13.633972891910744"><ele>888.0</ele><time>2026-04-19T15:40:04Z</time></trkpt><trkpt lat="42.0696858286231" lon="13.633726328467429"><ele>888.0</ele><time>2026-04-19T15:40:05Z</time></trkpt><trkpt lat="42.069634216553055" lon="13.633459171947864"><ele>888.0</ele><time>2026-04-19T15:40:06Z</time></trkpt><trkpt lat="42.069584192352906" lon="13.63319153629467"><ele>886.6666666666667</ele><time>2026-04-19T15:40:07Z</time></trkpt><trkpt lat="42.069513524414035" lon="13.632923450597932"><ele>885.3333333333334</ele><time>2026-04-19T15:40:08Z</time></trkpt><trkpt lat="42.06942909295875" lon="13.632653902508"><ele>884.0</ele><time>2026-04-19T15:40:09Z</time></trkpt><trkpt lat="42.069360880053296" lon="13.63240080439552"><ele>882.0</ele><time>2026-04-19T15:40:10Z</time></trkpt><trkpt lat="42.06929847157574" lon="13.632162352020847"><ele>880.0</ele><time>2026-04-19T15:40:11Z</time></trkpt><trkpt lat="42.06923729064193" lon="13.631927448407525"><ele>878.0</ele><time>2026-04-19T15:40:12Z</time></trkpt><trkpt lat="42.06917857292453" lon="13.631701164733844"><ele>877.0</ele><time>2026-04-19T15:40:13Z</time></trkpt><trkpt lat="42.069124413808964" lon="13.631492593891913"><ele>876.0</ele><time>2026-04-19T15:40:14Z</time></trkpt><trkpt lat="42.06907413753836" lon="13.63131119289333"><ele>875.0</ele><time>2026-04-19T15:40:15Z</time></trkpt><trkpt lat="42.06902069091765" lon="13.631152156011613"><ele>874.0</ele><time>2026-04-19T15:40:16Z</time></trkpt><trkpt lat="42.06893567527649" lon="13.631015204558699"><ele>871.6666666666666</ele><time>2026-04-19T15:40:17Z</time></trkpt><trkpt lat="42.068815653614735" lon="13.6309169362795"><ele>869.3333333333333</ele><time>2026-04-19T15:40:18Z</time></trkpt><trkpt lat="42.06866600194598" lon="13.630846094576578"><ele>867.0</ele><time>2026-04-19T15:40:19Z</time></trkpt><trkpt lat="42.068510660093935" lon="13.630820080597923"><ele>867.0</ele><time>2026-04-19T15:40:20Z</time></trkpt><trkpt lat="42.06835013785027" lon="13.630841761389963"><ele>867.0</ele><time>2026-04-19T15:40:21Z</time></trkpt><trkpt lat="42.068191154990785" lon="13.630932346390951"><ele>867.0</ele><time>2026-04-19T15:40:22Z</time></trkpt><trkpt lat="42.068038581655735" lon="13.631076388731552"><ele>867.6666666666667</ele><time>2026-04-19T15:40:23Z</time></trkpt><trkpt lat="42.06788192924233" lon="13.631227800288253"><ele>868.3333333333334</ele><time>2026-04-19T15:40:24Z</time></trkpt><trkpt lat="42.06770959855687" lon="13.631322788430053"><ele>869.0</ele><time>2026-04-19T15:40:25Z</time></trkpt><trkpt lat="42.067525884684386" lon="13.6313822841554"><ele>867.3333333333334</ele><time>2026-04-19T15:40:26Z</time></trkpt><trkpt lat="42.0673349859964" lon="13.631426616118086"><ele>865.6666666666667</ele><time>2026-04-19T15:40:27Z</time></trkpt><trkpt lat="42.06715174924192" lon="13.631475635238786"><ele>864.0</ele><time>2026-04-19T15:40:28Z</time></trkpt><trkpt lat="42.06697974138538" lon="13.631528600173972"><ele>864.0</ele><time>2026-04-19T15:40:29Z</time></trkpt><trkpt lat="42.066815272086295" lon="13.631580538938925"><ele>864.0</ele><time>2026-04-19T15:40:30Z</time></trkpt><trkpt lat="42.06665928915369" lon="13.631629474840764"><ele>864.0</ele><time>2026-04-19T15:40:31Z</time></trkpt><trkpt lat="42.066511603082844" lon="13.631676616213824"><ele>862.75</ele><time>2026-04-19T15:40:32Z</time></trkpt><trkpt lat="42.06637610688282" lon="13.631722198323834"><ele>861.5</ele><time>2026-04-19T15:40:33Z</time></trkpt><trkpt lat="42.06626324201136" lon="13.63174508951797"><ele>860.25</ele><time>2026-04-19T15:40:34Z</time></trkpt><trkpt lat="42.06616837304497" lon="13.631713406468922"><ele>859.0</ele><time>2026-04-19T15:40:35Z</time></trkpt><trkpt lat="42.066065870584524" lon="13.631650979998772"><ele>859.0</ele><time>2026-04-19T15:40:36Z</time></trkpt><trkpt lat="42.06597714420532" lon="13.631544978226522"><ele>859.0</ele><time>2026-04-19T15:40:37Z</time></trkpt><trkpt lat="42.06591458317566" lon="13.63138335028917"><ele>859.0</ele><time>2026-04-19T15:40:38Z</time></trkpt><trkpt lat="42.065827296250745" lon="13.631230569011997"><ele>859.0</ele><time>2026-04-19T15:40:39Z</time></trkpt><trkpt lat="42.06575228384656" lon="13.63107225486826"><ele>856.5</ele><time>2026-04-19T15:40:40Z</time></trkpt><trkpt lat="42.06567007021604" lon="13.630916670743092"><ele>854.0</ele><time>2026-04-19T15:40:41Z</time></trkpt><trkpt lat="42.06558774757385" lon="13.630758084006395"><ele>851.5</ele><time>2026-04-19T15:40:42Z</time></trkpt><trkpt lat="42.06550444165904" lon="13.630595448910404"><ele>849.0</ele><time>2026-04-19T15:40:43Z</time></trkpt><trkpt lat="42.06541613584168" lon="13.630429943619971"><ele>848.6666666666667</ele><time>2026-04-19T15:40:44Z</time></trkpt><trkpt lat="42.06532776872559" lon="13.630262671960924"><ele>848.3333333333334</ele><time>2026-04-19T15:40:45Z</time></trkpt><trkpt lat="42.06524297616088" lon="13.630089899938064"><ele>848.0</ele><time>2026-04-19T15:40:46Z</time></trkpt><trkpt lat="42.06515600363373" lon="13.629909579890002"><ele>848.0</ele><time>2026-04-19T15:40:47Z</time></trkpt><trkpt lat="42.065065886653315" lon="13.629731692327088"><ele>848.0</ele><time>2026-04-19T15:40:48Z</time></trkpt><trkpt lat="42.0649721531603" lon="13.629556764054131"><ele>848.0</ele><time>2026-04-19T15:40:49Z</time></trkpt><trkpt lat="42.06488379944356" lon="13.629383014806884"><ele>847.25</ele><time>2026-04-19T15:40:50Z</time></trkpt><trkpt lat="42.06480017362227" lon="13.62921220134668"><ele>846.5</ele><time>2026-04-19T15:40:51Z</time></trkpt><trkpt lat="42.06471839444781" lon="13.62904582012839"><ele>845.75</ele><time>2026-04-19T15:40:52Z</time></trkpt><trkpt lat="42.06463521064568" lon="13.628883817165052"><ele>845.0</ele><time>2026-04-19T15:40:53Z</time></trkpt><trkpt lat="42.06455117377761" lon="13.628729507420232"><ele>845.25</ele><time>2026-04-19T15:40:54Z</time></trkpt><trkpt lat="42.064457222890425" lon="13.628592300477568"><ele>845.5</ele><time>2026-04-19T15:40:55Z</time></trkpt><trkpt lat="42.064349349160075" lon="13.628474866200829"><ele>845.75</ele><time>2026-04-19T15:40:56Z</time></trkpt><trkpt lat="42.064232674670755" lon="13.628398854603654"><ele>846.0</ele><time>2026-04-19T15:40:57Z</time></trkpt><trkpt lat="42.064103723788335" lon="13.628345138122143"><ele>845.5</ele><time>2026-04-19T15:40:58Z</time></trkpt><trkpt lat="42.063974636132855" lon="13.628297119192682"><ele>845.0</ele><time>2026-04-19T15:40:59Z</time></trkpt><trkpt lat="42.06384933479016" lon="13.628240615459722"><ele>844.5</ele><time>2026-04-19T15:41:00Z</time></trkpt><trkpt lat="42.06372631468879" lon="13.628177119600181"><ele>844.0</ele><time>2026-04-19T15:41:01Z</time></trkpt><trkpt lat="42.06360360525765" lon="13.628113754449812"><ele>844.0</ele><time>2026-04-19T15:41:02Z</time></trkpt><trkpt lat="42.06348283634734" lon="13.628054308049167"><ele>844.0</ele><time>2026-04-19T15:41:03Z</time></trkpt><trkpt lat="42.06336146698889" lon="13.627994883258038"><ele>844.0</ele><time>2026-04-19T15:41:04Z</time></trkpt><trkpt lat="42.06324178523414" lon="13.627935801238399"><ele>844.0</ele><time>2026-04-19T15:41:05Z</time></trkpt><trkpt lat="42.06312346747547" lon="13.627873647476953"><ele>843.75</ele><time>2026-04-19T15:41:06Z</time></trkpt><trkpt lat="42.063004009651785" lon="13.62781944693868"><ele>843.5</ele><time>2026-04-19T15:41:07Z</time></trkpt><trkpt lat="42.0628846721858" lon="13.627764190494036"><ele>843.25</ele><time>2026-04-19T15:41:08Z</time></trkpt><trkpt lat="42.062766503521836" lon="13.627708877947798"><ele>843.0</ele><time>2026-04-19T15:41:09Z</time></trkpt><trkpt lat="42.06264709048726" lon="13.627651384417891"><ele>843.0</ele><time>2026-04-19T15:41:10Z</time></trkpt><trkpt lat="42.06252970281053" lon="13.627593447444955"><ele>843.0</ele><time>2026-04-19T15:41:11Z</time></trkpt><trkpt lat="42.062414417746936" lon="13.627542003276679"><ele>843.0</ele><time>2026-04-19T15:41:12Z</time></trkpt><trkpt lat="42.06230885066037" lon="13.627492042667923"><ele>843.0</ele><time>2026-04-19T15:41:13Z</time></trkpt><trkpt lat="42.062209564087006" lon="13.627441710371325"><ele>842.5999999999999</ele><time>2026-04-19T15:41:14Z</time></trkpt><trkpt lat="42.06210609081757" lon="13.627392056048368"><ele>842.1999999999999</ele><time>2026-04-19T15:41:15Z</time></trkpt><trkpt lat="42.06199880534592" lon="13.627342374259637"><ele>841.8</ele><time>2026-04-19T15:41:16Z</time></trkpt><trkpt lat="42.06189346299669" lon="13.62728945503721"><ele>841.4</ele><time>2026-04-19T15:41:17Z</time></trkpt><trkpt lat="42.06179615367024" lon="13.627239681919548"><ele>841.0</ele><time>2026-04-19T15:41:18Z</time></trkpt><trkpt lat="42.06169932155752" lon="13.627196120870583"><ele>840.5999999999999</ele><time>2026-04-19T15:41:19Z</time></trkpt><trkpt lat="42.06160268535828" lon="13.627150929847595"><ele>840.2</ele><time>2026-04-19T15:41:20Z</time></trkpt><trkpt lat="42.06150669805249" lon="13.627104899623244"><ele>839.8</ele><time>2026-04-19T15:41:21Z</time></trkpt><trkpt lat="42.06141244418662" lon="13.627056746796109"><ele>839.4000000000001</ele><time>2026-04-19T15:41:22Z</time></trkpt><trkpt lat="42.061318308621246" lon="13.627007446100114"><ele>839.0</ele><time>2026-04-19T15:41:23Z</time></trkpt><trkpt lat="42.061220352846185" lon="13.626960428142823"><ele>838.8000000000001</ele><time>2026-04-19T15:41:24Z</time></trkpt><trkpt lat="42.061127312652495" lon="13.626908178044628"><ele>838.6</ele><time>2026-04-19T15:41:25Z</time></trkpt><trkpt lat="42.06103320805634" lon="13.626858418551762"><ele>838.4</ele><time>2026-04-19T15:41:26Z</time></trkpt><trkpt lat="42.06094085577556" lon="13.626806010050045"><ele>838.2</ele><time>2026-04-19T15:41:27Z</time></trkpt><trkpt lat="42.06084755757582" lon="13.626758039133506"><ele>838.0</ele><time>2026-04-19T15:41:27.999Z</time></trkpt><trkpt lat="42.060751217829804" lon="13.626716446675477"><ele>837.2</ele><time>2026-04-19T15:41:28.999Z</time></trkpt><trkpt lat="42.06065594053649" lon="13.626676277709706"><ele>836.4</ele><time>2026-04-19T15:41:29.999Z</time></trkpt><trkpt lat="42.060556710308425" lon="13.62663168939788"><ele>835.6</ele><time>2026-04-19T15:41:30.999Z</time></trkpt><trkpt lat="42.060458052292816" lon="13.626583221684816"><ele>834.8000000000001</ele><time>2026-04-19T15:41:31.999Z</time></trkpt><trkpt lat="42.060358684242345" lon="13.626529647954573"><ele>834.0</ele><time>2026-04-19T15:41:33.001Z</time></trkpt><trkpt lat="42.06025155468975" lon="13.626484449492194"><ele>834.0</ele><time>2026-04-19T15:41:34.001Z</time></trkpt><trkpt lat="42.06014495807558" lon="13.626435274587825"><ele>834.0</ele><time>2026-04-19T15:41:35.001Z</time></trkpt><trkpt lat="42.06003660001243" lon="13.626390775684225"><ele>834.0</ele><time>2026-04-19T15:41:36.001Z</time></trkpt><trkpt lat="42.059938246851765" lon="13.62632174412153"><ele>834.0</ele><time>2026-04-19T15:41:37.001Z</time></trkpt><trkpt lat="42.059826715872376" lon="13.626272296899238"><ele>833.75</ele><time>2026-04-19T15:41:38.001Z</time></trkpt><trkpt lat="42.0597152310061" lon="13.626217507862153"><ele>833.5</ele><time>2026-04-19T15:41:39.001Z</time></trkpt><trkpt lat="42.059602359857834" lon="13.626165203626723"><ele>833.25</ele><time>2026-04-19T15:41:40.001Z</time></trkpt><trkpt lat="42.059486833865776" lon="13.626110734993427"><ele>833.0</ele><time>2026-04-19T15:41:41.001Z</time></trkpt><trkpt lat="42.05937229173858" lon="13.626055097398167"><ele>833.0</ele><time>2026-04-19T15:41:42.001Z</time></trkpt><trkpt lat="42.05925418519716" lon="13.625999040386242"><ele>833.0</ele><time>2026-04-19T15:41:43.001Z</time></trkpt><trkpt lat="42.05913595533774" lon="13.62594192787942"><ele>833.0</ele><time>2026-04-19T15:41:44.001Z</time></trkpt><trkpt lat="42.059017920692206" lon="13.625885653471583"><ele>833.0</ele><time>2026-04-19T15:41:45.001Z</time></trkpt><trkpt lat="42.05889746113427" lon="13.625831385078389"><ele>832.25</ele><time>2026-04-19T15:41:46.001Z</time></trkpt><trkpt lat="42.05877943484896" lon="13.625770360114991"><ele>831.5</ele><time>2026-04-19T15:41:47.001Z</time></trkpt><trkpt lat="42.058662231334395" lon="13.625707040771324"><ele>830.75</ele><time>2026-04-19T15:41:48.001Z</time></trkpt><trkpt lat="42.058542635674" lon="13.625644446683527"><ele>830.0</ele><time>2026-04-19T15:41:49.001Z</time></trkpt><trkpt lat="42.05843109780545" lon="13.625580876866227"><ele>830.0</ele><time>2026-04-19T15:41:50.001Z</time></trkpt><trkpt lat="42.05832249947499" lon="13.625508154000963"><ele>830.0</ele><time>2026-04-19T15:41:51.001Z</time></trkpt><trkpt lat="42.05822016982644" lon="13.625404702301333"><ele>830.0</ele><time>2026-04-19T15:41:52.001Z</time></trkpt><trkpt lat="42.05812517053747" lon="13.625282740675367"><ele>830.0</ele><time>2026-04-19T15:41:53.001Z</time></trkpt><trkpt lat="42.05802406844989" lon="13.625156194827115"><ele>828.5</ele><time>2026-04-19T15:41:54.001Z</time></trkpt><trkpt lat="42.057924665587635" lon="13.625016204492306"><ele>827.0</ele><time>2026-04-19T15:41:55.001Z</time></trkpt><trkpt lat="42.05781896799108" lon="13.624881476128898"><ele>825.5</ele><time>2026-04-19T15:41:56.001Z</time></trkpt><trkpt lat="42.05770576634934" lon="13.624762219094475"><ele>824.0</ele><time>2026-04-19T15:41:57Z</time></trkpt><trkpt lat="42.05756017129086" lon="13.624677812505382"><ele>823.0</ele><time>2026-04-19T15:41:58Z</time></trkpt><trkpt lat="42.05739703069592" lon="13.624614199553136"><ele>822.0</ele><time>2026-04-19T15:41:59Z</time></trkpt><trkpt lat="42.05722203509024" lon="13.624548218900436"><ele>821.0</ele><time>2026-04-19T15:42:00Z</time></trkpt><trkpt lat="42.05703975910513" lon="13.624473670987824"><ele>821.0</ele><time>2026-04-19T15:42:01Z</time></trkpt><trkpt lat="42.056863416021834" lon="13.624399244160012"><ele>821.0</ele><time>2026-04-19T15:42:02Z</time></trkpt><trkpt lat="42.05669868147373" lon="13.624329408436783"><ele>821.0</ele><time>2026-04-19T15:42:03Z</time></trkpt><trkpt lat="42.0565443230259" lon="13.624266131542674"><ele>819.0</ele><time>2026-04-19T15:42:04Z</time></trkpt><trkpt lat="42.05639346841374" lon="13.624208957501574"><ele>817.0</ele><time>2026-04-19T15:42:05Z</time></trkpt><trkpt lat="42.056250511425134" lon="13.624161395777868"><ele>815.0</ele><time>2026-04-19T15:42:06Z</time></trkpt><trkpt lat="42.05612414987997" lon="13.62412404448194"><ele>813.0</ele><time>2026-04-19T15:42:07Z</time></trkpt><trkpt lat="42.056014937377405" lon="13.624094732031686"><ele>813.0</ele><time>2026-04-19T15:42:08Z</time></trkpt><trkpt lat="42.05592014745032" lon="13.624073214334157"><ele>813.0</ele><time>2026-04-19T15:42:09Z</time></trkpt><trkpt lat="42.05583404544256" lon="13.624053523782115"><ele>813.0</ele><time>2026-04-19T15:42:10Z</time></trkpt><trkpt lat="42.055741492735166" lon="13.62404324772087"><ele>813.0</ele><time>2026-04-19T15:42:11Z</time></trkpt><trkpt lat="42.055634753236895" lon="13.624044986980657"><ele>813.0</ele><time>2026-04-19T15:42:12Z</time></trkpt><trkpt lat="42.05552338187292" lon="13.624053134951575"><ele>812.5</ele><time>2026-04-19T15:42:13Z</time></trkpt><trkpt lat="42.05541028182428" lon="13.624069998619932"><ele>812.0</ele><time>2026-04-19T15:42:14Z</time></trkpt><trkpt lat="42.05528783197808" lon="13.624095647939697"><ele>811.5</ele><time>2026-04-19T15:42:15Z</time></trkpt><trkpt lat="42.05516222103779" lon="13.624133555153879"><ele>811.0</ele><time>2026-04-19T15:42:16Z</time></trkpt><trkpt lat="42.055034493360374" lon="13.624174975539592"><ele>810.5</ele><time>2026-04-19T15:42:17Z</time></trkpt><trkpt lat="42.054905885537636" lon="13.624222812253953"><ele>810.0</ele><time>2026-04-19T15:42:18Z</time></trkpt><trkpt lat="42.054781972369604" lon="13.624281623489052"><ele>809.5</ele><time>2026-04-19T15:42:19Z</time></trkpt><trkpt lat="42.054668211317264" lon="13.624344858679777"><ele>809.0</ele><time>2026-04-19T15:42:20Z</time></trkpt><trkpt lat="42.05456431899124" lon="13.624406588483833"><ele>809.0</ele><time>2026-04-19T15:42:21Z</time></trkpt><trkpt lat="42.054461594925776" lon="13.624457366747745"><ele>809.0</ele><time>2026-04-19T15:42:22Z</time></trkpt><trkpt lat="42.05435574687933" lon="13.624500663804703"><ele>809.0</ele><time>2026-04-19T15:42:23Z</time></trkpt><trkpt lat="42.05425364499231" lon="13.624535215619055"><ele>809.0</ele><time>2026-04-19T15:42:24Z</time></trkpt><trkpt lat="42.054153913622294" lon="13.624538262345867"><ele>809.0</ele><time>2026-04-19T15:42:25Z</time></trkpt><trkpt lat="42.0540595818199" lon="13.62449710489793"><ele>807.0</ele><time>2026-04-19T15:42:26Z</time></trkpt><trkpt lat="42.05397195203608" lon="13.624422070692873"><ele>805.0</ele><time>2026-04-19T15:42:27Z</time></trkpt><trkpt lat="42.05389583458012" lon="13.62432062812569"><ele>803.0</ele><time>2026-04-19T15:42:28Z</time></trkpt><trkpt lat="42.05383021655957" lon="13.624206694395937"><ele>801.0</ele><time>2026-04-19T15:42:29Z</time></trkpt><trkpt lat="42.05378121503269" lon="13.624082367276788"><ele>799.0</ele><time>2026-04-19T15:42:30Z</time></trkpt><trkpt lat="42.05376295573832" lon="13.62394110026874"><ele>799.0</ele><time>2026-04-19T15:42:31Z</time></trkpt><trkpt lat="42.0538021983891" lon="13.62380076383401"><ele>799.0</ele><time>2026-04-19T15:42:32Z</time></trkpt><trkpt lat="42.0538569788221" lon="13.623661696986229"><ele>799.0</ele><time>2026-04-19T15:42:33Z</time></trkpt><trkpt lat="42.0539051229864" lon="13.623513473340342"><ele>799.0</ele><time>2026-04-19T15:42:34Z</time></trkpt><trkpt lat="42.05397480804498" lon="13.623378834996098"><ele>797.25</ele><time>2026-04-19T15:42:35Z</time></trkpt><trkpt lat="42.05404995467616" lon="13.623247281448245"><ele>795.5</ele><time>2026-04-19T15:42:36Z</time></trkpt><trkpt lat="42.05412042511558" lon="13.623104024141826"><ele>793.75</ele><time>2026-04-19T15:42:37Z</time></trkpt><trkpt lat="42.054201929554054" lon="13.622965158773981"><ele>792.0</ele><time>2026-04-19T15:42:38Z</time></trkpt><trkpt lat="42.0542791880719" lon="13.62281741131906"><ele>793.75</ele><time>2026-04-19T15:42:39Z</time></trkpt><trkpt lat="42.05435305066865" lon="13.622664612267126"><ele>795.5</ele><time>2026-04-19T15:42:40Z</time></trkpt><trkpt lat="42.05441270253412" lon="13.62249813608781"><ele>797.25</ele><time>2026-04-19T15:42:41Z</time></trkpt><trkpt lat="42.05445951781997" lon="13.622317516348833"><ele>799.0</ele><time>2026-04-19T15:42:42Z</time></trkpt><trkpt lat="42.05450036453142" lon="13.6221330012771"><ele>797.75</ele><time>2026-04-19T15:42:43Z</time></trkpt><trkpt lat="42.05453169310699" lon="13.621939847881555"><ele>796.5</ele><time>2026-04-19T15:42:44Z</time></trkpt><trkpt lat="42.054554326524816" lon="13.621740169589826"><ele>795.25</ele><time>2026-04-19T15:42:45Z</time></trkpt><trkpt lat="42.05456160000051" lon="13.621536313454612"><ele>794.0</ele><time>2026-04-19T15:42:46Z</time></trkpt><trkpt lat="42.05457876069085" lon="13.621332596557167"><ele>793.0</ele><time>2026-04-19T15:42:47Z</time></trkpt><trkpt lat="42.054595589288894" lon="13.621140841361076"><ele>792.0</ele><time>2026-04-19T15:42:48Z</time></trkpt><trkpt lat="42.05459620817211" lon="13.620933054018776"><ele>791.0</ele><time>2026-04-19T15:42:49Z</time></trkpt><trkpt lat="42.05460062958347" lon="13.62072482778435"><ele>791.0</ele><time>2026-04-19T15:42:50Z</time></trkpt><trkpt lat="42.054608963425245" lon="13.620515696817233"><ele>791.0</ele><time>2026-04-19T15:42:51Z</time></trkpt><trkpt lat="42.05461710381717" lon="13.620312550662886"><ele>791.0</ele><time>2026-04-19T15:42:52Z</time></trkpt><trkpt lat="42.05462208241734" lon="13.620126982747149"><ele>791.0</ele><time>2026-04-19T15:42:53Z</time></trkpt><trkpt lat="42.054628093815396" lon="13.61994654435284"><ele>789.75</ele><time>2026-04-19T15:42:54Z</time></trkpt><trkpt lat="42.05463650462121" lon="13.61978130118556"><ele>788.5</ele><time>2026-04-19T15:42:55Z</time></trkpt><trkpt lat="42.05467369328682" lon="13.61962699577969"><ele>787.25</ele><time>2026-04-19T15:42:56Z</time></trkpt><trkpt lat="42.0547290324968" lon="13.61948728636486"><ele>786.0</ele><time>2026-04-19T15:42:57Z</time></trkpt><trkpt lat="42.05482437924573" lon="13.619373445753967"><ele>784.5</ele><time>2026-04-19T15:42:58Z</time></trkpt><trkpt lat="42.054944585900806" lon="13.619251357255907"><ele>783.0</ele><time>2026-04-19T15:42:59Z</time></trkpt><trkpt lat="42.05506418653009" lon="13.619127883204122"><ele>781.5</ele><time>2026-04-19T15:43:00Z</time></trkpt><trkpt lat="42.05517491816818" lon="13.61903681058372"><ele>780.0</ele><time>2026-04-19T15:43:01Z</time></trkpt><trkpt lat="42.05525768790507" lon="13.618939077163155"><ele>781.75</ele><time>2026-04-19T15:43:02Z</time></trkpt><trkpt lat="42.05531014273029" lon="13.618796569950122"><ele>783.5</ele><time>2026-04-19T15:43:03Z</time></trkpt><trkpt lat="42.0553231469935" lon="13.618611649910704"><ele>785.25</ele><time>2026-04-19T15:43:04Z</time></trkpt><trkpt lat="42.055277070572465" lon="13.618410423971781"><ele>787.0</ele><time>2026-04-19T15:43:05Z</time></trkpt><trkpt lat="42.05520409531242" lon="13.618199232692465"><ele>787.0</ele><time>2026-04-19T15:43:06Z</time></trkpt><trkpt lat="42.05514527768395" lon="13.617981944281842"><ele>787.0</ele><time>2026-04-19T15:43:07Z</time></trkpt><trkpt lat="42.055095524074744" lon="13.617761622151674"><ele>787.0</ele><time>2026-04-19T15:43:08Z</time></trkpt><trkpt lat="42.05504920524383" lon="13.617555445343273"><ele>786.5</ele><time>2026-04-19T15:43:09Z</time></trkpt><trkpt lat="42.05500087747776" lon="13.61736353800626"><ele>786.0</ele><time>2026-04-19T15:43:10Z</time></trkpt><trkpt lat="42.05495928535473" lon="13.617180926600371"><ele>785.5</ele><time>2026-04-19T15:43:11Z</time></trkpt><trkpt lat="42.05492416868361" lon="13.617001308376015"><ele>785.0</ele><time>2026-04-19T15:43:12Z</time></trkpt><trkpt lat="42.05488814700464" lon="13.616827163601634"><ele>782.75</ele><time>2026-04-19T15:43:13Z</time></trkpt><trkpt lat="42.05484833046688" lon="13.616662954858661"><ele>780.5</ele><time>2026-04-19T15:43:14Z</time></trkpt><trkpt lat="42.054808596668934" lon="13.616502059886182"><ele>778.25</ele><time>2026-04-19T15:43:15Z</time></trkpt><trkpt lat="42.05477601019798" lon="13.616347193674393"><ele>776.0</ele><time>2026-04-19T15:43:16Z</time></trkpt><trkpt lat="42.05474977494929" lon="13.6162009892677"><ele>774.75</ele><time>2026-04-19T15:43:17Z</time></trkpt><trkpt lat="42.054722424695704" lon="13.616059607313295"><ele>773.5</ele><time>2026-04-19T15:43:18Z</time></trkpt><trkpt lat="42.0547020781486" lon="13.615908281101696"><ele>772.25</ele><time>2026-04-19T15:43:19Z</time></trkpt><trkpt lat="42.05471600410461" lon="13.615751602722526"><ele>771.0</ele><time>2026-04-19T15:43:20Z</time></trkpt><trkpt lat="42.05477407818459" lon="13.615603247414251"><ele>771.0</ele><time>2026-04-19T15:43:21Z</time></trkpt><trkpt lat="42.05489014027883" lon="13.61550714075885"><ele>771.0</ele><time>2026-04-19T15:43:21.999Z</time></trkpt><trkpt lat="42.055012010624736" lon="13.6153893462998"><ele>771.0</ele><time>2026-04-19T15:43:22.999Z</time></trkpt><trkpt lat="42.055129369405066" lon="13.61524969961119"><ele>771.0</ele><time>2026-04-19T15:43:23.999Z</time></trkpt><trkpt lat="42.055237030745104" lon="13.615079840987923"><ele>771.6666666666667</ele><time>2026-04-19T15:43:24.999Z</time></trkpt><trkpt lat="42.055331868096715" lon="13.614868410815099"><ele>772.3333333333334</ele><time>2026-04-19T15:43:25.999Z</time></trkpt><trkpt lat="42.055406203996384" lon="13.614627088271824"><ele>773.0</ele><time>2026-04-19T15:43:26.999Z</time></trkpt><trkpt lat="42.05544304342988" lon="13.614371794416495"><ele>771.3333333333334</ele><time>2026-04-19T15:43:27.999Z</time></trkpt><trkpt lat="42.05545328928788" lon="13.614113222000134"><ele>769.6666666666667</ele><time>2026-04-19T15:43:28.999Z</time></trkpt><trkpt lat="42.05543102233351" lon="13.613862798720064"><ele>768.0</ele><time>2026-04-19T15:43:29.999Z</time></trkpt><trkpt lat="42.05538136194381" lon="13.613622146515501"><ele>768.0</ele><time>2026-04-19T15:43:30.999Z</time></trkpt><trkpt lat="42.055312965066626" lon="13.61340615620275"><ele>768.0</ele><time>2026-04-19T15:43:31.999Z</time></trkpt><trkpt lat="42.05524198326936" lon="13.613226385597274"><ele>768.0</ele><time>2026-04-19T15:43:32.999Z</time></trkpt><trkpt lat="42.05520390012613" lon="13.613085709175353"><ele>768.0</ele><time>2026-04-19T15:43:33.999Z</time></trkpt><trkpt lat="42.05519863580211" lon="13.612970890529606"><ele>768.0</ele><time>2026-04-19T15:43:34.999Z</time></trkpt><trkpt lat="42.055217705703676" lon="13.612842092461397"><ele>768.0</ele><time>2026-04-19T15:43:35.999Z</time></trkpt><trkpt lat="42.05529295556904" lon="13.61273879378179"><ele>768.0</ele><time>2026-04-19T15:43:36.999Z</time></trkpt><trkpt lat="42.05539965800848" lon="13.612667905024203"><ele>768.0</ele><time>2026-04-19T15:43:38.001Z</time></trkpt><trkpt lat="42.055541012256064" lon="13.612704252716407"><ele>767.0</ele><time>2026-04-19T15:43:39.001Z</time></trkpt><trkpt lat="42.055688287937926" lon="13.612718544719613"><ele>766.0</ele><time>2026-04-19T15:43:40.001Z</time></trkpt><trkpt lat="42.05585296695389" lon="13.612727758894284"><ele>765.0</ele><time>2026-04-19T15:43:41.001Z</time></trkpt><trkpt lat="42.05603138052427" lon="13.61271809540739"><ele>764.3333333333334</ele><time>2026-04-19T15:43:42.001Z</time></trkpt><trkpt lat="42.056217665690156" lon="13.61267560998344"><ele>763.6666666666667</ele><time>2026-04-19T15:43:43.001Z</time></trkpt><trkpt lat="42.05641001174416" lon="13.612625265472083"><ele>763.0</ele><time>2026-04-19T15:43:44.001Z</time></trkpt><trkpt lat="42.05661140976962" lon="13.612573792577184"><ele>763.6666666666667</ele><time>2026-04-19T15:43:45.001Z</time></trkpt><trkpt lat="42.0568181776736" lon="13.612524209111712"><ele>764.3333333333334</ele><time>2026-04-19T15:43:46.001Z</time></trkpt><trkpt lat="42.057021887987645" lon="13.612482248136013"><ele>765.0</ele><time>2026-04-19T15:43:47.001Z</time></trkpt><trkpt lat="42.05722302371451" lon="13.612436522962266"><ele>765.0</ele><time>2026-04-19T15:43:48.001Z</time></trkpt><trkpt lat="42.05742706326795" lon="13.61240936627352"><ele>765.0</ele><time>2026-04-19T15:43:49.001Z</time></trkpt><trkpt lat="42.05761873014623" lon="13.612400327363526"><ele>765.0</ele><time>2026-04-19T15:43:50.001Z</time></trkpt><trkpt lat="42.057805946814995" lon="13.612434992623704"><ele>765.0</ele><time>2026-04-19T15:43:51.001Z</time></trkpt><trkpt lat="42.05797958993757" lon="13.61245838018351"><ele>765.0</ele><time>2026-04-19T15:43:52.001Z</time></trkpt><trkpt lat="42.0581357990505" lon="13.612498712215446"><ele>765.0</ele><time>2026-04-19T15:43:53Z</time></trkpt><trkpt lat="42.058274232823884" lon="13.612581682814625"><ele>765.0</ele><time>2026-04-19T15:43:54Z</time></trkpt><trkpt lat="42.05839887837814" lon="13.612703114092566"><ele>765.0</ele><time>2026-04-19T15:43:55Z</time></trkpt><trkpt lat="42.05854209835539" lon="13.61281983090029"><ele>765.0</ele><time>2026-04-19T15:43:56Z</time></trkpt><trkpt lat="42.05867503890867" lon="13.612971317989258"><ele>765.0</ele><time>2026-04-19T15:43:57Z</time></trkpt><trkpt lat="42.0588114753147" lon="13.613107440374861"><ele>765.0</ele><time>2026-04-19T15:43:58Z</time></trkpt><trkpt lat="42.05893795714913" lon="13.613233621983843"><ele>765.0</ele><time>2026-04-19T15:43:59Z</time></trkpt><trkpt lat="42.059042577815255" lon="13.613331653989496"><ele>764.0</ele><time>2026-04-19T15:44:00Z</time></trkpt><trkpt lat="42.05913731625813" lon="13.613407592059819"><ele>763.0</ele><time>2026-04-19T15:44:01Z</time></trkpt><trkpt lat="42.05924700496145" lon="13.613451020564465"><ele>762.0</ele><time>2026-04-19T15:44:02Z</time></trkpt><trkpt lat="42.059356571443125" lon="13.613441868016034"><ele>761.0</ele><time>2026-04-19T15:44:03Z</time></trkpt><trkpt lat="42.0594529028427" lon="13.613386826421914"><ele>760.0</ele><time>2026-04-19T15:44:04Z</time></trkpt><trkpt lat="42.059534550514606" lon="13.61326621557758"><ele>760.0</ele><time>2026-04-19T15:44:05Z</time></trkpt><trkpt lat="42.05958717267568" lon="13.61311614420921"><ele>760.0</ele><time>2026-04-19T15:44:06Z</time></trkpt><trkpt lat="42.05957902864887" lon="13.612927631954157"><ele>760.0</ele><time>2026-04-19T15:44:07Z</time></trkpt><trkpt lat="42.05953627807854" lon="13.612734982966092"><ele>760.0</ele><time>2026-04-19T15:44:08Z</time></trkpt><trkpt lat="42.0594674284985" lon="13.612541093077219"><ele>758.6666666666667</ele><time>2026-04-19T15:44:09Z</time></trkpt><trkpt lat="42.059398801765376" lon="13.612331898941493"><ele>757.3333333333334</ele><time>2026-04-19T15:44:10Z</time></trkpt><trkpt lat="42.05933735534205" lon="13.612114051808167"><ele>756.0</ele><time>2026-04-19T15:44:11Z</time></trkpt><trkpt lat="42.05926918443241" lon="13.611893850383973"><ele>755.6666666666666</ele><time>2026-04-19T15:44:12Z</time></trkpt><trkpt lat="42.05919086979551" lon="13.611688106888444"><ele>755.3333333333333</ele><time>2026-04-19T15:44:13Z</time></trkpt><trkpt lat="42.0590784261288" lon="13.611506689433469"><ele>755.0</ele><time>2026-04-19T15:44:14Z</time></trkpt><trkpt lat="42.05894937600038" lon="13.611319148679152"><ele>753.6666666666666</ele><time>2026-04-19T15:44:15Z</time></trkpt><trkpt lat="42.05881547121819" lon="13.611124371034064"><ele>752.3333333333334</ele><time>2026-04-19T15:44:16Z</time></trkpt><trkpt lat="42.058681739425914" lon="13.610918064949203"><ele>751.0</ele><time>2026-04-19T15:44:17Z</time></trkpt><trkpt lat="42.0585491394207" lon="13.610709459160159"><ele>751.0</ele><time>2026-04-19T15:44:18Z</time></trkpt><trkpt lat="42.05841548159115" lon="13.610504895481624"><ele>751.0</ele><time>2026-04-19T15:44:19Z</time></trkpt><trkpt lat="42.058269534122715" lon="13.61030750054854"><ele>751.0</ele><time>2026-04-19T15:44:20Z</time></trkpt><trkpt lat="42.05811562567972" lon="13.61013496851771"><ele>750.0</ele><time>2026-04-19T15:44:21Z</time></trkpt><trkpt lat="42.057964782760585" lon="13.609955828839164"><ele>749.0</ele><time>2026-04-19T15:44:22Z</time></trkpt><trkpt lat="42.05781258816638" lon="13.609776879218936"><ele>748.0</ele><time>2026-04-19T15:44:23Z</time></trkpt><trkpt lat="42.05765815563461" lon="13.609589951238915"><ele>749.6666666666667</ele><time>2026-04-19T15:44:24Z</time></trkpt><trkpt lat="42.05749858981188" lon="13.60941522450057"><ele>751.3333333333334</ele><time>2026-04-19T15:44:25Z</time></trkpt><trkpt lat="42.05734378587831" lon="13.609224158115685"><ele>753.0</ele><time>2026-04-19T15:44:26Z</time></trkpt><trkpt lat="42.05718834651653" lon="13.60903625474069"><ele>752.0</ele><time>2026-04-19T15:44:27Z</time></trkpt><trkpt lat="42.0570320543803" lon="13.608847065563774"><ele>751.0</ele><time>2026-04-19T15:44:28Z</time></trkpt><trkpt lat="42.05687468703945" lon="13.60865718780346"><ele>750.0</ele><time>2026-04-19T15:44:29Z</time></trkpt><trkpt lat="42.05671301777004" lon="13.60847149271703"><ele>747.6666666666666</ele><time>2026-04-19T15:44:30Z</time></trkpt><trkpt lat="42.056552968493996" lon="13.608282588848917"><ele>745.3333333333333</ele><time>2026-04-19T15:44:31Z</time></trkpt><trkpt lat="42.05639351196627" lon="13.608091633133043"><ele>743.0</ele><time>2026-04-19T15:44:32Z</time></trkpt><trkpt lat="42.056236619094676" lon="13.60790418714433"><ele>744.3333333333333</ele><time>2026-04-19T15:44:33Z</time></trkpt><trkpt lat="42.05608759575451" lon="13.607728291633393"><ele>745.6666666666666</ele><time>2026-04-19T15:44:34Z</time></trkpt><trkpt lat="42.05594268761915" lon="13.607558585525148"><ele>747.0</ele><time>2026-04-19T15:44:35Z</time></trkpt><trkpt lat="42.05580090558194" lon="13.607397998387993"><ele>745.0</ele><time>2026-04-19T15:44:36Z</time></trkpt><trkpt lat="42.05566419582136" lon="13.60725566722256"><ele>743.0</ele><time>2026-04-19T15:44:37Z</time></trkpt><trkpt lat="42.055530300922065" lon="13.607127028357654"><ele>741.0</ele><time>2026-04-19T15:44:38Z</time></trkpt><trkpt lat="42.05540891017406" lon="13.607019760939457"><ele>741.0</ele><time>2026-04-19T15:44:39Z</time></trkpt><trkpt lat="42.05530515863784" lon="13.606909709537941"><ele>741.0</ele><time>2026-04-19T15:44:40Z</time></trkpt><trkpt lat="42.055239208575486" lon="13.606787188742336"><ele>741.0</ele><time>2026-04-19T15:44:41Z</time></trkpt><trkpt lat="42.05520882541147" lon="13.60663975625029"><ele>741.0</ele><time>2026-04-19T15:44:42Z</time></trkpt><trkpt lat="42.055216148235466" lon="13.606469412056052"><ele>741.0</ele><time>2026-04-19T15:44:43Z</time></trkpt><trkpt lat="42.05525562690349" lon="13.606284800138251"><ele>741.0</ele><time>2026-04-19T15:44:44Z</time></trkpt><trkpt lat="42.055315511997264" lon="13.606098741686223"><ele>741.0</ele><time>2026-04-19T15:44:45Z</time></trkpt><trkpt lat="42.055385373406246" lon="13.605911522120152"><ele>741.0</ele><time>2026-04-19T15:44:46Z</time></trkpt><trkpt lat="42.05547116145281" lon="13.605728641242523"><ele>740.6666666666666</ele><time>2026-04-19T15:44:47Z</time></trkpt><trkpt lat="42.05556778003334" lon="13.605546434607236"><ele>740.3333333333333</ele><time>2026-04-19T15:44:48Z</time></trkpt><trkpt lat="42.055673147019846" lon="13.605363762983007"><ele>740.0</ele><time>2026-04-19T15:44:49Z</time></trkpt><trkpt lat="42.055779691891516" lon="13.605173474632373"><ele>740.3333333333333</ele><time>2026-04-19T15:44:50Z</time></trkpt><trkpt lat="42.055890704479616" lon="13.604977343296875"><ele>740.6666666666666</ele><time>2026-04-19T15:44:51Z</time></trkpt><trkpt lat="42.055997446464914" lon="13.604781712711581"><ele>741.0</ele><time>2026-04-19T15:44:52Z</time></trkpt><trkpt lat="42.056101364857646" lon="13.604595751938259"><ele>739.6666666666666</ele><time>2026-04-19T15:44:53Z</time></trkpt><trkpt lat="42.05620422222434" lon="13.604414307651467"><ele>738.3333333333333</ele><time>2026-04-19T15:44:54Z</time></trkpt><trkpt lat="42.05630570796035" lon="13.604224586823648"><ele>737.0</ele><time>2026-04-19T15:44:55Z</time></trkpt><trkpt lat="42.05640936832073" lon="13.6040431157979"><ele>737.0</ele><time>2026-04-19T15:44:56Z</time></trkpt><trkpt lat="42.0565067671827" lon="13.603862626724784"><ele>737.0</ele><time>2026-04-19T15:44:57Z</time></trkpt><trkpt lat="42.05660245494557" lon="13.603684533088618"><ele>737.0</ele><time>2026-04-19T15:44:58Z</time></trkpt><trkpt lat="42.05668850347148" lon="13.603533227120959"><ele>737.5</ele><time>2026-04-19T15:44:59Z</time></trkpt><trkpt lat="42.05676928530746" lon="13.6033838503027"><ele>738.0</ele><time>2026-04-19T15:45:00Z</time></trkpt><trkpt lat="42.05684307848881" lon="13.603245809946522"><ele>738.5</ele><time>2026-04-19T15:45:01Z</time></trkpt><trkpt lat="42.056915860300705" lon="13.603117639638622"><ele>739.0</ele><time>2026-04-19T15:45:02Z</time></trkpt><trkpt lat="42.0569842802196" lon="13.602986515080302"><ele>739.0</ele><time>2026-04-19T15:45:03Z</time></trkpt><trkpt lat="42.057030583052395" lon="13.602840001180905"><ele>739.0</ele><time>2026-04-19T15:45:04Z</time></trkpt><trkpt lat="42.057047261877564" lon="13.602678211665761"><ele>739.0</ele><time>2026-04-19T15:45:05Z</time></trkpt><trkpt lat="42.05704235302101" lon="13.602510354103998"><ele>739.0</ele><time>2026-04-19T15:45:06Z</time></trkpt><trkpt lat="42.05702669467247" lon="13.602341550655034"><ele>737.75</ele><time>2026-04-19T15:45:07Z</time></trkpt><trkpt lat="42.05700197584923" lon="13.60216224783547"><ele>736.5</ele><time>2026-04-19T15:45:08Z</time></trkpt><trkpt lat="42.05697378914626" lon="13.601964493147467"><ele>735.25</ele><time>2026-04-19T15:45:09Z</time></trkpt><trkpt lat="42.056949181463395" lon="13.601754641700275"><ele>734.0</ele><time>2026-04-19T15:45:10Z</time></trkpt><trkpt lat="42.056925693157204" lon="13.60153152528014"><ele>733.3333333333333</ele><time>2026-04-19T15:45:10.999Z</time></trkpt><trkpt lat="42.056902767417384" lon="13.601297945359162"><ele>732.6666666666666</ele><time>2026-04-19T15:45:11.999Z</time></trkpt><trkpt lat="42.056875859274726" lon="13.601049959512453"><ele>732.0</ele><time>2026-04-19T15:45:12.999Z</time></trkpt><trkpt lat="42.0568476563398" lon="13.600790964732813"><ele>731.3333333333334</ele><time>2026-04-19T15:45:13.999Z</time></trkpt><trkpt lat="42.05681755505128" lon="13.600517656133375"><ele>730.6666666666667</ele><time>2026-04-19T15:45:14.999Z</time></trkpt><trkpt lat="42.05678530292656" lon="13.600236299123004"><ele>730.0</ele><time>2026-04-19T15:45:15.999Z</time></trkpt><trkpt lat="42.056753961755334" lon="13.599943137805852"><ele>729.5</ele><time>2026-04-19T15:45:16.999Z</time></trkpt><trkpt lat="42.05672276659568" lon="13.599642645127307"><ele>729.0</ele><time>2026-04-19T15:45:17.999Z</time></trkpt><trkpt lat="42.05668883320545" lon="13.599334689804007"><ele>727.0</ele><time>2026-04-19T15:45:18.999Z</time></trkpt><trkpt lat="42.05665844898565" lon="13.599016681576321"><ele>725.0</ele><time>2026-04-19T15:45:19.999Z</time></trkpt><trkpt lat="42.05661912314096" lon="13.59869741713491"><ele>724.0</ele><time>2026-04-19T15:45:20.999Z</time></trkpt><trkpt lat="42.05658299690267" lon="13.598367418383006"><ele>723.0</ele><time>2026-04-19T15:45:21.999Z</time></trkpt><trkpt lat="42.05654808955624" lon="13.59803321055182"><ele>722.0</ele><time>2026-04-19T15:45:22.999Z</time></trkpt><trkpt lat="42.0565131941398" lon="13.5977001540825"><ele>721.0</ele><time>2026-04-19T15:45:23.999Z</time></trkpt><trkpt lat="42.056475609588304" lon="13.59735505613974"><ele>721.0</ele><time>2026-04-19T15:45:24.999Z</time></trkpt><trkpt lat="42.056436152108354" lon="13.597012420563388"><ele>721.0</ele><time>2026-04-19T15:45:25.999Z</time></trkpt><trkpt lat="42.05640009783879" lon="13.596665772931772"><ele>721.0</ele><time>2026-04-19T15:45:26.999Z</time></trkpt><trkpt lat="42.05636468008981" lon="13.596319055657045"><ele>721.0</ele><time>2026-04-19T15:45:27.999Z</time></trkpt><trkpt lat="42.05632938468152" lon="13.595975907986906"><ele>721.0</ele><time>2026-04-19T15:45:28.999Z</time></trkpt><trkpt lat="42.056293367977595" lon="13.595635062462836"><ele>721.0</ele><time>2026-04-19T15:45:29.999Z</time></trkpt><trkpt lat="42.0562576557825" lon="13.59530183261507"><ele>720.5</ele><time>2026-04-19T15:45:30.999Z</time></trkpt><trkpt lat="42.05622207839489" lon="13.59497608172327"><ele>720.0</ele><time>2026-04-19T15:45:31.999Z</time></trkpt><trkpt lat="42.05618885432158" lon="13.594660695985828"><ele>720.0</ele><time>2026-04-19T15:45:32.999Z</time></trkpt><trkpt lat="42.056158754217975" lon="13.594348625662885"><ele>720.0</ele><time>2026-04-19T15:45:33.999Z</time></trkpt><trkpt lat="42.056133164057734" lon="13.594041385585973"><ele>720.0</ele><time>2026-04-19T15:45:34.999Z</time></trkpt><trkpt lat="42.056114210262805" lon="13.593738033051933"><ele>720.0</ele><time>2026-04-19T15:45:35.999Z</time></trkpt><trkpt lat="42.05609818382631" lon="13.593438948149764"><ele>720.0</ele><time>2026-04-19T15:45:36.999Z</time></trkpt><trkpt lat="42.056087972798345" lon="13.593140946309052"><ele>719.0</ele><time>2026-04-19T15:45:37.999Z</time></trkpt><trkpt lat="42.056084970275414" lon="13.592838138280582"><ele>718.0</ele><time>2026-04-19T15:45:38.999Z</time></trkpt><trkpt lat="42.05609222614107" lon="13.592533465536983"><ele>718.0</ele><time>2026-04-19T15:45:39.999Z</time></trkpt><trkpt lat="42.056109346574296" lon="13.592226922549928"><ele>718.0</ele><time>2026-04-19T15:45:40.999Z</time></trkpt><trkpt lat="42.056128857854446" lon="13.591919956518144"><ele>717.0</ele><time>2026-04-19T15:45:41.999Z</time></trkpt><trkpt lat="42.05614891196" lon="13.591610708595756"><ele>716.0</ele><time>2026-04-19T15:45:42.999Z</time></trkpt><trkpt lat="42.05616744623693" lon="13.591297379688061"><ele>716.0</ele><time>2026-04-19T15:45:44Z</time></trkpt><trkpt lat="42.056185933067866" lon="13.590983838387315"><ele>716.0</ele><time>2026-04-19T15:45:45Z</time></trkpt><trkpt lat="42.05620343412784" lon="13.59067341752308"><ele>716.0</ele><time>2026-04-19T15:45:46Z</time></trkpt><trkpt lat="42.05622179809621" lon="13.590369925555702"><ele>716.0</ele><time>2026-04-19T15:45:47Z</time></trkpt><trkpt lat="42.056240063437066" lon="13.590069979170428"><ele>715.0</ele><time>2026-04-19T15:45:48Z</time></trkpt><trkpt lat="42.05625812688306" lon="13.58976916377421"><ele>714.0</ele><time>2026-04-19T15:45:49Z</time></trkpt><trkpt lat="42.05627423018284" lon="13.589463872129974"><ele>714.0</ele><time>2026-04-19T15:45:50Z</time></trkpt><trkpt lat="42.05629092471279" lon="13.589153888746221"><ele>714.0</ele><time>2026-04-19T15:45:51Z</time></trkpt><trkpt lat="42.05630795652445" lon="13.588843731764388"><ele>713.0</ele><time>2026-04-19T15:45:52Z</time></trkpt><trkpt lat="42.05632555617377" lon="13.588529300164392"><ele>712.0</ele><time>2026-04-19T15:45:53Z</time></trkpt><trkpt lat="42.05634438201523" lon="13.58821380827947"><ele>712.0</ele><time>2026-04-19T15:45:54Z</time></trkpt><trkpt lat="42.056361992457866" lon="13.58789828311738"><ele>712.0</ele><time>2026-04-19T15:45:55Z</time></trkpt><trkpt lat="42.05638012702695" lon="13.587589692994763"><ele>711.3333333333334</ele><time>2026-04-19T15:45:56Z</time></trkpt><trkpt lat="42.056397883507415" lon="13.587286321980852"><ele>710.6666666666666</ele><time>2026-04-19T15:45:57Z</time></trkpt><trkpt lat="42.056415189427135" lon="13.586986389398264"><ele>710.0</ele><time>2026-04-19T15:45:58Z</time></trkpt><trkpt lat="42.056433469128585" lon="13.586691114569401"><ele>709.0</ele><time>2026-04-19T15:45:59Z</time></trkpt><trkpt lat="42.05645073183367" lon="13.586398888412868"><ele>708.0</ele><time>2026-04-19T15:46:00Z</time></trkpt><trkpt lat="42.05646707408319" lon="13.586111463734975"><ele>707.0</ele><time>2026-04-19T15:46:01Z</time></trkpt><trkpt lat="42.05648412003961" lon="13.585830941724689"><ele>706.0</ele><time>2026-04-19T15:46:02Z</time></trkpt><trkpt lat="42.056500077706666" lon="13.585565054723196"><ele>705.0</ele><time>2026-04-19T15:46:03Z</time></trkpt><trkpt lat="42.056521860889255" lon="13.585307475720825"><ele>704.0</ele><time>2026-04-19T15:46:04Z</time></trkpt><trkpt lat="42.056542215951765" lon="13.585066074331365"><ele>703.3333333333333</ele><time>2026-04-19T15:46:05Z</time></trkpt><trkpt lat="42.05655416949825" lon="13.584810175079273"><ele>702.6666666666666</ele><time>2026-04-19T15:46:06Z</time></trkpt><trkpt lat="42.056565639047726" lon="13.584581276185123"><ele>702.0</ele><time>2026-04-19T15:46:07Z</time></trkpt><trkpt lat="42.056565335685406" lon="13.584347865690669"><ele>700.6666666666666</ele><time>2026-04-19T15:46:08Z</time></trkpt><trkpt lat="42.05653678082389" lon="13.584119613790582"><ele>699.3333333333333</ele><time>2026-04-19T15:46:09Z</time></trkpt><trkpt lat="42.056485749588134" lon="13.583888621809464"><ele>698.0</ele><time>2026-04-19T15:46:10Z</time></trkpt><trkpt lat="42.05641563898408" lon="13.583656460851696"><ele>697.3333333333333</ele><time>2026-04-19T15:46:11Z</time></trkpt><trkpt lat="42.056324714884816" lon="13.583431868325047"><ele>696.6666666666666</ele><time>2026-04-19T15:46:12Z</time></trkpt><trkpt lat="42.05623686417919" lon="13.583209923598393"><ele>696.0</ele><time>2026-04-19T15:46:13Z</time></trkpt><trkpt lat="42.05616717393181" lon="13.583001556956457"><ele>695.75</ele><time>2026-04-19T15:46:14Z</time></trkpt><trkpt lat="42.056111986246286" lon="13.582800495860695"><ele>695.5</ele><time>2026-04-19T15:46:15Z</time></trkpt><trkpt lat="42.0560688069917" lon="13.582611917625359"><ele>695.25</ele><time>2026-04-19T15:46:16Z</time></trkpt><trkpt lat="42.05604138162976" lon="13.582427383181292"><ele>695.0</ele><time>2026-04-19T15:46:17Z</time></trkpt><trkpt lat="42.056033371562926" lon="13.582250510413438"><ele>695.0</ele><time>2026-04-19T15:46:18Z</time></trkpt><trkpt lat="42.0560568108812" lon="13.582078860936885"><ele>695.0</ele><time>2026-04-19T15:46:19Z</time></trkpt><trkpt lat="42.05605024873194" lon="13.58191646598739"><ele>695.0</ele><time>2026-04-19T15:46:20Z</time></trkpt><trkpt lat="42.05606650652206" lon="13.581774955300867"><ele>695.0</ele><time>2026-04-19T15:46:21Z</time></trkpt><trkpt lat="42.05609483747199" lon="13.581645604039892"><ele>694.4</ele><time>2026-04-19T15:46:22Z</time></trkpt><trkpt lat="42.05614397771173" lon="13.581531671172028"><ele>693.8</ele><time>2026-04-19T15:46:23Z</time></trkpt><trkpt lat="42.056223860764845" lon="13.581444876824765"><ele>693.2</ele><time>2026-04-19T15:46:24Z</time></trkpt><trkpt lat="42.05629398586717" lon="13.5813583709747"><ele>692.6</ele><time>2026-04-19T15:46:25Z</time></trkpt><trkpt lat="42.05633424742174" lon="13.581246850835438"><ele>692.0</ele><time>2026-04-19T15:46:26Z</time></trkpt><trkpt lat="42.05633911233197" lon="13.581115659066242"><ele>691.25</ele><time>2026-04-19T15:46:27Z</time></trkpt><trkpt lat="42.056315996774785" lon="13.580972219868475"><ele>690.5</ele><time>2026-04-19T15:46:28Z</time></trkpt><trkpt lat="42.05624047458982" lon="13.580890306018393"><ele>689.75</ele><time>2026-04-19T15:46:29Z</time></trkpt><trkpt lat="42.05634584214881" lon="13.580726348569433"><ele>689.0</ele><time>2026-04-19T15:46:30Z</time></trkpt><trkpt lat="42.05640129985978" lon="13.58061067976651"><ele>689.0</ele><time>2026-04-19T15:46:31Z</time></trkpt><trkpt lat="42.05645802928823" lon="13.580492357418763"><ele>689.0</ele><time>2026-04-19T15:46:32Z</time></trkpt><trkpt lat="42.0565125680029" lon="13.580355970244321"><ele>689.0</ele><time>2026-04-19T15:46:33Z</time></trkpt><trkpt lat="42.056578132858874" lon="13.580226944358165"><ele>689.0</ele><time>2026-04-19T15:46:34Z</time></trkpt><trkpt lat="42.05664144802385" lon="13.58009150159351"><ele>689.0</ele><time>2026-04-19T15:46:35Z</time></trkpt><trkpt lat="42.056706114268415" lon="13.57995145392099"><ele>689.0</ele><time>2026-04-19T15:46:36Z</time></trkpt><trkpt lat="42.056767510821835" lon="13.579798272233036"><ele>689.0</ele><time>2026-04-19T15:46:37Z</time></trkpt><trkpt lat="42.05682285320805" lon="13.57963195923948"><ele>689.0</ele><time>2026-04-19T15:46:38Z</time></trkpt><trkpt lat="42.05686543699955" lon="13.579455124229002"><ele>689.0</ele><time>2026-04-19T15:46:39Z</time></trkpt><trkpt lat="42.05688954205348" lon="13.579268581968796"><ele>689.0</ele><time>2026-04-19T15:46:40Z</time></trkpt><trkpt lat="42.05689551614224" lon="13.579077579985695"><ele>689.0</ele><time>2026-04-19T15:46:41Z</time></trkpt><trkpt lat="42.05690569917784" lon="13.578883196024854"><ele>689.0</ele><time>2026-04-19T15:46:42Z</time></trkpt><trkpt lat="42.05692329204004" lon="13.57868732911746"><ele>688.5</ele><time>2026-04-19T15:46:43Z</time></trkpt><trkpt lat="42.056933115902645" lon="13.57849008152835"><ele>688.0</ele><time>2026-04-19T15:46:44Z</time></trkpt><trkpt lat="42.05694853742497" lon="13.578298218243443"><ele>687.5</ele><time>2026-04-19T15:46:45Z</time></trkpt><trkpt lat="42.05695786953215" lon="13.578101901212138"><ele>687.0</ele><time>2026-04-19T15:46:46Z</time></trkpt><trkpt lat="42.05696573477811" lon="13.577908231600922"><ele>687.0</ele><time>2026-04-19T15:46:47Z</time></trkpt><trkpt lat="42.05697630023914" lon="13.577710914876748"><ele>687.0</ele><time>2026-04-19T15:46:48Z</time></trkpt><trkpt lat="42.0569867530222" lon="13.5775163668955"><ele>687.0</ele><time>2026-04-19T15:46:49Z</time></trkpt><trkpt lat="42.05699643401832" lon="13.577320248100541"><ele>687.0</ele><time>2026-04-19T15:46:50Z</time></trkpt><trkpt lat="42.05700245890986" lon="13.577120792960292"><ele>687.0</ele><time>2026-04-19T15:46:51Z</time></trkpt><trkpt lat="42.057015620608475" lon="13.576919295822838"><ele>687.0</ele><time>2026-04-19T15:46:52Z</time></trkpt><trkpt lat="42.05702984901771" lon="13.576712667616759"><ele>687.0</ele><time>2026-04-19T15:46:53Z</time></trkpt><trkpt lat="42.05704665345265" lon="13.576520759221228"><ele>687.0</ele><time>2026-04-19T15:46:54Z</time></trkpt><trkpt lat="42.05706132133813" lon="13.576326855947782"><ele>686.75</ele><time>2026-04-19T15:46:55Z</time></trkpt><trkpt lat="42.0570692967247" lon="13.576133589184707"><ele>686.5</ele><time>2026-04-19T15:46:56Z</time></trkpt><trkpt lat="42.05707916553439" lon="13.575945049483847"><ele>686.25</ele><time>2026-04-19T15:46:57Z</time></trkpt><trkpt lat="42.057089546074344" lon="13.575757533540136"><ele>686.0</ele><time>2026-04-19T15:46:58Z</time></trkpt><trkpt lat="42.05709893543085" lon="13.575568372521522"><ele>686.0</ele><time>2026-04-19T15:46:59Z</time></trkpt><trkpt lat="42.057107817614344" lon="13.575373715411194"><ele>686.0</ele><time>2026-04-19T15:47:00Z</time></trkpt><trkpt lat="42.05711829796315" lon="13.575175102006412"><ele>686.0</ele><time>2026-04-19T15:47:01Z</time></trkpt><trkpt lat="42.05713108439802" lon="13.574965942973279"><ele>686.0</ele><time>2026-04-19T15:47:02Z</time></trkpt><trkpt lat="42.05714588084706" lon="13.574760184504393"><ele>686.3333333333333</ele><time>2026-04-19T15:47:03Z</time></trkpt><trkpt lat="42.05715949218606" lon="13.574550278918942"><ele>686.6666666666666</ele><time>2026-04-19T15:47:04Z</time></trkpt><trkpt lat="42.057173319676444" lon="13.57433413300874"><ele>687.0</ele><time>2026-04-19T15:47:05Z</time></trkpt><trkpt lat="42.05718975376826" lon="13.574110089976797"><ele>687.0</ele><time>2026-04-19T15:47:06Z</time></trkpt><trkpt lat="42.05720748607914" lon="13.573879089805324"><ele>687.0</ele><time>2026-04-19T15:47:07Z</time></trkpt><trkpt lat="42.05722630486301" lon="13.573642578971233"><ele>687.0</ele><time>2026-04-19T15:47:08Z</time></trkpt><trkpt lat="42.05724094014113" lon="13.573395987578031"><ele>687.0</ele><time>2026-04-19T15:47:09Z</time></trkpt><trkpt lat="42.05725272492547" lon="13.57314343856069"><ele>687.0</ele><time>2026-04-19T15:47:10Z</time></trkpt><trkpt lat="42.057266154075464" lon="13.572881122408246"><ele>687.0</ele><time>2026-04-19T15:47:11Z</time></trkpt><trkpt lat="42.05728150487884" lon="13.57262782900879"><ele>685.6666666666666</ele><time>2026-04-19T15:47:12Z</time></trkpt><trkpt lat="42.05729406782238" lon="13.572395680249992"><ele>684.3333333333333</ele><time>2026-04-19T15:47:13Z</time></trkpt><trkpt lat="42.05730650187351" lon="13.572181342176377"><ele>683.0</ele><time>2026-04-19T15:47:14Z</time></trkpt><trkpt lat="42.0573193216755" lon="13.571973126851287"><ele>682.6666666666666</ele><time>2026-04-19T15:47:14.999Z</time></trkpt><trkpt lat="42.05733203049611" lon="13.571763141472664"><ele>682.3333333333334</ele><time>2026-04-19T15:47:15.999Z</time></trkpt><trkpt lat="42.05733986633827" lon="13.571555148075314"><ele>682.0</ele><time>2026-04-19T15:47:16.999Z</time></trkpt><trkpt lat="42.05735060450699" lon="13.571349921167515"><ele>682.5</ele><time>2026-04-19T15:47:17.999Z</time></trkpt><trkpt lat="42.05736113143" lon="13.57115006011629"><ele>683.0</ele><time>2026-04-19T15:47:18.999Z</time></trkpt><trkpt lat="42.057374251834474" lon="13.570960295599416"><ele>683.5</ele><time>2026-04-19T15:47:19.999Z</time></trkpt><trkpt lat="42.0573855381517" lon="13.570769792795067"><ele>684.0</ele><time>2026-04-19T15:47:20.999Z</time></trkpt><trkpt lat="42.0573961423361" lon="13.570582343420119"><ele>684.0</ele><time>2026-04-19T15:47:21.999Z</time></trkpt><trkpt lat="42.05740725575007" lon="13.570394142101167"><ele>684.0</ele><time>2026-04-19T15:47:22.999Z</time></trkpt><trkpt lat="42.0574179853019" lon="13.570206540467323"><ele>684.0</ele><time>2026-04-19T15:47:23.999Z</time></trkpt><trkpt lat="42.05742798966182" lon="13.570014151844985"><ele>684.0</ele><time>2026-04-19T15:47:24.999Z</time></trkpt><trkpt lat="42.05743922408992" lon="13.569818778842098"><ele>684.3333333333334</ele><time>2026-04-19T15:47:25.999Z</time></trkpt><trkpt lat="42.057452731267986" lon="13.569615238045367"><ele>684.6666666666667</ele><time>2026-04-19T15:47:26.999Z</time></trkpt><trkpt lat="42.05746313577264" lon="13.569407353888701"><ele>685.0</ele><time>2026-04-19T15:47:27.999Z</time></trkpt><trkpt lat="42.057473121277255" lon="13.569191787023497"><ele>686.0</ele><time>2026-04-19T15:47:28.999Z</time></trkpt><trkpt lat="42.057487645882745" lon="13.568971229803044"><ele>687.0</ele><time>2026-04-19T15:47:29.999Z</time></trkpt><trkpt lat="42.05750064388172" lon="13.568761847354912"><ele>688.0</ele><time>2026-04-19T15:47:30.999Z</time></trkpt><trkpt lat="42.05751254380581" lon="13.568560001515136"><ele>688.0</ele><time>2026-04-19T15:47:31.999Z</time></trkpt><trkpt lat="42.05752710264664" lon="13.568372740068021"><ele>688.0</ele><time>2026-04-19T15:47:32.999Z</time></trkpt><trkpt lat="42.057534103176906" lon="13.568220582210087"><ele>688.0</ele><time>2026-04-19T15:47:33.999Z</time></trkpt><trkpt lat="42.057545710421714" lon="13.568073761129414"><ele>688.0</ele><time>2026-04-19T15:47:34.999Z</time></trkpt><trkpt lat="42.057554998368055" lon="13.567936292689803"><ele>688.1666666666667</ele><time>2026-04-19T15:47:35.999Z</time></trkpt><trkpt lat="42.05756744753363" lon="13.567825697703887"><ele>688.3333333333334</ele><time>2026-04-19T15:47:36.999Z</time></trkpt><trkpt lat="42.05757810625717" lon="13.567725492476775"><ele>688.5</ele><time>2026-04-19T15:47:37.999Z</time></trkpt><trkpt lat="42.05759421588306" lon="13.567630001576697"><ele>688.6666666666666</ele><time>2026-04-19T15:47:38.999Z</time></trkpt><trkpt lat="42.057615708894076" lon="13.5675386193434"><ele>688.8333333333333</ele><time>2026-04-19T15:47:39.999Z</time></trkpt><trkpt lat="42.05764204058406" lon="13.56745651152026"><ele>689.0</ele><time>2026-04-19T15:47:40.999Z</time></trkpt><trkpt lat="42.0576910855326" lon="13.567321566398876"><ele>689.0</ele><time>2026-04-19T15:47:42.999Z</time></trkpt><trkpt lat="42.05777174830956" lon="13.567242811956193"><ele>689.0</ele><time>2026-04-19T15:47:44.999Z</time></trkpt><trkpt lat="42.05785382910342" lon="13.56716964753967"><ele>689.0</ele><time>2026-04-19T15:47:46.999Z</time></trkpt><trkpt lat="42.05767404722071" lon="13.567009132197159"><ele>689.0</ele><time>2026-04-19T15:47:47.999Z</time></trkpt><trkpt lat="42.057680864730266" lon="13.566868919162715"><ele>689.0</ele><time>2026-04-19T15:47:50Z</time></trkpt><trkpt lat="42.057667008573894" lon="13.566692191370764"><ele>689.0</ele><time>2026-04-19T15:47:52Z</time></trkpt><trkpt lat="42.05764138664631" lon="13.566571277211148"><ele>689.0</ele><time>2026-04-19T15:47:53Z</time></trkpt><trkpt lat="42.05763163987057" lon="13.566440295355545"><ele>689.0</ele><time>2026-04-19T15:47:54Z</time></trkpt><trkpt lat="42.05763385589487" lon="13.566314569313006"><ele>689.0</ele><time>2026-04-19T15:47:55Z</time></trkpt><trkpt lat="42.05764689201515" lon="13.56618389063979"><ele>689.0</ele><time>2026-04-19T15:47:56Z</time></trkpt><trkpt lat="42.05765828891391" lon="13.56604578271323"><ele>689.0</ele><time>2026-04-19T15:47:57Z</time></trkpt><trkpt lat="42.057672311970485" lon="13.56590191791629"><ele>689.0</ele><time>2026-04-19T15:47:58Z</time></trkpt><trkpt lat="42.05768007005324" lon="13.56576012703075"><ele>689.0</ele><time>2026-04-19T15:47:59Z</time></trkpt><trkpt lat="42.057684037006446" lon="13.565607511171136"><ele>689.0</ele><time>2026-04-19T15:48:00Z</time></trkpt><trkpt lat="42.057690540797786" lon="13.565437239729588"><ele>689.3333333333333</ele><time>2026-04-19T15:48:01Z</time></trkpt><trkpt lat="42.05769662283931" lon="13.565261326377852"><ele>689.6666666666666</ele><time>2026-04-19T15:48:02Z</time></trkpt><trkpt lat="42.057706248661496" lon="13.565069447677068"><ele>690.0</ele><time>2026-04-19T15:48:03Z</time></trkpt><trkpt lat="42.05771965827271" lon="13.564829635027575"><ele>690.0</ele><time>2026-04-19T15:48:04Z</time></trkpt><trkpt lat="42.0577368855772" lon="13.564544057249869"><ele>690.0</ele><time>2026-04-19T15:48:05Z</time></trkpt><trkpt lat="42.057753691287566" lon="13.564214050092055"><ele>691.0</ele><time>2026-04-19T15:48:06Z</time></trkpt><trkpt lat="42.05776881316933" lon="13.56385078096727"><ele>692.0</ele><time>2026-04-19T15:48:07Z</time></trkpt><trkpt lat="42.05780598017402" lon="13.563463484228954"><ele>692.0</ele><time>2026-04-19T15:48:08Z</time></trkpt><trkpt lat="42.05782570562607" lon="13.563058568685797"><ele>692.0</ele><time>2026-04-19T15:48:09Z</time></trkpt><trkpt lat="42.057853755256296" lon="13.562690373007609"><ele>692.5</ele><time>2026-04-19T15:48:10Z</time></trkpt><trkpt lat="42.05787495124248" lon="13.56236064952789"><ele>693.0</ele><time>2026-04-19T15:48:11Z</time></trkpt><trkpt lat="42.057893783563344" lon="13.562046543614946"><ele>693.0</ele><time>2026-04-19T15:48:12Z</time></trkpt><trkpt lat="42.05791214170361" lon="13.561748884192088"><ele>693.0</ele><time>2026-04-19T15:48:13Z</time></trkpt><trkpt lat="42.057924378632045" lon="13.56145292537081"><ele>693.0</ele><time>2026-04-19T15:48:14Z</time></trkpt><trkpt lat="42.05793764896601" lon="13.561163223445677"><ele>693.0</ele><time>2026-04-19T15:48:15Z</time></trkpt><trkpt lat="42.05795326434067" lon="13.560880266375987"><ele>693.0</ele><time>2026-04-19T15:48:16Z</time></trkpt><trkpt lat="42.057972840648446" lon="13.560618243019182"><ele>693.0</ele><time>2026-04-19T15:48:17Z</time></trkpt><trkpt lat="42.05799635516776" lon="13.560381001152194"><ele>693.0</ele><time>2026-04-19T15:48:18Z</time></trkpt><trkpt lat="42.058025949795734" lon="13.560158428461179"><ele>693.0</ele><time>2026-04-19T15:48:19Z</time></trkpt><trkpt lat="42.058064429297495" lon="13.559959761499448"><ele>693.0</ele><time>2026-04-19T15:48:20Z</time></trkpt><trkpt lat="42.058107611803365" lon="13.559797357506696"><ele>693.0</ele><time>2026-04-19T15:48:21Z</time></trkpt><trkpt lat="42.05815023110432" lon="13.559674162466251"><ele>693.0</ele><time>2026-04-19T15:48:22Z</time></trkpt><trkpt lat="42.05820685527208" lon="13.559565605720449"><ele>693.0</ele><time>2026-04-19T15:48:23Z</time></trkpt><trkpt lat="42.058286712976816" lon="13.559471202564488"><ele>693.0</ele><time>2026-04-19T15:48:24Z</time></trkpt><trkpt lat="42.058377631226485" lon="13.559392851102354"><ele>693.0</ele><time>2026-04-19T15:48:25Z</time></trkpt><trkpt lat="42.05843961156708" lon="13.559295872625027"><ele>693.0</ele><time>2026-04-19T15:48:26Z</time></trkpt><trkpt lat="42.05845736817665" lon="13.559174134117566"><ele>693.0</ele><time>2026-04-19T15:48:27Z</time></trkpt><trkpt lat="42.05843807669014" lon="13.559042431723299"><ele>693.0</ele><time>2026-04-19T15:48:28Z</time></trkpt><trkpt lat="42.05837364777382" lon="13.558927283745223"><ele>693.0</ele><time>2026-04-19T15:48:29Z</time></trkpt><trkpt lat="42.05828143943397" lon="13.558818618512113"><ele>693.0</ele><time>2026-04-19T15:48:30Z</time></trkpt><trkpt lat="42.05819527912497" lon="13.558689889186818"><ele>693.3333333333334</ele><time>2026-04-19T15:48:31Z</time></trkpt><trkpt lat="42.058150428702056" lon="13.558515000156927"><ele>693.6666666666667</ele><time>2026-04-19T15:48:32Z</time></trkpt><trkpt lat="42.058135661386416" lon="13.558302358100228"><ele>694.0</ele><time>2026-04-19T15:48:33Z</time></trkpt><trkpt lat="42.05813650904153" lon="13.558066206951413"><ele>694.3333333333334</ele><time>2026-04-19T15:48:34Z</time></trkpt><trkpt lat="42.058137886965206" lon="13.55781873270537"><ele>694.6666666666666</ele><time>2026-04-19T15:48:35Z</time></trkpt><trkpt lat="42.058151545388675" lon="13.557553621571817"><ele>695.0</ele><time>2026-04-19T15:48:36Z</time></trkpt><trkpt lat="42.05816779811452" lon="13.557283515189033"><ele>695.3333333333333</ele><time>2026-04-19T15:48:37Z</time></trkpt><trkpt lat="42.05817869494253" lon="13.557002867696745"><ele>695.6666666666666</ele><time>2026-04-19T15:48:38Z</time></trkpt><trkpt lat="42.05819280171517" lon="13.556718492383705"><ele>696.0</ele><time>2026-04-19T15:48:39Z</time></trkpt><trkpt lat="42.05820916026038" lon="13.55642534765779"><ele>696.0</ele><time>2026-04-19T15:48:40Z</time></trkpt><trkpt lat="42.05823037755794" lon="13.556126453626776"><ele>696.0</ele><time>2026-04-19T15:48:41Z</time></trkpt><trkpt lat="42.05825911989445" lon="13.55581667526778"><ele>697.0</ele><time>2026-04-19T15:48:42Z</time></trkpt><trkpt lat="42.058297146807064" lon="13.555517664903574"><ele>698.0</ele><time>2026-04-19T15:48:43Z</time></trkpt><trkpt lat="42.05833443873408" lon="13.555212351780199"><ele>698.0</ele><time>2026-04-19T15:48:44Z</time></trkpt><trkpt lat="42.05837138902007" lon="13.554903870256929"><ele>698.0</ele><time>2026-04-19T15:48:45Z</time></trkpt><trkpt lat="42.05841712083765" lon="13.554587377564353"><ele>698.5</ele><time>2026-04-19T15:48:46Z</time></trkpt><trkpt lat="42.05846313853934" lon="13.554282475092373"><ele>699.0</ele><time>2026-04-19T15:48:47Z</time></trkpt><trkpt lat="42.05851267143013" lon="13.553973748979855"><ele>697.0</ele><time>2026-04-19T15:48:48Z</time></trkpt><trkpt lat="42.05856481478843" lon="13.553658944860553"><ele>695.0</ele><time>2026-04-19T15:48:49Z</time></trkpt><trkpt lat="42.05861467557531" lon="13.55334366030591"><ele>695.0</ele><time>2026-04-19T15:48:50Z</time></trkpt><trkpt lat="42.05866402106777" lon="13.553034268259196"><ele>695.0</ele><time>2026-04-19T15:48:51Z</time></trkpt><trkpt lat="42.0587141252278" lon="13.552724114895796"><ele>694.0</ele><time>2026-04-19T15:48:52Z</time></trkpt><trkpt lat="42.058767751151876" lon="13.55241398908537"><ele>693.0</ele><time>2026-04-19T15:48:53Z</time></trkpt><trkpt lat="42.058816023746616" lon="13.552096187553515"><ele>692.5</ele><time>2026-04-19T15:48:54Z</time></trkpt><trkpt lat="42.058866635649466" lon="13.551781304557597"><ele>692.0</ele><time>2026-04-19T15:48:55Z</time></trkpt><trkpt lat="42.05891603072442" lon="13.551465400929672"><ele>693.5</ele><time>2026-04-19T15:48:56Z</time></trkpt><trkpt lat="42.058970025650794" lon="13.551147301059057"><ele>695.0</ele><time>2026-04-19T15:48:57Z</time></trkpt><trkpt lat="42.05902138482052" lon="13.550833058965935"><ele>695.0</ele><time>2026-04-19T15:48:58Z</time></trkpt><trkpt lat="42.059072417538914" lon="13.5505203066151"><ele>695.0</ele><time>2026-04-19T15:48:59Z</time></trkpt><trkpt lat="42.05912359618101" lon="13.550206607270232"><ele>696.0</ele><time>2026-04-19T15:49:00Z</time></trkpt><trkpt lat="42.05917461707782" lon="13.549895125352254"><ele>697.0</ele><time>2026-04-19T15:49:01Z</time></trkpt><trkpt lat="42.059225919361275" lon="13.549585443321716"><ele>697.0</ele><time>2026-04-19T15:49:02Z</time></trkpt><trkpt lat="42.05927568999874" lon="13.549279676905682"><ele>697.0</ele><time>2026-04-19T15:49:03Z</time></trkpt><trkpt lat="42.05932558119546" lon="13.548972401698027"><ele>696.0</ele><time>2026-04-19T15:49:04Z</time></trkpt><trkpt lat="42.05937479963553" lon="13.54866938787404"><ele>695.0</ele><time>2026-04-19T15:49:05Z</time></trkpt><trkpt lat="42.059426433554265" lon="13.548362109037011"><ele>695.0</ele><time>2026-04-19T15:49:06Z</time></trkpt><trkpt lat="42.05947276058884" lon="13.548057239748188"><ele>695.0</ele><time>2026-04-19T15:49:07Z</time></trkpt><trkpt lat="42.059518387351886" lon="13.547770308245337"><ele>695.0</ele><time>2026-04-19T15:49:08Z</time></trkpt><trkpt lat="42.05956855988017" lon="13.54748353401444"><ele>695.0</ele><time>2026-04-19T15:49:09Z</time></trkpt><trkpt lat="42.05960966758929" lon="13.547217348150182"><ele>695.0</ele><time>2026-04-19T15:49:10Z</time></trkpt><trkpt lat="42.05965324729585" lon="13.54695062013442"><ele>695.0</ele><time>2026-04-19T15:49:11Z</time></trkpt><trkpt lat="42.05969198617228" lon="13.54669917022821"><ele>695.0</ele><time>2026-04-19T15:49:12Z</time></trkpt><trkpt lat="42.05973430961521" lon="13.54644631676918"><ele>695.0</ele><time>2026-04-19T15:49:13Z</time></trkpt><trkpt lat="42.05977464621925" lon="13.54619134223329"><ele>695.0</ele><time>2026-04-19T15:49:14Z</time></trkpt><trkpt lat="42.05981236901596" lon="13.545955313721594"><ele>695.3333333333333</ele><time>2026-04-19T15:49:15Z</time></trkpt><trkpt lat="42.05985115206439" lon="13.545735848368166"><ele>695.6666666666666</ele><time>2026-04-19T15:49:16Z</time></trkpt><trkpt lat="42.05988525197327" lon="13.545532427665478"><ele>696.0</ele><time>2026-04-19T15:49:17Z</time></trkpt><trkpt lat="42.059919749726284" lon="13.545337547722205"><ele>695.75</ele><time>2026-04-19T15:49:17.999Z</time></trkpt><trkpt lat="42.05994955865389" lon="13.545154179670282"><ele>695.5</ele><time>2026-04-19T15:49:18.999Z</time></trkpt><trkpt lat="42.05997819413092" lon="13.544978455140393"><ele>695.25</ele><time>2026-04-19T15:49:19.999Z</time></trkpt><trkpt lat="42.06000439683979" lon="13.544816645680607"><ele>695.0</ele><time>2026-04-19T15:49:20.999Z</time></trkpt><trkpt lat="42.06002753048551" lon="13.544659219219298"><ele>695.25</ele><time>2026-04-19T15:49:21.999Z</time></trkpt><trkpt lat="42.06005041097155" lon="13.544477493408404"><ele>695.5</ele><time>2026-04-19T15:49:22.999Z</time></trkpt><trkpt lat="42.06007882208764" lon="13.544294766146972"><ele>695.75</ele><time>2026-04-19T15:49:23.999Z</time></trkpt><trkpt lat="42.06010803885914" lon="13.544083989090018"><ele>696.0</ele><time>2026-04-19T15:49:24.999Z</time></trkpt><trkpt lat="42.06013878846306" lon="13.543833238684574"><ele>696.3333333333334</ele><time>2026-04-19T15:49:25.999Z</time></trkpt><trkpt lat="42.06017665276698" lon="13.543550601156058"><ele>696.6666666666667</ele><time>2026-04-19T15:49:26.999Z</time></trkpt><trkpt lat="42.06023095503664" lon="13.543244541933339"><ele>697.0</ele><time>2026-04-19T15:49:27.999Z</time></trkpt><trkpt lat="42.06028921742876" lon="13.542913008995232"><ele>696.5</ele><time>2026-04-19T15:49:28.999Z</time></trkpt><trkpt lat="42.060347634885474" lon="13.542562942038144"><ele>696.0</ele><time>2026-04-19T15:49:29.999Z</time></trkpt><trkpt lat="42.060403519971864" lon="13.542216960904769"><ele>696.0</ele><time>2026-04-19T15:49:30.999Z</time></trkpt><trkpt lat="42.06045049224664" lon="13.541914880459776"><ele>696.0</ele><time>2026-04-19T15:49:31.999Z</time></trkpt><trkpt lat="42.06050401605056" lon="13.541627374472581"><ele>696.0</ele><time>2026-04-19T15:49:32.999Z</time></trkpt><trkpt lat="42.060562154322234" lon="13.541352785088602"><ele>695.3333333333334</ele><time>2026-04-19T15:49:33.999Z</time></trkpt><trkpt lat="42.06060647606492" lon="13.541079699818638"><ele>694.6666666666667</ele><time>2026-04-19T15:49:34.999Z</time></trkpt><trkpt lat="42.060645687963344" lon="13.540816702493194"><ele>694.0</ele><time>2026-04-19T15:49:35.999Z</time></trkpt><trkpt lat="42.060685574097086" lon="13.540559898508722"><ele>693.6666666666667</ele><time>2026-04-19T15:49:36.999Z</time></trkpt><trkpt lat="42.06072498410902" lon="13.54031332156382"><ele>693.3333333333334</ele><time>2026-04-19T15:49:37.999Z</time></trkpt><trkpt lat="42.060766653161465" lon="13.540078615431241"><ele>693.0</ele><time>2026-04-19T15:49:38.999Z</time></trkpt><trkpt lat="42.0608043011599" lon="13.539842794689562"><ele>693.6666666666666</ele><time>2026-04-19T15:49:39.999Z</time></trkpt><trkpt lat="42.0608431827329" lon="13.539608589240583"><ele>694.3333333333333</ele><time>2026-04-19T15:49:40.999Z</time></trkpt><trkpt lat="42.060881377207416" lon="13.5393611552784"><ele>695.0</ele><time>2026-04-19T15:49:41.999Z</time></trkpt><trkpt lat="42.06092290260549" lon="13.539118870242316"><ele>695.0</ele><time>2026-04-19T15:49:42.999Z</time></trkpt><trkpt lat="42.060960746622456" lon="13.538895406413411"><ele>695.0</ele><time>2026-04-19T15:49:43.999Z</time></trkpt><trkpt lat="42.06099361213119" lon="13.538685767677542"><ele>695.0</ele><time>2026-04-19T15:49:44.999Z</time></trkpt><trkpt lat="42.06102731115249" lon="13.538475852131551"><ele>694.6666666666666</ele><time>2026-04-19T15:49:45.999Z</time></trkpt><trkpt lat="42.061057475487914" lon="13.538263575134568"><ele>694.3333333333334</ele><time>2026-04-19T15:49:46.999Z</time></trkpt><trkpt lat="42.06109471497448" lon="13.53805841028716"><ele>694.0</ele><time>2026-04-19T15:49:47.999Z</time></trkpt><trkpt lat="42.0611277287802" lon="13.537847584243805"><ele>693.6666666666667</ele><time>2026-04-19T15:49:48.999Z</time></trkpt><trkpt lat="42.0611603366258" lon="13.537634329488736"><ele>693.3333333333334</ele><time>2026-04-19T15:49:49.999Z</time></trkpt><trkpt lat="42.06119486234498" lon="13.537418808641418"><ele>693.0</ele><time>2026-04-19T15:49:50.999Z</time></trkpt><trkpt lat="42.06123001479385" lon="13.537205272439904"><ele>692.0</ele><time>2026-04-19T15:49:51.999Z</time></trkpt><trkpt lat="42.06126645774435" lon="13.536993016704832"><ele>691.0</ele><time>2026-04-19T15:49:52.999Z</time></trkpt><trkpt lat="42.06130156015045" lon="13.536790167470642"><ele>690.0</ele><time>2026-04-19T15:49:53.999Z</time></trkpt><trkpt lat="42.06133272187771" lon="13.536596708882513"><ele>690.0</ele><time>2026-04-19T15:49:54.999Z</time></trkpt><trkpt lat="42.06136743635526" lon="13.536397969115466"><ele>690.0</ele><time>2026-04-19T15:49:56Z</time></trkpt><trkpt lat="42.06140136819942" lon="13.53618410800444"><ele>690.0</ele><time>2026-04-19T15:49:57Z</time></trkpt><trkpt lat="42.06143714843186" lon="13.535962679919626"><ele>689.3333333333334</ele><time>2026-04-19T15:49:58Z</time></trkpt><trkpt lat="42.06147288952655" lon="13.535746624195475"><ele>688.6666666666667</ele><time>2026-04-19T15:49:59Z</time></trkpt><trkpt lat="42.06150880518165" lon="13.53553423630613"><ele>688.0</ele><time>2026-04-19T15:50:00Z</time></trkpt><trkpt lat="42.061543175310206" lon="13.535324738922743"><ele>688.0</ele><time>2026-04-19T15:50:01Z</time></trkpt><trkpt lat="42.06157680627666" lon="13.535117010974485"><ele>688.0</ele><time>2026-04-19T15:50:02Z</time></trkpt><trkpt lat="42.0616090542573" lon="13.534914191633725"><ele>688.0</ele><time>2026-04-19T15:50:03Z</time></trkpt><trkpt lat="42.06164533205584" lon="13.53472173910333"><ele>688.0</ele><time>2026-04-19T15:50:04Z</time></trkpt><trkpt lat="42.0616782890492" lon="13.53454532940778"><ele>688.0</ele><time>2026-04-19T15:50:05Z</time></trkpt><trkpt lat="42.061708537957905" lon="13.53437913968966"><ele>688.0</ele><time>2026-04-19T15:50:06Z</time></trkpt><trkpt lat="42.061735173474595" lon="13.534228119405999"><ele>688.0</ele><time>2026-04-19T15:50:07Z</time></trkpt><trkpt lat="42.061760014139054" lon="13.534087324839076"><ele>688.0</ele><time>2026-04-19T15:50:08Z</time></trkpt><trkpt lat="42.061786188585735" lon="13.533957188923113"><ele>688.0</ele><time>2026-04-19T15:50:09Z</time></trkpt><trkpt lat="42.0618198007239" lon="13.533839736505918"><ele>688.0</ele><time>2026-04-19T15:50:10Z</time></trkpt><trkpt lat="42.06184390594887" lon="13.533738503304852"><ele>688.0</ele><time>2026-04-19T15:50:11Z</time></trkpt><trkpt lat="42.06189982287845" lon="13.533628906016533"><ele>688.0</ele><time>2026-04-19T15:50:13Z</time></trkpt><trkpt lat="42.06200914100345" lon="13.533604797678203"><ele>687.8</ele><time>2026-04-19T15:50:15Z</time></trkpt><trkpt lat="42.06208853540284" lon="13.533663133857397"><ele>687.5999999999999</ele><time>2026-04-19T15:50:16Z</time></trkpt><trkpt lat="42.06218062950924" lon="13.533652095543669"><ele>687.4000000000001</ele><time>2026-04-19T15:50:17Z</time></trkpt><trkpt lat="42.06228434646873" lon="13.533626246323182"><ele>687.2</ele><time>2026-04-19T15:50:18Z</time></trkpt><trkpt lat="42.062404620951654" lon="13.533646231949506"><ele>687.0</ele><time>2026-04-19T15:50:19Z</time></trkpt><trkpt lat="42.06253283057182" lon="13.533673017239037"><ele>687.0</ele><time>2026-04-19T15:50:20Z</time></trkpt><trkpt lat="42.06267607860489" lon="13.53370245576918"><ele>687.0</ele><time>2026-04-19T15:50:21Z</time></trkpt><trkpt lat="42.062823767412794" lon="13.533737133957294"><ele>687.0</ele><time>2026-04-19T15:50:22Z</time></trkpt><trkpt lat="42.06296965631608" lon="13.533748808502319"><ele>687.0</ele><time>2026-04-19T15:50:23Z</time></trkpt><trkpt lat="42.06311545276517" lon="13.533808009393473"><ele>687.5</ele><time>2026-04-19T15:50:24Z</time></trkpt><trkpt lat="42.06326380533302" lon="13.533843918676265"><ele>688.0</ele><time>2026-04-19T15:50:25Z</time></trkpt><trkpt lat="42.06341255937584" lon="13.533869886701607"><ele>688.5</ele><time>2026-04-19T15:50:26Z</time></trkpt><trkpt lat="42.06355709372032" lon="13.533888735130619"><ele>689.0</ele><time>2026-04-19T15:50:27Z</time></trkpt><trkpt lat="42.06369509628075" lon="13.533901726984771"><ele>689.4000000000001</ele><time>2026-04-19T15:50:28Z</time></trkpt><trkpt lat="42.06381787167966" lon="13.53390591485373"><ele>689.8</ele><time>2026-04-19T15:50:29Z</time></trkpt><trkpt lat="42.06392871201355" lon="13.533909699853098"><ele>690.2</ele><time>2026-04-19T15:50:30Z</time></trkpt><trkpt lat="42.064030643696476" lon="13.533892317359706"><ele>690.5999999999999</ele><time>2026-04-19T15:50:31Z</time></trkpt><trkpt lat="42.06412046805554" lon="13.53392040553599"><ele>691.0</ele><time>2026-04-19T15:50:32Z</time></trkpt><trkpt lat="42.064203124131" lon="13.53391347581303"><ele>691.1999999999999</ele><time>2026-04-19T15:50:33Z</time></trkpt><trkpt lat="42.06427067153908" lon="13.533975439698867"><ele>691.4</ele><time>2026-04-19T15:50:34Z</time></trkpt><trkpt lat="42.064333328740005" lon="13.534028996724114"><ele>691.6</ele><time>2026-04-19T15:50:35Z</time></trkpt><trkpt lat="42.06439592753625" lon="13.534039546422564"><ele>691.8</ele><time>2026-04-19T15:50:36Z</time></trkpt><trkpt lat="42.06449173427577" lon="13.534078631658941"><ele>692.0</ele><time>2026-04-19T15:50:38Z</time></trkpt><trkpt lat="42.06454553694054" lon="13.53385296101285"><ele>692.0</ele><time>2026-04-19T15:50:40Z</time></trkpt><trkpt lat="42.06455505861321" lon="13.533753142959009"><ele>692.0</ele><time>2026-04-19T15:50:42Z</time></trkpt><trkpt lat="42.06466485960985" lon="13.5337250311092"><ele>692.0</ele><time>2026-04-19T15:50:50Z</time></trkpt><trkpt lat="42.0647365499195" lon="13.533715813076004"><ele>692.0</ele><time>2026-04-19T15:50:51Z</time></trkpt><trkpt lat="42.06481178198096" lon="13.533738722801132"><ele>692.0</ele><time>2026-04-19T15:50:52Z</time></trkpt><trkpt lat="42.06489085071996" lon="13.533758086357036"><ele>692.0</ele><time>2026-04-19T15:50:53Z</time></trkpt><trkpt lat="42.064972683610534" lon="13.533780999575315"><ele>692.0</ele><time>2026-04-19T15:50:54Z</time></trkpt><trkpt lat="42.06506262887083" lon="13.533807903662751"><ele>692.0</ele><time>2026-04-19T15:50:55Z</time></trkpt><trkpt lat="42.06516514167696" lon="13.533839106080013"><ele>692.0</ele><time>2026-04-19T15:50:56Z</time></trkpt><trkpt lat="42.0652714228821" lon="13.53388105574734"><ele>692.0</ele><time>2026-04-19T15:50:57Z</time></trkpt><trkpt lat="42.065421946087305" lon="13.533920867133993"><ele>692.0</ele><time>2026-04-19T15:50:58Z</time></trkpt><trkpt lat="42.0655842585547" lon="13.533981304542406"><ele>692.0</ele><time>2026-04-19T15:50:59Z</time></trkpt><trkpt lat="42.06576374283492" lon="13.534054385672983"><ele>692.0</ele><time>2026-04-19T15:51:00Z</time></trkpt><trkpt lat="42.065949266824184" lon="13.534123380213995"><ele>692.3333333333333</ele><time>2026-04-19T15:51:01Z</time></trkpt><trkpt lat="42.06614137246705" lon="13.53418533024398"><ele>692.6666666666666</ele><time>2026-04-19T15:51:02Z</time></trkpt><trkpt lat="42.06635156256268" lon="13.534234498740144"><ele>693.0</ele><time>2026-04-19T15:51:03Z</time></trkpt><trkpt lat="42.06658238454497" lon="13.534260186023953"><ele>693.5</ele><time>2026-04-19T15:51:04Z</time></trkpt><trkpt lat="42.06683455659628" lon="13.534282209377555"><ele>694.0</ele><time>2026-04-19T15:51:05Z</time></trkpt><trkpt lat="42.067081870359566" lon="13.534312413922649"><ele>694.0</ele><time>2026-04-19T15:51:06Z</time></trkpt><trkpt lat="42.067304833756694" lon="13.534342890449345"><ele>694.0</ele><time>2026-04-19T15:51:07Z</time></trkpt><trkpt lat="42.067501811397975" lon="13.53437208001156"><ele>694.0</ele><time>2026-04-19T15:51:08Z</time></trkpt><trkpt lat="42.06768777330077" lon="13.534396426686184"><ele>694.3333333333334</ele><time>2026-04-19T15:51:09Z</time></trkpt><trkpt lat="42.067860579986885" lon="13.534421690717357"><ele>694.6666666666666</ele><time>2026-04-19T15:51:10Z</time></trkpt><trkpt lat="42.06802771718487" lon="13.534451830846258"><ele>695.0</ele><time>2026-04-19T15:51:11Z</time></trkpt><trkpt lat="42.0681820067256" lon="13.534477783488699"><ele>695.25</ele><time>2026-04-19T15:51:12Z</time></trkpt><trkpt lat="42.06832372946409" lon="13.534500134775824"><ele>695.5</ele><time>2026-04-19T15:51:13Z</time></trkpt><trkpt lat="42.06845240248842" lon="13.534540313477379"><ele>695.75</ele><time>2026-04-19T15:51:14Z</time></trkpt><trkpt lat="42.06855409309936" lon="13.534636543460902"><ele>696.0</ele><time>2026-04-19T15:51:15Z</time></trkpt><trkpt lat="42.06866002267197" lon="13.534740264631639"><ele>697.3333333333334</ele><time>2026-04-19T15:51:16Z</time></trkpt><trkpt lat="42.06870261247965" lon="13.534930751394539"><ele>698.6666666666667</ele><time>2026-04-19T15:51:16.999Z</time></trkpt><trkpt lat="42.06878903923524" lon="13.53509421762355"><ele>700.0</ele><time>2026-04-19T15:51:17.999Z</time></trkpt><trkpt lat="42.06887719069335" lon="13.535280174352067"><ele>701.0</ele><time>2026-04-19T15:51:18.999Z</time></trkpt><trkpt lat="42.06898696548461" lon="13.535463378802863"><ele>702.0</ele><time>2026-04-19T15:51:19.999Z</time></trkpt><trkpt lat="42.06911106623575" lon="13.535639792345101"><ele>703.0</ele><time>2026-04-19T15:51:20.999Z</time></trkpt><trkpt lat="42.069246776077584" lon="13.535813256490014"><ele>703.0</ele><time>2026-04-19T15:51:21.999Z</time></trkpt><trkpt lat="42.06939685167789" lon="13.535978251403362"><ele>703.0</ele><time>2026-04-19T15:51:22.999Z</time></trkpt><trkpt lat="42.06956131068162" lon="13.53613516523556"><ele>703.0</ele><time>2026-04-19T15:51:23.999Z</time></trkpt><trkpt lat="42.06972678528654" lon="13.536299691134273"><ele>703.0</ele><time>2026-04-19T15:51:24.999Z</time></trkpt><trkpt lat="42.06989316746162" lon="13.536476227906093"><ele>703.0</ele><time>2026-04-19T15:51:25.999Z</time></trkpt><trkpt lat="42.07006150857883" lon="13.536656465607125"><ele>703.0</ele><time>2026-04-19T15:51:26.999Z</time></trkpt><trkpt lat="42.07023430633253" lon="13.53683026329088"><ele>703.6666666666667</ele><time>2026-04-19T15:51:27.999Z</time></trkpt><trkpt lat="42.07040500905203" lon="13.536993698450946"><ele>704.3333333333334</ele><time>2026-04-19T15:51:28.999Z</time></trkpt><trkpt lat="42.07057403350401" lon="13.537151286503164"><ele>705.0</ele><time>2026-04-19T15:51:29.999Z</time></trkpt><trkpt lat="42.07074326155287" lon="13.537301596039995"><ele>706.3333333333334</ele><time>2026-04-19T15:51:30.999Z</time></trkpt><trkpt lat="42.07091381690165" lon="13.53745172450831"><ele>707.6666666666667</ele><time>2026-04-19T15:51:31.999Z</time></trkpt><trkpt lat="42.07109262445511" lon="13.537594407798304"><ele>709.0</ele><time>2026-04-19T15:51:32.999Z</time></trkpt><trkpt lat="42.071275438972926" lon="13.537734655962737"><ele>709.0</ele><time>2026-04-19T15:51:33.999Z</time></trkpt><trkpt lat="42.07146501997368" lon="13.53787119799489"><ele>709.0</ele><time>2026-04-19T15:51:34.999Z</time></trkpt><trkpt lat="42.07163795981754" lon="13.53799076284362"><ele>709.0</ele><time>2026-04-19T15:51:35.999Z</time></trkpt><trkpt lat="42.0717936835578" lon="13.538099156463913"><ele>710.0</ele><time>2026-04-19T15:51:36.999Z</time></trkpt><trkpt lat="42.071935342311896" lon="13.538200464402486"><ele>711.0</ele><time>2026-04-19T15:51:37.999Z</time></trkpt><trkpt lat="42.0720710009995" lon="13.53829455796929"><ele>712.0</ele><time>2026-04-19T15:51:38.999Z</time></trkpt><trkpt lat="42.072183285029325" lon="13.53840225338407"><ele>712.0</ele><time>2026-04-19T15:51:39.999Z</time></trkpt><trkpt lat="42.072299330394" lon="13.53848042170803"><ele>712.0</ele><time>2026-04-19T15:51:40.999Z</time></trkpt><trkpt lat="42.07238352492448" lon="13.538585259235024"><ele>712.0</ele><time>2026-04-19T15:51:41.999Z</time></trkpt><trkpt lat="42.07246685446048" lon="13.538683275838006"><ele>712.0</ele><time>2026-04-19T15:51:42.999Z</time></trkpt><trkpt lat="42.07254999231125" lon="13.538765935244049"><ele>712.4000000000001</ele><time>2026-04-19T15:51:43.999Z</time></trkpt><trkpt lat="42.07262923715254" lon="13.5388602935839"><ele>712.8000000000001</ele><time>2026-04-19T15:51:44.999Z</time></trkpt><trkpt lat="42.0727035858976" lon="13.538933636559095"><ele>713.2</ele><time>2026-04-19T15:51:45.999Z</time></trkpt><trkpt lat="42.072794522573815" lon="13.538971212057216"><ele>713.6</ele><time>2026-04-19T15:51:46.999Z</time></trkpt><trkpt lat="42.072900761223224" lon="13.538923360840007"><ele>714.0</ele><time>2026-04-19T15:51:47.999Z</time></trkpt><trkpt lat="42.07299915075636" lon="13.538885933742652"><ele>714.0</ele><time>2026-04-19T15:51:48.999Z</time></trkpt><trkpt lat="42.073097747053545" lon="13.538844948451022"><ele>714.0</ele><time>2026-04-19T15:51:49.999Z</time></trkpt><trkpt lat="42.073190294092" lon="13.538806358292138"><ele>714.0</ele><time>2026-04-19T15:51:50.999Z</time></trkpt><trkpt lat="42.07327917408177" lon="13.538801971575998"><ele>714.0</ele><time>2026-04-19T15:51:51.999Z</time></trkpt><trkpt lat="42.07335175466131" lon="13.538776142350043"><ele>714.0</ele><time>2026-04-19T15:51:52.999Z</time></trkpt><trkpt lat="42.07340767337659" lon="13.53873474994991"><ele>714.0</ele><time>2026-04-19T15:51:53.999Z</time></trkpt><trkpt lat="42.07353129157868" lon="13.53873979724804"><ele>714.5</ele><time>2026-04-19T15:51:55.999Z</time></trkpt><trkpt lat="42.07359808347932" lon="13.538786476319194"><ele>715.0</ele><time>2026-04-19T15:51:56.999Z</time></trkpt><trkpt lat="42.073636725402125" lon="13.538891012183244"><ele>715.5</ele><time>2026-04-19T15:51:57.999Z</time></trkpt><trkpt lat="42.073676175953516" lon="13.538985761113072"><ele>716.0</ele><time>2026-04-19T15:51:58.999Z</time></trkpt><trkpt lat="42.073712866698436" lon="13.53907899112967"><ele>716.5</ele><time>2026-04-19T15:51:59.999Z</time></trkpt><trkpt lat="42.07375777444018" lon="13.539168250406426"><ele>717.0</ele><time>2026-04-19T15:52:01Z</time></trkpt><trkpt lat="42.073795742346896" lon="13.539266659832364"><ele>717.0</ele><time>2026-04-19T15:52:02Z</time></trkpt><trkpt lat="42.07384041670276" lon="13.539353715618091"><ele>717.0</ele><time>2026-04-19T15:52:03Z</time></trkpt><trkpt lat="42.07389439130663" lon="13.539419737811132"><ele>717.0</ele><time>2026-04-19T15:52:04Z</time></trkpt><trkpt lat="42.07397375315098" lon="13.539466900492972"><ele>717.0</ele><time>2026-04-19T15:52:05Z</time></trkpt><trkpt lat="42.07407326060332" lon="13.53948166815002"><ele>717.0</ele><time>2026-04-19T15:52:06Z</time></trkpt><trkpt lat="42.07418606813489" lon="13.539465707021172"><ele>717.5</ele><time>2026-04-19T15:52:07Z</time></trkpt><trkpt lat="42.0743070022679" lon="13.539437908052085"><ele>718.0</ele><time>2026-04-19T15:52:08Z</time></trkpt><trkpt lat="42.074435085327735" lon="13.53941979571474"><ele>718.5</ele><time>2026-04-19T15:52:09Z</time></trkpt><trkpt lat="42.07456895308333" lon="13.539407160672527"><ele>719.0</ele><time>2026-04-19T15:52:10Z</time></trkpt><trkpt lat="42.07471016977195" lon="13.539390095788416"><ele>719.0</ele><time>2026-04-19T15:52:11Z</time></trkpt><trkpt lat="42.07485642171539" lon="13.539370333229089"><ele>719.0</ele><time>2026-04-19T15:52:12Z</time></trkpt><trkpt lat="42.07501083422355" lon="13.539349471689178"><ele>719.0</ele><time>2026-04-19T15:52:13Z</time></trkpt><trkpt lat="42.07517020662044" lon="13.53932749200307"><ele>720.0</ele><time>2026-04-19T15:52:14Z</time></trkpt><trkpt lat="42.075330170575086" lon="13.539302569139089"><ele>721.0</ele><time>2026-04-19T15:52:15Z</time></trkpt><trkpt lat="42.07549421295329" lon="13.539310344578277"><ele>722.0</ele><time>2026-04-19T15:52:16Z</time></trkpt><trkpt lat="42.07566520193283" lon="13.539271182590312"><ele>723.0</ele><time>2026-04-19T15:52:17Z</time></trkpt><trkpt lat="42.07582381872385" lon="13.53925559993309"><ele>724.0</ele><time>2026-04-19T15:52:18Z</time></trkpt><trkpt lat="42.075974079154314" lon="13.539235447749196"><ele>725.0</ele><time>2026-04-19T15:52:19Z</time></trkpt><trkpt lat="42.07612873041336" lon="13.539220567291663"><ele>725.0</ele><time>2026-04-19T15:52:20Z</time></trkpt><trkpt lat="42.076286827453444" lon="13.539199104315479"><ele>725.0</ele><time>2026-04-19T15:52:21Z</time></trkpt><trkpt lat="42.07643306733238" lon="13.539197720030133"><ele>725.0</ele><time>2026-04-19T15:52:22Z</time></trkpt><trkpt lat="42.076558728651655" lon="13.539219146137471"><ele>725.0</ele><time>2026-04-19T15:52:23Z</time></trkpt><trkpt lat="42.07666414286045" lon="13.539258621575332"><ele>725.6</ele><time>2026-04-19T15:52:24Z</time></trkpt><trkpt lat="42.07674890375841" lon="13.539310769100984"><ele>726.2</ele><time>2026-04-19T15:52:25Z</time></trkpt><trkpt lat="42.076840376743924" lon="13.539368615427687"><ele>726.8</ele><time>2026-04-19T15:52:26Z</time></trkpt><trkpt lat="42.07691750708109" lon="13.539422520735782"><ele>727.4</ele><time>2026-04-19T15:52:27Z</time></trkpt><trkpt lat="42.07699951210094" lon="13.5394810494044"><ele>728.0</ele><time>2026-04-19T15:52:28Z</time></trkpt><trkpt lat="42.07708594860962" lon="13.539509130571101"><ele>728.0</ele><time>2026-04-19T15:52:29Z</time></trkpt><trkpt lat="42.07715502555365" lon="13.539519150839297"><ele>728.0</ele><time>2026-04-19T15:52:30Z</time></trkpt><trkpt lat="42.07723493157822" lon="13.539338939202365"><ele>728.0</ele><time>2026-04-19T15:52:32Z</time></trkpt><trkpt lat="42.077231183090824" lon="13.539219101396437"><ele>728.0</ele><time>2026-04-19T15:52:33Z</time></trkpt><trkpt lat="42.07723312447103" lon="13.539074593352368"><ele>728.0</ele><time>2026-04-19T15:52:34Z</time></trkpt><trkpt lat="42.07721367419923" lon="13.53891608739752"><ele>728.0</ele><time>2026-04-19T15:52:35Z</time></trkpt><trkpt lat="42.077192122617575" lon="13.538749754928507"><ele>728.0</ele><time>2026-04-19T15:52:36Z</time></trkpt><trkpt lat="42.07716885241309" lon="13.538585066920058"><ele>728.0</ele><time>2026-04-19T15:52:37Z</time></trkpt><trkpt lat="42.07712271337446" lon="13.538429023792107"><ele>728.0</ele><time>2026-04-19T15:52:38Z</time></trkpt><trkpt lat="42.07709390960369" lon="13.538265468981587"><ele>728.0</ele><time>2026-04-19T15:52:39Z</time></trkpt><trkpt lat="42.077064685456484" lon="13.53810164181243"><ele>728.0</ele><time>2026-04-19T15:52:40Z</time></trkpt><trkpt lat="42.07705716266508" lon="13.53792491123649"><ele>728.0</ele><time>2026-04-19T15:52:41Z</time></trkpt><trkpt lat="42.07702474204801" lon="13.53776239358174"><ele>728.0</ele><time>2026-04-19T15:52:42Z</time></trkpt><trkpt lat="42.07699247105377" lon="13.537597095866824"><ele>728.0</ele><time>2026-04-19T15:52:43Z</time></trkpt><trkpt lat="42.076933891970114" lon="13.537396560513868"><ele>728.0</ele><time>2026-04-19T15:52:44Z</time></trkpt><trkpt lat="42.076900395709515" lon="13.537210975864308"><ele>728.0</ele><time>2026-04-19T15:52:45Z</time></trkpt><trkpt lat="42.0768596966002" lon="13.537027602389989"><ele>728.0</ele><time>2026-04-19T15:52:46Z</time></trkpt><trkpt lat="42.0768210274192" lon="13.536835423959017"><ele>727.6666666666666</ele><time>2026-04-19T15:52:47Z</time></trkpt><trkpt lat="42.07678283465672" lon="13.53664109082888"><ele>727.3333333333334</ele><time>2026-04-19T15:52:48Z</time></trkpt><trkpt lat="42.07674228097041" lon="13.536435596135298"><ele>727.0</ele><time>2026-04-19T15:52:49Z</time></trkpt><trkpt lat="42.07670144088326" lon="13.536227282753"><ele>726.3333333333334</ele><time>2026-04-19T15:52:50Z</time></trkpt><trkpt lat="42.07665888561919" lon="13.536013832562212"><ele>725.6666666666666</ele><time>2026-04-19T15:52:51Z</time></trkpt><trkpt lat="42.076618745606986" lon="13.53579501501294"><ele>725.0</ele><time>2026-04-19T15:52:52Z</time></trkpt><trkpt lat="42.07657608959973" lon="13.53557746100866"><ele>724.0</ele><time>2026-04-19T15:52:53Z</time></trkpt><trkpt lat="42.07653288839011" lon="13.535369460130505"><ele>723.0</ele><time>2026-04-19T15:52:54Z</time></trkpt><trkpt lat="42.07648555082457" lon="13.535160982558772"><ele>722.0</ele><time>2026-04-19T15:52:55Z</time></trkpt><trkpt lat="42.076424645831054" lon="13.534963238028"><ele>722.0</ele><time>2026-04-19T15:52:56Z</time></trkpt><trkpt lat="42.076352271912" lon="13.534779278261562"><ele>722.0</ele><time>2026-04-19T15:52:57Z</time></trkpt><trkpt lat="42.0762761318239" lon="13.534597049110797"><ele>722.0</ele><time>2026-04-19T15:52:58Z</time></trkpt><trkpt lat="42.07620366807703" lon="13.534422406665378"><ele>722.25</ele><time>2026-04-19T15:52:59Z</time></trkpt><trkpt lat="42.076139028790045" lon="13.534263945583366"><ele>722.5</ele><time>2026-04-19T15:53:00Z</time></trkpt><trkpt lat="42.07607267911202" lon="13.53409776017513"><ele>722.75</ele><time>2026-04-19T15:53:01Z</time></trkpt><trkpt lat="42.0760077543145" lon="13.53392988103169"><ele>723.0</ele><time>2026-04-19T15:53:02Z</time></trkpt><trkpt lat="42.07594601591259" lon="13.533762020894088"><ele>723.25</ele><time>2026-04-19T15:53:03Z</time></trkpt><trkpt lat="42.07588068162858" lon="13.53359571519432"><ele>723.5</ele><time>2026-04-19T15:53:04Z</time></trkpt><trkpt lat="42.07581631211283" lon="13.533427979455979"><ele>723.75</ele><time>2026-04-19T15:53:05Z</time></trkpt><trkpt lat="42.07575093113586" lon="13.533258123801248"><ele>724.0</ele><time>2026-04-19T15:53:06Z</time></trkpt><trkpt lat="42.07567910481054" lon="13.533080224736352"><ele>723.0</ele><time>2026-04-19T15:53:07Z</time></trkpt><trkpt lat="42.07559866862188" lon="13.532893725386522"><ele>722.0</ele><time>2026-04-19T15:53:08Z</time></trkpt><trkpt lat="42.07551230363187" lon="13.532699929944178"><ele>721.0</ele><time>2026-04-19T15:53:09Z</time></trkpt><trkpt lat="42.07542969114049" lon="13.532500536515705"><ele>721.0</ele><time>2026-04-19T15:53:10Z</time></trkpt><trkpt lat="42.07534691742035" lon="13.532296111341962"><ele>721.0</ele><time>2026-04-19T15:53:11Z</time></trkpt><trkpt lat="42.07526487968508" lon="13.532096377245878"><ele>721.0</ele><time>2026-04-19T15:53:12Z</time></trkpt><trkpt lat="42.075184029415205" lon="13.531903492492829"><ele>720.75</ele><time>2026-04-19T15:53:13Z</time></trkpt><trkpt lat="42.0751087067178" lon="13.531720193290912"><ele>720.5</ele><time>2026-04-19T15:53:14Z</time></trkpt><trkpt lat="42.07503856794985" lon="13.53155326123725"><ele>720.25</ele><time>2026-04-19T15:53:15Z</time></trkpt><trkpt lat="42.07498442809623" lon="13.53138228806483"><ele>720.0</ele><time>2026-04-19T15:53:16Z</time></trkpt><trkpt lat="42.07490856570031" lon="13.531231630130979"><ele>719.6</ele><time>2026-04-19T15:53:17Z</time></trkpt><trkpt lat="42.07484442087371" lon="13.53107235492553"><ele>719.2</ele><time>2026-04-19T15:53:18Z</time></trkpt><trkpt lat="42.074788178725385" lon="13.530930550452394"><ele>718.8</ele><time>2026-04-19T15:53:19Z</time></trkpt><trkpt lat="42.07473717765023" lon="13.530811076653885"><ele>718.4</ele><time>2026-04-19T15:53:19.999Z</time></trkpt><trkpt lat="42.07469556422244" lon="13.530707448235086"><ele>718.0</ele><time>2026-04-19T15:53:20.999Z</time></trkpt><trkpt lat="42.07464559755074" lon="13.530582786791776"><ele>718.0</ele><time>2026-04-19T15:53:22.999Z</time></trkpt><trkpt lat="42.07462739357709" lon="13.53047866691271"><ele>718.0</ele><time>2026-04-19T15:53:25.999Z</time></trkpt></trkseg></trk></gpx>